<?xml version="1.0" encoding="UTF-8" standalone="no" ?>
<gpx xmlns="http://www.topografix.com/GPX/1/1" xmlns:xsi="http://www.w3.org/2001/XMLSchema-instance" xsi:schemaLocation="http://www.topografix.com/GPX/1/1 http://www.topografix.com/GPX/1/1/gpx.xsd" version="1.1" creator="VisuGPX - https://www.visugpx.com">
  <metadata>
    <name>Tour de la Vallée de la Thur 2016</name>
    <desc><![CDATA[Trace AlpineQuest 18/06/2016 10:21:49]]></desc>
  </metadata>
  <trk>
    <name><![CDATA[tour thur 2016]]></name>
    <trkseg>
      <trkpt lat="47.87284" lon="7.03228">
        <ele>408</ele>
        <time>2016-06-18T08:21:49Z</time>
      </trkpt>
      <trkpt lat="47.87296" lon="7.03233">
        <ele>408</ele>
        <time>2016-06-18T08:22:03Z</time>
      </trkpt>
      <trkpt lat="47.87311" lon="7.03226">
        <ele>409</ele>
        <time>2016-06-18T08:22:16Z</time>
      </trkpt>
      <trkpt lat="47.87315" lon="7.03223">
        <ele>409</ele>
        <time>2016-06-18T08:22:25Z</time>
      </trkpt>
      <trkpt lat="47.87326" lon="7.03219">
        <ele>409</ele>
        <time>2016-06-18T08:22:35Z</time>
      </trkpt>
      <trkpt lat="47.87337" lon="7.03215">
        <ele>412</ele>
        <time>2016-06-18T08:22:46Z</time>
      </trkpt>
      <trkpt lat="47.8734" lon="7.03209">
        <ele>412</ele>
        <time>2016-06-18T08:22:49Z</time>
      </trkpt>
      <trkpt lat="47.87352" lon="7.03195">
        <ele>413</ele>
        <time>2016-06-18T08:23:00Z</time>
      </trkpt>
      <trkpt lat="47.87362" lon="7.03178">
        <ele>413</ele>
        <time>2016-06-18T08:23:13Z</time>
      </trkpt>
      <trkpt lat="47.87373" lon="7.03163">
        <ele>414</ele>
        <time>2016-06-18T08:23:25Z</time>
      </trkpt>
      <trkpt lat="47.87381" lon="7.03158">
        <ele>414</ele>
        <time>2016-06-18T08:23:36Z</time>
      </trkpt>
      <trkpt lat="47.87388" lon="7.03156">
        <ele>414</ele>
        <time>2016-06-18T08:23:47Z</time>
      </trkpt>
      <trkpt lat="47.87393" lon="7.03158">
        <ele>414</ele>
        <time>2016-06-18T08:23:50Z</time>
      </trkpt>
      <trkpt lat="47.87398" lon="7.03162">
        <ele>415</ele>
        <time>2016-06-18T08:23:53Z</time>
      </trkpt>
      <trkpt lat="47.87414" lon="7.03164">
        <ele>416</ele>
        <time>2016-06-18T08:24:04Z</time>
      </trkpt>
      <trkpt lat="47.87429" lon="7.03173">
        <ele>416</ele>
        <time>2016-06-18T08:24:17Z</time>
      </trkpt>
      <trkpt lat="47.87441" lon="7.03186">
        <ele>417</ele>
        <time>2016-06-18T08:24:29Z</time>
      </trkpt>
      <trkpt lat="47.87453" lon="7.03198">
        <ele>417</ele>
        <time>2016-06-18T08:24:41Z</time>
      </trkpt>
      <trkpt lat="47.87465" lon="7.03203">
        <ele>417</ele>
        <time>2016-06-18T08:24:51Z</time>
      </trkpt>
      <trkpt lat="47.87469" lon="7.03208">
        <ele>417</ele>
        <time>2016-06-18T08:24:55Z</time>
      </trkpt>
      <trkpt lat="47.87472" lon="7.03215">
        <ele>417</ele>
        <time>2016-06-18T08:24:59Z</time>
      </trkpt>
      <trkpt lat="47.8748" lon="7.03224">
        <ele>417</ele>
        <time>2016-06-18T08:25:09Z</time>
      </trkpt>
      <trkpt lat="47.87492" lon="7.03236">
        <ele>417</ele>
        <time>2016-06-18T08:25:20Z</time>
      </trkpt>
      <trkpt lat="47.87507" lon="7.03244">
        <ele>419</ele>
        <time>2016-06-18T08:25:32Z</time>
      </trkpt>
      <trkpt lat="47.87519" lon="7.03259">
        <ele>422</ele>
        <time>2016-06-18T08:25:46Z</time>
      </trkpt>
      <trkpt lat="47.87529" lon="7.03277">
        <ele>423</ele>
        <time>2016-06-18T08:25:59Z</time>
      </trkpt>
      <trkpt lat="47.87529" lon="7.03292">
        <ele>424</ele>
        <time>2016-06-18T08:26:23Z</time>
      </trkpt>
      <trkpt lat="47.87518" lon="7.0331">
        <ele>425</ele>
        <time>2016-06-18T08:26:34Z</time>
      </trkpt>
      <trkpt lat="47.87511" lon="7.0333">
        <ele>425</ele>
        <time>2016-06-18T08:26:46Z</time>
      </trkpt>
      <trkpt lat="47.87502" lon="7.03349">
        <ele>430</ele>
        <time>2016-06-18T08:26:59Z</time>
      </trkpt>
      <trkpt lat="47.87489" lon="7.03358">
        <ele>426</ele>
        <time>2016-06-18T08:27:09Z</time>
      </trkpt>
      <trkpt lat="47.87478" lon="7.03374">
        <ele>427</ele>
        <time>2016-06-18T08:27:22Z</time>
      </trkpt>
      <trkpt lat="47.87468" lon="7.0339">
        <ele>427</ele>
        <time>2016-06-18T08:27:35Z</time>
      </trkpt>
      <trkpt lat="47.8746" lon="7.0341">
        <ele>427</ele>
        <time>2016-06-18T08:27:49Z</time>
      </trkpt>
      <trkpt lat="47.87454" lon="7.03432">
        <ele>435</ele>
        <time>2016-06-18T08:28:00Z</time>
      </trkpt>
      <trkpt lat="47.87445" lon="7.03451">
        <ele>436</ele>
        <time>2016-06-18T08:28:12Z</time>
      </trkpt>
      <trkpt lat="47.87434" lon="7.03472">
        <ele>438</ele>
        <time>2016-06-18T08:28:25Z</time>
      </trkpt>
      <trkpt lat="47.87423" lon="7.03487">
        <ele>439</ele>
        <time>2016-06-18T08:28:36Z</time>
      </trkpt>
      <trkpt lat="47.87412" lon="7.03505">
        <ele>441</ele>
        <time>2016-06-18T08:28:49Z</time>
      </trkpt>
      <trkpt lat="47.87407" lon="7.0351">
        <ele>442</ele>
        <time>2016-06-18T08:28:52Z</time>
      </trkpt>
      <trkpt lat="47.87393" lon="7.03519">
        <ele>444</ele>
        <time>2016-06-18T08:29:03Z</time>
      </trkpt>
      <trkpt lat="47.8738" lon="7.03532">
        <ele>445</ele>
        <time>2016-06-18T08:29:15Z</time>
      </trkpt>
      <trkpt lat="47.87366" lon="7.03543">
        <ele>445</ele>
        <time>2016-06-18T08:29:28Z</time>
      </trkpt>
      <trkpt lat="47.87353" lon="7.03558">
        <ele>447</ele>
        <time>2016-06-18T08:29:40Z</time>
      </trkpt>
      <trkpt lat="47.87346" lon="7.03576">
        <ele>449</ele>
        <time>2016-06-18T08:29:53Z</time>
      </trkpt>
      <trkpt lat="47.87353" lon="7.03586">
        <ele>461</ele>
        <time>2016-06-18T08:30:03Z</time>
      </trkpt>
      <trkpt lat="47.87362" lon="7.03592">
        <ele>464</ele>
        <time>2016-06-18T08:30:16Z</time>
      </trkpt>
      <trkpt lat="47.8736" lon="7.03604">
        <ele>465</ele>
        <time>2016-06-18T08:30:28Z</time>
      </trkpt>
      <trkpt lat="47.87359" lon="7.03618">
        <ele>468</ele>
        <time>2016-06-18T08:30:44Z</time>
      </trkpt>
      <trkpt lat="47.87345" lon="7.03623">
        <ele>468</ele>
        <time>2016-06-18T08:30:55Z</time>
      </trkpt>
      <trkpt lat="47.87337" lon="7.03627">
        <ele>469</ele>
        <time>2016-06-18T08:31:01Z</time>
      </trkpt>
      <trkpt lat="47.87327" lon="7.03633">
        <ele>462</ele>
        <time>2016-06-18T08:31:12Z</time>
      </trkpt>
      <trkpt lat="47.87312" lon="7.03638">
        <ele>462</ele>
        <time>2016-06-18T08:31:23Z</time>
      </trkpt>
      <trkpt lat="47.87297" lon="7.0364">
        <ele>461</ele>
        <time>2016-06-18T08:31:34Z</time>
      </trkpt>
      <trkpt lat="47.87286" lon="7.03638">
        <ele>460</ele>
        <time>2016-06-18T08:31:42Z</time>
      </trkpt>
      <trkpt lat="47.87278" lon="7.03657">
        <ele>461</ele>
        <time>2016-06-18T08:31:56Z</time>
      </trkpt>
      <trkpt lat="47.8727" lon="7.03676">
        <ele>475</ele>
        <time>2016-06-18T08:32:09Z</time>
      </trkpt>
      <trkpt lat="47.87258" lon="7.03688">
        <ele>475</ele>
        <time>2016-06-18T08:32:21Z</time>
      </trkpt>
      <trkpt lat="47.87254" lon="7.03695">
        <ele>477</ele>
        <time>2016-06-18T08:32:25Z</time>
      </trkpt>
      <trkpt lat="47.87243" lon="7.03711">
        <ele>468</ele>
        <time>2016-06-18T08:32:36Z</time>
      </trkpt>
      <trkpt lat="47.87236" lon="7.03728">
        <ele>472</ele>
        <time>2016-06-18T08:32:48Z</time>
      </trkpt>
      <trkpt lat="47.87232" lon="7.03741">
        <ele>475</ele>
        <time>2016-06-18T08:32:59Z</time>
      </trkpt>
      <trkpt lat="47.87237" lon="7.03746">
        <ele>478</ele>
        <time>2016-06-18T08:33:09Z</time>
      </trkpt>
      <trkpt lat="47.87247" lon="7.03755">
        <ele>490</ele>
        <time>2016-06-18T08:33:15Z</time>
      </trkpt>
      <trkpt lat="47.87262" lon="7.0375">
        <ele>498</ele>
        <time>2016-06-18T08:33:30Z</time>
      </trkpt>
      <trkpt lat="47.87266" lon="7.03746">
        <ele>488</ele>
        <time>2016-06-18T08:33:33Z</time>
      </trkpt>
      <trkpt lat="47.87274" lon="7.03735">
        <ele>486</ele>
        <time>2016-06-18T08:33:44Z</time>
      </trkpt>
      <trkpt lat="47.87285" lon="7.03738">
        <ele>487</ele>
        <time>2016-06-18T08:33:54Z</time>
      </trkpt>
      <trkpt lat="47.873" lon="7.03738">
        <ele>489</ele>
        <time>2016-06-18T08:34:15Z</time>
      </trkpt>
      <trkpt lat="47.87309" lon="7.03744">
        <ele>492</ele>
        <time>2016-06-18T08:34:25Z</time>
      </trkpt>
      <trkpt lat="47.87319" lon="7.03762">
        <ele>509</ele>
        <time>2016-06-18T08:34:36Z</time>
      </trkpt>
      <trkpt lat="47.87331" lon="7.03776">
        <ele>511</ele>
        <time>2016-06-18T08:34:48Z</time>
      </trkpt>
      <trkpt lat="47.87339" lon="7.03783">
        <ele>519</ele>
        <time>2016-06-18T08:35:02Z</time>
      </trkpt>
      <trkpt lat="47.87354" lon="7.03787">
        <ele>521</ele>
        <time>2016-06-18T08:35:14Z</time>
      </trkpt>
      <trkpt lat="47.87355" lon="7.03795">
        <ele>522</ele>
        <time>2016-06-18T08:35:26Z</time>
      </trkpt>
      <trkpt lat="47.87351" lon="7.03808">
        <ele>525</ele>
        <time>2016-06-18T08:35:40Z</time>
      </trkpt>
      <trkpt lat="47.87342" lon="7.0381">
        <ele>525</ele>
        <time>2016-06-18T08:35:51Z</time>
      </trkpt>
      <trkpt lat="47.87338" lon="7.03808">
        <ele>525</ele>
        <time>2016-06-18T08:35:56Z</time>
      </trkpt>
      <trkpt lat="47.87326" lon="7.03803">
        <ele>517</ele>
        <time>2016-06-18T08:36:07Z</time>
      </trkpt>
      <trkpt lat="47.87321" lon="7.03803">
        <ele>517</ele>
        <time>2016-06-18T08:36:12Z</time>
      </trkpt>
      <trkpt lat="47.87313" lon="7.03797">
        <ele>515</ele>
        <time>2016-06-18T08:36:23Z</time>
      </trkpt>
      <trkpt lat="47.87302" lon="7.03793">
        <ele>513</ele>
        <time>2016-06-18T08:36:35Z</time>
      </trkpt>
      <trkpt lat="47.87308" lon="7.03806">
        <ele>516</ele>
        <time>2016-06-18T08:36:47Z</time>
      </trkpt>
      <trkpt lat="47.87311" lon="7.03818">
        <ele>519</ele>
        <time>2016-06-18T08:36:58Z</time>
      </trkpt>
      <trkpt lat="47.87307" lon="7.0383">
        <ele>520</ele>
        <time>2016-06-18T08:37:08Z</time>
      </trkpt>
      <trkpt lat="47.87302" lon="7.03833">
        <ele>519</ele>
        <time>2016-06-18T08:37:12Z</time>
      </trkpt>
      <trkpt lat="47.87288" lon="7.03841">
        <ele>537</ele>
        <time>2016-06-18T08:37:25Z</time>
      </trkpt>
      <trkpt lat="47.87278" lon="7.03849">
        <ele>537</ele>
        <time>2016-06-18T08:37:35Z</time>
      </trkpt>
      <trkpt lat="47.87268" lon="7.03858">
        <ele>537</ele>
        <time>2016-06-18T08:37:45Z</time>
      </trkpt>
      <trkpt lat="47.87259" lon="7.03877">
        <ele>542</ele>
        <time>2016-06-18T08:37:59Z</time>
      </trkpt>
      <trkpt lat="47.87243" lon="7.03881">
        <ele>532</ele>
        <time>2016-06-18T08:38:11Z</time>
      </trkpt>
      <trkpt lat="47.87231" lon="7.03895">
        <ele>535</ele>
        <time>2016-06-18T08:38:22Z</time>
      </trkpt>
      <trkpt lat="47.87234" lon="7.03899">
        <ele>538</ele>
        <time>2016-06-18T08:38:32Z</time>
      </trkpt>
      <trkpt lat="47.87245" lon="7.03901">
        <ele>543</ele>
        <time>2016-06-18T08:38:45Z</time>
      </trkpt>
      <trkpt lat="47.87249" lon="7.03902">
        <ele>544</ele>
        <time>2016-06-18T08:38:51Z</time>
      </trkpt>
      <trkpt lat="47.87265" lon="7.03906">
        <ele>550</ele>
        <time>2016-06-18T08:39:07Z</time>
      </trkpt>
      <trkpt lat="47.8727" lon="7.03907">
        <ele>550</ele>
        <time>2016-06-18T08:39:12Z</time>
      </trkpt>
      <trkpt lat="47.87278" lon="7.03914">
        <ele>549</ele>
        <time>2016-06-18T08:39:24Z</time>
      </trkpt>
      <trkpt lat="47.87282" lon="7.03919">
        <ele>566</ele>
        <time>2016-06-18T08:39:29Z</time>
      </trkpt>
      <trkpt lat="47.87292" lon="7.03933">
        <ele>567</ele>
        <time>2016-06-18T08:39:43Z</time>
      </trkpt>
      <trkpt lat="47.87302" lon="7.03952">
        <ele>569</ele>
        <time>2016-06-18T08:39:56Z</time>
      </trkpt>
      <trkpt lat="47.87306" lon="7.03957">
        <ele>570</ele>
        <time>2016-06-18T08:40:00Z</time>
      </trkpt>
      <trkpt lat="47.87318" lon="7.03971">
        <ele>572</ele>
        <time>2016-06-18T08:40:14Z</time>
      </trkpt>
      <trkpt lat="47.87326" lon="7.03978">
        <ele>574</ele>
        <time>2016-06-18T08:40:24Z</time>
      </trkpt>
      <trkpt lat="47.87337" lon="7.03996">
        <ele>577</ele>
        <time>2016-06-18T08:40:37Z</time>
      </trkpt>
      <trkpt lat="47.87344" lon="7.04007">
        <ele>583</ele>
        <time>2016-06-18T08:40:45Z</time>
      </trkpt>
      <trkpt lat="47.87358" lon="7.04019">
        <ele>585</ele>
        <time>2016-06-18T08:40:56Z</time>
      </trkpt>
      <trkpt lat="47.87364" lon="7.04029">
        <ele>587</ele>
        <time>2016-06-18T08:41:07Z</time>
      </trkpt>
      <trkpt lat="47.87369" lon="7.04032">
        <ele>587</ele>
        <time>2016-06-18T08:41:13Z</time>
      </trkpt>
      <trkpt lat="47.87377" lon="7.04039">
        <ele>587</ele>
        <time>2016-06-18T08:41:26Z</time>
      </trkpt>
      <trkpt lat="47.87387" lon="7.04049">
        <ele>589</ele>
        <time>2016-06-18T08:41:34Z</time>
      </trkpt>
      <trkpt lat="47.87383" lon="7.04054">
        <ele>589</ele>
        <time>2016-06-18T08:41:43Z</time>
      </trkpt>
      <trkpt lat="47.87378" lon="7.04052">
        <ele>589</ele>
        <time>2016-06-18T08:41:50Z</time>
      </trkpt>
      <trkpt lat="47.87373" lon="7.0405">
        <ele>589</ele>
        <time>2016-06-18T08:41:56Z</time>
      </trkpt>
      <trkpt lat="47.87363" lon="7.04053">
        <ele>589</ele>
        <time>2016-06-18T08:42:06Z</time>
      </trkpt>
      <trkpt lat="47.87354" lon="7.04055">
        <ele>590</ele>
        <time>2016-06-18T08:42:17Z</time>
      </trkpt>
      <trkpt lat="47.87338" lon="7.04058">
        <ele>591</ele>
        <time>2016-06-18T08:42:31Z</time>
      </trkpt>
      <trkpt lat="47.87332" lon="7.04056">
        <ele>594</ele>
        <time>2016-06-18T08:42:36Z</time>
      </trkpt>
      <trkpt lat="47.87334" lon="7.04069">
        <ele>593</ele>
        <time>2016-06-18T08:42:51Z</time>
      </trkpt>
      <trkpt lat="47.87345" lon="7.04085">
        <ele>601</ele>
        <time>2016-06-18T08:43:03Z</time>
      </trkpt>
      <trkpt lat="47.87351" lon="7.04087">
        <ele>602</ele>
        <time>2016-06-18T08:43:06Z</time>
      </trkpt>
      <trkpt lat="47.87362" lon="7.04101">
        <ele>603</ele>
        <time>2016-06-18T08:43:18Z</time>
      </trkpt>
      <trkpt lat="47.87375" lon="7.04114">
        <ele>604</ele>
        <time>2016-06-18T08:43:33Z</time>
      </trkpt>
      <trkpt lat="47.87379" lon="7.0412">
        <ele>605</ele>
        <time>2016-06-18T08:43:38Z</time>
      </trkpt>
      <trkpt lat="47.87389" lon="7.04124">
        <ele>605</ele>
        <time>2016-06-18T08:43:49Z</time>
      </trkpt>
      <trkpt lat="47.87406" lon="7.04129">
        <ele>606</ele>
        <time>2016-06-18T08:44:02Z</time>
      </trkpt>
      <trkpt lat="47.87423" lon="7.04131">
        <ele>604</ele>
        <time>2016-06-18T08:44:14Z</time>
      </trkpt>
      <trkpt lat="47.87436" lon="7.0413">
        <ele>603</ele>
        <time>2016-06-18T08:44:21Z</time>
      </trkpt>
      <trkpt lat="47.87449" lon="7.04137">
        <ele>603</ele>
        <time>2016-06-18T08:44:33Z</time>
      </trkpt>
      <trkpt lat="47.87461" lon="7.04141">
        <ele>603</ele>
        <time>2016-06-18T08:44:43Z</time>
      </trkpt>
      <trkpt lat="47.87469" lon="7.04152">
        <ele>604</ele>
        <time>2016-06-18T08:44:51Z</time>
      </trkpt>
      <trkpt lat="47.87481" lon="7.04165">
        <ele>605</ele>
        <time>2016-06-18T08:45:03Z</time>
      </trkpt>
      <trkpt lat="47.87485" lon="7.04179">
        <ele>614</ele>
        <time>2016-06-18T08:45:10Z</time>
      </trkpt>
      <trkpt lat="47.87492" lon="7.0419">
        <ele>616</ele>
        <time>2016-06-18T08:45:18Z</time>
      </trkpt>
      <trkpt lat="47.87501" lon="7.04199">
        <ele>610</ele>
        <time>2016-06-18T08:45:28Z</time>
      </trkpt>
      <trkpt lat="47.87509" lon="7.04216">
        <ele>613</ele>
        <time>2016-06-18T08:45:38Z</time>
      </trkpt>
      <trkpt lat="47.87511" lon="7.04222">
        <ele>614</ele>
        <time>2016-06-18T08:45:42Z</time>
      </trkpt>
      <trkpt lat="47.87517" lon="7.04234">
        <ele>616</ele>
        <time>2016-06-18T08:45:56Z</time>
      </trkpt>
      <trkpt lat="47.87527" lon="7.04251">
        <ele>628</ele>
        <time>2016-06-18T08:46:10Z</time>
      </trkpt>
      <trkpt lat="47.87539" lon="7.04268">
        <ele>629</ele>
        <time>2016-06-18T08:46:21Z</time>
      </trkpt>
      <trkpt lat="47.87548" lon="7.04275">
        <ele>628</ele>
        <time>2016-06-18T08:46:28Z</time>
      </trkpt>
      <trkpt lat="47.87561" lon="7.04286">
        <ele>629</ele>
        <time>2016-06-18T08:46:41Z</time>
      </trkpt>
      <trkpt lat="47.8757" lon="7.04302">
        <ele>631</ele>
        <time>2016-06-18T08:46:56Z</time>
      </trkpt>
      <trkpt lat="47.87576" lon="7.04321">
        <ele>633</ele>
        <time>2016-06-18T08:47:08Z</time>
      </trkpt>
      <trkpt lat="47.87582" lon="7.04334">
        <ele>637</ele>
        <time>2016-06-18T08:47:18Z</time>
      </trkpt>
      <trkpt lat="47.87592" lon="7.04348">
        <ele>640</ele>
        <time>2016-06-18T08:47:36Z</time>
      </trkpt>
      <trkpt lat="47.87601" lon="7.04353">
        <ele>641</ele>
        <time>2016-06-18T08:47:46Z</time>
      </trkpt>
      <trkpt lat="47.87612" lon="7.04383">
        <ele>647</ele>
        <time>2016-06-18T08:47:59Z</time>
      </trkpt>
      <trkpt lat="47.8762" lon="7.04402">
        <ele>649</ele>
        <time>2016-06-18T08:48:13Z</time>
      </trkpt>
      <trkpt lat="47.87628" lon="7.04413">
        <ele>650</ele>
        <time>2016-06-18T08:48:45Z</time>
      </trkpt>
      <trkpt lat="47.8765" lon="7.04417">
        <ele>664</ele>
        <time>2016-06-18T08:48:56Z</time>
      </trkpt>
      <trkpt lat="47.87665" lon="7.04412">
        <ele>654</ele>
        <time>2016-06-18T08:49:06Z</time>
      </trkpt>
      <trkpt lat="47.87676" lon="7.0441">
        <ele>654</ele>
        <time>2016-06-18T08:49:15Z</time>
      </trkpt>
      <trkpt lat="47.87682" lon="7.04412">
        <ele>653</ele>
        <time>2016-06-18T08:49:21Z</time>
      </trkpt>
      <trkpt lat="47.87691" lon="7.04406">
        <ele>653</ele>
        <time>2016-06-18T08:49:32Z</time>
      </trkpt>
      <trkpt lat="47.87706" lon="7.04402">
        <ele>654</ele>
        <time>2016-06-18T08:49:43Z</time>
      </trkpt>
      <trkpt lat="47.87712" lon="7.04399">
        <ele>654</ele>
        <time>2016-06-18T08:49:46Z</time>
      </trkpt>
      <trkpt lat="47.87727" lon="7.04391">
        <ele>655</ele>
        <time>2016-06-18T08:49:57Z</time>
      </trkpt>
      <trkpt lat="47.87732" lon="7.0439">
        <ele>656</ele>
        <time>2016-06-18T08:50:01Z</time>
      </trkpt>
      <trkpt lat="47.87749" lon="7.04387">
        <ele>656</ele>
        <time>2016-06-18T08:50:11Z</time>
      </trkpt>
      <trkpt lat="47.8776" lon="7.04386">
        <ele>667</ele>
        <time>2016-06-18T08:50:24Z</time>
      </trkpt>
      <trkpt lat="47.87775" lon="7.04384">
        <ele>667</ele>
        <time>2016-06-18T08:50:36Z</time>
      </trkpt>
      <trkpt lat="47.87786" lon="7.04383">
        <ele>668</ele>
        <time>2016-06-18T08:50:46Z</time>
      </trkpt>
      <trkpt lat="47.87793" lon="7.04383">
        <ele>669</ele>
        <time>2016-06-18T08:50:52Z</time>
      </trkpt>
      <trkpt lat="47.87803" lon="7.04381">
        <ele>670</ele>
        <time>2016-06-18T08:51:04Z</time>
      </trkpt>
      <trkpt lat="47.87826" lon="7.04378">
        <ele>672</ele>
        <time>2016-06-18T08:51:16Z</time>
      </trkpt>
      <trkpt lat="47.87835" lon="7.04374">
        <ele>684</ele>
        <time>2016-06-18T08:51:27Z</time>
      </trkpt>
      <trkpt lat="47.87849" lon="7.04367">
        <ele>684</ele>
        <time>2016-06-18T08:51:38Z</time>
      </trkpt>
      <trkpt lat="47.87857" lon="7.04362">
        <ele>684</ele>
        <time>2016-06-18T08:51:51Z</time>
      </trkpt>
      <trkpt lat="47.87874" lon="7.04357">
        <ele>686</ele>
        <time>2016-06-18T08:52:02Z</time>
      </trkpt>
      <trkpt lat="47.87884" lon="7.04351">
        <ele>686</ele>
        <time>2016-06-18T08:52:12Z</time>
      </trkpt>
      <trkpt lat="47.87891" lon="7.04348">
        <ele>687</ele>
        <time>2016-06-18T08:52:15Z</time>
      </trkpt>
      <trkpt lat="47.87907" lon="7.04342">
        <ele>687</ele>
        <time>2016-06-18T08:52:26Z</time>
      </trkpt>
      <trkpt lat="47.87911" lon="7.0434">
        <ele>687</ele>
        <time>2016-06-18T08:52:31Z</time>
      </trkpt>
      <trkpt lat="47.8792" lon="7.04334">
        <ele>689</ele>
        <time>2016-06-18T08:52:41Z</time>
      </trkpt>
      <trkpt lat="47.87929" lon="7.04328">
        <ele>686</ele>
        <time>2016-06-18T08:52:52Z</time>
      </trkpt>
      <trkpt lat="47.87936" lon="7.04321">
        <ele>686</ele>
        <time>2016-06-18T08:53:02Z</time>
      </trkpt>
      <trkpt lat="47.87939" lon="7.04316">
        <ele>686</ele>
        <time>2016-06-18T08:53:06Z</time>
      </trkpt>
      <trkpt lat="47.87949" lon="7.0431">
        <ele>687</ele>
        <time>2016-06-18T08:53:20Z</time>
      </trkpt>
      <trkpt lat="47.87963" lon="7.04298">
        <ele>687</ele>
        <time>2016-06-18T08:53:32Z</time>
      </trkpt>
      <trkpt lat="47.87969" lon="7.04295">
        <ele>688</ele>
        <time>2016-06-18T08:53:36Z</time>
      </trkpt>
      <trkpt lat="47.87975" lon="7.04284">
        <ele>687</ele>
        <time>2016-06-18T08:53:42Z</time>
      </trkpt>
      <trkpt lat="47.87988" lon="7.04271">
        <ele>687</ele>
        <time>2016-06-18T08:53:53Z</time>
      </trkpt>
      <trkpt lat="47.87992" lon="7.04267">
        <ele>687</ele>
        <time>2016-06-18T08:54:05Z</time>
      </trkpt>
      <trkpt lat="47.88013" lon="7.04261">
        <ele>696</ele>
        <time>2016-06-18T08:54:17Z</time>
      </trkpt>
      <trkpt lat="47.88028" lon="7.04254">
        <ele>699</ele>
        <time>2016-06-18T08:54:29Z</time>
      </trkpt>
      <trkpt lat="47.88044" lon="7.04257">
        <ele>701</ele>
        <time>2016-06-18T08:54:41Z</time>
      </trkpt>
      <trkpt lat="47.88056" lon="7.0426">
        <ele>702</ele>
        <time>2016-06-18T08:54:51Z</time>
      </trkpt>
      <trkpt lat="47.8807" lon="7.0427">
        <ele>703</ele>
        <time>2016-06-18T08:55:09Z</time>
      </trkpt>
      <trkpt lat="47.88084" lon="7.04281">
        <ele>703</ele>
        <time>2016-06-18T08:55:20Z</time>
      </trkpt>
      <trkpt lat="47.88089" lon="7.04284">
        <ele>704</ele>
        <time>2016-06-18T08:55:22Z</time>
      </trkpt>
      <trkpt lat="47.88098" lon="7.04293">
        <ele>705</ele>
        <time>2016-06-18T08:55:34Z</time>
      </trkpt>
      <trkpt lat="47.88101" lon="7.043">
        <ele>706</ele>
        <time>2016-06-18T08:55:39Z</time>
      </trkpt>
      <trkpt lat="47.8811" lon="7.04308">
        <ele>706</ele>
        <time>2016-06-18T08:55:46Z</time>
      </trkpt>
      <trkpt lat="47.88122" lon="7.0432">
        <ele>706</ele>
        <time>2016-06-18T08:55:56Z</time>
      </trkpt>
      <trkpt lat="47.88128" lon="7.04321">
        <ele>705</ele>
        <time>2016-06-18T08:56:00Z</time>
      </trkpt>
      <trkpt lat="47.8814" lon="7.04336">
        <ele>718</ele>
        <time>2016-06-18T08:56:12Z</time>
      </trkpt>
      <trkpt lat="47.88144" lon="7.04342">
        <ele>717</ele>
        <time>2016-06-18T08:56:16Z</time>
      </trkpt>
      <trkpt lat="47.88151" lon="7.04352">
        <ele>717</ele>
        <time>2016-06-18T08:56:21Z</time>
      </trkpt>
      <trkpt lat="47.88163" lon="7.04364">
        <ele>719</ele>
        <time>2016-06-18T08:56:33Z</time>
      </trkpt>
      <trkpt lat="47.88168" lon="7.04369">
        <ele>705</ele>
        <time>2016-06-18T08:56:38Z</time>
      </trkpt>
      <trkpt lat="47.88174" lon="7.04379">
        <ele>706</ele>
        <time>2016-06-18T08:56:46Z</time>
      </trkpt>
      <trkpt lat="47.88178" lon="7.04383">
        <ele>707</ele>
        <time>2016-06-18T08:56:49Z</time>
      </trkpt>
      <trkpt lat="47.88188" lon="7.04398">
        <ele>709</ele>
        <time>2016-06-18T08:57:02Z</time>
      </trkpt>
      <trkpt lat="47.88192" lon="7.04404">
        <ele>708</ele>
        <time>2016-06-18T08:57:05Z</time>
      </trkpt>
      <trkpt lat="47.882" lon="7.04422">
        <ele>720</ele>
        <time>2016-06-18T08:57:17Z</time>
      </trkpt>
      <trkpt lat="47.88197" lon="7.04429">
        <ele>721</ele>
        <time>2016-06-18T08:57:20Z</time>
      </trkpt>
      <trkpt lat="47.88198" lon="7.04436">
        <ele>721</ele>
        <time>2016-06-18T08:57:23Z</time>
      </trkpt>
      <trkpt lat="47.88209" lon="7.04453">
        <ele>721</ele>
        <time>2016-06-18T08:57:35Z</time>
      </trkpt>
      <trkpt lat="47.88213" lon="7.04476">
        <ele>723</ele>
        <time>2016-06-18T08:57:48Z</time>
      </trkpt>
      <trkpt lat="47.88217" lon="7.04484">
        <ele>723</ele>
        <time>2016-06-18T08:57:54Z</time>
      </trkpt>
      <trkpt lat="47.8823" lon="7.045">
        <ele>721</ele>
        <time>2016-06-18T08:58:07Z</time>
      </trkpt>
      <trkpt lat="47.88236" lon="7.04512">
        <ele>731</ele>
        <time>2016-06-18T08:58:17Z</time>
      </trkpt>
      <trkpt lat="47.88248" lon="7.04525">
        <ele>733</ele>
        <time>2016-06-18T08:58:28Z</time>
      </trkpt>
      <trkpt lat="47.88256" lon="7.04535">
        <ele>719</ele>
        <time>2016-06-18T08:58:36Z</time>
      </trkpt>
      <trkpt lat="47.88266" lon="7.04545">
        <ele>719</ele>
        <time>2016-06-18T08:58:46Z</time>
      </trkpt>
      <trkpt lat="47.88281" lon="7.04562">
        <ele>720</ele>
        <time>2016-06-18T08:58:57Z</time>
      </trkpt>
      <trkpt lat="47.88282" lon="7.04569">
        <ele>720</ele>
        <time>2016-06-18T08:59:01Z</time>
      </trkpt>
      <trkpt lat="47.88283" lon="7.04577">
        <ele>721</ele>
        <time>2016-06-18T08:59:05Z</time>
      </trkpt>
      <trkpt lat="47.88286" lon="7.04592">
        <ele>731</ele>
        <time>2016-06-18T08:59:14Z</time>
      </trkpt>
      <trkpt lat="47.88286" lon="7.046">
        <ele>731</ele>
        <time>2016-06-18T08:59:19Z</time>
      </trkpt>
      <trkpt lat="47.88288" lon="7.04624">
        <ele>732</ele>
        <time>2016-06-18T08:59:31Z</time>
      </trkpt>
      <trkpt lat="47.88286" lon="7.0463">
        <ele>733</ele>
        <time>2016-06-18T08:59:34Z</time>
      </trkpt>
      <trkpt lat="47.88289" lon="7.04651">
        <ele>734</ele>
        <time>2016-06-18T08:59:47Z</time>
      </trkpt>
      <trkpt lat="47.88288" lon="7.04675">
        <ele>742</ele>
        <time>2016-06-18T09:00:00Z</time>
      </trkpt>
      <trkpt lat="47.88289" lon="7.04683">
        <ele>742</ele>
        <time>2016-06-18T09:00:05Z</time>
      </trkpt>
      <trkpt lat="47.88293" lon="7.04703">
        <ele>742</ele>
        <time>2016-06-18T09:00:17Z</time>
      </trkpt>
      <trkpt lat="47.88299" lon="7.04723">
        <ele>742</ele>
        <time>2016-06-18T09:00:30Z</time>
      </trkpt>
      <trkpt lat="47.88305" lon="7.04743">
        <ele>741</ele>
        <time>2016-06-18T09:00:45Z</time>
      </trkpt>
      <trkpt lat="47.88308" lon="7.04758">
        <ele>747</ele>
        <time>2016-06-18T09:00:54Z</time>
      </trkpt>
      <trkpt lat="47.88315" lon="7.0478">
        <ele>748</ele>
        <time>2016-06-18T09:01:06Z</time>
      </trkpt>
      <trkpt lat="47.88325" lon="7.04798">
        <ele>750</ele>
        <time>2016-06-18T09:01:19Z</time>
      </trkpt>
      <trkpt lat="47.88328" lon="7.04804">
        <ele>751</ele>
        <time>2016-06-18T09:01:22Z</time>
      </trkpt>
      <trkpt lat="47.88336" lon="7.04812">
        <ele>741</ele>
        <time>2016-06-18T09:01:30Z</time>
      </trkpt>
      <trkpt lat="47.88341" lon="7.04825">
        <ele>746</ele>
        <time>2016-06-18T09:01:40Z</time>
      </trkpt>
      <trkpt lat="47.88348" lon="7.04842">
        <ele>751</ele>
        <time>2016-06-18T09:01:51Z</time>
      </trkpt>
      <trkpt lat="47.88349" lon="7.04851">
        <ele>751</ele>
        <time>2016-06-18T09:01:55Z</time>
      </trkpt>
      <trkpt lat="47.88358" lon="7.04868">
        <ele>751</ele>
        <time>2016-06-18T09:02:11Z</time>
      </trkpt>
      <trkpt lat="47.88371" lon="7.04878">
        <ele>751</ele>
        <time>2016-06-18T09:02:22Z</time>
      </trkpt>
      <trkpt lat="47.88375" lon="7.04884">
        <ele>751</ele>
        <time>2016-06-18T09:02:26Z</time>
      </trkpt>
      <trkpt lat="47.88379" lon="7.04905">
        <ele>753</ele>
        <time>2016-06-18T09:02:39Z</time>
      </trkpt>
      <trkpt lat="47.88387" lon="7.04924">
        <ele>760</ele>
        <time>2016-06-18T09:02:53Z</time>
      </trkpt>
      <trkpt lat="47.88394" lon="7.04941">
        <ele>760</ele>
        <time>2016-06-18T09:03:04Z</time>
      </trkpt>
      <trkpt lat="47.88403" lon="7.04961">
        <ele>761</ele>
        <time>2016-06-18T09:03:15Z</time>
      </trkpt>
      <trkpt lat="47.88411" lon="7.04971">
        <ele>762</ele>
        <time>2016-06-18T09:03:23Z</time>
      </trkpt>
      <trkpt lat="47.88417" lon="7.04975">
        <ele>761</ele>
        <time>2016-06-18T09:03:38Z</time>
      </trkpt>
      <trkpt lat="47.88437" lon="7.04981">
        <ele>761</ele>
        <time>2016-06-18T09:03:50Z</time>
      </trkpt>
      <trkpt lat="47.88457" lon="7.04986">
        <ele>761</ele>
        <time>2016-06-18T09:04:02Z</time>
      </trkpt>
      <trkpt lat="47.88475" lon="7.04993">
        <ele>763</ele>
        <time>2016-06-18T09:04:18Z</time>
      </trkpt>
      <trkpt lat="47.88486" lon="7.05">
        <ele>769</ele>
        <time>2016-06-18T09:04:28Z</time>
      </trkpt>
      <trkpt lat="47.88494" lon="7.05007">
        <ele>769</ele>
        <time>2016-06-18T09:04:37Z</time>
      </trkpt>
      <trkpt lat="47.88496" lon="7.05014">
        <ele>769</ele>
        <time>2016-06-18T09:04:41Z</time>
      </trkpt>
      <trkpt lat="47.88502" lon="7.05016">
        <ele>773</ele>
        <time>2016-06-18T09:04:46Z</time>
      </trkpt>
      <trkpt lat="47.88506" lon="7.05019">
        <ele>774</ele>
        <time>2016-06-18T09:04:51Z</time>
      </trkpt>
      <trkpt lat="47.88525" lon="7.05021">
        <ele>775</ele>
        <time>2016-06-18T09:05:04Z</time>
      </trkpt>
      <trkpt lat="47.88534" lon="7.05025">
        <ele>776</ele>
        <time>2016-06-18T09:05:15Z</time>
      </trkpt>
      <trkpt lat="47.88544" lon="7.05034">
        <ele>777</ele>
        <time>2016-06-18T09:05:25Z</time>
      </trkpt>
      <trkpt lat="47.88559" lon="7.05037">
        <ele>778</ele>
        <time>2016-06-18T09:05:45Z</time>
      </trkpt>
      <trkpt lat="47.88573" lon="7.0504">
        <ele>779</ele>
        <time>2016-06-18T09:05:57Z</time>
      </trkpt>
      <trkpt lat="47.88582" lon="7.05043">
        <ele>780</ele>
        <time>2016-06-18T09:06:07Z</time>
      </trkpt>
      <trkpt lat="47.88586" lon="7.05047">
        <ele>786</ele>
        <time>2016-06-18T09:06:11Z</time>
      </trkpt>
      <trkpt lat="47.88601" lon="7.05043">
        <ele>786</ele>
        <time>2016-06-18T09:06:21Z</time>
      </trkpt>
      <trkpt lat="47.88613" lon="7.05042">
        <ele>786</ele>
        <time>2016-06-18T09:06:34Z</time>
      </trkpt>
      <trkpt lat="47.88635" lon="7.0504">
        <ele>787</ele>
        <time>2016-06-18T09:06:46Z</time>
      </trkpt>
      <trkpt lat="47.88649" lon="7.05038">
        <ele>788</ele>
        <time>2016-06-18T09:06:59Z</time>
      </trkpt>
      <trkpt lat="47.88667" lon="7.05037">
        <ele>788</ele>
        <time>2016-06-18T09:07:10Z</time>
      </trkpt>
      <trkpt lat="47.88678" lon="7.0504">
        <ele>797</ele>
        <time>2016-06-18T09:07:20Z</time>
      </trkpt>
      <trkpt lat="47.88692" lon="7.05043">
        <ele>798</ele>
        <time>2016-06-18T09:07:32Z</time>
      </trkpt>
      <trkpt lat="47.88703" lon="7.0504">
        <ele>799</ele>
        <time>2016-06-18T09:07:43Z</time>
      </trkpt>
      <trkpt lat="47.88709" lon="7.05041">
        <ele>799</ele>
        <time>2016-06-18T09:07:49Z</time>
      </trkpt>
      <trkpt lat="47.8872" lon="7.05043">
        <ele>800</ele>
        <time>2016-06-18T09:08:06Z</time>
      </trkpt>
      <trkpt lat="47.88724" lon="7.05046">
        <ele>801</ele>
        <time>2016-06-18T09:08:16Z</time>
      </trkpt>
      <trkpt lat="47.88741" lon="7.05048">
        <ele>803</ele>
        <time>2016-06-18T09:08:28Z</time>
      </trkpt>
      <trkpt lat="47.88763" lon="7.05047">
        <ele>812</ele>
        <time>2016-06-18T09:08:39Z</time>
      </trkpt>
      <trkpt lat="47.88777" lon="7.05043">
        <ele>812</ele>
        <time>2016-06-18T09:08:50Z</time>
      </trkpt>
      <trkpt lat="47.88786" lon="7.05041">
        <ele>812</ele>
        <time>2016-06-18T09:09:00Z</time>
      </trkpt>
      <trkpt lat="47.88791" lon="7.05042">
        <ele>812</ele>
        <time>2016-06-18T09:09:07Z</time>
      </trkpt>
      <trkpt lat="47.88801" lon="7.0505">
        <ele>815</ele>
        <time>2016-06-18T09:09:17Z</time>
      </trkpt>
      <trkpt lat="47.88806" lon="7.05052">
        <ele>815</ele>
        <time>2016-06-18T09:09:20Z</time>
      </trkpt>
      <trkpt lat="47.88816" lon="7.05054">
        <ele>817</ele>
        <time>2016-06-18T09:09:32Z</time>
      </trkpt>
      <trkpt lat="47.88837" lon="7.05061">
        <ele>822</ele>
        <time>2016-06-18T09:09:43Z</time>
      </trkpt>
      <trkpt lat="47.88842" lon="7.05062">
        <ele>822</ele>
        <time>2016-06-18T09:09:49Z</time>
      </trkpt>
      <trkpt lat="47.88845" lon="7.05066">
        <ele>823</ele>
        <time>2016-06-18T09:09:59Z</time>
      </trkpt>
      <trkpt lat="47.88857" lon="7.05077">
        <ele>823</ele>
        <time>2016-06-18T09:10:10Z</time>
      </trkpt>
      <trkpt lat="47.88864" lon="7.05086">
        <ele>836</ele>
        <time>2016-06-18T09:10:20Z</time>
      </trkpt>
      <trkpt lat="47.88874" lon="7.05093">
        <ele>837</ele>
        <time>2016-06-18T09:10:32Z</time>
      </trkpt>
      <trkpt lat="47.88888" lon="7.05106">
        <ele>837</ele>
        <time>2016-06-18T09:10:45Z</time>
      </trkpt>
      <trkpt lat="47.88894" lon="7.05106">
        <ele>837</ele>
        <time>2016-06-18T09:10:49Z</time>
      </trkpt>
      <trkpt lat="47.88913" lon="7.05122">
        <ele>839</ele>
        <time>2016-06-18T09:11:00Z</time>
      </trkpt>
      <trkpt lat="47.88921" lon="7.0512">
        <ele>841</ele>
        <time>2016-06-18T09:11:04Z</time>
      </trkpt>
      <trkpt lat="47.88937" lon="7.05122">
        <ele>842</ele>
        <time>2016-06-18T09:11:16Z</time>
      </trkpt>
      <trkpt lat="47.88953" lon="7.05128">
        <ele>843</ele>
        <time>2016-06-18T09:11:30Z</time>
      </trkpt>
      <trkpt lat="47.88962" lon="7.05132">
        <ele>844</ele>
        <time>2016-06-18T09:11:47Z</time>
      </trkpt>
      <trkpt lat="47.88978" lon="7.05137">
        <ele>846</ele>
        <time>2016-06-18T09:11:58Z</time>
      </trkpt>
      <trkpt lat="47.88991" lon="7.05147">
        <ele>849</ele>
        <time>2016-06-18T09:12:08Z</time>
      </trkpt>
      <trkpt lat="47.89006" lon="7.05151">
        <ele>852</ele>
        <time>2016-06-18T09:12:21Z</time>
      </trkpt>
      <trkpt lat="47.89011" lon="7.05153">
        <ele>852</ele>
        <time>2016-06-18T09:12:30Z</time>
      </trkpt>
      <trkpt lat="47.89027" lon="7.05154">
        <ele>850</ele>
        <time>2016-06-18T09:12:46Z</time>
      </trkpt>
      <trkpt lat="47.89039" lon="7.05154">
        <ele>850</ele>
        <time>2016-06-18T09:13:01Z</time>
      </trkpt>
      <trkpt lat="47.89057" lon="7.05154">
        <ele>851</ele>
        <time>2016-06-18T09:13:11Z</time>
      </trkpt>
      <trkpt lat="47.8908" lon="7.05146">
        <ele>851</ele>
        <time>2016-06-18T09:13:21Z</time>
      </trkpt>
      <trkpt lat="47.89095" lon="7.05139">
        <ele>852</ele>
        <time>2016-06-18T09:13:35Z</time>
      </trkpt>
      <trkpt lat="47.891" lon="7.05137">
        <ele>852</ele>
        <time>2016-06-18T09:13:45Z</time>
      </trkpt>
      <trkpt lat="47.89105" lon="7.05137">
        <ele>852</ele>
        <time>2016-06-18T09:13:47Z</time>
      </trkpt>
      <trkpt lat="47.89121" lon="7.05141">
        <ele>852</ele>
        <time>2016-06-18T09:13:58Z</time>
      </trkpt>
      <trkpt lat="47.8914" lon="7.05156">
        <ele>855</ele>
        <time>2016-06-18T09:14:09Z</time>
      </trkpt>
      <trkpt lat="47.89152" lon="7.05168">
        <ele>864</ele>
        <time>2016-06-18T09:14:21Z</time>
      </trkpt>
      <trkpt lat="47.89164" lon="7.05179">
        <ele>864</ele>
        <time>2016-06-18T09:14:34Z</time>
      </trkpt>
      <trkpt lat="47.89167" lon="7.05201">
        <ele>865</ele>
        <time>2016-06-18T09:14:44Z</time>
      </trkpt>
      <trkpt lat="47.89173" lon="7.0522">
        <ele>867</ele>
        <time>2016-06-18T09:14:59Z</time>
      </trkpt>
      <trkpt lat="47.89174" lon="7.05227">
        <ele>868</ele>
        <time>2016-06-18T09:15:05Z</time>
      </trkpt>
      <trkpt lat="47.89176" lon="7.0525">
        <ele>873</ele>
        <time>2016-06-18T09:15:17Z</time>
      </trkpt>
      <trkpt lat="47.89177" lon="7.05258">
        <ele>873</ele>
        <time>2016-06-18T09:15:20Z</time>
      </trkpt>
      <trkpt lat="47.89176" lon="7.05276">
        <ele>873</ele>
        <time>2016-06-18T09:15:34Z</time>
      </trkpt>
      <trkpt lat="47.89182" lon="7.05288">
        <ele>873</ele>
        <time>2016-06-18T09:15:44Z</time>
      </trkpt>
      <trkpt lat="47.89179" lon="7.05316">
        <ele>874</ele>
        <time>2016-06-18T09:15:54Z</time>
      </trkpt>
      <trkpt lat="47.89178" lon="7.05323">
        <ele>874</ele>
        <time>2016-06-18T09:16:01Z</time>
      </trkpt>
      <trkpt lat="47.89184" lon="7.05353">
        <ele>875</ele>
        <time>2016-06-18T09:16:13Z</time>
      </trkpt>
      <trkpt lat="47.8919" lon="7.05366">
        <ele>875</ele>
        <time>2016-06-18T09:16:21Z</time>
      </trkpt>
      <trkpt lat="47.89195" lon="7.05391">
        <ele>875</ele>
        <time>2016-06-18T09:16:32Z</time>
      </trkpt>
      <trkpt lat="47.89193" lon="7.05399">
        <ele>874</ele>
        <time>2016-06-18T09:16:34Z</time>
      </trkpt>
      <trkpt lat="47.89196" lon="7.05405">
        <ele>874</ele>
        <time>2016-06-18T09:16:38Z</time>
      </trkpt>
      <trkpt lat="47.89198" lon="7.05411">
        <ele>875</ele>
        <time>2016-06-18T09:16:41Z</time>
      </trkpt>
      <trkpt lat="47.89206" lon="7.05427">
        <ele>875</ele>
        <time>2016-06-18T09:16:52Z</time>
      </trkpt>
      <trkpt lat="47.89216" lon="7.05444">
        <ele>876</ele>
        <time>2016-06-18T09:17:04Z</time>
      </trkpt>
      <trkpt lat="47.89219" lon="7.05451">
        <ele>877</ele>
        <time>2016-06-18T09:17:08Z</time>
      </trkpt>
      <trkpt lat="47.89228" lon="7.05461">
        <ele>877</ele>
        <time>2016-06-18T09:17:19Z</time>
      </trkpt>
      <trkpt lat="47.89241" lon="7.05471">
        <ele>879</ele>
        <time>2016-06-18T09:17:38Z</time>
      </trkpt>
      <trkpt lat="47.89249" lon="7.0548">
        <ele>880</ele>
        <time>2016-06-18T09:17:51Z</time>
      </trkpt>
      <trkpt lat="47.8927" lon="7.05492">
        <ele>883</ele>
        <time>2016-06-18T09:18:03Z</time>
      </trkpt>
      <trkpt lat="47.89279" lon="7.0551">
        <ele>887</ele>
        <time>2016-06-18T09:18:14Z</time>
      </trkpt>
      <trkpt lat="47.89298" lon="7.0552">
        <ele>888</ele>
        <time>2016-06-18T09:18:25Z</time>
      </trkpt>
      <trkpt lat="47.89315" lon="7.05529">
        <ele>888</ele>
        <time>2016-06-18T09:18:35Z</time>
      </trkpt>
      <trkpt lat="47.89332" lon="7.05541">
        <ele>890</ele>
        <time>2016-06-18T09:18:51Z</time>
      </trkpt>
      <trkpt lat="47.89337" lon="7.05546">
        <ele>889</ele>
        <time>2016-06-18T09:19:01Z</time>
      </trkpt>
      <trkpt lat="47.89352" lon="7.05559">
        <ele>890</ele>
        <time>2016-06-18T09:19:12Z</time>
      </trkpt>
      <trkpt lat="47.89367" lon="7.05568">
        <ele>890</ele>
        <time>2016-06-18T09:19:25Z</time>
      </trkpt>
      <trkpt lat="47.8938" lon="7.05582">
        <ele>890</ele>
        <time>2016-06-18T09:19:37Z</time>
      </trkpt>
      <trkpt lat="47.89384" lon="7.05587">
        <ele>903</ele>
        <time>2016-06-18T09:19:43Z</time>
      </trkpt>
      <trkpt lat="47.89397" lon="7.05604">
        <ele>903</ele>
        <time>2016-06-18T09:19:55Z</time>
      </trkpt>
      <trkpt lat="47.89407" lon="7.05615">
        <ele>905</ele>
        <time>2016-06-18T09:20:05Z</time>
      </trkpt>
      <trkpt lat="47.89422" lon="7.05626">
        <ele>898</ele>
        <time>2016-06-18T09:20:15Z</time>
      </trkpt>
      <trkpt lat="47.89434" lon="7.05637">
        <ele>899</ele>
        <time>2016-06-18T09:20:32Z</time>
      </trkpt>
      <trkpt lat="47.89442" lon="7.0565">
        <ele>900</ele>
        <time>2016-06-18T09:20:46Z</time>
      </trkpt>
      <trkpt lat="47.89453" lon="7.05669">
        <ele>911</ele>
        <time>2016-06-18T09:20:57Z</time>
      </trkpt>
      <trkpt lat="47.89463" lon="7.05684">
        <ele>909</ele>
        <time>2016-06-18T09:21:09Z</time>
      </trkpt>
      <trkpt lat="47.89471" lon="7.05704">
        <ele>910</ele>
        <time>2016-06-18T09:21:19Z</time>
      </trkpt>
      <trkpt lat="47.89474" lon="7.0571">
        <ele>911</ele>
        <time>2016-06-18T09:21:23Z</time>
      </trkpt>
      <trkpt lat="47.89475" lon="7.05725">
        <ele>912</ele>
        <time>2016-06-18T09:21:33Z</time>
      </trkpt>
      <trkpt lat="47.89482" lon="7.05738">
        <ele>911</ele>
        <time>2016-06-18T09:21:44Z</time>
      </trkpt>
      <trkpt lat="47.89488" lon="7.05751">
        <ele>916</ele>
        <time>2016-06-18T09:21:55Z</time>
      </trkpt>
      <trkpt lat="47.89489" lon="7.05764">
        <ele>918</ele>
        <time>2016-06-18T09:22:05Z</time>
      </trkpt>
      <trkpt lat="47.89485" lon="7.05768">
        <ele>920</ele>
        <time>2016-06-18T09:22:10Z</time>
      </trkpt>
      <trkpt lat="47.89479" lon="7.05781">
        <ele>924</ele>
        <time>2016-06-18T09:22:20Z</time>
      </trkpt>
      <trkpt lat="47.89475" lon="7.05802">
        <ele>927</ele>
        <time>2016-06-18T09:22:34Z</time>
      </trkpt>
      <trkpt lat="47.89476" lon="7.05825">
        <ele>927</ele>
        <time>2016-06-18T09:22:45Z</time>
      </trkpt>
      <trkpt lat="47.89477" lon="7.05832">
        <ele>928</ele>
        <time>2016-06-18T09:22:48Z</time>
      </trkpt>
      <trkpt lat="47.89475" lon="7.05839">
        <ele>933</ele>
        <time>2016-06-18T09:22:55Z</time>
      </trkpt>
      <trkpt lat="47.89469" lon="7.05859">
        <ele>936</ele>
        <time>2016-06-18T09:23:08Z</time>
      </trkpt>
      <trkpt lat="47.89467" lon="7.05872">
        <ele>937</ele>
        <time>2016-06-18T09:23:18Z</time>
      </trkpt>
      <trkpt lat="47.89466" lon="7.05888">
        <ele>937</ele>
        <time>2016-06-18T09:23:33Z</time>
      </trkpt>
      <trkpt lat="47.89467" lon="7.05902">
        <ele>937</ele>
        <time>2016-06-18T09:23:45Z</time>
      </trkpt>
      <trkpt lat="47.89472" lon="7.05926">
        <ele>939</ele>
        <time>2016-06-18T09:23:57Z</time>
      </trkpt>
      <trkpt lat="47.89468" lon="7.05949">
        <ele>941</ele>
        <time>2016-06-18T09:24:08Z</time>
      </trkpt>
      <trkpt lat="47.89463" lon="7.05963">
        <ele>942</ele>
        <time>2016-06-18T09:24:17Z</time>
      </trkpt>
      <trkpt lat="47.89462" lon="7.05984">
        <ele>942</ele>
        <time>2016-06-18T09:24:28Z</time>
      </trkpt>
      <trkpt lat="47.89459" lon="7.06006">
        <ele>947</ele>
        <time>2016-06-18T09:24:43Z</time>
      </trkpt>
      <trkpt lat="47.89462" lon="7.06029">
        <ele>948</ele>
        <time>2016-06-18T09:24:56Z</time>
      </trkpt>
      <trkpt lat="47.89465" lon="7.06051">
        <ele>948</ele>
        <time>2016-06-18T09:25:06Z</time>
      </trkpt>
      <trkpt lat="47.89469" lon="7.06075">
        <ele>948</ele>
        <time>2016-06-18T09:25:16Z</time>
      </trkpt>
      <trkpt lat="47.89469" lon="7.06084">
        <ele>954</ele>
        <time>2016-06-18T09:25:20Z</time>
      </trkpt>
      <trkpt lat="47.89472" lon="7.06107">
        <ele>955</ele>
        <time>2016-06-18T09:25:31Z</time>
      </trkpt>
      <trkpt lat="47.89473" lon="7.06129">
        <ele>957</ele>
        <time>2016-06-18T09:25:41Z</time>
      </trkpt>
      <trkpt lat="47.89475" lon="7.06135">
        <ele>957</ele>
        <time>2016-06-18T09:25:45Z</time>
      </trkpt>
      <trkpt lat="47.89476" lon="7.06159">
        <ele>957</ele>
        <time>2016-06-18T09:25:59Z</time>
      </trkpt>
      <trkpt lat="47.89477" lon="7.06175">
        <ele>964</ele>
        <time>2016-06-18T09:26:10Z</time>
      </trkpt>
      <trkpt lat="47.89476" lon="7.06199">
        <ele>968</ele>
        <time>2016-06-18T09:26:22Z</time>
      </trkpt>
      <trkpt lat="47.89481" lon="7.06217">
        <ele>969</ele>
        <time>2016-06-18T09:26:33Z</time>
      </trkpt>
      <trkpt lat="47.89485" lon="7.06239">
        <ele>969</ele>
        <time>2016-06-18T09:26:43Z</time>
      </trkpt>
      <trkpt lat="47.89486" lon="7.06254">
        <ele>976</ele>
        <time>2016-06-18T09:26:50Z</time>
      </trkpt>
      <trkpt lat="47.89486" lon="7.06277">
        <ele>983</ele>
        <time>2016-06-18T09:27:03Z</time>
      </trkpt>
      <trkpt lat="47.89489" lon="7.06299">
        <ele>987</ele>
        <time>2016-06-18T09:27:16Z</time>
      </trkpt>
      <trkpt lat="47.89495" lon="7.06322">
        <ele>988</ele>
        <time>2016-06-18T09:27:27Z</time>
      </trkpt>
      <trkpt lat="47.89495" lon="7.06337">
        <ele>992</ele>
        <time>2016-06-18T09:27:33Z</time>
      </trkpt>
      <trkpt lat="47.89502" lon="7.06359">
        <ele>984</ele>
        <time>2016-06-18T09:27:45Z</time>
      </trkpt>
      <trkpt lat="47.89505" lon="7.06377">
        <ele>986</ele>
        <time>2016-06-18T09:27:57Z</time>
      </trkpt>
      <trkpt lat="47.89509" lon="7.06391">
        <ele>990</ele>
        <time>2016-06-18T09:28:07Z</time>
      </trkpt>
      <trkpt lat="47.89518" lon="7.06399">
        <ele>990</ele>
        <time>2016-06-18T09:28:13Z</time>
      </trkpt>
      <trkpt lat="47.89524" lon="7.06419">
        <ele>1005</ele>
        <time>2016-06-18T09:28:24Z</time>
      </trkpt>
      <trkpt lat="47.89527" lon="7.06425">
        <ele>1004</ele>
        <time>2016-06-18T09:28:29Z</time>
      </trkpt>
      <trkpt lat="47.89534" lon="7.06442">
        <ele>1004</ele>
        <time>2016-06-18T09:28:41Z</time>
      </trkpt>
      <trkpt lat="47.89544" lon="7.06456">
        <ele>1003</ele>
        <time>2016-06-18T09:28:54Z</time>
      </trkpt>
      <trkpt lat="47.89552" lon="7.06469">
        <ele>1004</ele>
        <time>2016-06-18T09:29:04Z</time>
      </trkpt>
      <trkpt lat="47.89556" lon="7.06473">
        <ele>1004</ele>
        <time>2016-06-18T09:29:07Z</time>
      </trkpt>
      <trkpt lat="47.89567" lon="7.06488">
        <ele>1004</ele>
        <time>2016-06-18T09:29:18Z</time>
      </trkpt>
      <trkpt lat="47.89567" lon="7.06511">
        <ele>1016</ele>
        <time>2016-06-18T09:29:30Z</time>
      </trkpt>
      <trkpt lat="47.89567" lon="7.06518">
        <ele>1017</ele>
        <time>2016-06-18T09:29:35Z</time>
      </trkpt>
      <trkpt lat="47.89575" lon="7.06536">
        <ele>1020</ele>
        <time>2016-06-18T09:29:45Z</time>
      </trkpt>
      <trkpt lat="47.89577" lon="7.06542">
        <ele>1021</ele>
        <time>2016-06-18T09:29:50Z</time>
      </trkpt>
      <trkpt lat="47.89582" lon="7.06554">
        <ele>1022</ele>
        <time>2016-06-18T09:30:00Z</time>
      </trkpt>
      <trkpt lat="47.89586" lon="7.06573">
        <ele>1012</ele>
        <time>2016-06-18T09:30:12Z</time>
      </trkpt>
      <trkpt lat="47.89588" lon="7.06581">
        <ele>1016</ele>
        <time>2016-06-18T09:30:16Z</time>
      </trkpt>
      <trkpt lat="47.89591" lon="7.06588">
        <ele>1019</ele>
        <time>2016-06-18T09:30:21Z</time>
      </trkpt>
      <trkpt lat="47.89593" lon="7.06602">
        <ele>1017</ele>
        <time>2016-06-18T09:30:32Z</time>
      </trkpt>
      <trkpt lat="47.89596" lon="7.06623">
        <ele>1018</ele>
        <time>2016-06-18T09:30:46Z</time>
      </trkpt>
      <trkpt lat="47.89596" lon="7.06637">
        <ele>1020</ele>
        <time>2016-06-18T09:30:56Z</time>
      </trkpt>
      <trkpt lat="47.89604" lon="7.06663">
        <ele>1024</ele>
        <time>2016-06-18T09:31:09Z</time>
      </trkpt>
      <trkpt lat="47.8961" lon="7.06684">
        <ele>1029</ele>
        <time>2016-06-18T09:31:21Z</time>
      </trkpt>
      <trkpt lat="47.89613" lon="7.06689">
        <ele>1028</ele>
        <time>2016-06-18T09:31:25Z</time>
      </trkpt>
      <trkpt lat="47.89613" lon="7.06712">
        <ele>1028</ele>
        <time>2016-06-18T09:31:37Z</time>
      </trkpt>
      <trkpt lat="47.89608" lon="7.06727">
        <ele>1030</ele>
        <time>2016-06-18T09:31:44Z</time>
      </trkpt>
      <trkpt lat="47.89611" lon="7.0674">
        <ele>1030</ele>
        <time>2016-06-18T09:31:55Z</time>
      </trkpt>
      <trkpt lat="47.89615" lon="7.06752">
        <ele>1033</ele>
        <time>2016-06-18T09:32:02Z</time>
      </trkpt>
      <trkpt lat="47.89621" lon="7.06766">
        <ele>1031</ele>
        <time>2016-06-18T09:32:14Z</time>
      </trkpt>
      <trkpt lat="47.89628" lon="7.06787">
        <ele>1031</ele>
        <time>2016-06-18T09:32:24Z</time>
      </trkpt>
      <trkpt lat="47.8963" lon="7.068">
        <ele>1031</ele>
        <time>2016-06-18T09:32:31Z</time>
      </trkpt>
      <trkpt lat="47.89628" lon="7.06808">
        <ele>1031</ele>
        <time>2016-06-18T09:32:34Z</time>
      </trkpt>
      <trkpt lat="47.89624" lon="7.06824">
        <ele>1031</ele>
        <time>2016-06-18T09:32:44Z</time>
      </trkpt>
      <trkpt lat="47.89619" lon="7.06826">
        <ele>1031</ele>
        <time>2016-06-18T09:32:50Z</time>
      </trkpt>
      <trkpt lat="47.89618" lon="7.06833">
        <ele>1031</ele>
        <time>2016-06-18T09:33:01Z</time>
      </trkpt>
      <trkpt lat="47.89618" lon="7.06857">
        <ele>1032</ele>
        <time>2016-06-18T09:33:14Z</time>
      </trkpt>
      <trkpt lat="47.89624" lon="7.06876">
        <ele>1032</ele>
        <time>2016-06-18T09:33:26Z</time>
      </trkpt>
      <trkpt lat="47.8963" lon="7.06888">
        <ele>1033</ele>
        <time>2016-06-18T09:33:38Z</time>
      </trkpt>
      <trkpt lat="47.89634" lon="7.06895">
        <ele>1033</ele>
        <time>2016-06-18T09:33:47Z</time>
      </trkpt>
      <trkpt lat="47.89641" lon="7.06904">
        <ele>1034</ele>
        <time>2016-06-18T09:34:00Z</time>
      </trkpt>
      <trkpt lat="47.8965" lon="7.0692">
        <ele>1040</ele>
        <time>2016-06-18T09:34:11Z</time>
      </trkpt>
      <trkpt lat="47.89647" lon="7.06939">
        <ele>1040</ele>
        <time>2016-06-18T09:34:15Z</time>
      </trkpt>
      <trkpt lat="47.89654" lon="7.06948">
        <ele>1041</ele>
        <time>2016-06-18T09:34:26Z</time>
      </trkpt>
      <trkpt lat="47.89659" lon="7.06953">
        <ele>1042</ele>
        <time>2016-06-18T09:34:36Z</time>
      </trkpt>
      <trkpt lat="47.89673" lon="7.06963">
        <ele>1050</ele>
        <time>2016-06-18T09:34:49Z</time>
      </trkpt>
      <trkpt lat="47.89682" lon="7.06966">
        <ele>1050</ele>
        <time>2016-06-18T09:35:00Z</time>
      </trkpt>
      <trkpt lat="47.89695" lon="7.0698">
        <ele>1052</ele>
        <time>2016-06-18T09:35:17Z</time>
      </trkpt>
      <trkpt lat="47.89713" lon="7.06984">
        <ele>1053</ele>
        <time>2016-06-18T09:35:31Z</time>
      </trkpt>
      <trkpt lat="47.89733" lon="7.06989">
        <ele>1056</ele>
        <time>2016-06-18T09:35:42Z</time>
      </trkpt>
      <trkpt lat="47.89752" lon="7.06993">
        <ele>1061</ele>
        <time>2016-06-18T09:35:53Z</time>
      </trkpt>
      <trkpt lat="47.89773" lon="7.07">
        <ele>1055</ele>
        <time>2016-06-18T09:36:05Z</time>
      </trkpt>
      <trkpt lat="47.89784" lon="7.07003">
        <ele>1076</ele>
        <time>2016-06-18T09:36:16Z</time>
      </trkpt>
      <trkpt lat="47.89788" lon="7.07006">
        <ele>1076</ele>
        <time>2016-06-18T09:36:27Z</time>
      </trkpt>
      <trkpt lat="47.89803" lon="7.07003">
        <ele>1074</ele>
        <time>2016-06-18T09:36:40Z</time>
      </trkpt>
      <trkpt lat="47.89812" lon="7.07005">
        <ele>1073</ele>
        <time>2016-06-18T09:36:52Z</time>
      </trkpt>
      <trkpt lat="47.89829" lon="7.07011">
        <ele>1070</ele>
        <time>2016-06-18T09:37:03Z</time>
      </trkpt>
      <trkpt lat="47.89834" lon="7.07012">
        <ele>1068</ele>
        <time>2016-06-18T09:37:06Z</time>
      </trkpt>
      <trkpt lat="47.89849" lon="7.0702">
        <ele>1072</ele>
        <time>2016-06-18T09:37:18Z</time>
      </trkpt>
      <trkpt lat="47.89869" lon="7.07028">
        <ele>1074</ele>
        <time>2016-06-18T09:37:33Z</time>
      </trkpt>
      <trkpt lat="47.89885" lon="7.07037">
        <ele>1075</ele>
        <time>2016-06-18T09:37:42Z</time>
      </trkpt>
      <trkpt lat="47.89898" lon="7.07048">
        <ele>1078</ele>
        <time>2016-06-18T09:37:55Z</time>
      </trkpt>
      <trkpt lat="47.89911" lon="7.07062">
        <ele>1083</ele>
        <time>2016-06-18T09:38:06Z</time>
      </trkpt>
      <trkpt lat="47.89924" lon="7.07074">
        <ele>1080</ele>
        <time>2016-06-18T09:38:17Z</time>
      </trkpt>
      <trkpt lat="47.8994" lon="7.07092">
        <ele>1095</ele>
        <time>2016-06-18T09:38:30Z</time>
      </trkpt>
      <trkpt lat="47.89952" lon="7.07106">
        <ele>1095</ele>
        <time>2016-06-18T09:38:44Z</time>
      </trkpt>
      <trkpt lat="47.89955" lon="7.07111">
        <ele>1095</ele>
        <time>2016-06-18T09:38:48Z</time>
      </trkpt>
      <trkpt lat="47.8996" lon="7.07125">
        <ele>1098</ele>
        <time>2016-06-18T09:39:01Z</time>
      </trkpt>
      <trkpt lat="47.89967" lon="7.07136">
        <ele>1099</ele>
        <time>2016-06-18T09:39:12Z</time>
      </trkpt>
      <trkpt lat="47.89973" lon="7.07144">
        <ele>1100</ele>
        <time>2016-06-18T09:39:21Z</time>
      </trkpt>
      <trkpt lat="47.89988" lon="7.07155">
        <ele>1100</ele>
        <time>2016-06-18T09:39:32Z</time>
      </trkpt>
      <trkpt lat="47.90001" lon="7.07172">
        <ele>1104</ele>
        <time>2016-06-18T09:39:43Z</time>
      </trkpt>
      <trkpt lat="47.90013" lon="7.07186">
        <ele>1108</ele>
        <time>2016-06-18T09:39:55Z</time>
      </trkpt>
      <trkpt lat="47.90033" lon="7.07194">
        <ele>1110</ele>
        <time>2016-06-18T09:40:07Z</time>
      </trkpt>
      <trkpt lat="47.90038" lon="7.07199">
        <ele>1110</ele>
        <time>2016-06-18T09:40:10Z</time>
      </trkpt>
      <trkpt lat="47.90053" lon="7.07202">
        <ele>1109</ele>
        <time>2016-06-18T09:40:18Z</time>
      </trkpt>
      <trkpt lat="47.90058" lon="7.07201">
        <ele>1108</ele>
        <time>2016-06-18T09:40:20Z</time>
      </trkpt>
      <trkpt lat="47.90063" lon="7.07201">
        <ele>1107</ele>
        <time>2016-06-18T09:40:22Z</time>
      </trkpt>
      <trkpt lat="47.90068" lon="7.07203">
        <ele>1107</ele>
        <time>2016-06-18T09:40:27Z</time>
      </trkpt>
      <trkpt lat="47.90083" lon="7.07199">
        <ele>1105</ele>
        <time>2016-06-18T09:40:39Z</time>
      </trkpt>
      <trkpt lat="47.90097" lon="7.07205">
        <ele>1105</ele>
        <time>2016-06-18T09:40:51Z</time>
      </trkpt>
      <trkpt lat="47.90114" lon="7.0721">
        <ele>1108</ele>
        <time>2016-06-18T09:41:03Z</time>
      </trkpt>
      <trkpt lat="47.90125" lon="7.07214">
        <ele>1109</ele>
        <time>2016-06-18T09:41:17Z</time>
      </trkpt>
      <trkpt lat="47.90129" lon="7.07218">
        <ele>1110</ele>
        <time>2016-06-18T09:41:21Z</time>
      </trkpt>
      <trkpt lat="47.9014" lon="7.07221">
        <ele>1111</ele>
        <time>2016-06-18T09:41:33Z</time>
      </trkpt>
      <trkpt lat="47.90162" lon="7.07205">
        <ele>1109</ele>
        <time>2016-06-18T09:41:44Z</time>
      </trkpt>
      <trkpt lat="47.90174" lon="7.07186">
        <ele>1119</ele>
        <time>2016-06-18T09:41:54Z</time>
      </trkpt>
      <trkpt lat="47.9018" lon="7.07167">
        <ele>1114</ele>
        <time>2016-06-18T09:42:06Z</time>
      </trkpt>
      <trkpt lat="47.90181" lon="7.0716">
        <ele>1108</ele>
        <time>2016-06-18T09:42:09Z</time>
      </trkpt>
      <trkpt lat="47.90189" lon="7.07144">
        <ele>1112</ele>
        <time>2016-06-18T09:42:20Z</time>
      </trkpt>
      <trkpt lat="47.90192" lon="7.0713">
        <ele>1113</ele>
        <time>2016-06-18T09:42:31Z</time>
      </trkpt>
      <trkpt lat="47.90193" lon="7.07102">
        <ele>1109</ele>
        <time>2016-06-18T09:42:44Z</time>
      </trkpt>
      <trkpt lat="47.90196" lon="7.07096">
        <ele>1109</ele>
        <time>2016-06-18T09:42:46Z</time>
      </trkpt>
      <trkpt lat="47.90206" lon="7.07069">
        <ele>1107</ele>
        <time>2016-06-18T09:42:59Z</time>
      </trkpt>
      <trkpt lat="47.90211" lon="7.07049">
        <ele>1109</ele>
        <time>2016-06-18T09:43:12Z</time>
      </trkpt>
      <trkpt lat="47.90213" lon="7.07029">
        <ele>1109</ele>
        <time>2016-06-18T09:43:24Z</time>
      </trkpt>
      <trkpt lat="47.90215" lon="7.07022">
        <ele>1110</ele>
        <time>2016-06-18T09:43:27Z</time>
      </trkpt>
      <trkpt lat="47.90222" lon="7.07012">
        <ele>1113</ele>
        <time>2016-06-18T09:43:38Z</time>
      </trkpt>
      <trkpt lat="47.90227" lon="7.0699">
        <ele>1110</ele>
        <time>2016-06-18T09:43:48Z</time>
      </trkpt>
      <trkpt lat="47.90234" lon="7.06963">
        <ele>1107</ele>
        <time>2016-06-18T09:43:59Z</time>
      </trkpt>
      <trkpt lat="47.90241" lon="7.06946">
        <ele>1108</ele>
        <time>2016-06-18T09:44:09Z</time>
      </trkpt>
      <trkpt lat="47.9025" lon="7.06924">
        <ele>1130</ele>
        <time>2016-06-18T09:44:20Z</time>
      </trkpt>
      <trkpt lat="47.90256" lon="7.06903">
        <ele>1129</ele>
        <time>2016-06-18T09:44:31Z</time>
      </trkpt>
      <trkpt lat="47.90269" lon="7.06885">
        <ele>1133</ele>
        <time>2016-06-18T09:44:45Z</time>
      </trkpt>
      <trkpt lat="47.90271" lon="7.06869">
        <ele>1132</ele>
        <time>2016-06-18T09:44:52Z</time>
      </trkpt>
      <trkpt lat="47.90278" lon="7.06851">
        <ele>1131</ele>
        <time>2016-06-18T09:45:05Z</time>
      </trkpt>
      <trkpt lat="47.90281" lon="7.06846">
        <ele>1131</ele>
        <time>2016-06-18T09:45:07Z</time>
      </trkpt>
      <trkpt lat="47.90284" lon="7.06823">
        <ele>1122</ele>
        <time>2016-06-18T09:45:20Z</time>
      </trkpt>
      <trkpt lat="47.90294" lon="7.06805">
        <ele>1125</ele>
        <time>2016-06-18T09:45:31Z</time>
      </trkpt>
      <trkpt lat="47.90297" lon="7.06798">
        <ele>1125</ele>
        <time>2016-06-18T09:45:35Z</time>
      </trkpt>
      <trkpt lat="47.90299" lon="7.06777">
        <ele>1124</ele>
        <time>2016-06-18T09:45:49Z</time>
      </trkpt>
      <trkpt lat="47.90306" lon="7.06765">
        <ele>1126</ele>
        <time>2016-06-18T09:46:01Z</time>
      </trkpt>
      <trkpt lat="47.90309" lon="7.06752">
        <ele>1128</ele>
        <time>2016-06-18T09:46:15Z</time>
      </trkpt>
      <trkpt lat="47.90314" lon="7.06732">
        <ele>1120</ele>
        <time>2016-06-18T09:46:26Z</time>
      </trkpt>
      <trkpt lat="47.90324" lon="7.06715">
        <ele>1120</ele>
        <time>2016-06-18T09:46:39Z</time>
      </trkpt>
      <trkpt lat="47.90335" lon="7.06697">
        <ele>1145</ele>
        <time>2016-06-18T09:46:50Z</time>
      </trkpt>
      <trkpt lat="47.90339" lon="7.06671">
        <ele>1136</ele>
        <time>2016-06-18T09:47:00Z</time>
      </trkpt>
      <trkpt lat="47.90349" lon="7.06652">
        <ele>1135</ele>
        <time>2016-06-18T09:47:10Z</time>
      </trkpt>
      <trkpt lat="47.90357" lon="7.06635">
        <ele>1136</ele>
        <time>2016-06-18T09:47:20Z</time>
      </trkpt>
      <trkpt lat="47.9036" lon="7.06629">
        <ele>1136</ele>
        <time>2016-06-18T09:47:24Z</time>
      </trkpt>
      <trkpt lat="47.90372" lon="7.06615">
        <ele>1137</ele>
        <time>2016-06-18T09:47:36Z</time>
      </trkpt>
      <trkpt lat="47.90377" lon="7.06603">
        <ele>1137</ele>
        <time>2016-06-18T09:47:47Z</time>
      </trkpt>
      <trkpt lat="47.90389" lon="7.06591">
        <ele>1139</ele>
        <time>2016-06-18T09:47:59Z</time>
      </trkpt>
      <trkpt lat="47.90401" lon="7.06583">
        <ele>1133</ele>
        <time>2016-06-18T09:48:09Z</time>
      </trkpt>
      <trkpt lat="47.90417" lon="7.06576">
        <ele>1142</ele>
        <time>2016-06-18T09:48:19Z</time>
      </trkpt>
      <trkpt lat="47.90422" lon="7.06575">
        <ele>1142</ele>
        <time>2016-06-18T09:48:24Z</time>
      </trkpt>
      <trkpt lat="47.90434" lon="7.06562">
        <ele>1140</ele>
        <time>2016-06-18T09:48:34Z</time>
      </trkpt>
      <trkpt lat="47.90443" lon="7.06557">
        <ele>1139</ele>
        <time>2016-06-18T09:48:44Z</time>
      </trkpt>
      <trkpt lat="47.90459" lon="7.06558">
        <ele>1141</ele>
        <time>2016-06-18T09:48:54Z</time>
      </trkpt>
      <trkpt lat="47.90468" lon="7.06553">
        <ele>1141</ele>
        <time>2016-06-18T09:49:03Z</time>
      </trkpt>
      <trkpt lat="47.90482" lon="7.06549">
        <ele>1141</ele>
        <time>2016-06-18T09:49:13Z</time>
      </trkpt>
      <trkpt lat="47.90497" lon="7.06546">
        <ele>1141</ele>
        <time>2016-06-18T09:49:24Z</time>
      </trkpt>
      <trkpt lat="47.9051" lon="7.06543">
        <ele>1147</ele>
        <time>2016-06-18T09:49:40Z</time>
      </trkpt>
      <trkpt lat="47.90521" lon="7.0654">
        <ele>1147</ele>
        <time>2016-06-18T09:49:50Z</time>
      </trkpt>
      <trkpt lat="47.90539" lon="7.06541">
        <ele>1148</ele>
        <time>2016-06-18T09:50:00Z</time>
      </trkpt>
      <trkpt lat="47.90555" lon="7.06542">
        <ele>1149</ele>
        <time>2016-06-18T09:50:11Z</time>
      </trkpt>
      <trkpt lat="47.90571" lon="7.0655">
        <ele>1152</ele>
        <time>2016-06-18T09:50:21Z</time>
      </trkpt>
      <trkpt lat="47.90582" lon="7.06553">
        <ele>1153</ele>
        <time>2016-06-18T09:50:30Z</time>
      </trkpt>
      <trkpt lat="47.90597" lon="7.06553">
        <ele>1155</ele>
        <time>2016-06-18T09:50:46Z</time>
      </trkpt>
      <trkpt lat="47.90608" lon="7.06556">
        <ele>1155</ele>
        <time>2016-06-18T09:50:58Z</time>
      </trkpt>
      <trkpt lat="47.90624" lon="7.06562">
        <ele>1156</ele>
        <time>2016-06-18T09:51:11Z</time>
      </trkpt>
      <trkpt lat="47.90634" lon="7.06568">
        <ele>1157</ele>
        <time>2016-06-18T09:51:21Z</time>
      </trkpt>
      <trkpt lat="47.9065" lon="7.06575">
        <ele>1160</ele>
        <time>2016-06-18T09:51:33Z</time>
      </trkpt>
      <trkpt lat="47.90662" lon="7.06583">
        <ele>1165</ele>
        <time>2016-06-18T09:51:43Z</time>
      </trkpt>
      <trkpt lat="47.9067" lon="7.06588">
        <ele>1168</ele>
        <time>2016-06-18T09:52:07Z</time>
      </trkpt>
      <trkpt lat="47.90675" lon="7.06592">
        <ele>1169</ele>
        <time>2016-06-18T09:54:11Z</time>
      </trkpt>
      <trkpt lat="47.90679" lon="7.06594">
        <ele>1170</ele>
        <time>2016-06-18T09:54:30Z</time>
      </trkpt>
      <trkpt lat="47.90685" lon="7.06596">
        <ele>1170</ele>
        <time>2016-06-18T09:54:34Z</time>
      </trkpt>
      <trkpt lat="47.90695" lon="7.06599">
        <ele>1171</ele>
        <time>2016-06-18T09:54:45Z</time>
      </trkpt>
      <trkpt lat="47.90708" lon="7.06611">
        <ele>1172</ele>
        <time>2016-06-18T09:54:57Z</time>
      </trkpt>
      <trkpt lat="47.90714" lon="7.06617">
        <ele>1172</ele>
        <time>2016-06-18T09:55:00Z</time>
      </trkpt>
      <trkpt lat="47.90723" lon="7.06621">
        <ele>1172</ele>
        <time>2016-06-18T09:55:11Z</time>
      </trkpt>
      <trkpt lat="47.90744" lon="7.0663">
        <ele>1173</ele>
        <time>2016-06-18T09:55:23Z</time>
      </trkpt>
      <trkpt lat="47.90758" lon="7.06636">
        <ele>1172</ele>
        <time>2016-06-18T09:55:33Z</time>
      </trkpt>
      <trkpt lat="47.90765" lon="7.06635">
        <ele>1172</ele>
        <time>2016-06-18T09:55:37Z</time>
      </trkpt>
      <trkpt lat="47.90775" lon="7.06637">
        <ele>1172</ele>
        <time>2016-06-18T09:55:47Z</time>
      </trkpt>
      <trkpt lat="47.90785" lon="7.06636">
        <ele>1172</ele>
        <time>2016-06-18T09:55:57Z</time>
      </trkpt>
      <trkpt lat="47.90797" lon="7.06636">
        <ele>1172</ele>
        <time>2016-06-18T09:56:05Z</time>
      </trkpt>
      <trkpt lat="47.90814" lon="7.06637">
        <ele>1172</ele>
        <time>2016-06-18T09:56:16Z</time>
      </trkpt>
      <trkpt lat="47.90835" lon="7.06637">
        <ele>1177</ele>
        <time>2016-06-18T09:56:29Z</time>
      </trkpt>
      <trkpt lat="47.90851" lon="7.06641">
        <ele>1178</ele>
        <time>2016-06-18T09:56:40Z</time>
      </trkpt>
      <trkpt lat="47.90867" lon="7.06644">
        <ele>1178</ele>
        <time>2016-06-18T09:56:52Z</time>
      </trkpt>
      <trkpt lat="47.90875" lon="7.06651">
        <ele>1179</ele>
        <time>2016-06-18T09:57:02Z</time>
      </trkpt>
      <trkpt lat="47.90884" lon="7.06657">
        <ele>1181</ele>
        <time>2016-06-18T09:57:12Z</time>
      </trkpt>
      <trkpt lat="47.90898" lon="7.06659">
        <ele>1183</ele>
        <time>2016-06-18T09:57:24Z</time>
      </trkpt>
      <trkpt lat="47.90908" lon="7.06663">
        <ele>1185</ele>
        <time>2016-06-18T09:57:34Z</time>
      </trkpt>
      <trkpt lat="47.90918" lon="7.06669">
        <ele>1189</ele>
        <time>2016-06-18T09:57:45Z</time>
      </trkpt>
      <trkpt lat="47.90927" lon="7.06669">
        <ele>1191</ele>
        <time>2016-06-18T09:57:55Z</time>
      </trkpt>
      <trkpt lat="47.90943" lon="7.06666">
        <ele>1190</ele>
        <time>2016-06-18T09:58:08Z</time>
      </trkpt>
      <trkpt lat="47.90953" lon="7.0665">
        <ele>1191</ele>
        <time>2016-06-18T09:58:22Z</time>
      </trkpt>
      <trkpt lat="47.90964" lon="7.06636">
        <ele>1191</ele>
        <time>2016-06-18T09:58:34Z</time>
      </trkpt>
      <trkpt lat="47.90975" lon="7.06621">
        <ele>1191</ele>
        <time>2016-06-18T09:58:46Z</time>
      </trkpt>
      <trkpt lat="47.90986" lon="7.06605">
        <ele>1192</ele>
        <time>2016-06-18T09:58:58Z</time>
      </trkpt>
      <trkpt lat="47.90997" lon="7.06587">
        <ele>1194</ele>
        <time>2016-06-18T09:59:11Z</time>
      </trkpt>
      <trkpt lat="47.91007" lon="7.06568">
        <ele>1197</ele>
        <time>2016-06-18T09:59:23Z</time>
      </trkpt>
      <trkpt lat="47.91018" lon="7.06551">
        <ele>1198</ele>
        <time>2016-06-18T09:59:34Z</time>
      </trkpt>
      <trkpt lat="47.91027" lon="7.06534">
        <ele>1197</ele>
        <time>2016-06-18T09:59:45Z</time>
      </trkpt>
      <trkpt lat="47.91037" lon="7.06515">
        <ele>1198</ele>
        <time>2016-06-18T09:59:56Z</time>
      </trkpt>
      <trkpt lat="47.91047" lon="7.06496">
        <ele>1194</ele>
        <time>2016-06-18T10:00:08Z</time>
      </trkpt>
      <trkpt lat="47.91055" lon="7.06477">
        <ele>1195</ele>
        <time>2016-06-18T10:00:19Z</time>
      </trkpt>
      <trkpt lat="47.91063" lon="7.0646">
        <ele>1194</ele>
        <time>2016-06-18T10:00:32Z</time>
      </trkpt>
      <trkpt lat="47.91077" lon="7.06446">
        <ele>1195</ele>
        <time>2016-06-18T10:00:42Z</time>
      </trkpt>
      <trkpt lat="47.91083" lon="7.06435">
        <ele>1196</ele>
        <time>2016-06-18T10:00:50Z</time>
      </trkpt>
      <trkpt lat="47.9109" lon="7.06416">
        <ele>1202</ele>
        <time>2016-06-18T10:01:02Z</time>
      </trkpt>
      <trkpt lat="47.91099" lon="7.06397">
        <ele>1204</ele>
        <time>2016-06-18T10:01:13Z</time>
      </trkpt>
      <trkpt lat="47.91102" lon="7.06392">
        <ele>1205</ele>
        <time>2016-06-18T10:01:16Z</time>
      </trkpt>
      <trkpt lat="47.9111" lon="7.06382">
        <ele>1205</ele>
        <time>2016-06-18T10:01:30Z</time>
      </trkpt>
      <trkpt lat="47.9111" lon="7.06366">
        <ele>1204</ele>
        <time>2016-06-18T10:01:36Z</time>
      </trkpt>
      <trkpt lat="47.91115" lon="7.06333">
        <ele>1200</ele>
        <time>2016-06-18T10:01:49Z</time>
      </trkpt>
      <trkpt lat="47.91117" lon="7.06312">
        <ele>1200</ele>
        <time>2016-06-18T10:02:00Z</time>
      </trkpt>
      <trkpt lat="47.91115" lon="7.06292">
        <ele>1200</ele>
        <time>2016-06-18T10:02:11Z</time>
      </trkpt>
      <trkpt lat="47.91117" lon="7.06277">
        <ele>1199</ele>
        <time>2016-06-18T10:02:18Z</time>
      </trkpt>
      <trkpt lat="47.91121" lon="7.06265">
        <ele>1200</ele>
        <time>2016-06-18T10:02:31Z</time>
      </trkpt>
      <trkpt lat="47.91122" lon="7.06242">
        <ele>1197</ele>
        <time>2016-06-18T10:02:43Z</time>
      </trkpt>
      <trkpt lat="47.91128" lon="7.06223">
        <ele>1198</ele>
        <time>2016-06-18T10:02:55Z</time>
      </trkpt>
      <trkpt lat="47.91127" lon="7.06213">
        <ele>1198</ele>
        <time>2016-06-18T10:02:58Z</time>
      </trkpt>
      <trkpt lat="47.91134" lon="7.06193">
        <ele>1199</ele>
        <time>2016-06-18T10:03:11Z</time>
      </trkpt>
      <trkpt lat="47.9114" lon="7.06171">
        <ele>1201</ele>
        <time>2016-06-18T10:03:22Z</time>
      </trkpt>
      <trkpt lat="47.91142" lon="7.06156">
        <ele>1199</ele>
        <time>2016-06-18T10:03:32Z</time>
      </trkpt>
      <trkpt lat="47.91147" lon="7.06132">
        <ele>1198</ele>
        <time>2016-06-18T10:03:43Z</time>
      </trkpt>
      <trkpt lat="47.9115" lon="7.0611">
        <ele>1198</ele>
        <time>2016-06-18T10:03:55Z</time>
      </trkpt>
      <trkpt lat="47.91152" lon="7.06102">
        <ele>1199</ele>
        <time>2016-06-18T10:03:59Z</time>
      </trkpt>
      <trkpt lat="47.91156" lon="7.0608">
        <ele>1200</ele>
        <time>2016-06-18T10:04:11Z</time>
      </trkpt>
      <trkpt lat="47.91159" lon="7.06065">
        <ele>1197</ele>
        <time>2016-06-18T10:04:22Z</time>
      </trkpt>
      <trkpt lat="47.91159" lon="7.06027">
        <ele>1194</ele>
        <time>2016-06-18T10:04:36Z</time>
      </trkpt>
      <trkpt lat="47.91157" lon="7.06011">
        <ele>1195</ele>
        <time>2016-06-18T10:04:43Z</time>
      </trkpt>
      <trkpt lat="47.91153" lon="7.05985">
        <ele>1194</ele>
        <time>2016-06-18T10:04:54Z</time>
      </trkpt>
      <trkpt lat="47.9115" lon="7.05965">
        <ele>1193</ele>
        <time>2016-06-18T10:05:06Z</time>
      </trkpt>
      <trkpt lat="47.91144" lon="7.05944">
        <ele>1193</ele>
        <time>2016-06-18T10:05:17Z</time>
      </trkpt>
      <trkpt lat="47.91142" lon="7.05937">
        <ele>1193</ele>
        <time>2016-06-18T10:05:21Z</time>
      </trkpt>
      <trkpt lat="47.91137" lon="7.05912">
        <ele>1196</ele>
        <time>2016-06-18T10:05:34Z</time>
      </trkpt>
      <trkpt lat="47.91135" lon="7.05904">
        <ele>1196</ele>
        <time>2016-06-18T10:05:45Z</time>
      </trkpt>
      <trkpt lat="47.9113" lon="7.05902">
        <ele>1196</ele>
        <time>2016-06-18T10:05:47Z</time>
      </trkpt>
      <trkpt lat="47.91123" lon="7.05882">
        <ele>1197</ele>
        <time>2016-06-18T10:05:57Z</time>
      </trkpt>
      <trkpt lat="47.91115" lon="7.05871">
        <ele>1197</ele>
        <time>2016-06-18T10:06:08Z</time>
      </trkpt>
      <trkpt lat="47.91109" lon="7.0586">
        <ele>1198</ele>
        <time>2016-06-18T10:06:19Z</time>
      </trkpt>
      <trkpt lat="47.91105" lon="7.05846">
        <ele>1198</ele>
        <time>2016-06-18T10:06:26Z</time>
      </trkpt>
      <trkpt lat="47.91106" lon="7.05827">
        <ele>1203</ele>
        <time>2016-06-18T10:06:37Z</time>
      </trkpt>
      <trkpt lat="47.91101" lon="7.05803">
        <ele>1205</ele>
        <time>2016-06-18T10:06:47Z</time>
      </trkpt>
      <trkpt lat="47.91097" lon="7.05781">
        <ele>1206</ele>
        <time>2016-06-18T10:07:01Z</time>
      </trkpt>
      <trkpt lat="47.91092" lon="7.05766">
        <ele>1206</ele>
        <time>2016-06-18T10:07:12Z</time>
      </trkpt>
      <trkpt lat="47.9109" lon="7.05751">
        <ele>1206</ele>
        <time>2016-06-18T10:07:22Z</time>
      </trkpt>
      <trkpt lat="47.91087" lon="7.05726">
        <ele>1211</ele>
        <time>2016-06-18T10:07:37Z</time>
      </trkpt>
      <trkpt lat="47.91083" lon="7.05699">
        <ele>1196</ele>
        <time>2016-06-18T10:07:47Z</time>
      </trkpt>
      <trkpt lat="47.91082" lon="7.0569">
        <ele>1198</ele>
        <time>2016-06-18T10:07:52Z</time>
      </trkpt>
      <trkpt lat="47.9108" lon="7.05673">
        <ele>1206</ele>
        <time>2016-06-18T10:08:02Z</time>
      </trkpt>
      <trkpt lat="47.91082" lon="7.05655">
        <ele>1205</ele>
        <time>2016-06-18T10:08:12Z</time>
      </trkpt>
      <trkpt lat="47.91081" lon="7.05632">
        <ele>1200</ele>
        <time>2016-06-18T10:08:25Z</time>
      </trkpt>
      <trkpt lat="47.91083" lon="7.05607">
        <ele>1212</ele>
        <time>2016-06-18T10:08:37Z</time>
      </trkpt>
      <trkpt lat="47.91086" lon="7.05591">
        <ele>1210</ele>
        <time>2016-06-18T10:08:52Z</time>
      </trkpt>
      <trkpt lat="47.91086" lon="7.05565">
        <ele>1208</ele>
        <time>2016-06-18T10:09:03Z</time>
      </trkpt>
      <trkpt lat="47.91086" lon="7.05551">
        <ele>1208</ele>
        <time>2016-06-18T10:09:09Z</time>
      </trkpt>
      <trkpt lat="47.91082" lon="7.05519">
        <ele>1200</ele>
        <time>2016-06-18T10:09:20Z</time>
      </trkpt>
      <trkpt lat="47.91081" lon="7.05498">
        <ele>1203</ele>
        <time>2016-06-18T10:09:32Z</time>
      </trkpt>
      <trkpt lat="47.91081" lon="7.05482">
        <ele>1200</ele>
        <time>2016-06-18T10:09:40Z</time>
      </trkpt>
      <trkpt lat="47.9108" lon="7.0546">
        <ele>1199</ele>
        <time>2016-06-18T10:09:51Z</time>
      </trkpt>
      <trkpt lat="47.91079" lon="7.05432">
        <ele>1201</ele>
        <time>2016-06-18T10:10:01Z</time>
      </trkpt>
      <trkpt lat="47.91079" lon="7.0541">
        <ele>1201</ele>
        <time>2016-06-18T10:10:22Z</time>
      </trkpt>
      <trkpt lat="47.91075" lon="7.05386">
        <ele>1195</ele>
        <time>2016-06-18T10:10:32Z</time>
      </trkpt>
      <trkpt lat="47.9107" lon="7.05363">
        <ele>1192</ele>
        <time>2016-06-18T10:10:44Z</time>
      </trkpt>
      <trkpt lat="47.91073" lon="7.05339">
        <ele>1193</ele>
        <time>2016-06-18T10:10:55Z</time>
      </trkpt>
      <trkpt lat="47.91073" lon="7.05315">
        <ele>1187</ele>
        <time>2016-06-18T10:11:10Z</time>
      </trkpt>
      <trkpt lat="47.9107" lon="7.05292">
        <ele>1184</ele>
        <time>2016-06-18T10:11:22Z</time>
      </trkpt>
      <trkpt lat="47.91068" lon="7.05261">
        <ele>1182</ele>
        <time>2016-06-18T10:11:34Z</time>
      </trkpt>
      <trkpt lat="47.91067" lon="7.05253">
        <ele>1182</ele>
        <time>2016-06-18T10:11:37Z</time>
      </trkpt>
      <trkpt lat="47.91063" lon="7.05217">
        <ele>1178</ele>
        <time>2016-06-18T10:11:49Z</time>
      </trkpt>
      <trkpt lat="47.91064" lon="7.05198">
        <ele>1178</ele>
        <time>2016-06-18T10:11:56Z</time>
      </trkpt>
      <trkpt lat="47.91065" lon="7.05175">
        <ele>1178</ele>
        <time>2016-06-18T10:12:07Z</time>
      </trkpt>
      <trkpt lat="47.91064" lon="7.05151">
        <ele>1179</ele>
        <time>2016-06-18T10:12:19Z</time>
      </trkpt>
      <trkpt lat="47.91064" lon="7.05136">
        <ele>1179</ele>
        <time>2016-06-18T10:12:29Z</time>
      </trkpt>
      <trkpt lat="47.91066" lon="7.05112">
        <ele>1180</ele>
        <time>2016-06-18T10:12:40Z</time>
      </trkpt>
      <trkpt lat="47.91069" lon="7.05089">
        <ele>1182</ele>
        <time>2016-06-18T10:12:51Z</time>
      </trkpt>
      <trkpt lat="47.91079" lon="7.05071">
        <ele>1183</ele>
        <time>2016-06-18T10:13:02Z</time>
      </trkpt>
      <trkpt lat="47.91089" lon="7.05054">
        <ele>1182</ele>
        <time>2016-06-18T10:13:13Z</time>
      </trkpt>
      <trkpt lat="47.911" lon="7.05037">
        <ele>1181</ele>
        <time>2016-06-18T10:13:27Z</time>
      </trkpt>
      <trkpt lat="47.91109" lon="7.05019">
        <ele>1181</ele>
        <time>2016-06-18T10:13:39Z</time>
      </trkpt>
      <trkpt lat="47.9112" lon="7.05004">
        <ele>1180</ele>
        <time>2016-06-18T10:13:50Z</time>
      </trkpt>
      <trkpt lat="47.91137" lon="7.04984">
        <ele>1174</ele>
        <time>2016-06-18T10:14:02Z</time>
      </trkpt>
      <trkpt lat="47.91141" lon="7.04979">
        <ele>1174</ele>
        <time>2016-06-18T10:14:05Z</time>
      </trkpt>
      <trkpt lat="47.91153" lon="7.04965">
        <ele>1173</ele>
        <time>2016-06-18T10:14:15Z</time>
      </trkpt>
      <trkpt lat="47.91168" lon="7.04953">
        <ele>1171</ele>
        <time>2016-06-18T10:14:26Z</time>
      </trkpt>
      <trkpt lat="47.91179" lon="7.04937">
        <ele>1170</ele>
        <time>2016-06-18T10:14:36Z</time>
      </trkpt>
      <trkpt lat="47.9119" lon="7.0492">
        <ele>1170</ele>
        <time>2016-06-18T10:14:49Z</time>
      </trkpt>
      <trkpt lat="47.91198" lon="7.04911">
        <ele>1167</ele>
        <time>2016-06-18T10:15:00Z</time>
      </trkpt>
      <trkpt lat="47.91209" lon="7.04892">
        <ele>1167</ele>
        <time>2016-06-18T10:15:12Z</time>
      </trkpt>
      <trkpt lat="47.91221" lon="7.04873">
        <ele>1168</ele>
        <time>2016-06-18T10:15:24Z</time>
      </trkpt>
      <trkpt lat="47.91232" lon="7.04856">
        <ele>1169</ele>
        <time>2016-06-18T10:15:36Z</time>
      </trkpt>
      <trkpt lat="47.91243" lon="7.04841">
        <ele>1171</ele>
        <time>2016-06-18T10:15:48Z</time>
      </trkpt>
      <trkpt lat="47.9125" lon="7.04819">
        <ele>1175</ele>
        <time>2016-06-18T10:15:59Z</time>
      </trkpt>
      <trkpt lat="47.91254" lon="7.04796">
        <ele>1176</ele>
        <time>2016-06-18T10:16:11Z</time>
      </trkpt>
      <trkpt lat="47.91262" lon="7.04777">
        <ele>1176</ele>
        <time>2016-06-18T10:16:21Z</time>
      </trkpt>
      <trkpt lat="47.9127" lon="7.04757">
        <ele>1176</ele>
        <time>2016-06-18T10:16:32Z</time>
      </trkpt>
      <trkpt lat="47.91275" lon="7.04737">
        <ele>1177</ele>
        <time>2016-06-18T10:16:44Z</time>
      </trkpt>
      <trkpt lat="47.91282" lon="7.04717">
        <ele>1178</ele>
        <time>2016-06-18T10:16:56Z</time>
      </trkpt>
      <trkpt lat="47.9129" lon="7.04699">
        <ele>1179</ele>
        <time>2016-06-18T10:17:07Z</time>
      </trkpt>
      <trkpt lat="47.91295" lon="7.04677">
        <ele>1179</ele>
        <time>2016-06-18T10:17:18Z</time>
      </trkpt>
      <trkpt lat="47.913" lon="7.04657">
        <ele>1176</ele>
        <time>2016-06-18T10:17:29Z</time>
      </trkpt>
      <trkpt lat="47.91306" lon="7.04638">
        <ele>1175</ele>
        <time>2016-06-18T10:17:40Z</time>
      </trkpt>
      <trkpt lat="47.9132" lon="7.04614">
        <ele>1175</ele>
        <time>2016-06-18T10:17:53Z</time>
      </trkpt>
      <trkpt lat="47.91328" lon="7.04594">
        <ele>1177</ele>
        <time>2016-06-18T10:18:04Z</time>
      </trkpt>
      <trkpt lat="47.91337" lon="7.04576">
        <ele>1182</ele>
        <time>2016-06-18T10:18:14Z</time>
      </trkpt>
      <trkpt lat="47.91342" lon="7.04564">
        <ele>1183</ele>
        <time>2016-06-18T10:18:25Z</time>
      </trkpt>
      <trkpt lat="47.91356" lon="7.0454">
        <ele>1183</ele>
        <time>2016-06-18T10:18:36Z</time>
      </trkpt>
      <trkpt lat="47.91363" lon="7.04521">
        <ele>1182</ele>
        <time>2016-06-18T10:18:47Z</time>
      </trkpt>
      <trkpt lat="47.91371" lon="7.04502">
        <ele>1182</ele>
        <time>2016-06-18T10:18:57Z</time>
      </trkpt>
      <trkpt lat="47.91383" lon="7.04479">
        <ele>1176</ele>
        <time>2016-06-18T10:19:10Z</time>
      </trkpt>
      <trkpt lat="47.91388" lon="7.04475">
        <ele>1177</ele>
        <time>2016-06-18T10:19:13Z</time>
      </trkpt>
      <trkpt lat="47.91394" lon="7.04462">
        <ele>1177</ele>
        <time>2016-06-18T10:19:23Z</time>
      </trkpt>
      <trkpt lat="47.91407" lon="7.04446">
        <ele>1177</ele>
        <time>2016-06-18T10:19:36Z</time>
      </trkpt>
      <trkpt lat="47.91413" lon="7.04444">
        <ele>1177</ele>
        <time>2016-06-18T10:19:40Z</time>
      </trkpt>
      <trkpt lat="47.91423" lon="7.04442">
        <ele>1188</ele>
        <time>2016-06-18T10:19:51Z</time>
      </trkpt>
      <trkpt lat="47.91438" lon="7.04434">
        <ele>1187</ele>
        <time>2016-06-18T10:20:01Z</time>
      </trkpt>
      <trkpt lat="47.91454" lon="7.0443">
        <ele>1189</ele>
        <time>2016-06-18T10:20:14Z</time>
      </trkpt>
      <trkpt lat="47.9146" lon="7.04429">
        <ele>1189</ele>
        <time>2016-06-18T10:20:17Z</time>
      </trkpt>
      <trkpt lat="47.91465" lon="7.04428">
        <ele>1189</ele>
        <time>2016-06-18T10:20:20Z</time>
      </trkpt>
      <trkpt lat="47.91481" lon="7.0443">
        <ele>1189</ele>
        <time>2016-06-18T10:20:30Z</time>
      </trkpt>
      <trkpt lat="47.91495" lon="7.04427">
        <ele>1188</ele>
        <time>2016-06-18T10:20:40Z</time>
      </trkpt>
      <trkpt lat="47.91512" lon="7.04426">
        <ele>1192</ele>
        <time>2016-06-18T10:20:51Z</time>
      </trkpt>
      <trkpt lat="47.91523" lon="7.04424">
        <ele>1195</ele>
        <time>2016-06-18T10:21:01Z</time>
      </trkpt>
      <trkpt lat="47.91542" lon="7.04418">
        <ele>1197</ele>
        <time>2016-06-18T10:21:14Z</time>
      </trkpt>
      <trkpt lat="47.91558" lon="7.04411">
        <ele>1187</ele>
        <time>2016-06-18T10:21:25Z</time>
      </trkpt>
      <trkpt lat="47.91573" lon="7.04405">
        <ele>1190</ele>
        <time>2016-06-18T10:21:36Z</time>
      </trkpt>
      <trkpt lat="47.91586" lon="7.04397">
        <ele>1195</ele>
        <time>2016-06-18T10:21:47Z</time>
      </trkpt>
      <trkpt lat="47.91599" lon="7.04385">
        <ele>1194</ele>
        <time>2016-06-18T10:22:00Z</time>
      </trkpt>
      <trkpt lat="47.91613" lon="7.04382">
        <ele>1195</ele>
        <time>2016-06-18T10:22:11Z</time>
      </trkpt>
      <trkpt lat="47.91625" lon="7.04369">
        <ele>1194</ele>
        <time>2016-06-18T10:22:24Z</time>
      </trkpt>
      <trkpt lat="47.91636" lon="7.04353">
        <ele>1193</ele>
        <time>2016-06-18T10:22:35Z</time>
      </trkpt>
      <trkpt lat="47.91648" lon="7.04343">
        <ele>1193</ele>
        <time>2016-06-18T10:22:44Z</time>
      </trkpt>
      <trkpt lat="47.91663" lon="7.04336">
        <ele>1193</ele>
        <time>2016-06-18T10:22:56Z</time>
      </trkpt>
      <trkpt lat="47.91673" lon="7.04317">
        <ele>1192</ele>
        <time>2016-06-18T10:23:07Z</time>
      </trkpt>
      <trkpt lat="47.91685" lon="7.04301">
        <ele>1191</ele>
        <time>2016-06-18T10:23:17Z</time>
      </trkpt>
      <trkpt lat="47.91693" lon="7.04294">
        <ele>1191</ele>
        <time>2016-06-18T10:23:23Z</time>
      </trkpt>
      <trkpt lat="47.917" lon="7.04282">
        <ele>1190</ele>
        <time>2016-06-18T10:23:33Z</time>
      </trkpt>
      <trkpt lat="47.91709" lon="7.04262">
        <ele>1190</ele>
        <time>2016-06-18T10:23:43Z</time>
      </trkpt>
      <trkpt lat="47.91721" lon="7.04238">
        <ele>1178</ele>
        <time>2016-06-18T10:23:54Z</time>
      </trkpt>
      <trkpt lat="47.91723" lon="7.04231">
        <ele>1177</ele>
        <time>2016-06-18T10:23:58Z</time>
      </trkpt>
      <trkpt lat="47.91727" lon="7.04224">
        <ele>1177</ele>
        <time>2016-06-18T10:24:02Z</time>
      </trkpt>
      <trkpt lat="47.91731" lon="7.0422">
        <ele>1177</ele>
        <time>2016-06-18T10:24:08Z</time>
      </trkpt>
      <trkpt lat="47.91741" lon="7.042">
        <ele>1174</ele>
        <time>2016-06-18T10:24:19Z</time>
      </trkpt>
      <trkpt lat="47.91749" lon="7.0419">
        <ele>1174</ele>
        <time>2016-06-18T10:24:29Z</time>
      </trkpt>
      <trkpt lat="47.91754" lon="7.0419">
        <ele>1188</ele>
        <time>2016-06-18T10:24:33Z</time>
      </trkpt>
      <trkpt lat="47.91766" lon="7.04176">
        <ele>1186</ele>
        <time>2016-06-18T10:24:45Z</time>
      </trkpt>
      <trkpt lat="47.91773" lon="7.04175">
        <ele>1188</ele>
        <time>2016-06-18T10:24:49Z</time>
      </trkpt>
      <trkpt lat="47.91779" lon="7.04171">
        <ele>1189</ele>
        <time>2016-06-18T10:24:53Z</time>
      </trkpt>
      <trkpt lat="47.91791" lon="7.04157">
        <ele>1178</ele>
        <time>2016-06-18T10:25:04Z</time>
      </trkpt>
      <trkpt lat="47.91795" lon="7.04151">
        <ele>1178</ele>
        <time>2016-06-18T10:25:07Z</time>
      </trkpt>
      <trkpt lat="47.9181" lon="7.04145">
        <ele>1180</ele>
        <time>2016-06-18T10:25:17Z</time>
      </trkpt>
      <trkpt lat="47.91827" lon="7.04137">
        <ele>1181</ele>
        <time>2016-06-18T10:25:28Z</time>
      </trkpt>
      <trkpt lat="47.91842" lon="7.04132">
        <ele>1191</ele>
        <time>2016-06-18T10:25:39Z</time>
      </trkpt>
      <trkpt lat="47.91857" lon="7.04123">
        <ele>1190</ele>
        <time>2016-06-18T10:25:51Z</time>
      </trkpt>
      <trkpt lat="47.91872" lon="7.04121">
        <ele>1191</ele>
        <time>2016-06-18T10:26:06Z</time>
      </trkpt>
      <trkpt lat="47.91886" lon="7.04113">
        <ele>1191</ele>
        <time>2016-06-18T10:26:16Z</time>
      </trkpt>
      <trkpt lat="47.91898" lon="7.04111">
        <ele>1191</ele>
        <time>2016-06-18T10:26:28Z</time>
      </trkpt>
      <trkpt lat="47.91912" lon="7.04102">
        <ele>1190</ele>
        <time>2016-06-18T10:26:38Z</time>
      </trkpt>
      <trkpt lat="47.91922" lon="7.04096">
        <ele>1195</ele>
        <time>2016-06-18T10:26:49Z</time>
      </trkpt>
      <trkpt lat="47.91941" lon="7.04084">
        <ele>1198</ele>
        <time>2016-06-18T10:27:00Z</time>
      </trkpt>
      <trkpt lat="47.91957" lon="7.04069">
        <ele>1186</ele>
        <time>2016-06-18T10:27:14Z</time>
      </trkpt>
      <trkpt lat="47.91975" lon="7.04054">
        <ele>1186</ele>
        <time>2016-06-18T10:27:26Z</time>
      </trkpt>
      <trkpt lat="47.91985" lon="7.04052">
        <ele>1187</ele>
        <time>2016-06-18T10:27:36Z</time>
      </trkpt>
      <trkpt lat="47.91999" lon="7.04045">
        <ele>1186</ele>
        <time>2016-06-18T10:27:47Z</time>
      </trkpt>
      <trkpt lat="47.92013" lon="7.04035">
        <ele>1194</ele>
        <time>2016-06-18T10:28:00Z</time>
      </trkpt>
      <trkpt lat="47.92023" lon="7.04025">
        <ele>1193</ele>
        <time>2016-06-18T10:28:09Z</time>
      </trkpt>
      <trkpt lat="47.92037" lon="7.04012">
        <ele>1193</ele>
        <time>2016-06-18T10:28:20Z</time>
      </trkpt>
      <trkpt lat="47.92053" lon="7.04006">
        <ele>1194</ele>
        <time>2016-06-18T10:28:32Z</time>
      </trkpt>
      <trkpt lat="47.92058" lon="7.04003">
        <ele>1194</ele>
        <time>2016-06-18T10:28:36Z</time>
      </trkpt>
      <trkpt lat="47.92072" lon="7.03995">
        <ele>1185</ele>
        <time>2016-06-18T10:28:46Z</time>
      </trkpt>
      <trkpt lat="47.92088" lon="7.03984">
        <ele>1190</ele>
        <time>2016-06-18T10:28:56Z</time>
      </trkpt>
      <trkpt lat="47.92102" lon="7.03971">
        <ele>1189</ele>
        <time>2016-06-18T10:29:06Z</time>
      </trkpt>
      <trkpt lat="47.92115" lon="7.03957">
        <ele>1188</ele>
        <time>2016-06-18T10:29:17Z</time>
      </trkpt>
      <trkpt lat="47.9213" lon="7.0394">
        <ele>1187</ele>
        <time>2016-06-18T10:29:27Z</time>
      </trkpt>
      <trkpt lat="47.92143" lon="7.03921">
        <ele>1187</ele>
        <time>2016-06-18T10:29:38Z</time>
      </trkpt>
      <trkpt lat="47.92145" lon="7.03914">
        <ele>1176</ele>
        <time>2016-06-18T10:29:42Z</time>
      </trkpt>
      <trkpt lat="47.92152" lon="7.03896">
        <ele>1175</ele>
        <time>2016-06-18T10:29:53Z</time>
      </trkpt>
      <trkpt lat="47.9217" lon="7.03877">
        <ele>1185</ele>
        <time>2016-06-18T10:30:10Z</time>
      </trkpt>
      <trkpt lat="47.92174" lon="7.03871">
        <ele>1185</ele>
        <time>2016-06-18T10:30:14Z</time>
      </trkpt>
      <trkpt lat="47.92186" lon="7.03855">
        <ele>1183</ele>
        <time>2016-06-18T10:30:24Z</time>
      </trkpt>
      <trkpt lat="47.92197" lon="7.03838">
        <ele>1183</ele>
        <time>2016-06-18T10:30:36Z</time>
      </trkpt>
      <trkpt lat="47.92211" lon="7.03824">
        <ele>1175</ele>
        <time>2016-06-18T10:30:47Z</time>
      </trkpt>
      <trkpt lat="47.92221" lon="7.03805">
        <ele>1175</ele>
        <time>2016-06-18T10:30:59Z</time>
      </trkpt>
      <trkpt lat="47.92232" lon="7.03786">
        <ele>1174</ele>
        <time>2016-06-18T10:31:11Z</time>
      </trkpt>
      <trkpt lat="47.92243" lon="7.03762">
        <ele>1174</ele>
        <time>2016-06-18T10:31:24Z</time>
      </trkpt>
      <trkpt lat="47.92251" lon="7.03742">
        <ele>1176</ele>
        <time>2016-06-18T10:31:35Z</time>
      </trkpt>
      <trkpt lat="47.92259" lon="7.03724">
        <ele>1177</ele>
        <time>2016-06-18T10:31:45Z</time>
      </trkpt>
      <trkpt lat="47.92269" lon="7.03707">
        <ele>1177</ele>
        <time>2016-06-18T10:31:55Z</time>
      </trkpt>
      <trkpt lat="47.92277" lon="7.03688">
        <ele>1176</ele>
        <time>2016-06-18T10:32:06Z</time>
      </trkpt>
      <trkpt lat="47.92285" lon="7.03669">
        <ele>1176</ele>
        <time>2016-06-18T10:32:16Z</time>
      </trkpt>
      <trkpt lat="47.92284" lon="7.03648">
        <ele>1170</ele>
        <time>2016-06-18T10:32:27Z</time>
      </trkpt>
      <trkpt lat="47.92285" lon="7.0362">
        <ele>1169</ele>
        <time>2016-06-18T10:32:39Z</time>
      </trkpt>
      <trkpt lat="47.92286" lon="7.03596">
        <ele>1168</ele>
        <time>2016-06-18T10:32:49Z</time>
      </trkpt>
      <trkpt lat="47.92284" lon="7.03571">
        <ele>1166</ele>
        <time>2016-06-18T10:33:01Z</time>
      </trkpt>
      <trkpt lat="47.92279" lon="7.03549">
        <ele>1166</ele>
        <time>2016-06-18T10:33:11Z</time>
      </trkpt>
      <trkpt lat="47.92277" lon="7.03526">
        <ele>1166</ele>
        <time>2016-06-18T10:33:22Z</time>
      </trkpt>
      <trkpt lat="47.92272" lon="7.03514">
        <ele>1166</ele>
        <time>2016-06-18T10:33:35Z</time>
      </trkpt>
      <trkpt lat="47.92268" lon="7.03491">
        <ele>1167</ele>
        <time>2016-06-18T10:33:45Z</time>
      </trkpt>
      <trkpt lat="47.92262" lon="7.03462">
        <ele>1169</ele>
        <time>2016-06-18T10:33:58Z</time>
      </trkpt>
      <trkpt lat="47.92265" lon="7.03439">
        <ele>1170</ele>
        <time>2016-06-18T10:34:10Z</time>
      </trkpt>
      <trkpt lat="47.92265" lon="7.03415">
        <ele>1173</ele>
        <time>2016-06-18T10:34:22Z</time>
      </trkpt>
      <trkpt lat="47.92262" lon="7.03394">
        <ele>1174</ele>
        <time>2016-06-18T10:34:34Z</time>
      </trkpt>
      <trkpt lat="47.92267" lon="7.03371">
        <ele>1175</ele>
        <time>2016-06-18T10:34:46Z</time>
      </trkpt>
      <trkpt lat="47.92271" lon="7.03348">
        <ele>1176</ele>
        <time>2016-06-18T10:34:58Z</time>
      </trkpt>
      <trkpt lat="47.92281" lon="7.03332">
        <ele>1178</ele>
        <time>2016-06-18T10:35:09Z</time>
      </trkpt>
      <trkpt lat="47.92284" lon="7.03307">
        <ele>1179</ele>
        <time>2016-06-18T10:35:21Z</time>
      </trkpt>
      <trkpt lat="47.9229" lon="7.03285">
        <ele>1179</ele>
        <time>2016-06-18T10:35:32Z</time>
      </trkpt>
      <trkpt lat="47.92295" lon="7.03264">
        <ele>1180</ele>
        <time>2016-06-18T10:35:43Z</time>
      </trkpt>
      <trkpt lat="47.92301" lon="7.03244">
        <ele>1181</ele>
        <time>2016-06-18T10:35:53Z</time>
      </trkpt>
      <trkpt lat="47.92306" lon="7.03221">
        <ele>1182</ele>
        <time>2016-06-18T10:36:04Z</time>
      </trkpt>
      <trkpt lat="47.92312" lon="7.032">
        <ele>1182</ele>
        <time>2016-06-18T10:36:15Z</time>
      </trkpt>
      <trkpt lat="47.92317" lon="7.03176">
        <ele>1182</ele>
        <time>2016-06-18T10:36:27Z</time>
      </trkpt>
      <trkpt lat="47.92322" lon="7.03156">
        <ele>1183</ele>
        <time>2016-06-18T10:36:37Z</time>
      </trkpt>
      <trkpt lat="47.92332" lon="7.03137">
        <ele>1184</ele>
        <time>2016-06-18T10:36:48Z</time>
      </trkpt>
      <trkpt lat="47.92342" lon="7.0312">
        <ele>1183</ele>
        <time>2016-06-18T10:36:58Z</time>
      </trkpt>
      <trkpt lat="47.92352" lon="7.03104">
        <ele>1184</ele>
        <time>2016-06-18T10:37:08Z</time>
      </trkpt>
      <trkpt lat="47.92366" lon="7.03088">
        <ele>1183</ele>
        <time>2016-06-18T10:37:20Z</time>
      </trkpt>
      <trkpt lat="47.92377" lon="7.03072">
        <ele>1186</ele>
        <time>2016-06-18T10:37:32Z</time>
      </trkpt>
      <trkpt lat="47.92391" lon="7.0306">
        <ele>1187</ele>
        <time>2016-06-18T10:37:44Z</time>
      </trkpt>
      <trkpt lat="47.92404" lon="7.03047">
        <ele>1187</ele>
        <time>2016-06-18T10:37:55Z</time>
      </trkpt>
      <trkpt lat="47.92418" lon="7.03035">
        <ele>1186</ele>
        <time>2016-06-18T10:38:08Z</time>
      </trkpt>
      <trkpt lat="47.92431" lon="7.03027">
        <ele>1187</ele>
        <time>2016-06-18T10:40:19Z</time>
      </trkpt>
      <trkpt lat="47.92432" lon="7.03034">
        <ele>1186</ele>
        <time>2016-06-18T10:40:52Z</time>
      </trkpt>
      <trkpt lat="47.92428" lon="7.03037">
        <ele>1186</ele>
        <time>2016-06-18T10:41:41Z</time>
      </trkpt>
      <trkpt lat="47.92427" lon="7.0303">
        <ele>1187</ele>
        <time>2016-06-18T10:42:51Z</time>
      </trkpt>
      <trkpt lat="47.92429" lon="7.03016">
        <ele>1188</ele>
        <time>2016-06-18T10:43:05Z</time>
      </trkpt>
      <trkpt lat="47.92429" lon="7.03001">
        <ele>1188</ele>
        <time>2016-06-18T10:43:16Z</time>
      </trkpt>
      <trkpt lat="47.92429" lon="7.02985">
        <ele>1192</ele>
        <time>2016-06-18T10:43:28Z</time>
      </trkpt>
      <trkpt lat="47.92426" lon="7.02963">
        <ele>1194</ele>
        <time>2016-06-18T10:43:42Z</time>
      </trkpt>
      <trkpt lat="47.9243" lon="7.02948">
        <ele>1194</ele>
        <time>2016-06-18T10:43:53Z</time>
      </trkpt>
      <trkpt lat="47.92441" lon="7.02942">
        <ele>1195</ele>
        <time>2016-06-18T10:44:02Z</time>
      </trkpt>
      <trkpt lat="47.92455" lon="7.02934">
        <ele>1195</ele>
        <time>2016-06-18T10:44:16Z</time>
      </trkpt>
      <trkpt lat="47.9247" lon="7.02929">
        <ele>1196</ele>
        <time>2016-06-18T10:44:28Z</time>
      </trkpt>
      <trkpt lat="47.92485" lon="7.02927">
        <ele>1198</ele>
        <time>2016-06-18T10:44:41Z</time>
      </trkpt>
      <trkpt lat="47.92501" lon="7.02931">
        <ele>1199</ele>
        <time>2016-06-18T10:44:53Z</time>
      </trkpt>
      <trkpt lat="47.92514" lon="7.02921">
        <ele>1199</ele>
        <time>2016-06-18T10:45:04Z</time>
      </trkpt>
      <trkpt lat="47.92529" lon="7.02911">
        <ele>1206</ele>
        <time>2016-06-18T10:45:17Z</time>
      </trkpt>
      <trkpt lat="47.9254" lon="7.029">
        <ele>1206</ele>
        <time>2016-06-18T10:45:29Z</time>
      </trkpt>
      <trkpt lat="47.92555" lon="7.0289">
        <ele>1207</ele>
        <time>2016-06-18T10:45:42Z</time>
      </trkpt>
      <trkpt lat="47.92569" lon="7.02879">
        <ele>1208</ele>
        <time>2016-06-18T10:45:55Z</time>
      </trkpt>
      <trkpt lat="47.92584" lon="7.02868">
        <ele>1209</ele>
        <time>2016-06-18T10:46:08Z</time>
      </trkpt>
      <trkpt lat="47.92599" lon="7.02858">
        <ele>1209</ele>
        <time>2016-06-18T10:46:20Z</time>
      </trkpt>
      <trkpt lat="47.92612" lon="7.02845">
        <ele>1210</ele>
        <time>2016-06-18T10:46:32Z</time>
      </trkpt>
      <trkpt lat="47.92625" lon="7.02831">
        <ele>1216</ele>
        <time>2016-06-18T10:46:44Z</time>
      </trkpt>
      <trkpt lat="47.92639" lon="7.02818">
        <ele>1216</ele>
        <time>2016-06-18T10:46:57Z</time>
      </trkpt>
      <trkpt lat="47.9265" lon="7.02803">
        <ele>1216</ele>
        <time>2016-06-18T10:47:10Z</time>
      </trkpt>
      <trkpt lat="47.9266" lon="7.02784">
        <ele>1217</ele>
        <time>2016-06-18T10:47:22Z</time>
      </trkpt>
      <trkpt lat="47.92668" lon="7.02762">
        <ele>1215</ele>
        <time>2016-06-18T10:47:34Z</time>
      </trkpt>
      <trkpt lat="47.92675" lon="7.02741">
        <ele>1216</ele>
        <time>2016-06-18T10:47:45Z</time>
      </trkpt>
      <trkpt lat="47.92682" lon="7.02721">
        <ele>1214</ele>
        <time>2016-06-18T10:47:56Z</time>
      </trkpt>
      <trkpt lat="47.92686" lon="7.02697">
        <ele>1215</ele>
        <time>2016-06-18T10:48:08Z</time>
      </trkpt>
      <trkpt lat="47.92697" lon="7.02672">
        <ele>1215</ele>
        <time>2016-06-18T10:48:21Z</time>
      </trkpt>
      <trkpt lat="47.92708" lon="7.02653">
        <ele>1219</ele>
        <time>2016-06-18T10:48:32Z</time>
      </trkpt>
      <trkpt lat="47.92718" lon="7.02638">
        <ele>1218</ele>
        <time>2016-06-18T10:48:42Z</time>
      </trkpt>
      <trkpt lat="47.92728" lon="7.02619">
        <ele>1219</ele>
        <time>2016-06-18T10:48:54Z</time>
      </trkpt>
      <trkpt lat="47.92736" lon="7.026">
        <ele>1220</ele>
        <time>2016-06-18T10:49:05Z</time>
      </trkpt>
      <trkpt lat="47.92749" lon="7.02593">
        <ele>1219</ele>
        <time>2016-06-18T10:49:15Z</time>
      </trkpt>
      <trkpt lat="47.9276" lon="7.02578">
        <ele>1217</ele>
        <time>2016-06-18T10:49:25Z</time>
      </trkpt>
      <trkpt lat="47.92763" lon="7.02556">
        <ele>1216</ele>
        <time>2016-06-18T10:49:38Z</time>
      </trkpt>
      <trkpt lat="47.92772" lon="7.02536">
        <ele>1216</ele>
        <time>2016-06-18T10:49:52Z</time>
      </trkpt>
      <trkpt lat="47.92777" lon="7.02517">
        <ele>1217</ele>
        <time>2016-06-18T10:50:02Z</time>
      </trkpt>
      <trkpt lat="47.92785" lon="7.02497">
        <ele>1221</ele>
        <time>2016-06-18T10:50:12Z</time>
      </trkpt>
      <trkpt lat="47.92791" lon="7.02476">
        <ele>1220</ele>
        <time>2016-06-18T10:50:23Z</time>
      </trkpt>
      <trkpt lat="47.92793" lon="7.02454">
        <ele>1220</ele>
        <time>2016-06-18T10:50:34Z</time>
      </trkpt>
      <trkpt lat="47.928" lon="7.02432">
        <ele>1220</ele>
        <time>2016-06-18T10:50:46Z</time>
      </trkpt>
      <trkpt lat="47.92804" lon="7.0241">
        <ele>1221</ele>
        <time>2016-06-18T10:50:57Z</time>
      </trkpt>
      <trkpt lat="47.92803" lon="7.02386">
        <ele>1221</ele>
        <time>2016-06-18T10:51:07Z</time>
      </trkpt>
      <trkpt lat="47.92806" lon="7.02363">
        <ele>1221</ele>
        <time>2016-06-18T10:51:19Z</time>
      </trkpt>
      <trkpt lat="47.92807" lon="7.02339">
        <ele>1221</ele>
        <time>2016-06-18T10:51:31Z</time>
      </trkpt>
      <trkpt lat="47.92805" lon="7.02318">
        <ele>1222</ele>
        <time>2016-06-18T10:51:42Z</time>
      </trkpt>
      <trkpt lat="47.92806" lon="7.02294">
        <ele>1222</ele>
        <time>2016-06-18T10:51:53Z</time>
      </trkpt>
      <trkpt lat="47.92805" lon="7.02272">
        <ele>1222</ele>
        <time>2016-06-18T10:52:03Z</time>
      </trkpt>
      <trkpt lat="47.92805" lon="7.0225">
        <ele>1220</ele>
        <time>2016-06-18T10:52:13Z</time>
      </trkpt>
      <trkpt lat="47.92804" lon="7.02227">
        <ele>1220</ele>
        <time>2016-06-18T10:52:24Z</time>
      </trkpt>
      <trkpt lat="47.92794" lon="7.0221">
        <ele>1221</ele>
        <time>2016-06-18T10:52:36Z</time>
      </trkpt>
      <trkpt lat="47.92789" lon="7.02191">
        <ele>1221</ele>
        <time>2016-06-18T10:52:46Z</time>
      </trkpt>
      <trkpt lat="47.92793" lon="7.0217">
        <ele>1220</ele>
        <time>2016-06-18T10:52:59Z</time>
      </trkpt>
      <trkpt lat="47.92799" lon="7.02147">
        <ele>1217</ele>
        <time>2016-06-18T10:53:11Z</time>
      </trkpt>
      <trkpt lat="47.92799" lon="7.02123">
        <ele>1217</ele>
        <time>2016-06-18T10:53:22Z</time>
      </trkpt>
      <trkpt lat="47.92796" lon="7.02099">
        <ele>1217</ele>
        <time>2016-06-18T10:53:34Z</time>
      </trkpt>
      <trkpt lat="47.9279" lon="7.02076">
        <ele>1219</ele>
        <time>2016-06-18T10:53:45Z</time>
      </trkpt>
      <trkpt lat="47.92785" lon="7.02064">
        <ele>1220</ele>
        <time>2016-06-18T10:53:56Z</time>
      </trkpt>
      <trkpt lat="47.92774" lon="7.02046">
        <ele>1221</ele>
        <time>2016-06-18T10:54:09Z</time>
      </trkpt>
      <trkpt lat="47.9277" lon="7.0203">
        <ele>1222</ele>
        <time>2016-06-18T10:54:15Z</time>
      </trkpt>
      <trkpt lat="47.92762" lon="7.02004">
        <ele>1226</ele>
        <time>2016-06-18T10:54:27Z</time>
      </trkpt>
      <trkpt lat="47.92758" lon="7.01982">
        <ele>1229</ele>
        <time>2016-06-18T10:54:37Z</time>
      </trkpt>
      <trkpt lat="47.92762" lon="7.0196">
        <ele>1229</ele>
        <time>2016-06-18T10:54:47Z</time>
      </trkpt>
      <trkpt lat="47.92784" lon="7.0195">
        <ele>1228</ele>
        <time>2016-06-18T10:55:00Z</time>
      </trkpt>
      <trkpt lat="47.92798" lon="7.01947">
        <ele>1228</ele>
        <time>2016-06-18T10:55:10Z</time>
      </trkpt>
      <trkpt lat="47.92815" lon="7.01945">
        <ele>1227</ele>
        <time>2016-06-18T10:55:22Z</time>
      </trkpt>
      <trkpt lat="47.92831" lon="7.01941">
        <ele>1227</ele>
        <time>2016-06-18T10:55:34Z</time>
      </trkpt>
      <trkpt lat="47.92846" lon="7.01936">
        <ele>1224</ele>
        <time>2016-06-18T10:55:45Z</time>
      </trkpt>
      <trkpt lat="47.92861" lon="7.01937">
        <ele>1223</ele>
        <time>2016-06-18T10:55:56Z</time>
      </trkpt>
      <trkpt lat="47.92881" lon="7.01946">
        <ele>1222</ele>
        <time>2016-06-18T10:56:09Z</time>
      </trkpt>
      <trkpt lat="47.92896" lon="7.01953">
        <ele>1221</ele>
        <time>2016-06-18T10:56:20Z</time>
      </trkpt>
      <trkpt lat="47.92911" lon="7.01959">
        <ele>1221</ele>
        <time>2016-06-18T10:56:31Z</time>
      </trkpt>
      <trkpt lat="47.92927" lon="7.0196">
        <ele>1219</ele>
        <time>2016-06-18T10:56:43Z</time>
      </trkpt>
      <trkpt lat="47.92941" lon="7.01955">
        <ele>1219</ele>
        <time>2016-06-18T10:56:53Z</time>
      </trkpt>
      <trkpt lat="47.92956" lon="7.01947">
        <ele>1219</ele>
        <time>2016-06-18T10:57:05Z</time>
      </trkpt>
      <trkpt lat="47.92973" lon="7.01946">
        <ele>1219</ele>
        <time>2016-06-18T10:57:16Z</time>
      </trkpt>
      <trkpt lat="47.92992" lon="7.01945">
        <ele>1219</ele>
        <time>2016-06-18T10:57:28Z</time>
      </trkpt>
      <trkpt lat="47.93008" lon="7.01944">
        <ele>1216</ele>
        <time>2016-06-18T10:57:39Z</time>
      </trkpt>
      <trkpt lat="47.93024" lon="7.01943">
        <ele>1216</ele>
        <time>2016-06-18T10:57:50Z</time>
      </trkpt>
      <trkpt lat="47.93041" lon="7.0194">
        <ele>1215</ele>
        <time>2016-06-18T10:58:01Z</time>
      </trkpt>
      <trkpt lat="47.93055" lon="7.01938">
        <ele>1215</ele>
        <time>2016-06-18T10:58:11Z</time>
      </trkpt>
      <trkpt lat="47.93071" lon="7.0194">
        <ele>1215</ele>
        <time>2016-06-18T10:58:21Z</time>
      </trkpt>
      <trkpt lat="47.93087" lon="7.01942">
        <ele>1212</ele>
        <time>2016-06-18T10:58:32Z</time>
      </trkpt>
      <trkpt lat="47.93104" lon="7.01945">
        <ele>1211</ele>
        <time>2016-06-18T10:58:44Z</time>
      </trkpt>
      <trkpt lat="47.9312" lon="7.01944">
        <ele>1211</ele>
        <time>2016-06-18T10:58:56Z</time>
      </trkpt>
      <trkpt lat="47.93139" lon="7.01947">
        <ele>1210</ele>
        <time>2016-06-18T10:59:08Z</time>
      </trkpt>
      <trkpt lat="47.93155" lon="7.01953">
        <ele>1209</ele>
        <time>2016-06-18T10:59:19Z</time>
      </trkpt>
      <trkpt lat="47.93171" lon="7.01957">
        <ele>1208</ele>
        <time>2016-06-18T10:59:31Z</time>
      </trkpt>
      <trkpt lat="47.93185" lon="7.01962">
        <ele>1208</ele>
        <time>2016-06-18T10:59:42Z</time>
      </trkpt>
      <trkpt lat="47.932" lon="7.01967">
        <ele>1208</ele>
        <time>2016-06-18T10:59:53Z</time>
      </trkpt>
      <trkpt lat="47.93214" lon="7.01967">
        <ele>1208</ele>
        <time>2016-06-18T11:00:04Z</time>
      </trkpt>
      <trkpt lat="47.93228" lon="7.01967">
        <ele>1208</ele>
        <time>2016-06-18T11:00:14Z</time>
      </trkpt>
      <trkpt lat="47.93244" lon="7.01967">
        <ele>1207</ele>
        <time>2016-06-18T11:00:25Z</time>
      </trkpt>
      <trkpt lat="47.9326" lon="7.01969">
        <ele>1208</ele>
        <time>2016-06-18T11:00:36Z</time>
      </trkpt>
      <trkpt lat="47.93277" lon="7.0197">
        <ele>1208</ele>
        <time>2016-06-18T11:00:47Z</time>
      </trkpt>
      <trkpt lat="47.93292" lon="7.01967">
        <ele>1208</ele>
        <time>2016-06-18T11:00:59Z</time>
      </trkpt>
      <trkpt lat="47.93309" lon="7.01967">
        <ele>1209</ele>
        <time>2016-06-18T11:01:11Z</time>
      </trkpt>
      <trkpt lat="47.93325" lon="7.01968">
        <ele>1209</ele>
        <time>2016-06-18T11:01:23Z</time>
      </trkpt>
      <trkpt lat="47.93341" lon="7.01972">
        <ele>1211</ele>
        <time>2016-06-18T11:01:35Z</time>
      </trkpt>
      <trkpt lat="47.93357" lon="7.01979">
        <ele>1211</ele>
        <time>2016-06-18T11:01:48Z</time>
      </trkpt>
      <trkpt lat="47.93372" lon="7.01984">
        <ele>1211</ele>
        <time>2016-06-18T11:02:00Z</time>
      </trkpt>
      <trkpt lat="47.93388" lon="7.01993">
        <ele>1212</ele>
        <time>2016-06-18T11:02:12Z</time>
      </trkpt>
      <trkpt lat="47.93403" lon="7.01999">
        <ele>1212</ele>
        <time>2016-06-18T11:02:23Z</time>
      </trkpt>
      <trkpt lat="47.93417" lon="7.02002">
        <ele>1214</ele>
        <time>2016-06-18T11:02:33Z</time>
      </trkpt>
      <trkpt lat="47.93432" lon="7.02005">
        <ele>1213</ele>
        <time>2016-06-18T11:02:44Z</time>
      </trkpt>
      <trkpt lat="47.93445" lon="7.02018">
        <ele>1212</ele>
        <time>2016-06-18T11:02:54Z</time>
      </trkpt>
      <trkpt lat="47.93459" lon="7.02037">
        <ele>1212</ele>
        <time>2016-06-18T11:03:06Z</time>
      </trkpt>
      <trkpt lat="47.9347" lon="7.02051">
        <ele>1212</ele>
        <time>2016-06-18T11:03:16Z</time>
      </trkpt>
      <trkpt lat="47.93486" lon="7.02058">
        <ele>1212</ele>
        <time>2016-06-18T11:03:27Z</time>
      </trkpt>
      <trkpt lat="47.93501" lon="7.02055">
        <ele>1209</ele>
        <time>2016-06-18T11:03:40Z</time>
      </trkpt>
      <trkpt lat="47.93517" lon="7.02053">
        <ele>1209</ele>
        <time>2016-06-18T11:03:51Z</time>
      </trkpt>
      <trkpt lat="47.93531" lon="7.02062">
        <ele>1208</ele>
        <time>2016-06-18T11:04:01Z</time>
      </trkpt>
      <trkpt lat="47.93544" lon="7.02075">
        <ele>1208</ele>
        <time>2016-06-18T11:04:11Z</time>
      </trkpt>
      <trkpt lat="47.93556" lon="7.02088">
        <ele>1209</ele>
        <time>2016-06-18T11:04:21Z</time>
      </trkpt>
      <trkpt lat="47.93568" lon="7.02102">
        <ele>1209</ele>
        <time>2016-06-18T11:04:31Z</time>
      </trkpt>
      <trkpt lat="47.93582" lon="7.02115">
        <ele>1209</ele>
        <time>2016-06-18T11:04:42Z</time>
      </trkpt>
      <trkpt lat="47.93595" lon="7.02131">
        <ele>1209</ele>
        <time>2016-06-18T11:04:54Z</time>
      </trkpt>
      <trkpt lat="47.93608" lon="7.02145">
        <ele>1209</ele>
        <time>2016-06-18T11:05:05Z</time>
      </trkpt>
      <trkpt lat="47.9362" lon="7.0216">
        <ele>1210</ele>
        <time>2016-06-18T11:05:17Z</time>
      </trkpt>
      <trkpt lat="47.93633" lon="7.02177">
        <ele>1210</ele>
        <time>2016-06-18T11:05:28Z</time>
      </trkpt>
      <trkpt lat="47.93647" lon="7.02186">
        <ele>1210</ele>
        <time>2016-06-18T11:05:39Z</time>
      </trkpt>
      <trkpt lat="47.9366" lon="7.02195">
        <ele>1210</ele>
        <time>2016-06-18T11:05:49Z</time>
      </trkpt>
      <trkpt lat="47.93675" lon="7.02202">
        <ele>1209</ele>
        <time>2016-06-18T11:06:00Z</time>
      </trkpt>
      <trkpt lat="47.93693" lon="7.0221">
        <ele>1208</ele>
        <time>2016-06-18T11:06:13Z</time>
      </trkpt>
      <trkpt lat="47.9371" lon="7.02217">
        <ele>1208</ele>
        <time>2016-06-18T11:06:24Z</time>
      </trkpt>
      <trkpt lat="47.93725" lon="7.02224">
        <ele>1208</ele>
        <time>2016-06-18T11:06:35Z</time>
      </trkpt>
      <trkpt lat="47.9374" lon="7.02232">
        <ele>1207</ele>
        <time>2016-06-18T11:06:46Z</time>
      </trkpt>
      <trkpt lat="47.93755" lon="7.02239">
        <ele>1206</ele>
        <time>2016-06-18T11:06:57Z</time>
      </trkpt>
      <trkpt lat="47.9377" lon="7.02246">
        <ele>1206</ele>
        <time>2016-06-18T11:07:08Z</time>
      </trkpt>
      <trkpt lat="47.93785" lon="7.02252">
        <ele>1208</ele>
        <time>2016-06-18T11:07:18Z</time>
      </trkpt>
      <trkpt lat="47.93799" lon="7.02258">
        <ele>1208</ele>
        <time>2016-06-18T11:07:28Z</time>
      </trkpt>
      <trkpt lat="47.93817" lon="7.02265">
        <ele>1208</ele>
        <time>2016-06-18T11:07:40Z</time>
      </trkpt>
      <trkpt lat="47.93831" lon="7.02272">
        <ele>1209</ele>
        <time>2016-06-18T11:07:51Z</time>
      </trkpt>
      <trkpt lat="47.93847" lon="7.02278">
        <ele>1211</ele>
        <time>2016-06-18T11:08:02Z</time>
      </trkpt>
      <trkpt lat="47.93862" lon="7.02285">
        <ele>1211</ele>
        <time>2016-06-18T11:08:14Z</time>
      </trkpt>
      <trkpt lat="47.93878" lon="7.02292">
        <ele>1212</ele>
        <time>2016-06-18T11:08:26Z</time>
      </trkpt>
      <trkpt lat="47.93892" lon="7.02299">
        <ele>1212</ele>
        <time>2016-06-18T11:08:38Z</time>
      </trkpt>
      <trkpt lat="47.93909" lon="7.02304">
        <ele>1212</ele>
        <time>2016-06-18T11:08:50Z</time>
      </trkpt>
      <trkpt lat="47.93925" lon="7.02307">
        <ele>1215</ele>
        <time>2016-06-18T11:09:01Z</time>
      </trkpt>
      <trkpt lat="47.93941" lon="7.02311">
        <ele>1216</ele>
        <time>2016-06-18T11:09:13Z</time>
      </trkpt>
      <trkpt lat="47.93957" lon="7.02316">
        <ele>1217</ele>
        <time>2016-06-18T11:09:26Z</time>
      </trkpt>
      <trkpt lat="47.93974" lon="7.02322">
        <ele>1217</ele>
        <time>2016-06-18T11:09:38Z</time>
      </trkpt>
      <trkpt lat="47.9399" lon="7.02323">
        <ele>1218</ele>
        <time>2016-06-18T11:09:50Z</time>
      </trkpt>
      <trkpt lat="47.94006" lon="7.02323">
        <ele>1218</ele>
        <time>2016-06-18T11:10:01Z</time>
      </trkpt>
      <trkpt lat="47.94021" lon="7.02325">
        <ele>1217</ele>
        <time>2016-06-18T11:10:13Z</time>
      </trkpt>
      <trkpt lat="47.94036" lon="7.02325">
        <ele>1217</ele>
        <time>2016-06-18T11:10:24Z</time>
      </trkpt>
      <trkpt lat="47.94051" lon="7.02328">
        <ele>1216</ele>
        <time>2016-06-18T11:10:35Z</time>
      </trkpt>
      <trkpt lat="47.94066" lon="7.02331">
        <ele>1216</ele>
        <time>2016-06-18T11:10:45Z</time>
      </trkpt>
      <trkpt lat="47.94087" lon="7.02334">
        <ele>1216</ele>
        <time>2016-06-18T11:10:58Z</time>
      </trkpt>
      <trkpt lat="47.94102" lon="7.02337">
        <ele>1215</ele>
        <time>2016-06-18T11:11:09Z</time>
      </trkpt>
      <trkpt lat="47.94117" lon="7.0234">
        <ele>1215</ele>
        <time>2016-06-18T11:11:19Z</time>
      </trkpt>
      <trkpt lat="47.94133" lon="7.02344">
        <ele>1215</ele>
        <time>2016-06-18T11:11:31Z</time>
      </trkpt>
      <trkpt lat="47.94151" lon="7.02345">
        <ele>1215</ele>
        <time>2016-06-18T11:11:44Z</time>
      </trkpt>
      <trkpt lat="47.94166" lon="7.02344">
        <ele>1215</ele>
        <time>2016-06-18T11:11:56Z</time>
      </trkpt>
      <trkpt lat="47.94183" lon="7.02344">
        <ele>1218</ele>
        <time>2016-06-18T11:12:08Z</time>
      </trkpt>
      <trkpt lat="47.94201" lon="7.02347">
        <ele>1220</ele>
        <time>2016-06-18T11:12:20Z</time>
      </trkpt>
      <trkpt lat="47.94217" lon="7.02345">
        <ele>1222</ele>
        <time>2016-06-18T11:12:32Z</time>
      </trkpt>
      <trkpt lat="47.94233" lon="7.02348">
        <ele>1223</ele>
        <time>2016-06-18T11:12:43Z</time>
      </trkpt>
      <trkpt lat="47.94247" lon="7.02347">
        <ele>1224</ele>
        <time>2016-06-18T11:12:55Z</time>
      </trkpt>
      <trkpt lat="47.94263" lon="7.02344">
        <ele>1230</ele>
        <time>2016-06-18T11:13:08Z</time>
      </trkpt>
      <trkpt lat="47.94278" lon="7.02334">
        <ele>1232</ele>
        <time>2016-06-18T11:13:22Z</time>
      </trkpt>
      <trkpt lat="47.94283" lon="7.02332">
        <ele>1234</ele>
        <time>2016-06-18T11:13:28Z</time>
      </trkpt>
      <trkpt lat="47.94294" lon="7.02333">
        <ele>1235</ele>
        <time>2016-06-18T11:13:38Z</time>
      </trkpt>
      <trkpt lat="47.94304" lon="7.02335">
        <ele>1236</ele>
        <time>2016-06-18T11:13:50Z</time>
      </trkpt>
      <trkpt lat="47.94315" lon="7.02334">
        <ele>1238</ele>
        <time>2016-06-18T11:14:00Z</time>
      </trkpt>
      <trkpt lat="47.94325" lon="7.02333">
        <ele>1241</ele>
        <time>2016-06-18T11:14:10Z</time>
      </trkpt>
      <trkpt lat="47.9433" lon="7.02331">
        <ele>1242</ele>
        <time>2016-06-18T11:14:20Z</time>
      </trkpt>
      <trkpt lat="47.94352" lon="7.02335">
        <ele>1245</ele>
        <time>2016-06-18T11:14:33Z</time>
      </trkpt>
      <trkpt lat="47.94367" lon="7.02333">
        <ele>1247</ele>
        <time>2016-06-18T11:14:43Z</time>
      </trkpt>
      <trkpt lat="47.94371" lon="7.02335">
        <ele>1246</ele>
        <time>2016-06-18T11:14:52Z</time>
      </trkpt>
      <trkpt lat="47.94387" lon="7.02334">
        <ele>1247</ele>
        <time>2016-06-18T11:15:05Z</time>
      </trkpt>
      <trkpt lat="47.94392" lon="7.02336">
        <ele>1248</ele>
        <time>2016-06-18T11:15:09Z</time>
      </trkpt>
      <trkpt lat="47.94412" lon="7.02343">
        <ele>1250</ele>
        <time>2016-06-18T11:15:22Z</time>
      </trkpt>
      <trkpt lat="47.94427" lon="7.02341">
        <ele>1253</ele>
        <time>2016-06-18T11:15:32Z</time>
      </trkpt>
      <trkpt lat="47.94442" lon="7.02333">
        <ele>1255</ele>
        <time>2016-06-18T11:15:45Z</time>
      </trkpt>
      <trkpt lat="47.94451" lon="7.02325">
        <ele>1255</ele>
        <time>2016-06-18T11:15:55Z</time>
      </trkpt>
      <trkpt lat="47.94465" lon="7.02321">
        <ele>1256</ele>
        <time>2016-06-18T11:16:05Z</time>
      </trkpt>
      <trkpt lat="47.94479" lon="7.02327">
        <ele>1257</ele>
        <time>2016-06-18T11:16:16Z</time>
      </trkpt>
      <trkpt lat="47.94489" lon="7.02332">
        <ele>1258</ele>
        <time>2016-06-18T11:16:23Z</time>
      </trkpt>
      <trkpt lat="47.94499" lon="7.02329">
        <ele>1258</ele>
        <time>2016-06-18T11:16:34Z</time>
      </trkpt>
      <trkpt lat="47.94504" lon="7.02328">
        <ele>1259</ele>
        <time>2016-06-18T11:16:37Z</time>
      </trkpt>
      <trkpt lat="47.94516" lon="7.02314">
        <ele>1259</ele>
        <time>2016-06-18T11:16:49Z</time>
      </trkpt>
      <trkpt lat="47.94521" lon="7.02313">
        <ele>1259</ele>
        <time>2016-06-18T11:16:52Z</time>
      </trkpt>
      <trkpt lat="47.94538" lon="7.02311">
        <ele>1259</ele>
        <time>2016-06-18T11:17:02Z</time>
      </trkpt>
      <trkpt lat="47.94554" lon="7.02316">
        <ele>1260</ele>
        <time>2016-06-18T11:17:15Z</time>
      </trkpt>
      <trkpt lat="47.94569" lon="7.02317">
        <ele>1260</ele>
        <time>2016-06-18T11:17:25Z</time>
      </trkpt>
      <trkpt lat="47.94584" lon="7.02317">
        <ele>1261</ele>
        <time>2016-06-18T11:17:36Z</time>
      </trkpt>
      <trkpt lat="47.94598" lon="7.02314">
        <ele>1261</ele>
        <time>2016-06-18T11:17:49Z</time>
      </trkpt>
      <trkpt lat="47.94612" lon="7.02303">
        <ele>1260</ele>
        <time>2016-06-18T11:18:00Z</time>
      </trkpt>
      <trkpt lat="47.94626" lon="7.02294">
        <ele>1260</ele>
        <time>2016-06-18T11:18:12Z</time>
      </trkpt>
      <trkpt lat="47.94636" lon="7.02275">
        <ele>1259</ele>
        <time>2016-06-18T11:18:25Z</time>
      </trkpt>
      <trkpt lat="47.9464" lon="7.02269">
        <ele>1259</ele>
        <time>2016-06-18T11:18:28Z</time>
      </trkpt>
      <trkpt lat="47.94647" lon="7.02257">
        <ele>1258</ele>
        <time>2016-06-18T11:18:39Z</time>
      </trkpt>
      <trkpt lat="47.94654" lon="7.02245">
        <ele>1252</ele>
        <time>2016-06-18T11:18:49Z</time>
      </trkpt>
      <trkpt lat="47.94658" lon="7.02242">
        <ele>1252</ele>
        <time>2016-06-18T11:18:55Z</time>
      </trkpt>
      <trkpt lat="47.94671" lon="7.02228">
        <ele>1250</ele>
        <time>2016-06-18T11:19:05Z</time>
      </trkpt>
      <trkpt lat="47.94683" lon="7.02216">
        <ele>1248</ele>
        <time>2016-06-18T11:19:18Z</time>
      </trkpt>
      <trkpt lat="47.94692" lon="7.02208">
        <ele>1247</ele>
        <time>2016-06-18T11:19:24Z</time>
      </trkpt>
      <trkpt lat="47.94705" lon="7.02199">
        <ele>1247</ele>
        <time>2016-06-18T11:19:35Z</time>
      </trkpt>
      <trkpt lat="47.94709" lon="7.02195">
        <ele>1246</ele>
        <time>2016-06-18T11:19:37Z</time>
      </trkpt>
      <trkpt lat="47.94727" lon="7.02172">
        <ele>1245</ele>
        <time>2016-06-18T11:19:49Z</time>
      </trkpt>
      <trkpt lat="47.94732" lon="7.02168">
        <ele>1244</ele>
        <time>2016-06-18T11:19:51Z</time>
      </trkpt>
      <trkpt lat="47.94743" lon="7.02155">
        <ele>1235</ele>
        <time>2016-06-18T11:20:01Z</time>
      </trkpt>
      <trkpt lat="47.94749" lon="7.02152">
        <ele>1235</ele>
        <time>2016-06-18T11:20:05Z</time>
      </trkpt>
      <trkpt lat="47.94758" lon="7.02145">
        <ele>1234</ele>
        <time>2016-06-18T11:20:15Z</time>
      </trkpt>
      <trkpt lat="47.94771" lon="7.02132">
        <ele>1230</ele>
        <time>2016-06-18T11:20:25Z</time>
      </trkpt>
      <trkpt lat="47.9478" lon="7.02125">
        <ele>1229</ele>
        <time>2016-06-18T11:20:30Z</time>
      </trkpt>
      <trkpt lat="47.94789" lon="7.02116">
        <ele>1228</ele>
        <time>2016-06-18T11:20:36Z</time>
      </trkpt>
      <trkpt lat="47.94801" lon="7.02101">
        <ele>1226</ele>
        <time>2016-06-18T11:20:47Z</time>
      </trkpt>
      <trkpt lat="47.94815" lon="7.02089">
        <ele>1224</ele>
        <time>2016-06-18T11:20:57Z</time>
      </trkpt>
      <trkpt lat="47.94829" lon="7.02082">
        <ele>1218</ele>
        <time>2016-06-18T11:21:08Z</time>
      </trkpt>
      <trkpt lat="47.94844" lon="7.02075">
        <ele>1215</ele>
        <time>2016-06-18T11:21:19Z</time>
      </trkpt>
      <trkpt lat="47.94859" lon="7.02068">
        <ele>1212</ele>
        <time>2016-06-18T11:21:29Z</time>
      </trkpt>
      <trkpt lat="47.94874" lon="7.02062">
        <ele>1210</ele>
        <time>2016-06-18T11:21:40Z</time>
      </trkpt>
      <trkpt lat="47.94888" lon="7.02054">
        <ele>1210</ele>
        <time>2016-06-18T11:21:50Z</time>
      </trkpt>
      <trkpt lat="47.94903" lon="7.02049">
        <ele>1209</ele>
        <time>2016-06-18T11:22:01Z</time>
      </trkpt>
      <trkpt lat="47.94918" lon="7.02042">
        <ele>1207</ele>
        <time>2016-06-18T11:22:14Z</time>
      </trkpt>
      <trkpt lat="47.94932" lon="7.02034">
        <ele>1207</ele>
        <time>2016-06-18T11:22:26Z</time>
      </trkpt>
      <trkpt lat="47.94947" lon="7.02028">
        <ele>1206</ele>
        <time>2016-06-18T11:22:36Z</time>
      </trkpt>
      <trkpt lat="47.94963" lon="7.02022">
        <ele>1205</ele>
        <time>2016-06-18T11:22:47Z</time>
      </trkpt>
      <trkpt lat="47.94978" lon="7.02014">
        <ele>1204</ele>
        <time>2016-06-18T11:22:58Z</time>
      </trkpt>
      <trkpt lat="47.94993" lon="7.02007">
        <ele>1202</ele>
        <time>2016-06-18T11:23:08Z</time>
      </trkpt>
      <trkpt lat="47.95009" lon="7.02">
        <ele>1200</ele>
        <time>2016-06-18T11:23:19Z</time>
      </trkpt>
      <trkpt lat="47.95023" lon="7.01994">
        <ele>1194</ele>
        <time>2016-06-18T11:23:29Z</time>
      </trkpt>
      <trkpt lat="47.95038" lon="7.01987">
        <ele>1192</ele>
        <time>2016-06-18T11:23:40Z</time>
      </trkpt>
      <trkpt lat="47.95055" lon="7.01981">
        <ele>1191</ele>
        <time>2016-06-18T11:23:52Z</time>
      </trkpt>
      <trkpt lat="47.95069" lon="7.01977">
        <ele>1190</ele>
        <time>2016-06-18T11:24:02Z</time>
      </trkpt>
      <trkpt lat="47.95079" lon="7.01973">
        <ele>1190</ele>
        <time>2016-06-18T11:24:12Z</time>
      </trkpt>
      <trkpt lat="47.95095" lon="7.01972">
        <ele>1187</ele>
        <time>2016-06-18T11:24:22Z</time>
      </trkpt>
      <trkpt lat="47.95111" lon="7.0197">
        <ele>1186</ele>
        <time>2016-06-18T11:24:33Z</time>
      </trkpt>
      <trkpt lat="47.95126" lon="7.01968">
        <ele>1186</ele>
        <time>2016-06-18T11:24:45Z</time>
      </trkpt>
      <trkpt lat="47.95142" lon="7.01965">
        <ele>1186</ele>
        <time>2016-06-18T11:24:56Z</time>
      </trkpt>
      <trkpt lat="47.95157" lon="7.01956">
        <ele>1185</ele>
        <time>2016-06-18T11:25:08Z</time>
      </trkpt>
      <trkpt lat="47.95172" lon="7.01947">
        <ele>1181</ele>
        <time>2016-06-18T11:25:19Z</time>
      </trkpt>
      <trkpt lat="47.95187" lon="7.01936">
        <ele>1180</ele>
        <time>2016-06-18T11:25:31Z</time>
      </trkpt>
      <trkpt lat="47.952" lon="7.01926">
        <ele>1179</ele>
        <time>2016-06-18T11:25:41Z</time>
      </trkpt>
      <trkpt lat="47.95215" lon="7.01914">
        <ele>1177</ele>
        <time>2016-06-18T11:25:53Z</time>
      </trkpt>
      <trkpt lat="47.9523" lon="7.01903">
        <ele>1176</ele>
        <time>2016-06-18T11:26:04Z</time>
      </trkpt>
      <trkpt lat="47.95243" lon="7.01901">
        <ele>1176</ele>
        <time>2016-06-18T11:26:20Z</time>
      </trkpt>
      <trkpt lat="47.95244" lon="7.01914">
        <ele>1175</ele>
        <time>2016-06-18T11:26:40Z</time>
      </trkpt>
      <trkpt lat="47.95248" lon="7.0191">
        <ele>1175</ele>
        <time>2016-06-18T11:42:10Z</time>
      </trkpt>
      <trkpt lat="47.9525" lon="7.01904">
        <ele>1169</ele>
        <time>2016-06-18T11:46:17Z</time>
      </trkpt>
      <trkpt lat="47.9525" lon="7.01886">
        <ele>1166</ele>
        <time>2016-06-18T11:46:29Z</time>
      </trkpt>
      <trkpt lat="47.95262" lon="7.01871">
        <ele>1165</ele>
        <time>2016-06-18T11:46:40Z</time>
      </trkpt>
      <trkpt lat="47.95271" lon="7.0185">
        <ele>1166</ele>
        <time>2016-06-18T11:46:52Z</time>
      </trkpt>
      <trkpt lat="47.95281" lon="7.01828">
        <ele>1168</ele>
        <time>2016-06-18T11:47:04Z</time>
      </trkpt>
      <trkpt lat="47.95289" lon="7.01808">
        <ele>1167</ele>
        <time>2016-06-18T11:47:15Z</time>
      </trkpt>
      <trkpt lat="47.95297" lon="7.01789">
        <ele>1167</ele>
        <time>2016-06-18T11:47:26Z</time>
      </trkpt>
      <trkpt lat="47.95305" lon="7.0177">
        <ele>1167</ele>
        <time>2016-06-18T11:47:36Z</time>
      </trkpt>
      <trkpt lat="47.95315" lon="7.01749">
        <ele>1172</ele>
        <time>2016-06-18T11:47:48Z</time>
      </trkpt>
      <trkpt lat="47.95323" lon="7.01731">
        <ele>1172</ele>
        <time>2016-06-18T11:47:58Z</time>
      </trkpt>
      <trkpt lat="47.95331" lon="7.01711">
        <ele>1175</ele>
        <time>2016-06-18T11:48:09Z</time>
      </trkpt>
      <trkpt lat="47.9534" lon="7.01689">
        <ele>1167</ele>
        <time>2016-06-18T11:48:22Z</time>
      </trkpt>
      <trkpt lat="47.95347" lon="7.01666">
        <ele>1175</ele>
        <time>2016-06-18T11:48:34Z</time>
      </trkpt>
      <trkpt lat="47.9535" lon="7.01645">
        <ele>1173</ele>
        <time>2016-06-18T11:48:44Z</time>
      </trkpt>
      <trkpt lat="47.95351" lon="7.01622">
        <ele>1172</ele>
        <time>2016-06-18T11:48:55Z</time>
      </trkpt>
      <trkpt lat="47.95353" lon="7.01607">
        <ele>1172</ele>
        <time>2016-06-18T11:49:01Z</time>
      </trkpt>
      <trkpt lat="47.95362" lon="7.01587">
        <ele>1172</ele>
        <time>2016-06-18T11:49:11Z</time>
      </trkpt>
      <trkpt lat="47.95368" lon="7.01565">
        <ele>1174</ele>
        <time>2016-06-18T11:49:21Z</time>
      </trkpt>
      <trkpt lat="47.95372" lon="7.01544">
        <ele>1174</ele>
        <time>2016-06-18T11:49:32Z</time>
      </trkpt>
      <trkpt lat="47.95377" lon="7.01522">
        <ele>1175</ele>
        <time>2016-06-18T11:49:45Z</time>
      </trkpt>
      <trkpt lat="47.95381" lon="7.01501">
        <ele>1175</ele>
        <time>2016-06-18T11:49:55Z</time>
      </trkpt>
      <trkpt lat="47.95381" lon="7.01477">
        <ele>1176</ele>
        <time>2016-06-18T11:50:07Z</time>
      </trkpt>
      <trkpt lat="47.95387" lon="7.01454">
        <ele>1176</ele>
        <time>2016-06-18T11:50:18Z</time>
      </trkpt>
      <trkpt lat="47.95391" lon="7.01432">
        <ele>1177</ele>
        <time>2016-06-18T11:50:31Z</time>
      </trkpt>
      <trkpt lat="47.95396" lon="7.01411">
        <ele>1176</ele>
        <time>2016-06-18T11:50:42Z</time>
      </trkpt>
      <trkpt lat="47.954" lon="7.01387">
        <ele>1175</ele>
        <time>2016-06-18T11:50:54Z</time>
      </trkpt>
      <trkpt lat="47.95406" lon="7.01367">
        <ele>1174</ele>
        <time>2016-06-18T11:51:04Z</time>
      </trkpt>
      <trkpt lat="47.95407" lon="7.01361">
        <ele>1174</ele>
        <time>2016-06-18T11:51:08Z</time>
      </trkpt>
      <trkpt lat="47.95412" lon="7.01341">
        <ele>1177</ele>
        <time>2016-06-18T11:51:18Z</time>
      </trkpt>
      <trkpt lat="47.9542" lon="7.0132">
        <ele>1183</ele>
        <time>2016-06-18T11:51:29Z</time>
      </trkpt>
      <trkpt lat="47.95428" lon="7.013">
        <ele>1186</ele>
        <time>2016-06-18T11:51:40Z</time>
      </trkpt>
      <trkpt lat="47.95425" lon="7.01286">
        <ele>1185</ele>
        <time>2016-06-18T11:51:46Z</time>
      </trkpt>
      <trkpt lat="47.95428" lon="7.01281">
        <ele>1185</ele>
        <time>2016-06-18T11:51:50Z</time>
      </trkpt>
      <trkpt lat="47.95433" lon="7.01261">
        <ele>1184</ele>
        <time>2016-06-18T11:52:01Z</time>
      </trkpt>
      <trkpt lat="47.95443" lon="7.01247">
        <ele>1186</ele>
        <time>2016-06-18T11:52:14Z</time>
      </trkpt>
      <trkpt lat="47.95447" lon="7.01225">
        <ele>1187</ele>
        <time>2016-06-18T11:52:24Z</time>
      </trkpt>
      <trkpt lat="47.95455" lon="7.01204">
        <ele>1189</ele>
        <time>2016-06-18T11:52:35Z</time>
      </trkpt>
      <trkpt lat="47.95457" lon="7.01196">
        <ele>1189</ele>
        <time>2016-06-18T11:52:39Z</time>
      </trkpt>
      <trkpt lat="47.95456" lon="7.01188">
        <ele>1188</ele>
        <time>2016-06-18T11:52:42Z</time>
      </trkpt>
      <trkpt lat="47.95459" lon="7.01166">
        <ele>1187</ele>
        <time>2016-06-18T11:52:54Z</time>
      </trkpt>
      <trkpt lat="47.95466" lon="7.01136">
        <ele>1187</ele>
        <time>2016-06-18T11:53:09Z</time>
      </trkpt>
      <trkpt lat="47.95468" lon="7.0113">
        <ele>1188</ele>
        <time>2016-06-18T11:53:11Z</time>
      </trkpt>
      <trkpt lat="47.9547" lon="7.01124">
        <ele>1188</ele>
        <time>2016-06-18T11:53:14Z</time>
      </trkpt>
      <trkpt lat="47.95477" lon="7.01106">
        <ele>1189</ele>
        <time>2016-06-18T11:53:24Z</time>
      </trkpt>
      <trkpt lat="47.95478" lon="7.01083">
        <ele>1189</ele>
        <time>2016-06-18T11:53:34Z</time>
      </trkpt>
      <trkpt lat="47.9548" lon="7.01077">
        <ele>1190</ele>
        <time>2016-06-18T11:53:36Z</time>
      </trkpt>
      <trkpt lat="47.95483" lon="7.01056">
        <ele>1188</ele>
        <time>2016-06-18T11:53:46Z</time>
      </trkpt>
      <trkpt lat="47.95487" lon="7.01042">
        <ele>1188</ele>
        <time>2016-06-18T11:53:53Z</time>
      </trkpt>
      <trkpt lat="47.95491" lon="7.01021">
        <ele>1190</ele>
        <time>2016-06-18T11:54:03Z</time>
      </trkpt>
      <trkpt lat="47.95491" lon="7.01014">
        <ele>1192</ele>
        <time>2016-06-18T11:54:06Z</time>
      </trkpt>
      <trkpt lat="47.95493" lon="7.01">
        <ele>1196</ele>
        <time>2016-06-18T11:54:17Z</time>
      </trkpt>
      <trkpt lat="47.95497" lon="7.0098">
        <ele>1190</ele>
        <time>2016-06-18T11:54:27Z</time>
      </trkpt>
      <trkpt lat="47.95501" lon="7.00948">
        <ele>1209</ele>
        <time>2016-06-18T11:54:38Z</time>
      </trkpt>
      <trkpt lat="47.95503" lon="7.00941">
        <ele>1208</ele>
        <time>2016-06-18T11:54:41Z</time>
      </trkpt>
      <trkpt lat="47.95506" lon="7.0092">
        <ele>1204</ele>
        <time>2016-06-18T11:54:52Z</time>
      </trkpt>
      <trkpt lat="47.95506" lon="7.00898">
        <ele>1207</ele>
        <time>2016-06-18T11:55:09Z</time>
      </trkpt>
      <trkpt lat="47.95507" lon="7.00872">
        <ele>1208</ele>
        <time>2016-06-18T11:55:20Z</time>
      </trkpt>
      <trkpt lat="47.95512" lon="7.00844">
        <ele>1204</ele>
        <time>2016-06-18T11:55:31Z</time>
      </trkpt>
      <trkpt lat="47.95518" lon="7.00819">
        <ele>1204</ele>
        <time>2016-06-18T11:55:41Z</time>
      </trkpt>
      <trkpt lat="47.9552" lon="7.00803">
        <ele>1205</ele>
        <time>2016-06-18T11:55:51Z</time>
      </trkpt>
      <trkpt lat="47.95525" lon="7.00782">
        <ele>1205</ele>
        <time>2016-06-18T11:56:01Z</time>
      </trkpt>
      <trkpt lat="47.95528" lon="7.0076">
        <ele>1203</ele>
        <time>2016-06-18T11:56:12Z</time>
      </trkpt>
      <trkpt lat="47.95536" lon="7.00735">
        <ele>1200</ele>
        <time>2016-06-18T11:56:24Z</time>
      </trkpt>
      <trkpt lat="47.9554" lon="7.00712">
        <ele>1200</ele>
        <time>2016-06-18T11:56:36Z</time>
      </trkpt>
      <trkpt lat="47.9555" lon="7.00694">
        <ele>1201</ele>
        <time>2016-06-18T11:56:47Z</time>
      </trkpt>
      <trkpt lat="47.95555" lon="7.00672">
        <ele>1201</ele>
        <time>2016-06-18T11:56:58Z</time>
      </trkpt>
      <trkpt lat="47.95569" lon="7.00652">
        <ele>1197</ele>
        <time>2016-06-18T11:57:11Z</time>
      </trkpt>
      <trkpt lat="47.95577" lon="7.00643">
        <ele>1196</ele>
        <time>2016-06-18T11:57:22Z</time>
      </trkpt>
      <trkpt lat="47.95589" lon="7.00634">
        <ele>1203</ele>
        <time>2016-06-18T11:57:33Z</time>
      </trkpt>
      <trkpt lat="47.95611" lon="7.00621">
        <ele>1202</ele>
        <time>2016-06-18T11:57:44Z</time>
      </trkpt>
      <trkpt lat="47.9562" lon="7.00621">
        <ele>1202</ele>
        <time>2016-06-18T11:57:52Z</time>
      </trkpt>
      <trkpt lat="47.95635" lon="7.00622">
        <ele>1203</ele>
        <time>2016-06-18T11:58:07Z</time>
      </trkpt>
      <trkpt lat="47.95647" lon="7.00617">
        <ele>1203</ele>
        <time>2016-06-18T11:58:16Z</time>
      </trkpt>
      <trkpt lat="47.95668" lon="7.00605">
        <ele>1203</ele>
        <time>2016-06-18T11:58:26Z</time>
      </trkpt>
      <trkpt lat="47.95687" lon="7.00594">
        <ele>1203</ele>
        <time>2016-06-18T11:58:39Z</time>
      </trkpt>
      <trkpt lat="47.95702" lon="7.00582">
        <ele>1197</ele>
        <time>2016-06-18T11:58:50Z</time>
      </trkpt>
      <trkpt lat="47.95725" lon="7.00569">
        <ele>1198</ele>
        <time>2016-06-18T11:59:05Z</time>
      </trkpt>
      <trkpt lat="47.9574" lon="7.00559">
        <ele>1199</ele>
        <time>2016-06-18T11:59:17Z</time>
      </trkpt>
      <trkpt lat="47.95744" lon="7.00553">
        <ele>1198</ele>
        <time>2016-06-18T11:59:21Z</time>
      </trkpt>
      <trkpt lat="47.95756" lon="7.0054">
        <ele>1203</ele>
        <time>2016-06-18T11:59:34Z</time>
      </trkpt>
      <trkpt lat="47.9577" lon="7.00532">
        <ele>1203</ele>
        <time>2016-06-18T11:59:44Z</time>
      </trkpt>
      <trkpt lat="47.95786" lon="7.0052">
        <ele>1203</ele>
        <time>2016-06-18T11:59:56Z</time>
      </trkpt>
      <trkpt lat="47.95805" lon="7.00508">
        <ele>1204</ele>
        <time>2016-06-18T12:00:09Z</time>
      </trkpt>
      <trkpt lat="47.95822" lon="7.00501">
        <ele>1204</ele>
        <time>2016-06-18T12:00:22Z</time>
      </trkpt>
      <trkpt lat="47.95826" lon="7.005">
        <ele>1205</ele>
        <time>2016-06-18T12:00:30Z</time>
      </trkpt>
      <trkpt lat="47.95837" lon="7.00496">
        <ele>1204</ele>
        <time>2016-06-18T12:00:41Z</time>
      </trkpt>
      <trkpt lat="47.95842" lon="7.00497">
        <ele>1203</ele>
        <time>2016-06-18T12:00:44Z</time>
      </trkpt>
      <trkpt lat="47.95867" lon="7.00493">
        <ele>1202</ele>
        <time>2016-06-18T12:00:56Z</time>
      </trkpt>
      <trkpt lat="47.95878" lon="7.00491">
        <ele>1201</ele>
        <time>2016-06-18T12:01:12Z</time>
      </trkpt>
      <trkpt lat="47.95902" lon="7.0049">
        <ele>1202</ele>
        <time>2016-06-18T12:01:24Z</time>
      </trkpt>
      <trkpt lat="47.95906" lon="7.00491">
        <ele>1202</ele>
        <time>2016-06-18T12:01:29Z</time>
      </trkpt>
      <trkpt lat="47.95926" lon="7.00482">
        <ele>1204</ele>
        <time>2016-06-18T12:01:39Z</time>
      </trkpt>
      <trkpt lat="47.95932" lon="7.00482">
        <ele>1204</ele>
        <time>2016-06-18T12:01:40Z</time>
      </trkpt>
      <trkpt lat="47.95939" lon="7.00481">
        <ele>1204</ele>
        <time>2016-06-18T12:01:43Z</time>
      </trkpt>
      <trkpt lat="47.95942" lon="7.00477">
        <ele>1204</ele>
        <time>2016-06-18T12:01:47Z</time>
      </trkpt>
      <trkpt lat="47.95957" lon="7.00468">
        <ele>1204</ele>
        <time>2016-06-18T12:01:58Z</time>
      </trkpt>
      <trkpt lat="47.95969" lon="7.00454">
        <ele>1205</ele>
        <time>2016-06-18T12:02:10Z</time>
      </trkpt>
      <trkpt lat="47.95973" lon="7.00449">
        <ele>1205</ele>
        <time>2016-06-18T12:02:13Z</time>
      </trkpt>
      <trkpt lat="47.95986" lon="7.00439">
        <ele>1205</ele>
        <time>2016-06-18T12:02:24Z</time>
      </trkpt>
      <trkpt lat="47.95992" lon="7.00418">
        <ele>1207</ele>
        <time>2016-06-18T12:02:34Z</time>
      </trkpt>
      <trkpt lat="47.95996" lon="7.00413">
        <ele>1206</ele>
        <time>2016-06-18T12:02:37Z</time>
      </trkpt>
      <trkpt lat="47.96" lon="7.00409">
        <ele>1210</ele>
        <time>2016-06-18T12:02:41Z</time>
      </trkpt>
      <trkpt lat="47.96009" lon="7.00391">
        <ele>1212</ele>
        <time>2016-06-18T12:02:52Z</time>
      </trkpt>
      <trkpt lat="47.96013" lon="7.00384">
        <ele>1213</ele>
        <time>2016-06-18T12:02:56Z</time>
      </trkpt>
      <trkpt lat="47.96022" lon="7.00363">
        <ele>1213</ele>
        <time>2016-06-18T12:03:10Z</time>
      </trkpt>
      <trkpt lat="47.96031" lon="7.0035">
        <ele>1214</ele>
        <time>2016-06-18T12:03:20Z</time>
      </trkpt>
      <trkpt lat="47.96045" lon="7.00336">
        <ele>1216</ele>
        <time>2016-06-18T12:03:30Z</time>
      </trkpt>
      <trkpt lat="47.96051" lon="7.00317">
        <ele>1212</ele>
        <time>2016-06-18T12:03:44Z</time>
      </trkpt>
      <trkpt lat="47.96054" lon="7.0031">
        <ele>1212</ele>
        <time>2016-06-18T12:03:48Z</time>
      </trkpt>
      <trkpt lat="47.96069" lon="7.00298">
        <ele>1212</ele>
        <time>2016-06-18T12:03:59Z</time>
      </trkpt>
      <trkpt lat="47.96074" lon="7.00294">
        <ele>1212</ele>
        <time>2016-06-18T12:04:03Z</time>
      </trkpt>
      <trkpt lat="47.9609" lon="7.00279">
        <ele>1221</ele>
        <time>2016-06-18T12:04:17Z</time>
      </trkpt>
      <trkpt lat="47.96094" lon="7.00265">
        <ele>1219</ele>
        <time>2016-06-18T12:04:24Z</time>
      </trkpt>
      <trkpt lat="47.96102" lon="7.00252">
        <ele>1219</ele>
        <time>2016-06-18T12:04:35Z</time>
      </trkpt>
      <trkpt lat="47.96111" lon="7.00245">
        <ele>1215</ele>
        <time>2016-06-18T12:04:52Z</time>
      </trkpt>
      <trkpt lat="47.96124" lon="7.00228">
        <ele>1216</ele>
        <time>2016-06-18T12:05:04Z</time>
      </trkpt>
      <trkpt lat="47.96144" lon="7.00213">
        <ele>1217</ele>
        <time>2016-06-18T12:05:14Z</time>
      </trkpt>
      <trkpt lat="47.96149" lon="7.002">
        <ele>1217</ele>
        <time>2016-06-18T12:05:22Z</time>
      </trkpt>
      <trkpt lat="47.9616" lon="7.0018">
        <ele>1218</ele>
        <time>2016-06-18T12:05:32Z</time>
      </trkpt>
      <trkpt lat="47.96171" lon="7.00163">
        <ele>1220</ele>
        <time>2016-06-18T12:05:44Z</time>
      </trkpt>
      <trkpt lat="47.96177" lon="7.00144">
        <ele>1220</ele>
        <time>2016-06-18T12:05:54Z</time>
      </trkpt>
      <trkpt lat="47.96185" lon="7.00126">
        <ele>1219</ele>
        <time>2016-06-18T12:06:05Z</time>
      </trkpt>
      <trkpt lat="47.96188" lon="7.00119">
        <ele>1219</ele>
        <time>2016-06-18T12:06:09Z</time>
      </trkpt>
      <trkpt lat="47.96198" lon="7.00101">
        <ele>1219</ele>
        <time>2016-06-18T12:06:21Z</time>
      </trkpt>
      <trkpt lat="47.96202" lon="7.0008">
        <ele>1217</ele>
        <time>2016-06-18T12:06:32Z</time>
      </trkpt>
      <trkpt lat="47.96208" lon="7.00056">
        <ele>1217</ele>
        <time>2016-06-18T12:06:44Z</time>
      </trkpt>
      <trkpt lat="47.96209" lon="7.0004">
        <ele>1217</ele>
        <time>2016-06-18T12:06:51Z</time>
      </trkpt>
      <trkpt lat="47.9621" lon="7.00012">
        <ele>1217</ele>
        <time>2016-06-18T12:07:02Z</time>
      </trkpt>
      <trkpt lat="47.9621" lon="6.99997">
        <ele>1215</ele>
        <time>2016-06-18T12:07:12Z</time>
      </trkpt>
      <trkpt lat="47.96216" lon="6.99975">
        <ele>1215</ele>
        <time>2016-06-18T12:07:25Z</time>
      </trkpt>
      <trkpt lat="47.96217" lon="6.99966">
        <ele>1215</ele>
        <time>2016-06-18T12:07:29Z</time>
      </trkpt>
      <trkpt lat="47.96216" lon="6.99957">
        <ele>1214</ele>
        <time>2016-06-18T12:07:31Z</time>
      </trkpt>
      <trkpt lat="47.96219" lon="6.99935">
        <ele>1215</ele>
        <time>2016-06-18T12:07:44Z</time>
      </trkpt>
      <trkpt lat="47.96224" lon="6.99929">
        <ele>1215</ele>
        <time>2016-06-18T12:07:47Z</time>
      </trkpt>
      <trkpt lat="47.96228" lon="6.99917">
        <ele>1216</ele>
        <time>2016-06-18T12:07:53Z</time>
      </trkpt>
      <trkpt lat="47.96231" lon="6.99894">
        <ele>1213</ele>
        <time>2016-06-18T12:08:04Z</time>
      </trkpt>
      <trkpt lat="47.96233" lon="6.99887">
        <ele>1212</ele>
        <time>2016-06-18T12:08:07Z</time>
      </trkpt>
      <trkpt lat="47.96243" lon="6.99866">
        <ele>1212</ele>
        <time>2016-06-18T12:08:19Z</time>
      </trkpt>
      <trkpt lat="47.96252" lon="6.99848">
        <ele>1217</ele>
        <time>2016-06-18T12:08:30Z</time>
      </trkpt>
      <trkpt lat="47.96254" lon="6.99841">
        <ele>1217</ele>
        <time>2016-06-18T12:08:33Z</time>
      </trkpt>
      <trkpt lat="47.96263" lon="6.99825">
        <ele>1215</ele>
        <time>2016-06-18T12:08:43Z</time>
      </trkpt>
      <trkpt lat="47.96273" lon="6.99808">
        <ele>1214</ele>
        <time>2016-06-18T12:08:54Z</time>
      </trkpt>
      <trkpt lat="47.96292" lon="6.99792">
        <ele>1214</ele>
        <time>2016-06-18T12:09:07Z</time>
      </trkpt>
      <trkpt lat="47.96305" lon="6.9978">
        <ele>1214</ele>
        <time>2016-06-18T12:09:20Z</time>
      </trkpt>
      <trkpt lat="47.96309" lon="6.99777">
        <ele>1214</ele>
        <time>2016-06-18T12:09:24Z</time>
      </trkpt>
      <trkpt lat="47.96327" lon="6.99771">
        <ele>1214</ele>
        <time>2016-06-18T12:09:35Z</time>
      </trkpt>
      <trkpt lat="47.96342" lon="6.99766">
        <ele>1216</ele>
        <time>2016-06-18T12:09:47Z</time>
      </trkpt>
      <trkpt lat="47.96346" lon="6.99762">
        <ele>1216</ele>
        <time>2016-06-18T12:09:50Z</time>
      </trkpt>
      <trkpt lat="47.96355" lon="6.99754">
        <ele>1216</ele>
        <time>2016-06-18T12:10:00Z</time>
      </trkpt>
      <trkpt lat="47.96361" lon="6.9975">
        <ele>1217</ele>
        <time>2016-06-18T12:10:04Z</time>
      </trkpt>
      <trkpt lat="47.96375" lon="6.99744">
        <ele>1210</ele>
        <time>2016-06-18T12:10:14Z</time>
      </trkpt>
      <trkpt lat="47.96387" lon="6.99741">
        <ele>1210</ele>
        <time>2016-06-18T12:10:24Z</time>
      </trkpt>
      <trkpt lat="47.96403" lon="6.9974">
        <ele>1212</ele>
        <time>2016-06-18T12:10:35Z</time>
      </trkpt>
      <trkpt lat="47.96413" lon="6.99734">
        <ele>1212</ele>
        <time>2016-06-18T12:10:43Z</time>
      </trkpt>
      <trkpt lat="47.96429" lon="6.99731">
        <ele>1211</ele>
        <time>2016-06-18T12:10:53Z</time>
      </trkpt>
      <trkpt lat="47.96442" lon="6.99724">
        <ele>1210</ele>
        <time>2016-06-18T12:11:03Z</time>
      </trkpt>
      <trkpt lat="47.96459" lon="6.99717">
        <ele>1209</ele>
        <time>2016-06-18T12:11:15Z</time>
      </trkpt>
      <trkpt lat="47.96475" lon="6.99714">
        <ele>1208</ele>
        <time>2016-06-18T12:11:25Z</time>
      </trkpt>
      <trkpt lat="47.96492" lon="6.99708">
        <ele>1208</ele>
        <time>2016-06-18T12:11:36Z</time>
      </trkpt>
      <trkpt lat="47.96505" lon="6.99698">
        <ele>1204</ele>
        <time>2016-06-18T12:11:46Z</time>
      </trkpt>
      <trkpt lat="47.9652" lon="6.99688">
        <ele>1203</ele>
        <time>2016-06-18T12:11:57Z</time>
      </trkpt>
      <trkpt lat="47.96534" lon="6.9968">
        <ele>1203</ele>
        <time>2016-06-18T12:12:07Z</time>
      </trkpt>
      <trkpt lat="47.96546" lon="6.99669">
        <ele>1203</ele>
        <time>2016-06-18T12:12:17Z</time>
      </trkpt>
      <trkpt lat="47.96561" lon="6.99656">
        <ele>1198</ele>
        <time>2016-06-18T12:12:28Z</time>
      </trkpt>
      <trkpt lat="47.96575" lon="6.99643">
        <ele>1198</ele>
        <time>2016-06-18T12:12:39Z</time>
      </trkpt>
      <trkpt lat="47.9659" lon="6.99629">
        <ele>1197</ele>
        <time>2016-06-18T12:12:50Z</time>
      </trkpt>
      <trkpt lat="47.96608" lon="6.99616">
        <ele>1196</ele>
        <time>2016-06-18T12:13:03Z</time>
      </trkpt>
      <trkpt lat="47.96627" lon="6.99601">
        <ele>1196</ele>
        <time>2016-06-18T12:13:16Z</time>
      </trkpt>
      <trkpt lat="47.9664" lon="6.99589">
        <ele>1196</ele>
        <time>2016-06-18T12:13:26Z</time>
      </trkpt>
      <trkpt lat="47.96653" lon="6.99575">
        <ele>1192</ele>
        <time>2016-06-18T12:13:37Z</time>
      </trkpt>
      <trkpt lat="47.96662" lon="6.99557">
        <ele>1190</ele>
        <time>2016-06-18T12:13:49Z</time>
      </trkpt>
      <trkpt lat="47.96675" lon="6.9954">
        <ele>1191</ele>
        <time>2016-06-18T12:14:00Z</time>
      </trkpt>
      <trkpt lat="47.96686" lon="6.99526">
        <ele>1190</ele>
        <time>2016-06-18T12:14:10Z</time>
      </trkpt>
      <trkpt lat="47.96699" lon="6.99512">
        <ele>1190</ele>
        <time>2016-06-18T12:14:21Z</time>
      </trkpt>
      <trkpt lat="47.96713" lon="6.99501">
        <ele>1191</ele>
        <time>2016-06-18T12:14:33Z</time>
      </trkpt>
      <trkpt lat="47.96732" lon="6.99492">
        <ele>1189</ele>
        <time>2016-06-18T12:14:45Z</time>
      </trkpt>
      <trkpt lat="47.96745" lon="6.99478">
        <ele>1189</ele>
        <time>2016-06-18T12:14:57Z</time>
      </trkpt>
      <trkpt lat="47.96761" lon="6.9947">
        <ele>1195</ele>
        <time>2016-06-18T12:15:08Z</time>
      </trkpt>
      <trkpt lat="47.96779" lon="6.99457">
        <ele>1195</ele>
        <time>2016-06-18T12:15:21Z</time>
      </trkpt>
      <trkpt lat="47.96791" lon="6.99441">
        <ele>1196</ele>
        <time>2016-06-18T12:15:33Z</time>
      </trkpt>
      <trkpt lat="47.96804" lon="6.99427">
        <ele>1198</ele>
        <time>2016-06-18T12:15:44Z</time>
      </trkpt>
      <trkpt lat="47.96814" lon="6.99412">
        <ele>1201</ele>
        <time>2016-06-18T12:15:55Z</time>
      </trkpt>
      <trkpt lat="47.96823" lon="6.994">
        <ele>1202</ele>
        <time>2016-06-18T12:16:05Z</time>
      </trkpt>
      <trkpt lat="47.96835" lon="6.99387">
        <ele>1211</ele>
        <time>2016-06-18T12:16:19Z</time>
      </trkpt>
      <trkpt lat="47.9684" lon="6.99373">
        <ele>1213</ele>
        <time>2016-06-18T12:16:29Z</time>
      </trkpt>
      <trkpt lat="47.96848" lon="6.99353">
        <ele>1214</ele>
        <time>2016-06-18T12:16:42Z</time>
      </trkpt>
      <trkpt lat="47.96852" lon="6.99339">
        <ele>1214</ele>
        <time>2016-06-18T12:16:52Z</time>
      </trkpt>
      <trkpt lat="47.96858" lon="6.99328">
        <ele>1220</ele>
        <time>2016-06-18T12:17:02Z</time>
      </trkpt>
      <trkpt lat="47.9687" lon="6.99317">
        <ele>1222</ele>
        <time>2016-06-18T12:17:14Z</time>
      </trkpt>
      <trkpt lat="47.9688" lon="6.99315">
        <ele>1223</ele>
        <time>2016-06-18T12:17:24Z</time>
      </trkpt>
      <trkpt lat="47.96887" lon="6.99309">
        <ele>1224</ele>
        <time>2016-06-18T12:17:34Z</time>
      </trkpt>
      <trkpt lat="47.96893" lon="6.993">
        <ele>1225</ele>
        <time>2016-06-18T12:17:45Z</time>
      </trkpt>
      <trkpt lat="47.96901" lon="6.99289">
        <ele>1226</ele>
        <time>2016-06-18T12:17:56Z</time>
      </trkpt>
      <trkpt lat="47.96908" lon="6.99278">
        <ele>1227</ele>
        <time>2016-06-18T12:18:06Z</time>
      </trkpt>
      <trkpt lat="47.96914" lon="6.99266">
        <ele>1229</ele>
        <time>2016-06-18T12:18:16Z</time>
      </trkpt>
      <trkpt lat="47.96925" lon="6.9925">
        <ele>1234</ele>
        <time>2016-06-18T12:18:29Z</time>
      </trkpt>
      <trkpt lat="47.96936" lon="6.99234">
        <ele>1235</ele>
        <time>2016-06-18T12:18:41Z</time>
      </trkpt>
      <trkpt lat="47.9695" lon="6.99224">
        <ele>1235</ele>
        <time>2016-06-18T12:18:53Z</time>
      </trkpt>
      <trkpt lat="47.96964" lon="6.9922">
        <ele>1235</ele>
        <time>2016-06-18T12:19:03Z</time>
      </trkpt>
      <trkpt lat="47.96978" lon="6.99215">
        <ele>1236</ele>
        <time>2016-06-18T12:19:14Z</time>
      </trkpt>
      <trkpt lat="47.96995" lon="6.99213">
        <ele>1236</ele>
        <time>2016-06-18T12:19:26Z</time>
      </trkpt>
      <trkpt lat="47.9701" lon="6.9921">
        <ele>1238</ele>
        <time>2016-06-18T12:19:36Z</time>
      </trkpt>
      <trkpt lat="47.97026" lon="6.99207">
        <ele>1238</ele>
        <time>2016-06-18T12:19:47Z</time>
      </trkpt>
      <trkpt lat="47.97044" lon="6.99205">
        <ele>1239</ele>
        <time>2016-06-18T12:19:59Z</time>
      </trkpt>
      <trkpt lat="47.97058" lon="6.99202">
        <ele>1239</ele>
        <time>2016-06-18T12:20:09Z</time>
      </trkpt>
      <trkpt lat="47.97075" lon="6.99195">
        <ele>1239</ele>
        <time>2016-06-18T12:20:21Z</time>
      </trkpt>
      <trkpt lat="47.97089" lon="6.99182">
        <ele>1241</ele>
        <time>2016-06-18T12:20:34Z</time>
      </trkpt>
      <trkpt lat="47.97104" lon="6.99172">
        <ele>1241</ele>
        <time>2016-06-18T12:20:45Z</time>
      </trkpt>
      <trkpt lat="47.97119" lon="6.99165">
        <ele>1242</ele>
        <time>2016-06-18T12:20:57Z</time>
      </trkpt>
      <trkpt lat="47.97134" lon="6.99158">
        <ele>1242</ele>
        <time>2016-06-18T12:21:08Z</time>
      </trkpt>
      <trkpt lat="47.97149" lon="6.99149">
        <ele>1243</ele>
        <time>2016-06-18T12:21:20Z</time>
      </trkpt>
      <trkpt lat="47.97162" lon="6.99141">
        <ele>1243</ele>
        <time>2016-06-18T12:21:30Z</time>
      </trkpt>
      <trkpt lat="47.97178" lon="6.99137">
        <ele>1247</ele>
        <time>2016-06-18T12:21:41Z</time>
      </trkpt>
      <trkpt lat="47.97195" lon="6.99137">
        <ele>1247</ele>
        <time>2016-06-18T12:21:55Z</time>
      </trkpt>
      <trkpt lat="47.9721" lon="6.99137">
        <ele>1248</ele>
        <time>2016-06-18T12:22:05Z</time>
      </trkpt>
      <trkpt lat="47.97226" lon="6.99136">
        <ele>1249</ele>
        <time>2016-06-18T12:22:16Z</time>
      </trkpt>
      <trkpt lat="47.97241" lon="6.99135">
        <ele>1249</ele>
        <time>2016-06-18T12:22:27Z</time>
      </trkpt>
      <trkpt lat="47.97256" lon="6.99132">
        <ele>1254</ele>
        <time>2016-06-18T12:22:38Z</time>
      </trkpt>
      <trkpt lat="47.97273" lon="6.99133">
        <ele>1254</ele>
        <time>2016-06-18T12:22:51Z</time>
      </trkpt>
      <trkpt lat="47.9729" lon="6.99131">
        <ele>1255</ele>
        <time>2016-06-18T12:23:03Z</time>
      </trkpt>
      <trkpt lat="47.97307" lon="6.99129">
        <ele>1255</ele>
        <time>2016-06-18T12:23:14Z</time>
      </trkpt>
      <trkpt lat="47.97322" lon="6.99126">
        <ele>1256</ele>
        <time>2016-06-18T12:23:25Z</time>
      </trkpt>
      <trkpt lat="47.97336" lon="6.99119">
        <ele>1257</ele>
        <time>2016-06-18T12:23:37Z</time>
      </trkpt>
      <trkpt lat="47.97352" lon="6.99112">
        <ele>1257</ele>
        <time>2016-06-18T12:23:48Z</time>
      </trkpt>
      <trkpt lat="47.97367" lon="6.99105">
        <ele>1257</ele>
        <time>2016-06-18T12:23:59Z</time>
      </trkpt>
      <trkpt lat="47.97382" lon="6.99098">
        <ele>1258</ele>
        <time>2016-06-18T12:24:10Z</time>
      </trkpt>
      <trkpt lat="47.97396" lon="6.99091">
        <ele>1259</ele>
        <time>2016-06-18T12:24:21Z</time>
      </trkpt>
      <trkpt lat="47.97412" lon="6.99083">
        <ele>1261</ele>
        <time>2016-06-18T12:24:34Z</time>
      </trkpt>
      <trkpt lat="47.97427" lon="6.99073">
        <ele>1261</ele>
        <time>2016-06-18T12:24:46Z</time>
      </trkpt>
      <trkpt lat="47.97442" lon="6.99067">
        <ele>1261</ele>
        <time>2016-06-18T12:24:58Z</time>
      </trkpt>
      <trkpt lat="47.97455" lon="6.99056">
        <ele>1261</ele>
        <time>2016-06-18T12:25:10Z</time>
      </trkpt>
      <trkpt lat="47.97469" lon="6.99045">
        <ele>1261</ele>
        <time>2016-06-18T12:25:21Z</time>
      </trkpt>
      <trkpt lat="47.97483" lon="6.99026">
        <ele>1262</ele>
        <time>2016-06-18T12:25:33Z</time>
      </trkpt>
      <trkpt lat="47.97495" lon="6.99011">
        <ele>1264</ele>
        <time>2016-06-18T12:25:44Z</time>
      </trkpt>
      <trkpt lat="47.97508" lon="6.98996">
        <ele>1264</ele>
        <time>2016-06-18T12:25:55Z</time>
      </trkpt>
      <trkpt lat="47.9752" lon="6.98983">
        <ele>1261</ele>
        <time>2016-06-18T12:26:06Z</time>
      </trkpt>
      <trkpt lat="47.97531" lon="6.98967">
        <ele>1259</ele>
        <time>2016-06-18T12:26:18Z</time>
      </trkpt>
      <trkpt lat="47.97543" lon="6.98954">
        <ele>1258</ele>
        <time>2016-06-18T12:26:29Z</time>
      </trkpt>
      <trkpt lat="47.97554" lon="6.98937">
        <ele>1257</ele>
        <time>2016-06-18T12:26:40Z</time>
      </trkpt>
      <trkpt lat="47.97566" lon="6.98923">
        <ele>1255</ele>
        <time>2016-06-18T12:26:50Z</time>
      </trkpt>
      <trkpt lat="47.97577" lon="6.98907">
        <ele>1251</ele>
        <time>2016-06-18T12:27:00Z</time>
      </trkpt>
      <trkpt lat="47.9759" lon="6.98891">
        <ele>1246</ele>
        <time>2016-06-18T12:27:11Z</time>
      </trkpt>
      <trkpt lat="47.97605" lon="6.9887">
        <ele>1243</ele>
        <time>2016-06-18T12:27:24Z</time>
      </trkpt>
      <trkpt lat="47.97619" lon="6.98849">
        <ele>1242</ele>
        <time>2016-06-18T12:27:36Z</time>
      </trkpt>
      <trkpt lat="47.97632" lon="6.98831">
        <ele>1236</ele>
        <time>2016-06-18T12:27:46Z</time>
      </trkpt>
      <trkpt lat="47.9765" lon="6.98811">
        <ele>1234</ele>
        <time>2016-06-18T12:27:58Z</time>
      </trkpt>
      <trkpt lat="47.97661" lon="6.98793">
        <ele>1233</ele>
        <time>2016-06-18T12:28:09Z</time>
      </trkpt>
      <trkpt lat="47.97675" lon="6.98771">
        <ele>1227</ele>
        <time>2016-06-18T12:28:22Z</time>
      </trkpt>
      <trkpt lat="47.97687" lon="6.98757">
        <ele>1226</ele>
        <time>2016-06-18T12:28:33Z</time>
      </trkpt>
      <trkpt lat="47.977" lon="6.98733">
        <ele>1221</ele>
        <time>2016-06-18T12:28:46Z</time>
      </trkpt>
      <trkpt lat="47.97709" lon="6.98714">
        <ele>1219</ele>
        <time>2016-06-18T12:28:56Z</time>
      </trkpt>
      <trkpt lat="47.97721" lon="6.98698">
        <ele>1218</ele>
        <time>2016-06-18T12:29:06Z</time>
      </trkpt>
      <trkpt lat="47.97736" lon="6.98684">
        <ele>1216</ele>
        <time>2016-06-18T12:29:16Z</time>
      </trkpt>
      <trkpt lat="47.97748" lon="6.98672">
        <ele>1213</ele>
        <time>2016-06-18T12:29:26Z</time>
      </trkpt>
      <trkpt lat="47.97765" lon="6.98657">
        <ele>1208</ele>
        <time>2016-06-18T12:29:38Z</time>
      </trkpt>
      <trkpt lat="47.9778" lon="6.98645">
        <ele>1206</ele>
        <time>2016-06-18T12:29:48Z</time>
      </trkpt>
      <trkpt lat="47.97793" lon="6.98635">
        <ele>1205</ele>
        <time>2016-06-18T12:29:58Z</time>
      </trkpt>
      <trkpt lat="47.97807" lon="6.98622">
        <ele>1205</ele>
        <time>2016-06-18T12:30:08Z</time>
      </trkpt>
      <trkpt lat="47.97821" lon="6.98609">
        <ele>1203</ele>
        <time>2016-06-18T12:30:19Z</time>
      </trkpt>
      <trkpt lat="47.9784" lon="6.98592">
        <ele>1199</ele>
        <time>2016-06-18T12:30:32Z</time>
      </trkpt>
      <trkpt lat="47.97857" lon="6.98576">
        <ele>1196</ele>
        <time>2016-06-18T12:30:45Z</time>
      </trkpt>
      <trkpt lat="47.9787" lon="6.98565">
        <ele>1194</ele>
        <time>2016-06-18T12:30:55Z</time>
      </trkpt>
      <trkpt lat="47.97883" lon="6.98556">
        <ele>1193</ele>
        <time>2016-06-18T12:32:02Z</time>
      </trkpt>
      <trkpt lat="47.97898" lon="6.98548">
        <ele>1192</ele>
        <time>2016-06-18T12:32:13Z</time>
      </trkpt>
      <trkpt lat="47.97913" lon="6.98539">
        <ele>1192</ele>
        <time>2016-06-18T12:32:24Z</time>
      </trkpt>
      <trkpt lat="47.97927" lon="6.98533">
        <ele>1187</ele>
        <time>2016-06-18T12:32:37Z</time>
      </trkpt>
      <trkpt lat="47.97941" lon="6.98522">
        <ele>1186</ele>
        <time>2016-06-18T12:32:47Z</time>
      </trkpt>
      <trkpt lat="47.97955" lon="6.98513">
        <ele>1186</ele>
        <time>2016-06-18T12:32:59Z</time>
      </trkpt>
      <trkpt lat="47.97968" lon="6.98504">
        <ele>1186</ele>
        <time>2016-06-18T12:33:09Z</time>
      </trkpt>
      <trkpt lat="47.97981" lon="6.98494">
        <ele>1185</ele>
        <time>2016-06-18T12:33:19Z</time>
      </trkpt>
      <trkpt lat="47.97996" lon="6.98482">
        <ele>1186</ele>
        <time>2016-06-18T12:33:31Z</time>
      </trkpt>
      <trkpt lat="47.9801" lon="6.98473">
        <ele>1188</ele>
        <time>2016-06-18T12:33:42Z</time>
      </trkpt>
      <trkpt lat="47.98023" lon="6.98461">
        <ele>1189</ele>
        <time>2016-06-18T12:33:53Z</time>
      </trkpt>
      <trkpt lat="47.98037" lon="6.98452">
        <ele>1189</ele>
        <time>2016-06-18T12:34:05Z</time>
      </trkpt>
      <trkpt lat="47.98051" lon="6.98444">
        <ele>1190</ele>
        <time>2016-06-18T12:34:16Z</time>
      </trkpt>
      <trkpt lat="47.98065" lon="6.98434">
        <ele>1191</ele>
        <time>2016-06-18T12:34:28Z</time>
      </trkpt>
      <trkpt lat="47.98078" lon="6.98422">
        <ele>1192</ele>
        <time>2016-06-18T12:34:40Z</time>
      </trkpt>
      <trkpt lat="47.98093" lon="6.98414">
        <ele>1195</ele>
        <time>2016-06-18T12:34:53Z</time>
      </trkpt>
      <trkpt lat="47.98103" lon="6.98405">
        <ele>1196</ele>
        <time>2016-06-18T12:35:03Z</time>
      </trkpt>
      <trkpt lat="47.98118" lon="6.98396">
        <ele>1198</ele>
        <time>2016-06-18T12:35:16Z</time>
      </trkpt>
      <trkpt lat="47.98133" lon="6.98391">
        <ele>1199</ele>
        <time>2016-06-18T12:35:28Z</time>
      </trkpt>
      <trkpt lat="47.98149" lon="6.98388">
        <ele>1200</ele>
        <time>2016-06-18T12:35:39Z</time>
      </trkpt>
      <trkpt lat="47.98163" lon="6.98386">
        <ele>1200</ele>
        <time>2016-06-18T12:35:49Z</time>
      </trkpt>
      <trkpt lat="47.98178" lon="6.98382">
        <ele>1205</ele>
        <time>2016-06-18T12:36:00Z</time>
      </trkpt>
      <trkpt lat="47.98192" lon="6.98375">
        <ele>1206</ele>
        <time>2016-06-18T12:36:13Z</time>
      </trkpt>
      <trkpt lat="47.98208" lon="6.98371">
        <ele>1207</ele>
        <time>2016-06-18T12:36:25Z</time>
      </trkpt>
      <trkpt lat="47.98224" lon="6.98369">
        <ele>1207</ele>
        <time>2016-06-18T12:36:36Z</time>
      </trkpt>
      <trkpt lat="47.98237" lon="6.98361">
        <ele>1208</ele>
        <time>2016-06-18T12:36:48Z</time>
      </trkpt>
      <trkpt lat="47.98251" lon="6.98354">
        <ele>1210</ele>
        <time>2016-06-18T12:36:58Z</time>
      </trkpt>
      <trkpt lat="47.98265" lon="6.98345">
        <ele>1211</ele>
        <time>2016-06-18T12:37:10Z</time>
      </trkpt>
      <trkpt lat="47.98279" lon="6.98338">
        <ele>1210</ele>
        <time>2016-06-18T12:37:23Z</time>
      </trkpt>
      <trkpt lat="47.98293" lon="6.98338">
        <ele>1210</ele>
        <time>2016-06-18T12:37:35Z</time>
      </trkpt>
      <trkpt lat="47.98309" lon="6.98334">
        <ele>1211</ele>
        <time>2016-06-18T12:37:48Z</time>
      </trkpt>
      <trkpt lat="47.98322" lon="6.98324">
        <ele>1215</ele>
        <time>2016-06-18T12:37:58Z</time>
      </trkpt>
      <trkpt lat="47.98334" lon="6.98306">
        <ele>1215</ele>
        <time>2016-06-18T12:38:11Z</time>
      </trkpt>
      <trkpt lat="47.98339" lon="6.98302">
        <ele>1215</ele>
        <time>2016-06-18T12:38:14Z</time>
      </trkpt>
      <trkpt lat="47.98347" lon="6.9829">
        <ele>1215</ele>
        <time>2016-06-18T12:38:26Z</time>
      </trkpt>
      <trkpt lat="47.98355" lon="6.98283">
        <ele>1215</ele>
        <time>2016-06-18T12:38:48Z</time>
      </trkpt>
      <trkpt lat="47.98364" lon="6.98277">
        <ele>1215</ele>
        <time>2016-06-18T12:39:10Z</time>
      </trkpt>
      <trkpt lat="47.98361" lon="6.98272">
        <ele>1215</ele>
        <time>2016-06-18T12:42:20Z</time>
      </trkpt>
      <trkpt lat="47.98365" lon="6.98276">
        <ele>1215</ele>
        <time>2016-06-18T12:42:57Z</time>
      </trkpt>
      <trkpt lat="47.9837" lon="6.98274">
        <ele>1215</ele>
        <time>2016-06-18T12:46:58Z</time>
      </trkpt>
      <trkpt lat="47.98378" lon="6.98263">
        <ele>1215</ele>
        <time>2016-06-18T12:47:09Z</time>
      </trkpt>
      <trkpt lat="47.98388" lon="6.98243">
        <ele>1215</ele>
        <time>2016-06-18T12:47:20Z</time>
      </trkpt>
      <trkpt lat="47.98395" lon="6.98223">
        <ele>1215</ele>
        <time>2016-06-18T12:47:33Z</time>
      </trkpt>
      <trkpt lat="47.98406" lon="6.98209">
        <ele>1215</ele>
        <time>2016-06-18T12:47:46Z</time>
      </trkpt>
      <trkpt lat="47.98419" lon="6.982">
        <ele>1213</ele>
        <time>2016-06-18T12:47:56Z</time>
      </trkpt>
      <trkpt lat="47.98432" lon="6.98186">
        <ele>1213</ele>
        <time>2016-06-18T12:48:08Z</time>
      </trkpt>
      <trkpt lat="47.98446" lon="6.98174">
        <ele>1213</ele>
        <time>2016-06-18T12:48:19Z</time>
      </trkpt>
      <trkpt lat="47.98459" lon="6.98157">
        <ele>1213</ele>
        <time>2016-06-18T12:48:31Z</time>
      </trkpt>
      <trkpt lat="47.9847" lon="6.98142">
        <ele>1214</ele>
        <time>2016-06-18T12:48:41Z</time>
      </trkpt>
      <trkpt lat="47.98481" lon="6.98126">
        <ele>1214</ele>
        <time>2016-06-18T12:48:51Z</time>
      </trkpt>
      <trkpt lat="47.98492" lon="6.9811">
        <ele>1215</ele>
        <time>2016-06-18T12:49:01Z</time>
      </trkpt>
      <trkpt lat="47.98501" lon="6.98094">
        <ele>1218</ele>
        <time>2016-06-18T12:49:12Z</time>
      </trkpt>
      <trkpt lat="47.98513" lon="6.98077">
        <ele>1219</ele>
        <time>2016-06-18T12:49:23Z</time>
      </trkpt>
      <trkpt lat="47.98523" lon="6.98062">
        <ele>1220</ele>
        <time>2016-06-18T12:49:33Z</time>
      </trkpt>
      <trkpt lat="47.98534" lon="6.98046">
        <ele>1220</ele>
        <time>2016-06-18T12:49:45Z</time>
      </trkpt>
      <trkpt lat="47.98546" lon="6.98032">
        <ele>1221</ele>
        <time>2016-06-18T12:49:59Z</time>
      </trkpt>
      <trkpt lat="47.98563" lon="6.98028">
        <ele>1222</ele>
        <time>2016-06-18T12:50:11Z</time>
      </trkpt>
      <trkpt lat="47.98578" lon="6.98024">
        <ele>1222</ele>
        <time>2016-06-18T12:50:21Z</time>
      </trkpt>
      <trkpt lat="47.98593" lon="6.98022">
        <ele>1226</ele>
        <time>2016-06-18T12:50:33Z</time>
      </trkpt>
      <trkpt lat="47.98608" lon="6.98019">
        <ele>1226</ele>
        <time>2016-06-18T12:50:43Z</time>
      </trkpt>
      <trkpt lat="47.98623" lon="6.98013">
        <ele>1227</ele>
        <time>2016-06-18T12:50:55Z</time>
      </trkpt>
      <trkpt lat="47.9864" lon="6.9801">
        <ele>1228</ele>
        <time>2016-06-18T12:51:07Z</time>
      </trkpt>
      <trkpt lat="47.98656" lon="6.98009">
        <ele>1230</ele>
        <time>2016-06-18T12:51:19Z</time>
      </trkpt>
      <trkpt lat="47.98671" lon="6.98">
        <ele>1232</ele>
        <time>2016-06-18T12:51:31Z</time>
      </trkpt>
      <trkpt lat="47.98686" lon="6.98003">
        <ele>1233</ele>
        <time>2016-06-18T12:51:44Z</time>
      </trkpt>
      <trkpt lat="47.98701" lon="6.98006">
        <ele>1233</ele>
        <time>2016-06-18T12:51:55Z</time>
      </trkpt>
      <trkpt lat="47.98716" lon="6.98002">
        <ele>1234</ele>
        <time>2016-06-18T12:52:05Z</time>
      </trkpt>
      <trkpt lat="47.98726" lon="6.97986">
        <ele>1231</ele>
        <time>2016-06-18T12:52:16Z</time>
      </trkpt>
      <trkpt lat="47.98739" lon="6.97976">
        <ele>1231</ele>
        <time>2016-06-18T12:52:26Z</time>
      </trkpt>
      <trkpt lat="47.98754" lon="6.97976">
        <ele>1233</ele>
        <time>2016-06-18T12:52:36Z</time>
      </trkpt>
      <trkpt lat="47.9877" lon="6.97975">
        <ele>1233</ele>
        <time>2016-06-18T12:52:48Z</time>
      </trkpt>
      <trkpt lat="47.98786" lon="6.97975">
        <ele>1233</ele>
        <time>2016-06-18T12:53:01Z</time>
      </trkpt>
      <trkpt lat="47.98803" lon="6.97976">
        <ele>1233</ele>
        <time>2016-06-18T12:53:12Z</time>
      </trkpt>
      <trkpt lat="47.98818" lon="6.97975">
        <ele>1234</ele>
        <time>2016-06-18T12:53:22Z</time>
      </trkpt>
      <trkpt lat="47.98832" lon="6.9798">
        <ele>1235</ele>
        <time>2016-06-18T12:53:33Z</time>
      </trkpt>
      <trkpt lat="47.98842" lon="6.97988">
        <ele>1236</ele>
        <time>2016-06-18T12:53:41Z</time>
      </trkpt>
      <trkpt lat="47.98855" lon="6.97999">
        <ele>1235</ele>
        <time>2016-06-18T12:53:51Z</time>
      </trkpt>
      <trkpt lat="47.98869" lon="6.98006">
        <ele>1240</ele>
        <time>2016-06-18T12:54:01Z</time>
      </trkpt>
      <trkpt lat="47.98884" lon="6.98005">
        <ele>1240</ele>
        <time>2016-06-18T12:54:12Z</time>
      </trkpt>
      <trkpt lat="47.98889" lon="6.98003">
        <ele>1240</ele>
        <time>2016-06-18T12:54:15Z</time>
      </trkpt>
      <trkpt lat="47.98905" lon="6.98002">
        <ele>1240</ele>
        <time>2016-06-18T12:54:26Z</time>
      </trkpt>
      <trkpt lat="47.9892" lon="6.98002">
        <ele>1239</ele>
        <time>2016-06-18T12:54:38Z</time>
      </trkpt>
      <trkpt lat="47.98929" lon="6.98007">
        <ele>1240</ele>
        <time>2016-06-18T12:54:44Z</time>
      </trkpt>
      <trkpt lat="47.98943" lon="6.98015">
        <ele>1240</ele>
        <time>2016-06-18T12:54:55Z</time>
      </trkpt>
      <trkpt lat="47.98958" lon="6.98019">
        <ele>1240</ele>
        <time>2016-06-18T12:55:06Z</time>
      </trkpt>
      <trkpt lat="47.98973" lon="6.9802">
        <ele>1240</ele>
        <time>2016-06-18T12:55:17Z</time>
      </trkpt>
      <trkpt lat="47.9899" lon="6.98018">
        <ele>1239</ele>
        <time>2016-06-18T12:55:28Z</time>
      </trkpt>
      <trkpt lat="47.99006" lon="6.98018">
        <ele>1240</ele>
        <time>2016-06-18T12:55:39Z</time>
      </trkpt>
      <trkpt lat="47.99022" lon="6.98018">
        <ele>1241</ele>
        <time>2016-06-18T12:55:50Z</time>
      </trkpt>
      <trkpt lat="47.99038" lon="6.98019">
        <ele>1242</ele>
        <time>2016-06-18T12:56:01Z</time>
      </trkpt>
      <trkpt lat="47.99054" lon="6.98023">
        <ele>1242</ele>
        <time>2016-06-18T12:56:12Z</time>
      </trkpt>
      <trkpt lat="47.99059" lon="6.98021">
        <ele>1242</ele>
        <time>2016-06-18T12:56:17Z</time>
      </trkpt>
      <trkpt lat="47.99065" lon="6.98019">
        <ele>1242</ele>
        <time>2016-06-18T12:56:22Z</time>
      </trkpt>
      <trkpt lat="47.9908" lon="6.98013">
        <ele>1241</ele>
        <time>2016-06-18T12:56:33Z</time>
      </trkpt>
      <trkpt lat="47.99095" lon="6.98005">
        <ele>1244</ele>
        <time>2016-06-18T12:56:44Z</time>
      </trkpt>
      <trkpt lat="47.9911" lon="6.97996">
        <ele>1239</ele>
        <time>2016-06-18T12:56:54Z</time>
      </trkpt>
      <trkpt lat="47.99124" lon="6.97987">
        <ele>1240</ele>
        <time>2016-06-18T12:57:04Z</time>
      </trkpt>
      <trkpt lat="47.99136" lon="6.97976">
        <ele>1240</ele>
        <time>2016-06-18T12:57:16Z</time>
      </trkpt>
      <trkpt lat="47.9915" lon="6.97966">
        <ele>1240</ele>
        <time>2016-06-18T12:57:26Z</time>
      </trkpt>
      <trkpt lat="47.99164" lon="6.97956">
        <ele>1239</ele>
        <time>2016-06-18T12:57:37Z</time>
      </trkpt>
      <trkpt lat="47.99178" lon="6.97947">
        <ele>1248</ele>
        <time>2016-06-18T12:57:47Z</time>
      </trkpt>
      <trkpt lat="47.99193" lon="6.97936">
        <ele>1247</ele>
        <time>2016-06-18T12:57:59Z</time>
      </trkpt>
      <trkpt lat="47.99207" lon="6.97925">
        <ele>1249</ele>
        <time>2016-06-18T12:58:11Z</time>
      </trkpt>
      <trkpt lat="47.99222" lon="6.97917">
        <ele>1250</ele>
        <time>2016-06-18T12:58:23Z</time>
      </trkpt>
      <trkpt lat="47.99238" lon="6.97911">
        <ele>1242</ele>
        <time>2016-06-18T12:58:34Z</time>
      </trkpt>
      <trkpt lat="47.99254" lon="6.97905">
        <ele>1248</ele>
        <time>2016-06-18T12:58:44Z</time>
      </trkpt>
      <trkpt lat="47.99264" lon="6.97898">
        <ele>1246</ele>
        <time>2016-06-18T12:58:54Z</time>
      </trkpt>
      <trkpt lat="47.99281" lon="6.97892">
        <ele>1246</ele>
        <time>2016-06-18T12:59:05Z</time>
      </trkpt>
      <trkpt lat="47.99296" lon="6.97886">
        <ele>1246</ele>
        <time>2016-06-18T12:59:17Z</time>
      </trkpt>
      <trkpt lat="47.99312" lon="6.97881">
        <ele>1247</ele>
        <time>2016-06-18T12:59:28Z</time>
      </trkpt>
      <trkpt lat="47.99325" lon="6.97873">
        <ele>1246</ele>
        <time>2016-06-18T12:59:39Z</time>
      </trkpt>
      <trkpt lat="47.9934" lon="6.97868">
        <ele>1252</ele>
        <time>2016-06-18T12:59:49Z</time>
      </trkpt>
      <trkpt lat="47.99356" lon="6.97864">
        <ele>1252</ele>
        <time>2016-06-18T13:00:02Z</time>
      </trkpt>
      <trkpt lat="47.99371" lon="6.97856">
        <ele>1252</ele>
        <time>2016-06-18T13:00:13Z</time>
      </trkpt>
      <trkpt lat="47.99387" lon="6.9785">
        <ele>1252</ele>
        <time>2016-06-18T13:00:24Z</time>
      </trkpt>
      <trkpt lat="47.99392" lon="6.97848">
        <ele>1251</ele>
        <time>2016-06-18T13:00:29Z</time>
      </trkpt>
      <trkpt lat="47.99402" lon="6.97847">
        <ele>1250</ele>
        <time>2016-06-18T13:00:37Z</time>
      </trkpt>
      <trkpt lat="47.99412" lon="6.97846">
        <ele>1249</ele>
        <time>2016-06-18T13:00:47Z</time>
      </trkpt>
      <trkpt lat="47.99427" lon="6.97844">
        <ele>1251</ele>
        <time>2016-06-18T13:00:57Z</time>
      </trkpt>
      <trkpt lat="47.99443" lon="6.97846">
        <ele>1254</ele>
        <time>2016-06-18T13:01:08Z</time>
      </trkpt>
      <trkpt lat="47.99458" lon="6.97847">
        <ele>1255</ele>
        <time>2016-06-18T13:01:21Z</time>
      </trkpt>
      <trkpt lat="47.99462" lon="6.97846">
        <ele>1255</ele>
        <time>2016-06-18T13:01:23Z</time>
      </trkpt>
      <trkpt lat="47.99478" lon="6.97846">
        <ele>1254</ele>
        <time>2016-06-18T13:01:33Z</time>
      </trkpt>
      <trkpt lat="47.99493" lon="6.97846">
        <ele>1252</ele>
        <time>2016-06-18T13:01:44Z</time>
      </trkpt>
      <trkpt lat="47.99504" lon="6.97848">
        <ele>1252</ele>
        <time>2016-06-18T13:01:52Z</time>
      </trkpt>
      <trkpt lat="47.99508" lon="6.97848">
        <ele>1253</ele>
        <time>2016-06-18T13:01:56Z</time>
      </trkpt>
      <trkpt lat="47.99521" lon="6.97851">
        <ele>1254</ele>
        <time>2016-06-18T13:02:03Z</time>
      </trkpt>
      <trkpt lat="47.99536" lon="6.97853">
        <ele>1255</ele>
        <time>2016-06-18T13:02:15Z</time>
      </trkpt>
      <trkpt lat="47.99555" lon="6.97852">
        <ele>1255</ele>
        <time>2016-06-18T13:02:28Z</time>
      </trkpt>
      <trkpt lat="47.99571" lon="6.97856">
        <ele>1254</ele>
        <time>2016-06-18T13:02:38Z</time>
      </trkpt>
      <trkpt lat="47.99586" lon="6.97858">
        <ele>1254</ele>
        <time>2016-06-18T13:02:49Z</time>
      </trkpt>
      <trkpt lat="47.99601" lon="6.97859">
        <ele>1254</ele>
        <time>2016-06-18T13:02:59Z</time>
      </trkpt>
      <trkpt lat="47.99615" lon="6.97856">
        <ele>1254</ele>
        <time>2016-06-18T13:03:09Z</time>
      </trkpt>
      <trkpt lat="47.9963" lon="6.9785">
        <ele>1253</ele>
        <time>2016-06-18T13:03:21Z</time>
      </trkpt>
      <trkpt lat="47.99637" lon="6.97852">
        <ele>1253</ele>
        <time>2016-06-18T13:03:25Z</time>
      </trkpt>
      <trkpt lat="47.99652" lon="6.97853">
        <ele>1252</ele>
        <time>2016-06-18T13:03:36Z</time>
      </trkpt>
      <trkpt lat="47.99657" lon="6.97851">
        <ele>1252</ele>
        <time>2016-06-18T13:03:40Z</time>
      </trkpt>
      <trkpt lat="47.99673" lon="6.9785">
        <ele>1253</ele>
        <time>2016-06-18T13:03:50Z</time>
      </trkpt>
      <trkpt lat="47.99678" lon="6.97852">
        <ele>1254</ele>
        <time>2016-06-18T13:03:53Z</time>
      </trkpt>
      <trkpt lat="47.99694" lon="6.97852">
        <ele>1255</ele>
        <time>2016-06-18T13:04:05Z</time>
      </trkpt>
      <trkpt lat="47.99711" lon="6.97852">
        <ele>1257</ele>
        <time>2016-06-18T13:04:17Z</time>
      </trkpt>
      <trkpt lat="47.99717" lon="6.97852">
        <ele>1257</ele>
        <time>2016-06-18T13:04:22Z</time>
      </trkpt>
      <trkpt lat="47.99728" lon="6.97849">
        <ele>1256</ele>
        <time>2016-06-18T13:04:33Z</time>
      </trkpt>
      <trkpt lat="47.99743" lon="6.97847">
        <ele>1255</ele>
        <time>2016-06-18T13:04:44Z</time>
      </trkpt>
      <trkpt lat="47.99761" lon="6.97839">
        <ele>1259</ele>
        <time>2016-06-18T13:04:57Z</time>
      </trkpt>
      <trkpt lat="47.99775" lon="6.97828">
        <ele>1251</ele>
        <time>2016-06-18T13:05:08Z</time>
      </trkpt>
      <trkpt lat="47.99788" lon="6.97817">
        <ele>1252</ele>
        <time>2016-06-18T13:05:18Z</time>
      </trkpt>
      <trkpt lat="47.99792" lon="6.97813">
        <ele>1252</ele>
        <time>2016-06-18T13:05:21Z</time>
      </trkpt>
      <trkpt lat="47.99806" lon="6.978">
        <ele>1252</ele>
        <time>2016-06-18T13:05:32Z</time>
      </trkpt>
      <trkpt lat="47.9982" lon="6.97786">
        <ele>1252</ele>
        <time>2016-06-18T13:05:43Z</time>
      </trkpt>
      <trkpt lat="47.99834" lon="6.9777">
        <ele>1262</ele>
        <time>2016-06-18T13:05:55Z</time>
      </trkpt>
      <trkpt lat="47.99847" lon="6.97758">
        <ele>1261</ele>
        <time>2016-06-18T13:06:05Z</time>
      </trkpt>
      <trkpt lat="47.99853" lon="6.97738">
        <ele>1253</ele>
        <time>2016-06-18T13:06:18Z</time>
      </trkpt>
      <trkpt lat="47.99872" lon="6.9772">
        <ele>1253</ele>
        <time>2016-06-18T13:06:31Z</time>
      </trkpt>
      <trkpt lat="47.99883" lon="6.97703">
        <ele>1253</ele>
        <time>2016-06-18T13:06:45Z</time>
      </trkpt>
      <trkpt lat="47.99898" lon="6.9769">
        <ele>1252</ele>
        <time>2016-06-18T13:06:56Z</time>
      </trkpt>
      <trkpt lat="47.99902" lon="6.97685">
        <ele>1252</ele>
        <time>2016-06-18T13:07:00Z</time>
      </trkpt>
      <trkpt lat="47.99918" lon="6.97675">
        <ele>1254</ele>
        <time>2016-06-18T13:07:12Z</time>
      </trkpt>
      <trkpt lat="47.99932" lon="6.97671">
        <ele>1255</ele>
        <time>2016-06-18T13:07:22Z</time>
      </trkpt>
      <trkpt lat="47.99937" lon="6.9767">
        <ele>1256</ele>
        <time>2016-06-18T13:07:25Z</time>
      </trkpt>
      <trkpt lat="47.99953" lon="6.97671">
        <ele>1256</ele>
        <time>2016-06-18T13:07:36Z</time>
      </trkpt>
      <trkpt lat="47.99959" lon="6.97673">
        <ele>1256</ele>
        <time>2016-06-18T13:07:42Z</time>
      </trkpt>
      <trkpt lat="47.99974" lon="6.97674">
        <ele>1255</ele>
        <time>2016-06-18T13:07:50Z</time>
      </trkpt>
      <trkpt lat="47.99987" lon="6.97688">
        <ele>1255</ele>
        <time>2016-06-18T13:08:01Z</time>
      </trkpt>
      <trkpt lat="48.00003" lon="6.97692">
        <ele>1251</ele>
        <time>2016-06-18T13:08:13Z</time>
      </trkpt>
      <trkpt lat="48.00019" lon="6.97699">
        <ele>1252</ele>
        <time>2016-06-18T13:08:24Z</time>
      </trkpt>
      <trkpt lat="48.00028" lon="6.97705">
        <ele>1253</ele>
        <time>2016-06-18T13:08:32Z</time>
      </trkpt>
      <trkpt lat="48.00044" lon="6.97712">
        <ele>1253</ele>
        <time>2016-06-18T13:08:43Z</time>
      </trkpt>
      <trkpt lat="48.00049" lon="6.97715">
        <ele>1253</ele>
        <time>2016-06-18T13:08:46Z</time>
      </trkpt>
      <trkpt lat="48.00065" lon="6.97717">
        <ele>1252</ele>
        <time>2016-06-18T13:08:58Z</time>
      </trkpt>
      <trkpt lat="48.00085" lon="6.97722">
        <ele>1246</ele>
        <time>2016-06-18T13:09:11Z</time>
      </trkpt>
      <trkpt lat="48.001" lon="6.97726">
        <ele>1246</ele>
        <time>2016-06-18T13:09:23Z</time>
      </trkpt>
      <trkpt lat="48.00116" lon="6.97728">
        <ele>1244</ele>
        <time>2016-06-18T13:09:33Z</time>
      </trkpt>
      <trkpt lat="48.00134" lon="6.97735">
        <ele>1243</ele>
        <time>2016-06-18T13:09:44Z</time>
      </trkpt>
      <trkpt lat="48.0015" lon="6.97735">
        <ele>1243</ele>
        <time>2016-06-18T13:09:55Z</time>
      </trkpt>
      <trkpt lat="48.00155" lon="6.97736">
        <ele>1243</ele>
        <time>2016-06-18T13:09:58Z</time>
      </trkpt>
      <trkpt lat="48.00171" lon="6.97739">
        <ele>1240</ele>
        <time>2016-06-18T13:10:08Z</time>
      </trkpt>
      <trkpt lat="48.0019" lon="6.97738">
        <ele>1235</ele>
        <time>2016-06-18T13:10:18Z</time>
      </trkpt>
      <trkpt lat="48.00205" lon="6.97743">
        <ele>1233</ele>
        <time>2016-06-18T13:10:28Z</time>
      </trkpt>
      <trkpt lat="48.00225" lon="6.97748">
        <ele>1232</ele>
        <time>2016-06-18T13:10:41Z</time>
      </trkpt>
      <trkpt lat="48.00239" lon="6.9775">
        <ele>1232</ele>
        <time>2016-06-18T13:10:51Z</time>
      </trkpt>
      <trkpt lat="48.00248" lon="6.97748">
        <ele>1233</ele>
        <time>2016-06-18T13:10:55Z</time>
      </trkpt>
      <trkpt lat="48.00264" lon="6.97749">
        <ele>1224</ele>
        <time>2016-06-18T13:11:06Z</time>
      </trkpt>
      <trkpt lat="48.00273" lon="6.97757">
        <ele>1230</ele>
        <time>2016-06-18T13:11:14Z</time>
      </trkpt>
      <trkpt lat="48.00291" lon="6.97771">
        <ele>1227</ele>
        <time>2016-06-18T13:11:28Z</time>
      </trkpt>
      <trkpt lat="48.00302" lon="6.9779">
        <ele>1227</ele>
        <time>2016-06-18T13:11:41Z</time>
      </trkpt>
      <trkpt lat="48.00313" lon="6.97805">
        <ele>1227</ele>
        <time>2016-06-18T13:11:51Z</time>
      </trkpt>
      <trkpt lat="48.00324" lon="6.97826">
        <ele>1226</ele>
        <time>2016-06-18T13:12:03Z</time>
      </trkpt>
      <trkpt lat="48.00335" lon="6.97841">
        <ele>1222</ele>
        <time>2016-06-18T13:12:13Z</time>
      </trkpt>
      <trkpt lat="48.00344" lon="6.97859">
        <ele>1220</ele>
        <time>2016-06-18T13:12:24Z</time>
      </trkpt>
      <trkpt lat="48.00353" lon="6.97879">
        <ele>1221</ele>
        <time>2016-06-18T13:12:34Z</time>
      </trkpt>
      <trkpt lat="48.00362" lon="6.97896">
        <ele>1221</ele>
        <time>2016-06-18T13:12:44Z</time>
      </trkpt>
      <trkpt lat="48.00371" lon="6.97914">
        <ele>1220</ele>
        <time>2016-06-18T13:12:55Z</time>
      </trkpt>
      <trkpt lat="48.00381" lon="6.97933">
        <ele>1222</ele>
        <time>2016-06-18T13:13:06Z</time>
      </trkpt>
      <trkpt lat="48.00389" lon="6.97951">
        <ele>1222</ele>
        <time>2016-06-18T13:13:16Z</time>
      </trkpt>
      <trkpt lat="48.00397" lon="6.97971">
        <ele>1221</ele>
        <time>2016-06-18T13:13:27Z</time>
      </trkpt>
      <trkpt lat="48.00404" lon="6.97989">
        <ele>1219</ele>
        <time>2016-06-18T13:13:37Z</time>
      </trkpt>
      <trkpt lat="48.00417" lon="6.97999">
        <ele>1215</ele>
        <time>2016-06-18T13:13:48Z</time>
      </trkpt>
      <trkpt lat="48.00433" lon="6.97997">
        <ele>1212</ele>
        <time>2016-06-18T13:13:59Z</time>
      </trkpt>
      <trkpt lat="48.00448" lon="6.97997">
        <ele>1210</ele>
        <time>2016-06-18T13:14:09Z</time>
      </trkpt>
      <trkpt lat="48.00465" lon="6.97999">
        <ele>1209</ele>
        <time>2016-06-18T13:14:21Z</time>
      </trkpt>
      <trkpt lat="48.0048" lon="6.98002">
        <ele>1205</ele>
        <time>2016-06-18T13:14:33Z</time>
      </trkpt>
      <trkpt lat="48.00495" lon="6.98">
        <ele>1205</ele>
        <time>2016-06-18T13:14:43Z</time>
      </trkpt>
      <trkpt lat="48.00512" lon="6.97999">
        <ele>1205</ele>
        <time>2016-06-18T13:14:54Z</time>
      </trkpt>
      <trkpt lat="48.00528" lon="6.98">
        <ele>1203</ele>
        <time>2016-06-18T13:15:05Z</time>
      </trkpt>
      <trkpt lat="48.0054" lon="6.97995">
        <ele>1204</ele>
        <time>2016-06-18T13:15:16Z</time>
      </trkpt>
      <trkpt lat="48.00543" lon="6.97974">
        <ele>1203</ele>
        <time>2016-06-18T13:17:41Z</time>
      </trkpt>
      <trkpt lat="48.00536" lon="6.97953">
        <ele>1202</ele>
        <time>2016-06-18T13:17:53Z</time>
      </trkpt>
      <trkpt lat="48.00529" lon="6.9793">
        <ele>1201</ele>
        <time>2016-06-18T13:18:04Z</time>
      </trkpt>
      <trkpt lat="48.00525" lon="6.97906">
        <ele>1195</ele>
        <time>2016-06-18T13:18:14Z</time>
      </trkpt>
      <trkpt lat="48.00519" lon="6.97884">
        <ele>1193</ele>
        <time>2016-06-18T13:18:26Z</time>
      </trkpt>
      <trkpt lat="48.00506" lon="6.9787">
        <ele>1191</ele>
        <time>2016-06-18T13:18:37Z</time>
      </trkpt>
      <trkpt lat="48.00502" lon="6.97864">
        <ele>1191</ele>
        <time>2016-06-18T13:18:42Z</time>
      </trkpt>
      <trkpt lat="48.00514" lon="6.97859">
        <ele>1190</ele>
        <time>2016-06-18T13:18:54Z</time>
      </trkpt>
      <trkpt lat="48.00528" lon="6.97864">
        <ele>1190</ele>
        <time>2016-06-18T13:19:04Z</time>
      </trkpt>
      <trkpt lat="48.00547" lon="6.97872">
        <ele>1190</ele>
        <time>2016-06-18T13:19:17Z</time>
      </trkpt>
      <trkpt lat="48.00563" lon="6.97876">
        <ele>1190</ele>
        <time>2016-06-18T13:19:29Z</time>
      </trkpt>
      <trkpt lat="48.00584" lon="6.97873">
        <ele>1193</ele>
        <time>2016-06-18T13:19:41Z</time>
      </trkpt>
      <trkpt lat="48.00597" lon="6.97866">
        <ele>1193</ele>
        <time>2016-06-18T13:19:51Z</time>
      </trkpt>
      <trkpt lat="48.00618" lon="6.97855">
        <ele>1194</ele>
        <time>2016-06-18T13:20:04Z</time>
      </trkpt>
      <trkpt lat="48.00631" lon="6.97841">
        <ele>1195</ele>
        <time>2016-06-18T13:20:15Z</time>
      </trkpt>
      <trkpt lat="48.00634" lon="6.97835">
        <ele>1196</ele>
        <time>2016-06-18T13:20:18Z</time>
      </trkpt>
      <trkpt lat="48.00646" lon="6.9782">
        <ele>1190</ele>
        <time>2016-06-18T13:20:28Z</time>
      </trkpt>
      <trkpt lat="48.00657" lon="6.97801">
        <ele>1189</ele>
        <time>2016-06-18T13:20:39Z</time>
      </trkpt>
      <trkpt lat="48.00664" lon="6.97792">
        <ele>1188</ele>
        <time>2016-06-18T13:20:45Z</time>
      </trkpt>
      <trkpt lat="48.00668" lon="6.97763">
        <ele>1197</ele>
        <time>2016-06-18T13:20:58Z</time>
      </trkpt>
      <trkpt lat="48.00677" lon="6.97745">
        <ele>1192</ele>
        <time>2016-06-18T13:21:09Z</time>
      </trkpt>
      <trkpt lat="48.00681" lon="6.97732">
        <ele>1194</ele>
        <time>2016-06-18T13:21:16Z</time>
      </trkpt>
      <trkpt lat="48.00684" lon="6.97703">
        <ele>1194</ele>
        <time>2016-06-18T13:21:28Z</time>
      </trkpt>
      <trkpt lat="48.00688" lon="6.97687">
        <ele>1192</ele>
        <time>2016-06-18T13:21:37Z</time>
      </trkpt>
      <trkpt lat="48.00689" lon="6.97662">
        <ele>1184</ele>
        <time>2016-06-18T13:21:47Z</time>
      </trkpt>
      <trkpt lat="48.0069" lon="6.97638">
        <ele>1184</ele>
        <time>2016-06-18T13:21:57Z</time>
      </trkpt>
      <trkpt lat="48.00699" lon="6.97618">
        <ele>1185</ele>
        <time>2016-06-18T13:22:11Z</time>
      </trkpt>
      <trkpt lat="48.00704" lon="6.97596">
        <ele>1184</ele>
        <time>2016-06-18T13:22:21Z</time>
      </trkpt>
      <trkpt lat="48.00705" lon="6.97587">
        <ele>1184</ele>
        <time>2016-06-18T13:22:24Z</time>
      </trkpt>
      <trkpt lat="48.00707" lon="6.97581">
        <ele>1175</ele>
        <time>2016-06-18T13:22:26Z</time>
      </trkpt>
      <trkpt lat="48.00712" lon="6.97559">
        <ele>1175</ele>
        <time>2016-06-18T13:22:37Z</time>
      </trkpt>
      <trkpt lat="48.00719" lon="6.97543">
        <ele>1174</ele>
        <time>2016-06-18T13:22:44Z</time>
      </trkpt>
      <trkpt lat="48.00724" lon="6.9753">
        <ele>1174</ele>
        <time>2016-06-18T13:22:52Z</time>
      </trkpt>
      <trkpt lat="48.00733" lon="6.97512">
        <ele>1174</ele>
        <time>2016-06-18T13:23:02Z</time>
      </trkpt>
      <trkpt lat="48.00742" lon="6.97493">
        <ele>1171</ele>
        <time>2016-06-18T13:23:12Z</time>
      </trkpt>
      <trkpt lat="48.00756" lon="6.97484">
        <ele>1182</ele>
        <time>2016-06-18T13:23:22Z</time>
      </trkpt>
      <trkpt lat="48.00764" lon="6.97464">
        <ele>1184</ele>
        <time>2016-06-18T13:23:35Z</time>
      </trkpt>
      <trkpt lat="48.00759" lon="6.97441">
        <ele>1181</ele>
        <time>2016-06-18T13:23:45Z</time>
      </trkpt>
      <trkpt lat="48.00758" lon="6.97419">
        <ele>1174</ele>
        <time>2016-06-18T13:23:55Z</time>
      </trkpt>
      <trkpt lat="48.00756" lon="6.97413">
        <ele>1172</ele>
        <time>2016-06-18T13:23:58Z</time>
      </trkpt>
      <trkpt lat="48.00757" lon="6.9739">
        <ele>1175</ele>
        <time>2016-06-18T13:24:08Z</time>
      </trkpt>
      <trkpt lat="48.00759" lon="6.97367">
        <ele>1175</ele>
        <time>2016-06-18T13:24:18Z</time>
      </trkpt>
      <trkpt lat="48.00761" lon="6.97359">
        <ele>1174</ele>
        <time>2016-06-18T13:24:21Z</time>
      </trkpt>
      <trkpt lat="48.0075" lon="6.97335">
        <ele>1166</ele>
        <time>2016-06-18T13:24:34Z</time>
      </trkpt>
      <trkpt lat="48.00746" lon="6.97304">
        <ele>1155</ele>
        <time>2016-06-18T13:24:46Z</time>
      </trkpt>
      <trkpt lat="48.00751" lon="6.97292">
        <ele>1169</ele>
        <time>2016-06-18T13:24:52Z</time>
      </trkpt>
      <trkpt lat="48.00753" lon="6.97275">
        <ele>1168</ele>
        <time>2016-06-18T13:25:02Z</time>
      </trkpt>
      <trkpt lat="48.0074" lon="6.97255">
        <ele>1158</ele>
        <time>2016-06-18T13:25:12Z</time>
      </trkpt>
      <trkpt lat="48.00736" lon="6.97247">
        <ele>1157</ele>
        <time>2016-06-18T13:25:15Z</time>
      </trkpt>
      <trkpt lat="48.00731" lon="6.97234">
        <ele>1155</ele>
        <time>2016-06-18T13:25:30Z</time>
      </trkpt>
      <trkpt lat="48.00732" lon="6.97208">
        <ele>1153</ele>
        <time>2016-06-18T13:25:41Z</time>
      </trkpt>
      <trkpt lat="48.00738" lon="6.97196">
        <ele>1153</ele>
        <time>2016-06-18T13:25:46Z</time>
      </trkpt>
      <trkpt lat="48.00747" lon="6.97176">
        <ele>1155</ele>
        <time>2016-06-18T13:25:57Z</time>
      </trkpt>
      <trkpt lat="48.00738" lon="6.97154">
        <ele>1152</ele>
        <time>2016-06-18T13:26:08Z</time>
      </trkpt>
      <trkpt lat="48.00734" lon="6.97148">
        <ele>1150</ele>
        <time>2016-06-18T13:26:13Z</time>
      </trkpt>
      <trkpt lat="48.00727" lon="6.97139">
        <ele>1149</ele>
        <time>2016-06-18T13:26:23Z</time>
      </trkpt>
      <trkpt lat="48.00713" lon="6.97126">
        <ele>1148</ele>
        <time>2016-06-18T13:26:36Z</time>
      </trkpt>
      <trkpt lat="48.0071" lon="6.9712">
        <ele>1147</ele>
        <time>2016-06-18T13:26:42Z</time>
      </trkpt>
      <trkpt lat="48.00706" lon="6.97107">
        <ele>1147</ele>
        <time>2016-06-18T13:26:52Z</time>
      </trkpt>
      <trkpt lat="48.00693" lon="6.9709">
        <ele>1145</ele>
        <time>2016-06-18T13:27:03Z</time>
      </trkpt>
      <trkpt lat="48.00681" lon="6.97065">
        <ele>1140</ele>
        <time>2016-06-18T13:27:15Z</time>
      </trkpt>
      <trkpt lat="48.00678" lon="6.97058">
        <ele>1140</ele>
        <time>2016-06-18T13:27:18Z</time>
      </trkpt>
      <trkpt lat="48.00664" lon="6.97037">
        <ele>1132</ele>
        <time>2016-06-18T13:27:29Z</time>
      </trkpt>
      <trkpt lat="48.00657" lon="6.97027">
        <ele>1132</ele>
        <time>2016-06-18T13:27:38Z</time>
      </trkpt>
      <trkpt lat="48.00652" lon="6.97004">
        <ele>1132</ele>
        <time>2016-06-18T13:27:48Z</time>
      </trkpt>
      <trkpt lat="48.0065" lon="6.96984">
        <ele>1127</ele>
        <time>2016-06-18T13:28:01Z</time>
      </trkpt>
      <trkpt lat="48.00649" lon="6.96977">
        <ele>1126</ele>
        <time>2016-06-18T13:28:13Z</time>
      </trkpt>
      <trkpt lat="48.00645" lon="6.96954">
        <ele>1124</ele>
        <time>2016-06-18T13:28:24Z</time>
      </trkpt>
      <trkpt lat="48.00638" lon="6.96926">
        <ele>1122</ele>
        <time>2016-06-18T13:28:36Z</time>
      </trkpt>
      <trkpt lat="48.00631" lon="6.96913">
        <ele>1114</ele>
        <time>2016-06-18T13:28:43Z</time>
      </trkpt>
      <trkpt lat="48.0062" lon="6.96895">
        <ele>1111</ele>
        <time>2016-06-18T13:28:54Z</time>
      </trkpt>
      <trkpt lat="48.00608" lon="6.96893">
        <ele>1110</ele>
        <time>2016-06-18T13:29:07Z</time>
      </trkpt>
      <trkpt lat="48.00604" lon="6.96907">
        <ele>1110</ele>
        <time>2016-06-18T13:29:19Z</time>
      </trkpt>
      <trkpt lat="48.00591" lon="6.96929">
        <ele>1115</ele>
        <time>2016-06-18T13:29:32Z</time>
      </trkpt>
      <trkpt lat="48.00587" lon="6.9693">
        <ele>1114</ele>
        <time>2016-06-18T13:29:44Z</time>
      </trkpt>
      <trkpt lat="48.00588" lon="6.96915">
        <ele>1109</ele>
        <time>2016-06-18T13:29:55Z</time>
      </trkpt>
      <trkpt lat="48.00581" lon="6.96908">
        <ele>1101</ele>
        <time>2016-06-18T13:30:07Z</time>
      </trkpt>
      <trkpt lat="48.00578" lon="6.96915">
        <ele>1104</ele>
        <time>2016-06-18T13:30:10Z</time>
      </trkpt>
      <trkpt lat="48.00568" lon="6.9692">
        <ele>1100</ele>
        <time>2016-06-18T13:30:33Z</time>
      </trkpt>
      <trkpt lat="48.00556" lon="6.96922">
        <ele>1095</ele>
        <time>2016-06-18T13:30:46Z</time>
      </trkpt>
      <trkpt lat="48.00548" lon="6.96912">
        <ele>1086</ele>
        <time>2016-06-18T13:30:58Z</time>
      </trkpt>
      <trkpt lat="48.00544" lon="6.96917">
        <ele>1084</ele>
        <time>2016-06-18T13:31:01Z</time>
      </trkpt>
      <trkpt lat="48.00536" lon="6.96934">
        <ele>1088</ele>
        <time>2016-06-18T13:31:11Z</time>
      </trkpt>
      <trkpt lat="48.00529" lon="6.96927">
        <ele>1085</ele>
        <time>2016-06-18T13:31:27Z</time>
      </trkpt>
      <trkpt lat="48.00524" lon="6.96914">
        <ele>1077</ele>
        <time>2016-06-18T13:31:33Z</time>
      </trkpt>
      <trkpt lat="48.0052" lon="6.96905">
        <ele>1076</ele>
        <time>2016-06-18T13:31:55Z</time>
      </trkpt>
      <trkpt lat="48.00516" lon="6.96902">
        <ele>1075</ele>
        <time>2016-06-18T13:32:15Z</time>
      </trkpt>
      <trkpt lat="48.00505" lon="6.96889">
        <ele>1074</ele>
        <time>2016-06-18T13:32:25Z</time>
      </trkpt>
      <trkpt lat="48.00495" lon="6.96868">
        <ele>1050</ele>
        <time>2016-06-18T13:32:36Z</time>
      </trkpt>
      <trkpt lat="48.00485" lon="6.96847">
        <ele>1051</ele>
        <time>2016-06-18T13:32:47Z</time>
      </trkpt>
      <trkpt lat="48.00479" lon="6.96838">
        <ele>1050</ele>
        <time>2016-06-18T13:32:59Z</time>
      </trkpt>
      <trkpt lat="48.00477" lon="6.96831">
        <ele>1047</ele>
        <time>2016-06-18T13:33:08Z</time>
      </trkpt>
      <trkpt lat="48.00473" lon="6.96827">
        <ele>1045</ele>
        <time>2016-06-18T13:33:18Z</time>
      </trkpt>
      <trkpt lat="48.00458" lon="6.9682">
        <ele>1041</ele>
        <time>2016-06-18T13:33:30Z</time>
      </trkpt>
      <trkpt lat="48.0045" lon="6.9681">
        <ele>1039</ele>
        <time>2016-06-18T13:33:40Z</time>
      </trkpt>
      <trkpt lat="48.00446" lon="6.96806">
        <ele>1039</ele>
        <time>2016-06-18T13:34:18Z</time>
      </trkpt>
      <trkpt lat="48.00444" lon="6.96814">
        <ele>1038</ele>
        <time>2016-06-18T13:36:03Z</time>
      </trkpt>
      <trkpt lat="48.00436" lon="6.96815">
        <ele>1036</ele>
        <time>2016-06-18T13:36:13Z</time>
      </trkpt>
      <trkpt lat="48.00425" lon="6.96809">
        <ele>1035</ele>
        <time>2016-06-18T13:36:23Z</time>
      </trkpt>
      <trkpt lat="48.00422" lon="6.96804">
        <ele>1036</ele>
        <time>2016-06-18T13:36:29Z</time>
      </trkpt>
      <trkpt lat="48.00421" lon="6.96797">
        <ele>1036</ele>
        <time>2016-06-18T13:36:34Z</time>
      </trkpt>
      <trkpt lat="48.00417" lon="6.96778">
        <ele>1035</ele>
        <time>2016-06-18T13:36:44Z</time>
      </trkpt>
      <trkpt lat="48.00414" lon="6.96773">
        <ele>1024</ele>
        <time>2016-06-18T13:36:46Z</time>
      </trkpt>
      <trkpt lat="48.00403" lon="6.9675">
        <ele>1026</ele>
        <time>2016-06-18T13:37:00Z</time>
      </trkpt>
      <trkpt lat="48.00402" lon="6.96743">
        <ele>1027</ele>
        <time>2016-06-18T13:37:02Z</time>
      </trkpt>
      <trkpt lat="48.00384" lon="6.96712">
        <ele>1024</ele>
        <time>2016-06-18T13:37:13Z</time>
      </trkpt>
      <trkpt lat="48.00383" lon="6.96695">
        <ele>1024</ele>
        <time>2016-06-18T13:37:19Z</time>
      </trkpt>
      <trkpt lat="48.0038" lon="6.96688">
        <ele>1024</ele>
        <time>2016-06-18T13:37:27Z</time>
      </trkpt>
      <trkpt lat="48.00377" lon="6.96681">
        <ele>1024</ele>
        <time>2016-06-18T13:37:31Z</time>
      </trkpt>
      <trkpt lat="48.00373" lon="6.96658">
        <ele>1024</ele>
        <time>2016-06-18T13:37:43Z</time>
      </trkpt>
      <trkpt lat="48.00366" lon="6.96647">
        <ele>1025</ele>
        <time>2016-06-18T13:37:48Z</time>
      </trkpt>
      <trkpt lat="48.0036" lon="6.96625">
        <ele>1026</ele>
        <time>2016-06-18T13:37:59Z</time>
      </trkpt>
      <trkpt lat="48.00357" lon="6.9662">
        <ele>1026</ele>
        <time>2016-06-18T13:38:01Z</time>
      </trkpt>
      <trkpt lat="48.00347" lon="6.96599">
        <ele>1029</ele>
        <time>2016-06-18T13:38:14Z</time>
      </trkpt>
      <trkpt lat="48.0034" lon="6.96586">
        <ele>1033</ele>
        <time>2016-06-18T13:38:20Z</time>
      </trkpt>
      <trkpt lat="48.0033" lon="6.96568">
        <ele>1037</ele>
        <time>2016-06-18T13:38:30Z</time>
      </trkpt>
      <trkpt lat="48.00323" lon="6.96557">
        <ele>1038</ele>
        <time>2016-06-18T13:38:38Z</time>
      </trkpt>
      <trkpt lat="48.00318" lon="6.96556">
        <ele>1038</ele>
        <time>2016-06-18T13:38:41Z</time>
      </trkpt>
      <trkpt lat="48.00312" lon="6.96544">
        <ele>1038</ele>
        <time>2016-06-18T13:38:47Z</time>
      </trkpt>
      <trkpt lat="48.00298" lon="6.96533">
        <ele>1040</ele>
        <time>2016-06-18T13:39:01Z</time>
      </trkpt>
      <trkpt lat="48.00286" lon="6.96522">
        <ele>1041</ele>
        <time>2016-06-18T13:39:14Z</time>
      </trkpt>
      <trkpt lat="48.00282" lon="6.96518">
        <ele>1042</ele>
        <time>2016-06-18T13:39:17Z</time>
      </trkpt>
      <trkpt lat="48.00276" lon="6.96508">
        <ele>1044</ele>
        <time>2016-06-18T13:39:25Z</time>
      </trkpt>
      <trkpt lat="48.00269" lon="6.96497">
        <ele>1045</ele>
        <time>2016-06-18T13:39:39Z</time>
      </trkpt>
      <trkpt lat="48.00254" lon="6.9648">
        <ele>1046</ele>
        <time>2016-06-18T13:39:50Z</time>
      </trkpt>
      <trkpt lat="48.00243" lon="6.96463">
        <ele>1057</ele>
        <time>2016-06-18T13:40:02Z</time>
      </trkpt>
      <trkpt lat="48.00233" lon="6.96456">
        <ele>1057</ele>
        <time>2016-06-18T13:40:09Z</time>
      </trkpt>
      <trkpt lat="48.00228" lon="6.96455">
        <ele>1057</ele>
        <time>2016-06-18T13:40:14Z</time>
      </trkpt>
      <trkpt lat="48.00213" lon="6.96444">
        <ele>1059</ele>
        <time>2016-06-18T13:40:25Z</time>
      </trkpt>
      <trkpt lat="48.00204" lon="6.96437">
        <ele>1060</ele>
        <time>2016-06-18T13:40:31Z</time>
      </trkpt>
      <trkpt lat="48.00188" lon="6.96427">
        <ele>1063</ele>
        <time>2016-06-18T13:40:42Z</time>
      </trkpt>
      <trkpt lat="48.00178" lon="6.96424">
        <ele>1067</ele>
        <time>2016-06-18T13:40:50Z</time>
      </trkpt>
      <trkpt lat="48.00169" lon="6.96422">
        <ele>1070</ele>
        <time>2016-06-18T13:40:58Z</time>
      </trkpt>
      <trkpt lat="48.0016" lon="6.96417">
        <ele>1070</ele>
        <time>2016-06-18T13:41:14Z</time>
      </trkpt>
      <trkpt lat="48.00143" lon="6.96416">
        <ele>1078</ele>
        <time>2016-06-18T13:41:25Z</time>
      </trkpt>
      <trkpt lat="48.00128" lon="6.9642">
        <ele>1064</ele>
        <time>2016-06-18T13:41:35Z</time>
      </trkpt>
      <trkpt lat="48.00112" lon="6.96425">
        <ele>1063</ele>
        <time>2016-06-18T13:41:44Z</time>
      </trkpt>
      <trkpt lat="48.00096" lon="6.96429">
        <ele>1064</ele>
        <time>2016-06-18T13:41:54Z</time>
      </trkpt>
      <trkpt lat="48.00075" lon="6.9643">
        <ele>1059</ele>
        <time>2016-06-18T13:42:06Z</time>
      </trkpt>
      <trkpt lat="48.00054" lon="6.96431">
        <ele>1054</ele>
        <time>2016-06-18T13:42:19Z</time>
      </trkpt>
      <trkpt lat="48.00042" lon="6.96425">
        <ele>1054</ele>
        <time>2016-06-18T13:42:25Z</time>
      </trkpt>
      <trkpt lat="48.00036" lon="6.96423">
        <ele>1053</ele>
        <time>2016-06-18T13:42:29Z</time>
      </trkpt>
      <trkpt lat="48.00022" lon="6.9642">
        <ele>1054</ele>
        <time>2016-06-18T13:42:40Z</time>
      </trkpt>
      <trkpt lat="48.00018" lon="6.96416">
        <ele>1069</ele>
        <time>2016-06-18T13:42:44Z</time>
      </trkpt>
      <trkpt lat="47.99999" lon="6.96401">
        <ele>1064</ele>
        <time>2016-06-18T13:43:04Z</time>
      </trkpt>
      <trkpt lat="47.99982" lon="6.96384">
        <ele>1068</ele>
        <time>2016-06-18T13:43:17Z</time>
      </trkpt>
      <trkpt lat="47.99968" lon="6.96372">
        <ele>1070</ele>
        <time>2016-06-18T13:43:30Z</time>
      </trkpt>
      <trkpt lat="47.99953" lon="6.96356">
        <ele>1072</ele>
        <time>2016-06-18T13:43:41Z</time>
      </trkpt>
      <trkpt lat="47.99936" lon="6.96342">
        <ele>1073</ele>
        <time>2016-06-18T13:43:51Z</time>
      </trkpt>
      <trkpt lat="47.99932" lon="6.9634">
        <ele>1074</ele>
        <time>2016-06-18T13:43:58Z</time>
      </trkpt>
      <trkpt lat="47.99926" lon="6.96338">
        <ele>1075</ele>
        <time>2016-06-18T13:44:08Z</time>
      </trkpt>
      <trkpt lat="47.99913" lon="6.96331">
        <ele>1080</ele>
        <time>2016-06-18T13:44:18Z</time>
      </trkpt>
      <trkpt lat="47.99898" lon="6.96321">
        <ele>1083</ele>
        <time>2016-06-18T13:44:30Z</time>
      </trkpt>
      <trkpt lat="47.99884" lon="6.96313">
        <ele>1084</ele>
        <time>2016-06-18T13:44:41Z</time>
      </trkpt>
      <trkpt lat="47.99877" lon="6.96302">
        <ele>1086</ele>
        <time>2016-06-18T13:44:51Z</time>
      </trkpt>
      <trkpt lat="47.99868" lon="6.96297">
        <ele>1086</ele>
        <time>2016-06-18T13:45:04Z</time>
      </trkpt>
      <trkpt lat="47.99855" lon="6.96286">
        <ele>1087</ele>
        <time>2016-06-18T13:45:15Z</time>
      </trkpt>
      <trkpt lat="47.99841" lon="6.96282">
        <ele>1087</ele>
        <time>2016-06-18T13:45:29Z</time>
      </trkpt>
      <trkpt lat="47.99825" lon="6.96275">
        <ele>1078</ele>
        <time>2016-06-18T13:45:40Z</time>
      </trkpt>
      <trkpt lat="47.99812" lon="6.96265">
        <ele>1079</ele>
        <time>2016-06-18T13:45:55Z</time>
      </trkpt>
      <trkpt lat="47.99802" lon="6.96248">
        <ele>1091</ele>
        <time>2016-06-18T13:46:06Z</time>
      </trkpt>
      <trkpt lat="47.99792" lon="6.96229">
        <ele>1089</ele>
        <time>2016-06-18T13:46:16Z</time>
      </trkpt>
      <trkpt lat="47.9979" lon="6.96215">
        <ele>1090</ele>
        <time>2016-06-18T13:46:26Z</time>
      </trkpt>
      <trkpt lat="47.99789" lon="6.96196">
        <ele>1090</ele>
        <time>2016-06-18T13:46:36Z</time>
      </trkpt>
      <trkpt lat="47.99789" lon="6.96183">
        <ele>1091</ele>
        <time>2016-06-18T13:46:46Z</time>
      </trkpt>
      <trkpt lat="47.9979" lon="6.96162">
        <ele>1093</ele>
        <time>2016-06-18T13:46:58Z</time>
      </trkpt>
      <trkpt lat="47.99788" lon="6.96139">
        <ele>1092</ele>
        <time>2016-06-18T13:47:13Z</time>
      </trkpt>
      <trkpt lat="47.99791" lon="6.96125">
        <ele>1092</ele>
        <time>2016-06-18T13:47:22Z</time>
      </trkpt>
      <trkpt lat="47.99794" lon="6.96111">
        <ele>1093</ele>
        <time>2016-06-18T13:47:32Z</time>
      </trkpt>
      <trkpt lat="47.998" lon="6.96099">
        <ele>1095</ele>
        <time>2016-06-18T13:47:43Z</time>
      </trkpt>
      <trkpt lat="47.99804" lon="6.96081">
        <ele>1090</ele>
        <time>2016-06-18T13:47:55Z</time>
      </trkpt>
      <trkpt lat="47.99807" lon="6.96077">
        <ele>1092</ele>
        <time>2016-06-18T13:47:59Z</time>
      </trkpt>
      <trkpt lat="47.99818" lon="6.96062">
        <ele>1093</ele>
        <time>2016-06-18T13:48:10Z</time>
      </trkpt>
      <trkpt lat="47.99825" lon="6.96053">
        <ele>1092</ele>
        <time>2016-06-18T13:48:24Z</time>
      </trkpt>
      <trkpt lat="47.99835" lon="6.96036">
        <ele>1115</ele>
        <time>2016-06-18T13:48:35Z</time>
      </trkpt>
      <trkpt lat="47.9985" lon="6.96023">
        <ele>1114</ele>
        <time>2016-06-18T13:48:47Z</time>
      </trkpt>
      <trkpt lat="47.99865" lon="6.96015">
        <ele>1117</ele>
        <time>2016-06-18T13:49:00Z</time>
      </trkpt>
      <trkpt lat="47.9987" lon="6.96012">
        <ele>1119</ele>
        <time>2016-06-18T13:49:04Z</time>
      </trkpt>
      <trkpt lat="47.99878" lon="6.95992">
        <ele>1109</ele>
        <time>2016-06-18T13:49:17Z</time>
      </trkpt>
      <trkpt lat="47.99882" lon="6.95965">
        <ele>1106</ele>
        <time>2016-06-18T13:49:31Z</time>
      </trkpt>
      <trkpt lat="47.9989" lon="6.95955">
        <ele>1106</ele>
        <time>2016-06-18T13:49:37Z</time>
      </trkpt>
      <trkpt lat="47.99903" lon="6.95943">
        <ele>1107</ele>
        <time>2016-06-18T13:49:48Z</time>
      </trkpt>
      <trkpt lat="47.99913" lon="6.95934">
        <ele>1108</ele>
        <time>2016-06-18T13:49:55Z</time>
      </trkpt>
      <trkpt lat="47.99916" lon="6.95928">
        <ele>1109</ele>
        <time>2016-06-18T13:49:57Z</time>
      </trkpt>
      <trkpt lat="47.99924" lon="6.95924">
        <ele>1119</ele>
        <time>2016-06-18T13:50:07Z</time>
      </trkpt>
      <trkpt lat="47.99939" lon="6.95919">
        <ele>1125</ele>
        <time>2016-06-18T13:50:18Z</time>
      </trkpt>
      <trkpt lat="47.99944" lon="6.95913">
        <ele>1111</ele>
        <time>2016-06-18T13:50:21Z</time>
      </trkpt>
      <trkpt lat="47.99948" lon="6.95905">
        <ele>1111</ele>
        <time>2016-06-18T13:50:24Z</time>
      </trkpt>
      <trkpt lat="47.99949" lon="6.9589">
        <ele>1109</ele>
        <time>2016-06-18T13:50:33Z</time>
      </trkpt>
      <trkpt lat="47.99962" lon="6.95869">
        <ele>1108</ele>
        <time>2016-06-18T13:50:45Z</time>
      </trkpt>
      <trkpt lat="47.99972" lon="6.95851">
        <ele>1107</ele>
        <time>2016-06-18T13:50:57Z</time>
      </trkpt>
      <trkpt lat="47.99984" lon="6.95829">
        <ele>1094</ele>
        <time>2016-06-18T13:51:08Z</time>
      </trkpt>
      <trkpt lat="47.99995" lon="6.95808">
        <ele>1089</ele>
        <time>2016-06-18T13:51:18Z</time>
      </trkpt>
      <trkpt lat="47.99997" lon="6.95801">
        <ele>1087</ele>
        <time>2016-06-18T13:51:22Z</time>
      </trkpt>
      <trkpt lat="48.00007" lon="6.95782">
        <ele>1101</ele>
        <time>2016-06-18T13:51:33Z</time>
      </trkpt>
      <trkpt lat="48.0001" lon="6.95776">
        <ele>1100</ele>
        <time>2016-06-18T13:51:36Z</time>
      </trkpt>
      <trkpt lat="48.00021" lon="6.95758">
        <ele>1097</ele>
        <time>2016-06-18T13:51:44Z</time>
      </trkpt>
      <trkpt lat="48.00035" lon="6.95733">
        <ele>1088</ele>
        <time>2016-06-18T13:51:56Z</time>
      </trkpt>
      <trkpt lat="48.00042" lon="6.95714">
        <ele>1088</ele>
        <time>2016-06-18T13:52:07Z</time>
      </trkpt>
      <trkpt lat="48.0005" lon="6.95701">
        <ele>1088</ele>
        <time>2016-06-18T13:52:17Z</time>
      </trkpt>
      <trkpt lat="48.00065" lon="6.9568">
        <ele>1090</ele>
        <time>2016-06-18T13:52:28Z</time>
      </trkpt>
      <trkpt lat="48.00058" lon="6.9564">
        <ele>1076</ele>
        <time>2016-06-18T13:52:39Z</time>
      </trkpt>
      <trkpt lat="48.00057" lon="6.95629">
        <ele>1075</ele>
        <time>2016-06-18T13:52:43Z</time>
      </trkpt>
      <trkpt lat="48.00053" lon="6.95607">
        <ele>1073</ele>
        <time>2016-06-18T13:52:55Z</time>
      </trkpt>
      <trkpt lat="48.00046" lon="6.95585">
        <ele>1070</ele>
        <time>2016-06-18T13:53:02Z</time>
      </trkpt>
      <trkpt lat="48.00045" lon="6.95558">
        <ele>1067</ele>
        <time>2016-06-18T13:53:13Z</time>
      </trkpt>
      <trkpt lat="48.00043" lon="6.95551">
        <ele>1066</ele>
        <time>2016-06-18T13:53:16Z</time>
      </trkpt>
      <trkpt lat="48.00036" lon="6.95528">
        <ele>1065</ele>
        <time>2016-06-18T13:53:26Z</time>
      </trkpt>
      <trkpt lat="48.00027" lon="6.95507">
        <ele>1062</ele>
        <time>2016-06-18T13:53:40Z</time>
      </trkpt>
      <trkpt lat="48.00022" lon="6.95481">
        <ele>1062</ele>
        <time>2016-06-18T13:53:51Z</time>
      </trkpt>
      <trkpt lat="48.0002" lon="6.95466">
        <ele>1063</ele>
        <time>2016-06-18T13:54:03Z</time>
      </trkpt>
      <trkpt lat="48.00015" lon="6.95443">
        <ele>1062</ele>
        <time>2016-06-18T13:54:16Z</time>
      </trkpt>
      <trkpt lat="48.00008" lon="6.95411">
        <ele>1057</ele>
        <time>2016-06-18T13:54:27Z</time>
      </trkpt>
      <trkpt lat="48.00009" lon="6.95402">
        <ele>1060</ele>
        <time>2016-06-18T13:54:32Z</time>
      </trkpt>
      <trkpt lat="48.00013" lon="6.95372">
        <ele>1063</ele>
        <time>2016-06-18T13:54:46Z</time>
      </trkpt>
      <trkpt lat="48.0001" lon="6.95341">
        <ele>1056</ele>
        <time>2016-06-18T13:54:56Z</time>
      </trkpt>
      <trkpt lat="48.00012" lon="6.95306">
        <ele>1060</ele>
        <time>2016-06-18T13:55:06Z</time>
      </trkpt>
      <trkpt lat="48.00006" lon="6.95287">
        <ele>1060</ele>
        <time>2016-06-18T13:55:15Z</time>
      </trkpt>
      <trkpt lat="47.99998" lon="6.95258">
        <ele>1040</ele>
        <time>2016-06-18T13:55:27Z</time>
      </trkpt>
      <trkpt lat="47.99994" lon="6.95231">
        <ele>1031</ele>
        <time>2016-06-18T13:55:38Z</time>
      </trkpt>
      <trkpt lat="47.99996" lon="6.95199">
        <ele>1026</ele>
        <time>2016-06-18T13:55:50Z</time>
      </trkpt>
      <trkpt lat="48" lon="6.95182">
        <ele>1029</ele>
        <time>2016-06-18T13:55:55Z</time>
      </trkpt>
      <trkpt lat="47.99999" lon="6.95167">
        <ele>1036</ele>
        <time>2016-06-18T13:56:07Z</time>
      </trkpt>
      <trkpt lat="47.99996" lon="6.95142">
        <ele>1023</ele>
        <time>2016-06-18T13:56:17Z</time>
      </trkpt>
      <trkpt lat="47.99994" lon="6.95124">
        <ele>1020</ele>
        <time>2016-06-18T13:56:23Z</time>
      </trkpt>
      <trkpt lat="47.99985" lon="6.9509">
        <ele>1022</ele>
        <time>2016-06-18T13:56:35Z</time>
      </trkpt>
      <trkpt lat="47.99988" lon="6.9506">
        <ele>1018</ele>
        <time>2016-06-18T13:56:46Z</time>
      </trkpt>
      <trkpt lat="47.99989" lon="6.95047">
        <ele>1016</ele>
        <time>2016-06-18T13:56:57Z</time>
      </trkpt>
      <trkpt lat="47.99992" lon="6.95041">
        <ele>1016</ele>
        <time>2016-06-18T13:57:08Z</time>
      </trkpt>
      <trkpt lat="48.00007" lon="6.95027">
        <ele>1036</ele>
        <time>2016-06-18T13:57:22Z</time>
      </trkpt>
      <trkpt lat="48.00016" lon="6.95005">
        <ele>1034</ele>
        <time>2016-06-18T13:57:34Z</time>
      </trkpt>
      <trkpt lat="48.00019" lon="6.94995">
        <ele>1032</ele>
        <time>2016-06-18T13:57:36Z</time>
      </trkpt>
      <trkpt lat="48.00016" lon="6.94963">
        <ele>1032</ele>
        <time>2016-06-18T13:57:46Z</time>
      </trkpt>
      <trkpt lat="48.00014" lon="6.94957">
        <ele>1031</ele>
        <time>2016-06-18T13:57:50Z</time>
      </trkpt>
      <trkpt lat="48.0001" lon="6.94952">
        <ele>1030</ele>
        <time>2016-06-18T13:57:56Z</time>
      </trkpt>
      <trkpt lat="48.00007" lon="6.94937">
        <ele>1027</ele>
        <time>2016-06-18T13:58:08Z</time>
      </trkpt>
      <trkpt lat="47.99992" lon="6.9489">
        <ele>998</ele>
        <time>2016-06-18T13:58:21Z</time>
      </trkpt>
      <trkpt lat="47.99991" lon="6.94883">
        <ele>996</ele>
        <time>2016-06-18T13:58:24Z</time>
      </trkpt>
      <trkpt lat="47.99989" lon="6.94866">
        <ele>994</ele>
        <time>2016-06-18T13:58:50Z</time>
      </trkpt>
      <trkpt lat="47.99989" lon="6.94836">
        <ele>998</ele>
        <time>2016-06-18T13:59:06Z</time>
      </trkpt>
      <trkpt lat="47.9999" lon="6.94819">
        <ele>990</ele>
        <time>2016-06-18T13:59:17Z</time>
      </trkpt>
      <trkpt lat="47.99998" lon="6.94789">
        <ele>983</ele>
        <time>2016-06-18T13:59:29Z</time>
      </trkpt>
      <trkpt lat="48.00004" lon="6.94778">
        <ele>1006</ele>
        <time>2016-06-18T13:59:40Z</time>
      </trkpt>
      <trkpt lat="48" lon="6.94755">
        <ele>995</ele>
        <time>2016-06-18T13:59:50Z</time>
      </trkpt>
      <trkpt lat="48.00003" lon="6.94748">
        <ele>992</ele>
        <time>2016-06-18T13:59:56Z</time>
      </trkpt>
      <trkpt lat="48.00001" lon="6.94739">
        <ele>993</ele>
        <time>2016-06-18T14:00:00Z</time>
      </trkpt>
      <trkpt lat="47.99999" lon="6.94718">
        <ele>975</ele>
        <time>2016-06-18T14:00:10Z</time>
      </trkpt>
      <trkpt lat="47.99998" lon="6.94696">
        <ele>973</ele>
        <time>2016-06-18T14:00:20Z</time>
      </trkpt>
      <trkpt lat="48" lon="6.94682">
        <ele>986</ele>
        <time>2016-06-18T14:00:30Z</time>
      </trkpt>
      <trkpt lat="48.0001" lon="6.94664">
        <ele>979</ele>
        <time>2016-06-18T14:00:44Z</time>
      </trkpt>
      <trkpt lat="48.00023" lon="6.94655">
        <ele>980</ele>
        <time>2016-06-18T14:01:00Z</time>
      </trkpt>
      <trkpt lat="48.00024" lon="6.94641">
        <ele>979</ele>
        <time>2016-06-18T14:01:14Z</time>
      </trkpt>
      <trkpt lat="48.0003" lon="6.94628">
        <ele>979</ele>
        <time>2016-06-18T14:01:26Z</time>
      </trkpt>
      <trkpt lat="48.00046" lon="6.94623">
        <ele>979</ele>
        <time>2016-06-18T14:01:40Z</time>
      </trkpt>
      <trkpt lat="48.00047" lon="6.94611">
        <ele>978</ele>
        <time>2016-06-18T14:01:42Z</time>
      </trkpt>
      <trkpt lat="48.00049" lon="6.94595">
        <ele>976</ele>
        <time>2016-06-18T14:01:49Z</time>
      </trkpt>
      <trkpt lat="48.0005" lon="6.94588">
        <ele>976</ele>
        <time>2016-06-18T14:01:54Z</time>
      </trkpt>
      <trkpt lat="48.00059" lon="6.94568">
        <ele>970</ele>
        <time>2016-06-18T14:02:06Z</time>
      </trkpt>
      <trkpt lat="48.00065" lon="6.9454">
        <ele>969</ele>
        <time>2016-06-18T14:02:16Z</time>
      </trkpt>
      <trkpt lat="48.00058" lon="6.94514">
        <ele>968</ele>
        <time>2016-06-18T14:02:24Z</time>
      </trkpt>
      <trkpt lat="48.00059" lon="6.94507">
        <ele>968</ele>
        <time>2016-06-18T14:02:27Z</time>
      </trkpt>
      <trkpt lat="48.0006" lon="6.94493">
        <ele>968</ele>
        <time>2016-06-18T14:02:33Z</time>
      </trkpt>
      <trkpt lat="48.00061" lon="6.94463">
        <ele>968</ele>
        <time>2016-06-18T14:02:46Z</time>
      </trkpt>
      <trkpt lat="48.00059" lon="6.94455">
        <ele>969</ele>
        <time>2016-06-18T14:02:50Z</time>
      </trkpt>
      <trkpt lat="48.00051" lon="6.94439">
        <ele>969</ele>
        <time>2016-06-18T14:02:59Z</time>
      </trkpt>
      <trkpt lat="48.00044" lon="6.94427">
        <ele>970</ele>
        <time>2016-06-18T14:03:09Z</time>
      </trkpt>
      <trkpt lat="48.0003" lon="6.94417">
        <ele>973</ele>
        <time>2016-06-18T14:03:21Z</time>
      </trkpt>
      <trkpt lat="48.00024" lon="6.94405">
        <ele>977</ele>
        <time>2016-06-18T14:03:28Z</time>
      </trkpt>
      <trkpt lat="48.00027" lon="6.94382">
        <ele>977</ele>
        <time>2016-06-18T14:03:40Z</time>
      </trkpt>
      <trkpt lat="48.00031" lon="6.94358">
        <ele>978</ele>
        <time>2016-06-18T14:03:51Z</time>
      </trkpt>
      <trkpt lat="48.00041" lon="6.94329">
        <ele>979</ele>
        <time>2016-06-18T14:04:05Z</time>
      </trkpt>
      <trkpt lat="48.00044" lon="6.94322">
        <ele>978</ele>
        <time>2016-06-18T14:04:10Z</time>
      </trkpt>
      <trkpt lat="48.00053" lon="6.94296">
        <ele>976</ele>
        <time>2016-06-18T14:04:22Z</time>
      </trkpt>
      <trkpt lat="48.00051" lon="6.94273">
        <ele>976</ele>
        <time>2016-06-18T14:04:35Z</time>
      </trkpt>
      <trkpt lat="48.0005" lon="6.94258">
        <ele>976</ele>
        <time>2016-06-18T14:04:43Z</time>
      </trkpt>
      <trkpt lat="48.00047" lon="6.94251">
        <ele>977</ele>
        <time>2016-06-18T14:04:46Z</time>
      </trkpt>
      <trkpt lat="48.00043" lon="6.94247">
        <ele>976</ele>
        <time>2016-06-18T14:04:49Z</time>
      </trkpt>
      <trkpt lat="48.0004" lon="6.94242">
        <ele>977</ele>
        <time>2016-06-18T14:04:52Z</time>
      </trkpt>
      <trkpt lat="48.00032" lon="6.94221">
        <ele>978</ele>
        <time>2016-06-18T14:05:05Z</time>
      </trkpt>
      <trkpt lat="48.0003" lon="6.94213">
        <ele>978</ele>
        <time>2016-06-18T14:05:09Z</time>
      </trkpt>
      <trkpt lat="48.0002" lon="6.94195">
        <ele>979</ele>
        <time>2016-06-18T14:05:21Z</time>
      </trkpt>
      <trkpt lat="48.00011" lon="6.94176">
        <ele>983</ele>
        <time>2016-06-18T14:05:32Z</time>
      </trkpt>
      <trkpt lat="48.00009" lon="6.94154">
        <ele>977</ele>
        <time>2016-06-18T14:05:43Z</time>
      </trkpt>
      <trkpt lat="48" lon="6.94135">
        <ele>971</ele>
        <time>2016-06-18T14:05:55Z</time>
      </trkpt>
      <trkpt lat="47.99992" lon="6.94116">
        <ele>993</ele>
        <time>2016-06-18T14:06:09Z</time>
      </trkpt>
      <trkpt lat="47.99981" lon="6.94099">
        <ele>991</ele>
        <time>2016-06-18T14:06:22Z</time>
      </trkpt>
      <trkpt lat="47.99971" lon="6.94083">
        <ele>985</ele>
        <time>2016-06-18T14:06:34Z</time>
      </trkpt>
      <trkpt lat="47.99959" lon="6.94066">
        <ele>987</ele>
        <time>2016-06-18T14:06:45Z</time>
      </trkpt>
      <trkpt lat="47.99954" lon="6.94061">
        <ele>988</ele>
        <time>2016-06-18T14:06:49Z</time>
      </trkpt>
      <trkpt lat="47.99942" lon="6.94046">
        <ele>989</ele>
        <time>2016-06-18T14:07:02Z</time>
      </trkpt>
      <trkpt lat="47.99931" lon="6.94031">
        <ele>990</ele>
        <time>2016-06-18T14:07:14Z</time>
      </trkpt>
      <trkpt lat="47.99919" lon="6.94017">
        <ele>992</ele>
        <time>2016-06-18T14:07:24Z</time>
      </trkpt>
      <trkpt lat="47.99915" lon="6.9401">
        <ele>1002</ele>
        <time>2016-06-18T14:07:27Z</time>
      </trkpt>
      <trkpt lat="47.99906" lon="6.94004">
        <ele>1002</ele>
        <time>2016-06-18T14:07:35Z</time>
      </trkpt>
      <trkpt lat="47.99893" lon="6.93986">
        <ele>997</ele>
        <time>2016-06-18T14:07:47Z</time>
      </trkpt>
      <trkpt lat="47.99879" lon="6.93979">
        <ele>998</ele>
        <time>2016-06-18T14:08:00Z</time>
      </trkpt>
      <trkpt lat="47.99864" lon="6.9397">
        <ele>999</ele>
        <time>2016-06-18T14:08:12Z</time>
      </trkpt>
      <trkpt lat="47.99849" lon="6.93964">
        <ele>1000</ele>
        <time>2016-06-18T14:08:24Z</time>
      </trkpt>
      <trkpt lat="47.99833" lon="6.9396">
        <ele>1010</ele>
        <time>2016-06-18T14:08:35Z</time>
      </trkpt>
      <trkpt lat="47.99828" lon="6.9396">
        <ele>1010</ele>
        <time>2016-06-18T14:08:40Z</time>
      </trkpt>
      <trkpt lat="47.99811" lon="6.93962">
        <ele>1011</ele>
        <time>2016-06-18T14:08:53Z</time>
      </trkpt>
      <trkpt lat="47.99795" lon="6.93956">
        <ele>1011</ele>
        <time>2016-06-18T14:09:04Z</time>
      </trkpt>
      <trkpt lat="47.99781" lon="6.93953">
        <ele>1011</ele>
        <time>2016-06-18T14:09:14Z</time>
      </trkpt>
      <trkpt lat="47.99766" lon="6.93947">
        <ele>1011</ele>
        <time>2016-06-18T14:09:25Z</time>
      </trkpt>
      <trkpt lat="47.99751" lon="6.93947">
        <ele>1011</ele>
        <time>2016-06-18T14:09:37Z</time>
      </trkpt>
      <trkpt lat="47.99737" lon="6.93946">
        <ele>1021</ele>
        <time>2016-06-18T14:09:51Z</time>
      </trkpt>
      <trkpt lat="47.99719" lon="6.9393">
        <ele>1021</ele>
        <time>2016-06-18T14:10:03Z</time>
      </trkpt>
      <trkpt lat="47.99699" lon="6.93921">
        <ele>1023</ele>
        <time>2016-06-18T14:10:14Z</time>
      </trkpt>
      <trkpt lat="47.99697" lon="6.93915">
        <ele>1009</ele>
        <time>2016-06-18T14:10:15Z</time>
      </trkpt>
      <trkpt lat="47.99692" lon="6.93905">
        <ele>1009</ele>
        <time>2016-06-18T14:10:19Z</time>
      </trkpt>
      <trkpt lat="47.99687" lon="6.93906">
        <ele>1011</ele>
        <time>2016-06-18T14:10:22Z</time>
      </trkpt>
      <trkpt lat="47.99675" lon="6.93892">
        <ele>1010</ele>
        <time>2016-06-18T14:10:32Z</time>
      </trkpt>
      <trkpt lat="47.99659" lon="6.93886">
        <ele>1021</ele>
        <time>2016-06-18T14:10:43Z</time>
      </trkpt>
      <trkpt lat="47.99646" lon="6.93876">
        <ele>1020</ele>
        <time>2016-06-18T14:10:53Z</time>
      </trkpt>
      <trkpt lat="47.99632" lon="6.9387">
        <ele>1020</ele>
        <time>2016-06-18T14:11:04Z</time>
      </trkpt>
      <trkpt lat="47.99618" lon="6.93864">
        <ele>1021</ele>
        <time>2016-06-18T14:11:14Z</time>
      </trkpt>
      <trkpt lat="47.99604" lon="6.93854">
        <ele>1021</ele>
        <time>2016-06-18T14:11:26Z</time>
      </trkpt>
      <trkpt lat="47.996" lon="6.93852">
        <ele>1021</ele>
        <time>2016-06-18T14:11:29Z</time>
      </trkpt>
      <trkpt lat="47.99589" lon="6.93838">
        <ele>1020</ele>
        <time>2016-06-18T14:11:39Z</time>
      </trkpt>
      <trkpt lat="47.99575" lon="6.93826">
        <ele>1019</ele>
        <time>2016-06-18T14:11:48Z</time>
      </trkpt>
      <trkpt lat="47.99571" lon="6.93823">
        <ele>1018</ele>
        <time>2016-06-18T14:11:51Z</time>
      </trkpt>
      <trkpt lat="47.99562" lon="6.93815">
        <ele>1018</ele>
        <time>2016-06-18T14:11:58Z</time>
      </trkpt>
      <trkpt lat="47.99548" lon="6.93805">
        <ele>1019</ele>
        <time>2016-06-18T14:12:09Z</time>
      </trkpt>
      <trkpt lat="47.99534" lon="6.93803">
        <ele>1020</ele>
        <time>2016-06-18T14:12:21Z</time>
      </trkpt>
      <trkpt lat="47.99531" lon="6.93796">
        <ele>1019</ele>
        <time>2016-06-18T14:12:24Z</time>
      </trkpt>
      <trkpt lat="47.99526" lon="6.93793">
        <ele>1019</ele>
        <time>2016-06-18T14:12:27Z</time>
      </trkpt>
      <trkpt lat="47.99507" lon="6.93782">
        <ele>1019</ele>
        <time>2016-06-18T14:12:39Z</time>
      </trkpt>
      <trkpt lat="47.99493" lon="6.93779">
        <ele>1032</ele>
        <time>2016-06-18T14:12:49Z</time>
      </trkpt>
      <trkpt lat="47.99488" lon="6.93772">
        <ele>1031</ele>
        <time>2016-06-18T14:12:52Z</time>
      </trkpt>
      <trkpt lat="47.99482" lon="6.93768">
        <ele>1031</ele>
        <time>2016-06-18T14:12:58Z</time>
      </trkpt>
      <trkpt lat="47.99468" lon="6.93757">
        <ele>1033</ele>
        <time>2016-06-18T14:13:08Z</time>
      </trkpt>
      <trkpt lat="47.99464" lon="6.93751">
        <ele>1033</ele>
        <time>2016-06-18T14:13:11Z</time>
      </trkpt>
      <trkpt lat="47.99449" lon="6.93745">
        <ele>1020</ele>
        <time>2016-06-18T14:13:24Z</time>
      </trkpt>
      <trkpt lat="47.99438" lon="6.93741">
        <ele>1023</ele>
        <time>2016-06-18T14:13:34Z</time>
      </trkpt>
      <trkpt lat="47.99424" lon="6.93734">
        <ele>1025</ele>
        <time>2016-06-18T14:13:43Z</time>
      </trkpt>
      <trkpt lat="47.99412" lon="6.93731">
        <ele>1037</ele>
        <time>2016-06-18T14:13:50Z</time>
      </trkpt>
      <trkpt lat="47.99407" lon="6.93728">
        <ele>1037</ele>
        <time>2016-06-18T14:13:54Z</time>
      </trkpt>
      <trkpt lat="47.99392" lon="6.93715">
        <ele>1036</ele>
        <time>2016-06-18T14:14:05Z</time>
      </trkpt>
      <trkpt lat="47.99376" lon="6.93712">
        <ele>1038</ele>
        <time>2016-06-18T14:14:16Z</time>
      </trkpt>
      <trkpt lat="47.9936" lon="6.93708">
        <ele>1040</ele>
        <time>2016-06-18T14:14:27Z</time>
      </trkpt>
      <trkpt lat="47.99349" lon="6.93698">
        <ele>1039</ele>
        <time>2016-06-18T14:14:35Z</time>
      </trkpt>
      <trkpt lat="47.99336" lon="6.93679">
        <ele>1038</ele>
        <time>2016-06-18T14:14:45Z</time>
      </trkpt>
      <trkpt lat="47.99327" lon="6.93666">
        <ele>1039</ele>
        <time>2016-06-18T14:14:51Z</time>
      </trkpt>
      <trkpt lat="47.99322" lon="6.93663">
        <ele>1039</ele>
        <time>2016-06-18T14:14:55Z</time>
      </trkpt>
      <trkpt lat="47.99314" lon="6.93653">
        <ele>1040</ele>
        <time>2016-06-18T14:15:02Z</time>
      </trkpt>
      <trkpt lat="47.99309" lon="6.93647">
        <ele>1040</ele>
        <time>2016-06-18T14:15:05Z</time>
      </trkpt>
      <trkpt lat="47.99305" lon="6.93643">
        <ele>1040</ele>
        <time>2016-06-18T14:15:09Z</time>
      </trkpt>
      <trkpt lat="47.99298" lon="6.93634">
        <ele>1040</ele>
        <time>2016-06-18T14:15:15Z</time>
      </trkpt>
      <trkpt lat="47.99289" lon="6.93631">
        <ele>1041</ele>
        <time>2016-06-18T14:15:23Z</time>
      </trkpt>
      <trkpt lat="47.99275" lon="6.9362">
        <ele>1042</ele>
        <time>2016-06-18T14:15:34Z</time>
      </trkpt>
      <trkpt lat="47.99271" lon="6.93615">
        <ele>1042</ele>
        <time>2016-06-18T14:15:36Z</time>
      </trkpt>
      <trkpt lat="47.99263" lon="6.93607">
        <ele>1042</ele>
        <time>2016-06-18T14:15:44Z</time>
      </trkpt>
      <trkpt lat="47.99254" lon="6.93599">
        <ele>1043</ele>
        <time>2016-06-18T14:15:51Z</time>
      </trkpt>
      <trkpt lat="47.9925" lon="6.93593">
        <ele>1043</ele>
        <time>2016-06-18T14:15:54Z</time>
      </trkpt>
      <trkpt lat="47.99239" lon="6.93577">
        <ele>1047</ele>
        <time>2016-06-18T14:16:07Z</time>
      </trkpt>
      <trkpt lat="47.99236" lon="6.93571">
        <ele>1048</ele>
        <time>2016-06-18T14:16:11Z</time>
      </trkpt>
      <trkpt lat="47.99225" lon="6.93557">
        <ele>1050</ele>
        <time>2016-06-18T14:16:21Z</time>
      </trkpt>
      <trkpt lat="47.99217" lon="6.93547">
        <ele>1051</ele>
        <time>2016-06-18T14:16:27Z</time>
      </trkpt>
      <trkpt lat="47.99209" lon="6.93535">
        <ele>1051</ele>
        <time>2016-06-18T14:16:34Z</time>
      </trkpt>
      <trkpt lat="47.99196" lon="6.93519">
        <ele>1053</ele>
        <time>2016-06-18T14:16:47Z</time>
      </trkpt>
      <trkpt lat="47.99182" lon="6.93499">
        <ele>1050</ele>
        <time>2016-06-18T14:17:00Z</time>
      </trkpt>
      <trkpt lat="47.9917" lon="6.93483">
        <ele>1049</ele>
        <time>2016-06-18T14:17:11Z</time>
      </trkpt>
      <trkpt lat="47.99162" lon="6.93473">
        <ele>1065</ele>
        <time>2016-06-18T14:17:21Z</time>
      </trkpt>
      <trkpt lat="47.99153" lon="6.93455">
        <ele>1066</ele>
        <time>2016-06-18T14:17:32Z</time>
      </trkpt>
      <trkpt lat="47.9915" lon="6.93448">
        <ele>1066</ele>
        <time>2016-06-18T14:17:35Z</time>
      </trkpt>
      <trkpt lat="47.99143" lon="6.93434">
        <ele>1065</ele>
        <time>2016-06-18T14:17:44Z</time>
      </trkpt>
      <trkpt lat="47.9914" lon="6.93424">
        <ele>1065</ele>
        <time>2016-06-18T14:17:48Z</time>
      </trkpt>
      <trkpt lat="47.99133" lon="6.93402">
        <ele>1063</ele>
        <time>2016-06-18T14:18:00Z</time>
      </trkpt>
      <trkpt lat="47.99129" lon="6.93382">
        <ele>1065</ele>
        <time>2016-06-18T14:18:10Z</time>
      </trkpt>
      <trkpt lat="47.99127" lon="6.93374">
        <ele>1065</ele>
        <time>2016-06-18T14:18:12Z</time>
      </trkpt>
      <trkpt lat="47.99122" lon="6.93354">
        <ele>1065</ele>
        <time>2016-06-18T14:18:21Z</time>
      </trkpt>
      <trkpt lat="47.99122" lon="6.93329">
        <ele>1062</ele>
        <time>2016-06-18T14:18:33Z</time>
      </trkpt>
      <trkpt lat="47.99123" lon="6.93322">
        <ele>1061</ele>
        <time>2016-06-18T14:18:37Z</time>
      </trkpt>
      <trkpt lat="47.99122" lon="6.933">
        <ele>1061</ele>
        <time>2016-06-18T14:18:50Z</time>
      </trkpt>
      <trkpt lat="47.99116" lon="6.93274">
        <ele>1062</ele>
        <time>2016-06-18T14:19:02Z</time>
      </trkpt>
      <trkpt lat="47.99112" lon="6.9325">
        <ele>1064</ele>
        <time>2016-06-18T14:19:12Z</time>
      </trkpt>
      <trkpt lat="47.99108" lon="6.93227">
        <ele>1061</ele>
        <time>2016-06-18T14:19:25Z</time>
      </trkpt>
      <trkpt lat="47.99104" lon="6.93204">
        <ele>1060</ele>
        <time>2016-06-18T14:19:36Z</time>
      </trkpt>
      <trkpt lat="47.99104" lon="6.93197">
        <ele>1060</ele>
        <time>2016-06-18T14:19:39Z</time>
      </trkpt>
      <trkpt lat="47.99103" lon="6.93177">
        <ele>1062</ele>
        <time>2016-06-18T14:19:52Z</time>
      </trkpt>
      <trkpt lat="47.99105" lon="6.93171">
        <ele>1062</ele>
        <time>2016-06-18T14:19:57Z</time>
      </trkpt>
      <trkpt lat="47.99112" lon="6.93149">
        <ele>1058</ele>
        <time>2016-06-18T14:20:07Z</time>
      </trkpt>
      <trkpt lat="47.99115" lon="6.93118">
        <ele>1057</ele>
        <time>2016-06-18T14:20:19Z</time>
      </trkpt>
      <trkpt lat="47.99117" lon="6.93111">
        <ele>1057</ele>
        <time>2016-06-18T14:20:23Z</time>
      </trkpt>
      <trkpt lat="47.99121" lon="6.93098">
        <ele>1057</ele>
        <time>2016-06-18T14:20:30Z</time>
      </trkpt>
      <trkpt lat="47.99127" lon="6.93077">
        <ele>1056</ele>
        <time>2016-06-18T14:20:41Z</time>
      </trkpt>
      <trkpt lat="47.9912" lon="6.93065">
        <ele>1058</ele>
        <time>2016-06-18T14:20:47Z</time>
      </trkpt>
      <trkpt lat="47.99116" lon="6.93051">
        <ele>1059</ele>
        <time>2016-06-18T14:20:54Z</time>
      </trkpt>
      <trkpt lat="47.99114" lon="6.93044">
        <ele>1059</ele>
        <time>2016-06-18T14:20:58Z</time>
      </trkpt>
      <trkpt lat="47.99114" lon="6.93028">
        <ele>1060</ele>
        <time>2016-06-18T14:21:06Z</time>
      </trkpt>
      <trkpt lat="47.99111" lon="6.93005">
        <ele>1062</ele>
        <time>2016-06-18T14:21:22Z</time>
      </trkpt>
      <trkpt lat="47.99103" lon="6.92987">
        <ele>1066</ele>
        <time>2016-06-18T14:21:33Z</time>
      </trkpt>
      <trkpt lat="47.99095" lon="6.92965">
        <ele>1066</ele>
        <time>2016-06-18T14:21:43Z</time>
      </trkpt>
      <trkpt lat="47.99092" lon="6.92955">
        <ele>1066</ele>
        <time>2016-06-18T14:21:46Z</time>
      </trkpt>
      <trkpt lat="47.99089" lon="6.92941">
        <ele>1068</ele>
        <time>2016-06-18T14:21:52Z</time>
      </trkpt>
      <trkpt lat="47.99086" lon="6.92932">
        <ele>1069</ele>
        <time>2016-06-18T14:21:55Z</time>
      </trkpt>
      <trkpt lat="47.99086" lon="6.9291">
        <ele>1073</ele>
        <time>2016-06-18T14:22:05Z</time>
      </trkpt>
      <trkpt lat="47.99089" lon="6.92889">
        <ele>1070</ele>
        <time>2016-06-18T14:22:19Z</time>
      </trkpt>
      <trkpt lat="47.99091" lon="6.92871">
        <ele>1069</ele>
        <time>2016-06-18T14:22:30Z</time>
      </trkpt>
      <trkpt lat="47.9909" lon="6.92864">
        <ele>1069</ele>
        <time>2016-06-18T14:22:33Z</time>
      </trkpt>
      <trkpt lat="47.99088" lon="6.92856">
        <ele>1070</ele>
        <time>2016-06-18T14:22:39Z</time>
      </trkpt>
      <trkpt lat="47.99083" lon="6.92824">
        <ele>1073</ele>
        <time>2016-06-18T14:22:49Z</time>
      </trkpt>
      <trkpt lat="47.99082" lon="6.92797">
        <ele>1071</ele>
        <time>2016-06-18T14:22:56Z</time>
      </trkpt>
      <trkpt lat="47.99081" lon="6.92789">
        <ele>1071</ele>
        <time>2016-06-18T14:22:58Z</time>
      </trkpt>
      <trkpt lat="47.99076" lon="6.9276">
        <ele>1070</ele>
        <time>2016-06-18T14:23:10Z</time>
      </trkpt>
      <trkpt lat="47.99073" lon="6.92736">
        <ele>1069</ele>
        <time>2016-06-18T14:23:19Z</time>
      </trkpt>
      <trkpt lat="47.99061" lon="6.92722">
        <ele>1068</ele>
        <time>2016-06-18T14:23:32Z</time>
      </trkpt>
      <trkpt lat="47.99047" lon="6.92722">
        <ele>1068</ele>
        <time>2016-06-18T14:23:44Z</time>
      </trkpt>
      <trkpt lat="47.99033" lon="6.9273">
        <ele>1068</ele>
        <time>2016-06-18T14:23:54Z</time>
      </trkpt>
      <trkpt lat="47.99029" lon="6.92737">
        <ele>1068</ele>
        <time>2016-06-18T14:23:57Z</time>
      </trkpt>
      <trkpt lat="47.99013" lon="6.92754">
        <ele>1069</ele>
        <time>2016-06-18T14:24:09Z</time>
      </trkpt>
      <trkpt lat="47.99002" lon="6.92769">
        <ele>1069</ele>
        <time>2016-06-18T14:24:20Z</time>
      </trkpt>
      <trkpt lat="47.98997" lon="6.92772">
        <ele>1066</ele>
        <time>2016-06-18T14:24:24Z</time>
      </trkpt>
      <trkpt lat="47.98988" lon="6.9278">
        <ele>1066</ele>
        <time>2016-06-18T14:24:34Z</time>
      </trkpt>
      <trkpt lat="47.98978" lon="6.92798">
        <ele>1067</ele>
        <time>2016-06-18T14:24:46Z</time>
      </trkpt>
      <trkpt lat="47.98967" lon="6.92808">
        <ele>1067</ele>
        <time>2016-06-18T14:24:57Z</time>
      </trkpt>
      <trkpt lat="47.98945" lon="6.92813">
        <ele>1066</ele>
        <time>2016-06-18T14:25:09Z</time>
      </trkpt>
      <trkpt lat="47.98939" lon="6.92814">
        <ele>1066</ele>
        <time>2016-06-18T14:25:13Z</time>
      </trkpt>
      <trkpt lat="47.98923" lon="6.92819">
        <ele>1066</ele>
        <time>2016-06-18T14:25:24Z</time>
      </trkpt>
      <trkpt lat="47.98907" lon="6.92818">
        <ele>1061</ele>
        <time>2016-06-18T14:25:34Z</time>
      </trkpt>
      <trkpt lat="47.98902" lon="6.92819">
        <ele>1061</ele>
        <time>2016-06-18T14:25:38Z</time>
      </trkpt>
      <trkpt lat="47.98888" lon="6.92822">
        <ele>1060</ele>
        <time>2016-06-18T14:25:49Z</time>
      </trkpt>
      <trkpt lat="47.98873" lon="6.92822">
        <ele>1058</ele>
        <time>2016-06-18T14:26:00Z</time>
      </trkpt>
      <trkpt lat="47.98853" lon="6.92819">
        <ele>1058</ele>
        <time>2016-06-18T14:26:12Z</time>
      </trkpt>
      <trkpt lat="47.98848" lon="6.92818">
        <ele>1058</ele>
        <time>2016-06-18T14:26:15Z</time>
      </trkpt>
      <trkpt lat="47.98832" lon="6.92818">
        <ele>1056</ele>
        <time>2016-06-18T14:26:26Z</time>
      </trkpt>
      <trkpt lat="47.98822" lon="6.92819">
        <ele>1055</ele>
        <time>2016-06-18T14:26:33Z</time>
      </trkpt>
      <trkpt lat="47.98808" lon="6.92822">
        <ele>1054</ele>
        <time>2016-06-18T14:26:43Z</time>
      </trkpt>
      <trkpt lat="47.98792" lon="6.92829">
        <ele>1053</ele>
        <time>2016-06-18T14:26:53Z</time>
      </trkpt>
      <trkpt lat="47.98778" lon="6.92837">
        <ele>1063</ele>
        <time>2016-06-18T14:27:05Z</time>
      </trkpt>
      <trkpt lat="47.98764" lon="6.92839">
        <ele>1061</ele>
        <time>2016-06-18T14:27:16Z</time>
      </trkpt>
      <trkpt lat="47.98758" lon="6.92842">
        <ele>1061</ele>
        <time>2016-06-18T14:27:19Z</time>
      </trkpt>
      <trkpt lat="47.98755" lon="6.92847">
        <ele>1062</ele>
        <time>2016-06-18T14:27:21Z</time>
      </trkpt>
      <trkpt lat="47.9874" lon="6.92848">
        <ele>1059</ele>
        <time>2016-06-18T14:27:33Z</time>
      </trkpt>
      <trkpt lat="47.98721" lon="6.92855">
        <ele>1060</ele>
        <time>2016-06-18T14:27:44Z</time>
      </trkpt>
      <trkpt lat="47.98715" lon="6.92858">
        <ele>1060</ele>
        <time>2016-06-18T14:27:47Z</time>
      </trkpt>
      <trkpt lat="47.9871" lon="6.92859">
        <ele>1060</ele>
        <time>2016-06-18T14:27:50Z</time>
      </trkpt>
      <trkpt lat="47.98699" lon="6.92861">
        <ele>1059</ele>
        <time>2016-06-18T14:27:57Z</time>
      </trkpt>
      <trkpt lat="47.98683" lon="6.9287">
        <ele>1059</ele>
        <time>2016-06-18T14:28:10Z</time>
      </trkpt>
      <trkpt lat="47.98668" lon="6.92881">
        <ele>1060</ele>
        <time>2016-06-18T14:28:21Z</time>
      </trkpt>
      <trkpt lat="47.98661" lon="6.92894">
        <ele>1055</ele>
        <time>2016-06-18T14:28:31Z</time>
      </trkpt>
      <trkpt lat="47.98652" lon="6.92913">
        <ele>1057</ele>
        <time>2016-06-18T14:28:42Z</time>
      </trkpt>
      <trkpt lat="47.98644" lon="6.92923">
        <ele>1059</ele>
        <time>2016-06-18T14:28:49Z</time>
      </trkpt>
      <trkpt lat="47.98631" lon="6.92939">
        <ele>1057</ele>
        <time>2016-06-18T14:28:59Z</time>
      </trkpt>
      <trkpt lat="47.98623" lon="6.92958">
        <ele>1057</ele>
        <time>2016-06-18T14:29:09Z</time>
      </trkpt>
      <trkpt lat="47.9862" lon="6.92966">
        <ele>1056</ele>
        <time>2016-06-18T14:29:12Z</time>
      </trkpt>
      <trkpt lat="47.98617" lon="6.92974">
        <ele>1056</ele>
        <time>2016-06-18T14:29:16Z</time>
      </trkpt>
      <trkpt lat="47.9861" lon="6.92993">
        <ele>1055</ele>
        <time>2016-06-18T14:29:27Z</time>
      </trkpt>
      <trkpt lat="47.9861" lon="6.93015">
        <ele>1055</ele>
        <time>2016-06-18T14:29:37Z</time>
      </trkpt>
      <trkpt lat="47.98616" lon="6.93037">
        <ele>1056</ele>
        <time>2016-06-18T14:29:48Z</time>
      </trkpt>
      <trkpt lat="47.98621" lon="6.93058">
        <ele>1057</ele>
        <time>2016-06-18T14:29:58Z</time>
      </trkpt>
      <trkpt lat="47.98628" lon="6.93079">
        <ele>1058</ele>
        <time>2016-06-18T14:30:09Z</time>
      </trkpt>
      <trkpt lat="47.98629" lon="6.93087">
        <ele>1054</ele>
        <time>2016-06-18T14:30:12Z</time>
      </trkpt>
      <trkpt lat="47.98634" lon="6.93111">
        <ele>1054</ele>
        <time>2016-06-18T14:30:23Z</time>
      </trkpt>
      <trkpt lat="47.98635" lon="6.93118">
        <ele>1054</ele>
        <time>2016-06-18T14:30:27Z</time>
      </trkpt>
      <trkpt lat="47.98641" lon="6.93139">
        <ele>1054</ele>
        <time>2016-06-18T14:30:37Z</time>
      </trkpt>
      <trkpt lat="47.98644" lon="6.93153">
        <ele>1055</ele>
        <time>2016-06-18T14:30:43Z</time>
      </trkpt>
      <trkpt lat="47.98646" lon="6.93161">
        <ele>1055</ele>
        <time>2016-06-18T14:30:47Z</time>
      </trkpt>
      <trkpt lat="47.9865" lon="6.93184">
        <ele>1052</ele>
        <time>2016-06-18T14:30:57Z</time>
      </trkpt>
      <trkpt lat="47.98651" lon="6.93193">
        <ele>1051</ele>
        <time>2016-06-18T14:31:00Z</time>
      </trkpt>
      <trkpt lat="47.98649" lon="6.93209">
        <ele>1049</ele>
        <time>2016-06-18T14:31:06Z</time>
      </trkpt>
      <trkpt lat="47.98647" lon="6.93216">
        <ele>1049</ele>
        <time>2016-06-18T14:31:10Z</time>
      </trkpt>
      <trkpt lat="47.98645" lon="6.93232">
        <ele>1049</ele>
        <time>2016-06-18T14:31:18Z</time>
      </trkpt>
      <trkpt lat="47.98644" lon="6.93253">
        <ele>1048</ele>
        <time>2016-06-18T14:31:29Z</time>
      </trkpt>
      <trkpt lat="47.9864" lon="6.93278">
        <ele>1046</ele>
        <time>2016-06-18T14:31:44Z</time>
      </trkpt>
      <trkpt lat="47.98636" lon="6.93298">
        <ele>1045</ele>
        <time>2016-06-18T14:31:54Z</time>
      </trkpt>
      <trkpt lat="47.98629" lon="6.93319">
        <ele>1044</ele>
        <time>2016-06-18T14:32:06Z</time>
      </trkpt>
      <trkpt lat="47.98624" lon="6.93339">
        <ele>1044</ele>
        <time>2016-06-18T14:32:16Z</time>
      </trkpt>
      <trkpt lat="47.98614" lon="6.93366">
        <ele>1043</ele>
        <time>2016-06-18T14:32:30Z</time>
      </trkpt>
      <trkpt lat="47.9861" lon="6.93388">
        <ele>1043</ele>
        <time>2016-06-18T14:32:40Z</time>
      </trkpt>
      <trkpt lat="47.98607" lon="6.93394">
        <ele>1043</ele>
        <time>2016-06-18T14:32:42Z</time>
      </trkpt>
      <trkpt lat="47.98595" lon="6.93415">
        <ele>1040</ele>
        <time>2016-06-18T14:32:52Z</time>
      </trkpt>
      <trkpt lat="47.98589" lon="6.93434">
        <ele>1044</ele>
        <time>2016-06-18T14:33:03Z</time>
      </trkpt>
      <trkpt lat="47.98585" lon="6.93441">
        <ele>1045</ele>
        <time>2016-06-18T14:33:06Z</time>
      </trkpt>
      <trkpt lat="47.98581" lon="6.93446">
        <ele>1035</ele>
        <time>2016-06-18T14:33:10Z</time>
      </trkpt>
      <trkpt lat="47.9857" lon="6.93463">
        <ele>1035</ele>
        <time>2016-06-18T14:33:21Z</time>
      </trkpt>
      <trkpt lat="47.98564" lon="6.93477">
        <ele>1036</ele>
        <time>2016-06-18T14:33:32Z</time>
      </trkpt>
      <trkpt lat="47.98555" lon="6.93497">
        <ele>1036</ele>
        <time>2016-06-18T14:33:43Z</time>
      </trkpt>
      <trkpt lat="47.98544" lon="6.93511">
        <ele>1039</ele>
        <time>2016-06-18T14:33:54Z</time>
      </trkpt>
      <trkpt lat="47.98535" lon="6.93521">
        <ele>1038</ele>
        <time>2016-06-18T14:34:00Z</time>
      </trkpt>
      <trkpt lat="47.98525" lon="6.93535">
        <ele>1038</ele>
        <time>2016-06-18T14:34:08Z</time>
      </trkpt>
      <trkpt lat="47.98516" lon="6.93553">
        <ele>1038</ele>
        <time>2016-06-18T14:34:18Z</time>
      </trkpt>
      <trkpt lat="47.98501" lon="6.93572">
        <ele>1037</ele>
        <time>2016-06-18T14:34:31Z</time>
      </trkpt>
      <trkpt lat="47.98487" lon="6.93581">
        <ele>1031</ele>
        <time>2016-06-18T14:34:44Z</time>
      </trkpt>
      <trkpt lat="47.9848" lon="6.93583">
        <ele>1029</ele>
        <time>2016-06-18T14:34:47Z</time>
      </trkpt>
      <trkpt lat="47.98475" lon="6.93582">
        <ele>1028</ele>
        <time>2016-06-18T14:34:49Z</time>
      </trkpt>
      <trkpt lat="47.98469" lon="6.9358">
        <ele>1027</ele>
        <time>2016-06-18T14:34:52Z</time>
      </trkpt>
      <trkpt lat="47.98458" lon="6.93582">
        <ele>1026</ele>
        <time>2016-06-18T14:35:04Z</time>
      </trkpt>
      <trkpt lat="47.98453" lon="6.93578">
        <ele>1025</ele>
        <time>2016-06-18T14:35:07Z</time>
      </trkpt>
      <trkpt lat="47.98439" lon="6.93594">
        <ele>1029</ele>
        <time>2016-06-18T14:35:19Z</time>
      </trkpt>
      <trkpt lat="47.9843" lon="6.93603">
        <ele>1029</ele>
        <time>2016-06-18T14:35:26Z</time>
      </trkpt>
      <trkpt lat="47.98421" lon="6.93611">
        <ele>1030</ele>
        <time>2016-06-18T14:35:32Z</time>
      </trkpt>
      <trkpt lat="47.98403" lon="6.93623">
        <ele>1017</ele>
        <time>2016-06-18T14:35:45Z</time>
      </trkpt>
      <trkpt lat="47.98393" lon="6.93643">
        <ele>1018</ele>
        <time>2016-06-18T14:35:56Z</time>
      </trkpt>
      <trkpt lat="47.98391" lon="6.93666">
        <ele>1019</ele>
        <time>2016-06-18T14:36:07Z</time>
      </trkpt>
      <trkpt lat="47.98383" lon="6.93697">
        <ele>1022</ele>
        <time>2016-06-18T14:36:20Z</time>
      </trkpt>
      <trkpt lat="47.98382" lon="6.93704">
        <ele>1022</ele>
        <time>2016-06-18T14:36:23Z</time>
      </trkpt>
      <trkpt lat="47.98374" lon="6.93724">
        <ele>1022</ele>
        <time>2016-06-18T14:36:33Z</time>
      </trkpt>
      <trkpt lat="47.98368" lon="6.93738">
        <ele>1021</ele>
        <time>2016-06-18T14:36:42Z</time>
      </trkpt>
      <trkpt lat="47.98363" lon="6.93742">
        <ele>1020</ele>
        <time>2016-06-18T14:36:46Z</time>
      </trkpt>
      <trkpt lat="47.98356" lon="6.93753">
        <ele>1024</ele>
        <time>2016-06-18T14:36:58Z</time>
      </trkpt>
      <trkpt lat="47.98343" lon="6.93768">
        <ele>1024</ele>
        <time>2016-06-18T14:37:09Z</time>
      </trkpt>
      <trkpt lat="47.98328" lon="6.93771">
        <ele>1019</ele>
        <time>2016-06-18T14:37:21Z</time>
      </trkpt>
      <trkpt lat="47.98318" lon="6.93766">
        <ele>1019</ele>
        <time>2016-06-18T14:37:29Z</time>
      </trkpt>
      <trkpt lat="47.98303" lon="6.93762">
        <ele>1019</ele>
        <time>2016-06-18T14:37:39Z</time>
      </trkpt>
      <trkpt lat="47.98293" lon="6.93759">
        <ele>1019</ele>
        <time>2016-06-18T14:37:46Z</time>
      </trkpt>
      <trkpt lat="47.98288" lon="6.93762">
        <ele>1019</ele>
        <time>2016-06-18T14:38:02Z</time>
      </trkpt>
      <trkpt lat="47.98273" lon="6.93762">
        <ele>1018</ele>
        <time>2016-06-18T14:38:14Z</time>
      </trkpt>
      <trkpt lat="47.98257" lon="6.93757">
        <ele>1016</ele>
        <time>2016-06-18T14:38:25Z</time>
      </trkpt>
      <trkpt lat="47.98252" lon="6.93757">
        <ele>1015</ele>
        <time>2016-06-18T14:38:30Z</time>
      </trkpt>
      <trkpt lat="47.98236" lon="6.93752">
        <ele>1016</ele>
        <time>2016-06-18T14:38:41Z</time>
      </trkpt>
      <trkpt lat="47.9822" lon="6.9375">
        <ele>1006</ele>
        <time>2016-06-18T14:38:52Z</time>
      </trkpt>
      <trkpt lat="47.98204" lon="6.93749">
        <ele>1006</ele>
        <time>2016-06-18T14:39:03Z</time>
      </trkpt>
      <trkpt lat="47.98199" lon="6.93748">
        <ele>1006</ele>
        <time>2016-06-18T14:39:07Z</time>
      </trkpt>
      <trkpt lat="47.98183" lon="6.93747">
        <ele>1007</ele>
        <time>2016-06-18T14:39:21Z</time>
      </trkpt>
      <trkpt lat="47.98169" lon="6.93744">
        <ele>1009</ele>
        <time>2016-06-18T14:39:31Z</time>
      </trkpt>
      <trkpt lat="47.98153" lon="6.93744">
        <ele>1009</ele>
        <time>2016-06-18T14:39:41Z</time>
      </trkpt>
      <trkpt lat="47.9813" lon="6.93748">
        <ele>1008</ele>
        <time>2016-06-18T14:39:54Z</time>
      </trkpt>
      <trkpt lat="47.98112" lon="6.93741">
        <ele>1009</ele>
        <time>2016-06-18T14:40:07Z</time>
      </trkpt>
      <trkpt lat="47.98102" lon="6.93733">
        <ele>1009</ele>
        <time>2016-06-18T14:40:14Z</time>
      </trkpt>
      <trkpt lat="47.98088" lon="6.93724">
        <ele>1009</ele>
        <time>2016-06-18T14:40:25Z</time>
      </trkpt>
      <trkpt lat="47.98081" lon="6.93713">
        <ele>1017</ele>
        <time>2016-06-18T14:40:32Z</time>
      </trkpt>
      <trkpt lat="47.98064" lon="6.93693">
        <ele>1016</ele>
        <time>2016-06-18T14:40:44Z</time>
      </trkpt>
      <trkpt lat="47.9805" lon="6.93679">
        <ele>1018</ele>
        <time>2016-06-18T14:40:54Z</time>
      </trkpt>
      <trkpt lat="47.98042" lon="6.93672">
        <ele>1019</ele>
        <time>2016-06-18T14:41:00Z</time>
      </trkpt>
      <trkpt lat="47.98033" lon="6.93658">
        <ele>1014</ele>
        <time>2016-06-18T14:41:13Z</time>
      </trkpt>
      <trkpt lat="47.9803" lon="6.93637">
        <ele>1013</ele>
        <time>2016-06-18T14:41:26Z</time>
      </trkpt>
      <trkpt lat="47.98028" lon="6.93618">
        <ele>1012</ele>
        <time>2016-06-18T14:41:39Z</time>
      </trkpt>
      <trkpt lat="47.9802" lon="6.93603">
        <ele>1013</ele>
        <time>2016-06-18T14:41:45Z</time>
      </trkpt>
      <trkpt lat="47.98019" lon="6.93594">
        <ele>1014</ele>
        <time>2016-06-18T14:41:49Z</time>
      </trkpt>
      <trkpt lat="47.98005" lon="6.93571">
        <ele>1012</ele>
        <time>2016-06-18T14:42:01Z</time>
      </trkpt>
      <trkpt lat="47.98002" lon="6.93564">
        <ele>1010</ele>
        <time>2016-06-18T14:42:05Z</time>
      </trkpt>
      <trkpt lat="47.97996" lon="6.93541">
        <ele>1024</ele>
        <time>2016-06-18T14:42:19Z</time>
      </trkpt>
      <trkpt lat="47.97988" lon="6.93519">
        <ele>1021</ele>
        <time>2016-06-18T14:42:32Z</time>
      </trkpt>
      <trkpt lat="47.97975" lon="6.93505">
        <ele>1022</ele>
        <time>2016-06-18T14:42:44Z</time>
      </trkpt>
      <trkpt lat="47.97962" lon="6.93488">
        <ele>1018</ele>
        <time>2016-06-18T14:42:54Z</time>
      </trkpt>
      <trkpt lat="47.97959" lon="6.9348">
        <ele>1018</ele>
        <time>2016-06-18T14:42:57Z</time>
      </trkpt>
      <trkpt lat="47.97955" lon="6.93472">
        <ele>1018</ele>
        <time>2016-06-18T14:43:00Z</time>
      </trkpt>
      <trkpt lat="47.97946" lon="6.93455">
        <ele>1018</ele>
        <time>2016-06-18T14:43:12Z</time>
      </trkpt>
      <trkpt lat="47.97934" lon="6.93442">
        <ele>1018</ele>
        <time>2016-06-18T14:43:25Z</time>
      </trkpt>
      <trkpt lat="47.97916" lon="6.93421">
        <ele>1022</ele>
        <time>2016-06-18T14:43:37Z</time>
      </trkpt>
      <trkpt lat="47.97912" lon="6.93416">
        <ele>1019</ele>
        <time>2016-06-18T14:43:41Z</time>
      </trkpt>
      <trkpt lat="47.97909" lon="6.93411">
        <ele>1018</ele>
        <time>2016-06-18T14:43:42Z</time>
      </trkpt>
      <trkpt lat="47.97893" lon="6.93399">
        <ele>1016</ele>
        <time>2016-06-18T14:43:52Z</time>
      </trkpt>
      <trkpt lat="47.97879" lon="6.93394">
        <ele>1016</ele>
        <time>2016-06-18T14:44:02Z</time>
      </trkpt>
      <trkpt lat="47.9786" lon="6.93394">
        <ele>1017</ele>
        <time>2016-06-18T14:44:13Z</time>
      </trkpt>
      <trkpt lat="47.97855" lon="6.9339">
        <ele>1017</ele>
        <time>2016-06-18T14:44:16Z</time>
      </trkpt>
      <trkpt lat="47.97845" lon="6.93384">
        <ele>1017</ele>
        <time>2016-06-18T14:44:21Z</time>
      </trkpt>
      <trkpt lat="47.9783" lon="6.93383">
        <ele>1016</ele>
        <time>2016-06-18T14:44:31Z</time>
      </trkpt>
      <trkpt lat="47.97807" lon="6.93385">
        <ele>1015</ele>
        <time>2016-06-18T14:44:44Z</time>
      </trkpt>
      <trkpt lat="47.9779" lon="6.93387">
        <ele>1014</ele>
        <time>2016-06-18T14:44:55Z</time>
      </trkpt>
      <trkpt lat="47.97777" lon="6.93395">
        <ele>1014</ele>
        <time>2016-06-18T14:45:05Z</time>
      </trkpt>
      <trkpt lat="47.97764" lon="6.93408">
        <ele>1014</ele>
        <time>2016-06-18T14:45:15Z</time>
      </trkpt>
      <trkpt lat="47.97749" lon="6.93428">
        <ele>1017</ele>
        <time>2016-06-18T14:45:27Z</time>
      </trkpt>
      <trkpt lat="47.97736" lon="6.93438">
        <ele>1018</ele>
        <time>2016-06-18T14:45:38Z</time>
      </trkpt>
      <trkpt lat="47.97724" lon="6.93451">
        <ele>1019</ele>
        <time>2016-06-18T14:45:50Z</time>
      </trkpt>
      <trkpt lat="47.97709" lon="6.93458">
        <ele>1019</ele>
        <time>2016-06-18T14:46:00Z</time>
      </trkpt>
      <trkpt lat="47.97702" lon="6.93459">
        <ele>1018</ele>
        <time>2016-06-18T14:46:04Z</time>
      </trkpt>
      <trkpt lat="47.97691" lon="6.93462">
        <ele>1017</ele>
        <time>2016-06-18T14:46:15Z</time>
      </trkpt>
      <trkpt lat="47.97671" lon="6.93466">
        <ele>1017</ele>
        <time>2016-06-18T14:46:28Z</time>
      </trkpt>
      <trkpt lat="47.97653" lon="6.93485">
        <ele>1013</ele>
        <time>2016-06-18T14:46:39Z</time>
      </trkpt>
      <trkpt lat="47.97638" lon="6.9349">
        <ele>1012</ele>
        <time>2016-06-18T14:46:50Z</time>
      </trkpt>
      <trkpt lat="47.9763" lon="6.93504">
        <ele>1025</ele>
        <time>2016-06-18T14:46:56Z</time>
      </trkpt>
      <trkpt lat="47.97614" lon="6.93518">
        <ele>1025</ele>
        <time>2016-06-18T14:47:08Z</time>
      </trkpt>
      <trkpt lat="47.97597" lon="6.9352">
        <ele>1024</ele>
        <time>2016-06-18T14:47:20Z</time>
      </trkpt>
      <trkpt lat="47.97582" lon="6.93527">
        <ele>1025</ele>
        <time>2016-06-18T14:47:34Z</time>
      </trkpt>
      <trkpt lat="47.97566" lon="6.9353">
        <ele>1027</ele>
        <time>2016-06-18T14:47:45Z</time>
      </trkpt>
      <trkpt lat="47.97551" lon="6.93513">
        <ele>1027</ele>
        <time>2016-06-18T14:48:01Z</time>
      </trkpt>
      <trkpt lat="47.97547" lon="6.93488">
        <ele>1016</ele>
        <time>2016-06-18T14:48:19Z</time>
      </trkpt>
      <trkpt lat="47.97534" lon="6.93475">
        <ele>1016</ele>
        <time>2016-06-18T14:48:27Z</time>
      </trkpt>
      <trkpt lat="47.97518" lon="6.93457">
        <ele>1016</ele>
        <time>2016-06-18T14:48:38Z</time>
      </trkpt>
      <trkpt lat="47.97505" lon="6.93441">
        <ele>1015</ele>
        <time>2016-06-18T14:48:49Z</time>
      </trkpt>
      <trkpt lat="47.97498" lon="6.93429">
        <ele>1016</ele>
        <time>2016-06-18T14:48:56Z</time>
      </trkpt>
      <trkpt lat="47.97487" lon="6.93416">
        <ele>1013</ele>
        <time>2016-06-18T14:49:07Z</time>
      </trkpt>
      <trkpt lat="47.97475" lon="6.934">
        <ele>1013</ele>
        <time>2016-06-18T14:49:17Z</time>
      </trkpt>
      <trkpt lat="47.97465" lon="6.93385">
        <ele>1013</ele>
        <time>2016-06-18T14:49:31Z</time>
      </trkpt>
      <trkpt lat="47.97458" lon="6.93365">
        <ele>1012</ele>
        <time>2016-06-18T14:49:42Z</time>
      </trkpt>
      <trkpt lat="47.97452" lon="6.93352">
        <ele>1012</ele>
        <time>2016-06-18T14:49:48Z</time>
      </trkpt>
      <trkpt lat="47.97451" lon="6.93343">
        <ele>1012</ele>
        <time>2016-06-18T14:49:52Z</time>
      </trkpt>
      <trkpt lat="47.97444" lon="6.93332">
        <ele>1008</ele>
        <time>2016-06-18T14:50:03Z</time>
      </trkpt>
      <trkpt lat="47.97437" lon="6.9332">
        <ele>1008</ele>
        <time>2016-06-18T14:50:07Z</time>
      </trkpt>
      <trkpt lat="47.97423" lon="6.93304">
        <ele>1007</ele>
        <time>2016-06-18T14:50:20Z</time>
      </trkpt>
      <trkpt lat="47.97409" lon="6.93293">
        <ele>1014</ele>
        <time>2016-06-18T14:50:30Z</time>
      </trkpt>
      <trkpt lat="47.97394" lon="6.93283">
        <ele>1014</ele>
        <time>2016-06-18T14:50:41Z</time>
      </trkpt>
      <trkpt lat="47.97387" lon="6.9327">
        <ele>1013</ele>
        <time>2016-06-18T14:50:48Z</time>
      </trkpt>
      <trkpt lat="47.97384" lon="6.93264">
        <ele>1013</ele>
        <time>2016-06-18T14:50:54Z</time>
      </trkpt>
      <trkpt lat="47.97374" lon="6.93245">
        <ele>1011</ele>
        <time>2016-06-18T14:51:07Z</time>
      </trkpt>
      <trkpt lat="47.97371" lon="6.93239">
        <ele>1011</ele>
        <time>2016-06-18T14:51:11Z</time>
      </trkpt>
      <trkpt lat="47.97362" lon="6.93219">
        <ele>1011</ele>
        <time>2016-06-18T14:51:21Z</time>
      </trkpt>
      <trkpt lat="47.97343" lon="6.93199">
        <ele>1012</ele>
        <time>2016-06-18T14:51:33Z</time>
      </trkpt>
      <trkpt lat="47.9734" lon="6.93193">
        <ele>1012</ele>
        <time>2016-06-18T14:51:36Z</time>
      </trkpt>
      <trkpt lat="47.9733" lon="6.93167">
        <ele>1016</ele>
        <time>2016-06-18T14:51:50Z</time>
      </trkpt>
      <trkpt lat="47.97325" lon="6.93152">
        <ele>1018</ele>
        <time>2016-06-18T14:52:02Z</time>
      </trkpt>
      <trkpt lat="47.97315" lon="6.93127">
        <ele>1019</ele>
        <time>2016-06-18T14:52:13Z</time>
      </trkpt>
      <trkpt lat="47.97315" lon="6.93118">
        <ele>1019</ele>
        <time>2016-06-18T14:52:17Z</time>
      </trkpt>
      <trkpt lat="47.97309" lon="6.93096">
        <ele>1018</ele>
        <time>2016-06-18T14:52:30Z</time>
      </trkpt>
      <trkpt lat="47.97304" lon="6.93073">
        <ele>1018</ele>
        <time>2016-06-18T14:52:43Z</time>
      </trkpt>
      <trkpt lat="47.973" lon="6.93069">
        <ele>1019</ele>
        <time>2016-06-18T14:52:49Z</time>
      </trkpt>
      <trkpt lat="47.97296" lon="6.93062">
        <ele>1020</ele>
        <time>2016-06-18T14:53:02Z</time>
      </trkpt>
      <trkpt lat="47.97285" lon="6.93034">
        <ele>1022</ele>
        <time>2016-06-18T14:53:13Z</time>
      </trkpt>
      <trkpt lat="47.97274" lon="6.9301">
        <ele>1025</ele>
        <time>2016-06-18T14:53:25Z</time>
      </trkpt>
      <trkpt lat="47.97261" lon="6.92993">
        <ele>1027</ele>
        <time>2016-06-18T14:53:36Z</time>
      </trkpt>
      <trkpt lat="47.97259" lon="6.92984">
        <ele>1025</ele>
        <time>2016-06-18T14:53:38Z</time>
      </trkpt>
      <trkpt lat="47.97256" lon="6.92977">
        <ele>1023</ele>
        <time>2016-06-18T14:53:41Z</time>
      </trkpt>
      <trkpt lat="47.97248" lon="6.92955">
        <ele>1039</ele>
        <time>2016-06-18T14:53:48Z</time>
      </trkpt>
      <trkpt lat="47.97237" lon="6.92935">
        <ele>1036</ele>
        <time>2016-06-18T14:53:58Z</time>
      </trkpt>
      <trkpt lat="47.97234" lon="6.92926">
        <ele>1035</ele>
        <time>2016-06-18T14:54:00Z</time>
      </trkpt>
      <trkpt lat="47.97223" lon="6.92906">
        <ele>1031</ele>
        <time>2016-06-18T14:54:12Z</time>
      </trkpt>
      <trkpt lat="47.97213" lon="6.92887">
        <ele>1032</ele>
        <time>2016-06-18T14:54:24Z</time>
      </trkpt>
      <trkpt lat="47.972" lon="6.92866">
        <ele>1033</ele>
        <time>2016-06-18T14:54:35Z</time>
      </trkpt>
      <trkpt lat="47.97192" lon="6.92856">
        <ele>1033</ele>
        <time>2016-06-18T14:54:42Z</time>
      </trkpt>
      <trkpt lat="47.97181" lon="6.9284">
        <ele>1033</ele>
        <time>2016-06-18T14:54:53Z</time>
      </trkpt>
      <trkpt lat="47.97171" lon="6.92836">
        <ele>1034</ele>
        <time>2016-06-18T14:55:01Z</time>
      </trkpt>
      <trkpt lat="47.97158" lon="6.92822">
        <ele>1035</ele>
        <time>2016-06-18T14:55:11Z</time>
      </trkpt>
      <trkpt lat="47.97146" lon="6.92817">
        <ele>1036</ele>
        <time>2016-06-18T14:55:18Z</time>
      </trkpt>
      <trkpt lat="47.97142" lon="6.92812">
        <ele>1037</ele>
        <time>2016-06-18T14:55:21Z</time>
      </trkpt>
      <trkpt lat="47.97139" lon="6.92805">
        <ele>1037</ele>
        <time>2016-06-18T14:55:23Z</time>
      </trkpt>
      <trkpt lat="47.97129" lon="6.92796">
        <ele>1037</ele>
        <time>2016-06-18T14:55:29Z</time>
      </trkpt>
      <trkpt lat="47.97116" lon="6.92783">
        <ele>1038</ele>
        <time>2016-06-18T14:55:41Z</time>
      </trkpt>
      <trkpt lat="47.97105" lon="6.92773">
        <ele>1039</ele>
        <time>2016-06-18T14:55:51Z</time>
      </trkpt>
      <trkpt lat="47.97088" lon="6.92754">
        <ele>1040</ele>
        <time>2016-06-18T14:56:04Z</time>
      </trkpt>
      <trkpt lat="47.97083" lon="6.92743">
        <ele>1042</ele>
        <time>2016-06-18T14:56:06Z</time>
      </trkpt>
      <trkpt lat="47.97069" lon="6.92734">
        <ele>1044</ele>
        <time>2016-06-18T14:56:16Z</time>
      </trkpt>
      <trkpt lat="47.97055" lon="6.92722">
        <ele>1046</ele>
        <time>2016-06-18T14:56:26Z</time>
      </trkpt>
      <trkpt lat="47.97041" lon="6.92712">
        <ele>1047</ele>
        <time>2016-06-18T14:56:39Z</time>
      </trkpt>
      <trkpt lat="47.97036" lon="6.92713">
        <ele>1048</ele>
        <time>2016-06-18T14:56:46Z</time>
      </trkpt>
      <trkpt lat="47.97033" lon="6.92707">
        <ele>1048</ele>
        <time>2016-06-18T14:56:49Z</time>
      </trkpt>
      <trkpt lat="47.9702" lon="6.92692">
        <ele>1049</ele>
        <time>2016-06-18T14:57:03Z</time>
      </trkpt>
      <trkpt lat="47.9701" lon="6.92674">
        <ele>1050</ele>
        <time>2016-06-18T14:57:15Z</time>
      </trkpt>
      <trkpt lat="47.97" lon="6.92665">
        <ele>1052</ele>
        <time>2016-06-18T14:57:26Z</time>
      </trkpt>
      <trkpt lat="47.9699" lon="6.92654">
        <ele>1056</ele>
        <time>2016-06-18T14:57:37Z</time>
      </trkpt>
      <trkpt lat="47.96977" lon="6.92636">
        <ele>1058</ele>
        <time>2016-06-18T14:57:42Z</time>
      </trkpt>
      <trkpt lat="47.96973" lon="6.92632">
        <ele>1058</ele>
        <time>2016-06-18T14:57:44Z</time>
      </trkpt>
      <trkpt lat="47.96962" lon="6.92621">
        <ele>1059</ele>
        <time>2016-06-18T14:57:55Z</time>
      </trkpt>
      <trkpt lat="47.96948" lon="6.9261">
        <ele>1061</ele>
        <time>2016-06-18T14:58:07Z</time>
      </trkpt>
      <trkpt lat="47.96935" lon="6.92586">
        <ele>1062</ele>
        <time>2016-06-18T14:58:17Z</time>
      </trkpt>
      <trkpt lat="47.96931" lon="6.92584">
        <ele>1063</ele>
        <time>2016-06-18T14:58:20Z</time>
      </trkpt>
      <trkpt lat="47.96927" lon="6.92578">
        <ele>1061</ele>
        <time>2016-06-18T14:58:23Z</time>
      </trkpt>
      <trkpt lat="47.96913" lon="6.92567">
        <ele>1068</ele>
        <time>2016-06-18T14:58:35Z</time>
      </trkpt>
      <trkpt lat="47.96908" lon="6.92563">
        <ele>1068</ele>
        <time>2016-06-18T14:58:39Z</time>
      </trkpt>
      <trkpt lat="47.96894" lon="6.9255">
        <ele>1069</ele>
        <time>2016-06-18T14:58:51Z</time>
      </trkpt>
      <trkpt lat="47.96878" lon="6.92545">
        <ele>1070</ele>
        <time>2016-06-18T14:59:05Z</time>
      </trkpt>
      <trkpt lat="47.96862" lon="6.92535">
        <ele>1071</ele>
        <time>2016-06-18T14:59:18Z</time>
      </trkpt>
      <trkpt lat="47.96849" lon="6.92524">
        <ele>1072</ele>
        <time>2016-06-18T14:59:28Z</time>
      </trkpt>
      <trkpt lat="47.96841" lon="6.92512">
        <ele>1073</ele>
        <time>2016-06-18T14:59:34Z</time>
      </trkpt>
      <trkpt lat="47.96828" lon="6.92497">
        <ele>1075</ele>
        <time>2016-06-18T14:59:44Z</time>
      </trkpt>
      <trkpt lat="47.96816" lon="6.92493">
        <ele>1075</ele>
        <time>2016-06-18T14:59:57Z</time>
      </trkpt>
      <trkpt lat="47.96801" lon="6.92488">
        <ele>1076</ele>
        <time>2016-06-18T15:00:09Z</time>
      </trkpt>
      <trkpt lat="47.96786" lon="6.9248">
        <ele>1077</ele>
        <time>2016-06-18T15:00:20Z</time>
      </trkpt>
      <trkpt lat="47.96782" lon="6.92476">
        <ele>1077</ele>
        <time>2016-06-18T15:00:24Z</time>
      </trkpt>
      <trkpt lat="47.96765" lon="6.92471">
        <ele>1078</ele>
        <time>2016-06-18T15:00:37Z</time>
      </trkpt>
      <trkpt lat="47.96757" lon="6.92462">
        <ele>1077</ele>
        <time>2016-06-18T15:00:43Z</time>
      </trkpt>
      <trkpt lat="47.96743" lon="6.9246">
        <ele>1084</ele>
        <time>2016-06-18T15:00:53Z</time>
      </trkpt>
      <trkpt lat="47.96727" lon="6.9246">
        <ele>1085</ele>
        <time>2016-06-18T15:01:03Z</time>
      </trkpt>
      <trkpt lat="47.96711" lon="6.92456">
        <ele>1086</ele>
        <time>2016-06-18T15:01:15Z</time>
      </trkpt>
      <trkpt lat="47.96696" lon="6.92447">
        <ele>1086</ele>
        <time>2016-06-18T15:01:27Z</time>
      </trkpt>
      <trkpt lat="47.96686" lon="6.92447">
        <ele>1087</ele>
        <time>2016-06-18T15:01:35Z</time>
      </trkpt>
      <trkpt lat="47.9667" lon="6.92448">
        <ele>1087</ele>
        <time>2016-06-18T15:01:47Z</time>
      </trkpt>
      <trkpt lat="47.96659" lon="6.92452">
        <ele>1092</ele>
        <time>2016-06-18T15:01:59Z</time>
      </trkpt>
      <trkpt lat="47.96646" lon="6.92462">
        <ele>1093</ele>
        <time>2016-06-18T15:02:11Z</time>
      </trkpt>
      <trkpt lat="47.96631" lon="6.92477">
        <ele>1094</ele>
        <time>2016-06-18T15:02:24Z</time>
      </trkpt>
      <trkpt lat="47.96616" lon="6.92476">
        <ele>1094</ele>
        <time>2016-06-18T15:02:34Z</time>
      </trkpt>
      <trkpt lat="47.96607" lon="6.92487">
        <ele>1095</ele>
        <time>2016-06-18T15:02:41Z</time>
      </trkpt>
      <trkpt lat="47.96596" lon="6.92493">
        <ele>1097</ele>
        <time>2016-06-18T15:02:47Z</time>
      </trkpt>
      <trkpt lat="47.96581" lon="6.92497">
        <ele>1100</ele>
        <time>2016-06-18T15:02:57Z</time>
      </trkpt>
      <trkpt lat="47.96576" lon="6.92498">
        <ele>1100</ele>
        <time>2016-06-18T15:03:02Z</time>
      </trkpt>
      <trkpt lat="47.96565" lon="6.92494">
        <ele>1099</ele>
        <time>2016-06-18T15:03:12Z</time>
      </trkpt>
      <trkpt lat="47.9656" lon="6.92494">
        <ele>1099</ele>
        <time>2016-06-18T15:03:13Z</time>
      </trkpt>
      <trkpt lat="47.96549" lon="6.92492">
        <ele>1100</ele>
        <time>2016-06-18T15:03:17Z</time>
      </trkpt>
      <trkpt lat="47.96538" lon="6.92493">
        <ele>1101</ele>
        <time>2016-06-18T15:03:24Z</time>
      </trkpt>
      <trkpt lat="47.9652" lon="6.92494">
        <ele>1102</ele>
        <time>2016-06-18T15:03:37Z</time>
      </trkpt>
      <trkpt lat="47.96504" lon="6.92498">
        <ele>1106</ele>
        <time>2016-06-18T15:03:49Z</time>
      </trkpt>
      <trkpt lat="47.9649" lon="6.92489">
        <ele>1107</ele>
        <time>2016-06-18T15:04:05Z</time>
      </trkpt>
      <trkpt lat="47.96482" lon="6.92478">
        <ele>1107</ele>
        <time>2016-06-18T15:04:12Z</time>
      </trkpt>
      <trkpt lat="47.96477" lon="6.92473">
        <ele>1107</ele>
        <time>2016-06-18T15:04:17Z</time>
      </trkpt>
      <trkpt lat="47.96465" lon="6.9246">
        <ele>1107</ele>
        <time>2016-06-18T15:04:28Z</time>
      </trkpt>
      <trkpt lat="47.96452" lon="6.92448">
        <ele>1108</ele>
        <time>2016-06-18T15:04:41Z</time>
      </trkpt>
      <trkpt lat="47.96438" lon="6.92437">
        <ele>1108</ele>
        <time>2016-06-18T15:04:52Z</time>
      </trkpt>
      <trkpt lat="47.96417" lon="6.92435">
        <ele>1109</ele>
        <time>2016-06-18T15:05:05Z</time>
      </trkpt>
      <trkpt lat="47.96402" lon="6.92423">
        <ele>1115</ele>
        <time>2016-06-18T15:05:14Z</time>
      </trkpt>
      <trkpt lat="47.96398" lon="6.92419">
        <ele>1116</ele>
        <time>2016-06-18T15:05:18Z</time>
      </trkpt>
      <trkpt lat="47.96385" lon="6.92408">
        <ele>1116</ele>
        <time>2016-06-18T15:05:29Z</time>
      </trkpt>
      <trkpt lat="47.96378" lon="6.92397">
        <ele>1118</ele>
        <time>2016-06-18T15:05:46Z</time>
      </trkpt>
      <trkpt lat="47.96362" lon="6.92388">
        <ele>1120</ele>
        <time>2016-06-18T15:05:56Z</time>
      </trkpt>
      <trkpt lat="47.96357" lon="6.92376">
        <ele>1120</ele>
        <time>2016-06-18T15:06:07Z</time>
      </trkpt>
      <trkpt lat="47.96351" lon="6.92353">
        <ele>1121</ele>
        <time>2016-06-18T15:06:19Z</time>
      </trkpt>
      <trkpt lat="47.96342" lon="6.92336">
        <ele>1124</ele>
        <time>2016-06-18T15:06:26Z</time>
      </trkpt>
      <trkpt lat="47.96335" lon="6.92318">
        <ele>1122</ele>
        <time>2016-06-18T15:06:37Z</time>
      </trkpt>
      <trkpt lat="47.96333" lon="6.92301">
        <ele>1132</ele>
        <time>2016-06-18T15:06:48Z</time>
      </trkpt>
      <trkpt lat="47.96331" lon="6.92292">
        <ele>1132</ele>
        <time>2016-06-18T15:06:50Z</time>
      </trkpt>
      <trkpt lat="47.96326" lon="6.9227">
        <ele>1131</ele>
        <time>2016-06-18T15:07:00Z</time>
      </trkpt>
      <trkpt lat="47.96322" lon="6.92255">
        <ele>1129</ele>
        <time>2016-06-18T15:07:10Z</time>
      </trkpt>
      <trkpt lat="47.96318" lon="6.92252">
        <ele>1130</ele>
        <time>2016-06-18T15:07:12Z</time>
      </trkpt>
      <trkpt lat="47.96314" lon="6.92247">
        <ele>1127</ele>
        <time>2016-06-18T15:07:15Z</time>
      </trkpt>
      <trkpt lat="47.96305" lon="6.92235">
        <ele>1128</ele>
        <time>2016-06-18T15:07:24Z</time>
      </trkpt>
      <trkpt lat="47.96293" lon="6.92223">
        <ele>1128</ele>
        <time>2016-06-18T15:07:36Z</time>
      </trkpt>
      <trkpt lat="47.96279" lon="6.92218">
        <ele>1129</ele>
        <time>2016-06-18T15:07:47Z</time>
      </trkpt>
      <trkpt lat="47.96273" lon="6.92217">
        <ele>1130</ele>
        <time>2016-06-18T15:07:52Z</time>
      </trkpt>
      <trkpt lat="47.96259" lon="6.92217">
        <ele>1130</ele>
        <time>2016-06-18T15:08:05Z</time>
      </trkpt>
      <trkpt lat="47.96242" lon="6.92205">
        <ele>1136</ele>
        <time>2016-06-18T15:08:15Z</time>
      </trkpt>
      <trkpt lat="47.96236" lon="6.92202">
        <ele>1136</ele>
        <time>2016-06-18T15:08:18Z</time>
      </trkpt>
      <trkpt lat="47.96226" lon="6.92199">
        <ele>1136</ele>
        <time>2016-06-18T15:08:26Z</time>
      </trkpt>
      <trkpt lat="47.96211" lon="6.92195">
        <ele>1137</ele>
        <time>2016-06-18T15:08:37Z</time>
      </trkpt>
      <trkpt lat="47.96205" lon="6.92194">
        <ele>1138</ele>
        <time>2016-06-18T15:08:42Z</time>
      </trkpt>
      <trkpt lat="47.96191" lon="6.92193">
        <ele>1138</ele>
        <time>2016-06-18T15:08:54Z</time>
      </trkpt>
      <trkpt lat="47.96178" lon="6.92188">
        <ele>1138</ele>
        <time>2016-06-18T15:09:05Z</time>
      </trkpt>
      <trkpt lat="47.96162" lon="6.92188">
        <ele>1145</ele>
        <time>2016-06-18T15:09:16Z</time>
      </trkpt>
      <trkpt lat="47.96142" lon="6.92178">
        <ele>1146</ele>
        <time>2016-06-18T15:09:29Z</time>
      </trkpt>
      <trkpt lat="47.96126" lon="6.92176">
        <ele>1149</ele>
        <time>2016-06-18T15:09:41Z</time>
      </trkpt>
      <trkpt lat="47.9611" lon="6.92169">
        <ele>1150</ele>
        <time>2016-06-18T15:09:52Z</time>
      </trkpt>
      <trkpt lat="47.961" lon="6.92169">
        <ele>1150</ele>
        <time>2016-06-18T15:10:04Z</time>
      </trkpt>
      <trkpt lat="47.96086" lon="6.92158">
        <ele>1146</ele>
        <time>2016-06-18T15:10:17Z</time>
      </trkpt>
      <trkpt lat="47.96069" lon="6.92145">
        <ele>1149</ele>
        <time>2016-06-18T15:10:28Z</time>
      </trkpt>
      <trkpt lat="47.96066" lon="6.9214">
        <ele>1149</ele>
        <time>2016-06-18T15:10:31Z</time>
      </trkpt>
      <trkpt lat="47.96052" lon="6.92136">
        <ele>1149</ele>
        <time>2016-06-18T15:10:42Z</time>
      </trkpt>
      <trkpt lat="47.96048" lon="6.92131">
        <ele>1149</ele>
        <time>2016-06-18T15:10:49Z</time>
      </trkpt>
      <trkpt lat="47.96036" lon="6.92125">
        <ele>1149</ele>
        <time>2016-06-18T15:11:00Z</time>
      </trkpt>
      <trkpt lat="47.96023" lon="6.92115">
        <ele>1149</ele>
        <time>2016-06-18T15:11:11Z</time>
      </trkpt>
      <trkpt lat="47.96017" lon="6.92112">
        <ele>1149</ele>
        <time>2016-06-18T15:11:16Z</time>
      </trkpt>
      <trkpt lat="47.96005" lon="6.92103">
        <ele>1148</ele>
        <time>2016-06-18T15:11:27Z</time>
      </trkpt>
      <trkpt lat="47.96001" lon="6.92097">
        <ele>1148</ele>
        <time>2016-06-18T15:11:30Z</time>
      </trkpt>
      <trkpt lat="47.95987" lon="6.92089">
        <ele>1150</ele>
        <time>2016-06-18T15:11:41Z</time>
      </trkpt>
      <trkpt lat="47.95979" lon="6.92082">
        <ele>1143</ele>
        <time>2016-06-18T15:11:51Z</time>
      </trkpt>
      <trkpt lat="47.95975" lon="6.92079">
        <ele>1142</ele>
        <time>2016-06-18T15:12:05Z</time>
      </trkpt>
      <trkpt lat="47.95973" lon="6.92072">
        <ele>1142</ele>
        <time>2016-06-18T15:12:19Z</time>
      </trkpt>
      <trkpt lat="47.95969" lon="6.92073">
        <ele>1142</ele>
        <time>2016-06-18T15:19:31Z</time>
      </trkpt>
      <trkpt lat="47.95958" lon="6.9207">
        <ele>1141</ele>
        <time>2016-06-18T15:19:45Z</time>
      </trkpt>
      <trkpt lat="47.95944" lon="6.9207">
        <ele>1142</ele>
        <time>2016-06-18T15:19:57Z</time>
      </trkpt>
      <trkpt lat="47.9593" lon="6.92072">
        <ele>1143</ele>
        <time>2016-06-18T15:20:10Z</time>
      </trkpt>
      <trkpt lat="47.95914" lon="6.92077">
        <ele>1143</ele>
        <time>2016-06-18T15:20:22Z</time>
      </trkpt>
      <trkpt lat="47.959" lon="6.92085">
        <ele>1148</ele>
        <time>2016-06-18T15:20:35Z</time>
      </trkpt>
      <trkpt lat="47.95895" lon="6.92087">
        <ele>1148</ele>
        <time>2016-06-18T15:20:39Z</time>
      </trkpt>
      <trkpt lat="47.9588" lon="6.92094">
        <ele>1148</ele>
        <time>2016-06-18T15:20:53Z</time>
      </trkpt>
      <trkpt lat="47.95871" lon="6.92101">
        <ele>1148</ele>
        <time>2016-06-18T15:21:02Z</time>
      </trkpt>
      <trkpt lat="47.95867" lon="6.92106">
        <ele>1148</ele>
        <time>2016-06-18T15:21:06Z</time>
      </trkpt>
      <trkpt lat="47.95857" lon="6.92122">
        <ele>1149</ele>
        <time>2016-06-18T15:21:23Z</time>
      </trkpt>
      <trkpt lat="47.9585" lon="6.92133">
        <ele>1150</ele>
        <time>2016-06-18T15:21:30Z</time>
      </trkpt>
      <trkpt lat="47.95841" lon="6.92154">
        <ele>1151</ele>
        <time>2016-06-18T15:21:41Z</time>
      </trkpt>
      <trkpt lat="47.95836" lon="6.92173">
        <ele>1155</ele>
        <time>2016-06-18T15:21:53Z</time>
      </trkpt>
      <trkpt lat="47.95833" lon="6.92197">
        <ele>1152</ele>
        <time>2016-06-18T15:22:05Z</time>
      </trkpt>
      <trkpt lat="47.95824" lon="6.92208">
        <ele>1153</ele>
        <time>2016-06-18T15:22:11Z</time>
      </trkpt>
      <trkpt lat="47.95817" lon="6.92218">
        <ele>1154</ele>
        <time>2016-06-18T15:22:18Z</time>
      </trkpt>
      <trkpt lat="47.95804" lon="6.92235">
        <ele>1154</ele>
        <time>2016-06-18T15:22:29Z</time>
      </trkpt>
      <trkpt lat="47.95792" lon="6.92253">
        <ele>1161</ele>
        <time>2016-06-18T15:22:43Z</time>
      </trkpt>
      <trkpt lat="47.95782" lon="6.92271">
        <ele>1160</ele>
        <time>2016-06-18T15:22:54Z</time>
      </trkpt>
      <trkpt lat="47.95775" lon="6.92291">
        <ele>1161</ele>
        <time>2016-06-18T15:23:07Z</time>
      </trkpt>
      <trkpt lat="47.9577" lon="6.92312">
        <ele>1162</ele>
        <time>2016-06-18T15:23:19Z</time>
      </trkpt>
      <trkpt lat="47.95767" lon="6.92317">
        <ele>1162</ele>
        <time>2016-06-18T15:23:23Z</time>
      </trkpt>
      <trkpt lat="47.95759" lon="6.92327">
        <ele>1162</ele>
        <time>2016-06-18T15:23:33Z</time>
      </trkpt>
      <trkpt lat="47.9575" lon="6.92334">
        <ele>1162</ele>
        <time>2016-06-18T15:23:40Z</time>
      </trkpt>
      <trkpt lat="47.95736" lon="6.92343">
        <ele>1161</ele>
        <time>2016-06-18T15:23:54Z</time>
      </trkpt>
      <trkpt lat="47.95726" lon="6.92361">
        <ele>1161</ele>
        <time>2016-06-18T15:24:05Z</time>
      </trkpt>
      <trkpt lat="47.95714" lon="6.92379">
        <ele>1161</ele>
        <time>2016-06-18T15:24:15Z</time>
      </trkpt>
      <trkpt lat="47.95703" lon="6.92385">
        <ele>1161</ele>
        <time>2016-06-18T15:24:24Z</time>
      </trkpt>
      <trkpt lat="47.95698" lon="6.92388">
        <ele>1160</ele>
        <time>2016-06-18T15:24:29Z</time>
      </trkpt>
      <trkpt lat="47.95676" lon="6.92395">
        <ele>1159</ele>
        <time>2016-06-18T15:24:41Z</time>
      </trkpt>
      <trkpt lat="47.95659" lon="6.924">
        <ele>1155</ele>
        <time>2016-06-18T15:24:52Z</time>
      </trkpt>
      <trkpt lat="47.95654" lon="6.924">
        <ele>1154</ele>
        <time>2016-06-18T15:24:55Z</time>
      </trkpt>
      <trkpt lat="47.9564" lon="6.92411">
        <ele>1154</ele>
        <time>2016-06-18T15:25:06Z</time>
      </trkpt>
      <trkpt lat="47.95634" lon="6.92412">
        <ele>1153</ele>
        <time>2016-06-18T15:25:10Z</time>
      </trkpt>
      <trkpt lat="47.9562" lon="6.92419">
        <ele>1157</ele>
        <time>2016-06-18T15:25:21Z</time>
      </trkpt>
      <trkpt lat="47.95604" lon="6.92422">
        <ele>1155</ele>
        <time>2016-06-18T15:25:32Z</time>
      </trkpt>
      <trkpt lat="47.9559" lon="6.92431">
        <ele>1155</ele>
        <time>2016-06-18T15:25:45Z</time>
      </trkpt>
      <trkpt lat="47.95582" lon="6.92439">
        <ele>1149</ele>
        <time>2016-06-18T15:25:53Z</time>
      </trkpt>
      <trkpt lat="47.95568" lon="6.92437">
        <ele>1148</ele>
        <time>2016-06-18T15:26:06Z</time>
      </trkpt>
      <trkpt lat="47.95563" lon="6.92431">
        <ele>1148</ele>
        <time>2016-06-18T15:26:12Z</time>
      </trkpt>
      <trkpt lat="47.95548" lon="6.9242">
        <ele>1147</ele>
        <time>2016-06-18T15:26:24Z</time>
      </trkpt>
      <trkpt lat="47.95539" lon="6.92414">
        <ele>1147</ele>
        <time>2016-06-18T15:26:30Z</time>
      </trkpt>
      <trkpt lat="47.95523" lon="6.92405">
        <ele>1146</ele>
        <time>2016-06-18T15:26:41Z</time>
      </trkpt>
      <trkpt lat="47.95518" lon="6.92406">
        <ele>1146</ele>
        <time>2016-06-18T15:26:45Z</time>
      </trkpt>
      <trkpt lat="47.95508" lon="6.924">
        <ele>1145</ele>
        <time>2016-06-18T15:26:55Z</time>
      </trkpt>
      <trkpt lat="47.95494" lon="6.92393">
        <ele>1143</ele>
        <time>2016-06-18T15:27:05Z</time>
      </trkpt>
      <trkpt lat="47.9548" lon="6.92385">
        <ele>1142</ele>
        <time>2016-06-18T15:27:16Z</time>
      </trkpt>
      <trkpt lat="47.95466" lon="6.92377">
        <ele>1142</ele>
        <time>2016-06-18T15:27:27Z</time>
      </trkpt>
      <trkpt lat="47.9545" lon="6.92374">
        <ele>1141</ele>
        <time>2016-06-18T15:27:38Z</time>
      </trkpt>
      <trkpt lat="47.95434" lon="6.92369">
        <ele>1141</ele>
        <time>2016-06-18T15:27:49Z</time>
      </trkpt>
      <trkpt lat="47.9542" lon="6.92364">
        <ele>1141</ele>
        <time>2016-06-18T15:28:00Z</time>
      </trkpt>
      <trkpt lat="47.9541" lon="6.9236">
        <ele>1140</ele>
        <time>2016-06-18T15:28:10Z</time>
      </trkpt>
      <trkpt lat="47.95394" lon="6.92355">
        <ele>1140</ele>
        <time>2016-06-18T15:28:26Z</time>
      </trkpt>
      <trkpt lat="47.95389" lon="6.92355">
        <ele>1140</ele>
        <time>2016-06-18T15:28:31Z</time>
      </trkpt>
      <trkpt lat="47.95373" lon="6.9235">
        <ele>1140</ele>
        <time>2016-06-18T15:28:44Z</time>
      </trkpt>
      <trkpt lat="47.95359" lon="6.92349">
        <ele>1141</ele>
        <time>2016-06-18T15:28:58Z</time>
      </trkpt>
      <trkpt lat="47.95348" lon="6.92346">
        <ele>1142</ele>
        <time>2016-06-18T15:29:05Z</time>
      </trkpt>
      <trkpt lat="47.95333" lon="6.9235">
        <ele>1144</ele>
        <time>2016-06-18T15:29:19Z</time>
      </trkpt>
      <trkpt lat="47.95317" lon="6.92353">
        <ele>1144</ele>
        <time>2016-06-18T15:29:34Z</time>
      </trkpt>
      <trkpt lat="47.95302" lon="6.92348">
        <ele>1144</ele>
        <time>2016-06-18T15:29:47Z</time>
      </trkpt>
      <trkpt lat="47.95288" lon="6.92342">
        <ele>1145</ele>
        <time>2016-06-18T15:29:58Z</time>
      </trkpt>
      <trkpt lat="47.95274" lon="6.92336">
        <ele>1146</ele>
        <time>2016-06-18T15:30:09Z</time>
      </trkpt>
      <trkpt lat="47.95259" lon="6.92338">
        <ele>1147</ele>
        <time>2016-06-18T15:30:20Z</time>
      </trkpt>
      <trkpt lat="47.9525" lon="6.92345">
        <ele>1148</ele>
        <time>2016-06-18T15:30:32Z</time>
      </trkpt>
      <trkpt lat="47.95236" lon="6.92351">
        <ele>1148</ele>
        <time>2016-06-18T15:30:42Z</time>
      </trkpt>
      <trkpt lat="47.95222" lon="6.92363">
        <ele>1148</ele>
        <time>2016-06-18T15:30:55Z</time>
      </trkpt>
      <trkpt lat="47.95216" lon="6.92368">
        <ele>1147</ele>
        <time>2016-06-18T15:31:02Z</time>
      </trkpt>
      <trkpt lat="47.95198" lon="6.92386">
        <ele>1148</ele>
        <time>2016-06-18T15:31:14Z</time>
      </trkpt>
      <trkpt lat="47.95188" lon="6.92402">
        <ele>1148</ele>
        <time>2016-06-18T15:31:26Z</time>
      </trkpt>
      <trkpt lat="47.95176" lon="6.92417">
        <ele>1148</ele>
        <time>2016-06-18T15:31:38Z</time>
      </trkpt>
      <trkpt lat="47.95167" lon="6.92428">
        <ele>1148</ele>
        <time>2016-06-18T15:31:45Z</time>
      </trkpt>
      <trkpt lat="47.9516" lon="6.92458">
        <ele>1147</ele>
        <time>2016-06-18T15:31:58Z</time>
      </trkpt>
      <trkpt lat="47.9515" lon="6.92481">
        <ele>1146</ele>
        <time>2016-06-18T15:32:10Z</time>
      </trkpt>
      <trkpt lat="47.95144" lon="6.925">
        <ele>1146</ele>
        <time>2016-06-18T15:32:24Z</time>
      </trkpt>
      <trkpt lat="47.95131" lon="6.92511">
        <ele>1139</ele>
        <time>2016-06-18T15:32:37Z</time>
      </trkpt>
      <trkpt lat="47.95121" lon="6.92512">
        <ele>1139</ele>
        <time>2016-06-18T15:32:49Z</time>
      </trkpt>
      <trkpt lat="47.95105" lon="6.92519">
        <ele>1140</ele>
        <time>2016-06-18T15:33:00Z</time>
      </trkpt>
      <trkpt lat="47.9509" lon="6.92524">
        <ele>1140</ele>
        <time>2016-06-18T15:33:11Z</time>
      </trkpt>
      <trkpt lat="47.95085" lon="6.92527">
        <ele>1140</ele>
        <time>2016-06-18T15:33:16Z</time>
      </trkpt>
      <trkpt lat="47.9507" lon="6.92527">
        <ele>1140</ele>
        <time>2016-06-18T15:33:28Z</time>
      </trkpt>
      <trkpt lat="47.95054" lon="6.92537">
        <ele>1138</ele>
        <time>2016-06-18T15:33:37Z</time>
      </trkpt>
      <trkpt lat="47.9504" lon="6.92549">
        <ele>1136</ele>
        <time>2016-06-18T15:33:48Z</time>
      </trkpt>
      <trkpt lat="47.95029" lon="6.92551">
        <ele>1136</ele>
        <time>2016-06-18T15:33:58Z</time>
      </trkpt>
      <trkpt lat="47.95018" lon="6.9255">
        <ele>1136</ele>
        <time>2016-06-18T15:34:06Z</time>
      </trkpt>
      <trkpt lat="47.95002" lon="6.92541">
        <ele>1136</ele>
        <time>2016-06-18T15:34:17Z</time>
      </trkpt>
      <trkpt lat="47.94997" lon="6.9253">
        <ele>1122</ele>
        <time>2016-06-18T15:34:27Z</time>
      </trkpt>
      <trkpt lat="47.94993" lon="6.92516">
        <ele>1126</ele>
        <time>2016-06-18T15:34:38Z</time>
      </trkpt>
      <trkpt lat="47.94989" lon="6.925">
        <ele>1128</ele>
        <time>2016-06-18T15:34:48Z</time>
      </trkpt>
      <trkpt lat="47.94986" lon="6.92486">
        <ele>1127</ele>
        <time>2016-06-18T15:34:53Z</time>
      </trkpt>
      <trkpt lat="47.94981" lon="6.9246">
        <ele>1123</ele>
        <time>2016-06-18T15:35:03Z</time>
      </trkpt>
      <trkpt lat="47.94977" lon="6.92452">
        <ele>1123</ele>
        <time>2016-06-18T15:35:06Z</time>
      </trkpt>
      <trkpt lat="47.94974" lon="6.92429">
        <ele>1123</ele>
        <time>2016-06-18T15:35:16Z</time>
      </trkpt>
      <trkpt lat="47.94973" lon="6.92413">
        <ele>1122</ele>
        <time>2016-06-18T15:35:26Z</time>
      </trkpt>
      <trkpt lat="47.94977" lon="6.92391">
        <ele>1122</ele>
        <time>2016-06-18T15:35:36Z</time>
      </trkpt>
      <trkpt lat="47.94979" lon="6.92384">
        <ele>1121</ele>
        <time>2016-06-18T15:35:39Z</time>
      </trkpt>
      <trkpt lat="47.94983" lon="6.92369">
        <ele>1121</ele>
        <time>2016-06-18T15:35:49Z</time>
      </trkpt>
      <trkpt lat="47.94985" lon="6.92362">
        <ele>1120</ele>
        <time>2016-06-18T15:35:52Z</time>
      </trkpt>
      <trkpt lat="47.9499" lon="6.92342">
        <ele>1120</ele>
        <time>2016-06-18T15:36:04Z</time>
      </trkpt>
      <trkpt lat="47.94989" lon="6.92334">
        <ele>1120</ele>
        <time>2016-06-18T15:36:07Z</time>
      </trkpt>
      <trkpt lat="47.94986" lon="6.92328">
        <ele>1117</ele>
        <time>2016-06-18T15:36:14Z</time>
      </trkpt>
      <trkpt lat="47.94982" lon="6.92333">
        <ele>1120</ele>
        <time>2016-06-18T15:36:20Z</time>
      </trkpt>
      <trkpt lat="47.94968" lon="6.9234">
        <ele>1119</ele>
        <time>2016-06-18T15:36:32Z</time>
      </trkpt>
      <trkpt lat="47.94961" lon="6.92351">
        <ele>1119</ele>
        <time>2016-06-18T15:36:42Z</time>
      </trkpt>
      <trkpt lat="47.94954" lon="6.9236">
        <ele>1119</ele>
        <time>2016-06-18T15:36:53Z</time>
      </trkpt>
      <trkpt lat="47.94951" lon="6.92355">
        <ele>1118</ele>
        <time>2016-06-18T15:37:08Z</time>
      </trkpt>
      <trkpt lat="47.9495" lon="6.92346">
        <ele>1118</ele>
        <time>2016-06-18T15:37:18Z</time>
      </trkpt>
      <trkpt lat="47.94949" lon="6.92322">
        <ele>1114</ele>
        <time>2016-06-18T15:37:29Z</time>
      </trkpt>
      <trkpt lat="47.94947" lon="6.92302">
        <ele>1114</ele>
        <time>2016-06-18T15:37:41Z</time>
      </trkpt>
      <trkpt lat="47.94956" lon="6.92281">
        <ele>1113</ele>
        <time>2016-06-18T15:37:55Z</time>
      </trkpt>
      <trkpt lat="47.94956" lon="6.92274">
        <ele>1113</ele>
        <time>2016-06-18T15:37:58Z</time>
      </trkpt>
      <trkpt lat="47.94956" lon="6.92262">
        <ele>1112</ele>
        <time>2016-06-18T15:38:08Z</time>
      </trkpt>
      <trkpt lat="47.94954" lon="6.92256">
        <ele>1112</ele>
        <time>2016-06-18T15:38:12Z</time>
      </trkpt>
      <trkpt lat="47.94943" lon="6.92238">
        <ele>1109</ele>
        <time>2016-06-18T15:38:25Z</time>
      </trkpt>
      <trkpt lat="47.94927" lon="6.9223">
        <ele>1110</ele>
        <time>2016-06-18T15:38:39Z</time>
      </trkpt>
      <trkpt lat="47.94924" lon="6.92244">
        <ele>1112</ele>
        <time>2016-06-18T15:38:48Z</time>
      </trkpt>
      <trkpt lat="47.9492" lon="6.92257">
        <ele>1114</ele>
        <time>2016-06-18T15:38:56Z</time>
      </trkpt>
      <trkpt lat="47.94916" lon="6.92269">
        <ele>1119</ele>
        <time>2016-06-18T15:39:06Z</time>
      </trkpt>
      <trkpt lat="47.94913" lon="6.92285">
        <ele>1120</ele>
        <time>2016-06-18T15:39:17Z</time>
      </trkpt>
      <trkpt lat="47.94904" lon="6.92303">
        <ele>1120</ele>
        <time>2016-06-18T15:39:30Z</time>
      </trkpt>
      <trkpt lat="47.94897" lon="6.92313">
        <ele>1120</ele>
        <time>2016-06-18T15:39:36Z</time>
      </trkpt>
      <trkpt lat="47.94894" lon="6.9231">
        <ele>1121</ele>
        <time>2016-06-18T15:39:57Z</time>
      </trkpt>
      <trkpt lat="47.94895" lon="6.92297">
        <ele>1121</ele>
        <time>2016-06-18T15:40:09Z</time>
      </trkpt>
      <trkpt lat="47.94896" lon="6.92282">
        <ele>1121</ele>
        <time>2016-06-18T15:40:21Z</time>
      </trkpt>
      <trkpt lat="47.94891" lon="6.92269">
        <ele>1122</ele>
        <time>2016-06-18T15:40:31Z</time>
      </trkpt>
      <trkpt lat="47.94888" lon="6.92261">
        <ele>1122</ele>
        <time>2016-06-18T15:40:36Z</time>
      </trkpt>
      <trkpt lat="47.94891" lon="6.92248">
        <ele>1122</ele>
        <time>2016-06-18T15:40:48Z</time>
      </trkpt>
      <trkpt lat="47.94891" lon="6.92241">
        <ele>1122</ele>
        <time>2016-06-18T15:40:56Z</time>
      </trkpt>
      <trkpt lat="47.94886" lon="6.92241">
        <ele>1123</ele>
        <time>2016-06-18T15:41:01Z</time>
      </trkpt>
      <trkpt lat="47.94872" lon="6.92253">
        <ele>1125</ele>
        <time>2016-06-18T15:41:14Z</time>
      </trkpt>
      <trkpt lat="47.9486" lon="6.92262">
        <ele>1127</ele>
        <time>2016-06-18T15:41:26Z</time>
      </trkpt>
      <trkpt lat="47.94851" lon="6.92266">
        <ele>1129</ele>
        <time>2016-06-18T15:41:36Z</time>
      </trkpt>
      <trkpt lat="47.94847" lon="6.9227">
        <ele>1129</ele>
        <time>2016-06-18T15:41:43Z</time>
      </trkpt>
      <trkpt lat="47.94838" lon="6.92266">
        <ele>1131</ele>
        <time>2016-06-18T15:41:53Z</time>
      </trkpt>
      <trkpt lat="47.94828" lon="6.92259">
        <ele>1136</ele>
        <time>2016-06-18T15:42:05Z</time>
      </trkpt>
      <trkpt lat="47.94817" lon="6.92241">
        <ele>1138</ele>
        <time>2016-06-18T15:42:16Z</time>
      </trkpt>
      <trkpt lat="47.94803" lon="6.92224">
        <ele>1138</ele>
        <time>2016-06-18T15:42:29Z</time>
      </trkpt>
      <trkpt lat="47.94791" lon="6.9221">
        <ele>1139</ele>
        <time>2016-06-18T15:42:40Z</time>
      </trkpt>
      <trkpt lat="47.94788" lon="6.92202">
        <ele>1139</ele>
        <time>2016-06-18T15:42:42Z</time>
      </trkpt>
      <trkpt lat="47.94785" lon="6.92196">
        <ele>1139</ele>
        <time>2016-06-18T15:42:46Z</time>
      </trkpt>
      <trkpt lat="47.94774" lon="6.9218">
        <ele>1140</ele>
        <time>2016-06-18T15:42:59Z</time>
      </trkpt>
      <trkpt lat="47.94766" lon="6.92158">
        <ele>1140</ele>
        <time>2016-06-18T15:43:10Z</time>
      </trkpt>
      <trkpt lat="47.94766" lon="6.92151">
        <ele>1140</ele>
        <time>2016-06-18T15:43:12Z</time>
      </trkpt>
      <trkpt lat="47.94763" lon="6.92144">
        <ele>1140</ele>
        <time>2016-06-18T15:43:15Z</time>
      </trkpt>
      <trkpt lat="47.94759" lon="6.92129">
        <ele>1140</ele>
        <time>2016-06-18T15:43:25Z</time>
      </trkpt>
      <trkpt lat="47.94754" lon="6.92112">
        <ele>1140</ele>
        <time>2016-06-18T15:43:31Z</time>
      </trkpt>
      <trkpt lat="47.94751" lon="6.92107">
        <ele>1140</ele>
        <time>2016-06-18T15:43:36Z</time>
      </trkpt>
      <trkpt lat="47.94738" lon="6.92091">
        <ele>1143</ele>
        <time>2016-06-18T15:43:46Z</time>
      </trkpt>
      <trkpt lat="47.94728" lon="6.92087">
        <ele>1143</ele>
        <time>2016-06-18T15:43:58Z</time>
      </trkpt>
      <trkpt lat="47.94713" lon="6.92089">
        <ele>1143</ele>
        <time>2016-06-18T15:44:10Z</time>
      </trkpt>
      <trkpt lat="47.94703" lon="6.92085">
        <ele>1143</ele>
        <time>2016-06-18T15:44:23Z</time>
      </trkpt>
      <trkpt lat="47.94691" lon="6.92071">
        <ele>1145</ele>
        <time>2016-06-18T15:44:33Z</time>
      </trkpt>
      <trkpt lat="47.94676" lon="6.9206">
        <ele>1145</ele>
        <time>2016-06-18T15:44:47Z</time>
      </trkpt>
      <trkpt lat="47.94655" lon="6.92049">
        <ele>1145</ele>
        <time>2016-06-18T15:44:58Z</time>
      </trkpt>
      <trkpt lat="47.9465" lon="6.92048">
        <ele>1145</ele>
        <time>2016-06-18T15:45:00Z</time>
      </trkpt>
      <trkpt lat="47.94635" lon="6.92044">
        <ele>1144</ele>
        <time>2016-06-18T15:45:13Z</time>
      </trkpt>
      <trkpt lat="47.94619" lon="6.9204">
        <ele>1144</ele>
        <time>2016-06-18T15:45:25Z</time>
      </trkpt>
      <trkpt lat="47.94609" lon="6.9204">
        <ele>1144</ele>
        <time>2016-06-18T15:45:37Z</time>
      </trkpt>
      <trkpt lat="47.94593" lon="6.9204">
        <ele>1143</ele>
        <time>2016-06-18T15:45:49Z</time>
      </trkpt>
      <trkpt lat="47.94584" lon="6.92035">
        <ele>1143</ele>
        <time>2016-06-18T15:46:01Z</time>
      </trkpt>
      <trkpt lat="47.94581" lon="6.92028">
        <ele>1139</ele>
        <time>2016-06-18T15:46:04Z</time>
      </trkpt>
      <trkpt lat="47.94577" lon="6.92023">
        <ele>1139</ele>
        <time>2016-06-18T15:46:10Z</time>
      </trkpt>
      <trkpt lat="47.94562" lon="6.91998">
        <ele>1144</ele>
        <time>2016-06-18T15:46:26Z</time>
      </trkpt>
      <trkpt lat="47.94557" lon="6.91998">
        <ele>1144</ele>
        <time>2016-06-18T15:46:29Z</time>
      </trkpt>
      <trkpt lat="47.94551" lon="6.91998">
        <ele>1144</ele>
        <time>2016-06-18T15:46:33Z</time>
      </trkpt>
      <trkpt lat="47.94536" lon="6.92002">
        <ele>1138</ele>
        <time>2016-06-18T15:46:46Z</time>
      </trkpt>
      <trkpt lat="47.94526" lon="6.91998">
        <ele>1143</ele>
        <time>2016-06-18T15:46:56Z</time>
      </trkpt>
      <trkpt lat="47.94516" lon="6.91995">
        <ele>1143</ele>
        <time>2016-06-18T15:47:00Z</time>
      </trkpt>
      <trkpt lat="47.945" lon="6.9199">
        <ele>1142</ele>
        <time>2016-06-18T15:47:13Z</time>
      </trkpt>
      <trkpt lat="47.94486" lon="6.91978">
        <ele>1140</ele>
        <time>2016-06-18T15:47:26Z</time>
      </trkpt>
      <trkpt lat="47.94473" lon="6.91964">
        <ele>1139</ele>
        <time>2016-06-18T15:47:36Z</time>
      </trkpt>
      <trkpt lat="47.94465" lon="6.91957">
        <ele>1139</ele>
        <time>2016-06-18T15:47:46Z</time>
      </trkpt>
      <trkpt lat="47.9445" lon="6.91948">
        <ele>1138</ele>
        <time>2016-06-18T15:47:57Z</time>
      </trkpt>
      <trkpt lat="47.94432" lon="6.91944">
        <ele>1138</ele>
        <time>2016-06-18T15:48:08Z</time>
      </trkpt>
      <trkpt lat="47.94427" lon="6.91946">
        <ele>1138</ele>
        <time>2016-06-18T15:48:11Z</time>
      </trkpt>
      <trkpt lat="47.94421" lon="6.91969">
        <ele>1135</ele>
        <time>2016-06-18T15:48:22Z</time>
      </trkpt>
      <trkpt lat="47.94418" lon="6.91977">
        <ele>1134</ele>
        <time>2016-06-18T15:48:26Z</time>
      </trkpt>
      <trkpt lat="47.94405" lon="6.91981">
        <ele>1125</ele>
        <time>2016-06-18T15:48:40Z</time>
      </trkpt>
      <trkpt lat="47.944" lon="6.91989">
        <ele>1125</ele>
        <time>2016-06-18T15:48:52Z</time>
      </trkpt>
      <trkpt lat="47.94391" lon="6.91998">
        <ele>1124</ele>
        <time>2016-06-18T15:49:05Z</time>
      </trkpt>
      <trkpt lat="47.94389" lon="6.92005">
        <ele>1115</ele>
        <time>2016-06-18T15:49:16Z</time>
      </trkpt>
      <trkpt lat="47.94394" lon="6.92014">
        <ele>1115</ele>
        <time>2016-06-18T15:49:26Z</time>
      </trkpt>
      <trkpt lat="47.94389" lon="6.92013">
        <ele>1114</ele>
        <time>2016-06-18T15:49:30Z</time>
      </trkpt>
      <trkpt lat="47.9439" lon="6.92025">
        <ele>1112</ele>
        <time>2016-06-18T15:49:49Z</time>
      </trkpt>
      <trkpt lat="47.9438" lon="6.92028">
        <ele>1111</ele>
        <time>2016-06-18T15:49:59Z</time>
      </trkpt>
      <trkpt lat="47.94375" lon="6.92031">
        <ele>1110</ele>
        <time>2016-06-18T15:50:09Z</time>
      </trkpt>
      <trkpt lat="47.94376" lon="6.92037">
        <ele>1109</ele>
        <time>2016-06-18T15:50:20Z</time>
      </trkpt>
      <trkpt lat="47.94374" lon="6.92052">
        <ele>1107</ele>
        <time>2016-06-18T15:50:32Z</time>
      </trkpt>
      <trkpt lat="47.94365" lon="6.92049">
        <ele>1107</ele>
        <time>2016-06-18T15:50:42Z</time>
      </trkpt>
      <trkpt lat="47.94358" lon="6.92039">
        <ele>1108</ele>
        <time>2016-06-18T15:50:53Z</time>
      </trkpt>
      <trkpt lat="47.94341" lon="6.92037">
        <ele>1107</ele>
        <time>2016-06-18T15:51:05Z</time>
      </trkpt>
      <trkpt lat="47.94338" lon="6.9205">
        <ele>1106</ele>
        <time>2016-06-18T15:51:16Z</time>
      </trkpt>
      <trkpt lat="47.94335" lon="6.92073">
        <ele>1101</ele>
        <time>2016-06-18T15:51:28Z</time>
      </trkpt>
      <trkpt lat="47.94333" lon="6.92089">
        <ele>1095</ele>
        <time>2016-06-18T15:51:36Z</time>
      </trkpt>
      <trkpt lat="47.94328" lon="6.92101">
        <ele>1090</ele>
        <time>2016-06-18T15:51:43Z</time>
      </trkpt>
      <trkpt lat="47.94313" lon="6.92099">
        <ele>1089</ele>
        <time>2016-06-18T15:51:56Z</time>
      </trkpt>
      <trkpt lat="47.94298" lon="6.92108">
        <ele>1086</ele>
        <time>2016-06-18T15:52:10Z</time>
      </trkpt>
      <trkpt lat="47.94296" lon="6.92115">
        <ele>1085</ele>
        <time>2016-06-18T15:52:15Z</time>
      </trkpt>
      <trkpt lat="47.94296" lon="6.92129">
        <ele>1084</ele>
        <time>2016-06-18T15:52:27Z</time>
      </trkpt>
      <trkpt lat="47.94289" lon="6.92136">
        <ele>1083</ele>
        <time>2016-06-18T15:52:35Z</time>
      </trkpt>
      <trkpt lat="47.94278" lon="6.92137">
        <ele>1083</ele>
        <time>2016-06-18T15:52:50Z</time>
      </trkpt>
      <trkpt lat="47.94256" lon="6.92142">
        <ele>1082</ele>
        <time>2016-06-18T15:53:02Z</time>
      </trkpt>
      <trkpt lat="47.94251" lon="6.9214">
        <ele>1082</ele>
        <time>2016-06-18T15:53:06Z</time>
      </trkpt>
      <trkpt lat="47.94247" lon="6.92137">
        <ele>1079</ele>
        <time>2016-06-18T15:53:14Z</time>
      </trkpt>
      <trkpt lat="47.94241" lon="6.92148">
        <ele>1078</ele>
        <time>2016-06-18T15:53:24Z</time>
      </trkpt>
      <trkpt lat="47.94226" lon="6.92149">
        <ele>1078</ele>
        <time>2016-06-18T15:53:35Z</time>
      </trkpt>
      <trkpt lat="47.94219" lon="6.92147">
        <ele>1078</ele>
        <time>2016-06-18T15:53:38Z</time>
      </trkpt>
      <trkpt lat="47.9421" lon="6.92144">
        <ele>1078</ele>
        <time>2016-06-18T15:53:49Z</time>
      </trkpt>
      <trkpt lat="47.94189" lon="6.92149">
        <ele>1077</ele>
        <time>2016-06-18T15:54:01Z</time>
      </trkpt>
      <trkpt lat="47.94176" lon="6.92161">
        <ele>1076</ele>
        <time>2016-06-18T15:54:11Z</time>
      </trkpt>
      <trkpt lat="47.94173" lon="6.92165">
        <ele>1076</ele>
        <time>2016-06-18T15:54:14Z</time>
      </trkpt>
      <trkpt lat="47.94162" lon="6.92178">
        <ele>1077</ele>
        <time>2016-06-18T15:54:27Z</time>
      </trkpt>
      <trkpt lat="47.9415" lon="6.92192">
        <ele>1078</ele>
        <time>2016-06-18T15:54:39Z</time>
      </trkpt>
      <trkpt lat="47.94145" lon="6.92196">
        <ele>1078</ele>
        <time>2016-06-18T15:54:43Z</time>
      </trkpt>
      <trkpt lat="47.94139" lon="6.92214">
        <ele>1079</ele>
        <time>2016-06-18T15:54:57Z</time>
      </trkpt>
      <trkpt lat="47.94133" lon="6.92234">
        <ele>1080</ele>
        <time>2016-06-18T15:55:10Z</time>
      </trkpt>
      <trkpt lat="47.94131" lon="6.92249">
        <ele>1080</ele>
        <time>2016-06-18T15:55:21Z</time>
      </trkpt>
      <trkpt lat="47.94137" lon="6.92269">
        <ele>1080</ele>
        <time>2016-06-18T15:55:32Z</time>
      </trkpt>
      <trkpt lat="47.94134" lon="6.92286">
        <ele>1079</ele>
        <time>2016-06-18T15:55:38Z</time>
      </trkpt>
      <trkpt lat="47.94133" lon="6.92294">
        <ele>1079</ele>
        <time>2016-06-18T15:55:42Z</time>
      </trkpt>
      <trkpt lat="47.94128" lon="6.92312">
        <ele>1078</ele>
        <time>2016-06-18T15:55:54Z</time>
      </trkpt>
      <trkpt lat="47.9412" lon="6.92314">
        <ele>1079</ele>
        <time>2016-06-18T15:56:04Z</time>
      </trkpt>
      <trkpt lat="47.94116" lon="6.9231">
        <ele>1079</ele>
        <time>2016-06-18T15:56:10Z</time>
      </trkpt>
      <trkpt lat="47.941" lon="6.92306">
        <ele>1080</ele>
        <time>2016-06-18T15:56:20Z</time>
      </trkpt>
      <trkpt lat="47.94084" lon="6.92305">
        <ele>1080</ele>
        <time>2016-06-18T15:56:32Z</time>
      </trkpt>
      <trkpt lat="47.94068" lon="6.923">
        <ele>1080</ele>
        <time>2016-06-18T15:56:42Z</time>
      </trkpt>
      <trkpt lat="47.94054" lon="6.92303">
        <ele>1080</ele>
        <time>2016-06-18T15:56:52Z</time>
      </trkpt>
      <trkpt lat="47.94039" lon="6.92308">
        <ele>1079</ele>
        <time>2016-06-18T15:57:02Z</time>
      </trkpt>
      <trkpt lat="47.94032" lon="6.92306">
        <ele>1079</ele>
        <time>2016-06-18T15:57:06Z</time>
      </trkpt>
      <trkpt lat="47.94017" lon="6.92304">
        <ele>1079</ele>
        <time>2016-06-18T15:57:18Z</time>
      </trkpt>
      <trkpt lat="47.94012" lon="6.92302">
        <ele>1079</ele>
        <time>2016-06-18T15:57:21Z</time>
      </trkpt>
      <trkpt lat="47.94007" lon="6.923">
        <ele>1079</ele>
        <time>2016-06-18T15:57:24Z</time>
      </trkpt>
      <trkpt lat="47.93992" lon="6.92296">
        <ele>1073</ele>
        <time>2016-06-18T15:57:34Z</time>
      </trkpt>
      <trkpt lat="47.93976" lon="6.92298">
        <ele>1072</ele>
        <time>2016-06-18T15:57:44Z</time>
      </trkpt>
      <trkpt lat="47.93961" lon="6.92293">
        <ele>1071</ele>
        <time>2016-06-18T15:57:56Z</time>
      </trkpt>
      <trkpt lat="47.93951" lon="6.92291">
        <ele>1070</ele>
        <time>2016-06-18T15:58:07Z</time>
      </trkpt>
      <trkpt lat="47.93936" lon="6.92288">
        <ele>1069</ele>
        <time>2016-06-18T15:58:19Z</time>
      </trkpt>
      <trkpt lat="47.93925" lon="6.92272">
        <ele>1070</ele>
        <time>2016-06-18T15:58:31Z</time>
      </trkpt>
      <trkpt lat="47.93923" lon="6.92266">
        <ele>1070</ele>
        <time>2016-06-18T15:58:35Z</time>
      </trkpt>
      <trkpt lat="47.93921" lon="6.92244">
        <ele>1071</ele>
        <time>2016-06-18T15:58:48Z</time>
      </trkpt>
      <trkpt lat="47.93927" lon="6.9223">
        <ele>1071</ele>
        <time>2016-06-18T15:58:58Z</time>
      </trkpt>
      <trkpt lat="47.93926" lon="6.92199">
        <ele>1069</ele>
        <time>2016-06-18T15:59:12Z</time>
      </trkpt>
      <trkpt lat="47.93923" lon="6.92193">
        <ele>1068</ele>
        <time>2016-06-18T15:59:15Z</time>
      </trkpt>
      <trkpt lat="47.93922" lon="6.92201">
        <ele>1069</ele>
        <time>2016-06-18T15:59:19Z</time>
      </trkpt>
      <trkpt lat="47.93916" lon="6.92214">
        <ele>1062</ele>
        <time>2016-06-18T15:59:31Z</time>
      </trkpt>
      <trkpt lat="47.93909" lon="6.92217">
        <ele>1062</ele>
        <time>2016-06-18T15:59:41Z</time>
      </trkpt>
      <trkpt lat="47.9391" lon="6.92203">
        <ele>1061</ele>
        <time>2016-06-18T15:59:51Z</time>
      </trkpt>
      <trkpt lat="47.93908" lon="6.92196">
        <ele>1061</ele>
        <time>2016-06-18T15:59:55Z</time>
      </trkpt>
      <trkpt lat="47.93905" lon="6.92182">
        <ele>1060</ele>
        <time>2016-06-18T16:00:08Z</time>
      </trkpt>
      <trkpt lat="47.93897" lon="6.92163">
        <ele>1056</ele>
        <time>2016-06-18T16:00:19Z</time>
      </trkpt>
      <trkpt lat="47.93888" lon="6.9217">
        <ele>1059</ele>
        <time>2016-06-18T16:00:30Z</time>
      </trkpt>
      <trkpt lat="47.93877" lon="6.92183">
        <ele>1059</ele>
        <time>2016-06-18T16:00:42Z</time>
      </trkpt>
      <trkpt lat="47.93867" lon="6.92193">
        <ele>1058</ele>
        <time>2016-06-18T16:00:55Z</time>
      </trkpt>
      <trkpt lat="47.93856" lon="6.92194">
        <ele>1057</ele>
        <time>2016-06-18T16:01:04Z</time>
      </trkpt>
      <trkpt lat="47.9384" lon="6.92192">
        <ele>1056</ele>
        <time>2016-06-18T16:01:17Z</time>
      </trkpt>
      <trkpt lat="47.93831" lon="6.92195">
        <ele>1058</ele>
        <time>2016-06-18T16:01:28Z</time>
      </trkpt>
      <trkpt lat="47.93821" lon="6.92194">
        <ele>1059</ele>
        <time>2016-06-18T16:01:38Z</time>
      </trkpt>
      <trkpt lat="47.93815" lon="6.92194">
        <ele>1059</ele>
        <time>2016-06-18T16:01:42Z</time>
      </trkpt>
      <trkpt lat="47.93799" lon="6.92191">
        <ele>1061</ele>
        <time>2016-06-18T16:01:52Z</time>
      </trkpt>
      <trkpt lat="47.93789" lon="6.922">
        <ele>1062</ele>
        <time>2016-06-18T16:02:00Z</time>
      </trkpt>
      <trkpt lat="47.93783" lon="6.92222">
        <ele>1063</ele>
        <time>2016-06-18T16:02:12Z</time>
      </trkpt>
      <trkpt lat="47.93775" lon="6.92245">
        <ele>1066</ele>
        <time>2016-06-18T16:02:24Z</time>
      </trkpt>
      <trkpt lat="47.93767" lon="6.92251">
        <ele>1068</ele>
        <time>2016-06-18T16:02:37Z</time>
      </trkpt>
      <trkpt lat="47.93768" lon="6.92237">
        <ele>1067</ele>
        <time>2016-06-18T16:02:49Z</time>
      </trkpt>
      <trkpt lat="47.93768" lon="6.92229">
        <ele>1066</ele>
        <time>2016-06-18T16:02:53Z</time>
      </trkpt>
      <trkpt lat="47.93762" lon="6.92214">
        <ele>1065</ele>
        <time>2016-06-18T16:03:03Z</time>
      </trkpt>
      <trkpt lat="47.93759" lon="6.92209">
        <ele>1065</ele>
        <time>2016-06-18T16:03:08Z</time>
      </trkpt>
      <trkpt lat="47.93755" lon="6.92215">
        <ele>1066</ele>
        <time>2016-06-18T16:03:18Z</time>
      </trkpt>
      <trkpt lat="47.93752" lon="6.9223">
        <ele>1068</ele>
        <time>2016-06-18T16:03:30Z</time>
      </trkpt>
      <trkpt lat="47.93748" lon="6.92243">
        <ele>1078</ele>
        <time>2016-06-18T16:03:41Z</time>
      </trkpt>
      <trkpt lat="47.93738" lon="6.92258">
        <ele>1083</ele>
        <time>2016-06-18T16:03:55Z</time>
      </trkpt>
      <trkpt lat="47.93739" lon="6.9225">
        <ele>1081</ele>
        <time>2016-06-18T16:04:08Z</time>
      </trkpt>
      <trkpt lat="47.93735" lon="6.92245">
        <ele>1079</ele>
        <time>2016-06-18T16:04:12Z</time>
      </trkpt>
      <trkpt lat="47.93728" lon="6.92225">
        <ele>1081</ele>
        <time>2016-06-18T16:04:30Z</time>
      </trkpt>
      <trkpt lat="47.93723" lon="6.92224">
        <ele>1081</ele>
        <time>2016-06-18T16:04:37Z</time>
      </trkpt>
      <trkpt lat="47.93718" lon="6.9222">
        <ele>1082</ele>
        <time>2016-06-18T16:04:43Z</time>
      </trkpt>
      <trkpt lat="47.93706" lon="6.92231">
        <ele>1084</ele>
        <time>2016-06-18T16:04:55Z</time>
      </trkpt>
      <trkpt lat="47.93704" lon="6.92253">
        <ele>1092</ele>
        <time>2016-06-18T16:05:11Z</time>
      </trkpt>
      <trkpt lat="47.93712" lon="6.92273">
        <ele>1091</ele>
        <time>2016-06-18T16:05:23Z</time>
      </trkpt>
      <trkpt lat="47.93708" lon="6.92299">
        <ele>1093</ele>
        <time>2016-06-18T16:05:35Z</time>
      </trkpt>
      <trkpt lat="47.93703" lon="6.92295">
        <ele>1093</ele>
        <time>2016-06-18T16:05:50Z</time>
      </trkpt>
      <trkpt lat="47.93691" lon="6.92286">
        <ele>1095</ele>
        <time>2016-06-18T16:06:03Z</time>
      </trkpt>
      <trkpt lat="47.93682" lon="6.92278">
        <ele>1096</ele>
        <time>2016-06-18T16:06:14Z</time>
      </trkpt>
      <trkpt lat="47.93683" lon="6.92293">
        <ele>1097</ele>
        <time>2016-06-18T16:06:28Z</time>
      </trkpt>
      <trkpt lat="47.93687" lon="6.92311">
        <ele>1099</ele>
        <time>2016-06-18T16:06:40Z</time>
      </trkpt>
      <trkpt lat="47.93689" lon="6.92325">
        <ele>1100</ele>
        <time>2016-06-18T16:06:50Z</time>
      </trkpt>
      <trkpt lat="47.9369" lon="6.92339">
        <ele>1105</ele>
        <time>2016-06-18T16:07:02Z</time>
      </trkpt>
      <trkpt lat="47.93687" lon="6.9235">
        <ele>1105</ele>
        <time>2016-06-18T16:07:12Z</time>
      </trkpt>
      <trkpt lat="47.93682" lon="6.92348">
        <ele>1107</ele>
        <time>2016-06-18T16:07:22Z</time>
      </trkpt>
      <trkpt lat="47.93672" lon="6.92343">
        <ele>1110</ele>
        <time>2016-06-18T16:07:32Z</time>
      </trkpt>
      <trkpt lat="47.9366" lon="6.92335">
        <ele>1119</ele>
        <time>2016-06-18T16:07:45Z</time>
      </trkpt>
      <trkpt lat="47.93663" lon="6.92348">
        <ele>1121</ele>
        <time>2016-06-18T16:08:00Z</time>
      </trkpt>
      <trkpt lat="47.93668" lon="6.9236">
        <ele>1107</ele>
        <time>2016-06-18T16:08:11Z</time>
      </trkpt>
      <trkpt lat="47.93666" lon="6.92367">
        <ele>1123</ele>
        <time>2016-06-18T16:08:14Z</time>
      </trkpt>
      <trkpt lat="47.93661" lon="6.9237">
        <ele>1124</ele>
        <time>2016-06-18T16:08:18Z</time>
      </trkpt>
      <trkpt lat="47.93652" lon="6.92375">
        <ele>1125</ele>
        <time>2016-06-18T16:08:28Z</time>
      </trkpt>
      <trkpt lat="47.93642" lon="6.92394">
        <ele>1126</ele>
        <time>2016-06-18T16:08:41Z</time>
      </trkpt>
      <trkpt lat="47.93635" lon="6.92406">
        <ele>1127</ele>
        <time>2016-06-18T16:08:51Z</time>
      </trkpt>
      <trkpt lat="47.93632" lon="6.92421">
        <ele>1129</ele>
        <time>2016-06-18T16:09:01Z</time>
      </trkpt>
      <trkpt lat="47.93626" lon="6.92441">
        <ele>1130</ele>
        <time>2016-06-18T16:09:15Z</time>
      </trkpt>
      <trkpt lat="47.93615" lon="6.92456">
        <ele>1131</ele>
        <time>2016-06-18T16:09:26Z</time>
      </trkpt>
      <trkpt lat="47.936" lon="6.92452">
        <ele>1132</ele>
        <time>2016-06-18T16:09:37Z</time>
      </trkpt>
      <trkpt lat="47.93595" lon="6.92453">
        <ele>1132</ele>
        <time>2016-06-18T16:09:40Z</time>
      </trkpt>
      <trkpt lat="47.9359" lon="6.92451">
        <ele>1132</ele>
        <time>2016-06-18T16:09:43Z</time>
      </trkpt>
      <trkpt lat="47.93579" lon="6.92455">
        <ele>1137</ele>
        <time>2016-06-18T16:09:55Z</time>
      </trkpt>
      <trkpt lat="47.93569" lon="6.92459">
        <ele>1137</ele>
        <time>2016-06-18T16:10:05Z</time>
      </trkpt>
      <trkpt lat="47.93553" lon="6.92464">
        <ele>1137</ele>
        <time>2016-06-18T16:10:15Z</time>
      </trkpt>
      <trkpt lat="47.93548" lon="6.92465">
        <ele>1138</ele>
        <time>2016-06-18T16:10:18Z</time>
      </trkpt>
      <trkpt lat="47.93538" lon="6.92468">
        <ele>1138</ele>
        <time>2016-06-18T16:10:28Z</time>
      </trkpt>
      <trkpt lat="47.93523" lon="6.9247">
        <ele>1138</ele>
        <time>2016-06-18T16:10:40Z</time>
      </trkpt>
      <trkpt lat="47.93517" lon="6.92471">
        <ele>1138</ele>
        <time>2016-06-18T16:10:44Z</time>
      </trkpt>
      <trkpt lat="47.93502" lon="6.92472">
        <ele>1138</ele>
        <time>2016-06-18T16:10:57Z</time>
      </trkpt>
      <trkpt lat="47.93493" lon="6.92476">
        <ele>1138</ele>
        <time>2016-06-18T16:11:04Z</time>
      </trkpt>
      <trkpt lat="47.93476" lon="6.92479">
        <ele>1138</ele>
        <time>2016-06-18T16:11:16Z</time>
      </trkpt>
      <trkpt lat="47.93464" lon="6.92482">
        <ele>1138</ele>
        <time>2016-06-18T16:11:22Z</time>
      </trkpt>
      <trkpt lat="47.93454" lon="6.9249">
        <ele>1137</ele>
        <time>2016-06-18T16:11:31Z</time>
      </trkpt>
      <trkpt lat="47.93434" lon="6.92491">
        <ele>1137</ele>
        <time>2016-06-18T16:11:44Z</time>
      </trkpt>
      <trkpt lat="47.93429" lon="6.92492">
        <ele>1136</ele>
        <time>2016-06-18T16:11:48Z</time>
      </trkpt>
      <trkpt lat="47.93414" lon="6.92493">
        <ele>1134</ele>
        <time>2016-06-18T16:11:59Z</time>
      </trkpt>
      <trkpt lat="47.934" lon="6.92485">
        <ele>1134</ele>
        <time>2016-06-18T16:12:13Z</time>
      </trkpt>
      <trkpt lat="47.93388" lon="6.92474">
        <ele>1133</ele>
        <time>2016-06-18T16:12:23Z</time>
      </trkpt>
      <trkpt lat="47.93374" lon="6.92466">
        <ele>1133</ele>
        <time>2016-06-18T16:12:34Z</time>
      </trkpt>
      <trkpt lat="47.93362" lon="6.9245">
        <ele>1134</ele>
        <time>2016-06-18T16:12:45Z</time>
      </trkpt>
      <trkpt lat="47.93357" lon="6.92445">
        <ele>1134</ele>
        <time>2016-06-18T16:12:48Z</time>
      </trkpt>
      <trkpt lat="47.93353" lon="6.9244">
        <ele>1134</ele>
        <time>2016-06-18T16:12:53Z</time>
      </trkpt>
      <trkpt lat="47.93344" lon="6.9243">
        <ele>1136</ele>
        <time>2016-06-18T16:13:01Z</time>
      </trkpt>
      <trkpt lat="47.9333" lon="6.92425">
        <ele>1136</ele>
        <time>2016-06-18T16:13:13Z</time>
      </trkpt>
      <trkpt lat="47.93326" lon="6.92421">
        <ele>1136</ele>
        <time>2016-06-18T16:13:21Z</time>
      </trkpt>
      <trkpt lat="47.93306" lon="6.92411">
        <ele>1139</ele>
        <time>2016-06-18T16:13:33Z</time>
      </trkpt>
      <trkpt lat="47.93291" lon="6.92403">
        <ele>1139</ele>
        <time>2016-06-18T16:13:44Z</time>
      </trkpt>
      <trkpt lat="47.9328" lon="6.92398">
        <ele>1139</ele>
        <time>2016-06-18T16:13:54Z</time>
      </trkpt>
      <trkpt lat="47.9327" lon="6.92389">
        <ele>1140</ele>
        <time>2016-06-18T16:14:03Z</time>
      </trkpt>
      <trkpt lat="47.93255" lon="6.92387">
        <ele>1140</ele>
        <time>2016-06-18T16:14:13Z</time>
      </trkpt>
      <trkpt lat="47.93234" lon="6.92385">
        <ele>1142</ele>
        <time>2016-06-18T16:14:28Z</time>
      </trkpt>
      <trkpt lat="47.93228" lon="6.92386">
        <ele>1142</ele>
        <time>2016-06-18T16:14:31Z</time>
      </trkpt>
      <trkpt lat="47.93207" lon="6.92392">
        <ele>1142</ele>
        <time>2016-06-18T16:14:44Z</time>
      </trkpt>
      <trkpt lat="47.93193" lon="6.92403">
        <ele>1142</ele>
        <time>2016-06-18T16:14:54Z</time>
      </trkpt>
      <trkpt lat="47.93177" lon="6.92409">
        <ele>1141</ele>
        <time>2016-06-18T16:15:05Z</time>
      </trkpt>
      <trkpt lat="47.9316" lon="6.92419">
        <ele>1140</ele>
        <time>2016-06-18T16:15:17Z</time>
      </trkpt>
      <trkpt lat="47.93149" lon="6.92433">
        <ele>1140</ele>
        <time>2016-06-18T16:15:29Z</time>
      </trkpt>
      <trkpt lat="47.93138" lon="6.92449">
        <ele>1140</ele>
        <time>2016-06-18T16:15:41Z</time>
      </trkpt>
      <trkpt lat="47.93127" lon="6.92466">
        <ele>1141</ele>
        <time>2016-06-18T16:15:53Z</time>
      </trkpt>
      <trkpt lat="47.93119" lon="6.92477">
        <ele>1141</ele>
        <time>2016-06-18T16:16:03Z</time>
      </trkpt>
      <trkpt lat="47.93111" lon="6.92495">
        <ele>1143</ele>
        <time>2016-06-18T16:16:15Z</time>
      </trkpt>
      <trkpt lat="47.93104" lon="6.92515">
        <ele>1141</ele>
        <time>2016-06-18T16:16:26Z</time>
      </trkpt>
      <trkpt lat="47.93097" lon="6.92534">
        <ele>1141</ele>
        <time>2016-06-18T16:16:38Z</time>
      </trkpt>
      <trkpt lat="47.93092" lon="6.92548">
        <ele>1141</ele>
        <time>2016-06-18T16:16:50Z</time>
      </trkpt>
      <trkpt lat="47.93088" lon="6.92561">
        <ele>1143</ele>
        <time>2016-06-18T16:17:00Z</time>
      </trkpt>
      <trkpt lat="47.9308" lon="6.92579">
        <ele>1151</ele>
        <time>2016-06-18T16:17:14Z</time>
      </trkpt>
      <trkpt lat="47.93067" lon="6.92583">
        <ele>1150</ele>
        <time>2016-06-18T16:17:26Z</time>
      </trkpt>
      <trkpt lat="47.93057" lon="6.92578">
        <ele>1150</ele>
        <time>2016-06-18T16:17:36Z</time>
      </trkpt>
      <trkpt lat="47.93044" lon="6.9257">
        <ele>1149</ele>
        <time>2016-06-18T16:17:48Z</time>
      </trkpt>
      <trkpt lat="47.93035" lon="6.92565">
        <ele>1149</ele>
        <time>2016-06-18T16:17:59Z</time>
      </trkpt>
      <trkpt lat="47.9302" lon="6.92557">
        <ele>1149</ele>
        <time>2016-06-18T16:18:11Z</time>
      </trkpt>
      <trkpt lat="47.9301" lon="6.92553">
        <ele>1149</ele>
        <time>2016-06-18T16:18:24Z</time>
      </trkpt>
      <trkpt lat="47.93" lon="6.92548">
        <ele>1143</ele>
        <time>2016-06-18T16:18:34Z</time>
      </trkpt>
      <trkpt lat="47.92985" lon="6.92538">
        <ele>1142</ele>
        <time>2016-06-18T16:18:45Z</time>
      </trkpt>
      <trkpt lat="47.9297" lon="6.92528">
        <ele>1141</ele>
        <time>2016-06-18T16:18:56Z</time>
      </trkpt>
      <trkpt lat="47.92956" lon="6.92518">
        <ele>1140</ele>
        <time>2016-06-18T16:19:06Z</time>
      </trkpt>
      <trkpt lat="47.92942" lon="6.92505">
        <ele>1139</ele>
        <time>2016-06-18T16:19:16Z</time>
      </trkpt>
      <trkpt lat="47.92925" lon="6.92493">
        <ele>1136</ele>
        <time>2016-06-18T16:19:27Z</time>
      </trkpt>
      <trkpt lat="47.92918" lon="6.92492">
        <ele>1136</ele>
        <time>2016-06-18T16:19:31Z</time>
      </trkpt>
      <trkpt lat="47.92904" lon="6.92481">
        <ele>1129</ele>
        <time>2016-06-18T16:19:43Z</time>
      </trkpt>
      <trkpt lat="47.92888" lon="6.92475">
        <ele>1127</ele>
        <time>2016-06-18T16:19:56Z</time>
      </trkpt>
      <trkpt lat="47.92874" lon="6.92465">
        <ele>1125</ele>
        <time>2016-06-18T16:20:08Z</time>
      </trkpt>
      <trkpt lat="47.92858" lon="6.92458">
        <ele>1124</ele>
        <time>2016-06-18T16:20:20Z</time>
      </trkpt>
      <trkpt lat="47.92836" lon="6.92448">
        <ele>1122</ele>
        <time>2016-06-18T16:20:30Z</time>
      </trkpt>
      <trkpt lat="47.9283" lon="6.92446">
        <ele>1110</ele>
        <time>2016-06-18T16:20:33Z</time>
      </trkpt>
      <trkpt lat="47.92815" lon="6.92443">
        <ele>1109</ele>
        <time>2016-06-18T16:20:44Z</time>
      </trkpt>
      <trkpt lat="47.92802" lon="6.92436">
        <ele>1108</ele>
        <time>2016-06-18T16:20:56Z</time>
      </trkpt>
      <trkpt lat="47.92786" lon="6.92429">
        <ele>1105</ele>
        <time>2016-06-18T16:21:09Z</time>
      </trkpt>
      <trkpt lat="47.92782" lon="6.92423">
        <ele>1105</ele>
        <time>2016-06-18T16:21:11Z</time>
      </trkpt>
      <trkpt lat="47.92777" lon="6.92416">
        <ele>1105</ele>
        <time>2016-06-18T16:21:15Z</time>
      </trkpt>
      <trkpt lat="47.92773" lon="6.92412">
        <ele>1104</ele>
        <time>2016-06-18T16:21:20Z</time>
      </trkpt>
      <trkpt lat="47.9276" lon="6.92397">
        <ele>1103</ele>
        <time>2016-06-18T16:21:34Z</time>
      </trkpt>
      <trkpt lat="47.92747" lon="6.92377">
        <ele>1089</ele>
        <time>2016-06-18T16:21:45Z</time>
      </trkpt>
      <trkpt lat="47.92739" lon="6.92368">
        <ele>1088</ele>
        <time>2016-06-18T16:21:51Z</time>
      </trkpt>
      <trkpt lat="47.92718" lon="6.92346">
        <ele>1085</ele>
        <time>2016-06-18T16:22:02Z</time>
      </trkpt>
      <trkpt lat="47.92713" lon="6.9234">
        <ele>1084</ele>
        <time>2016-06-18T16:22:06Z</time>
      </trkpt>
      <trkpt lat="47.92709" lon="6.92336">
        <ele>1083</ele>
        <time>2016-06-18T16:22:11Z</time>
      </trkpt>
      <trkpt lat="47.92704" lon="6.92331">
        <ele>1078</ele>
        <time>2016-06-18T16:22:14Z</time>
      </trkpt>
      <trkpt lat="47.92696" lon="6.92322">
        <ele>1077</ele>
        <time>2016-06-18T16:22:25Z</time>
      </trkpt>
      <trkpt lat="47.92681" lon="6.92326">
        <ele>1075</ele>
        <time>2016-06-18T16:22:36Z</time>
      </trkpt>
      <trkpt lat="47.92671" lon="6.92322">
        <ele>1074</ele>
        <time>2016-06-18T16:22:46Z</time>
      </trkpt>
      <trkpt lat="47.92665" lon="6.92311">
        <ele>1062</ele>
        <time>2016-06-18T16:22:52Z</time>
      </trkpt>
      <trkpt lat="47.92671" lon="6.92297">
        <ele>1074</ele>
        <time>2016-06-18T16:23:03Z</time>
      </trkpt>
      <trkpt lat="47.92674" lon="6.9229">
        <ele>1073</ele>
        <time>2016-06-18T16:23:08Z</time>
      </trkpt>
      <trkpt lat="47.92675" lon="6.92284">
        <ele>1073</ele>
        <time>2016-06-18T16:23:25Z</time>
      </trkpt>
      <trkpt lat="47.92671" lon="6.9228">
        <ele>1072</ele>
        <time>2016-06-18T16:24:38Z</time>
      </trkpt>
      <trkpt lat="47.92668" lon="6.92276">
        <ele>1071</ele>
        <time>2016-06-18T16:24:47Z</time>
      </trkpt>
      <trkpt lat="47.92658" lon="6.92276">
        <ele>1059</ele>
        <time>2016-06-18T16:25:01Z</time>
      </trkpt>
      <trkpt lat="47.92644" lon="6.92263">
        <ele>1058</ele>
        <time>2016-06-18T16:25:12Z</time>
      </trkpt>
      <trkpt lat="47.92635" lon="6.92246">
        <ele>1051</ele>
        <time>2016-06-18T16:25:22Z</time>
      </trkpt>
      <trkpt lat="47.92616" lon="6.92237">
        <ele>1047</ele>
        <time>2016-06-18T16:25:32Z</time>
      </trkpt>
      <trkpt lat="47.92605" lon="6.92233">
        <ele>1046</ele>
        <time>2016-06-18T16:25:38Z</time>
      </trkpt>
      <trkpt lat="47.9259" lon="6.92229">
        <ele>1045</ele>
        <time>2016-06-18T16:25:49Z</time>
      </trkpt>
      <trkpt lat="47.9258" lon="6.9222">
        <ele>1025</ele>
        <time>2016-06-18T16:25:56Z</time>
      </trkpt>
      <trkpt lat="47.9258" lon="6.92206">
        <ele>1023</ele>
        <time>2016-06-18T16:26:08Z</time>
      </trkpt>
      <trkpt lat="47.92584" lon="6.92193">
        <ele>1041</ele>
        <time>2016-06-18T16:26:18Z</time>
      </trkpt>
      <trkpt lat="47.92587" lon="6.92187">
        <ele>1040</ele>
        <time>2016-06-18T16:26:26Z</time>
      </trkpt>
      <trkpt lat="47.92594" lon="6.92175">
        <ele>1038</ele>
        <time>2016-06-18T16:26:37Z</time>
      </trkpt>
      <trkpt lat="47.92601" lon="6.92166">
        <ele>1031</ele>
        <time>2016-06-18T16:26:47Z</time>
      </trkpt>
      <trkpt lat="47.92614" lon="6.9216">
        <ele>1032</ele>
        <time>2016-06-18T16:26:59Z</time>
      </trkpt>
      <trkpt lat="47.92636" lon="6.92153">
        <ele>1034</ele>
        <time>2016-06-18T16:27:12Z</time>
      </trkpt>
      <trkpt lat="47.92641" lon="6.92152">
        <ele>1034</ele>
        <time>2016-06-18T16:27:23Z</time>
      </trkpt>
      <trkpt lat="47.92646" lon="6.9214">
        <ele>1033</ele>
        <time>2016-06-18T16:27:40Z</time>
      </trkpt>
      <trkpt lat="47.92647" lon="6.92132">
        <ele>1032</ele>
        <time>2016-06-18T16:27:45Z</time>
      </trkpt>
      <trkpt lat="47.92632" lon="6.92115">
        <ele>1029</ele>
        <time>2016-06-18T16:27:57Z</time>
      </trkpt>
      <trkpt lat="47.92627" lon="6.92111">
        <ele>1028</ele>
        <time>2016-06-18T16:28:06Z</time>
      </trkpt>
      <trkpt lat="47.92616" lon="6.92104">
        <ele>1027</ele>
        <time>2016-06-18T16:28:17Z</time>
      </trkpt>
      <trkpt lat="47.92603" lon="6.9209">
        <ele>1024</ele>
        <time>2016-06-18T16:28:27Z</time>
      </trkpt>
      <trkpt lat="47.92586" lon="6.92082">
        <ele>1017</ele>
        <time>2016-06-18T16:28:45Z</time>
      </trkpt>
      <trkpt lat="47.92581" lon="6.92076">
        <ele>1013</ele>
        <time>2016-06-18T16:28:47Z</time>
      </trkpt>
      <trkpt lat="47.92571" lon="6.9207">
        <ele>1008</ele>
        <time>2016-06-18T16:28:54Z</time>
      </trkpt>
      <trkpt lat="47.92566" lon="6.92065">
        <ele>1006</ele>
        <time>2016-06-18T16:29:19Z</time>
      </trkpt>
      <trkpt lat="47.92581" lon="6.92059">
        <ele>1006</ele>
        <time>2016-06-18T16:29:39Z</time>
      </trkpt>
      <trkpt lat="47.92593" lon="6.92053">
        <ele>1010</ele>
        <time>2016-06-18T16:29:53Z</time>
      </trkpt>
      <trkpt lat="47.92591" lon="6.92047">
        <ele>1009</ele>
        <time>2016-06-18T16:29:58Z</time>
      </trkpt>
      <trkpt lat="47.92582" lon="6.92039">
        <ele>1001</ele>
        <time>2016-06-18T16:30:09Z</time>
      </trkpt>
      <trkpt lat="47.92573" lon="6.92023">
        <ele>998</ele>
        <time>2016-06-18T16:30:25Z</time>
      </trkpt>
      <trkpt lat="47.92553" lon="6.92011">
        <ele>997</ele>
        <time>2016-06-18T16:30:38Z</time>
      </trkpt>
      <trkpt lat="47.92548" lon="6.92006">
        <ele>997</ele>
        <time>2016-06-18T16:30:42Z</time>
      </trkpt>
      <trkpt lat="47.92532" lon="6.91995">
        <ele>987</ele>
        <time>2016-06-18T16:30:53Z</time>
      </trkpt>
      <trkpt lat="47.92515" lon="6.91989">
        <ele>988</ele>
        <time>2016-06-18T16:31:07Z</time>
      </trkpt>
      <trkpt lat="47.92498" lon="6.9198">
        <ele>982</ele>
        <time>2016-06-18T16:31:19Z</time>
      </trkpt>
      <trkpt lat="47.92484" lon="6.91963">
        <ele>977</ele>
        <time>2016-06-18T16:31:29Z</time>
      </trkpt>
      <trkpt lat="47.9248" lon="6.9196">
        <ele>976</ele>
        <time>2016-06-18T16:31:32Z</time>
      </trkpt>
      <trkpt lat="47.92479" lon="6.91953">
        <ele>976</ele>
        <time>2016-06-18T16:31:47Z</time>
      </trkpt>
      <trkpt lat="47.92489" lon="6.91958">
        <ele>977</ele>
        <time>2016-06-18T16:31:53Z</time>
      </trkpt>
      <trkpt lat="47.92498" lon="6.91962">
        <ele>978</ele>
        <time>2016-06-18T16:32:00Z</time>
      </trkpt>
      <trkpt lat="47.92515" lon="6.91963">
        <ele>985</ele>
        <time>2016-06-18T16:32:12Z</time>
      </trkpt>
      <trkpt lat="47.9252" lon="6.91962">
        <ele>985</ele>
        <time>2016-06-18T16:32:22Z</time>
      </trkpt>
      <trkpt lat="47.92535" lon="6.91961">
        <ele>985</ele>
        <time>2016-06-18T16:32:32Z</time>
      </trkpt>
      <trkpt lat="47.92544" lon="6.91949">
        <ele>984</ele>
        <time>2016-06-18T16:32:49Z</time>
      </trkpt>
      <trkpt lat="47.92535" lon="6.91939">
        <ele>983</ele>
        <time>2016-06-18T16:32:59Z</time>
      </trkpt>
      <trkpt lat="47.92531" lon="6.91933">
        <ele>982</ele>
        <time>2016-06-18T16:33:02Z</time>
      </trkpt>
      <trkpt lat="47.9252" lon="6.91918">
        <ele>981</ele>
        <time>2016-06-18T16:33:13Z</time>
      </trkpt>
      <trkpt lat="47.92517" lon="6.91912">
        <ele>973</ele>
        <time>2016-06-18T16:33:16Z</time>
      </trkpt>
      <trkpt lat="47.92511" lon="6.919">
        <ele>972</ele>
        <time>2016-06-18T16:33:28Z</time>
      </trkpt>
      <trkpt lat="47.92505" lon="6.91896">
        <ele>971</ele>
        <time>2016-06-18T16:33:30Z</time>
      </trkpt>
      <trkpt lat="47.92501" lon="6.91886">
        <ele>969</ele>
        <time>2016-06-18T16:33:32Z</time>
      </trkpt>
      <trkpt lat="47.92494" lon="6.91875">
        <ele>963</ele>
        <time>2016-06-18T16:33:37Z</time>
      </trkpt>
      <trkpt lat="47.92491" lon="6.91869">
        <ele>962</ele>
        <time>2016-06-18T16:33:41Z</time>
      </trkpt>
      <trkpt lat="47.92479" lon="6.91855">
        <ele>959</ele>
        <time>2016-06-18T16:33:54Z</time>
      </trkpt>
      <trkpt lat="47.92465" lon="6.91835">
        <ele>958</ele>
        <time>2016-06-18T16:34:06Z</time>
      </trkpt>
      <trkpt lat="47.92457" lon="6.91822">
        <ele>947</ele>
        <time>2016-06-18T16:34:11Z</time>
      </trkpt>
      <trkpt lat="47.92453" lon="6.91818">
        <ele>947</ele>
        <time>2016-06-18T16:34:14Z</time>
      </trkpt>
      <trkpt lat="47.9244" lon="6.91807">
        <ele>946</ele>
        <time>2016-06-18T16:34:25Z</time>
      </trkpt>
      <trkpt lat="47.92425" lon="6.91795">
        <ele>944</ele>
        <time>2016-06-18T16:34:39Z</time>
      </trkpt>
      <trkpt lat="47.92409" lon="6.91783">
        <ele>935</ele>
        <time>2016-06-18T16:34:53Z</time>
      </trkpt>
      <trkpt lat="47.92401" lon="6.91774">
        <ele>933</ele>
        <time>2016-06-18T16:35:02Z</time>
      </trkpt>
      <trkpt lat="47.92393" lon="6.91759">
        <ele>932</ele>
        <time>2016-06-18T16:35:23Z</time>
      </trkpt>
      <trkpt lat="47.92384" lon="6.91748">
        <ele>920</ele>
        <time>2016-06-18T16:35:38Z</time>
      </trkpt>
      <trkpt lat="47.92364" lon="6.91743">
        <ele>917</ele>
        <time>2016-06-18T16:35:51Z</time>
      </trkpt>
      <trkpt lat="47.92368" lon="6.91732">
        <ele>917</ele>
        <time>2016-06-18T16:36:12Z</time>
      </trkpt>
      <trkpt lat="47.92383" lon="6.9173">
        <ele>918</ele>
        <time>2016-06-18T16:36:27Z</time>
      </trkpt>
      <trkpt lat="47.92398" lon="6.91727">
        <ele>920</ele>
        <time>2016-06-18T16:36:39Z</time>
      </trkpt>
      <trkpt lat="47.92407" lon="6.91722">
        <ele>920</ele>
        <time>2016-06-18T16:36:55Z</time>
      </trkpt>
      <trkpt lat="47.92396" lon="6.91706">
        <ele>917</ele>
        <time>2016-06-18T16:37:07Z</time>
      </trkpt>
      <trkpt lat="47.92394" lon="6.917">
        <ele>916</ele>
        <time>2016-06-18T16:37:09Z</time>
      </trkpt>
      <trkpt lat="47.9239" lon="6.91691">
        <ele>914</ele>
        <time>2016-06-18T16:37:13Z</time>
      </trkpt>
      <trkpt lat="47.92387" lon="6.91686">
        <ele>914</ele>
        <time>2016-06-18T16:37:18Z</time>
      </trkpt>
      <trkpt lat="47.9237" lon="6.91676">
        <ele>912</ele>
        <time>2016-06-18T16:37:30Z</time>
      </trkpt>
      <trkpt lat="47.92354" lon="6.91668">
        <ele>908</ele>
        <time>2016-06-18T16:37:40Z</time>
      </trkpt>
      <trkpt lat="47.92342" lon="6.91672">
        <ele>905</ele>
        <time>2016-06-18T16:37:51Z</time>
      </trkpt>
      <trkpt lat="47.92337" lon="6.91676">
        <ele>905</ele>
        <time>2016-06-18T16:38:05Z</time>
      </trkpt>
      <trkpt lat="47.92323" lon="6.91682">
        <ele>902</ele>
        <time>2016-06-18T16:38:15Z</time>
      </trkpt>
      <trkpt lat="47.92319" lon="6.91688">
        <ele>902</ele>
        <time>2016-06-18T16:38:20Z</time>
      </trkpt>
      <trkpt lat="47.92314" lon="6.9169">
        <ele>902</ele>
        <time>2016-06-18T16:38:23Z</time>
      </trkpt>
      <trkpt lat="47.9231" lon="6.91694">
        <ele>902</ele>
        <time>2016-06-18T16:38:28Z</time>
      </trkpt>
      <trkpt lat="47.92304" lon="6.91706">
        <ele>903</ele>
        <time>2016-06-18T16:38:38Z</time>
      </trkpt>
      <trkpt lat="47.92296" lon="6.91722">
        <ele>903</ele>
        <time>2016-06-18T16:38:48Z</time>
      </trkpt>
      <trkpt lat="47.92288" lon="6.91723">
        <ele>902</ele>
        <time>2016-06-18T16:38:55Z</time>
      </trkpt>
      <trkpt lat="47.92283" lon="6.91719">
        <ele>902</ele>
        <time>2016-06-18T16:39:01Z</time>
      </trkpt>
      <trkpt lat="47.92282" lon="6.9171">
        <ele>901</ele>
        <time>2016-06-18T16:39:05Z</time>
      </trkpt>
      <trkpt lat="47.92277" lon="6.91712">
        <ele>901</ele>
        <time>2016-06-18T16:39:29Z</time>
      </trkpt>
      <trkpt lat="47.9226" lon="6.91731">
        <ele>899</ele>
        <time>2016-06-18T17:48:23Z</time>
      </trkpt>
      <trkpt lat="47.9225" lon="6.91732">
        <ele>898</ele>
        <time>2016-06-18T17:48:33Z</time>
      </trkpt>
      <trkpt lat="47.92233" lon="6.91735">
        <ele>899</ele>
        <time>2016-06-18T17:48:46Z</time>
      </trkpt>
      <trkpt lat="47.92224" lon="6.91746">
        <ele>900</ele>
        <time>2016-06-18T17:48:54Z</time>
      </trkpt>
      <trkpt lat="47.92214" lon="6.91764">
        <ele>898</ele>
        <time>2016-06-18T17:49:07Z</time>
      </trkpt>
      <trkpt lat="47.92205" lon="6.91774">
        <ele>899</ele>
        <time>2016-06-18T17:49:15Z</time>
      </trkpt>
      <trkpt lat="47.92201" lon="6.91778">
        <ele>899</ele>
        <time>2016-06-18T17:49:18Z</time>
      </trkpt>
      <trkpt lat="47.92186" lon="6.9178">
        <ele>900</ele>
        <time>2016-06-18T17:49:28Z</time>
      </trkpt>
      <trkpt lat="47.92173" lon="6.91781">
        <ele>900</ele>
        <time>2016-06-18T17:49:35Z</time>
      </trkpt>
      <trkpt lat="47.92158" lon="6.91793">
        <ele>903</ele>
        <time>2016-06-18T17:49:48Z</time>
      </trkpt>
      <trkpt lat="47.92153" lon="6.91796">
        <ele>903</ele>
        <time>2016-06-18T17:49:50Z</time>
      </trkpt>
      <trkpt lat="47.92134" lon="6.91799">
        <ele>903</ele>
        <time>2016-06-18T17:50:02Z</time>
      </trkpt>
      <trkpt lat="47.92124" lon="6.91793">
        <ele>904</ele>
        <time>2016-06-18T17:50:12Z</time>
      </trkpt>
      <trkpt lat="47.92113" lon="6.91791">
        <ele>904</ele>
        <time>2016-06-18T17:50:18Z</time>
      </trkpt>
      <trkpt lat="47.92105" lon="6.9179">
        <ele>904</ele>
        <time>2016-06-18T17:50:24Z</time>
      </trkpt>
      <trkpt lat="47.9209" lon="6.91788">
        <ele>905</ele>
        <time>2016-06-18T17:50:36Z</time>
      </trkpt>
      <trkpt lat="47.92082" lon="6.918">
        <ele>911</ele>
        <time>2016-06-18T17:50:51Z</time>
      </trkpt>
      <trkpt lat="47.92067" lon="6.91822">
        <ele>909</ele>
        <time>2016-06-18T17:51:04Z</time>
      </trkpt>
      <trkpt lat="47.92055" lon="6.91835">
        <ele>902</ele>
        <time>2016-06-18T17:51:13Z</time>
      </trkpt>
      <trkpt lat="47.92042" lon="6.91848">
        <ele>903</ele>
        <time>2016-06-18T17:51:26Z</time>
      </trkpt>
      <trkpt lat="47.9203" lon="6.91861">
        <ele>904</ele>
        <time>2016-06-18T17:51:36Z</time>
      </trkpt>
      <trkpt lat="47.92018" lon="6.91878">
        <ele>903</ele>
        <time>2016-06-18T17:51:46Z</time>
      </trkpt>
      <trkpt lat="47.9201" lon="6.91889">
        <ele>903</ele>
        <time>2016-06-18T17:51:56Z</time>
      </trkpt>
      <trkpt lat="47.92" lon="6.91894">
        <ele>903</ele>
        <time>2016-06-18T17:52:07Z</time>
      </trkpt>
      <trkpt lat="47.91992" lon="6.91901">
        <ele>912</ele>
        <time>2016-06-18T17:52:20Z</time>
      </trkpt>
      <trkpt lat="47.91978" lon="6.91916">
        <ele>914</ele>
        <time>2016-06-18T17:52:33Z</time>
      </trkpt>
      <trkpt lat="47.91969" lon="6.91933">
        <ele>912</ele>
        <time>2016-06-18T17:52:46Z</time>
      </trkpt>
      <trkpt lat="47.91968" lon="6.9194">
        <ele>912</ele>
        <time>2016-06-18T17:52:51Z</time>
      </trkpt>
      <trkpt lat="47.91964" lon="6.91952">
        <ele>913</ele>
        <time>2016-06-18T17:53:00Z</time>
      </trkpt>
      <trkpt lat="47.91954" lon="6.91957">
        <ele>914</ele>
        <time>2016-06-18T17:53:10Z</time>
      </trkpt>
      <trkpt lat="47.91944" lon="6.91957">
        <ele>915</ele>
        <time>2016-06-18T17:53:22Z</time>
      </trkpt>
      <trkpt lat="47.91933" lon="6.91958">
        <ele>917</ele>
        <time>2016-06-18T17:53:32Z</time>
      </trkpt>
      <trkpt lat="47.91928" lon="6.91955">
        <ele>917</ele>
        <time>2016-06-18T17:53:43Z</time>
      </trkpt>
      <trkpt lat="47.91912" lon="6.9195">
        <ele>933</ele>
        <time>2016-06-18T17:53:57Z</time>
      </trkpt>
      <trkpt lat="47.91907" lon="6.91951">
        <ele>933</ele>
        <time>2016-06-18T17:54:03Z</time>
      </trkpt>
      <trkpt lat="47.91887" lon="6.91953">
        <ele>935</ele>
        <time>2016-06-18T17:54:14Z</time>
      </trkpt>
      <trkpt lat="47.91882" lon="6.91953">
        <ele>935</ele>
        <time>2016-06-18T17:54:20Z</time>
      </trkpt>
      <trkpt lat="47.91877" lon="6.91955">
        <ele>936</ele>
        <time>2016-06-18T17:54:24Z</time>
      </trkpt>
      <trkpt lat="47.9187" lon="6.91963">
        <ele>936</ele>
        <time>2016-06-18T17:54:43Z</time>
      </trkpt>
      <trkpt lat="47.91869" lon="6.91983">
        <ele>937</ele>
        <time>2016-06-18T17:54:54Z</time>
      </trkpt>
      <trkpt lat="47.91864" lon="6.91996">
        <ele>938</ele>
        <time>2016-06-18T17:55:11Z</time>
      </trkpt>
      <trkpt lat="47.91857" lon="6.92017">
        <ele>941</ele>
        <time>2016-06-18T17:55:23Z</time>
      </trkpt>
      <trkpt lat="47.91858" lon="6.92025">
        <ele>940</ele>
        <time>2016-06-18T17:55:26Z</time>
      </trkpt>
      <trkpt lat="47.9185" lon="6.92037">
        <ele>941</ele>
        <time>2016-06-18T17:55:40Z</time>
      </trkpt>
      <trkpt lat="47.91863" lon="6.92063">
        <ele>941</ele>
        <time>2016-06-18T17:55:53Z</time>
      </trkpt>
      <trkpt lat="47.91864" lon="6.9207">
        <ele>942</ele>
        <time>2016-06-18T17:55:58Z</time>
      </trkpt>
      <trkpt lat="47.91864" lon="6.92085">
        <ele>949</ele>
        <time>2016-06-18T17:56:09Z</time>
      </trkpt>
      <trkpt lat="47.91865" lon="6.92091">
        <ele>948</ele>
        <time>2016-06-18T17:56:13Z</time>
      </trkpt>
      <trkpt lat="47.91869" lon="6.92112">
        <ele>949</ele>
        <time>2016-06-18T17:56:26Z</time>
      </trkpt>
      <trkpt lat="47.91867" lon="6.92119">
        <ele>950</ele>
        <time>2016-06-18T17:56:35Z</time>
      </trkpt>
      <trkpt lat="47.91859" lon="6.92128">
        <ele>951</ele>
        <time>2016-06-18T17:56:45Z</time>
      </trkpt>
      <trkpt lat="47.91849" lon="6.92133">
        <ele>953</ele>
        <time>2016-06-18T17:56:55Z</time>
      </trkpt>
      <trkpt lat="47.91841" lon="6.92144">
        <ele>955</ele>
        <time>2016-06-18T17:57:14Z</time>
      </trkpt>
      <trkpt lat="47.91836" lon="6.92157">
        <ele>959</ele>
        <time>2016-06-18T17:57:23Z</time>
      </trkpt>
      <trkpt lat="47.91835" lon="6.92165">
        <ele>963</ele>
        <time>2016-06-18T17:57:31Z</time>
      </trkpt>
      <trkpt lat="47.91833" lon="6.92172">
        <ele>965</ele>
        <time>2016-06-18T17:57:34Z</time>
      </trkpt>
      <trkpt lat="47.91827" lon="6.92192">
        <ele>969</ele>
        <time>2016-06-18T17:57:45Z</time>
      </trkpt>
      <trkpt lat="47.91824" lon="6.92198">
        <ele>969</ele>
        <time>2016-06-18T17:57:53Z</time>
      </trkpt>
      <trkpt lat="47.91817" lon="6.92209">
        <ele>970</ele>
        <time>2016-06-18T17:58:04Z</time>
      </trkpt>
      <trkpt lat="47.91813" lon="6.92224">
        <ele>972</ele>
        <time>2016-06-18T17:58:14Z</time>
      </trkpt>
      <trkpt lat="47.91809" lon="6.92249">
        <ele>973</ele>
        <time>2016-06-18T17:58:27Z</time>
      </trkpt>
      <trkpt lat="47.91807" lon="6.92264">
        <ele>978</ele>
        <time>2016-06-18T17:58:41Z</time>
      </trkpt>
      <trkpt lat="47.91792" lon="6.92281">
        <ele>980</ele>
        <time>2016-06-18T17:58:53Z</time>
      </trkpt>
      <trkpt lat="47.91787" lon="6.92282">
        <ele>980</ele>
        <time>2016-06-18T17:59:01Z</time>
      </trkpt>
      <trkpt lat="47.91781" lon="6.92281">
        <ele>980</ele>
        <time>2016-06-18T17:59:05Z</time>
      </trkpt>
      <trkpt lat="47.91771" lon="6.92278">
        <ele>980</ele>
        <time>2016-06-18T17:59:13Z</time>
      </trkpt>
      <trkpt lat="47.91762" lon="6.9228">
        <ele>980</ele>
        <time>2016-06-18T17:59:23Z</time>
      </trkpt>
      <trkpt lat="47.91753" lon="6.92284">
        <ele>981</ele>
        <time>2016-06-18T17:59:35Z</time>
      </trkpt>
      <trkpt lat="47.91738" lon="6.9229">
        <ele>983</ele>
        <time>2016-06-18T17:59:48Z</time>
      </trkpt>
      <trkpt lat="47.91732" lon="6.92309">
        <ele>985</ele>
        <time>2016-06-18T17:59:59Z</time>
      </trkpt>
      <trkpt lat="47.91729" lon="6.92315">
        <ele>986</ele>
        <time>2016-06-18T18:00:03Z</time>
      </trkpt>
      <trkpt lat="47.91729" lon="6.92322">
        <ele>986</ele>
        <time>2016-06-18T18:00:08Z</time>
      </trkpt>
      <trkpt lat="47.91729" lon="6.92337">
        <ele>995</ele>
        <time>2016-06-18T18:00:22Z</time>
      </trkpt>
      <trkpt lat="47.91735" lon="6.92354">
        <ele>997</ele>
        <time>2016-06-18T18:00:34Z</time>
      </trkpt>
      <trkpt lat="47.91734" lon="6.92375">
        <ele>1000</ele>
        <time>2016-06-18T18:00:45Z</time>
      </trkpt>
      <trkpt lat="47.91732" lon="6.92381">
        <ele>1001</ele>
        <time>2016-06-18T18:00:48Z</time>
      </trkpt>
      <trkpt lat="47.91728" lon="6.92386">
        <ele>1002</ele>
        <time>2016-06-18T18:00:53Z</time>
      </trkpt>
      <trkpt lat="47.91719" lon="6.92383">
        <ele>1002</ele>
        <time>2016-06-18T18:01:58Z</time>
      </trkpt>
      <trkpt lat="47.91713" lon="6.92382">
        <ele>1002</ele>
        <time>2016-06-18T18:02:03Z</time>
      </trkpt>
      <trkpt lat="47.91702" lon="6.92383">
        <ele>1003</ele>
        <time>2016-06-18T18:02:13Z</time>
      </trkpt>
      <trkpt lat="47.91688" lon="6.92383">
        <ele>1004</ele>
        <time>2016-06-18T18:02:29Z</time>
      </trkpt>
      <trkpt lat="47.91673" lon="6.92387">
        <ele>1006</ele>
        <time>2016-06-18T18:02:42Z</time>
      </trkpt>
      <trkpt lat="47.91668" lon="6.92388">
        <ele>1006</ele>
        <time>2016-06-18T18:02:46Z</time>
      </trkpt>
      <trkpt lat="47.91653" lon="6.92387">
        <ele>1012</ele>
        <time>2016-06-18T18:02:59Z</time>
      </trkpt>
      <trkpt lat="47.91639" lon="6.92388">
        <ele>1012</ele>
        <time>2016-06-18T18:03:11Z</time>
      </trkpt>
      <trkpt lat="47.91624" lon="6.92395">
        <ele>1014</ele>
        <time>2016-06-18T18:03:26Z</time>
      </trkpt>
      <trkpt lat="47.91618" lon="6.92396">
        <ele>1014</ele>
        <time>2016-06-18T18:03:30Z</time>
      </trkpt>
      <trkpt lat="47.91604" lon="6.92398">
        <ele>1016</ele>
        <time>2016-06-18T18:03:42Z</time>
      </trkpt>
      <trkpt lat="47.91595" lon="6.92398">
        <ele>1018</ele>
        <time>2016-06-18T18:03:52Z</time>
      </trkpt>
      <trkpt lat="47.91584" lon="6.92402">
        <ele>1020</ele>
        <time>2016-06-18T18:04:02Z</time>
      </trkpt>
      <trkpt lat="47.9157" lon="6.92403">
        <ele>1024</ele>
        <time>2016-06-18T18:04:14Z</time>
      </trkpt>
      <trkpt lat="47.91555" lon="6.92403">
        <ele>1024</ele>
        <time>2016-06-18T18:04:28Z</time>
      </trkpt>
      <trkpt lat="47.9154" lon="6.92409">
        <ele>1026</ele>
        <time>2016-06-18T18:04:40Z</time>
      </trkpt>
      <trkpt lat="47.9153" lon="6.92409">
        <ele>1027</ele>
        <time>2016-06-18T18:04:50Z</time>
      </trkpt>
      <trkpt lat="47.91514" lon="6.92409">
        <ele>1031</ele>
        <time>2016-06-18T18:05:02Z</time>
      </trkpt>
      <trkpt lat="47.91499" lon="6.92411">
        <ele>1038</ele>
        <time>2016-06-18T18:05:13Z</time>
      </trkpt>
      <trkpt lat="47.91489" lon="6.92407">
        <ele>1037</ele>
        <time>2016-06-18T18:05:20Z</time>
      </trkpt>
      <trkpt lat="47.9148" lon="6.92401">
        <ele>1035</ele>
        <time>2016-06-18T18:05:29Z</time>
      </trkpt>
      <trkpt lat="47.91464" lon="6.92403">
        <ele>1036</ele>
        <time>2016-06-18T18:05:41Z</time>
      </trkpt>
      <trkpt lat="47.9145" lon="6.92409">
        <ele>1038</ele>
        <time>2016-06-18T18:05:54Z</time>
      </trkpt>
      <trkpt lat="47.91444" lon="6.92409">
        <ele>1039</ele>
        <time>2016-06-18T18:05:59Z</time>
      </trkpt>
      <trkpt lat="47.91428" lon="6.92413">
        <ele>1044</ele>
        <time>2016-06-18T18:06:11Z</time>
      </trkpt>
      <trkpt lat="47.91423" lon="6.92411">
        <ele>1046</ele>
        <time>2016-06-18T18:06:14Z</time>
      </trkpt>
      <trkpt lat="47.91409" lon="6.92409">
        <ele>1050</ele>
        <time>2016-06-18T18:06:28Z</time>
      </trkpt>
      <trkpt lat="47.91394" lon="6.9241">
        <ele>1050</ele>
        <time>2016-06-18T18:06:45Z</time>
      </trkpt>
      <trkpt lat="47.91388" lon="6.9241">
        <ele>1050</ele>
        <time>2016-06-18T18:06:57Z</time>
      </trkpt>
      <trkpt lat="47.91378" lon="6.92408">
        <ele>1051</ele>
        <time>2016-06-18T18:07:07Z</time>
      </trkpt>
      <trkpt lat="47.91372" lon="6.92406">
        <ele>1052</ele>
        <time>2016-06-18T18:07:10Z</time>
      </trkpt>
      <trkpt lat="47.91358" lon="6.924">
        <ele>1054</ele>
        <time>2016-06-18T18:07:22Z</time>
      </trkpt>
      <trkpt lat="47.91347" lon="6.92401">
        <ele>1057</ele>
        <time>2016-06-18T18:07:32Z</time>
      </trkpt>
      <trkpt lat="47.91337" lon="6.92407">
        <ele>1063</ele>
        <time>2016-06-18T18:07:44Z</time>
      </trkpt>
      <trkpt lat="47.91328" lon="6.92409">
        <ele>1068</ele>
        <time>2016-06-18T18:07:58Z</time>
      </trkpt>
      <trkpt lat="47.91317" lon="6.92409">
        <ele>1068</ele>
        <time>2016-06-18T18:08:10Z</time>
      </trkpt>
      <trkpt lat="47.91309" lon="6.92405">
        <ele>1068</ele>
        <time>2016-06-18T18:08:20Z</time>
      </trkpt>
      <trkpt lat="47.91295" lon="6.924">
        <ele>1068</ele>
        <time>2016-06-18T18:08:32Z</time>
      </trkpt>
      <trkpt lat="47.9129" lon="6.92402">
        <ele>1069</ele>
        <time>2016-06-18T18:08:40Z</time>
      </trkpt>
      <trkpt lat="47.9128" lon="6.924">
        <ele>1071</ele>
        <time>2016-06-18T18:08:51Z</time>
      </trkpt>
      <trkpt lat="47.91267" lon="6.924">
        <ele>1074</ele>
        <time>2016-06-18T18:09:02Z</time>
      </trkpt>
      <trkpt lat="47.91258" lon="6.92395">
        <ele>1074</ele>
        <time>2016-06-18T18:09:12Z</time>
      </trkpt>
      <trkpt lat="47.91243" lon="6.92392">
        <ele>1080</ele>
        <time>2016-06-18T18:09:25Z</time>
      </trkpt>
      <trkpt lat="47.91233" lon="6.92391">
        <ele>1080</ele>
        <time>2016-06-18T18:09:35Z</time>
      </trkpt>
      <trkpt lat="47.91222" lon="6.92393">
        <ele>1080</ele>
        <time>2016-06-18T18:09:46Z</time>
      </trkpt>
      <trkpt lat="47.91217" lon="6.92392">
        <ele>1080</ele>
        <time>2016-06-18T18:09:51Z</time>
      </trkpt>
      <trkpt lat="47.91203" lon="6.92393">
        <ele>1081</ele>
        <time>2016-06-18T18:10:03Z</time>
      </trkpt>
      <trkpt lat="47.91187" lon="6.92393">
        <ele>1083</ele>
        <time>2016-06-18T18:10:15Z</time>
      </trkpt>
      <trkpt lat="47.91178" lon="6.92392">
        <ele>1084</ele>
        <time>2016-06-18T18:10:21Z</time>
      </trkpt>
      <trkpt lat="47.91167" lon="6.92396">
        <ele>1086</ele>
        <time>2016-06-18T18:10:32Z</time>
      </trkpt>
      <trkpt lat="47.91151" lon="6.92396">
        <ele>1089</ele>
        <time>2016-06-18T18:10:44Z</time>
      </trkpt>
      <trkpt lat="47.91137" lon="6.92399">
        <ele>1089</ele>
        <time>2016-06-18T18:10:55Z</time>
      </trkpt>
      <trkpt lat="47.91127" lon="6.92397">
        <ele>1089</ele>
        <time>2016-06-18T18:11:05Z</time>
      </trkpt>
      <trkpt lat="47.91117" lon="6.92393">
        <ele>1089</ele>
        <time>2016-06-18T18:11:13Z</time>
      </trkpt>
      <trkpt lat="47.91106" lon="6.92394">
        <ele>1090</ele>
        <time>2016-06-18T18:11:25Z</time>
      </trkpt>
      <trkpt lat="47.91101" lon="6.92391">
        <ele>1090</ele>
        <time>2016-06-18T18:11:28Z</time>
      </trkpt>
      <trkpt lat="47.91086" lon="6.92384">
        <ele>1089</ele>
        <time>2016-06-18T18:11:39Z</time>
      </trkpt>
      <trkpt lat="47.91073" lon="6.92389">
        <ele>1096</ele>
        <time>2016-06-18T18:11:52Z</time>
      </trkpt>
      <trkpt lat="47.91057" lon="6.92386">
        <ele>1096</ele>
        <time>2016-06-18T18:12:03Z</time>
      </trkpt>
      <trkpt lat="47.91048" lon="6.92388">
        <ele>1096</ele>
        <time>2016-06-18T18:12:12Z</time>
      </trkpt>
      <trkpt lat="47.91043" lon="6.92387">
        <ele>1097</ele>
        <time>2016-06-18T18:12:16Z</time>
      </trkpt>
      <trkpt lat="47.91033" lon="6.92388">
        <ele>1098</ele>
        <time>2016-06-18T18:12:26Z</time>
      </trkpt>
      <trkpt lat="47.91022" lon="6.92379">
        <ele>1097</ele>
        <time>2016-06-18T18:12:38Z</time>
      </trkpt>
      <trkpt lat="47.91013" lon="6.92373">
        <ele>1096</ele>
        <time>2016-06-18T18:12:45Z</time>
      </trkpt>
      <trkpt lat="47.90999" lon="6.92376">
        <ele>1102</ele>
        <time>2016-06-18T18:12:57Z</time>
      </trkpt>
      <trkpt lat="47.90985" lon="6.92378">
        <ele>1103</ele>
        <time>2016-06-18T18:13:08Z</time>
      </trkpt>
      <trkpt lat="47.9098" lon="6.92378">
        <ele>1103</ele>
        <time>2016-06-18T18:13:13Z</time>
      </trkpt>
      <trkpt lat="47.90964" lon="6.92381">
        <ele>1103</ele>
        <time>2016-06-18T18:13:28Z</time>
      </trkpt>
      <trkpt lat="47.9096" lon="6.92385">
        <ele>1104</ele>
        <time>2016-06-18T18:13:32Z</time>
      </trkpt>
      <trkpt lat="47.9095" lon="6.92385">
        <ele>1104</ele>
        <time>2016-06-18T18:13:38Z</time>
      </trkpt>
      <trkpt lat="47.90935" lon="6.92388">
        <ele>1105</ele>
        <time>2016-06-18T18:13:50Z</time>
      </trkpt>
      <trkpt lat="47.90921" lon="6.92394">
        <ele>1107</ele>
        <time>2016-06-18T18:14:02Z</time>
      </trkpt>
      <trkpt lat="47.90916" lon="6.92397">
        <ele>1112</ele>
        <time>2016-06-18T18:14:07Z</time>
      </trkpt>
      <trkpt lat="47.90911" lon="6.92395">
        <ele>1112</ele>
        <time>2016-06-18T18:14:11Z</time>
      </trkpt>
      <trkpt lat="47.90894" lon="6.92394">
        <ele>1112</ele>
        <time>2016-06-18T18:14:24Z</time>
      </trkpt>
      <trkpt lat="47.90882" lon="6.92398">
        <ele>1113</ele>
        <time>2016-06-18T18:14:38Z</time>
      </trkpt>
      <trkpt lat="47.90873" lon="6.92394">
        <ele>1114</ele>
        <time>2016-06-18T18:14:48Z</time>
      </trkpt>
      <trkpt lat="47.90863" lon="6.92392">
        <ele>1115</ele>
        <time>2016-06-18T18:15:00Z</time>
      </trkpt>
      <trkpt lat="47.90854" lon="6.92386">
        <ele>1115</ele>
        <time>2016-06-18T18:15:10Z</time>
      </trkpt>
      <trkpt lat="47.9085" lon="6.92381">
        <ele>1114</ele>
        <time>2016-06-18T18:15:17Z</time>
      </trkpt>
      <trkpt lat="47.90838" lon="6.92376">
        <ele>1114</ele>
        <time>2016-06-18T18:15:27Z</time>
      </trkpt>
      <trkpt lat="47.90834" lon="6.92372">
        <ele>1114</ele>
        <time>2016-06-18T18:15:31Z</time>
      </trkpt>
      <trkpt lat="47.90827" lon="6.92363">
        <ele>1121</ele>
        <time>2016-06-18T18:15:43Z</time>
      </trkpt>
      <trkpt lat="47.90813" lon="6.92355">
        <ele>1121</ele>
        <time>2016-06-18T18:15:54Z</time>
      </trkpt>
      <trkpt lat="47.90809" lon="6.92352">
        <ele>1121</ele>
        <time>2016-06-18T18:15:57Z</time>
      </trkpt>
      <trkpt lat="47.90793" lon="6.92345">
        <ele>1123</ele>
        <time>2016-06-18T18:16:11Z</time>
      </trkpt>
      <trkpt lat="47.90777" lon="6.92341">
        <ele>1124</ele>
        <time>2016-06-18T18:16:22Z</time>
      </trkpt>
      <trkpt lat="47.90773" lon="6.92337">
        <ele>1123</ele>
        <time>2016-06-18T18:16:25Z</time>
      </trkpt>
      <trkpt lat="47.9077" lon="6.92332">
        <ele>1113</ele>
        <time>2016-06-18T18:16:28Z</time>
      </trkpt>
      <trkpt lat="47.9076" lon="6.92324">
        <ele>1115</ele>
        <time>2016-06-18T18:16:38Z</time>
      </trkpt>
      <trkpt lat="47.90756" lon="6.92322">
        <ele>1115</ele>
        <time>2016-06-18T18:16:41Z</time>
      </trkpt>
      <trkpt lat="47.9074" lon="6.92325">
        <ele>1120</ele>
        <time>2016-06-18T18:16:54Z</time>
      </trkpt>
      <trkpt lat="47.90725" lon="6.92319">
        <ele>1119</ele>
        <time>2016-06-18T18:17:06Z</time>
      </trkpt>
      <trkpt lat="47.9071" lon="6.92313">
        <ele>1119</ele>
        <time>2016-06-18T18:17:18Z</time>
      </trkpt>
      <trkpt lat="47.90696" lon="6.92304">
        <ele>1120</ele>
        <time>2016-06-18T18:17:29Z</time>
      </trkpt>
      <trkpt lat="47.90681" lon="6.92298">
        <ele>1120</ele>
        <time>2016-06-18T18:17:42Z</time>
      </trkpt>
      <trkpt lat="47.90677" lon="6.92293">
        <ele>1119</ele>
        <time>2016-06-18T18:17:45Z</time>
      </trkpt>
      <trkpt lat="47.90663" lon="6.92283">
        <ele>1127</ele>
        <time>2016-06-18T18:17:59Z</time>
      </trkpt>
      <trkpt lat="47.90659" lon="6.92279">
        <ele>1126</ele>
        <time>2016-06-18T18:18:02Z</time>
      </trkpt>
      <trkpt lat="47.90655" lon="6.92274">
        <ele>1125</ele>
        <time>2016-06-18T18:18:09Z</time>
      </trkpt>
      <trkpt lat="47.90638" lon="6.92259">
        <ele>1127</ele>
        <time>2016-06-18T18:18:20Z</time>
      </trkpt>
      <trkpt lat="47.90634" lon="6.92255">
        <ele>1127</ele>
        <time>2016-06-18T18:18:26Z</time>
      </trkpt>
      <trkpt lat="47.90626" lon="6.92248">
        <ele>1119</ele>
        <time>2016-06-18T18:18:38Z</time>
      </trkpt>
      <trkpt lat="47.90621" lon="6.92245">
        <ele>1120</ele>
        <time>2016-06-18T18:18:48Z</time>
      </trkpt>
      <trkpt lat="47.9061" lon="6.92227">
        <ele>1121</ele>
        <time>2016-06-18T18:19:01Z</time>
      </trkpt>
      <trkpt lat="47.90606" lon="6.92221">
        <ele>1121</ele>
        <time>2016-06-18T18:19:04Z</time>
      </trkpt>
      <trkpt lat="47.90601" lon="6.92216">
        <ele>1122</ele>
        <time>2016-06-18T18:19:07Z</time>
      </trkpt>
      <trkpt lat="47.90588" lon="6.92201">
        <ele>1121</ele>
        <time>2016-06-18T18:19:18Z</time>
      </trkpt>
      <trkpt lat="47.90576" lon="6.92189">
        <ele>1135</ele>
        <time>2016-06-18T18:19:29Z</time>
      </trkpt>
      <trkpt lat="47.90573" lon="6.92182">
        <ele>1134</ele>
        <time>2016-06-18T18:19:35Z</time>
      </trkpt>
      <trkpt lat="47.90561" lon="6.9217">
        <ele>1135</ele>
        <time>2016-06-18T18:19:47Z</time>
      </trkpt>
      <trkpt lat="47.90554" lon="6.92161">
        <ele>1133</ele>
        <time>2016-06-18T18:19:58Z</time>
      </trkpt>
      <trkpt lat="47.90549" lon="6.9215">
        <ele>1133</ele>
        <time>2016-06-18T18:20:07Z</time>
      </trkpt>
      <trkpt lat="47.90545" lon="6.92144">
        <ele>1134</ele>
        <time>2016-06-18T18:20:11Z</time>
      </trkpt>
      <trkpt lat="47.90533" lon="6.9213">
        <ele>1135</ele>
        <time>2016-06-18T18:20:24Z</time>
      </trkpt>
      <trkpt lat="47.90522" lon="6.92114">
        <ele>1136</ele>
        <time>2016-06-18T18:20:34Z</time>
      </trkpt>
      <trkpt lat="47.90512" lon="6.92098">
        <ele>1138</ele>
        <time>2016-06-18T18:20:47Z</time>
      </trkpt>
      <trkpt lat="47.9051" lon="6.92091">
        <ele>1139</ele>
        <time>2016-06-18T18:20:51Z</time>
      </trkpt>
      <trkpt lat="47.90504" lon="6.92079">
        <ele>1139</ele>
        <time>2016-06-18T18:21:01Z</time>
      </trkpt>
      <trkpt lat="47.90497" lon="6.92059">
        <ele>1142</ele>
        <time>2016-06-18T18:21:14Z</time>
      </trkpt>
      <trkpt lat="47.90487" lon="6.92041">
        <ele>1142</ele>
        <time>2016-06-18T18:21:25Z</time>
      </trkpt>
      <trkpt lat="47.9049" lon="6.92021">
        <ele>1141</ele>
        <time>2016-06-18T18:21:37Z</time>
      </trkpt>
      <trkpt lat="47.90492" lon="6.9201">
        <ele>1139</ele>
        <time>2016-06-18T18:21:41Z</time>
      </trkpt>
      <trkpt lat="47.90489" lon="6.92004">
        <ele>1139</ele>
        <time>2016-06-18T18:21:44Z</time>
      </trkpt>
      <trkpt lat="47.90479" lon="6.91989">
        <ele>1140</ele>
        <time>2016-06-18T18:21:54Z</time>
      </trkpt>
      <trkpt lat="47.90472" lon="6.9197">
        <ele>1141</ele>
        <time>2016-06-18T18:22:06Z</time>
      </trkpt>
      <trkpt lat="47.9047" lon="6.91956">
        <ele>1141</ele>
        <time>2016-06-18T18:22:16Z</time>
      </trkpt>
      <trkpt lat="47.90467" lon="6.91951">
        <ele>1141</ele>
        <time>2016-06-18T18:22:20Z</time>
      </trkpt>
      <trkpt lat="47.90464" lon="6.91929">
        <ele>1141</ele>
        <time>2016-06-18T18:22:34Z</time>
      </trkpt>
      <trkpt lat="47.90459" lon="6.91919">
        <ele>1142</ele>
        <time>2016-06-18T18:22:46Z</time>
      </trkpt>
      <trkpt lat="47.90458" lon="6.91911">
        <ele>1139</ele>
        <time>2016-06-18T18:22:52Z</time>
      </trkpt>
      <trkpt lat="47.90453" lon="6.91891">
        <ele>1139</ele>
        <time>2016-06-18T18:23:05Z</time>
      </trkpt>
      <trkpt lat="47.90448" lon="6.91877">
        <ele>1139</ele>
        <time>2016-06-18T18:23:15Z</time>
      </trkpt>
      <trkpt lat="47.90445" lon="6.91864">
        <ele>1139</ele>
        <time>2016-06-18T18:23:25Z</time>
      </trkpt>
      <trkpt lat="47.90444" lon="6.91855">
        <ele>1139</ele>
        <time>2016-06-18T18:23:29Z</time>
      </trkpt>
      <trkpt lat="47.90442" lon="6.91839">
        <ele>1140</ele>
        <time>2016-06-18T18:23:38Z</time>
      </trkpt>
      <trkpt lat="47.90442" lon="6.91823">
        <ele>1140</ele>
        <time>2016-06-18T18:23:48Z</time>
      </trkpt>
      <trkpt lat="47.90439" lon="6.91802">
        <ele>1139</ele>
        <time>2016-06-18T18:24:02Z</time>
      </trkpt>
      <trkpt lat="47.9044" lon="6.91794">
        <ele>1139</ele>
        <time>2016-06-18T18:24:06Z</time>
      </trkpt>
      <trkpt lat="47.90442" lon="6.91788">
        <ele>1139</ele>
        <time>2016-06-18T18:24:10Z</time>
      </trkpt>
      <trkpt lat="47.90443" lon="6.91765">
        <ele>1140</ele>
        <time>2016-06-18T18:24:20Z</time>
      </trkpt>
      <trkpt lat="47.90442" lon="6.91739">
        <ele>1144</ele>
        <time>2016-06-18T18:24:32Z</time>
      </trkpt>
      <trkpt lat="47.90442" lon="6.91732">
        <ele>1144</ele>
        <time>2016-06-18T18:24:36Z</time>
      </trkpt>
      <trkpt lat="47.90439" lon="6.9171">
        <ele>1145</ele>
        <time>2016-06-18T18:24:49Z</time>
      </trkpt>
      <trkpt lat="47.9044" lon="6.91702">
        <ele>1145</ele>
        <time>2016-06-18T18:24:54Z</time>
      </trkpt>
      <trkpt lat="47.90435" lon="6.9169">
        <ele>1146</ele>
        <time>2016-06-18T18:25:06Z</time>
      </trkpt>
      <trkpt lat="47.90428" lon="6.91681">
        <ele>1149</ele>
        <time>2016-06-18T18:25:16Z</time>
      </trkpt>
      <trkpt lat="47.90422" lon="6.91671">
        <ele>1152</ele>
        <time>2016-06-18T18:25:28Z</time>
      </trkpt>
      <trkpt lat="47.90414" lon="6.91661">
        <ele>1154</ele>
        <time>2016-06-18T18:25:37Z</time>
      </trkpt>
      <trkpt lat="47.90405" lon="6.91655">
        <ele>1153</ele>
        <time>2016-06-18T18:25:44Z</time>
      </trkpt>
      <trkpt lat="47.9039" lon="6.91642">
        <ele>1152</ele>
        <time>2016-06-18T18:25:55Z</time>
      </trkpt>
      <trkpt lat="47.90378" lon="6.9163">
        <ele>1151</ele>
        <time>2016-06-18T18:26:05Z</time>
      </trkpt>
      <trkpt lat="47.90365" lon="6.91619">
        <ele>1151</ele>
        <time>2016-06-18T18:26:17Z</time>
      </trkpt>
      <trkpt lat="47.90352" lon="6.91609">
        <ele>1150</ele>
        <time>2016-06-18T18:26:28Z</time>
      </trkpt>
      <trkpt lat="47.90335" lon="6.9159">
        <ele>1147</ele>
        <time>2016-06-18T18:26:40Z</time>
      </trkpt>
      <trkpt lat="47.90318" lon="6.91573">
        <ele>1146</ele>
        <time>2016-06-18T18:26:52Z</time>
      </trkpt>
      <trkpt lat="47.90306" lon="6.91559">
        <ele>1146</ele>
        <time>2016-06-18T18:27:03Z</time>
      </trkpt>
      <trkpt lat="47.90292" lon="6.91537">
        <ele>1145</ele>
        <time>2016-06-18T18:27:14Z</time>
      </trkpt>
      <trkpt lat="47.9029" lon="6.9153">
        <ele>1145</ele>
        <time>2016-06-18T18:27:17Z</time>
      </trkpt>
      <trkpt lat="47.90279" lon="6.91513">
        <ele>1144</ele>
        <time>2016-06-18T18:27:28Z</time>
      </trkpt>
      <trkpt lat="47.90271" lon="6.91494">
        <ele>1136</ele>
        <time>2016-06-18T18:27:41Z</time>
      </trkpt>
      <trkpt lat="47.90264" lon="6.91472">
        <ele>1134</ele>
        <time>2016-06-18T18:27:53Z</time>
      </trkpt>
      <trkpt lat="47.90253" lon="6.91456">
        <ele>1133</ele>
        <time>2016-06-18T18:28:07Z</time>
      </trkpt>
      <trkpt lat="47.90247" lon="6.91435">
        <ele>1136</ele>
        <time>2016-06-18T18:28:19Z</time>
      </trkpt>
      <trkpt lat="47.90242" lon="6.91432">
        <ele>1136</ele>
        <time>2016-06-18T18:28:30Z</time>
      </trkpt>
      <trkpt lat="47.90237" lon="6.91445">
        <ele>1137</ele>
        <time>2016-06-18T18:28:41Z</time>
      </trkpt>
      <trkpt lat="47.90228" lon="6.91461">
        <ele>1138</ele>
        <time>2016-06-18T18:28:53Z</time>
      </trkpt>
      <trkpt lat="47.90216" lon="6.91474">
        <ele>1139</ele>
        <time>2016-06-18T18:29:06Z</time>
      </trkpt>
      <trkpt lat="47.90209" lon="6.91487">
        <ele>1140</ele>
        <time>2016-06-18T18:29:16Z</time>
      </trkpt>
      <trkpt lat="47.90199" lon="6.91503">
        <ele>1151</ele>
        <time>2016-06-18T18:29:28Z</time>
      </trkpt>
      <trkpt lat="47.90188" lon="6.91519">
        <ele>1151</ele>
        <time>2016-06-18T18:29:40Z</time>
      </trkpt>
      <trkpt lat="47.90177" lon="6.91532">
        <ele>1153</ele>
        <time>2016-06-18T18:29:52Z</time>
      </trkpt>
      <trkpt lat="47.90164" lon="6.91543">
        <ele>1150</ele>
        <time>2016-06-18T18:30:03Z</time>
      </trkpt>
      <trkpt lat="47.90152" lon="6.91556">
        <ele>1152</ele>
        <time>2016-06-18T18:30:15Z</time>
      </trkpt>
      <trkpt lat="47.9014" lon="6.91569">
        <ele>1152</ele>
        <time>2016-06-18T18:30:27Z</time>
      </trkpt>
      <trkpt lat="47.90127" lon="6.91582">
        <ele>1150</ele>
        <time>2016-06-18T18:30:40Z</time>
      </trkpt>
      <trkpt lat="47.90116" lon="6.91596">
        <ele>1161</ele>
        <time>2016-06-18T18:30:52Z</time>
      </trkpt>
      <trkpt lat="47.90104" lon="6.9161">
        <ele>1161</ele>
        <time>2016-06-18T18:31:04Z</time>
      </trkpt>
      <trkpt lat="47.90094" lon="6.91626">
        <ele>1163</ele>
        <time>2016-06-18T18:31:16Z</time>
      </trkpt>
      <trkpt lat="47.90083" lon="6.91641">
        <ele>1154</ele>
        <time>2016-06-18T18:31:29Z</time>
      </trkpt>
      <trkpt lat="47.9007" lon="6.91655">
        <ele>1157</ele>
        <time>2016-06-18T18:31:41Z</time>
      </trkpt>
      <trkpt lat="47.90061" lon="6.91674">
        <ele>1164</ele>
        <time>2016-06-18T18:31:54Z</time>
      </trkpt>
      <trkpt lat="47.90048" lon="6.91686">
        <ele>1163</ele>
        <time>2016-06-18T18:32:06Z</time>
      </trkpt>
      <trkpt lat="47.90034" lon="6.91697">
        <ele>1162</ele>
        <time>2016-06-18T18:32:18Z</time>
      </trkpt>
      <trkpt lat="47.90023" lon="6.91712">
        <ele>1162</ele>
        <time>2016-06-18T18:32:30Z</time>
      </trkpt>
      <trkpt lat="47.90009" lon="6.91722">
        <ele>1162</ele>
        <time>2016-06-18T18:32:42Z</time>
      </trkpt>
      <trkpt lat="47.89996" lon="6.91736">
        <ele>1161</ele>
        <time>2016-06-18T18:32:55Z</time>
      </trkpt>
      <trkpt lat="47.89984" lon="6.9175">
        <ele>1163</ele>
        <time>2016-06-18T18:33:07Z</time>
      </trkpt>
      <trkpt lat="47.89968" lon="6.91754">
        <ele>1164</ele>
        <time>2016-06-18T18:33:20Z</time>
      </trkpt>
      <trkpt lat="47.89955" lon="6.91747">
        <ele>1160</ele>
        <time>2016-06-18T18:33:32Z</time>
      </trkpt>
      <trkpt lat="47.89942" lon="6.91737">
        <ele>1160</ele>
        <time>2016-06-18T18:33:42Z</time>
      </trkpt>
      <trkpt lat="47.89927" lon="6.91724">
        <ele>1159</ele>
        <time>2016-06-18T18:33:54Z</time>
      </trkpt>
      <trkpt lat="47.89907" lon="6.91711">
        <ele>1159</ele>
        <time>2016-06-18T18:34:07Z</time>
      </trkpt>
      <trkpt lat="47.89898" lon="6.91701">
        <ele>1157</ele>
        <time>2016-06-18T18:34:34Z</time>
      </trkpt>
      <trkpt lat="47.89893" lon="6.91697">
        <ele>1157</ele>
        <time>2016-06-18T18:34:38Z</time>
      </trkpt>
      <trkpt lat="47.8988" lon="6.91685">
        <ele>1157</ele>
        <time>2016-06-18T18:34:51Z</time>
      </trkpt>
      <trkpt lat="47.89867" lon="6.91673">
        <ele>1157</ele>
        <time>2016-06-18T18:35:05Z</time>
      </trkpt>
      <trkpt lat="47.89857" lon="6.91665">
        <ele>1148</ele>
        <time>2016-06-18T18:35:14Z</time>
      </trkpt>
      <trkpt lat="47.89849" lon="6.9165">
        <ele>1148</ele>
        <time>2016-06-18T18:35:25Z</time>
      </trkpt>
      <trkpt lat="47.89842" lon="6.91649">
        <ele>1149</ele>
        <time>2016-06-18T18:35:35Z</time>
      </trkpt>
      <trkpt lat="47.89838" lon="6.91648">
        <ele>1149</ele>
        <time>2016-06-18T18:35:39Z</time>
      </trkpt>
      <trkpt lat="47.89837" lon="6.9164">
        <ele>1147</ele>
        <time>2016-06-18T18:35:47Z</time>
      </trkpt>
      <trkpt lat="47.89831" lon="6.9163">
        <ele>1148</ele>
        <time>2016-06-18T18:35:57Z</time>
      </trkpt>
      <trkpt lat="47.8982" lon="6.91614">
        <ele>1146</ele>
        <time>2016-06-18T18:36:09Z</time>
      </trkpt>
      <trkpt lat="47.89809" lon="6.916">
        <ele>1145</ele>
        <time>2016-06-18T18:36:19Z</time>
      </trkpt>
      <trkpt lat="47.89805" lon="6.91594">
        <ele>1145</ele>
        <time>2016-06-18T18:36:22Z</time>
      </trkpt>
      <trkpt lat="47.89796" lon="6.91586">
        <ele>1145</ele>
        <time>2016-06-18T18:36:33Z</time>
      </trkpt>
      <trkpt lat="47.89792" lon="6.91582">
        <ele>1138</ele>
        <time>2016-06-18T18:36:36Z</time>
      </trkpt>
      <trkpt lat="47.89789" lon="6.91575">
        <ele>1137</ele>
        <time>2016-06-18T18:36:40Z</time>
      </trkpt>
      <trkpt lat="47.89783" lon="6.91573">
        <ele>1138</ele>
        <time>2016-06-18T18:36:45Z</time>
      </trkpt>
      <trkpt lat="47.89774" lon="6.91566">
        <ele>1138</ele>
        <time>2016-06-18T18:36:55Z</time>
      </trkpt>
      <trkpt lat="47.89761" lon="6.91544">
        <ele>1136</ele>
        <time>2016-06-18T18:37:08Z</time>
      </trkpt>
      <trkpt lat="47.89761" lon="6.9152">
        <ele>1134</ele>
        <time>2016-06-18T18:37:20Z</time>
      </trkpt>
      <trkpt lat="47.89754" lon="6.91506">
        <ele>1135</ele>
        <time>2016-06-18T18:37:30Z</time>
      </trkpt>
      <trkpt lat="47.89743" lon="6.91489">
        <ele>1133</ele>
        <time>2016-06-18T18:37:41Z</time>
      </trkpt>
      <trkpt lat="47.89735" lon="6.9147">
        <ele>1131</ele>
        <time>2016-06-18T18:37:51Z</time>
      </trkpt>
      <trkpt lat="47.89731" lon="6.91446">
        <ele>1130</ele>
        <time>2016-06-18T18:38:02Z</time>
      </trkpt>
      <trkpt lat="47.89727" lon="6.91426">
        <ele>1128</ele>
        <time>2016-06-18T18:38:13Z</time>
      </trkpt>
      <trkpt lat="47.8972" lon="6.91398">
        <ele>1125</ele>
        <time>2016-06-18T18:38:26Z</time>
      </trkpt>
      <trkpt lat="47.89719" lon="6.91373">
        <ele>1124</ele>
        <time>2016-06-18T18:38:36Z</time>
      </trkpt>
      <trkpt lat="47.89714" lon="6.91359">
        <ele>1124</ele>
        <time>2016-06-18T18:38:42Z</time>
      </trkpt>
      <trkpt lat="47.89715" lon="6.91334">
        <ele>1122</ele>
        <time>2016-06-18T18:38:54Z</time>
      </trkpt>
      <trkpt lat="47.89714" lon="6.91319">
        <ele>1118</ele>
        <time>2016-06-18T18:39:05Z</time>
      </trkpt>
      <trkpt lat="47.89716" lon="6.91311">
        <ele>1117</ele>
        <time>2016-06-18T18:39:09Z</time>
      </trkpt>
      <trkpt lat="47.89718" lon="6.91305">
        <ele>1117</ele>
        <time>2016-06-18T18:39:14Z</time>
      </trkpt>
      <trkpt lat="47.8972" lon="6.91299">
        <ele>1116</ele>
        <time>2016-06-18T18:39:26Z</time>
      </trkpt>
      <trkpt lat="47.89722" lon="6.91292">
        <ele>1116</ele>
        <time>2016-06-18T18:39:36Z</time>
      </trkpt>
      <trkpt lat="47.89725" lon="6.91285">
        <ele>1115</ele>
        <time>2016-06-18T18:39:45Z</time>
      </trkpt>
      <trkpt lat="47.89726" lon="6.91277">
        <ele>1113</ele>
        <time>2016-06-18T18:39:52Z</time>
      </trkpt>
      <trkpt lat="47.89724" lon="6.91265">
        <ele>1112</ele>
        <time>2016-06-18T18:40:05Z</time>
      </trkpt>
      <trkpt lat="47.89722" lon="6.91252">
        <ele>1112</ele>
        <time>2016-06-18T18:40:19Z</time>
      </trkpt>
      <trkpt lat="47.89734" lon="6.91236">
        <ele>1107</ele>
        <time>2016-06-18T18:40:29Z</time>
      </trkpt>
      <trkpt lat="47.89739" lon="6.91211">
        <ele>1109</ele>
        <time>2016-06-18T18:40:42Z</time>
      </trkpt>
      <trkpt lat="47.89746" lon="6.9119">
        <ele>1105</ele>
        <time>2016-06-18T18:40:52Z</time>
      </trkpt>
      <trkpt lat="47.89747" lon="6.91181">
        <ele>1102</ele>
        <time>2016-06-18T18:40:54Z</time>
      </trkpt>
      <trkpt lat="47.89748" lon="6.91172">
        <ele>1097</ele>
        <time>2016-06-18T18:40:56Z</time>
      </trkpt>
      <trkpt lat="47.89753" lon="6.91157">
        <ele>1084</ele>
        <time>2016-06-18T18:41:00Z</time>
      </trkpt>
      <trkpt lat="47.89759" lon="6.91135">
        <ele>1077</ele>
        <time>2016-06-18T18:41:06Z</time>
      </trkpt>
      <trkpt lat="47.89761" lon="6.91127">
        <ele>1076</ele>
        <time>2016-06-18T18:41:10Z</time>
      </trkpt>
      <trkpt lat="47.89778" lon="6.91096">
        <ele>1075</ele>
        <time>2016-06-18T18:41:21Z</time>
      </trkpt>
      <trkpt lat="47.89782" lon="6.91088">
        <ele>1074</ele>
        <time>2016-06-18T18:41:24Z</time>
      </trkpt>
      <trkpt lat="47.89784" lon="6.91081">
        <ele>1071</ele>
        <time>2016-06-18T18:41:26Z</time>
      </trkpt>
      <trkpt lat="47.8979" lon="6.91056">
        <ele>1068</ele>
        <time>2016-06-18T18:41:37Z</time>
      </trkpt>
      <trkpt lat="47.89787" lon="6.91043">
        <ele>1068</ele>
        <time>2016-06-18T18:41:44Z</time>
      </trkpt>
      <trkpt lat="47.89782" lon="6.91014">
        <ele>1070</ele>
        <time>2016-06-18T18:41:57Z</time>
      </trkpt>
      <trkpt lat="47.89777" lon="6.90982">
        <ele>1064</ele>
        <time>2016-06-18T18:42:09Z</time>
      </trkpt>
      <trkpt lat="47.89779" lon="6.90972">
        <ele>1062</ele>
        <time>2016-06-18T18:42:11Z</time>
      </trkpt>
      <trkpt lat="47.89777" lon="6.90965">
        <ele>1062</ele>
        <time>2016-06-18T18:42:14Z</time>
      </trkpt>
      <trkpt lat="47.89772" lon="6.90963">
        <ele>1063</ele>
        <time>2016-06-18T18:42:17Z</time>
      </trkpt>
      <trkpt lat="47.89769" lon="6.9094">
        <ele>1062</ele>
        <time>2016-06-18T18:42:27Z</time>
      </trkpt>
      <trkpt lat="47.89762" lon="6.90911">
        <ele>1057</ele>
        <time>2016-06-18T18:42:39Z</time>
      </trkpt>
      <trkpt lat="47.89764" lon="6.90903">
        <ele>1053</ele>
        <time>2016-06-18T18:42:41Z</time>
      </trkpt>
      <trkpt lat="47.89765" lon="6.90874">
        <ele>1045</ele>
        <time>2016-06-18T18:42:49Z</time>
      </trkpt>
      <trkpt lat="47.89764" lon="6.90865">
        <ele>1043</ele>
        <time>2016-06-18T18:42:52Z</time>
      </trkpt>
      <trkpt lat="47.89766" lon="6.90847">
        <ele>1042</ele>
        <time>2016-06-18T18:42:57Z</time>
      </trkpt>
      <trkpt lat="47.89769" lon="6.90838">
        <ele>1041</ele>
        <time>2016-06-18T18:42:59Z</time>
      </trkpt>
      <trkpt lat="47.8977" lon="6.90831">
        <ele>1028</ele>
        <time>2016-06-18T18:43:03Z</time>
      </trkpt>
      <trkpt lat="47.8977" lon="6.9082">
        <ele>1026</ele>
        <time>2016-06-18T18:43:06Z</time>
      </trkpt>
      <trkpt lat="47.89767" lon="6.90814">
        <ele>1025</ele>
        <time>2016-06-18T18:43:09Z</time>
      </trkpt>
      <trkpt lat="47.89761" lon="6.908">
        <ele>1021</ele>
        <time>2016-06-18T18:43:17Z</time>
      </trkpt>
      <trkpt lat="47.89758" lon="6.90778">
        <ele>1016</ele>
        <time>2016-06-18T18:43:29Z</time>
      </trkpt>
      <trkpt lat="47.89758" lon="6.90771">
        <ele>1015</ele>
        <time>2016-06-18T18:43:33Z</time>
      </trkpt>
      <trkpt lat="47.89757" lon="6.90756">
        <ele>1014</ele>
        <time>2016-06-18T18:43:43Z</time>
      </trkpt>
      <trkpt lat="47.89746" lon="6.90738">
        <ele>1016</ele>
        <time>2016-06-18T18:43:54Z</time>
      </trkpt>
      <trkpt lat="47.89736" lon="6.90723">
        <ele>1017</ele>
        <time>2016-06-18T18:44:07Z</time>
      </trkpt>
      <trkpt lat="47.89727" lon="6.90706">
        <ele>1017</ele>
        <time>2016-06-18T18:44:17Z</time>
      </trkpt>
      <trkpt lat="47.89722" lon="6.90693">
        <ele>1015</ele>
        <time>2016-06-18T18:44:27Z</time>
      </trkpt>
      <trkpt lat="47.89717" lon="6.90674">
        <ele>1013</ele>
        <time>2016-06-18T18:44:39Z</time>
      </trkpt>
      <trkpt lat="47.89713" lon="6.90659">
        <ele>1000</ele>
        <time>2016-06-18T18:44:49Z</time>
      </trkpt>
      <trkpt lat="47.89707" lon="6.90639">
        <ele>1000</ele>
        <time>2016-06-18T18:44:59Z</time>
      </trkpt>
      <trkpt lat="47.89704" lon="6.90619">
        <ele>999</ele>
        <time>2016-06-18T18:45:14Z</time>
      </trkpt>
      <trkpt lat="47.897" lon="6.90594">
        <ele>998</ele>
        <time>2016-06-18T18:45:26Z</time>
      </trkpt>
      <trkpt lat="47.89704" lon="6.90575">
        <ele>985</ele>
        <time>2016-06-18T18:45:30Z</time>
      </trkpt>
      <trkpt lat="47.89707" lon="6.90565">
        <ele>983</ele>
        <time>2016-06-18T18:45:32Z</time>
      </trkpt>
      <trkpt lat="47.89709" lon="6.90547">
        <ele>981</ele>
        <time>2016-06-18T18:45:39Z</time>
      </trkpt>
      <trkpt lat="47.8971" lon="6.90532">
        <ele>979</ele>
        <time>2016-06-18T18:45:47Z</time>
      </trkpt>
      <trkpt lat="47.89711" lon="6.90525">
        <ele>978</ele>
        <time>2016-06-18T18:45:49Z</time>
      </trkpt>
      <trkpt lat="47.89713" lon="6.90517">
        <ele>977</ele>
        <time>2016-06-18T18:45:53Z</time>
      </trkpt>
      <trkpt lat="47.89713" lon="6.90501">
        <ele>976</ele>
        <time>2016-06-18T18:46:01Z</time>
      </trkpt>
      <trkpt lat="47.89719" lon="6.90487">
        <ele>964</ele>
        <time>2016-06-18T18:46:11Z</time>
      </trkpt>
      <trkpt lat="47.89709" lon="6.9047">
        <ele>965</ele>
        <time>2016-06-18T18:46:25Z</time>
      </trkpt>
      <trkpt lat="47.89706" lon="6.90464">
        <ele>965</ele>
        <time>2016-06-18T18:46:29Z</time>
      </trkpt>
      <trkpt lat="47.89697" lon="6.90441">
        <ele>965</ele>
        <time>2016-06-18T18:46:40Z</time>
      </trkpt>
      <trkpt lat="47.89687" lon="6.90416">
        <ele>959</ele>
        <time>2016-06-18T18:46:51Z</time>
      </trkpt>
      <trkpt lat="47.89674" lon="6.9039">
        <ele>956</ele>
        <time>2016-06-18T18:47:03Z</time>
      </trkpt>
      <trkpt lat="47.8967" lon="6.90359">
        <ele>950</ele>
        <time>2016-06-18T18:47:13Z</time>
      </trkpt>
      <trkpt lat="47.89669" lon="6.90352">
        <ele>949</ele>
        <time>2016-06-18T18:47:17Z</time>
      </trkpt>
      <trkpt lat="47.89658" lon="6.90324">
        <ele>943</ele>
        <time>2016-06-18T18:47:30Z</time>
      </trkpt>
      <trkpt lat="47.8964" lon="6.90308">
        <ele>938</ele>
        <time>2016-06-18T18:47:40Z</time>
      </trkpt>
      <trkpt lat="47.89627" lon="6.90289">
        <ele>935</ele>
        <time>2016-06-18T18:47:49Z</time>
      </trkpt>
      <trkpt lat="47.89618" lon="6.90271">
        <ele>932</ele>
        <time>2016-06-18T18:47:54Z</time>
      </trkpt>
      <trkpt lat="47.89598" lon="6.9026">
        <ele>929</ele>
        <time>2016-06-18T18:48:05Z</time>
      </trkpt>
      <trkpt lat="47.89593" lon="6.90255">
        <ele>927</ele>
        <time>2016-06-18T18:48:07Z</time>
      </trkpt>
      <trkpt lat="47.89579" lon="6.90245">
        <ele>922</ele>
        <time>2016-06-18T18:48:21Z</time>
      </trkpt>
      <trkpt lat="47.89577" lon="6.90235">
        <ele>920</ele>
        <time>2016-06-18T18:48:26Z</time>
      </trkpt>
      <trkpt lat="47.89575" lon="6.90227">
        <ele>918</ele>
        <time>2016-06-18T18:48:30Z</time>
      </trkpt>
      <trkpt lat="47.89571" lon="6.90223">
        <ele>918</ele>
        <time>2016-06-18T18:48:31Z</time>
      </trkpt>
      <trkpt lat="47.89568" lon="6.90217">
        <ele>917</ele>
        <time>2016-06-18T18:48:33Z</time>
      </trkpt>
      <trkpt lat="47.89555" lon="6.90201">
        <ele>915</ele>
        <time>2016-06-18T18:48:44Z</time>
      </trkpt>
      <trkpt lat="47.89543" lon="6.90192">
        <ele>915</ele>
        <time>2016-06-18T18:48:54Z</time>
      </trkpt>
      <trkpt lat="47.8954" lon="6.90179">
        <ele>914</ele>
        <time>2016-06-18T18:49:06Z</time>
      </trkpt>
      <trkpt lat="47.89533" lon="6.90155">
        <ele>901</ele>
        <time>2016-06-18T18:49:18Z</time>
      </trkpt>
      <trkpt lat="47.89526" lon="6.90133">
        <ele>899</ele>
        <time>2016-06-18T18:49:30Z</time>
      </trkpt>
      <trkpt lat="47.89526" lon="6.90125">
        <ele>898</ele>
        <time>2016-06-18T18:49:34Z</time>
      </trkpt>
      <trkpt lat="47.89526" lon="6.90093">
        <ele>896</ele>
        <time>2016-06-18T18:49:45Z</time>
      </trkpt>
      <trkpt lat="47.8952" lon="6.90073">
        <ele>886</ele>
        <time>2016-06-18T18:49:55Z</time>
      </trkpt>
      <trkpt lat="47.89514" lon="6.90058">
        <ele>884</ele>
        <time>2016-06-18T18:50:01Z</time>
      </trkpt>
      <trkpt lat="47.89508" lon="6.90041">
        <ele>882</ele>
        <time>2016-06-18T18:50:12Z</time>
      </trkpt>
      <trkpt lat="47.89505" lon="6.90026">
        <ele>880</ele>
        <time>2016-06-18T18:50:18Z</time>
      </trkpt>
      <trkpt lat="47.89497" lon="6.90006">
        <ele>883</ele>
        <time>2016-06-18T18:50:30Z</time>
      </trkpt>
      <trkpt lat="47.89474" lon="6.89982">
        <ele>874</ele>
        <time>2016-06-18T18:50:41Z</time>
      </trkpt>
      <trkpt lat="47.89461" lon="6.89959">
        <ele>872</ele>
        <time>2016-06-18T18:50:51Z</time>
      </trkpt>
      <trkpt lat="47.89459" lon="6.8995">
        <ele>870</ele>
        <time>2016-06-18T18:50:54Z</time>
      </trkpt>
      <trkpt lat="47.89441" lon="6.89923">
        <ele>867</ele>
        <time>2016-06-18T18:51:07Z</time>
      </trkpt>
      <trkpt lat="47.89437" lon="6.89919">
        <ele>867</ele>
        <time>2016-06-18T18:51:09Z</time>
      </trkpt>
      <trkpt lat="47.89416" lon="6.89895">
        <ele>852</ele>
        <time>2016-06-18T18:51:20Z</time>
      </trkpt>
      <trkpt lat="47.89386" lon="6.89876">
        <ele>846</ele>
        <time>2016-06-18T18:51:33Z</time>
      </trkpt>
      <trkpt lat="47.89374" lon="6.89867">
        <ele>844</ele>
        <time>2016-06-18T18:51:37Z</time>
      </trkpt>
      <trkpt lat="47.89368" lon="6.89866">
        <ele>843</ele>
        <time>2016-06-18T18:51:39Z</time>
      </trkpt>
      <trkpt lat="47.89338" lon="6.8986">
        <ele>840</ele>
        <time>2016-06-18T18:51:52Z</time>
      </trkpt>
      <trkpt lat="47.89334" lon="6.89858">
        <ele>839</ele>
        <time>2016-06-18T18:51:57Z</time>
      </trkpt>
      <trkpt lat="47.89322" lon="6.89862">
        <ele>831</ele>
        <time>2016-06-18T18:52:07Z</time>
      </trkpt>
      <trkpt lat="47.89313" lon="6.89865">
        <ele>831</ele>
        <time>2016-06-18T18:52:17Z</time>
      </trkpt>
      <trkpt lat="47.89308" lon="6.89867">
        <ele>831</ele>
        <time>2016-06-18T18:52:20Z</time>
      </trkpt>
      <trkpt lat="47.89294" lon="6.8987">
        <ele>829</ele>
        <time>2016-06-18T18:52:30Z</time>
      </trkpt>
      <trkpt lat="47.89289" lon="6.8987">
        <ele>829</ele>
        <time>2016-06-18T18:52:32Z</time>
      </trkpt>
      <trkpt lat="47.89279" lon="6.8987">
        <ele>828</ele>
        <time>2016-06-18T18:52:37Z</time>
      </trkpt>
      <trkpt lat="47.89273" lon="6.89872">
        <ele>827</ele>
        <time>2016-06-18T18:52:40Z</time>
      </trkpt>
      <trkpt lat="47.89252" lon="6.8988">
        <ele>827</ele>
        <time>2016-06-18T18:52:53Z</time>
      </trkpt>
      <trkpt lat="47.89246" lon="6.8988">
        <ele>819</ele>
        <time>2016-06-18T18:52:58Z</time>
      </trkpt>
      <trkpt lat="47.89236" lon="6.89882">
        <ele>819</ele>
        <time>2016-06-18T18:53:11Z</time>
      </trkpt>
      <trkpt lat="47.89228" lon="6.89878">
        <ele>818</ele>
        <time>2016-06-18T18:53:29Z</time>
      </trkpt>
      <trkpt lat="47.89206" lon="6.89874">
        <ele>817</ele>
        <time>2016-06-18T18:53:40Z</time>
      </trkpt>
      <trkpt lat="47.89195" lon="6.89869">
        <ele>816</ele>
        <time>2016-06-18T18:53:51Z</time>
      </trkpt>
      <trkpt lat="47.8918" lon="6.89864">
        <ele>814</ele>
        <time>2016-06-18T18:54:04Z</time>
      </trkpt>
      <trkpt lat="47.89176" lon="6.89858">
        <ele>813</ele>
        <time>2016-06-18T18:54:10Z</time>
      </trkpt>
      <trkpt lat="47.89169" lon="6.89856">
        <ele>812</ele>
        <time>2016-06-18T18:54:15Z</time>
      </trkpt>
      <trkpt lat="47.89147" lon="6.89843">
        <ele>802</ele>
        <time>2016-06-18T18:54:26Z</time>
      </trkpt>
      <trkpt lat="47.89135" lon="6.8983">
        <ele>798</ele>
        <time>2016-06-18T18:54:38Z</time>
      </trkpt>
      <trkpt lat="47.89129" lon="6.89816">
        <ele>797</ele>
        <time>2016-06-18T18:54:47Z</time>
      </trkpt>
      <trkpt lat="47.89122" lon="6.89796">
        <ele>797</ele>
        <time>2016-06-18T18:54:58Z</time>
      </trkpt>
      <trkpt lat="47.89121" lon="6.89788">
        <ele>797</ele>
        <time>2016-06-18T18:55:01Z</time>
      </trkpt>
      <trkpt lat="47.89121" lon="6.89781">
        <ele>797</ele>
        <time>2016-06-18T18:55:05Z</time>
      </trkpt>
      <trkpt lat="47.89112" lon="6.89762">
        <ele>797</ele>
        <time>2016-06-18T18:55:15Z</time>
      </trkpt>
      <trkpt lat="47.89104" lon="6.89754">
        <ele>797</ele>
        <time>2016-06-18T18:55:21Z</time>
      </trkpt>
      <trkpt lat="47.89095" lon="6.89749">
        <ele>798</ele>
        <time>2016-06-18T18:55:29Z</time>
      </trkpt>
      <trkpt lat="47.89085" lon="6.89744">
        <ele>797</ele>
        <time>2016-06-18T18:55:40Z</time>
      </trkpt>
      <trkpt lat="47.89069" lon="6.89743">
        <ele>789</ele>
        <time>2016-06-18T18:55:51Z</time>
      </trkpt>
      <trkpt lat="47.89064" lon="6.89744">
        <ele>787</ele>
        <time>2016-06-18T18:55:58Z</time>
      </trkpt>
      <trkpt lat="47.89058" lon="6.89733">
        <ele>785</ele>
        <time>2016-06-18T18:56:09Z</time>
      </trkpt>
      <trkpt lat="47.89052" lon="6.89729">
        <ele>783</ele>
        <time>2016-06-18T18:56:12Z</time>
      </trkpt>
      <trkpt lat="47.89038" lon="6.89742">
        <ele>779</ele>
        <time>2016-06-18T18:56:25Z</time>
      </trkpt>
      <trkpt lat="47.89032" lon="6.89764">
        <ele>774</ele>
        <time>2016-06-18T18:56:36Z</time>
      </trkpt>
      <trkpt lat="47.89034" lon="6.89786">
        <ele>774</ele>
        <time>2016-06-18T18:56:48Z</time>
      </trkpt>
      <trkpt lat="47.89033" lon="6.89794">
        <ele>773</ele>
        <time>2016-06-18T18:56:51Z</time>
      </trkpt>
      <trkpt lat="47.89028" lon="6.89794">
        <ele>772</ele>
        <time>2016-06-18T18:56:57Z</time>
      </trkpt>
      <trkpt lat="47.89024" lon="6.89789">
        <ele>771</ele>
        <time>2016-06-18T18:57:01Z</time>
      </trkpt>
      <trkpt lat="47.89018" lon="6.89773">
        <ele>771</ele>
        <time>2016-06-18T18:57:15Z</time>
      </trkpt>
      <trkpt lat="47.89012" lon="6.89762">
        <ele>769</ele>
        <time>2016-06-18T18:57:22Z</time>
      </trkpt>
      <trkpt lat="47.89008" lon="6.89748">
        <ele>768</ele>
        <time>2016-06-18T18:57:32Z</time>
      </trkpt>
      <trkpt lat="47.89005" lon="6.89725">
        <ele>773</ele>
        <time>2016-06-18T18:57:43Z</time>
      </trkpt>
      <trkpt lat="47.89005" lon="6.897">
        <ele>773</ele>
        <time>2016-06-18T18:57:54Z</time>
      </trkpt>
      <trkpt lat="47.89005" lon="6.89685">
        <ele>771</ele>
        <time>2016-06-18T18:58:00Z</time>
      </trkpt>
      <trkpt lat="47.88996" lon="6.89662">
        <ele>761</ele>
        <time>2016-06-18T18:58:10Z</time>
      </trkpt>
      <trkpt lat="47.88995" lon="6.89653">
        <ele>761</ele>
        <time>2016-06-18T18:58:13Z</time>
      </trkpt>
      <trkpt lat="47.8899" lon="6.89643">
        <ele>760</ele>
        <time>2016-06-18T18:58:23Z</time>
      </trkpt>
      <trkpt lat="47.88984" lon="6.89645">
        <ele>760</ele>
        <time>2016-06-18T18:58:27Z</time>
      </trkpt>
      <trkpt lat="47.8898" lon="6.89649">
        <ele>760</ele>
        <time>2016-06-18T18:58:33Z</time>
      </trkpt>
      <trkpt lat="47.88973" lon="6.89658">
        <ele>761</ele>
        <time>2016-06-18T18:58:46Z</time>
      </trkpt>
      <trkpt lat="47.88963" lon="6.89648">
        <ele>760</ele>
        <time>2016-06-18T18:58:50Z</time>
      </trkpt>
      <trkpt lat="47.8896" lon="6.89635">
        <ele>760</ele>
        <time>2016-06-18T18:58:58Z</time>
      </trkpt>
      <trkpt lat="47.88962" lon="6.89629">
        <ele>760</ele>
        <time>2016-06-18T18:59:04Z</time>
      </trkpt>
      <trkpt lat="47.88957" lon="6.89623">
        <ele>760</ele>
        <time>2016-06-18T18:59:14Z</time>
      </trkpt>
      <trkpt lat="47.88952" lon="6.89619">
        <ele>760</ele>
        <time>2016-06-18T18:59:17Z</time>
      </trkpt>
      <trkpt lat="47.88947" lon="6.8962">
        <ele>760</ele>
        <time>2016-06-18T18:59:34Z</time>
      </trkpt>
      <trkpt lat="47.88953" lon="6.89619">
        <ele>760</ele>
        <time>2016-06-18T19:04:10Z</time>
      </trkpt>
      <trkpt lat="47.8895" lon="6.89622">
        <ele>760</ele>
        <time>2016-06-18T19:05:49Z</time>
      </trkpt>
      <trkpt lat="47.88945" lon="6.89627">
        <ele>760</ele>
        <time>2016-06-18T19:05:55Z</time>
      </trkpt>
      <trkpt lat="47.88947" lon="6.89642">
        <ele>760</ele>
        <time>2016-06-18T19:06:08Z</time>
      </trkpt>
      <trkpt lat="47.88948" lon="6.89635">
        <ele>760</ele>
        <time>2016-06-18T19:06:18Z</time>
      </trkpt>
      <trkpt lat="47.88948" lon="6.89628">
        <ele>760</ele>
        <time>2016-06-18T19:06:35Z</time>
      </trkpt>
      <trkpt lat="47.88944" lon="6.89625">
        <ele>760</ele>
        <time>2016-06-18T19:06:41Z</time>
      </trkpt>
      <trkpt lat="47.88938" lon="6.89627">
        <ele>760</ele>
        <time>2016-06-18T19:06:46Z</time>
      </trkpt>
      <trkpt lat="47.88932" lon="6.89637">
        <ele>760</ele>
        <time>2016-06-18T19:06:58Z</time>
      </trkpt>
      <trkpt lat="47.88933" lon="6.89645">
        <ele>761</ele>
        <time>2016-06-18T19:07:09Z</time>
      </trkpt>
      <trkpt lat="47.88938" lon="6.89656">
        <ele>761</ele>
        <time>2016-06-18T19:07:24Z</time>
      </trkpt>
      <trkpt lat="47.88933" lon="6.89674">
        <ele>763</ele>
        <time>2016-06-18T19:07:34Z</time>
      </trkpt>
      <trkpt lat="47.88936" lon="6.89693">
        <ele>764</ele>
        <time>2016-06-18T19:07:48Z</time>
      </trkpt>
      <trkpt lat="47.88935" lon="6.89716">
        <ele>766</ele>
        <time>2016-06-18T19:08:01Z</time>
      </trkpt>
      <trkpt lat="47.88937" lon="6.89722">
        <ele>767</ele>
        <time>2016-06-18T19:08:08Z</time>
      </trkpt>
      <trkpt lat="47.88931" lon="6.89737">
        <ele>769</ele>
        <time>2016-06-18T19:08:20Z</time>
      </trkpt>
      <trkpt lat="47.88927" lon="6.8975">
        <ele>770</ele>
        <time>2016-06-18T19:08:31Z</time>
      </trkpt>
      <trkpt lat="47.88926" lon="6.89764">
        <ele>768</ele>
        <time>2016-06-18T19:08:42Z</time>
      </trkpt>
      <trkpt lat="47.88919" lon="6.89786">
        <ele>765</ele>
        <time>2016-06-18T19:08:56Z</time>
      </trkpt>
      <trkpt lat="47.88918" lon="6.89794">
        <ele>764</ele>
        <time>2016-06-18T19:09:03Z</time>
      </trkpt>
      <trkpt lat="47.88917" lon="6.89801">
        <ele>764</ele>
        <time>2016-06-18T19:09:13Z</time>
      </trkpt>
      <trkpt lat="47.88905" lon="6.89826">
        <ele>777</ele>
        <time>2016-06-18T19:09:25Z</time>
      </trkpt>
      <trkpt lat="47.88905" lon="6.89843">
        <ele>774</ele>
        <time>2016-06-18T19:09:35Z</time>
      </trkpt>
      <trkpt lat="47.88904" lon="6.8985">
        <ele>776</ele>
        <time>2016-06-18T19:09:38Z</time>
      </trkpt>
      <trkpt lat="47.88901" lon="6.89872">
        <ele>778</ele>
        <time>2016-06-18T19:09:51Z</time>
      </trkpt>
      <trkpt lat="47.88893" lon="6.89893">
        <ele>777</ele>
        <time>2016-06-18T19:10:01Z</time>
      </trkpt>
      <trkpt lat="47.88889" lon="6.89916">
        <ele>775</ele>
        <time>2016-06-18T19:10:11Z</time>
      </trkpt>
      <trkpt lat="47.88883" lon="6.89946">
        <ele>769</ele>
        <time>2016-06-18T19:10:23Z</time>
      </trkpt>
      <trkpt lat="47.88882" lon="6.89953">
        <ele>769</ele>
        <time>2016-06-18T19:10:26Z</time>
      </trkpt>
      <trkpt lat="47.88875" lon="6.89981">
        <ele>768</ele>
        <time>2016-06-18T19:10:37Z</time>
      </trkpt>
      <trkpt lat="47.88869" lon="6.90012">
        <ele>760</ele>
        <time>2016-06-18T19:10:49Z</time>
      </trkpt>
      <trkpt lat="47.88862" lon="6.90024">
        <ele>762</ele>
        <time>2016-06-18T19:11:00Z</time>
      </trkpt>
      <trkpt lat="47.88859" lon="6.90038">
        <ele>760</ele>
        <time>2016-06-18T19:11:13Z</time>
      </trkpt>
      <trkpt lat="47.88856" lon="6.90046">
        <ele>761</ele>
        <time>2016-06-18T19:11:27Z</time>
      </trkpt>
      <trkpt lat="47.88847" lon="6.90084">
        <ele>761</ele>
        <time>2016-06-18T19:11:38Z</time>
      </trkpt>
      <trkpt lat="47.88843" lon="6.90089">
        <ele>763</ele>
        <time>2016-06-18T19:11:41Z</time>
      </trkpt>
      <trkpt lat="47.88843" lon="6.90099">
        <ele>757</ele>
        <time>2016-06-18T19:11:44Z</time>
      </trkpt>
      <trkpt lat="47.88834" lon="6.90125">
        <ele>747</ele>
        <time>2016-06-18T19:11:57Z</time>
      </trkpt>
      <trkpt lat="47.88833" lon="6.90132">
        <ele>774</ele>
        <time>2016-06-18T19:12:11Z</time>
      </trkpt>
      <trkpt lat="47.88823" lon="6.90147">
        <ele>770</ele>
        <time>2016-06-18T19:12:21Z</time>
      </trkpt>
      <trkpt lat="47.88817" lon="6.90161">
        <ele>767</ele>
        <time>2016-06-18T19:12:31Z</time>
      </trkpt>
      <trkpt lat="47.88807" lon="6.90179">
        <ele>760</ele>
        <time>2016-06-18T19:12:42Z</time>
      </trkpt>
      <trkpt lat="47.88797" lon="6.90197">
        <ele>762</ele>
        <time>2016-06-18T19:12:54Z</time>
      </trkpt>
      <trkpt lat="47.88788" lon="6.90213">
        <ele>762</ele>
        <time>2016-06-18T19:13:05Z</time>
      </trkpt>
      <trkpt lat="47.88784" lon="6.9021">
        <ele>764</ele>
        <time>2016-06-18T19:13:11Z</time>
      </trkpt>
      <trkpt lat="47.8878" lon="6.90215">
        <ele>765</ele>
        <time>2016-06-18T19:13:18Z</time>
      </trkpt>
      <trkpt lat="47.8877" lon="6.90235">
        <ele>767</ele>
        <time>2016-06-18T19:13:30Z</time>
      </trkpt>
      <trkpt lat="47.88761" lon="6.90245">
        <ele>772</ele>
        <time>2016-06-18T19:13:40Z</time>
      </trkpt>
      <trkpt lat="47.88762" lon="6.90252">
        <ele>767</ele>
        <time>2016-06-18T19:13:43Z</time>
      </trkpt>
      <trkpt lat="47.8876" lon="6.90261">
        <ele>765</ele>
        <time>2016-06-18T19:13:49Z</time>
      </trkpt>
      <trkpt lat="47.88758" lon="6.90275">
        <ele>760</ele>
        <time>2016-06-18T19:13:58Z</time>
      </trkpt>
      <trkpt lat="47.88752" lon="6.90287">
        <ele>758</ele>
        <time>2016-06-18T19:14:09Z</time>
      </trkpt>
      <trkpt lat="47.88747" lon="6.90309">
        <ele>793</ele>
        <time>2016-06-18T19:14:19Z</time>
      </trkpt>
      <trkpt lat="47.88744" lon="6.90316">
        <ele>790</ele>
        <time>2016-06-18T19:14:24Z</time>
      </trkpt>
      <trkpt lat="47.8874" lon="6.90331">
        <ele>784</ele>
        <time>2016-06-18T19:14:34Z</time>
      </trkpt>
      <trkpt lat="47.8874" lon="6.90339">
        <ele>783</ele>
        <time>2016-06-18T19:14:39Z</time>
      </trkpt>
      <trkpt lat="47.88735" lon="6.90358">
        <ele>793</ele>
        <time>2016-06-18T19:14:49Z</time>
      </trkpt>
      <trkpt lat="47.88733" lon="6.90376">
        <ele>795</ele>
        <time>2016-06-18T19:14:56Z</time>
      </trkpt>
      <trkpt lat="47.88731" lon="6.90382">
        <ele>795</ele>
        <time>2016-06-18T19:15:00Z</time>
      </trkpt>
      <trkpt lat="47.88729" lon="6.90389">
        <ele>795</ele>
        <time>2016-06-18T19:15:04Z</time>
      </trkpt>
      <trkpt lat="47.8873" lon="6.90412">
        <ele>788</ele>
        <time>2016-06-18T19:15:15Z</time>
      </trkpt>
      <trkpt lat="47.88726" lon="6.90428">
        <ele>787</ele>
        <time>2016-06-18T19:15:24Z</time>
      </trkpt>
      <trkpt lat="47.88718" lon="6.90449">
        <ele>794</ele>
        <time>2016-06-18T19:15:36Z</time>
      </trkpt>
      <trkpt lat="47.88718" lon="6.90469">
        <ele>792</ele>
        <time>2016-06-18T19:15:46Z</time>
      </trkpt>
      <trkpt lat="47.88717" lon="6.90494">
        <ele>790</ele>
        <time>2016-06-18T19:15:58Z</time>
      </trkpt>
      <trkpt lat="47.88714" lon="6.90509">
        <ele>787</ele>
        <time>2016-06-18T19:16:08Z</time>
      </trkpt>
      <trkpt lat="47.88713" lon="6.90516">
        <ele>788</ele>
        <time>2016-06-18T19:16:12Z</time>
      </trkpt>
      <trkpt lat="47.88712" lon="6.90533">
        <ele>788</ele>
        <time>2016-06-18T19:16:24Z</time>
      </trkpt>
      <trkpt lat="47.88712" lon="6.90561">
        <ele>787</ele>
        <time>2016-06-18T19:16:36Z</time>
      </trkpt>
      <trkpt lat="47.88711" lon="6.9057">
        <ele>787</ele>
        <time>2016-06-18T19:16:40Z</time>
      </trkpt>
      <trkpt lat="47.88709" lon="6.90594">
        <ele>784</ele>
        <time>2016-06-18T19:16:51Z</time>
      </trkpt>
      <trkpt lat="47.8871" lon="6.90603">
        <ele>784</ele>
        <time>2016-06-18T19:16:55Z</time>
      </trkpt>
      <trkpt lat="47.88709" lon="6.9061">
        <ele>784</ele>
        <time>2016-06-18T19:17:00Z</time>
      </trkpt>
      <trkpt lat="47.88703" lon="6.90638">
        <ele>786</ele>
        <time>2016-06-18T19:17:14Z</time>
      </trkpt>
      <trkpt lat="47.88702" lon="6.90644">
        <ele>787</ele>
        <time>2016-06-18T19:17:19Z</time>
      </trkpt>
      <trkpt lat="47.88708" lon="6.90667">
        <ele>777</ele>
        <time>2016-06-18T19:17:31Z</time>
      </trkpt>
      <trkpt lat="47.88706" lon="6.90674">
        <ele>778</ele>
        <time>2016-06-18T19:17:33Z</time>
      </trkpt>
      <trkpt lat="47.88702" lon="6.90677">
        <ele>781</ele>
        <time>2016-06-18T19:17:35Z</time>
      </trkpt>
      <trkpt lat="47.88701" lon="6.90699">
        <ele>779</ele>
        <time>2016-06-18T19:17:45Z</time>
      </trkpt>
      <trkpt lat="47.88699" lon="6.90706">
        <ele>779</ele>
        <time>2016-06-18T19:17:48Z</time>
      </trkpt>
      <trkpt lat="47.88693" lon="6.90724">
        <ele>781</ele>
        <time>2016-06-18T19:17:58Z</time>
      </trkpt>
      <trkpt lat="47.88691" lon="6.90732">
        <ele>783</ele>
        <time>2016-06-18T19:18:02Z</time>
      </trkpt>
      <trkpt lat="47.88685" lon="6.90755">
        <ele>782</ele>
        <time>2016-06-18T19:18:16Z</time>
      </trkpt>
      <trkpt lat="47.8868" lon="6.90776">
        <ele>777</ele>
        <time>2016-06-18T19:18:30Z</time>
      </trkpt>
      <trkpt lat="47.88676" lon="6.90788">
        <ele>775</ele>
        <time>2016-06-18T19:18:40Z</time>
      </trkpt>
      <trkpt lat="47.8867" lon="6.90801">
        <ele>775</ele>
        <time>2016-06-18T19:18:50Z</time>
      </trkpt>
      <trkpt lat="47.88665" lon="6.90825">
        <ele>802</ele>
        <time>2016-06-18T19:19:01Z</time>
      </trkpt>
      <trkpt lat="47.8866" lon="6.90847">
        <ele>799</ele>
        <time>2016-06-18T19:19:11Z</time>
      </trkpt>
      <trkpt lat="47.8866" lon="6.90854">
        <ele>800</ele>
        <time>2016-06-18T19:19:14Z</time>
      </trkpt>
      <trkpt lat="47.88654" lon="6.90867">
        <ele>802</ele>
        <time>2016-06-18T19:19:24Z</time>
      </trkpt>
      <trkpt lat="47.88649" lon="6.90887">
        <ele>800</ele>
        <time>2016-06-18T19:19:38Z</time>
      </trkpt>
      <trkpt lat="47.88642" lon="6.90905">
        <ele>798</ele>
        <time>2016-06-18T19:19:51Z</time>
      </trkpt>
      <trkpt lat="47.88633" lon="6.90925">
        <ele>789</ele>
        <time>2016-06-18T19:20:15Z</time>
      </trkpt>
      <trkpt lat="47.8862" lon="6.90942">
        <ele>793</ele>
        <time>2016-06-18T19:20:25Z</time>
      </trkpt>
      <trkpt lat="47.88609" lon="6.90962">
        <ele>794</ele>
        <time>2016-06-18T19:20:35Z</time>
      </trkpt>
      <trkpt lat="47.886" lon="6.90982">
        <ele>796</ele>
        <time>2016-06-18T19:20:47Z</time>
      </trkpt>
      <trkpt lat="47.88589" lon="6.90999">
        <ele>802</ele>
        <time>2016-06-18T19:20:59Z</time>
      </trkpt>
      <trkpt lat="47.88585" lon="6.91015">
        <ele>791</ele>
        <time>2016-06-18T19:21:08Z</time>
      </trkpt>
      <trkpt lat="47.88579" lon="6.91036">
        <ele>817</ele>
        <time>2016-06-18T19:21:18Z</time>
      </trkpt>
      <trkpt lat="47.8857" lon="6.91054">
        <ele>815</ele>
        <time>2016-06-18T19:21:28Z</time>
      </trkpt>
      <trkpt lat="47.88565" lon="6.91076">
        <ele>810</ele>
        <time>2016-06-18T19:21:39Z</time>
      </trkpt>
      <trkpt lat="47.88564" lon="6.91099">
        <ele>808</ele>
        <time>2016-06-18T19:21:51Z</time>
      </trkpt>
      <trkpt lat="47.88563" lon="6.91107">
        <ele>810</ele>
        <time>2016-06-18T19:21:55Z</time>
      </trkpt>
      <trkpt lat="47.88558" lon="6.91127">
        <ele>813</ele>
        <time>2016-06-18T19:22:08Z</time>
      </trkpt>
      <trkpt lat="47.88563" lon="6.91148">
        <ele>808</ele>
        <time>2016-06-18T19:22:24Z</time>
      </trkpt>
      <trkpt lat="47.88558" lon="6.91163">
        <ele>808</ele>
        <time>2016-06-18T19:22:34Z</time>
      </trkpt>
      <trkpt lat="47.88554" lon="6.91186">
        <ele>809</ele>
        <time>2016-06-18T19:22:47Z</time>
      </trkpt>
      <trkpt lat="47.88558" lon="6.91206">
        <ele>808</ele>
        <time>2016-06-18T19:22:58Z</time>
      </trkpt>
      <trkpt lat="47.88559" lon="6.91226">
        <ele>806</ele>
        <time>2016-06-18T19:23:08Z</time>
      </trkpt>
      <trkpt lat="47.88559" lon="6.91233">
        <ele>804</ele>
        <time>2016-06-18T19:23:15Z</time>
      </trkpt>
      <trkpt lat="47.88551" lon="6.91254">
        <ele>802</ele>
        <time>2016-06-18T19:23:27Z</time>
      </trkpt>
      <trkpt lat="47.88552" lon="6.91262">
        <ele>802</ele>
        <time>2016-06-18T19:23:31Z</time>
      </trkpt>
      <trkpt lat="47.8855" lon="6.91277">
        <ele>802</ele>
        <time>2016-06-18T19:23:40Z</time>
      </trkpt>
      <trkpt lat="47.88547" lon="6.91298">
        <ele>802</ele>
        <time>2016-06-18T19:23:54Z</time>
      </trkpt>
      <trkpt lat="47.88542" lon="6.91321">
        <ele>802</ele>
        <time>2016-06-18T19:24:08Z</time>
      </trkpt>
      <trkpt lat="47.88535" lon="6.91342">
        <ele>793</ele>
        <time>2016-06-18T19:24:19Z</time>
      </trkpt>
      <trkpt lat="47.88534" lon="6.91358">
        <ele>791</ele>
        <time>2016-06-18T19:24:29Z</time>
      </trkpt>
      <trkpt lat="47.88533" lon="6.91366">
        <ele>790</ele>
        <time>2016-06-18T19:24:32Z</time>
      </trkpt>
      <trkpt lat="47.88533" lon="6.91382">
        <ele>787</ele>
        <time>2016-06-18T19:24:37Z</time>
      </trkpt>
      <trkpt lat="47.88531" lon="6.91398">
        <ele>785</ele>
        <time>2016-06-18T19:24:44Z</time>
      </trkpt>
      <trkpt lat="47.88523" lon="6.91406">
        <ele>787</ele>
        <time>2016-06-18T19:24:54Z</time>
      </trkpt>
      <trkpt lat="47.88517" lon="6.91405">
        <ele>788</ele>
        <time>2016-06-18T19:25:14Z</time>
      </trkpt>
      <trkpt lat="47.88507" lon="6.91406">
        <ele>789</ele>
        <time>2016-06-18T19:25:26Z</time>
      </trkpt>
      <trkpt lat="47.88502" lon="6.91408">
        <ele>789</ele>
        <time>2016-06-18T19:25:38Z</time>
      </trkpt>
      <trkpt lat="47.88489" lon="6.91412">
        <ele>799</ele>
        <time>2016-06-18T19:25:53Z</time>
      </trkpt>
      <trkpt lat="47.88485" lon="6.91403">
        <ele>803</ele>
        <time>2016-06-18T19:25:57Z</time>
      </trkpt>
      <trkpt lat="47.88472" lon="6.91413">
        <ele>805</ele>
        <time>2016-06-18T19:26:09Z</time>
      </trkpt>
      <trkpt lat="47.88467" lon="6.91413">
        <ele>807</ele>
        <time>2016-06-18T19:26:24Z</time>
      </trkpt>
      <trkpt lat="47.88469" lon="6.91407">
        <ele>807</ele>
        <time>2016-06-18T19:26:39Z</time>
      </trkpt>
      <trkpt lat="47.88468" lon="6.91401">
        <ele>808</ele>
        <time>2016-06-18T19:26:47Z</time>
      </trkpt>
      <trkpt lat="47.88454" lon="6.91395">
        <ele>811</ele>
        <time>2016-06-18T19:27:03Z</time>
      </trkpt>
      <trkpt lat="47.88446" lon="6.91405">
        <ele>810</ele>
        <time>2016-06-18T19:27:13Z</time>
      </trkpt>
      <trkpt lat="47.88436" lon="6.91409">
        <ele>810</ele>
        <time>2016-06-18T19:27:24Z</time>
      </trkpt>
      <trkpt lat="47.88431" lon="6.91412">
        <ele>809</ele>
        <time>2016-06-18T19:27:38Z</time>
      </trkpt>
      <trkpt lat="47.88427" lon="6.91413">
        <ele>808</ele>
        <time>2016-06-18T19:28:03Z</time>
      </trkpt>
      <trkpt lat="47.88418" lon="6.91404">
        <ele>809</ele>
        <time>2016-06-18T19:28:15Z</time>
      </trkpt>
      <trkpt lat="47.88409" lon="6.91398">
        <ele>819</ele>
        <time>2016-06-18T19:28:31Z</time>
      </trkpt>
      <trkpt lat="47.88399" lon="6.91393">
        <ele>822</ele>
        <time>2016-06-18T19:28:43Z</time>
      </trkpt>
      <trkpt lat="47.88394" lon="6.91395">
        <ele>823</ele>
        <time>2016-06-18T19:28:48Z</time>
      </trkpt>
      <trkpt lat="47.88379" lon="6.91402">
        <ele>824</ele>
        <time>2016-06-18T19:29:02Z</time>
      </trkpt>
      <trkpt lat="47.88364" lon="6.91412">
        <ele>825</ele>
        <time>2016-06-18T19:29:13Z</time>
      </trkpt>
      <trkpt lat="47.88351" lon="6.9142">
        <ele>812</ele>
        <time>2016-06-18T19:29:23Z</time>
      </trkpt>
      <trkpt lat="47.88342" lon="6.91429">
        <ele>813</ele>
        <time>2016-06-18T19:29:29Z</time>
      </trkpt>
      <trkpt lat="47.88332" lon="6.91443">
        <ele>822</ele>
        <time>2016-06-18T19:29:39Z</time>
      </trkpt>
      <trkpt lat="47.88328" lon="6.91449">
        <ele>821</ele>
        <time>2016-06-18T19:29:42Z</time>
      </trkpt>
      <trkpt lat="47.88324" lon="6.91454">
        <ele>820</ele>
        <time>2016-06-18T19:29:45Z</time>
      </trkpt>
      <trkpt lat="47.88321" lon="6.91459">
        <ele>820</ele>
        <time>2016-06-18T19:29:48Z</time>
      </trkpt>
      <trkpt lat="47.88314" lon="6.91473">
        <ele>818</ele>
        <time>2016-06-18T19:29:59Z</time>
      </trkpt>
      <trkpt lat="47.88305" lon="6.9148">
        <ele>818</ele>
        <time>2016-06-18T19:30:11Z</time>
      </trkpt>
      <trkpt lat="47.88294" lon="6.91485">
        <ele>819</ele>
        <time>2016-06-18T19:30:23Z</time>
      </trkpt>
      <trkpt lat="47.88289" lon="6.91491">
        <ele>819</ele>
        <time>2016-06-18T19:30:30Z</time>
      </trkpt>
      <trkpt lat="47.8827" lon="6.91505">
        <ele>808</ele>
        <time>2016-06-18T19:30:43Z</time>
      </trkpt>
      <trkpt lat="47.88265" lon="6.91508">
        <ele>810</ele>
        <time>2016-06-18T19:30:47Z</time>
      </trkpt>
      <trkpt lat="47.8825" lon="6.9152">
        <ele>809</ele>
        <time>2016-06-18T19:30:59Z</time>
      </trkpt>
      <trkpt lat="47.88242" lon="6.91528">
        <ele>818</ele>
        <time>2016-06-18T19:31:10Z</time>
      </trkpt>
      <trkpt lat="47.88232" lon="6.91526">
        <ele>819</ele>
        <time>2016-06-18T19:31:24Z</time>
      </trkpt>
      <trkpt lat="47.88216" lon="6.91529">
        <ele>821</ele>
        <time>2016-06-18T19:31:34Z</time>
      </trkpt>
      <trkpt lat="47.88202" lon="6.91538">
        <ele>821</ele>
        <time>2016-06-18T19:31:44Z</time>
      </trkpt>
      <trkpt lat="47.88186" lon="6.91547">
        <ele>822</ele>
        <time>2016-06-18T19:31:57Z</time>
      </trkpt>
      <trkpt lat="47.88172" lon="6.91555">
        <ele>822</ele>
        <time>2016-06-18T19:32:08Z</time>
      </trkpt>
      <trkpt lat="47.88158" lon="6.91561">
        <ele>835</ele>
        <time>2016-06-18T19:32:19Z</time>
      </trkpt>
      <trkpt lat="47.88152" lon="6.91572">
        <ele>833</ele>
        <time>2016-06-18T19:32:24Z</time>
      </trkpt>
      <trkpt lat="47.8815" lon="6.91597">
        <ele>823</ele>
        <time>2016-06-18T19:32:36Z</time>
      </trkpt>
      <trkpt lat="47.88144" lon="6.9161">
        <ele>823</ele>
        <time>2016-06-18T19:32:44Z</time>
      </trkpt>
      <trkpt lat="47.88141" lon="6.91616">
        <ele>823</ele>
        <time>2016-06-18T19:32:48Z</time>
      </trkpt>
      <trkpt lat="47.88139" lon="6.91624">
        <ele>823</ele>
        <time>2016-06-18T19:32:53Z</time>
      </trkpt>
      <trkpt lat="47.88135" lon="6.91639">
        <ele>821</ele>
        <time>2016-06-18T19:33:04Z</time>
      </trkpt>
      <trkpt lat="47.88124" lon="6.91657">
        <ele>821</ele>
        <time>2016-06-18T19:33:17Z</time>
      </trkpt>
      <trkpt lat="47.88117" lon="6.91678">
        <ele>808</ele>
        <time>2016-06-18T19:33:30Z</time>
      </trkpt>
      <trkpt lat="47.88115" lon="6.91685">
        <ele>807</ele>
        <time>2016-06-18T19:33:35Z</time>
      </trkpt>
      <trkpt lat="47.88103" lon="6.91695">
        <ele>807</ele>
        <time>2016-06-18T19:33:47Z</time>
      </trkpt>
      <trkpt lat="47.88094" lon="6.91703">
        <ele>806</ele>
        <time>2016-06-18T19:33:59Z</time>
      </trkpt>
      <trkpt lat="47.88079" lon="6.91708">
        <ele>807</ele>
        <time>2016-06-18T19:34:12Z</time>
      </trkpt>
      <trkpt lat="47.88073" lon="6.91711">
        <ele>805</ele>
        <time>2016-06-18T19:34:16Z</time>
      </trkpt>
      <trkpt lat="47.88066" lon="6.91712">
        <ele>805</ele>
        <time>2016-06-18T19:34:20Z</time>
      </trkpt>
      <trkpt lat="47.88052" lon="6.91711">
        <ele>804</ele>
        <time>2016-06-18T19:34:32Z</time>
      </trkpt>
      <trkpt lat="47.88044" lon="6.91702">
        <ele>805</ele>
        <time>2016-06-18T19:34:42Z</time>
      </trkpt>
      <trkpt lat="47.88032" lon="6.9169">
        <ele>806</ele>
        <time>2016-06-18T19:34:56Z</time>
      </trkpt>
      <trkpt lat="47.88021" lon="6.91678">
        <ele>807</ele>
        <time>2016-06-18T19:35:09Z</time>
      </trkpt>
      <trkpt lat="47.88015" lon="6.91674">
        <ele>807</ele>
        <time>2016-06-18T19:35:13Z</time>
      </trkpt>
      <trkpt lat="47.8801" lon="6.91673">
        <ele>807</ele>
        <time>2016-06-18T19:35:17Z</time>
      </trkpt>
      <trkpt lat="47.87999" lon="6.9166">
        <ele>808</ele>
        <time>2016-06-18T19:35:29Z</time>
      </trkpt>
      <trkpt lat="47.8799" lon="6.91651">
        <ele>807</ele>
        <time>2016-06-18T19:35:39Z</time>
      </trkpt>
      <trkpt lat="47.87986" lon="6.91648">
        <ele>806</ele>
        <time>2016-06-18T19:35:43Z</time>
      </trkpt>
      <trkpt lat="47.87982" lon="6.91642">
        <ele>806</ele>
        <time>2016-06-18T19:35:46Z</time>
      </trkpt>
      <trkpt lat="47.8797" lon="6.91629">
        <ele>805</ele>
        <time>2016-06-18T19:35:57Z</time>
      </trkpt>
      <trkpt lat="47.87959" lon="6.91615">
        <ele>805</ele>
        <time>2016-06-18T19:36:13Z</time>
      </trkpt>
      <trkpt lat="47.87955" lon="6.91611">
        <ele>804</ele>
        <time>2016-06-18T19:36:17Z</time>
      </trkpt>
      <trkpt lat="47.87951" lon="6.91597">
        <ele>805</ele>
        <time>2016-06-18T19:36:28Z</time>
      </trkpt>
      <trkpt lat="47.87947" lon="6.91584">
        <ele>804</ele>
        <time>2016-06-18T19:36:39Z</time>
      </trkpt>
      <trkpt lat="47.87944" lon="6.91562">
        <ele>813</ele>
        <time>2016-06-18T19:36:51Z</time>
      </trkpt>
      <trkpt lat="47.87945" lon="6.91538">
        <ele>815</ele>
        <time>2016-06-18T19:37:04Z</time>
      </trkpt>
      <trkpt lat="47.87948" lon="6.91518">
        <ele>816</ele>
        <time>2016-06-18T19:37:17Z</time>
      </trkpt>
      <trkpt lat="47.87947" lon="6.91494">
        <ele>824</ele>
        <time>2016-06-18T19:37:32Z</time>
      </trkpt>
      <trkpt lat="47.87947" lon="6.9148">
        <ele>825</ele>
        <time>2016-06-18T19:37:41Z</time>
      </trkpt>
      <trkpt lat="47.87944" lon="6.9146">
        <ele>827</ele>
        <time>2016-06-18T19:37:52Z</time>
      </trkpt>
      <trkpt lat="47.87943" lon="6.91453">
        <ele>827</ele>
        <time>2016-06-18T19:37:55Z</time>
      </trkpt>
      <trkpt lat="47.87943" lon="6.91439">
        <ele>828</ele>
        <time>2016-06-18T19:38:04Z</time>
      </trkpt>
      <trkpt lat="47.87942" lon="6.91416">
        <ele>834</ele>
        <time>2016-06-18T19:38:18Z</time>
      </trkpt>
      <trkpt lat="47.87943" lon="6.91395">
        <ele>836</ele>
        <time>2016-06-18T19:38:32Z</time>
      </trkpt>
      <trkpt lat="47.87945" lon="6.91389">
        <ele>838</ele>
        <time>2016-06-18T19:38:37Z</time>
      </trkpt>
      <trkpt lat="47.87945" lon="6.91382">
        <ele>839</ele>
        <time>2016-06-18T19:38:41Z</time>
      </trkpt>
      <trkpt lat="47.87944" lon="6.91358">
        <ele>840</ele>
        <time>2016-06-18T19:38:54Z</time>
      </trkpt>
      <trkpt lat="47.87943" lon="6.91343">
        <ele>839</ele>
        <time>2016-06-18T19:39:04Z</time>
      </trkpt>
      <trkpt lat="47.87945" lon="6.91321">
        <ele>846</ele>
        <time>2016-06-18T19:39:17Z</time>
      </trkpt>
      <trkpt lat="47.87944" lon="6.91314">
        <ele>846</ele>
        <time>2016-06-18T19:39:23Z</time>
      </trkpt>
      <trkpt lat="47.87944" lon="6.913">
        <ele>848</ele>
        <time>2016-06-18T19:39:35Z</time>
      </trkpt>
      <trkpt lat="47.87943" lon="6.91284">
        <ele>848</ele>
        <time>2016-06-18T19:39:46Z</time>
      </trkpt>
      <trkpt lat="47.87943" lon="6.91261">
        <ele>847</ele>
        <time>2016-06-18T19:40:00Z</time>
      </trkpt>
      <trkpt lat="47.87942" lon="6.91238">
        <ele>851</ele>
        <time>2016-06-18T19:40:10Z</time>
      </trkpt>
      <trkpt lat="47.87941" lon="6.91216">
        <ele>854</ele>
        <time>2016-06-18T19:40:22Z</time>
      </trkpt>
      <trkpt lat="47.87938" lon="6.91193">
        <ele>853</ele>
        <time>2016-06-18T19:40:34Z</time>
      </trkpt>
      <trkpt lat="47.87936" lon="6.91172">
        <ele>849</ele>
        <time>2016-06-18T19:40:45Z</time>
      </trkpt>
      <trkpt lat="47.87935" lon="6.91157">
        <ele>854</ele>
        <time>2016-06-18T19:40:55Z</time>
      </trkpt>
      <trkpt lat="47.87932" lon="6.91137">
        <ele>858</ele>
        <time>2016-06-18T19:41:09Z</time>
      </trkpt>
      <trkpt lat="47.87924" lon="6.91107">
        <ele>858</ele>
        <time>2016-06-18T19:41:21Z</time>
      </trkpt>
      <trkpt lat="47.87916" lon="6.91085">
        <ele>846</ele>
        <time>2016-06-18T19:41:35Z</time>
      </trkpt>
      <trkpt lat="47.87914" lon="6.91063">
        <ele>848</ele>
        <time>2016-06-18T19:41:49Z</time>
      </trkpt>
      <trkpt lat="47.87912" lon="6.91057">
        <ele>848</ele>
        <time>2016-06-18T19:41:53Z</time>
      </trkpt>
      <trkpt lat="47.87909" lon="6.9105">
        <ele>848</ele>
        <time>2016-06-18T19:41:57Z</time>
      </trkpt>
      <trkpt lat="47.87897" lon="6.91036">
        <ele>849</ele>
        <time>2016-06-18T19:42:10Z</time>
      </trkpt>
      <trkpt lat="47.87884" lon="6.91024">
        <ele>850</ele>
        <time>2016-06-18T19:42:21Z</time>
      </trkpt>
      <trkpt lat="47.87879" lon="6.91022">
        <ele>849</ele>
        <time>2016-06-18T19:42:25Z</time>
      </trkpt>
      <trkpt lat="47.8786" lon="6.91017">
        <ele>850</ele>
        <time>2016-06-18T19:42:38Z</time>
      </trkpt>
      <trkpt lat="47.8784" lon="6.91018">
        <ele>850</ele>
        <time>2016-06-18T19:42:50Z</time>
      </trkpt>
      <trkpt lat="47.87835" lon="6.9102">
        <ele>850</ele>
        <time>2016-06-18T19:42:54Z</time>
      </trkpt>
      <trkpt lat="47.87828" lon="6.91032">
        <ele>861</ele>
        <time>2016-06-18T19:43:04Z</time>
      </trkpt>
      <trkpt lat="47.87812" lon="6.91053">
        <ele>862</ele>
        <time>2016-06-18T19:43:17Z</time>
      </trkpt>
      <trkpt lat="47.87801" lon="6.91071">
        <ele>863</ele>
        <time>2016-06-18T19:43:31Z</time>
      </trkpt>
      <trkpt lat="47.8779" lon="6.91088">
        <ele>856</ele>
        <time>2016-06-18T19:43:43Z</time>
      </trkpt>
      <trkpt lat="47.8778" lon="6.91105">
        <ele>859</ele>
        <time>2016-06-18T19:43:56Z</time>
      </trkpt>
      <trkpt lat="47.87771" lon="6.91122">
        <ele>858</ele>
        <time>2016-06-18T19:44:09Z</time>
      </trkpt>
      <trkpt lat="47.87763" lon="6.91141">
        <ele>858</ele>
        <time>2016-06-18T19:44:22Z</time>
      </trkpt>
      <trkpt lat="47.87758" lon="6.91153">
        <ele>859</ele>
        <time>2016-06-18T19:44:32Z</time>
      </trkpt>
      <trkpt lat="47.87746" lon="6.91168">
        <ele>867</ele>
        <time>2016-06-18T19:44:47Z</time>
      </trkpt>
      <trkpt lat="47.87735" lon="6.91186">
        <ele>876</ele>
        <time>2016-06-18T19:44:57Z</time>
      </trkpt>
      <trkpt lat="47.87733" lon="6.91209">
        <ele>876</ele>
        <time>2016-06-18T19:45:09Z</time>
      </trkpt>
      <trkpt lat="47.87733" lon="6.91232">
        <ele>869</ele>
        <time>2016-06-18T19:45:21Z</time>
      </trkpt>
      <trkpt lat="47.87725" lon="6.91252">
        <ele>863</ele>
        <time>2016-06-18T19:45:33Z</time>
      </trkpt>
      <trkpt lat="47.87723" lon="6.91267">
        <ele>865</ele>
        <time>2016-06-18T19:45:42Z</time>
      </trkpt>
      <trkpt lat="47.8772" lon="6.91289">
        <ele>867</ele>
        <time>2016-06-18T19:45:55Z</time>
      </trkpt>
      <trkpt lat="47.87714" lon="6.91309">
        <ele>868</ele>
        <time>2016-06-18T19:46:06Z</time>
      </trkpt>
      <trkpt lat="47.87713" lon="6.91331">
        <ele>867</ele>
        <time>2016-06-18T19:46:19Z</time>
      </trkpt>
      <trkpt lat="47.87713" lon="6.91338">
        <ele>860</ele>
        <time>2016-06-18T19:46:22Z</time>
      </trkpt>
      <trkpt lat="47.87715" lon="6.91346">
        <ele>859</ele>
        <time>2016-06-18T19:46:26Z</time>
      </trkpt>
      <trkpt lat="47.87716" lon="6.91368">
        <ele>858</ele>
        <time>2016-06-18T19:46:38Z</time>
      </trkpt>
      <trkpt lat="47.87712" lon="6.9138">
        <ele>858</ele>
        <time>2016-06-18T19:46:49Z</time>
      </trkpt>
      <trkpt lat="47.87708" lon="6.91385">
        <ele>860</ele>
        <time>2016-06-18T19:46:53Z</time>
      </trkpt>
      <trkpt lat="47.87703" lon="6.91408">
        <ele>861</ele>
        <time>2016-06-18T19:47:05Z</time>
      </trkpt>
      <trkpt lat="47.87699" lon="6.91419">
        <ele>853</ele>
        <time>2016-06-18T19:47:11Z</time>
      </trkpt>
      <trkpt lat="47.87692" lon="6.91429">
        <ele>856</ele>
        <time>2016-06-18T19:47:20Z</time>
      </trkpt>
      <trkpt lat="47.87679" lon="6.9144">
        <ele>858</ele>
        <time>2016-06-18T19:47:36Z</time>
      </trkpt>
      <trkpt lat="47.8767" lon="6.91448">
        <ele>857</ele>
        <time>2016-06-18T19:47:46Z</time>
      </trkpt>
      <trkpt lat="47.87661" lon="6.91465">
        <ele>889</ele>
        <time>2016-06-18T19:47:59Z</time>
      </trkpt>
      <trkpt lat="47.87654" lon="6.91477">
        <ele>886</ele>
        <time>2016-06-18T19:48:10Z</time>
      </trkpt>
      <trkpt lat="47.87644" lon="6.91493">
        <ele>885</ele>
        <time>2016-06-18T19:48:22Z</time>
      </trkpt>
      <trkpt lat="47.87629" lon="6.91508">
        <ele>882</ele>
        <time>2016-06-18T19:48:37Z</time>
      </trkpt>
      <trkpt lat="47.87627" lon="6.91514">
        <ele>884</ele>
        <time>2016-06-18T19:48:41Z</time>
      </trkpt>
      <trkpt lat="47.87617" lon="6.91531">
        <ele>887</ele>
        <time>2016-06-18T19:48:54Z</time>
      </trkpt>
      <trkpt lat="47.87611" lon="6.91552">
        <ele>887</ele>
        <time>2016-06-18T19:49:08Z</time>
      </trkpt>
      <trkpt lat="47.8761" lon="6.91559">
        <ele>887</ele>
        <time>2016-06-18T19:49:13Z</time>
      </trkpt>
      <trkpt lat="47.8761" lon="6.91568">
        <ele>888</ele>
        <time>2016-06-18T19:49:19Z</time>
      </trkpt>
      <trkpt lat="47.87613" lon="6.91583">
        <ele>886</ele>
        <time>2016-06-18T19:49:30Z</time>
      </trkpt>
      <trkpt lat="47.87611" lon="6.91605">
        <ele>880</ele>
        <time>2016-06-18T19:49:45Z</time>
      </trkpt>
      <trkpt lat="47.87615" lon="6.91611">
        <ele>878</ele>
        <time>2016-06-18T19:49:50Z</time>
      </trkpt>
      <trkpt lat="47.87614" lon="6.91618">
        <ele>877</ele>
        <time>2016-06-18T19:49:54Z</time>
      </trkpt>
      <trkpt lat="47.87613" lon="6.91625">
        <ele>877</ele>
        <time>2016-06-18T19:49:59Z</time>
      </trkpt>
      <trkpt lat="47.87616" lon="6.91645">
        <ele>877</ele>
        <time>2016-06-18T19:50:10Z</time>
      </trkpt>
      <trkpt lat="47.87613" lon="6.91666">
        <ele>879</ele>
        <time>2016-06-18T19:50:23Z</time>
      </trkpt>
      <trkpt lat="47.87611" lon="6.9168">
        <ele>878</ele>
        <time>2016-06-18T19:50:33Z</time>
      </trkpt>
      <trkpt lat="47.87608" lon="6.91694">
        <ele>877</ele>
        <time>2016-06-18T19:50:44Z</time>
      </trkpt>
      <trkpt lat="47.8761" lon="6.91702">
        <ele>876</ele>
        <time>2016-06-18T19:50:49Z</time>
      </trkpt>
      <trkpt lat="47.87609" lon="6.91709">
        <ele>876</ele>
        <time>2016-06-18T19:50:53Z</time>
      </trkpt>
      <trkpt lat="47.87606" lon="6.91733">
        <ele>880</ele>
        <time>2016-06-18T19:51:06Z</time>
      </trkpt>
      <trkpt lat="47.87607" lon="6.91748">
        <ele>881</ele>
        <time>2016-06-18T19:51:14Z</time>
      </trkpt>
      <trkpt lat="47.87609" lon="6.91771">
        <ele>878</ele>
        <time>2016-06-18T19:51:25Z</time>
      </trkpt>
      <trkpt lat="47.87608" lon="6.91793">
        <ele>878</ele>
        <time>2016-06-18T19:51:37Z</time>
      </trkpt>
      <trkpt lat="47.87613" lon="6.91805">
        <ele>877</ele>
        <time>2016-06-18T19:51:43Z</time>
      </trkpt>
      <trkpt lat="47.8762" lon="6.91826">
        <ele>875</ele>
        <time>2016-06-18T19:51:54Z</time>
      </trkpt>
      <trkpt lat="47.87622" lon="6.9184">
        <ele>877</ele>
        <time>2016-06-18T19:52:04Z</time>
      </trkpt>
      <trkpt lat="47.87621" lon="6.91862">
        <ele>877</ele>
        <time>2016-06-18T19:52:14Z</time>
      </trkpt>
      <trkpt lat="47.87623" lon="6.91879">
        <ele>876</ele>
        <time>2016-06-18T19:52:22Z</time>
      </trkpt>
      <trkpt lat="47.87617" lon="6.9189">
        <ele>880</ele>
        <time>2016-06-18T19:52:32Z</time>
      </trkpt>
      <trkpt lat="47.87619" lon="6.91913">
        <ele>880</ele>
        <time>2016-06-18T19:52:44Z</time>
      </trkpt>
      <trkpt lat="47.87622" lon="6.91927">
        <ele>882</ele>
        <time>2016-06-18T19:52:49Z</time>
      </trkpt>
      <trkpt lat="47.87622" lon="6.91935">
        <ele>882</ele>
        <time>2016-06-18T19:52:53Z</time>
      </trkpt>
      <trkpt lat="47.87636" lon="6.91956">
        <ele>875</ele>
        <time>2016-06-18T19:53:05Z</time>
      </trkpt>
      <trkpt lat="47.87639" lon="6.91963">
        <ele>874</ele>
        <time>2016-06-18T19:53:11Z</time>
      </trkpt>
      <trkpt lat="47.87642" lon="6.91968">
        <ele>873</ele>
        <time>2016-06-18T19:53:14Z</time>
      </trkpt>
      <trkpt lat="47.87644" lon="6.91982">
        <ele>870</ele>
        <time>2016-06-18T19:53:21Z</time>
      </trkpt>
      <trkpt lat="47.87646" lon="6.91998">
        <ele>866</ele>
        <time>2016-06-18T19:53:32Z</time>
      </trkpt>
      <trkpt lat="47.87647" lon="6.92006">
        <ele>871</ele>
        <time>2016-06-18T19:53:35Z</time>
      </trkpt>
      <trkpt lat="47.87647" lon="6.92015">
        <ele>873</ele>
        <time>2016-06-18T19:53:38Z</time>
      </trkpt>
      <trkpt lat="47.87646" lon="6.92034">
        <ele>879</ele>
        <time>2016-06-18T19:53:45Z</time>
      </trkpt>
      <trkpt lat="47.87644" lon="6.92042">
        <ele>881</ele>
        <time>2016-06-18T19:53:48Z</time>
      </trkpt>
      <trkpt lat="47.87643" lon="6.92049">
        <ele>881</ele>
        <time>2016-06-18T19:53:51Z</time>
      </trkpt>
      <trkpt lat="47.87642" lon="6.92057">
        <ele>882</ele>
        <time>2016-06-18T19:53:55Z</time>
      </trkpt>
      <trkpt lat="47.87646" lon="6.92078">
        <ele>877</ele>
        <time>2016-06-18T19:54:07Z</time>
      </trkpt>
      <trkpt lat="47.87651" lon="6.92105">
        <ele>886</ele>
        <time>2016-06-18T19:54:21Z</time>
      </trkpt>
      <trkpt lat="47.87662" lon="6.92124">
        <ele>889</ele>
        <time>2016-06-18T19:54:32Z</time>
      </trkpt>
      <trkpt lat="47.87668" lon="6.92135">
        <ele>850</ele>
        <time>2016-06-18T19:54:40Z</time>
      </trkpt>
      <trkpt lat="47.87669" lon="6.92156">
        <ele>861</ele>
        <time>2016-06-18T19:54:51Z</time>
      </trkpt>
      <trkpt lat="47.87678" lon="6.92169">
        <ele>868</ele>
        <time>2016-06-18T19:55:03Z</time>
      </trkpt>
      <trkpt lat="47.87695" lon="6.92186">
        <ele>861</ele>
        <time>2016-06-18T19:55:15Z</time>
      </trkpt>
      <trkpt lat="47.87698" lon="6.92191">
        <ele>860</ele>
        <time>2016-06-18T19:55:19Z</time>
      </trkpt>
      <trkpt lat="47.87705" lon="6.92207">
        <ele>860</ele>
        <time>2016-06-18T19:55:29Z</time>
      </trkpt>
      <trkpt lat="47.87706" lon="6.92228">
        <ele>863</ele>
        <time>2016-06-18T19:55:40Z</time>
      </trkpt>
      <trkpt lat="47.87713" lon="6.92248">
        <ele>861</ele>
        <time>2016-06-18T19:55:50Z</time>
      </trkpt>
      <trkpt lat="47.8772" lon="6.92259">
        <ele>870</ele>
        <time>2016-06-18T19:56:00Z</time>
      </trkpt>
      <trkpt lat="47.87722" lon="6.92277">
        <ele>872</ele>
        <time>2016-06-18T19:56:08Z</time>
      </trkpt>
      <trkpt lat="47.87719" lon="6.92297">
        <ele>875</ele>
        <time>2016-06-18T19:56:20Z</time>
      </trkpt>
      <trkpt lat="47.87725" lon="6.92311">
        <ele>874</ele>
        <time>2016-06-18T19:56:30Z</time>
      </trkpt>
      <trkpt lat="47.87728" lon="6.92324">
        <ele>872</ele>
        <time>2016-06-18T19:56:40Z</time>
      </trkpt>
      <trkpt lat="47.87722" lon="6.92328">
        <ele>874</ele>
        <time>2016-06-18T19:56:43Z</time>
      </trkpt>
      <trkpt lat="47.87722" lon="6.92342">
        <ele>882</ele>
        <time>2016-06-18T19:56:50Z</time>
      </trkpt>
      <trkpt lat="47.87725" lon="6.92348">
        <ele>881</ele>
        <time>2016-06-18T19:56:54Z</time>
      </trkpt>
      <trkpt lat="47.87729" lon="6.92369">
        <ele>883</ele>
        <time>2016-06-18T19:57:06Z</time>
      </trkpt>
      <trkpt lat="47.87729" lon="6.9239">
        <ele>885</ele>
        <time>2016-06-18T19:57:19Z</time>
      </trkpt>
      <trkpt lat="47.8773" lon="6.92408">
        <ele>883</ele>
        <time>2016-06-18T19:57:28Z</time>
      </trkpt>
      <trkpt lat="47.87732" lon="6.92415">
        <ele>882</ele>
        <time>2016-06-18T19:57:32Z</time>
      </trkpt>
      <trkpt lat="47.87733" lon="6.92422">
        <ele>883</ele>
        <time>2016-06-18T19:57:36Z</time>
      </trkpt>
      <trkpt lat="47.87738" lon="6.92444">
        <ele>885</ele>
        <time>2016-06-18T19:57:49Z</time>
      </trkpt>
      <trkpt lat="47.87732" lon="6.92462">
        <ele>887</ele>
        <time>2016-06-18T19:58:01Z</time>
      </trkpt>
      <trkpt lat="47.87725" lon="6.9248">
        <ele>888</ele>
        <time>2016-06-18T19:58:14Z</time>
      </trkpt>
      <trkpt lat="47.87724" lon="6.92501">
        <ele>881</ele>
        <time>2016-06-18T19:58:26Z</time>
      </trkpt>
      <trkpt lat="47.87727" lon="6.92508">
        <ele>881</ele>
        <time>2016-06-18T19:58:29Z</time>
      </trkpt>
      <trkpt lat="47.87723" lon="6.92514">
        <ele>881</ele>
        <time>2016-06-18T19:58:33Z</time>
      </trkpt>
      <trkpt lat="47.8772" lon="6.92521">
        <ele>881</ele>
        <time>2016-06-18T19:58:37Z</time>
      </trkpt>
      <trkpt lat="47.87719" lon="6.92529">
        <ele>880</ele>
        <time>2016-06-18T19:58:42Z</time>
      </trkpt>
      <trkpt lat="47.87715" lon="6.92542">
        <ele>879</ele>
        <time>2016-06-18T19:58:50Z</time>
      </trkpt>
      <trkpt lat="47.87707" lon="6.9255">
        <ele>879</ele>
        <time>2016-06-18T19:59:00Z</time>
      </trkpt>
      <trkpt lat="47.87698" lon="6.92543">
        <ele>880</ele>
        <time>2016-06-18T19:59:07Z</time>
      </trkpt>
      <trkpt lat="47.8769" lon="6.92532">
        <ele>882</ele>
        <time>2016-06-18T19:59:18Z</time>
      </trkpt>
      <trkpt lat="47.87684" lon="6.92519">
        <ele>885</ele>
        <time>2016-06-18T19:59:29Z</time>
      </trkpt>
      <trkpt lat="47.87676" lon="6.92512">
        <ele>889</ele>
        <time>2016-06-18T19:59:41Z</time>
      </trkpt>
      <trkpt lat="47.8767" lon="6.92503">
        <ele>895</ele>
        <time>2016-06-18T19:59:56Z</time>
      </trkpt>
      <trkpt lat="47.8767" lon="6.92495">
        <ele>897</ele>
        <time>2016-06-18T19:59:59Z</time>
      </trkpt>
      <trkpt lat="47.87662" lon="6.92486">
        <ele>900</ele>
        <time>2016-06-18T20:00:09Z</time>
      </trkpt>
      <trkpt lat="47.87656" lon="6.92472">
        <ele>902</ele>
        <time>2016-06-18T20:00:24Z</time>
      </trkpt>
      <trkpt lat="47.87645" lon="6.92458">
        <ele>904</ele>
        <time>2016-06-18T20:00:37Z</time>
      </trkpt>
      <trkpt lat="47.87638" lon="6.9245">
        <ele>905</ele>
        <time>2016-06-18T20:00:46Z</time>
      </trkpt>
      <trkpt lat="47.87633" lon="6.92437">
        <ele>907</ele>
        <time>2016-06-18T20:00:59Z</time>
      </trkpt>
      <trkpt lat="47.87619" lon="6.92427">
        <ele>908</ele>
        <time>2016-06-18T20:01:09Z</time>
      </trkpt>
      <trkpt lat="47.87612" lon="6.92419">
        <ele>909</ele>
        <time>2016-06-18T20:01:19Z</time>
      </trkpt>
      <trkpt lat="47.876" lon="6.92418">
        <ele>911</ele>
        <time>2016-06-18T20:01:28Z</time>
      </trkpt>
      <trkpt lat="47.87591" lon="6.92414">
        <ele>919</ele>
        <time>2016-06-18T20:01:35Z</time>
      </trkpt>
      <trkpt lat="47.87586" lon="6.92411">
        <ele>919</ele>
        <time>2016-06-18T20:01:38Z</time>
      </trkpt>
      <trkpt lat="47.87576" lon="6.92413">
        <ele>920</ele>
        <time>2016-06-18T20:01:45Z</time>
      </trkpt>
      <trkpt lat="47.87573" lon="6.92408">
        <ele>921</ele>
        <time>2016-06-18T20:01:51Z</time>
      </trkpt>
      <trkpt lat="47.87558" lon="6.92405">
        <ele>922</ele>
        <time>2016-06-18T20:02:04Z</time>
      </trkpt>
      <trkpt lat="47.87553" lon="6.92403">
        <ele>922</ele>
        <time>2016-06-18T20:02:08Z</time>
      </trkpt>
      <trkpt lat="47.87539" lon="6.92391">
        <ele>923</ele>
        <time>2016-06-18T20:02:21Z</time>
      </trkpt>
      <trkpt lat="47.87521" lon="6.92379">
        <ele>924</ele>
        <time>2016-06-18T20:02:34Z</time>
      </trkpt>
      <trkpt lat="47.87511" lon="6.9237">
        <ele>927</ele>
        <time>2016-06-18T20:02:42Z</time>
      </trkpt>
      <trkpt lat="47.87501" lon="6.92363">
        <ele>929</ele>
        <time>2016-06-18T20:02:48Z</time>
      </trkpt>
      <trkpt lat="47.87488" lon="6.92354">
        <ele>922</ele>
        <time>2016-06-18T20:02:57Z</time>
      </trkpt>
      <trkpt lat="47.87477" lon="6.92341">
        <ele>922</ele>
        <time>2016-06-18T20:03:07Z</time>
      </trkpt>
      <trkpt lat="47.87466" lon="6.92328">
        <ele>939</ele>
        <time>2016-06-18T20:03:18Z</time>
      </trkpt>
      <trkpt lat="47.87462" lon="6.92324">
        <ele>938</ele>
        <time>2016-06-18T20:03:22Z</time>
      </trkpt>
      <trkpt lat="47.87457" lon="6.92321">
        <ele>938</ele>
        <time>2016-06-18T20:03:26Z</time>
      </trkpt>
      <trkpt lat="47.87448" lon="6.92315">
        <ele>936</ele>
        <time>2016-06-18T20:03:33Z</time>
      </trkpt>
      <trkpt lat="47.87436" lon="6.92305">
        <ele>936</ele>
        <time>2016-06-18T20:03:43Z</time>
      </trkpt>
      <trkpt lat="47.87432" lon="6.92301">
        <ele>936</ele>
        <time>2016-06-18T20:03:46Z</time>
      </trkpt>
      <trkpt lat="47.87421" lon="6.92287">
        <ele>939</ele>
        <time>2016-06-18T20:03:58Z</time>
      </trkpt>
      <trkpt lat="47.87409" lon="6.92273">
        <ele>924</ele>
        <time>2016-06-18T20:04:10Z</time>
      </trkpt>
      <trkpt lat="47.87403" lon="6.92263">
        <ele>927</ele>
        <time>2016-06-18T20:04:15Z</time>
      </trkpt>
      <trkpt lat="47.87392" lon="6.92249">
        <ele>939</ele>
        <time>2016-06-18T20:04:27Z</time>
      </trkpt>
      <trkpt lat="47.8738" lon="6.92232">
        <ele>937</ele>
        <time>2016-06-18T20:04:40Z</time>
      </trkpt>
      <trkpt lat="47.87369" lon="6.92213">
        <ele>937</ele>
        <time>2016-06-18T20:04:54Z</time>
      </trkpt>
      <trkpt lat="47.87361" lon="6.92195">
        <ele>938</ele>
        <time>2016-06-18T20:05:07Z</time>
      </trkpt>
      <trkpt lat="47.8735" lon="6.92183">
        <ele>937</ele>
        <time>2016-06-18T20:05:20Z</time>
      </trkpt>
      <trkpt lat="47.87346" lon="6.92179">
        <ele>936</ele>
        <time>2016-06-18T20:05:26Z</time>
      </trkpt>
      <trkpt lat="47.87337" lon="6.92172">
        <ele>934</ele>
        <time>2016-06-18T20:05:36Z</time>
      </trkpt>
      <trkpt lat="47.87331" lon="6.9216">
        <ele>933</ele>
        <time>2016-06-18T20:05:46Z</time>
      </trkpt>
      <trkpt lat="47.87324" lon="6.92149">
        <ele>934</ele>
        <time>2016-06-18T20:05:55Z</time>
      </trkpt>
      <trkpt lat="47.87313" lon="6.92135">
        <ele>936</ele>
        <time>2016-06-18T20:06:05Z</time>
      </trkpt>
      <trkpt lat="47.87302" lon="6.92119">
        <ele>937</ele>
        <time>2016-06-18T20:06:17Z</time>
      </trkpt>
      <trkpt lat="47.87294" lon="6.92106">
        <ele>938</ele>
        <time>2016-06-18T20:06:28Z</time>
      </trkpt>
      <trkpt lat="47.87291" lon="6.92101">
        <ele>938</ele>
        <time>2016-06-18T20:06:31Z</time>
      </trkpt>
      <trkpt lat="47.8728" lon="6.92084">
        <ele>936</ele>
        <time>2016-06-18T20:06:44Z</time>
      </trkpt>
      <trkpt lat="47.87275" lon="6.92082">
        <ele>951</ele>
        <time>2016-06-18T20:06:50Z</time>
      </trkpt>
      <trkpt lat="47.87269" lon="6.92069">
        <ele>950</ele>
        <time>2016-06-18T20:07:01Z</time>
      </trkpt>
      <trkpt lat="47.87254" lon="6.92059">
        <ele>950</ele>
        <time>2016-06-18T20:07:14Z</time>
      </trkpt>
      <trkpt lat="47.87245" lon="6.92052">
        <ele>938</ele>
        <time>2016-06-18T20:07:24Z</time>
      </trkpt>
      <trkpt lat="47.87239" lon="6.92049">
        <ele>939</ele>
        <time>2016-06-18T20:07:28Z</time>
      </trkpt>
      <trkpt lat="47.87223" lon="6.92039">
        <ele>941</ele>
        <time>2016-06-18T20:07:40Z</time>
      </trkpt>
      <trkpt lat="47.87207" lon="6.92028">
        <ele>942</ele>
        <time>2016-06-18T20:07:53Z</time>
      </trkpt>
      <trkpt lat="47.87203" lon="6.92024">
        <ele>943</ele>
        <time>2016-06-18T20:07:57Z</time>
      </trkpt>
      <trkpt lat="47.87187" lon="6.92019">
        <ele>944</ele>
        <time>2016-06-18T20:08:10Z</time>
      </trkpt>
      <trkpt lat="47.87173" lon="6.92016">
        <ele>946</ele>
        <time>2016-06-18T20:08:22Z</time>
      </trkpt>
      <trkpt lat="47.87169" lon="6.92017">
        <ele>946</ele>
        <time>2016-06-18T20:08:26Z</time>
      </trkpt>
      <trkpt lat="47.87163" lon="6.9202">
        <ele>949</ele>
        <time>2016-06-18T20:08:35Z</time>
      </trkpt>
      <trkpt lat="47.87153" lon="6.92023">
        <ele>949</ele>
        <time>2016-06-18T20:08:42Z</time>
      </trkpt>
      <trkpt lat="47.87137" lon="6.92025">
        <ele>950</ele>
        <time>2016-06-18T20:08:55Z</time>
      </trkpt>
      <trkpt lat="47.87132" lon="6.92029">
        <ele>950</ele>
        <time>2016-06-18T20:08:58Z</time>
      </trkpt>
      <trkpt lat="47.87128" lon="6.92032">
        <ele>950</ele>
        <time>2016-06-18T20:09:02Z</time>
      </trkpt>
      <trkpt lat="47.87123" lon="6.92034">
        <ele>950</ele>
        <time>2016-06-18T20:09:06Z</time>
      </trkpt>
      <trkpt lat="47.87109" lon="6.92047">
        <ele>950</ele>
        <time>2016-06-18T20:09:19Z</time>
      </trkpt>
      <trkpt lat="47.87095" lon="6.92059">
        <ele>949</ele>
        <time>2016-06-18T20:09:31Z</time>
      </trkpt>
      <trkpt lat="47.87091" lon="6.92066">
        <ele>948</ele>
        <time>2016-06-18T20:09:34Z</time>
      </trkpt>
      <trkpt lat="47.87081" lon="6.9208">
        <ele>951</ele>
        <time>2016-06-18T20:09:46Z</time>
      </trkpt>
      <trkpt lat="47.87077" lon="6.92087">
        <ele>948</ele>
        <time>2016-06-18T20:09:52Z</time>
      </trkpt>
      <trkpt lat="47.87073" lon="6.92093">
        <ele>949</ele>
        <time>2016-06-18T20:09:56Z</time>
      </trkpt>
      <trkpt lat="47.87066" lon="6.92105">
        <ele>949</ele>
        <time>2016-06-18T20:10:05Z</time>
      </trkpt>
      <trkpt lat="47.87055" lon="6.92118">
        <ele>949</ele>
        <time>2016-06-18T20:10:17Z</time>
      </trkpt>
      <trkpt lat="47.87046" lon="6.92138">
        <ele>948</ele>
        <time>2016-06-18T20:10:29Z</time>
      </trkpt>
      <trkpt lat="47.87035" lon="6.92156">
        <ele>949</ele>
        <time>2016-06-18T20:10:42Z</time>
      </trkpt>
      <trkpt lat="47.87026" lon="6.92171">
        <ele>940</ele>
        <time>2016-06-18T20:10:53Z</time>
      </trkpt>
      <trkpt lat="47.87017" lon="6.9219">
        <ele>939</ele>
        <time>2016-06-18T20:11:06Z</time>
      </trkpt>
      <trkpt lat="47.87014" lon="6.92204">
        <ele>937</ele>
        <time>2016-06-18T20:11:16Z</time>
      </trkpt>
      <trkpt lat="47.8701" lon="6.92218">
        <ele>935</ele>
        <time>2016-06-18T20:11:26Z</time>
      </trkpt>
      <trkpt lat="47.87006" lon="6.92239">
        <ele>937</ele>
        <time>2016-06-18T20:11:37Z</time>
      </trkpt>
      <trkpt lat="47.86999" lon="6.9225">
        <ele>939</ele>
        <time>2016-06-18T20:14:26Z</time>
      </trkpt>
      <trkpt lat="47.86996" lon="6.92245">
        <ele>939</ele>
        <time>2016-06-18T20:14:38Z</time>
      </trkpt>
      <trkpt lat="47.86996" lon="6.92237">
        <ele>938</ele>
        <time>2016-06-18T20:15:07Z</time>
      </trkpt>
      <trkpt lat="47.86993" lon="6.92231">
        <ele>938</ele>
        <time>2016-06-18T20:15:23Z</time>
      </trkpt>
      <trkpt lat="47.86985" lon="6.92224">
        <ele>938</ele>
        <time>2016-06-18T20:15:45Z</time>
      </trkpt>
      <trkpt lat="47.86982" lon="6.92218">
        <ele>938</ele>
        <time>2016-06-18T20:15:51Z</time>
      </trkpt>
      <trkpt lat="47.8698" lon="6.92203">
        <ele>939</ele>
        <time>2016-06-18T20:16:05Z</time>
      </trkpt>
      <trkpt lat="47.86977" lon="6.92189">
        <ele>941</ele>
        <time>2016-06-18T20:16:15Z</time>
      </trkpt>
      <trkpt lat="47.86973" lon="6.92175">
        <ele>942</ele>
        <time>2016-06-18T20:16:27Z</time>
      </trkpt>
      <trkpt lat="47.8697" lon="6.92162">
        <ele>953</ele>
        <time>2016-06-18T20:16:38Z</time>
      </trkpt>
      <trkpt lat="47.86967" lon="6.92148">
        <ele>953</ele>
        <time>2016-06-18T20:16:50Z</time>
      </trkpt>
      <trkpt lat="47.86966" lon="6.92133">
        <ele>954</ele>
        <time>2016-06-18T20:17:00Z</time>
      </trkpt>
      <trkpt lat="47.86963" lon="6.92117">
        <ele>956</ele>
        <time>2016-06-18T20:17:10Z</time>
      </trkpt>
      <trkpt lat="47.86962" lon="6.9211">
        <ele>956</ele>
        <time>2016-06-18T20:17:16Z</time>
      </trkpt>
      <trkpt lat="47.86962" lon="6.92095">
        <ele>958</ele>
        <time>2016-06-18T20:17:30Z</time>
      </trkpt>
      <trkpt lat="47.8696" lon="6.92078">
        <ele>968</ele>
        <time>2016-06-18T20:17:41Z</time>
      </trkpt>
      <trkpt lat="47.86956" lon="6.92065">
        <ele>967</ele>
        <time>2016-06-18T20:17:49Z</time>
      </trkpt>
      <trkpt lat="47.8696" lon="6.92055">
        <ele>969</ele>
        <time>2016-06-18T20:18:01Z</time>
      </trkpt>
      <trkpt lat="47.86961" lon="6.92067">
        <ele>969</ele>
        <time>2016-06-18T20:18:15Z</time>
      </trkpt>
      <trkpt lat="47.86965" lon="6.92053">
        <ele>970</ele>
        <time>2016-06-18T20:18:30Z</time>
      </trkpt>
      <trkpt lat="47.86965" lon="6.92031">
        <ele>972</ele>
        <time>2016-06-18T20:18:44Z</time>
      </trkpt>
      <trkpt lat="47.86966" lon="6.92017">
        <ele>973</ele>
        <time>2016-06-18T20:18:57Z</time>
      </trkpt>
      <trkpt lat="47.86963" lon="6.91994">
        <ele>982</ele>
        <time>2016-06-18T20:19:11Z</time>
      </trkpt>
      <trkpt lat="47.86963" lon="6.91987">
        <ele>982</ele>
        <time>2016-06-18T20:19:15Z</time>
      </trkpt>
      <trkpt lat="47.86961" lon="6.91972">
        <ele>982</ele>
        <time>2016-06-18T20:19:29Z</time>
      </trkpt>
      <trkpt lat="47.86963" lon="6.91948">
        <ele>984</ele>
        <time>2016-06-18T20:19:44Z</time>
      </trkpt>
      <trkpt lat="47.86961" lon="6.91934">
        <ele>985</ele>
        <time>2016-06-18T20:19:54Z</time>
      </trkpt>
      <trkpt lat="47.8696" lon="6.91918">
        <ele>986</ele>
        <time>2016-06-18T20:20:07Z</time>
      </trkpt>
      <trkpt lat="47.86962" lon="6.91905">
        <ele>992</ele>
        <time>2016-06-18T20:20:20Z</time>
      </trkpt>
      <trkpt lat="47.86961" lon="6.9189">
        <ele>992</ele>
        <time>2016-06-18T20:20:32Z</time>
      </trkpt>
      <trkpt lat="47.86961" lon="6.91867">
        <ele>992</ele>
        <time>2016-06-18T20:20:44Z</time>
      </trkpt>
      <trkpt lat="47.86963" lon="6.91859">
        <ele>993</ele>
        <time>2016-06-18T20:20:49Z</time>
      </trkpt>
      <trkpt lat="47.86966" lon="6.91845">
        <ele>995</ele>
        <time>2016-06-18T20:21:03Z</time>
      </trkpt>
      <trkpt lat="47.86968" lon="6.91831">
        <ele>1000</ele>
        <time>2016-06-18T20:21:13Z</time>
      </trkpt>
      <trkpt lat="47.86967" lon="6.91816">
        <ele>999</ele>
        <time>2016-06-18T20:21:27Z</time>
      </trkpt>
      <trkpt lat="47.86968" lon="6.91794">
        <ele>1000</ele>
        <time>2016-06-18T20:21:40Z</time>
      </trkpt>
      <trkpt lat="47.86967" lon="6.91787">
        <ele>1000</ele>
        <time>2016-06-18T20:21:45Z</time>
      </trkpt>
      <trkpt lat="47.86965" lon="6.91766">
        <ele>1001</ele>
        <time>2016-06-18T20:21:58Z</time>
      </trkpt>
      <trkpt lat="47.86964" lon="6.91749">
        <ele>1006</ele>
        <time>2016-06-18T20:22:08Z</time>
      </trkpt>
      <trkpt lat="47.86961" lon="6.91732">
        <ele>1005</ele>
        <time>2016-06-18T20:22:16Z</time>
      </trkpt>
      <trkpt lat="47.86958" lon="6.91709">
        <ele>1005</ele>
        <time>2016-06-18T20:22:34Z</time>
      </trkpt>
      <trkpt lat="47.86961" lon="6.91694">
        <ele>1007</ele>
        <time>2016-06-18T20:22:45Z</time>
      </trkpt>
      <trkpt lat="47.86961" lon="6.91687">
        <ele>1007</ele>
        <time>2016-06-18T20:22:52Z</time>
      </trkpt>
      <trkpt lat="47.86961" lon="6.91671">
        <ele>1008</ele>
        <time>2016-06-18T20:23:02Z</time>
      </trkpt>
      <trkpt lat="47.86962" lon="6.91649">
        <ele>1012</ele>
        <time>2016-06-18T20:23:13Z</time>
      </trkpt>
      <trkpt lat="47.86963" lon="6.91631">
        <ele>1012</ele>
        <time>2016-06-18T20:23:19Z</time>
      </trkpt>
      <trkpt lat="47.86963" lon="6.91624">
        <ele>1012</ele>
        <time>2016-06-18T20:23:22Z</time>
      </trkpt>
      <trkpt lat="47.86967" lon="6.91604">
        <ele>1014</ele>
        <time>2016-06-18T20:23:37Z</time>
      </trkpt>
      <trkpt lat="47.86968" lon="6.91587">
        <ele>1015</ele>
        <time>2016-06-18T20:23:45Z</time>
      </trkpt>
      <trkpt lat="47.86968" lon="6.91581">
        <ele>1019</ele>
        <time>2016-06-18T20:23:49Z</time>
      </trkpt>
      <trkpt lat="47.8697" lon="6.91559">
        <ele>1020</ele>
        <time>2016-06-18T20:24:02Z</time>
      </trkpt>
      <trkpt lat="47.86975" lon="6.91545">
        <ele>1021</ele>
        <time>2016-06-18T20:24:12Z</time>
      </trkpt>
      <trkpt lat="47.86977" lon="6.91531">
        <ele>1023</ele>
        <time>2016-06-18T20:24:23Z</time>
      </trkpt>
      <trkpt lat="47.86978" lon="6.91523">
        <ele>1024</ele>
        <time>2016-06-18T20:24:35Z</time>
      </trkpt>
      <trkpt lat="47.8698" lon="6.91508">
        <ele>1027</ele>
        <time>2016-06-18T20:24:42Z</time>
      </trkpt>
      <trkpt lat="47.86977" lon="6.91494">
        <ele>1037</ele>
        <time>2016-06-18T20:24:53Z</time>
      </trkpt>
      <trkpt lat="47.86969" lon="6.91482">
        <ele>1036</ele>
        <time>2016-06-18T20:25:09Z</time>
      </trkpt>
      <trkpt lat="47.8696" lon="6.91462">
        <ele>1036</ele>
        <time>2016-06-18T20:25:22Z</time>
      </trkpt>
      <trkpt lat="47.86952" lon="6.91453">
        <ele>1036</ele>
        <time>2016-06-18T20:25:33Z</time>
      </trkpt>
      <trkpt lat="47.86946" lon="6.91441">
        <ele>1037</ele>
        <time>2016-06-18T20:25:46Z</time>
      </trkpt>
      <trkpt lat="47.86937" lon="6.9142">
        <ele>1038</ele>
        <time>2016-06-18T20:25:59Z</time>
      </trkpt>
      <trkpt lat="47.86928" lon="6.91402">
        <ele>1050</ele>
        <time>2016-06-18T20:26:11Z</time>
      </trkpt>
      <trkpt lat="47.86919" lon="6.91394">
        <ele>1052</ele>
        <time>2016-06-18T20:26:21Z</time>
      </trkpt>
      <trkpt lat="47.86911" lon="6.91383">
        <ele>1034</ele>
        <time>2016-06-18T20:26:32Z</time>
      </trkpt>
      <trkpt lat="47.869" lon="6.91371">
        <ele>1035</ele>
        <time>2016-06-18T20:26:44Z</time>
      </trkpt>
      <trkpt lat="47.86891" lon="6.91353">
        <ele>1037</ele>
        <time>2016-06-18T20:26:56Z</time>
      </trkpt>
      <trkpt lat="47.86887" lon="6.91348">
        <ele>1037</ele>
        <time>2016-06-18T20:27:00Z</time>
      </trkpt>
      <trkpt lat="47.86882" lon="6.91335">
        <ele>1036</ele>
        <time>2016-06-18T20:27:12Z</time>
      </trkpt>
      <trkpt lat="47.86871" lon="6.91318">
        <ele>1048</ele>
        <time>2016-06-18T20:27:23Z</time>
      </trkpt>
      <trkpt lat="47.86869" lon="6.91311">
        <ele>1048</ele>
        <time>2016-06-18T20:27:29Z</time>
      </trkpt>
      <trkpt lat="47.86862" lon="6.91293">
        <ele>1048</ele>
        <time>2016-06-18T20:27:41Z</time>
      </trkpt>
      <trkpt lat="47.86856" lon="6.9128">
        <ele>1048</ele>
        <time>2016-06-18T20:27:51Z</time>
      </trkpt>
      <trkpt lat="47.8685" lon="6.91266">
        <ele>1046</ele>
        <time>2016-06-18T20:28:01Z</time>
      </trkpt>
      <trkpt lat="47.86847" lon="6.91244">
        <ele>1051</ele>
        <time>2016-06-18T20:28:14Z</time>
      </trkpt>
      <trkpt lat="47.86848" lon="6.91222">
        <ele>1060</ele>
        <time>2016-06-18T20:28:25Z</time>
      </trkpt>
      <trkpt lat="47.86846" lon="6.91191">
        <ele>1064</ele>
        <time>2016-06-18T20:28:37Z</time>
      </trkpt>
      <trkpt lat="47.86842" lon="6.91169">
        <ele>1060</ele>
        <time>2016-06-18T20:28:47Z</time>
      </trkpt>
      <trkpt lat="47.86838" lon="6.91157">
        <ele>1068</ele>
        <time>2016-06-18T20:28:54Z</time>
      </trkpt>
      <trkpt lat="47.86835" lon="6.91149">
        <ele>1074</ele>
        <time>2016-06-18T20:28:58Z</time>
      </trkpt>
      <trkpt lat="47.86833" lon="6.91143">
        <ele>1049</ele>
        <time>2016-06-18T20:29:03Z</time>
      </trkpt>
      <trkpt lat="47.8683" lon="6.91135">
        <ele>1049</ele>
        <time>2016-06-18T20:29:13Z</time>
      </trkpt>
      <trkpt lat="47.8682" lon="6.91111">
        <ele>1054</ele>
        <time>2016-06-18T20:29:24Z</time>
      </trkpt>
      <trkpt lat="47.86816" lon="6.91089">
        <ele>1060</ele>
        <time>2016-06-18T20:29:36Z</time>
      </trkpt>
      <trkpt lat="47.86807" lon="6.91075">
        <ele>1073</ele>
        <time>2016-06-18T20:29:57Z</time>
      </trkpt>
      <trkpt lat="47.86799" lon="6.9106">
        <ele>1071</ele>
        <time>2016-06-18T20:30:08Z</time>
      </trkpt>
      <trkpt lat="47.8679" lon="6.91053">
        <ele>1069</ele>
        <time>2016-06-18T20:30:19Z</time>
      </trkpt>
      <trkpt lat="47.86777" lon="6.91041">
        <ele>1068</ele>
        <time>2016-06-18T20:30:32Z</time>
      </trkpt>
      <trkpt lat="47.8677" lon="6.91029">
        <ele>1069</ele>
        <time>2016-06-18T20:30:43Z</time>
      </trkpt>
      <trkpt lat="47.86758" lon="6.91017">
        <ele>1068</ele>
        <time>2016-06-18T20:30:54Z</time>
      </trkpt>
      <trkpt lat="47.86747" lon="6.91002">
        <ele>1060</ele>
        <time>2016-06-18T20:31:04Z</time>
      </trkpt>
      <trkpt lat="47.86743" lon="6.90996">
        <ele>1063</ele>
        <time>2016-06-18T20:31:07Z</time>
      </trkpt>
      <trkpt lat="47.86734" lon="6.90986">
        <ele>1060</ele>
        <time>2016-06-18T20:31:17Z</time>
      </trkpt>
      <trkpt lat="47.8673" lon="6.90964">
        <ele>1062</ele>
        <time>2016-06-18T20:31:28Z</time>
      </trkpt>
      <trkpt lat="47.86726" lon="6.90951">
        <ele>1063</ele>
        <time>2016-06-18T20:31:38Z</time>
      </trkpt>
      <trkpt lat="47.86726" lon="6.90936">
        <ele>1067</ele>
        <time>2016-06-18T20:31:49Z</time>
      </trkpt>
      <trkpt lat="47.86713" lon="6.90922">
        <ele>1065</ele>
        <time>2016-06-18T20:32:02Z</time>
      </trkpt>
      <trkpt lat="47.86705" lon="6.90913">
        <ele>1082</ele>
        <time>2016-06-18T20:32:13Z</time>
      </trkpt>
      <trkpt lat="47.86692" lon="6.90903">
        <ele>1079</ele>
        <time>2016-06-18T20:32:23Z</time>
      </trkpt>
      <trkpt lat="47.86681" lon="6.90901">
        <ele>1075</ele>
        <time>2016-06-18T20:32:29Z</time>
      </trkpt>
      <trkpt lat="47.86663" lon="6.90903">
        <ele>1063</ele>
        <time>2016-06-18T20:32:38Z</time>
      </trkpt>
      <trkpt lat="47.86653" lon="6.90905">
        <ele>1064</ele>
        <time>2016-06-18T20:32:50Z</time>
      </trkpt>
      <trkpt lat="47.86632" lon="6.90909">
        <ele>1066</ele>
        <time>2016-06-18T20:33:00Z</time>
      </trkpt>
      <trkpt lat="47.86628" lon="6.90912">
        <ele>1066</ele>
        <time>2016-06-18T20:33:02Z</time>
      </trkpt>
      <trkpt lat="47.86612" lon="6.90918">
        <ele>1045</ele>
        <time>2016-06-18T20:33:15Z</time>
      </trkpt>
      <trkpt lat="47.86606" lon="6.90918">
        <ele>1046</ele>
        <time>2016-06-18T20:33:19Z</time>
      </trkpt>
      <trkpt lat="47.86594" lon="6.90921">
        <ele>1048</ele>
        <time>2016-06-18T20:33:29Z</time>
      </trkpt>
      <trkpt lat="47.86578" lon="6.90927">
        <ele>1048</ele>
        <time>2016-06-18T20:33:40Z</time>
      </trkpt>
      <trkpt lat="47.86569" lon="6.90933">
        <ele>1045</ele>
        <time>2016-06-18T20:33:53Z</time>
      </trkpt>
      <trkpt lat="47.86558" lon="6.90939">
        <ele>1042</ele>
        <time>2016-06-18T20:34:00Z</time>
      </trkpt>
      <trkpt lat="47.86547" lon="6.90939">
        <ele>1041</ele>
        <time>2016-06-18T20:34:11Z</time>
      </trkpt>
      <trkpt lat="47.8653" lon="6.90939">
        <ele>1041</ele>
        <time>2016-06-18T20:34:22Z</time>
      </trkpt>
      <trkpt lat="47.86522" lon="6.90932">
        <ele>1041</ele>
        <time>2016-06-18T20:34:27Z</time>
      </trkpt>
      <trkpt lat="47.8651" lon="6.90918">
        <ele>1042</ele>
        <time>2016-06-18T20:34:37Z</time>
      </trkpt>
      <trkpt lat="47.86499" lon="6.90901">
        <ele>1046</ele>
        <time>2016-06-18T20:34:47Z</time>
      </trkpt>
      <trkpt lat="47.86483" lon="6.90883">
        <ele>1049</ele>
        <time>2016-06-18T20:35:00Z</time>
      </trkpt>
      <trkpt lat="47.8648" lon="6.90876">
        <ele>1050</ele>
        <time>2016-06-18T20:35:04Z</time>
      </trkpt>
      <trkpt lat="47.86466" lon="6.90866">
        <ele>1050</ele>
        <time>2016-06-18T20:35:15Z</time>
      </trkpt>
      <trkpt lat="47.86451" lon="6.9087">
        <ele>1049</ele>
        <time>2016-06-18T20:35:26Z</time>
      </trkpt>
      <trkpt lat="47.86443" lon="6.90889">
        <ele>1047</ele>
        <time>2016-06-18T20:35:39Z</time>
      </trkpt>
      <trkpt lat="47.8643" lon="6.90901">
        <ele>1044</ele>
        <time>2016-06-18T20:35:51Z</time>
      </trkpt>
      <trkpt lat="47.8642" lon="6.90918">
        <ele>1038</ele>
        <time>2016-06-18T20:36:03Z</time>
      </trkpt>
      <trkpt lat="47.86406" lon="6.9093">
        <ele>1040</ele>
        <time>2016-06-18T20:36:16Z</time>
      </trkpt>
      <trkpt lat="47.86393" lon="6.90946">
        <ele>1041</ele>
        <time>2016-06-18T20:36:29Z</time>
      </trkpt>
      <trkpt lat="47.86382" lon="6.90958">
        <ele>1041</ele>
        <time>2016-06-18T20:36:40Z</time>
      </trkpt>
      <trkpt lat="47.86368" lon="6.9097">
        <ele>1042</ele>
        <time>2016-06-18T20:36:52Z</time>
      </trkpt>
      <trkpt lat="47.86355" lon="6.90981">
        <ele>1043</ele>
        <time>2016-06-18T20:37:07Z</time>
      </trkpt>
      <trkpt lat="47.86355" lon="6.90997">
        <ele>1043</ele>
        <time>2016-06-18T20:37:20Z</time>
      </trkpt>
      <trkpt lat="47.86348" lon="6.91016">
        <ele>1049</ele>
        <time>2016-06-18T20:37:31Z</time>
      </trkpt>
      <trkpt lat="47.86345" lon="6.91029">
        <ele>1050</ele>
        <time>2016-06-18T20:37:39Z</time>
      </trkpt>
      <trkpt lat="47.8634" lon="6.91032">
        <ele>1050</ele>
        <time>2016-06-18T20:37:44Z</time>
      </trkpt>
      <trkpt lat="47.86332" lon="6.91042">
        <ele>1055</ele>
        <time>2016-06-18T20:37:54Z</time>
      </trkpt>
      <trkpt lat="47.86327" lon="6.91044">
        <ele>1056</ele>
        <time>2016-06-18T20:37:59Z</time>
      </trkpt>
      <trkpt lat="47.86314" lon="6.91056">
        <ele>1057</ele>
        <time>2016-06-18T20:38:12Z</time>
      </trkpt>
      <trkpt lat="47.863" lon="6.91057">
        <ele>1058</ele>
        <time>2016-06-18T20:38:23Z</time>
      </trkpt>
      <trkpt lat="47.86295" lon="6.91057">
        <ele>1059</ele>
        <time>2016-06-18T20:38:26Z</time>
      </trkpt>
      <trkpt lat="47.8629" lon="6.91055">
        <ele>1059</ele>
        <time>2016-06-18T20:38:30Z</time>
      </trkpt>
      <trkpt lat="47.86285" lon="6.91052">
        <ele>1059</ele>
        <time>2016-06-18T20:38:34Z</time>
      </trkpt>
      <trkpt lat="47.86276" lon="6.91048">
        <ele>1059</ele>
        <time>2016-06-18T20:38:48Z</time>
      </trkpt>
      <trkpt lat="47.86266" lon="6.91046">
        <ele>1059</ele>
        <time>2016-06-18T20:39:00Z</time>
      </trkpt>
      <trkpt lat="47.86252" lon="6.91041">
        <ele>1059</ele>
        <time>2016-06-18T20:39:11Z</time>
      </trkpt>
      <trkpt lat="47.86247" lon="6.91038">
        <ele>1070</ele>
        <time>2016-06-18T20:39:15Z</time>
      </trkpt>
      <trkpt lat="47.86242" lon="6.91037">
        <ele>1070</ele>
        <time>2016-06-18T20:39:20Z</time>
      </trkpt>
      <trkpt lat="47.86229" lon="6.91032">
        <ele>1070</ele>
        <time>2016-06-18T20:39:38Z</time>
      </trkpt>
      <trkpt lat="47.86224" lon="6.91029">
        <ele>1071</ele>
        <time>2016-06-18T20:39:57Z</time>
      </trkpt>
      <trkpt lat="47.8621" lon="6.91026">
        <ele>1073</ele>
        <time>2016-06-18T20:40:12Z</time>
      </trkpt>
      <trkpt lat="47.862" lon="6.91022">
        <ele>1074</ele>
        <time>2016-06-18T20:40:30Z</time>
      </trkpt>
      <trkpt lat="47.86192" lon="6.91013">
        <ele>1074</ele>
        <time>2016-06-18T20:40:40Z</time>
      </trkpt>
      <trkpt lat="47.86183" lon="6.9101">
        <ele>1075</ele>
        <time>2016-06-18T20:40:51Z</time>
      </trkpt>
      <trkpt lat="47.86178" lon="6.91011">
        <ele>1075</ele>
        <time>2016-06-18T20:40:57Z</time>
      </trkpt>
      <trkpt lat="47.86167" lon="6.91009">
        <ele>1075</ele>
        <time>2016-06-18T20:41:07Z</time>
      </trkpt>
      <trkpt lat="47.86162" lon="6.91007">
        <ele>1081</ele>
        <time>2016-06-18T20:41:11Z</time>
      </trkpt>
      <trkpt lat="47.86152" lon="6.91005">
        <ele>1085</ele>
        <time>2016-06-18T20:41:22Z</time>
      </trkpt>
      <trkpt lat="47.86142" lon="6.91002">
        <ele>1088</ele>
        <time>2016-06-18T20:41:37Z</time>
      </trkpt>
      <trkpt lat="47.86127" lon="6.91004">
        <ele>1092</ele>
        <time>2016-06-18T20:41:50Z</time>
      </trkpt>
      <trkpt lat="47.86112" lon="6.90997">
        <ele>1082</ele>
        <time>2016-06-18T20:42:03Z</time>
      </trkpt>
      <trkpt lat="47.86098" lon="6.90993">
        <ele>1085</ele>
        <time>2016-06-18T20:42:14Z</time>
      </trkpt>
      <trkpt lat="47.86083" lon="6.9099">
        <ele>1093</ele>
        <time>2016-06-18T20:42:28Z</time>
      </trkpt>
      <trkpt lat="47.86068" lon="6.90989">
        <ele>1093</ele>
        <time>2016-06-18T20:42:41Z</time>
      </trkpt>
      <trkpt lat="47.86058" lon="6.9099">
        <ele>1094</ele>
        <time>2016-06-18T20:42:51Z</time>
      </trkpt>
      <trkpt lat="47.86044" lon="6.90985">
        <ele>1095</ele>
        <time>2016-06-18T20:43:02Z</time>
      </trkpt>
      <trkpt lat="47.8603" lon="6.90989">
        <ele>1098</ele>
        <time>2016-06-18T20:43:16Z</time>
      </trkpt>
      <trkpt lat="47.86026" lon="6.90987">
        <ele>1099</ele>
        <time>2016-06-18T20:43:20Z</time>
      </trkpt>
      <trkpt lat="47.86012" lon="6.90981">
        <ele>1100</ele>
        <time>2016-06-18T20:43:40Z</time>
      </trkpt>
      <trkpt lat="47.85997" lon="6.9098">
        <ele>1108</ele>
        <time>2016-06-18T20:43:55Z</time>
      </trkpt>
      <trkpt lat="47.85988" lon="6.90976">
        <ele>1108</ele>
        <time>2016-06-18T20:44:08Z</time>
      </trkpt>
      <trkpt lat="47.85978" lon="6.90974">
        <ele>1108</ele>
        <time>2016-06-18T20:44:19Z</time>
      </trkpt>
      <trkpt lat="47.85964" lon="6.90965">
        <ele>1108</ele>
        <time>2016-06-18T20:44:32Z</time>
      </trkpt>
      <trkpt lat="47.85952" lon="6.90957">
        <ele>1109</ele>
        <time>2016-06-18T20:44:43Z</time>
      </trkpt>
      <trkpt lat="47.85938" lon="6.90953">
        <ele>1109</ele>
        <time>2016-06-18T20:44:57Z</time>
      </trkpt>
      <trkpt lat="47.85925" lon="6.90959">
        <ele>1110</ele>
        <time>2016-06-18T20:45:10Z</time>
      </trkpt>
      <trkpt lat="47.85914" lon="6.90972">
        <ele>1113</ele>
        <time>2016-06-18T20:45:23Z</time>
      </trkpt>
      <trkpt lat="47.85901" lon="6.90981">
        <ele>1114</ele>
        <time>2016-06-18T20:45:35Z</time>
      </trkpt>
      <trkpt lat="47.85888" lon="6.90993">
        <ele>1113</ele>
        <time>2016-06-18T20:45:46Z</time>
      </trkpt>
      <trkpt lat="47.85879" lon="6.91002">
        <ele>1118</ele>
        <time>2016-06-18T20:45:56Z</time>
      </trkpt>
      <trkpt lat="47.8587" lon="6.91011">
        <ele>1118</ele>
        <time>2016-06-18T20:46:07Z</time>
      </trkpt>
      <trkpt lat="47.85857" lon="6.9102">
        <ele>1117</ele>
        <time>2016-06-18T20:46:20Z</time>
      </trkpt>
      <trkpt lat="47.85845" lon="6.91035">
        <ele>1118</ele>
        <time>2016-06-18T20:46:33Z</time>
      </trkpt>
      <trkpt lat="47.85833" lon="6.91047">
        <ele>1110</ele>
        <time>2016-06-18T20:46:47Z</time>
      </trkpt>
      <trkpt lat="47.85824" lon="6.91055">
        <ele>1111</ele>
        <time>2016-06-18T20:46:57Z</time>
      </trkpt>
      <trkpt lat="47.8582" lon="6.9107">
        <ele>1112</ele>
        <time>2016-06-18T20:47:09Z</time>
      </trkpt>
      <trkpt lat="47.85809" lon="6.91086">
        <ele>1116</ele>
        <time>2016-06-18T20:47:21Z</time>
      </trkpt>
      <trkpt lat="47.85798" lon="6.91101">
        <ele>1115</ele>
        <time>2016-06-18T20:47:33Z</time>
      </trkpt>
      <trkpt lat="47.85788" lon="6.91119">
        <ele>1114</ele>
        <time>2016-06-18T20:47:45Z</time>
      </trkpt>
      <trkpt lat="47.85784" lon="6.91133">
        <ele>1115</ele>
        <time>2016-06-18T20:47:52Z</time>
      </trkpt>
      <trkpt lat="47.85773" lon="6.91153">
        <ele>1113</ele>
        <time>2016-06-18T20:48:02Z</time>
      </trkpt>
      <trkpt lat="47.85769" lon="6.9116">
        <ele>1113</ele>
        <time>2016-06-18T20:48:05Z</time>
      </trkpt>
      <trkpt lat="47.85761" lon="6.91172">
        <ele>1114</ele>
        <time>2016-06-18T20:48:15Z</time>
      </trkpt>
      <trkpt lat="47.85751" lon="6.91193">
        <ele>1118</ele>
        <time>2016-06-18T20:48:27Z</time>
      </trkpt>
      <trkpt lat="47.85742" lon="6.91214">
        <ele>1100</ele>
        <time>2016-06-18T20:48:38Z</time>
      </trkpt>
      <trkpt lat="47.85742" lon="6.91222">
        <ele>1101</ele>
        <time>2016-06-18T20:48:44Z</time>
      </trkpt>
      <trkpt lat="47.85734" lon="6.91255">
        <ele>1107</ele>
        <time>2016-06-18T20:48:56Z</time>
      </trkpt>
      <trkpt lat="47.85731" lon="6.91261">
        <ele>1105</ele>
        <time>2016-06-18T20:49:01Z</time>
      </trkpt>
      <trkpt lat="47.85728" lon="6.91275">
        <ele>1103</ele>
        <time>2016-06-18T20:49:11Z</time>
      </trkpt>
      <trkpt lat="47.85723" lon="6.91288">
        <ele>1102</ele>
        <time>2016-06-18T20:49:22Z</time>
      </trkpt>
      <trkpt lat="47.85715" lon="6.91309">
        <ele>1102</ele>
        <time>2016-06-18T20:49:32Z</time>
      </trkpt>
      <trkpt lat="47.85706" lon="6.9133">
        <ele>1100</ele>
        <time>2016-06-18T20:49:42Z</time>
      </trkpt>
      <trkpt lat="47.85699" lon="6.91353">
        <ele>1103</ele>
        <time>2016-06-18T20:49:54Z</time>
      </trkpt>
      <trkpt lat="47.85691" lon="6.91372">
        <ele>1103</ele>
        <time>2016-06-18T20:50:05Z</time>
      </trkpt>
      <trkpt lat="47.85679" lon="6.9139">
        <ele>1101</ele>
        <time>2016-06-18T20:50:15Z</time>
      </trkpt>
      <trkpt lat="47.85675" lon="6.91397">
        <ele>1100</ele>
        <time>2016-06-18T20:50:19Z</time>
      </trkpt>
      <trkpt lat="47.85664" lon="6.91422">
        <ele>1092</ele>
        <time>2016-06-18T20:50:32Z</time>
      </trkpt>
      <trkpt lat="47.85654" lon="6.9144">
        <ele>1089</ele>
        <time>2016-06-18T20:50:44Z</time>
      </trkpt>
      <trkpt lat="47.85644" lon="6.91458">
        <ele>1088</ele>
        <time>2016-06-18T20:50:56Z</time>
      </trkpt>
      <trkpt lat="47.85636" lon="6.91478">
        <ele>1088</ele>
        <time>2016-06-18T20:51:08Z</time>
      </trkpt>
      <trkpt lat="47.85627" lon="6.91504">
        <ele>1092</ele>
        <time>2016-06-18T20:51:22Z</time>
      </trkpt>
      <trkpt lat="47.85621" lon="6.91525">
        <ele>1091</ele>
        <time>2016-06-18T20:51:33Z</time>
      </trkpt>
      <trkpt lat="47.85615" lon="6.91547">
        <ele>1091</ele>
        <time>2016-06-18T20:51:45Z</time>
      </trkpt>
      <trkpt lat="47.85609" lon="6.91569">
        <ele>1091</ele>
        <time>2016-06-18T20:51:56Z</time>
      </trkpt>
      <trkpt lat="47.85606" lon="6.91591">
        <ele>1092</ele>
        <time>2016-06-18T20:52:07Z</time>
      </trkpt>
      <trkpt lat="47.85602" lon="6.91613">
        <ele>1093</ele>
        <time>2016-06-18T20:52:18Z</time>
      </trkpt>
      <trkpt lat="47.85597" lon="6.91636">
        <ele>1093</ele>
        <time>2016-06-18T20:52:32Z</time>
      </trkpt>
      <trkpt lat="47.85594" lon="6.91658">
        <ele>1091</ele>
        <time>2016-06-18T20:52:44Z</time>
      </trkpt>
      <trkpt lat="47.85591" lon="6.91674">
        <ele>1091</ele>
        <time>2016-06-18T20:52:54Z</time>
      </trkpt>
      <trkpt lat="47.85584" lon="6.91695">
        <ele>1095</ele>
        <time>2016-06-18T20:53:05Z</time>
      </trkpt>
      <trkpt lat="47.85576" lon="6.91712">
        <ele>1088</ele>
        <time>2016-06-18T20:53:16Z</time>
      </trkpt>
      <trkpt lat="47.85568" lon="6.91721">
        <ele>1088</ele>
        <time>2016-06-18T20:53:23Z</time>
      </trkpt>
      <trkpt lat="47.8556" lon="6.91717">
        <ele>1088</ele>
        <time>2016-06-18T20:53:34Z</time>
      </trkpt>
      <trkpt lat="47.85551" lon="6.91705">
        <ele>1087</ele>
        <time>2016-06-18T20:53:44Z</time>
      </trkpt>
      <trkpt lat="47.85547" lon="6.91704">
        <ele>1087</ele>
        <time>2016-06-18T20:54:34Z</time>
      </trkpt>
      <trkpt lat="47.85542" lon="6.91703">
        <ele>1087</ele>
        <time>2016-06-18T20:56:19Z</time>
      </trkpt>
      <trkpt lat="47.85547" lon="6.91705">
        <ele>1087</ele>
        <time>2016-06-18T21:02:36Z</time>
      </trkpt>
      <trkpt lat="47.85542" lon="6.91703">
        <ele>1087</ele>
        <time>2016-06-18T21:02:55Z</time>
      </trkpt>
      <trkpt lat="47.85533" lon="6.917">
        <ele>1087</ele>
        <time>2016-06-18T21:03:08Z</time>
      </trkpt>
      <trkpt lat="47.85536" lon="6.91706">
        <ele>1087</ele>
        <time>2016-06-18T21:25:48Z</time>
      </trkpt>
      <trkpt lat="47.85544" lon="6.91714">
        <ele>1087</ele>
        <time>2016-06-18T21:26:00Z</time>
      </trkpt>
      <trkpt lat="47.85546" lon="6.91706">
        <ele>1087</ele>
        <time>2016-06-18T21:26:20Z</time>
      </trkpt>
      <trkpt lat="47.85543" lon="6.91712">
        <ele>1087</ele>
        <time>2016-06-18T21:27:00Z</time>
      </trkpt>
      <trkpt lat="47.85537" lon="6.91705">
        <ele>1087</ele>
        <time>2016-06-18T21:27:14Z</time>
      </trkpt>
      <trkpt lat="47.85534" lon="6.91701">
        <ele>1087</ele>
        <time>2016-06-18T21:28:14Z</time>
      </trkpt>
      <trkpt lat="47.8553" lon="6.91707">
        <ele>1087</ele>
        <time>2016-06-18T21:35:37Z</time>
      </trkpt>
      <trkpt lat="47.85521" lon="6.91723">
        <ele>1087</ele>
        <time>2016-06-18T21:35:49Z</time>
      </trkpt>
      <trkpt lat="47.85511" lon="6.91741">
        <ele>1087</ele>
        <time>2016-06-18T21:36:01Z</time>
      </trkpt>
      <trkpt lat="47.85498" lon="6.91754">
        <ele>1089</ele>
        <time>2016-06-18T21:36:14Z</time>
      </trkpt>
      <trkpt lat="47.85486" lon="6.91768">
        <ele>1093</ele>
        <time>2016-06-18T21:36:27Z</time>
      </trkpt>
      <trkpt lat="47.85476" lon="6.91778">
        <ele>1095</ele>
        <time>2016-06-18T21:36:37Z</time>
      </trkpt>
      <trkpt lat="47.85464" lon="6.91794">
        <ele>1097</ele>
        <time>2016-06-18T21:36:50Z</time>
      </trkpt>
      <trkpt lat="47.85458" lon="6.91803">
        <ele>1098</ele>
        <time>2016-06-18T21:37:02Z</time>
      </trkpt>
      <trkpt lat="47.85452" lon="6.91826">
        <ele>1100</ele>
        <time>2016-06-18T21:37:16Z</time>
      </trkpt>
      <trkpt lat="47.85451" lon="6.9184">
        <ele>1100</ele>
        <time>2016-06-18T21:37:27Z</time>
      </trkpt>
      <trkpt lat="47.85449" lon="6.91853">
        <ele>1100</ele>
        <time>2016-06-18T21:37:37Z</time>
      </trkpt>
      <trkpt lat="47.85445" lon="6.91875">
        <ele>1100</ele>
        <time>2016-06-18T21:37:51Z</time>
      </trkpt>
      <trkpt lat="47.85443" lon="6.91888">
        <ele>1100</ele>
        <time>2016-06-18T21:38:05Z</time>
      </trkpt>
      <trkpt lat="47.85442" lon="6.91897">
        <ele>1101</ele>
        <time>2016-06-18T21:38:15Z</time>
      </trkpt>
      <trkpt lat="47.8544" lon="6.91911">
        <ele>1102</ele>
        <time>2016-06-18T21:38:25Z</time>
      </trkpt>
      <trkpt lat="47.85434" lon="6.91922">
        <ele>1094</ele>
        <time>2016-06-18T21:38:36Z</time>
      </trkpt>
      <trkpt lat="47.8543" lon="6.91926">
        <ele>1095</ele>
        <time>2016-06-18T21:38:46Z</time>
      </trkpt>
      <trkpt lat="47.85418" lon="6.91941">
        <ele>1091</ele>
        <time>2016-06-18T21:38:58Z</time>
      </trkpt>
      <trkpt lat="47.85405" lon="6.91955">
        <ele>1109</ele>
        <time>2016-06-18T21:39:12Z</time>
      </trkpt>
      <trkpt lat="47.85397" lon="6.91963">
        <ele>1109</ele>
        <time>2016-06-18T21:39:22Z</time>
      </trkpt>
      <trkpt lat="47.85393" lon="6.91967">
        <ele>1108</ele>
        <time>2016-06-18T21:39:25Z</time>
      </trkpt>
      <trkpt lat="47.85389" lon="6.9197">
        <ele>1109</ele>
        <time>2016-06-18T21:39:28Z</time>
      </trkpt>
      <trkpt lat="47.85384" lon="6.91974">
        <ele>1109</ele>
        <time>2016-06-18T21:39:36Z</time>
      </trkpt>
      <trkpt lat="47.85375" lon="6.9198">
        <ele>1111</ele>
        <time>2016-06-18T21:39:54Z</time>
      </trkpt>
      <trkpt lat="47.85365" lon="6.91986">
        <ele>1112</ele>
        <time>2016-06-18T21:40:08Z</time>
      </trkpt>
      <trkpt lat="47.85353" lon="6.91999">
        <ele>1115</ele>
        <time>2016-06-18T21:40:19Z</time>
      </trkpt>
      <trkpt lat="47.85339" lon="6.92003">
        <ele>1110</ele>
        <time>2016-06-18T21:40:33Z</time>
      </trkpt>
      <trkpt lat="47.85325" lon="6.92004">
        <ele>1121</ele>
        <time>2016-06-18T21:40:49Z</time>
      </trkpt>
      <trkpt lat="47.8532" lon="6.92011">
        <ele>1123</ele>
        <time>2016-06-18T21:40:54Z</time>
      </trkpt>
      <trkpt lat="47.85316" lon="6.92015">
        <ele>1124</ele>
        <time>2016-06-18T21:40:57Z</time>
      </trkpt>
      <trkpt lat="47.85304" lon="6.92029">
        <ele>1127</ele>
        <time>2016-06-18T21:41:09Z</time>
      </trkpt>
      <trkpt lat="47.85301" lon="6.92034">
        <ele>1127</ele>
        <time>2016-06-18T21:41:17Z</time>
      </trkpt>
      <trkpt lat="47.85297" lon="6.92038">
        <ele>1127</ele>
        <time>2016-06-18T21:41:23Z</time>
      </trkpt>
      <trkpt lat="47.85288" lon="6.92053">
        <ele>1128</ele>
        <time>2016-06-18T21:41:37Z</time>
      </trkpt>
      <trkpt lat="47.8528" lon="6.92063">
        <ele>1129</ele>
        <time>2016-06-18T21:41:48Z</time>
      </trkpt>
      <trkpt lat="47.85277" lon="6.92069">
        <ele>1130</ele>
        <time>2016-06-18T21:41:54Z</time>
      </trkpt>
      <trkpt lat="47.85267" lon="6.92087">
        <ele>1124</ele>
        <time>2016-06-18T21:42:07Z</time>
      </trkpt>
      <trkpt lat="47.85263" lon="6.92098">
        <ele>1123</ele>
        <time>2016-06-18T21:42:25Z</time>
      </trkpt>
      <trkpt lat="47.85256" lon="6.9211">
        <ele>1121</ele>
        <time>2016-06-18T21:42:36Z</time>
      </trkpt>
      <trkpt lat="47.85248" lon="6.9213">
        <ele>1148</ele>
        <time>2016-06-18T21:42:48Z</time>
      </trkpt>
      <trkpt lat="47.85248" lon="6.92137">
        <ele>1147</ele>
        <time>2016-06-18T21:42:52Z</time>
      </trkpt>
      <trkpt lat="47.85249" lon="6.92145">
        <ele>1144</ele>
        <time>2016-06-18T21:42:58Z</time>
      </trkpt>
      <trkpt lat="47.85248" lon="6.92161">
        <ele>1135</ele>
        <time>2016-06-18T21:43:10Z</time>
      </trkpt>
      <trkpt lat="47.85248" lon="6.92173">
        <ele>1132</ele>
        <time>2016-06-18T21:43:20Z</time>
      </trkpt>
      <trkpt lat="47.85247" lon="6.92188">
        <ele>1135</ele>
        <time>2016-06-18T21:43:34Z</time>
      </trkpt>
      <trkpt lat="47.85249" lon="6.92211">
        <ele>1134</ele>
        <time>2016-06-18T21:43:48Z</time>
      </trkpt>
      <trkpt lat="47.85247" lon="6.92217">
        <ele>1133</ele>
        <time>2016-06-18T21:43:59Z</time>
      </trkpt>
      <trkpt lat="47.85239" lon="6.92226">
        <ele>1132</ele>
        <time>2016-06-18T21:44:12Z</time>
      </trkpt>
      <trkpt lat="47.85228" lon="6.92239">
        <ele>1132</ele>
        <time>2016-06-18T21:44:23Z</time>
      </trkpt>
      <trkpt lat="47.85217" lon="6.92254">
        <ele>1117</ele>
        <time>2016-06-18T21:44:32Z</time>
      </trkpt>
      <trkpt lat="47.85203" lon="6.92263">
        <ele>1119</ele>
        <time>2016-06-18T21:44:43Z</time>
      </trkpt>
      <trkpt lat="47.85189" lon="6.92269">
        <ele>1122</ele>
        <time>2016-06-18T21:44:56Z</time>
      </trkpt>
      <trkpt lat="47.85179" lon="6.92273">
        <ele>1124</ele>
        <time>2016-06-18T21:45:06Z</time>
      </trkpt>
      <trkpt lat="47.85174" lon="6.92274">
        <ele>1125</ele>
        <time>2016-06-18T21:45:10Z</time>
      </trkpt>
      <trkpt lat="47.85159" lon="6.92283">
        <ele>1140</ele>
        <time>2016-06-18T21:45:21Z</time>
      </trkpt>
      <trkpt lat="47.85146" lon="6.92295">
        <ele>1138</ele>
        <time>2016-06-18T21:45:33Z</time>
      </trkpt>
      <trkpt lat="47.85144" lon="6.92301">
        <ele>1136</ele>
        <time>2016-06-18T21:45:36Z</time>
      </trkpt>
      <trkpt lat="47.85139" lon="6.92305">
        <ele>1136</ele>
        <time>2016-06-18T21:45:42Z</time>
      </trkpt>
      <trkpt lat="47.85129" lon="6.9231">
        <ele>1138</ele>
        <time>2016-06-18T21:45:52Z</time>
      </trkpt>
      <trkpt lat="47.85117" lon="6.92323">
        <ele>1139</ele>
        <time>2016-06-18T21:46:04Z</time>
      </trkpt>
      <trkpt lat="47.85112" lon="6.92327">
        <ele>1139</ele>
        <time>2016-06-18T21:46:07Z</time>
      </trkpt>
      <trkpt lat="47.851" lon="6.92343">
        <ele>1120</ele>
        <time>2016-06-18T21:46:19Z</time>
      </trkpt>
      <trkpt lat="47.85093" lon="6.92353">
        <ele>1117</ele>
        <time>2016-06-18T21:46:35Z</time>
      </trkpt>
      <trkpt lat="47.85081" lon="6.92367">
        <ele>1126</ele>
        <time>2016-06-18T21:46:46Z</time>
      </trkpt>
      <trkpt lat="47.85067" lon="6.92373">
        <ele>1125</ele>
        <time>2016-06-18T21:46:59Z</time>
      </trkpt>
      <trkpt lat="47.85055" lon="6.9239">
        <ele>1121</ele>
        <time>2016-06-18T21:47:09Z</time>
      </trkpt>
      <trkpt lat="47.85041" lon="6.92397">
        <ele>1122</ele>
        <time>2016-06-18T21:47:20Z</time>
      </trkpt>
      <trkpt lat="47.85033" lon="6.92405">
        <ele>1122</ele>
        <time>2016-06-18T21:47:27Z</time>
      </trkpt>
      <trkpt lat="47.8502" lon="6.92412">
        <ele>1122</ele>
        <time>2016-06-18T21:47:37Z</time>
      </trkpt>
      <trkpt lat="47.85002" lon="6.92418">
        <ele>1117</ele>
        <time>2016-06-18T21:47:50Z</time>
      </trkpt>
      <trkpt lat="47.84998" lon="6.92422">
        <ele>1114</ele>
        <time>2016-06-18T21:47:54Z</time>
      </trkpt>
      <trkpt lat="47.84992" lon="6.92435">
        <ele>1104</ele>
        <time>2016-06-18T21:48:04Z</time>
      </trkpt>
      <trkpt lat="47.84987" lon="6.92437">
        <ele>1102</ele>
        <time>2016-06-18T21:48:09Z</time>
      </trkpt>
      <trkpt lat="47.84977" lon="6.92442">
        <ele>1098</ele>
        <time>2016-06-18T21:48:25Z</time>
      </trkpt>
      <trkpt lat="47.84968" lon="6.92444">
        <ele>1096</ele>
        <time>2016-06-18T21:48:36Z</time>
      </trkpt>
      <trkpt lat="47.84959" lon="6.92445">
        <ele>1095</ele>
        <time>2016-06-18T21:48:46Z</time>
      </trkpt>
      <trkpt lat="47.84944" lon="6.92447">
        <ele>1093</ele>
        <time>2016-06-18T21:48:58Z</time>
      </trkpt>
      <trkpt lat="47.84936" lon="6.92452">
        <ele>1091</ele>
        <time>2016-06-18T21:49:08Z</time>
      </trkpt>
      <trkpt lat="47.84925" lon="6.92457">
        <ele>1090</ele>
        <time>2016-06-18T21:49:18Z</time>
      </trkpt>
      <trkpt lat="47.84912" lon="6.92449">
        <ele>1079</ele>
        <time>2016-06-18T21:49:32Z</time>
      </trkpt>
      <trkpt lat="47.84903" lon="6.92455">
        <ele>1077</ele>
        <time>2016-06-18T21:49:46Z</time>
      </trkpt>
      <trkpt lat="47.84898" lon="6.92457">
        <ele>1076</ele>
        <time>2016-06-18T21:50:12Z</time>
      </trkpt>
      <trkpt lat="47.84884" lon="6.92456">
        <ele>1074</ele>
        <time>2016-06-18T21:50:25Z</time>
      </trkpt>
      <trkpt lat="47.84874" lon="6.92455">
        <ele>1073</ele>
        <time>2016-06-18T21:50:32Z</time>
      </trkpt>
      <trkpt lat="47.84866" lon="6.92464">
        <ele>1072</ele>
        <time>2016-06-18T21:50:42Z</time>
      </trkpt>
      <trkpt lat="47.84864" lon="6.9247">
        <ele>1072</ele>
        <time>2016-06-18T21:51:01Z</time>
      </trkpt>
      <trkpt lat="47.84863" lon="6.92476">
        <ele>1072</ele>
        <time>2016-06-18T21:51:26Z</time>
      </trkpt>
      <trkpt lat="47.84862" lon="6.92483">
        <ele>1072</ele>
        <time>2016-06-18T21:52:14Z</time>
      </trkpt>
      <trkpt lat="47.84863" lon="6.9249">
        <ele>1072</ele>
        <time>2016-06-18T21:53:01Z</time>
      </trkpt>
      <trkpt lat="47.84864" lon="6.92504">
        <ele>1075</ele>
        <time>2016-06-18T21:53:23Z</time>
      </trkpt>
      <trkpt lat="47.84859" lon="6.92505">
        <ele>1074</ele>
        <time>2016-06-18T21:53:43Z</time>
      </trkpt>
      <trkpt lat="47.84849" lon="6.92508">
        <ele>1074</ele>
        <time>2016-06-18T21:53:57Z</time>
      </trkpt>
      <trkpt lat="47.8484" lon="6.92517">
        <ele>1074</ele>
        <time>2016-06-18T21:54:13Z</time>
      </trkpt>
      <trkpt lat="47.84832" lon="6.92525">
        <ele>1073</ele>
        <time>2016-06-18T21:54:36Z</time>
      </trkpt>
      <trkpt lat="47.84836" lon="6.92532">
        <ele>1077</ele>
        <time>2016-06-18T21:54:48Z</time>
      </trkpt>
      <trkpt lat="47.84842" lon="6.92544">
        <ele>1078</ele>
        <time>2016-06-18T21:55:03Z</time>
      </trkpt>
      <trkpt lat="47.84849" lon="6.92558">
        <ele>1080</ele>
        <time>2016-06-18T21:55:14Z</time>
      </trkpt>
      <trkpt lat="47.84854" lon="6.92571">
        <ele>1082</ele>
        <time>2016-06-18T21:55:25Z</time>
      </trkpt>
      <trkpt lat="47.84856" lon="6.92584">
        <ele>1085</ele>
        <time>2016-06-18T21:55:40Z</time>
      </trkpt>
      <trkpt lat="47.84857" lon="6.92599">
        <ele>1084</ele>
        <time>2016-06-18T21:55:52Z</time>
      </trkpt>
      <trkpt lat="47.84854" lon="6.9262">
        <ele>1084</ele>
        <time>2016-06-18T21:56:07Z</time>
      </trkpt>
      <trkpt lat="47.84854" lon="6.92641">
        <ele>1086</ele>
        <time>2016-06-18T21:56:19Z</time>
      </trkpt>
      <trkpt lat="47.84853" lon="6.92648">
        <ele>1087</ele>
        <time>2016-06-18T21:56:24Z</time>
      </trkpt>
      <trkpt lat="47.84853" lon="6.9267">
        <ele>1093</ele>
        <time>2016-06-18T21:56:37Z</time>
      </trkpt>
      <trkpt lat="47.84854" lon="6.92678">
        <ele>1092</ele>
        <time>2016-06-18T21:56:42Z</time>
      </trkpt>
      <trkpt lat="47.84851" lon="6.92699">
        <ele>1092</ele>
        <time>2016-06-18T21:56:52Z</time>
      </trkpt>
      <trkpt lat="47.8485" lon="6.92714">
        <ele>1092</ele>
        <time>2016-06-18T21:57:03Z</time>
      </trkpt>
      <trkpt lat="47.84853" lon="6.92736">
        <ele>1094</ele>
        <time>2016-06-18T21:57:19Z</time>
      </trkpt>
      <trkpt lat="47.84853" lon="6.92752">
        <ele>1102</ele>
        <time>2016-06-18T21:57:29Z</time>
      </trkpt>
      <trkpt lat="47.84854" lon="6.92766">
        <ele>1102</ele>
        <time>2016-06-18T21:57:44Z</time>
      </trkpt>
      <trkpt lat="47.84856" lon="6.9278">
        <ele>1102</ele>
        <time>2016-06-18T21:57:54Z</time>
      </trkpt>
      <trkpt lat="47.84857" lon="6.92804">
        <ele>1104</ele>
        <time>2016-06-18T21:58:14Z</time>
      </trkpt>
      <trkpt lat="47.8486" lon="6.92818">
        <ele>1106</ele>
        <time>2016-06-18T21:58:25Z</time>
      </trkpt>
      <trkpt lat="47.8486" lon="6.9284">
        <ele>1114</ele>
        <time>2016-06-18T21:58:36Z</time>
      </trkpt>
      <trkpt lat="47.8486" lon="6.92863">
        <ele>1114</ele>
        <time>2016-06-18T21:58:47Z</time>
      </trkpt>
      <trkpt lat="47.84856" lon="6.92883">
        <ele>1116</ele>
        <time>2016-06-18T21:58:58Z</time>
      </trkpt>
      <trkpt lat="47.84851" lon="6.92904">
        <ele>1119</ele>
        <time>2016-06-18T21:59:12Z</time>
      </trkpt>
      <trkpt lat="47.84849" lon="6.92918">
        <ele>1125</ele>
        <time>2016-06-18T21:59:23Z</time>
      </trkpt>
      <trkpt lat="47.84848" lon="6.92934">
        <ele>1124</ele>
        <time>2016-06-18T21:59:35Z</time>
      </trkpt>
      <trkpt lat="47.84847" lon="6.92948">
        <ele>1124</ele>
        <time>2016-06-18T21:59:45Z</time>
      </trkpt>
      <trkpt lat="47.84844" lon="6.92953">
        <ele>1125</ele>
        <time>2016-06-18T21:59:51Z</time>
      </trkpt>
      <trkpt lat="47.84843" lon="6.92967">
        <ele>1126</ele>
        <time>2016-06-18T22:00:04Z</time>
      </trkpt>
      <trkpt lat="47.84839" lon="6.92983">
        <ele>1129</ele>
        <time>2016-06-18T22:00:17Z</time>
      </trkpt>
      <trkpt lat="47.84837" lon="6.92998">
        <ele>1135</ele>
        <time>2016-06-18T22:00:29Z</time>
      </trkpt>
      <trkpt lat="47.84834" lon="6.9302">
        <ele>1135</ele>
        <time>2016-06-18T22:00:44Z</time>
      </trkpt>
      <trkpt lat="47.84833" lon="6.93034">
        <ele>1140</ele>
        <time>2016-06-18T22:00:56Z</time>
      </trkpt>
      <trkpt lat="47.84833" lon="6.9305">
        <ele>1142</ele>
        <time>2016-06-18T22:01:07Z</time>
      </trkpt>
      <trkpt lat="47.84834" lon="6.93064">
        <ele>1141</ele>
        <time>2016-06-18T22:01:18Z</time>
      </trkpt>
      <trkpt lat="47.8484" lon="6.93084">
        <ele>1151</ele>
        <time>2016-06-18T22:01:32Z</time>
      </trkpt>
      <trkpt lat="47.84847" lon="6.93095">
        <ele>1150</ele>
        <time>2016-06-18T22:01:43Z</time>
      </trkpt>
      <trkpt lat="47.8485" lon="6.93107">
        <ele>1151</ele>
        <time>2016-06-18T22:01:58Z</time>
      </trkpt>
      <trkpt lat="47.84856" lon="6.93119">
        <ele>1151</ele>
        <time>2016-06-18T22:02:11Z</time>
      </trkpt>
      <trkpt lat="47.84859" lon="6.93125">
        <ele>1152</ele>
        <time>2016-06-18T22:02:14Z</time>
      </trkpt>
      <trkpt lat="47.84866" lon="6.93136">
        <ele>1152</ele>
        <time>2016-06-18T22:02:25Z</time>
      </trkpt>
      <trkpt lat="47.84868" lon="6.93142">
        <ele>1153</ele>
        <time>2016-06-18T22:02:28Z</time>
      </trkpt>
      <trkpt lat="47.84874" lon="6.93157">
        <ele>1153</ele>
        <time>2016-06-18T22:02:38Z</time>
      </trkpt>
      <trkpt lat="47.84878" lon="6.93171">
        <ele>1163</ele>
        <time>2016-06-18T22:02:52Z</time>
      </trkpt>
      <trkpt lat="47.84882" lon="6.93177">
        <ele>1163</ele>
        <time>2016-06-18T22:02:56Z</time>
      </trkpt>
      <trkpt lat="47.84887" lon="6.93192">
        <ele>1164</ele>
        <time>2016-06-18T22:03:06Z</time>
      </trkpt>
      <trkpt lat="47.8489" lon="6.93207">
        <ele>1165</ele>
        <time>2016-06-18T22:03:17Z</time>
      </trkpt>
      <trkpt lat="47.84891" lon="6.93214">
        <ele>1166</ele>
        <time>2016-06-18T22:03:26Z</time>
      </trkpt>
      <trkpt lat="47.84895" lon="6.93237">
        <ele>1168</ele>
        <time>2016-06-18T22:03:40Z</time>
      </trkpt>
      <trkpt lat="47.84899" lon="6.93252">
        <ele>1173</ele>
        <time>2016-06-18T22:03:52Z</time>
      </trkpt>
      <trkpt lat="47.84903" lon="6.93265">
        <ele>1173</ele>
        <time>2016-06-18T22:04:03Z</time>
      </trkpt>
      <trkpt lat="47.84908" lon="6.93281">
        <ele>1174</ele>
        <time>2016-06-18T22:04:13Z</time>
      </trkpt>
      <trkpt lat="47.84912" lon="6.93295">
        <ele>1175</ele>
        <time>2016-06-18T22:04:24Z</time>
      </trkpt>
      <trkpt lat="47.84913" lon="6.93302">
        <ele>1175</ele>
        <time>2016-06-18T22:04:27Z</time>
      </trkpt>
      <trkpt lat="47.84918" lon="6.93325">
        <ele>1170</ele>
        <time>2016-06-18T22:04:38Z</time>
      </trkpt>
      <trkpt lat="47.84922" lon="6.93346">
        <ele>1171</ele>
        <time>2016-06-18T22:04:50Z</time>
      </trkpt>
      <trkpt lat="47.84922" lon="6.9336">
        <ele>1169</ele>
        <time>2016-06-18T22:05:00Z</time>
      </trkpt>
      <trkpt lat="47.84922" lon="6.93385">
        <ele>1169</ele>
        <time>2016-06-18T22:05:16Z</time>
      </trkpt>
      <trkpt lat="47.84927" lon="6.9341">
        <ele>1173</ele>
        <time>2016-06-18T22:05:28Z</time>
      </trkpt>
      <trkpt lat="47.84935" lon="6.93431">
        <ele>1173</ele>
        <time>2016-06-18T22:05:41Z</time>
      </trkpt>
      <trkpt lat="47.84938" lon="6.93445">
        <ele>1172</ele>
        <time>2016-06-18T22:05:49Z</time>
      </trkpt>
      <trkpt lat="47.84947" lon="6.93464">
        <ele>1171</ele>
        <time>2016-06-18T22:06:02Z</time>
      </trkpt>
      <trkpt lat="47.84952" lon="6.93485">
        <ele>1171</ele>
        <time>2016-06-18T22:06:12Z</time>
      </trkpt>
      <trkpt lat="47.84959" lon="6.93505">
        <ele>1171</ele>
        <time>2016-06-18T22:06:24Z</time>
      </trkpt>
      <trkpt lat="47.84964" lon="6.93516">
        <ele>1171</ele>
        <time>2016-06-18T22:06:35Z</time>
      </trkpt>
      <trkpt lat="47.84969" lon="6.93532">
        <ele>1171</ele>
        <time>2016-06-18T22:06:45Z</time>
      </trkpt>
      <trkpt lat="47.84975" lon="6.93545">
        <ele>1171</ele>
        <time>2016-06-18T22:06:57Z</time>
      </trkpt>
      <trkpt lat="47.84986" lon="6.93563">
        <ele>1173</ele>
        <time>2016-06-18T22:07:08Z</time>
      </trkpt>
      <trkpt lat="47.84991" lon="6.93579">
        <ele>1175</ele>
        <time>2016-06-18T22:07:16Z</time>
      </trkpt>
      <trkpt lat="47.85" lon="6.936">
        <ele>1175</ele>
        <time>2016-06-18T22:07:27Z</time>
      </trkpt>
      <trkpt lat="47.85005" lon="6.93613">
        <ele>1174</ele>
        <time>2016-06-18T22:07:36Z</time>
      </trkpt>
      <trkpt lat="47.85014" lon="6.93633">
        <ele>1174</ele>
        <time>2016-06-18T22:07:47Z</time>
      </trkpt>
      <trkpt lat="47.85021" lon="6.93653">
        <ele>1174</ele>
        <time>2016-06-18T22:07:56Z</time>
      </trkpt>
      <trkpt lat="47.85028" lon="6.93672">
        <ele>1176</ele>
        <time>2016-06-18T22:08:14Z</time>
      </trkpt>
      <trkpt lat="47.85041" lon="6.93688">
        <ele>1176</ele>
        <time>2016-06-18T22:08:24Z</time>
      </trkpt>
      <trkpt lat="47.85047" lon="6.937">
        <ele>1176</ele>
        <time>2016-06-18T22:08:32Z</time>
      </trkpt>
      <trkpt lat="47.85058" lon="6.93719">
        <ele>1176</ele>
        <time>2016-06-18T22:08:45Z</time>
      </trkpt>
      <trkpt lat="47.85066" lon="6.93729">
        <ele>1177</ele>
        <time>2016-06-18T22:08:55Z</time>
      </trkpt>
      <trkpt lat="47.85078" lon="6.93746">
        <ele>1179</ele>
        <time>2016-06-18T22:09:08Z</time>
      </trkpt>
      <trkpt lat="47.85086" lon="6.93764">
        <ele>1176</ele>
        <time>2016-06-18T22:09:19Z</time>
      </trkpt>
      <trkpt lat="47.85088" lon="6.93771">
        <ele>1175</ele>
        <time>2016-06-18T22:09:24Z</time>
      </trkpt>
      <trkpt lat="47.85097" lon="6.9379">
        <ele>1173</ele>
        <time>2016-06-18T22:09:35Z</time>
      </trkpt>
      <trkpt lat="47.85106" lon="6.93808">
        <ele>1173</ele>
        <time>2016-06-18T22:09:48Z</time>
      </trkpt>
      <trkpt lat="47.85112" lon="6.9382">
        <ele>1173</ele>
        <time>2016-06-18T22:09:57Z</time>
      </trkpt>
      <trkpt lat="47.85123" lon="6.93836">
        <ele>1176</ele>
        <time>2016-06-18T22:10:09Z</time>
      </trkpt>
      <trkpt lat="47.85133" lon="6.93854">
        <ele>1176</ele>
        <time>2016-06-18T22:10:20Z</time>
      </trkpt>
      <trkpt lat="47.85141" lon="6.93865">
        <ele>1176</ele>
        <time>2016-06-18T22:10:27Z</time>
      </trkpt>
      <trkpt lat="47.85143" lon="6.93871">
        <ele>1176</ele>
        <time>2016-06-18T22:10:34Z</time>
      </trkpt>
      <trkpt lat="47.85153" lon="6.93889">
        <ele>1176</ele>
        <time>2016-06-18T22:10:48Z</time>
      </trkpt>
      <trkpt lat="47.85158" lon="6.9391">
        <ele>1177</ele>
        <time>2016-06-18T22:10:58Z</time>
      </trkpt>
      <trkpt lat="47.85162" lon="6.93922">
        <ele>1177</ele>
        <time>2016-06-18T22:11:04Z</time>
      </trkpt>
      <trkpt lat="47.85167" lon="6.93944">
        <ele>1166</ele>
        <time>2016-06-18T22:11:16Z</time>
      </trkpt>
      <trkpt lat="47.8517" lon="6.93959">
        <ele>1165</ele>
        <time>2016-06-18T22:11:27Z</time>
      </trkpt>
      <trkpt lat="47.85174" lon="6.93981">
        <ele>1167</ele>
        <time>2016-06-18T22:11:37Z</time>
      </trkpt>
      <trkpt lat="47.85172" lon="6.93989">
        <ele>1169</ele>
        <time>2016-06-18T22:11:41Z</time>
      </trkpt>
      <trkpt lat="47.85171" lon="6.94005">
        <ele>1169</ele>
        <time>2016-06-18T22:11:49Z</time>
      </trkpt>
      <trkpt lat="47.85162" lon="6.94025">
        <ele>1173</ele>
        <time>2016-06-18T22:12:02Z</time>
      </trkpt>
      <trkpt lat="47.85159" lon="6.9403">
        <ele>1172</ele>
        <time>2016-06-18T22:12:10Z</time>
      </trkpt>
      <trkpt lat="47.85151" lon="6.94039">
        <ele>1172</ele>
        <time>2016-06-18T22:12:25Z</time>
      </trkpt>
      <trkpt lat="47.85143" lon="6.94051">
        <ele>1171</ele>
        <time>2016-06-18T22:12:30Z</time>
      </trkpt>
      <trkpt lat="47.85127" lon="6.94074">
        <ele>1171</ele>
        <time>2016-06-18T22:12:44Z</time>
      </trkpt>
      <trkpt lat="47.85115" lon="6.94089">
        <ele>1160</ele>
        <time>2016-06-18T22:12:55Z</time>
      </trkpt>
      <trkpt lat="47.85107" lon="6.94099">
        <ele>1161</ele>
        <time>2016-06-18T22:13:02Z</time>
      </trkpt>
      <trkpt lat="47.85099" lon="6.94115">
        <ele>1159</ele>
        <time>2016-06-18T22:13:13Z</time>
      </trkpt>
      <trkpt lat="47.8509" lon="6.94136">
        <ele>1155</ele>
        <time>2016-06-18T22:13:26Z</time>
      </trkpt>
      <trkpt lat="47.85088" lon="6.94142">
        <ele>1154</ele>
        <time>2016-06-18T22:13:29Z</time>
      </trkpt>
      <trkpt lat="47.85083" lon="6.94154">
        <ele>1156</ele>
        <time>2016-06-18T22:13:41Z</time>
      </trkpt>
      <trkpt lat="47.85075" lon="6.94165">
        <ele>1155</ele>
        <time>2016-06-18T22:13:52Z</time>
      </trkpt>
      <trkpt lat="47.85066" lon="6.94171">
        <ele>1144</ele>
        <time>2016-06-18T22:13:58Z</time>
      </trkpt>
      <trkpt lat="47.8505" lon="6.94175">
        <ele>1141</ele>
        <time>2016-06-18T22:14:12Z</time>
      </trkpt>
      <trkpt lat="47.85037" lon="6.94185">
        <ele>1140</ele>
        <time>2016-06-18T22:14:26Z</time>
      </trkpt>
      <trkpt lat="47.85032" lon="6.94188">
        <ele>1139</ele>
        <time>2016-06-18T22:14:38Z</time>
      </trkpt>
      <trkpt lat="47.85015" lon="6.94197">
        <ele>1139</ele>
        <time>2016-06-18T22:14:49Z</time>
      </trkpt>
      <trkpt lat="47.85011" lon="6.94201">
        <ele>1138</ele>
        <time>2016-06-18T22:14:58Z</time>
      </trkpt>
      <trkpt lat="47.85006" lon="6.94205">
        <ele>1137</ele>
        <time>2016-06-18T22:15:07Z</time>
      </trkpt>
      <trkpt lat="47.84993" lon="6.94215">
        <ele>1135</ele>
        <time>2016-06-18T22:15:18Z</time>
      </trkpt>
      <trkpt lat="47.84982" lon="6.94224">
        <ele>1133</ele>
        <time>2016-06-18T22:15:28Z</time>
      </trkpt>
      <trkpt lat="47.84967" lon="6.9423">
        <ele>1133</ele>
        <time>2016-06-18T22:15:39Z</time>
      </trkpt>
      <trkpt lat="47.84952" lon="6.94238">
        <ele>1132</ele>
        <time>2016-06-18T22:15:54Z</time>
      </trkpt>
      <trkpt lat="47.84939" lon="6.9425">
        <ele>1121</ele>
        <time>2016-06-18T22:16:07Z</time>
      </trkpt>
      <trkpt lat="47.8493" lon="6.94268">
        <ele>1121</ele>
        <time>2016-06-18T22:16:17Z</time>
      </trkpt>
      <trkpt lat="47.84919" lon="6.94285">
        <ele>1118</ele>
        <time>2016-06-18T22:16:29Z</time>
      </trkpt>
      <trkpt lat="47.84914" lon="6.9429">
        <ele>1125</ele>
        <time>2016-06-18T22:16:33Z</time>
      </trkpt>
      <trkpt lat="47.84908" lon="6.943">
        <ele>1124</ele>
        <time>2016-06-18T22:16:45Z</time>
      </trkpt>
      <trkpt lat="47.84901" lon="6.94311">
        <ele>1123</ele>
        <time>2016-06-18T22:16:52Z</time>
      </trkpt>
      <trkpt lat="47.84892" lon="6.94329">
        <ele>1123</ele>
        <time>2016-06-18T22:17:04Z</time>
      </trkpt>
      <trkpt lat="47.84882" lon="6.94347">
        <ele>1117</ele>
        <time>2016-06-18T22:17:18Z</time>
      </trkpt>
      <trkpt lat="47.84878" lon="6.94362">
        <ele>1116</ele>
        <time>2016-06-18T22:17:28Z</time>
      </trkpt>
      <trkpt lat="47.84871" lon="6.94381">
        <ele>1115</ele>
        <time>2016-06-18T22:17:40Z</time>
      </trkpt>
      <trkpt lat="47.84866" lon="6.944">
        <ele>1115</ele>
        <time>2016-06-18T22:17:52Z</time>
      </trkpt>
      <trkpt lat="47.8486" lon="6.94422">
        <ele>1104</ele>
        <time>2016-06-18T22:18:04Z</time>
      </trkpt>
      <trkpt lat="47.84856" lon="6.94436">
        <ele>1103</ele>
        <time>2016-06-18T22:18:14Z</time>
      </trkpt>
      <trkpt lat="47.84847" lon="6.94441">
        <ele>1104</ele>
        <time>2016-06-18T22:18:26Z</time>
      </trkpt>
      <trkpt lat="47.84835" lon="6.94454">
        <ele>1102</ele>
        <time>2016-06-18T22:18:38Z</time>
      </trkpt>
      <trkpt lat="47.84828" lon="6.94464">
        <ele>1110</ele>
        <time>2016-06-18T22:18:48Z</time>
      </trkpt>
      <trkpt lat="47.84822" lon="6.94475">
        <ele>1108</ele>
        <time>2016-06-18T22:18:54Z</time>
      </trkpt>
      <trkpt lat="47.84817" lon="6.94488">
        <ele>1106</ele>
        <time>2016-06-18T22:19:04Z</time>
      </trkpt>
      <trkpt lat="47.8481" lon="6.94499">
        <ele>1106</ele>
        <time>2016-06-18T22:19:14Z</time>
      </trkpt>
      <trkpt lat="47.84804" lon="6.94512">
        <ele>1094</ele>
        <time>2016-06-18T22:19:26Z</time>
      </trkpt>
      <trkpt lat="47.84796" lon="6.9453">
        <ele>1091</ele>
        <time>2016-06-18T22:19:38Z</time>
      </trkpt>
      <trkpt lat="47.84792" lon="6.94543">
        <ele>1089</ele>
        <time>2016-06-18T22:19:48Z</time>
      </trkpt>
      <trkpt lat="47.84788" lon="6.94559">
        <ele>1088</ele>
        <time>2016-06-18T22:20:00Z</time>
      </trkpt>
      <trkpt lat="47.84783" lon="6.9457">
        <ele>1087</ele>
        <time>2016-06-18T22:20:11Z</time>
      </trkpt>
      <trkpt lat="47.84776" lon="6.9458">
        <ele>1086</ele>
        <time>2016-06-18T22:20:21Z</time>
      </trkpt>
      <trkpt lat="47.84779" lon="6.94595">
        <ele>1072</ele>
        <time>2016-06-18T22:20:37Z</time>
      </trkpt>
      <trkpt lat="47.84776" lon="6.94616">
        <ele>1069</ele>
        <time>2016-06-18T22:20:54Z</time>
      </trkpt>
      <trkpt lat="47.84785" lon="6.94616">
        <ele>1068</ele>
        <time>2016-06-18T22:21:06Z</time>
      </trkpt>
      <trkpt lat="47.84785" lon="6.94624">
        <ele>1067</ele>
        <time>2016-06-18T22:21:16Z</time>
      </trkpt>
      <trkpt lat="47.84785" lon="6.94631">
        <ele>1066</ele>
        <time>2016-06-18T22:21:25Z</time>
      </trkpt>
      <trkpt lat="47.84789" lon="6.94629">
        <ele>1066</ele>
        <time>2016-06-18T22:21:40Z</time>
      </trkpt>
      <trkpt lat="47.8479" lon="6.94643">
        <ele>1064</ele>
        <time>2016-06-18T22:21:57Z</time>
      </trkpt>
      <trkpt lat="47.84786" lon="6.94656">
        <ele>1063</ele>
        <time>2016-06-18T22:22:07Z</time>
      </trkpt>
      <trkpt lat="47.84787" lon="6.94679">
        <ele>1049</ele>
        <time>2016-06-18T22:22:23Z</time>
      </trkpt>
      <trkpt lat="47.84785" lon="6.94686">
        <ele>1049</ele>
        <time>2016-06-18T22:22:29Z</time>
      </trkpt>
      <trkpt lat="47.84787" lon="6.94707">
        <ele>1047</ele>
        <time>2016-06-18T22:22:42Z</time>
      </trkpt>
      <trkpt lat="47.84785" lon="6.94714">
        <ele>1047</ele>
        <time>2016-06-18T22:22:45Z</time>
      </trkpt>
      <trkpt lat="47.8478" lon="6.94738">
        <ele>1046</ele>
        <time>2016-06-18T22:22:58Z</time>
      </trkpt>
      <trkpt lat="47.84778" lon="6.94745">
        <ele>1046</ele>
        <time>2016-06-18T22:23:02Z</time>
      </trkpt>
      <trkpt lat="47.8477" lon="6.94764">
        <ele>1040</ele>
        <time>2016-06-18T22:23:15Z</time>
      </trkpt>
      <trkpt lat="47.84763" lon="6.94782">
        <ele>1039</ele>
        <time>2016-06-18T22:23:27Z</time>
      </trkpt>
      <trkpt lat="47.8476" lon="6.94788">
        <ele>1039</ele>
        <time>2016-06-18T22:23:31Z</time>
      </trkpt>
      <trkpt lat="47.84754" lon="6.94801">
        <ele>1039</ele>
        <time>2016-06-18T22:23:41Z</time>
      </trkpt>
      <trkpt lat="47.84747" lon="6.94821">
        <ele>1044</ele>
        <time>2016-06-18T22:23:52Z</time>
      </trkpt>
      <trkpt lat="47.84746" lon="6.94844">
        <ele>1046</ele>
        <time>2016-06-18T22:24:06Z</time>
      </trkpt>
      <trkpt lat="47.84748" lon="6.94865">
        <ele>1048</ele>
        <time>2016-06-18T22:24:18Z</time>
      </trkpt>
      <trkpt lat="47.84749" lon="6.94879">
        <ele>1048</ele>
        <time>2016-06-18T22:24:28Z</time>
      </trkpt>
      <trkpt lat="47.84747" lon="6.94885">
        <ele>1049</ele>
        <time>2016-06-18T22:24:33Z</time>
      </trkpt>
      <trkpt lat="47.84746" lon="6.949">
        <ele>1050</ele>
        <time>2016-06-18T22:24:47Z</time>
      </trkpt>
      <trkpt lat="47.84748" lon="6.94922">
        <ele>1052</ele>
        <time>2016-06-18T22:25:00Z</time>
      </trkpt>
      <trkpt lat="47.8475" lon="6.94945">
        <ele>1039</ele>
        <time>2016-06-18T22:25:13Z</time>
      </trkpt>
      <trkpt lat="47.84752" lon="6.94952">
        <ele>1038</ele>
        <time>2016-06-18T22:25:17Z</time>
      </trkpt>
      <trkpt lat="47.84753" lon="6.9497">
        <ele>1039</ele>
        <time>2016-06-18T22:25:27Z</time>
      </trkpt>
      <trkpt lat="47.84754" lon="6.94986">
        <ele>1044</ele>
        <time>2016-06-18T22:25:38Z</time>
      </trkpt>
      <trkpt lat="47.84756" lon="6.95001">
        <ele>1049</ele>
        <time>2016-06-18T22:25:51Z</time>
      </trkpt>
      <trkpt lat="47.8475" lon="6.95021">
        <ele>1053</ele>
        <time>2016-06-18T22:26:03Z</time>
      </trkpt>
      <trkpt lat="47.84745" lon="6.95041">
        <ele>1052</ele>
        <time>2016-06-18T22:26:15Z</time>
      </trkpt>
      <trkpt lat="47.84743" lon="6.95047">
        <ele>1051</ele>
        <time>2016-06-18T22:26:19Z</time>
      </trkpt>
      <trkpt lat="47.84739" lon="6.95062">
        <ele>1050</ele>
        <time>2016-06-18T22:26:29Z</time>
      </trkpt>
      <trkpt lat="47.84737" lon="6.9507">
        <ele>1050</ele>
        <time>2016-06-18T22:26:39Z</time>
      </trkpt>
      <trkpt lat="47.84728" lon="6.95087">
        <ele>1046</ele>
        <time>2016-06-18T22:26:54Z</time>
      </trkpt>
      <trkpt lat="47.84719" lon="6.95105">
        <ele>1046</ele>
        <time>2016-06-18T22:27:07Z</time>
      </trkpt>
      <trkpt lat="47.84716" lon="6.95112">
        <ele>1046</ele>
        <time>2016-06-18T22:27:11Z</time>
      </trkpt>
      <trkpt lat="47.84707" lon="6.95132">
        <ele>1045</ele>
        <time>2016-06-18T22:27:24Z</time>
      </trkpt>
      <trkpt lat="47.84701" lon="6.95146">
        <ele>1045</ele>
        <time>2016-06-18T22:27:34Z</time>
      </trkpt>
      <trkpt lat="47.84701" lon="6.9516">
        <ele>1045</ele>
        <time>2016-06-18T22:27:45Z</time>
      </trkpt>
      <trkpt lat="47.84702" lon="6.95167">
        <ele>1042</ele>
        <time>2016-06-18T22:27:50Z</time>
      </trkpt>
      <trkpt lat="47.847" lon="6.95192">
        <ele>1041</ele>
        <time>2016-06-18T22:28:03Z</time>
      </trkpt>
      <trkpt lat="47.847" lon="6.95214">
        <ele>1041</ele>
        <time>2016-06-18T22:28:16Z</time>
      </trkpt>
      <trkpt lat="47.84698" lon="6.95236">
        <ele>1041</ele>
        <time>2016-06-18T22:28:32Z</time>
      </trkpt>
      <trkpt lat="47.84696" lon="6.95258">
        <ele>1040</ele>
        <time>2016-06-18T22:28:44Z</time>
      </trkpt>
      <trkpt lat="47.84693" lon="6.95274">
        <ele>1040</ele>
        <time>2016-06-18T22:28:56Z</time>
      </trkpt>
      <trkpt lat="47.84692" lon="6.9528">
        <ele>1039</ele>
        <time>2016-06-18T22:29:01Z</time>
      </trkpt>
      <trkpt lat="47.84691" lon="6.95288">
        <ele>1039</ele>
        <time>2016-06-18T22:29:05Z</time>
      </trkpt>
      <trkpt lat="47.84684" lon="6.9531">
        <ele>1041</ele>
        <time>2016-06-18T22:29:18Z</time>
      </trkpt>
      <trkpt lat="47.84681" lon="6.9533">
        <ele>1044</ele>
        <time>2016-06-18T22:29:31Z</time>
      </trkpt>
      <trkpt lat="47.84676" lon="6.95351">
        <ele>1043</ele>
        <time>2016-06-18T22:29:41Z</time>
      </trkpt>
      <trkpt lat="47.84675" lon="6.95358">
        <ele>1042</ele>
        <time>2016-06-18T22:29:44Z</time>
      </trkpt>
      <trkpt lat="47.84673" lon="6.95364">
        <ele>1041</ele>
        <time>2016-06-18T22:29:47Z</time>
      </trkpt>
      <trkpt lat="47.84667" lon="6.95386">
        <ele>1042</ele>
        <time>2016-06-18T22:29:59Z</time>
      </trkpt>
      <trkpt lat="47.84668" lon="6.95402">
        <ele>1045</ele>
        <time>2016-06-18T22:30:10Z</time>
      </trkpt>
      <trkpt lat="47.84665" lon="6.95416">
        <ele>1053</ele>
        <time>2016-06-18T22:30:19Z</time>
      </trkpt>
      <trkpt lat="47.84668" lon="6.95436">
        <ele>1046</ele>
        <time>2016-06-18T22:30:33Z</time>
      </trkpt>
      <trkpt lat="47.84672" lon="6.9545">
        <ele>1045</ele>
        <time>2016-06-18T22:30:43Z</time>
      </trkpt>
      <trkpt lat="47.84673" lon="6.95466">
        <ele>1046</ele>
        <time>2016-06-18T22:30:54Z</time>
      </trkpt>
      <trkpt lat="47.84675" lon="6.95488">
        <ele>1051</ele>
        <time>2016-06-18T22:31:08Z</time>
      </trkpt>
      <trkpt lat="47.84675" lon="6.95508">
        <ele>1055</ele>
        <time>2016-06-18T22:31:20Z</time>
      </trkpt>
      <trkpt lat="47.84676" lon="6.9553">
        <ele>1051</ele>
        <time>2016-06-18T22:31:34Z</time>
      </trkpt>
      <trkpt lat="47.84674" lon="6.95545">
        <ele>1051</ele>
        <time>2016-06-18T22:31:44Z</time>
      </trkpt>
      <trkpt lat="47.84671" lon="6.95567">
        <ele>1057</ele>
        <time>2016-06-18T22:31:56Z</time>
      </trkpt>
      <trkpt lat="47.84672" lon="6.95575">
        <ele>1060</ele>
        <time>2016-06-18T22:32:00Z</time>
      </trkpt>
      <trkpt lat="47.84674" lon="6.95598">
        <ele>1060</ele>
        <time>2016-06-18T22:32:14Z</time>
      </trkpt>
      <trkpt lat="47.84679" lon="6.95619">
        <ele>1057</ele>
        <time>2016-06-18T22:32:26Z</time>
      </trkpt>
      <trkpt lat="47.84681" lon="6.95635">
        <ele>1058</ele>
        <time>2016-06-18T22:32:37Z</time>
      </trkpt>
      <trkpt lat="47.84687" lon="6.95648">
        <ele>1059</ele>
        <time>2016-06-18T22:32:47Z</time>
      </trkpt>
      <trkpt lat="47.84687" lon="6.95657">
        <ele>1061</ele>
        <time>2016-06-18T22:32:51Z</time>
      </trkpt>
      <trkpt lat="47.84691" lon="6.95671">
        <ele>1066</ele>
        <time>2016-06-18T22:33:04Z</time>
      </trkpt>
      <trkpt lat="47.84695" lon="6.95685">
        <ele>1064</ele>
        <time>2016-06-18T22:33:11Z</time>
      </trkpt>
      <trkpt lat="47.84696" lon="6.95698">
        <ele>1064</ele>
        <time>2016-06-18T22:33:20Z</time>
      </trkpt>
      <trkpt lat="47.84697" lon="6.95712">
        <ele>1065</ele>
        <time>2016-06-18T22:33:35Z</time>
      </trkpt>
      <trkpt lat="47.84706" lon="6.95723">
        <ele>1063</ele>
        <time>2016-06-18T22:33:45Z</time>
      </trkpt>
      <trkpt lat="47.84708" lon="6.95729">
        <ele>1063</ele>
        <time>2016-06-18T22:33:48Z</time>
      </trkpt>
      <trkpt lat="47.84716" lon="6.95749">
        <ele>1061</ele>
        <time>2016-06-18T22:33:59Z</time>
      </trkpt>
      <trkpt lat="47.84718" lon="6.95765">
        <ele>1066</ele>
        <time>2016-06-18T22:34:08Z</time>
      </trkpt>
      <trkpt lat="47.84725" lon="6.95783">
        <ele>1066</ele>
        <time>2016-06-18T22:34:22Z</time>
      </trkpt>
      <trkpt lat="47.84728" lon="6.95789">
        <ele>1066</ele>
        <time>2016-06-18T22:34:27Z</time>
      </trkpt>
      <trkpt lat="47.84735" lon="6.95806">
        <ele>1064</ele>
        <time>2016-06-18T22:34:41Z</time>
      </trkpt>
      <trkpt lat="47.84742" lon="6.95827">
        <ele>1060</ele>
        <time>2016-06-18T22:34:53Z</time>
      </trkpt>
      <trkpt lat="47.8475" lon="6.95846">
        <ele>1059</ele>
        <time>2016-06-18T22:35:05Z</time>
      </trkpt>
      <trkpt lat="47.84754" lon="6.95866">
        <ele>1035</ele>
        <time>2016-06-18T22:35:18Z</time>
      </trkpt>
      <trkpt lat="47.8475" lon="6.9588">
        <ele>1059</ele>
        <time>2016-06-18T22:35:25Z</time>
      </trkpt>
      <trkpt lat="47.84749" lon="6.95894">
        <ele>1056</ele>
        <time>2016-06-18T22:35:52Z</time>
      </trkpt>
      <trkpt lat="47.84744" lon="6.95892">
        <ele>1057</ele>
        <time>2016-06-18T22:36:03Z</time>
      </trkpt>
      <trkpt lat="47.8473" lon="6.95896">
        <ele>1059</ele>
        <time>2016-06-18T22:36:16Z</time>
      </trkpt>
      <trkpt lat="47.84719" lon="6.95901">
        <ele>1061</ele>
        <time>2016-06-18T22:36:26Z</time>
      </trkpt>
      <trkpt lat="47.84714" lon="6.95901">
        <ele>1063</ele>
        <time>2016-06-18T22:36:34Z</time>
      </trkpt>
      <trkpt lat="47.847" lon="6.95903">
        <ele>1066</ele>
        <time>2016-06-18T22:36:47Z</time>
      </trkpt>
      <trkpt lat="47.84684" lon="6.9591">
        <ele>1070</ele>
        <time>2016-06-18T22:37:02Z</time>
      </trkpt>
      <trkpt lat="47.84674" lon="6.95916">
        <ele>1072</ele>
        <time>2016-06-18T22:37:12Z</time>
      </trkpt>
      <trkpt lat="47.84661" lon="6.95928">
        <ele>1071</ele>
        <time>2016-06-18T22:37:23Z</time>
      </trkpt>
      <trkpt lat="47.84657" lon="6.9593">
        <ele>1071</ele>
        <time>2016-06-18T22:37:27Z</time>
      </trkpt>
      <trkpt lat="47.84645" lon="6.95947">
        <ele>1068</ele>
        <time>2016-06-18T22:37:38Z</time>
      </trkpt>
      <trkpt lat="47.84641" lon="6.95952">
        <ele>1067</ele>
        <time>2016-06-18T22:37:42Z</time>
      </trkpt>
      <trkpt lat="47.84635" lon="6.95964">
        <ele>1065</ele>
        <time>2016-06-18T22:37:52Z</time>
      </trkpt>
      <trkpt lat="47.84631" lon="6.95969">
        <ele>1065</ele>
        <time>2016-06-18T22:37:58Z</time>
      </trkpt>
      <trkpt lat="47.8462" lon="6.95983">
        <ele>1065</ele>
        <time>2016-06-18T22:38:10Z</time>
      </trkpt>
      <trkpt lat="47.84614" lon="6.95996">
        <ele>1065</ele>
        <time>2016-06-18T22:38:20Z</time>
      </trkpt>
      <trkpt lat="47.84606" lon="6.96018">
        <ele>1047</ele>
        <time>2016-06-18T22:38:32Z</time>
      </trkpt>
      <trkpt lat="47.84597" lon="6.96036">
        <ele>1044</ele>
        <time>2016-06-18T22:38:45Z</time>
      </trkpt>
      <trkpt lat="47.84584" lon="6.96047">
        <ele>1041</ele>
        <time>2016-06-18T22:38:57Z</time>
      </trkpt>
      <trkpt lat="47.84575" lon="6.96056">
        <ele>1049</ele>
        <time>2016-06-18T22:39:07Z</time>
      </trkpt>
      <trkpt lat="47.84561" lon="6.96063">
        <ele>1048</ele>
        <time>2016-06-18T22:39:21Z</time>
      </trkpt>
      <trkpt lat="47.84556" lon="6.96066">
        <ele>1049</ele>
        <time>2016-06-18T22:39:25Z</time>
      </trkpt>
      <trkpt lat="47.84547" lon="6.96068">
        <ele>1050</ele>
        <time>2016-06-18T22:39:34Z</time>
      </trkpt>
      <trkpt lat="47.84532" lon="6.96079">
        <ele>1050</ele>
        <time>2016-06-18T22:39:47Z</time>
      </trkpt>
      <trkpt lat="47.84518" lon="6.96088">
        <ele>1035</ele>
        <time>2016-06-18T22:39:59Z</time>
      </trkpt>
      <trkpt lat="47.84514" lon="6.96092">
        <ele>1036</ele>
        <time>2016-06-18T22:40:02Z</time>
      </trkpt>
      <trkpt lat="47.845" lon="6.96101">
        <ele>1035</ele>
        <time>2016-06-18T22:40:14Z</time>
      </trkpt>
      <trkpt lat="47.84496" lon="6.96107">
        <ele>1043</ele>
        <time>2016-06-18T22:40:17Z</time>
      </trkpt>
      <trkpt lat="47.84488" lon="6.96118">
        <ele>1041</ele>
        <time>2016-06-18T22:40:25Z</time>
      </trkpt>
      <trkpt lat="47.84476" lon="6.96136">
        <ele>1038</ele>
        <time>2016-06-18T22:40:36Z</time>
      </trkpt>
      <trkpt lat="47.84469" lon="6.96148">
        <ele>1037</ele>
        <time>2016-06-18T22:40:44Z</time>
      </trkpt>
      <trkpt lat="47.84461" lon="6.96169">
        <ele>1024</ele>
        <time>2016-06-18T22:40:53Z</time>
      </trkpt>
      <trkpt lat="47.84451" lon="6.96184">
        <ele>1026</ele>
        <time>2016-06-18T22:41:05Z</time>
      </trkpt>
      <trkpt lat="47.84442" lon="6.96204">
        <ele>1024</ele>
        <time>2016-06-18T22:41:17Z</time>
      </trkpt>
      <trkpt lat="47.84439" lon="6.96221">
        <ele>1022</ele>
        <time>2016-06-18T22:41:25Z</time>
      </trkpt>
      <trkpt lat="47.84433" lon="6.96233">
        <ele>1023</ele>
        <time>2016-06-18T22:41:35Z</time>
      </trkpt>
      <trkpt lat="47.84424" lon="6.96251">
        <ele>1019</ele>
        <time>2016-06-18T22:41:45Z</time>
      </trkpt>
      <trkpt lat="47.84416" lon="6.96272">
        <ele>1023</ele>
        <time>2016-06-18T22:41:56Z</time>
      </trkpt>
      <trkpt lat="47.84412" lon="6.96286">
        <ele>1020</ele>
        <time>2016-06-18T22:42:02Z</time>
      </trkpt>
      <trkpt lat="47.84404" lon="6.96303">
        <ele>1018</ele>
        <time>2016-06-18T22:42:13Z</time>
      </trkpt>
      <trkpt lat="47.84395" lon="6.96322">
        <ele>1015</ele>
        <time>2016-06-18T22:42:28Z</time>
      </trkpt>
      <trkpt lat="47.84392" lon="6.96329">
        <ele>1015</ele>
        <time>2016-06-18T22:42:31Z</time>
      </trkpt>
      <trkpt lat="47.84386" lon="6.9635">
        <ele>1007</ele>
        <time>2016-06-18T22:42:43Z</time>
      </trkpt>
      <trkpt lat="47.84382" lon="6.96365">
        <ele>1007</ele>
        <time>2016-06-18T22:42:54Z</time>
      </trkpt>
      <trkpt lat="47.8438" lon="6.96389">
        <ele>1005</ele>
        <time>2016-06-18T22:43:08Z</time>
      </trkpt>
      <trkpt lat="47.84378" lon="6.96402">
        <ele>1005</ele>
        <time>2016-06-18T22:43:18Z</time>
      </trkpt>
      <trkpt lat="47.84373" lon="6.96435">
        <ele>997</ele>
        <time>2016-06-18T22:43:29Z</time>
      </trkpt>
      <trkpt lat="47.84368" lon="6.96454">
        <ele>996</ele>
        <time>2016-06-18T22:43:40Z</time>
      </trkpt>
      <trkpt lat="47.84362" lon="6.9647">
        <ele>996</ele>
        <time>2016-06-18T22:43:48Z</time>
      </trkpt>
      <trkpt lat="47.84357" lon="6.9649">
        <ele>996</ele>
        <time>2016-06-18T22:43:59Z</time>
      </trkpt>
      <trkpt lat="47.84346" lon="6.96515">
        <ele>987</ele>
        <time>2016-06-18T22:44:11Z</time>
      </trkpt>
      <trkpt lat="47.84338" lon="6.96523">
        <ele>986</ele>
        <time>2016-06-18T22:44:21Z</time>
      </trkpt>
      <trkpt lat="47.84325" lon="6.96533">
        <ele>991</ele>
        <time>2016-06-18T22:44:36Z</time>
      </trkpt>
      <trkpt lat="47.8432" lon="6.96535">
        <ele>991</ele>
        <time>2016-06-18T22:44:40Z</time>
      </trkpt>
      <trkpt lat="47.84315" lon="6.96537">
        <ele>990</ele>
        <time>2016-06-18T22:44:46Z</time>
      </trkpt>
      <trkpt lat="47.84303" lon="6.96547">
        <ele>989</ele>
        <time>2016-06-18T22:45:00Z</time>
      </trkpt>
      <trkpt lat="47.84289" lon="6.96557">
        <ele>988</ele>
        <time>2016-06-18T22:45:12Z</time>
      </trkpt>
      <trkpt lat="47.84275" lon="6.96569">
        <ele>988</ele>
        <time>2016-06-18T22:45:22Z</time>
      </trkpt>
      <trkpt lat="47.84271" lon="6.96571">
        <ele>988</ele>
        <time>2016-06-18T22:45:25Z</time>
      </trkpt>
      <trkpt lat="47.8426" lon="6.96576">
        <ele>988</ele>
        <time>2016-06-18T22:45:37Z</time>
      </trkpt>
      <trkpt lat="47.84246" lon="6.96583">
        <ele>987</ele>
        <time>2016-06-18T22:45:46Z</time>
      </trkpt>
      <trkpt lat="47.84231" lon="6.96593">
        <ele>985</ele>
        <time>2016-06-18T22:45:58Z</time>
      </trkpt>
      <trkpt lat="47.84223" lon="6.96599">
        <ele>984</ele>
        <time>2016-06-18T22:46:08Z</time>
      </trkpt>
      <trkpt lat="47.84212" lon="6.96605">
        <ele>984</ele>
        <time>2016-06-18T22:46:17Z</time>
      </trkpt>
      <trkpt lat="47.84205" lon="6.96618">
        <ele>984</ele>
        <time>2016-06-18T22:46:28Z</time>
      </trkpt>
      <trkpt lat="47.84195" lon="6.96633">
        <ele>985</ele>
        <time>2016-06-18T22:46:43Z</time>
      </trkpt>
      <trkpt lat="47.8419" lon="6.96645">
        <ele>986</ele>
        <time>2016-06-18T22:46:53Z</time>
      </trkpt>
      <trkpt lat="47.84188" lon="6.96652">
        <ele>986</ele>
        <time>2016-06-18T22:46:58Z</time>
      </trkpt>
      <trkpt lat="47.84183" lon="6.96673">
        <ele>985</ele>
        <time>2016-06-18T22:47:12Z</time>
      </trkpt>
      <trkpt lat="47.84174" lon="6.96693">
        <ele>984</ele>
        <time>2016-06-18T22:47:26Z</time>
      </trkpt>
      <trkpt lat="47.84169" lon="6.96707">
        <ele>983</ele>
        <time>2016-06-18T22:47:36Z</time>
      </trkpt>
      <trkpt lat="47.84165" lon="6.96728">
        <ele>993</ele>
        <time>2016-06-18T22:47:46Z</time>
      </trkpt>
      <trkpt lat="47.8416" lon="6.96741">
        <ele>993</ele>
        <time>2016-06-18T22:47:55Z</time>
      </trkpt>
      <trkpt lat="47.84155" lon="6.96763">
        <ele>992</ele>
        <time>2016-06-18T22:48:08Z</time>
      </trkpt>
      <trkpt lat="47.84149" lon="6.96783">
        <ele>991</ele>
        <time>2016-06-18T22:48:21Z</time>
      </trkpt>
      <trkpt lat="47.84141" lon="6.96803">
        <ele>990</ele>
        <time>2016-06-18T22:48:35Z</time>
      </trkpt>
      <trkpt lat="47.84135" lon="6.96825">
        <ele>989</ele>
        <time>2016-06-18T22:48:48Z</time>
      </trkpt>
      <trkpt lat="47.84133" lon="6.9685">
        <ele>983</ele>
        <time>2016-06-18T22:49:01Z</time>
      </trkpt>
      <trkpt lat="47.84133" lon="6.96873">
        <ele>982</ele>
        <time>2016-06-18T22:49:11Z</time>
      </trkpt>
      <trkpt lat="47.84131" lon="6.96897">
        <ele>981</ele>
        <time>2016-06-18T22:49:24Z</time>
      </trkpt>
      <trkpt lat="47.84123" lon="6.96924">
        <ele>973</ele>
        <time>2016-06-18T22:49:37Z</time>
      </trkpt>
      <trkpt lat="47.84124" lon="6.96941">
        <ele>972</ele>
        <time>2016-06-18T22:49:47Z</time>
      </trkpt>
      <trkpt lat="47.84119" lon="6.96964">
        <ele>971</ele>
        <time>2016-06-18T22:49:59Z</time>
      </trkpt>
      <trkpt lat="47.84117" lon="6.96989">
        <ele>970</ele>
        <time>2016-06-18T22:50:13Z</time>
      </trkpt>
      <trkpt lat="47.84116" lon="6.97013">
        <ele>964</ele>
        <time>2016-06-18T22:50:25Z</time>
      </trkpt>
      <trkpt lat="47.84116" lon="6.97036">
        <ele>964</ele>
        <time>2016-06-18T22:50:37Z</time>
      </trkpt>
      <trkpt lat="47.84115" lon="6.97043">
        <ele>963</ele>
        <time>2016-06-18T22:50:40Z</time>
      </trkpt>
      <trkpt lat="47.84115" lon="6.97057">
        <ele>963</ele>
        <time>2016-06-18T22:50:47Z</time>
      </trkpt>
      <trkpt lat="47.84115" lon="6.97081">
        <ele>963</ele>
        <time>2016-06-18T22:50:59Z</time>
      </trkpt>
      <trkpt lat="47.84115" lon="6.97088">
        <ele>961</ele>
        <time>2016-06-18T22:51:02Z</time>
      </trkpt>
      <trkpt lat="47.84114" lon="6.97108">
        <ele>960</ele>
        <time>2016-06-18T22:51:14Z</time>
      </trkpt>
      <trkpt lat="47.8411" lon="6.97124">
        <ele>961</ele>
        <time>2016-06-18T22:51:23Z</time>
      </trkpt>
      <trkpt lat="47.84109" lon="6.97147">
        <ele>961</ele>
        <time>2016-06-18T22:51:34Z</time>
      </trkpt>
      <trkpt lat="47.8411" lon="6.97168">
        <ele>961</ele>
        <time>2016-06-18T22:51:46Z</time>
      </trkpt>
      <trkpt lat="47.84109" lon="6.97175">
        <ele>961</ele>
        <time>2016-06-18T22:51:50Z</time>
      </trkpt>
      <trkpt lat="47.8411" lon="6.97192">
        <ele>960</ele>
        <time>2016-06-18T22:52:01Z</time>
      </trkpt>
      <trkpt lat="47.84111" lon="6.97217">
        <ele>960</ele>
        <time>2016-06-18T22:52:12Z</time>
      </trkpt>
      <trkpt lat="47.84111" lon="6.97245">
        <ele>961</ele>
        <time>2016-06-18T22:52:25Z</time>
      </trkpt>
      <trkpt lat="47.84113" lon="6.97267">
        <ele>961</ele>
        <time>2016-06-18T22:52:36Z</time>
      </trkpt>
      <trkpt lat="47.84113" lon="6.97288">
        <ele>961</ele>
        <time>2016-06-18T22:52:49Z</time>
      </trkpt>
      <trkpt lat="47.84116" lon="6.97311">
        <ele>961</ele>
        <time>2016-06-18T22:53:00Z</time>
      </trkpt>
      <trkpt lat="47.84122" lon="6.97335">
        <ele>963</ele>
        <time>2016-06-18T22:53:11Z</time>
      </trkpt>
      <trkpt lat="47.84129" lon="6.97354">
        <ele>962</ele>
        <time>2016-06-18T22:53:24Z</time>
      </trkpt>
      <trkpt lat="47.84131" lon="6.97362">
        <ele>962</ele>
        <time>2016-06-18T22:53:28Z</time>
      </trkpt>
      <trkpt lat="47.84138" lon="6.97382">
        <ele>961</ele>
        <time>2016-06-18T22:53:40Z</time>
      </trkpt>
      <trkpt lat="47.84146" lon="6.97403">
        <ele>960</ele>
        <time>2016-06-18T22:53:53Z</time>
      </trkpt>
      <trkpt lat="47.8415" lon="6.97418">
        <ele>957</ele>
        <time>2016-06-18T22:54:02Z</time>
      </trkpt>
      <trkpt lat="47.84153" lon="6.97439">
        <ele>957</ele>
        <time>2016-06-18T22:54:14Z</time>
      </trkpt>
      <trkpt lat="47.8416" lon="6.97462">
        <ele>957</ele>
        <time>2016-06-18T22:54:26Z</time>
      </trkpt>
      <trkpt lat="47.84168" lon="6.97488">
        <ele>947</ele>
        <time>2016-06-18T22:54:37Z</time>
      </trkpt>
      <trkpt lat="47.8417" lon="6.97494">
        <ele>950</ele>
        <time>2016-06-18T22:54:40Z</time>
      </trkpt>
      <trkpt lat="47.84177" lon="6.97512">
        <ele>947</ele>
        <time>2016-06-18T22:54:51Z</time>
      </trkpt>
      <trkpt lat="47.84182" lon="6.97533">
        <ele>943</ele>
        <time>2016-06-18T22:55:04Z</time>
      </trkpt>
      <trkpt lat="47.84189" lon="6.97552">
        <ele>942</ele>
        <time>2016-06-18T22:55:16Z</time>
      </trkpt>
      <trkpt lat="47.84195" lon="6.97571">
        <ele>942</ele>
        <time>2016-06-18T22:55:29Z</time>
      </trkpt>
      <trkpt lat="47.84199" lon="6.97595">
        <ele>940</ele>
        <time>2016-06-18T22:55:37Z</time>
      </trkpt>
      <trkpt lat="47.84201" lon="6.97619">
        <ele>938</ele>
        <time>2016-06-18T22:55:47Z</time>
      </trkpt>
      <trkpt lat="47.84199" lon="6.97634">
        <ele>938</ele>
        <time>2016-06-18T22:55:53Z</time>
      </trkpt>
      <trkpt lat="47.84197" lon="6.97659">
        <ele>937</ele>
        <time>2016-06-18T22:56:05Z</time>
      </trkpt>
      <trkpt lat="47.84195" lon="6.97675">
        <ele>933</ele>
        <time>2016-06-18T22:56:16Z</time>
      </trkpt>
      <trkpt lat="47.84193" lon="6.97683">
        <ele>933</ele>
        <time>2016-06-18T22:56:19Z</time>
      </trkpt>
      <trkpt lat="47.84191" lon="6.97691">
        <ele>933</ele>
        <time>2016-06-18T22:56:23Z</time>
      </trkpt>
      <trkpt lat="47.84189" lon="6.97699">
        <ele>932</ele>
        <time>2016-06-18T22:56:27Z</time>
      </trkpt>
      <trkpt lat="47.84183" lon="6.97719">
        <ele>931</ele>
        <time>2016-06-18T22:56:38Z</time>
      </trkpt>
      <trkpt lat="47.84181" lon="6.97734">
        <ele>930</ele>
        <time>2016-06-18T22:56:49Z</time>
      </trkpt>
      <trkpt lat="47.84182" lon="6.97749">
        <ele>930</ele>
        <time>2016-06-18T22:57:12Z</time>
      </trkpt>
      <trkpt lat="47.84181" lon="6.97741">
        <ele>930</ele>
        <time>2016-06-18T22:57:46Z</time>
      </trkpt>
      <trkpt lat="47.84178" lon="6.97736">
        <ele>931</ele>
        <time>2016-06-18T22:57:56Z</time>
      </trkpt>
      <trkpt lat="47.84182" lon="6.97732">
        <ele>930</ele>
        <time>2016-06-18T22:58:38Z</time>
      </trkpt>
      <trkpt lat="47.84184" lon="6.97738">
        <ele>930</ele>
        <time>2016-06-18T22:58:42Z</time>
      </trkpt>
      <trkpt lat="47.84183" lon="6.97745">
        <ele>930</ele>
        <time>2016-06-18T23:11:49Z</time>
      </trkpt>
      <trkpt lat="47.84187" lon="6.97751">
        <ele>929</ele>
        <time>2016-06-18T23:11:53Z</time>
      </trkpt>
      <trkpt lat="47.84191" lon="6.97765">
        <ele>929</ele>
        <time>2016-06-18T23:12:04Z</time>
      </trkpt>
      <trkpt lat="47.84195" lon="6.97786">
        <ele>929</ele>
        <time>2016-06-18T23:12:17Z</time>
      </trkpt>
      <trkpt lat="47.84192" lon="6.97801">
        <ele>929</ele>
        <time>2016-06-18T23:12:26Z</time>
      </trkpt>
      <trkpt lat="47.84188" lon="6.97814">
        <ele>930</ele>
        <time>2016-06-18T23:12:36Z</time>
      </trkpt>
      <trkpt lat="47.84186" lon="6.97828">
        <ele>931</ele>
        <time>2016-06-18T23:12:47Z</time>
      </trkpt>
      <trkpt lat="47.84185" lon="6.97836">
        <ele>936</ele>
        <time>2016-06-18T23:12:57Z</time>
      </trkpt>
      <trkpt lat="47.84183" lon="6.97849">
        <ele>937</ele>
        <time>2016-06-18T23:13:09Z</time>
      </trkpt>
      <trkpt lat="47.84181" lon="6.97864">
        <ele>939</ele>
        <time>2016-06-18T23:13:19Z</time>
      </trkpt>
      <trkpt lat="47.84177" lon="6.97882">
        <ele>941</ele>
        <time>2016-06-18T23:13:33Z</time>
      </trkpt>
      <trkpt lat="47.84178" lon="6.97895">
        <ele>943</ele>
        <time>2016-06-18T23:13:43Z</time>
      </trkpt>
      <trkpt lat="47.84176" lon="6.97902">
        <ele>944</ele>
        <time>2016-06-18T23:13:48Z</time>
      </trkpt>
      <trkpt lat="47.84175" lon="6.97909">
        <ele>946</ele>
        <time>2016-06-18T23:13:53Z</time>
      </trkpt>
      <trkpt lat="47.84173" lon="6.97915">
        <ele>947</ele>
        <time>2016-06-18T23:13:57Z</time>
      </trkpt>
      <trkpt lat="47.84168" lon="6.97928">
        <ele>953</ele>
        <time>2016-06-18T23:14:07Z</time>
      </trkpt>
      <trkpt lat="47.84163" lon="6.97941">
        <ele>948</ele>
        <time>2016-06-18T23:14:19Z</time>
      </trkpt>
      <trkpt lat="47.84158" lon="6.97953">
        <ele>949</ele>
        <time>2016-06-18T23:14:30Z</time>
      </trkpt>
      <trkpt lat="47.84152" lon="6.97967">
        <ele>951</ele>
        <time>2016-06-18T23:14:41Z</time>
      </trkpt>
      <trkpt lat="47.84147" lon="6.97979">
        <ele>953</ele>
        <time>2016-06-18T23:14:53Z</time>
      </trkpt>
      <trkpt lat="47.84142" lon="6.97992">
        <ele>954</ele>
        <time>2016-06-18T23:15:03Z</time>
      </trkpt>
      <trkpt lat="47.84138" lon="6.97995">
        <ele>953</ele>
        <time>2016-06-18T23:15:06Z</time>
      </trkpt>
      <trkpt lat="47.84128" lon="6.98009">
        <ele>964</ele>
        <time>2016-06-18T23:15:16Z</time>
      </trkpt>
      <trkpt lat="47.84119" lon="6.98027">
        <ele>963</ele>
        <time>2016-06-18T23:15:30Z</time>
      </trkpt>
      <trkpt lat="47.8411" lon="6.98044">
        <ele>964</ele>
        <time>2016-06-18T23:15:43Z</time>
      </trkpt>
      <trkpt lat="47.84104" lon="6.98056">
        <ele>964</ele>
        <time>2016-06-18T23:15:53Z</time>
      </trkpt>
      <trkpt lat="47.84099" lon="6.98068">
        <ele>964</ele>
        <time>2016-06-18T23:16:04Z</time>
      </trkpt>
      <trkpt lat="47.84098" lon="6.98083">
        <ele>964</ele>
        <time>2016-06-18T23:16:14Z</time>
      </trkpt>
      <trkpt lat="47.84097" lon="6.98099">
        <ele>973</ele>
        <time>2016-06-18T23:16:26Z</time>
      </trkpt>
      <trkpt lat="47.84097" lon="6.98121">
        <ele>977</ele>
        <time>2016-06-18T23:16:40Z</time>
      </trkpt>
      <trkpt lat="47.84102" lon="6.98135">
        <ele>978</ele>
        <time>2016-06-18T23:16:52Z</time>
      </trkpt>
      <trkpt lat="47.84106" lon="6.98149">
        <ele>979</ele>
        <time>2016-06-18T23:17:04Z</time>
      </trkpt>
      <trkpt lat="47.84109" lon="6.98163">
        <ele>979</ele>
        <time>2016-06-18T23:17:17Z</time>
      </trkpt>
      <trkpt lat="47.84115" lon="6.98174">
        <ele>983</ele>
        <time>2016-06-18T23:17:27Z</time>
      </trkpt>
      <trkpt lat="47.84116" lon="6.98189">
        <ele>984</ele>
        <time>2016-06-18T23:17:34Z</time>
      </trkpt>
      <trkpt lat="47.84117" lon="6.98197">
        <ele>984</ele>
        <time>2016-06-18T23:17:37Z</time>
      </trkpt>
      <trkpt lat="47.84119" lon="6.98205">
        <ele>984</ele>
        <time>2016-06-18T23:17:40Z</time>
      </trkpt>
      <trkpt lat="47.8412" lon="6.98235">
        <ele>984</ele>
        <time>2016-06-18T23:17:52Z</time>
      </trkpt>
      <trkpt lat="47.84118" lon="6.98259">
        <ele>980</ele>
        <time>2016-06-18T23:18:02Z</time>
      </trkpt>
      <trkpt lat="47.84115" lon="6.98283">
        <ele>979</ele>
        <time>2016-06-18T23:18:14Z</time>
      </trkpt>
      <trkpt lat="47.84117" lon="6.98299">
        <ele>979</ele>
        <time>2016-06-18T23:18:24Z</time>
      </trkpt>
      <trkpt lat="47.84117" lon="6.98321">
        <ele>978</ele>
        <time>2016-06-18T23:18:36Z</time>
      </trkpt>
      <trkpt lat="47.84117" lon="6.98328">
        <ele>977</ele>
        <time>2016-06-18T23:18:40Z</time>
      </trkpt>
      <trkpt lat="47.84118" lon="6.98351">
        <ele>973</ele>
        <time>2016-06-18T23:18:52Z</time>
      </trkpt>
      <trkpt lat="47.84121" lon="6.98374">
        <ele>972</ele>
        <time>2016-06-18T23:19:05Z</time>
      </trkpt>
      <trkpt lat="47.84122" lon="6.98396">
        <ele>971</ele>
        <time>2016-06-18T23:19:20Z</time>
      </trkpt>
      <trkpt lat="47.84129" lon="6.98406">
        <ele>973</ele>
        <time>2016-06-18T23:19:31Z</time>
      </trkpt>
      <trkpt lat="47.84141" lon="6.98419">
        <ele>971</ele>
        <time>2016-06-18T23:19:44Z</time>
      </trkpt>
      <trkpt lat="47.8415" lon="6.98436">
        <ele>972</ele>
        <time>2016-06-18T23:19:55Z</time>
      </trkpt>
      <trkpt lat="47.84155" lon="6.98456">
        <ele>969</ele>
        <time>2016-06-18T23:20:05Z</time>
      </trkpt>
      <trkpt lat="47.84158" lon="6.98478">
        <ele>970</ele>
        <time>2016-06-18T23:20:18Z</time>
      </trkpt>
      <trkpt lat="47.84159" lon="6.98495">
        <ele>974</ele>
        <time>2016-06-18T23:20:28Z</time>
      </trkpt>
      <trkpt lat="47.84162" lon="6.98512">
        <ele>972</ele>
        <time>2016-06-18T23:20:38Z</time>
      </trkpt>
      <trkpt lat="47.84164" lon="6.98534">
        <ele>968</ele>
        <time>2016-06-18T23:20:50Z</time>
      </trkpt>
      <trkpt lat="47.84163" lon="6.98556">
        <ele>969</ele>
        <time>2016-06-18T23:21:03Z</time>
      </trkpt>
      <trkpt lat="47.84156" lon="6.98576">
        <ele>974</ele>
        <time>2016-06-18T23:21:15Z</time>
      </trkpt>
      <trkpt lat="47.84143" lon="6.98591">
        <ele>975</ele>
        <time>2016-06-18T23:21:29Z</time>
      </trkpt>
      <trkpt lat="47.84136" lon="6.98603">
        <ele>974</ele>
        <time>2016-06-18T23:21:40Z</time>
      </trkpt>
      <trkpt lat="47.84125" lon="6.9862">
        <ele>973</ele>
        <time>2016-06-18T23:21:52Z</time>
      </trkpt>
      <trkpt lat="47.84113" lon="6.98638">
        <ele>972</ele>
        <time>2016-06-18T23:22:04Z</time>
      </trkpt>
      <trkpt lat="47.84106" lon="6.9866">
        <ele>970</ele>
        <time>2016-06-18T23:22:16Z</time>
      </trkpt>
      <trkpt lat="47.84103" lon="6.98681">
        <ele>979</ele>
        <time>2016-06-18T23:22:28Z</time>
      </trkpt>
      <trkpt lat="47.84102" lon="6.98705">
        <ele>983</ele>
        <time>2016-06-18T23:22:41Z</time>
      </trkpt>
      <trkpt lat="47.841" lon="6.98727">
        <ele>984</ele>
        <time>2016-06-18T23:22:54Z</time>
      </trkpt>
      <trkpt lat="47.84099" lon="6.98748">
        <ele>982</ele>
        <time>2016-06-18T23:23:06Z</time>
      </trkpt>
      <trkpt lat="47.84094" lon="6.98769">
        <ele>988</ele>
        <time>2016-06-18T23:23:17Z</time>
      </trkpt>
      <trkpt lat="47.84092" lon="6.98793">
        <ele>991</ele>
        <time>2016-06-18T23:23:29Z</time>
      </trkpt>
      <trkpt lat="47.84085" lon="6.98812">
        <ele>989</ele>
        <time>2016-06-18T23:23:42Z</time>
      </trkpt>
      <trkpt lat="47.84077" lon="6.98829">
        <ele>979</ele>
        <time>2016-06-18T23:23:54Z</time>
      </trkpt>
      <trkpt lat="47.84064" lon="6.98839">
        <ele>980</ele>
        <time>2016-06-18T23:24:06Z</time>
      </trkpt>
      <trkpt lat="47.84055" lon="6.98856">
        <ele>980</ele>
        <time>2016-06-18T23:24:18Z</time>
      </trkpt>
      <trkpt lat="47.84042" lon="6.98866">
        <ele>979</ele>
        <time>2016-06-18T23:24:31Z</time>
      </trkpt>
      <trkpt lat="47.84034" lon="6.98875">
        <ele>979</ele>
        <time>2016-06-18T23:24:41Z</time>
      </trkpt>
      <trkpt lat="47.84037" lon="6.98897">
        <ele>980</ele>
        <time>2016-06-18T23:24:54Z</time>
      </trkpt>
      <trkpt lat="47.84032" lon="6.98916">
        <ele>980</ele>
        <time>2016-06-18T23:25:08Z</time>
      </trkpt>
      <trkpt lat="47.84028" lon="6.98929">
        <ele>980</ele>
        <time>2016-06-18T23:25:19Z</time>
      </trkpt>
      <trkpt lat="47.84022" lon="6.98929">
        <ele>980</ele>
        <time>2016-06-18T23:25:34Z</time>
      </trkpt>
      <trkpt lat="47.84021" lon="6.98936">
        <ele>980</ele>
        <time>2016-06-18T23:25:57Z</time>
      </trkpt>
      <trkpt lat="47.8401" lon="6.9895">
        <ele>980</ele>
        <time>2016-06-18T23:26:08Z</time>
      </trkpt>
      <trkpt lat="47.83996" lon="6.98962">
        <ele>977</ele>
        <time>2016-06-18T23:26:21Z</time>
      </trkpt>
      <trkpt lat="47.83988" lon="6.98968">
        <ele>977</ele>
        <time>2016-06-18T23:26:31Z</time>
      </trkpt>
      <trkpt lat="47.83979" lon="6.98979">
        <ele>977</ele>
        <time>2016-06-18T23:26:41Z</time>
      </trkpt>
      <trkpt lat="47.83965" lon="6.98988">
        <ele>978</ele>
        <time>2016-06-18T23:26:53Z</time>
      </trkpt>
      <trkpt lat="47.83951" lon="6.98994">
        <ele>978</ele>
        <time>2016-06-18T23:27:04Z</time>
      </trkpt>
      <trkpt lat="47.83937" lon="6.99004">
        <ele>975</ele>
        <time>2016-06-18T23:27:16Z</time>
      </trkpt>
      <trkpt lat="47.83922" lon="6.9901">
        <ele>976</ele>
        <time>2016-06-18T23:27:29Z</time>
      </trkpt>
      <trkpt lat="47.83909" lon="6.99021">
        <ele>976</ele>
        <time>2016-06-18T23:27:42Z</time>
      </trkpt>
      <trkpt lat="47.83895" lon="6.99026">
        <ele>976</ele>
        <time>2016-06-18T23:27:54Z</time>
      </trkpt>
      <trkpt lat="47.8388" lon="6.99034">
        <ele>976</ele>
        <time>2016-06-18T23:28:07Z</time>
      </trkpt>
      <trkpt lat="47.83867" lon="6.99046">
        <ele>976</ele>
        <time>2016-06-18T23:28:20Z</time>
      </trkpt>
      <trkpt lat="47.8386" lon="6.99057">
        <ele>975</ele>
        <time>2016-06-18T23:28:32Z</time>
      </trkpt>
      <trkpt lat="47.83851" lon="6.99056">
        <ele>975</ele>
        <time>2016-06-18T23:28:44Z</time>
      </trkpt>
      <trkpt lat="47.83841" lon="6.99058">
        <ele>975</ele>
        <time>2016-06-18T23:28:54Z</time>
      </trkpt>
      <trkpt lat="47.8383" lon="6.99057">
        <ele>979</ele>
        <time>2016-06-18T23:29:05Z</time>
      </trkpt>
      <trkpt lat="47.83814" lon="6.99059">
        <ele>979</ele>
        <time>2016-06-18T23:29:18Z</time>
      </trkpt>
      <trkpt lat="47.838" lon="6.99058">
        <ele>981</ele>
        <time>2016-06-18T23:29:30Z</time>
      </trkpt>
      <trkpt lat="47.83784" lon="6.99061">
        <ele>981</ele>
        <time>2016-06-18T23:29:43Z</time>
      </trkpt>
      <trkpt lat="47.83769" lon="6.99068">
        <ele>981</ele>
        <time>2016-06-18T23:29:57Z</time>
      </trkpt>
      <trkpt lat="47.83753" lon="6.99074">
        <ele>980</ele>
        <time>2016-06-18T23:30:10Z</time>
      </trkpt>
      <trkpt lat="47.83744" lon="6.99082">
        <ele>982</ele>
        <time>2016-06-18T23:30:20Z</time>
      </trkpt>
      <trkpt lat="47.83731" lon="6.99092">
        <ele>980</ele>
        <time>2016-06-18T23:30:33Z</time>
      </trkpt>
      <trkpt lat="47.83718" lon="6.99104">
        <ele>981</ele>
        <time>2016-06-18T23:30:46Z</time>
      </trkpt>
      <trkpt lat="47.83709" lon="6.99112">
        <ele>982</ele>
        <time>2016-06-18T23:30:56Z</time>
      </trkpt>
      <trkpt lat="47.83695" lon="6.99123">
        <ele>982</ele>
        <time>2016-06-18T23:31:10Z</time>
      </trkpt>
      <trkpt lat="47.83686" lon="6.99132">
        <ele>983</ele>
        <time>2016-06-18T23:31:20Z</time>
      </trkpt>
      <trkpt lat="47.83672" lon="6.9914">
        <ele>984</ele>
        <time>2016-06-18T23:31:34Z</time>
      </trkpt>
      <trkpt lat="47.83662" lon="6.99143">
        <ele>994</ele>
        <time>2016-06-18T23:31:45Z</time>
      </trkpt>
      <trkpt lat="47.83652" lon="6.99146">
        <ele>995</ele>
        <time>2016-06-18T23:31:55Z</time>
      </trkpt>
      <trkpt lat="47.83642" lon="6.99148">
        <ele>996</ele>
        <time>2016-06-18T23:32:05Z</time>
      </trkpt>
      <trkpt lat="47.83633" lon="6.99153">
        <ele>997</ele>
        <time>2016-06-18T23:32:15Z</time>
      </trkpt>
      <trkpt lat="47.83623" lon="6.99156">
        <ele>999</ele>
        <time>2016-06-18T23:32:25Z</time>
      </trkpt>
      <trkpt lat="47.83609" lon="6.9916">
        <ele>1002</ele>
        <time>2016-06-18T23:32:39Z</time>
      </trkpt>
      <trkpt lat="47.83599" lon="6.99166">
        <ele>1004</ele>
        <time>2016-06-18T23:32:49Z</time>
      </trkpt>
      <trkpt lat="47.83589" lon="6.99173">
        <ele>1005</ele>
        <time>2016-06-18T23:32:59Z</time>
      </trkpt>
      <trkpt lat="47.83577" lon="6.99186">
        <ele>1012</ele>
        <time>2016-06-18T23:33:12Z</time>
      </trkpt>
      <trkpt lat="47.83569" lon="6.99197">
        <ele>1013</ele>
        <time>2016-06-18T23:33:22Z</time>
      </trkpt>
      <trkpt lat="47.83558" lon="6.99212">
        <ele>1014</ele>
        <time>2016-06-18T23:33:35Z</time>
      </trkpt>
      <trkpt lat="47.83551" lon="6.99232">
        <ele>1014</ele>
        <time>2016-06-18T23:33:49Z</time>
      </trkpt>
      <trkpt lat="47.83545" lon="6.99251">
        <ele>1013</ele>
        <time>2016-06-18T23:34:03Z</time>
      </trkpt>
      <trkpt lat="47.83536" lon="6.99268">
        <ele>1015</ele>
        <time>2016-06-18T23:34:16Z</time>
      </trkpt>
      <trkpt lat="47.83528" lon="6.99278">
        <ele>1016</ele>
        <time>2016-06-18T23:34:26Z</time>
      </trkpt>
      <trkpt lat="47.83519" lon="6.99294">
        <ele>1017</ele>
        <time>2016-06-18T23:34:39Z</time>
      </trkpt>
      <trkpt lat="47.83509" lon="6.99312">
        <ele>1019</ele>
        <time>2016-06-18T23:34:51Z</time>
      </trkpt>
      <trkpt lat="47.83498" lon="6.99328">
        <ele>1025</ele>
        <time>2016-06-18T23:35:04Z</time>
      </trkpt>
      <trkpt lat="47.83486" lon="6.99342">
        <ele>1028</ele>
        <time>2016-06-18T23:35:17Z</time>
      </trkpt>
      <trkpt lat="47.83481" lon="6.99355">
        <ele>1029</ele>
        <time>2016-06-18T23:35:27Z</time>
      </trkpt>
      <trkpt lat="47.83472" lon="6.99373">
        <ele>1030</ele>
        <time>2016-06-18T23:35:40Z</time>
      </trkpt>
      <trkpt lat="47.83466" lon="6.99386">
        <ele>1031</ele>
        <time>2016-06-18T23:35:50Z</time>
      </trkpt>
      <trkpt lat="47.83458" lon="6.99403">
        <ele>1032</ele>
        <time>2016-06-18T23:36:04Z</time>
      </trkpt>
      <trkpt lat="47.83448" lon="6.99411">
        <ele>1033</ele>
        <time>2016-06-18T23:36:15Z</time>
      </trkpt>
      <trkpt lat="47.83434" lon="6.99416">
        <ele>1036</ele>
        <time>2016-06-18T23:36:30Z</time>
      </trkpt>
      <trkpt lat="47.83422" lon="6.99417">
        <ele>1038</ele>
        <time>2016-06-18T23:36:50Z</time>
      </trkpt>
      <trkpt lat="47.83406" lon="6.99422">
        <ele>1040</ele>
        <time>2016-06-18T23:37:01Z</time>
      </trkpt>
      <trkpt lat="47.8339" lon="6.99427">
        <ele>1041</ele>
        <time>2016-06-18T23:37:16Z</time>
      </trkpt>
      <trkpt lat="47.83386" lon="6.9943">
        <ele>1042</ele>
        <time>2016-06-18T23:38:00Z</time>
      </trkpt>
      <trkpt lat="47.83383" lon="6.99435">
        <ele>1042</ele>
        <time>2016-06-18T23:38:03Z</time>
      </trkpt>
      <trkpt lat="47.83369" lon="6.99446">
        <ele>1042</ele>
        <time>2016-06-18T23:38:17Z</time>
      </trkpt>
      <trkpt lat="47.83359" lon="6.99452">
        <ele>1043</ele>
        <time>2016-06-18T23:38:25Z</time>
      </trkpt>
      <trkpt lat="47.83345" lon="6.99465">
        <ele>1043</ele>
        <time>2016-06-18T23:38:37Z</time>
      </trkpt>
      <trkpt lat="47.83332" lon="6.99479">
        <ele>1049</ele>
        <time>2016-06-18T23:38:51Z</time>
      </trkpt>
      <trkpt lat="47.83319" lon="6.99488">
        <ele>1049</ele>
        <time>2016-06-18T23:39:05Z</time>
      </trkpt>
      <trkpt lat="47.83303" lon="6.99497">
        <ele>1051</ele>
        <time>2016-06-18T23:39:18Z</time>
      </trkpt>
      <trkpt lat="47.83294" lon="6.99503">
        <ele>1044</ele>
        <time>2016-06-18T23:39:28Z</time>
      </trkpt>
      <trkpt lat="47.83281" lon="6.99512">
        <ele>1046</ele>
        <time>2016-06-18T23:39:40Z</time>
      </trkpt>
      <trkpt lat="47.83267" lon="6.9952">
        <ele>1047</ele>
        <time>2016-06-18T23:39:53Z</time>
      </trkpt>
      <trkpt lat="47.83253" lon="6.99529">
        <ele>1046</ele>
        <time>2016-06-18T23:40:05Z</time>
      </trkpt>
      <trkpt lat="47.83241" lon="6.99541">
        <ele>1054</ele>
        <time>2016-06-18T23:40:16Z</time>
      </trkpt>
      <trkpt lat="47.83229" lon="6.99559">
        <ele>1052</ele>
        <time>2016-06-18T23:40:29Z</time>
      </trkpt>
      <trkpt lat="47.83222" lon="6.99579">
        <ele>1052</ele>
        <time>2016-06-18T23:40:41Z</time>
      </trkpt>
      <trkpt lat="47.83216" lon="6.99599">
        <ele>1049</ele>
        <time>2016-06-18T23:40:54Z</time>
      </trkpt>
      <trkpt lat="47.83205" lon="6.99616">
        <ele>1050</ele>
        <time>2016-06-18T23:41:07Z</time>
      </trkpt>
      <trkpt lat="47.83194" lon="6.9963">
        <ele>1051</ele>
        <time>2016-06-18T23:41:20Z</time>
      </trkpt>
      <trkpt lat="47.83186" lon="6.99641">
        <ele>1052</ele>
        <time>2016-06-18T23:41:30Z</time>
      </trkpt>
      <trkpt lat="47.83175" lon="6.99655">
        <ele>1054</ele>
        <time>2016-06-18T23:41:42Z</time>
      </trkpt>
      <trkpt lat="47.83164" lon="6.99671">
        <ele>1056</ele>
        <time>2016-06-18T23:41:56Z</time>
      </trkpt>
      <trkpt lat="47.8316" lon="6.99684">
        <ele>1054</ele>
        <time>2016-06-18T23:42:06Z</time>
      </trkpt>
      <trkpt lat="47.8317" lon="6.99701">
        <ele>1054</ele>
        <time>2016-06-18T23:42:20Z</time>
      </trkpt>
      <trkpt lat="47.83173" lon="6.99715">
        <ele>1054</ele>
        <time>2016-06-18T23:42:31Z</time>
      </trkpt>
      <trkpt lat="47.83176" lon="6.99729">
        <ele>1056</ele>
        <time>2016-06-18T23:42:41Z</time>
      </trkpt>
      <trkpt lat="47.83182" lon="6.99741">
        <ele>1057</ele>
        <time>2016-06-18T23:42:51Z</time>
      </trkpt>
      <trkpt lat="47.83187" lon="6.99754">
        <ele>1061</ele>
        <time>2016-06-18T23:43:01Z</time>
      </trkpt>
      <trkpt lat="47.83188" lon="6.99768">
        <ele>1061</ele>
        <time>2016-06-18T23:43:13Z</time>
      </trkpt>
      <trkpt lat="47.83187" lon="6.99783">
        <ele>1062</ele>
        <time>2016-06-18T23:43:26Z</time>
      </trkpt>
      <trkpt lat="47.83188" lon="6.99798">
        <ele>1063</ele>
        <time>2016-06-18T23:43:39Z</time>
      </trkpt>
      <trkpt lat="47.83184" lon="6.9981">
        <ele>1066</ele>
        <time>2016-06-18T23:43:55Z</time>
      </trkpt>
      <trkpt lat="47.83178" lon="6.99822">
        <ele>1072</ele>
        <time>2016-06-18T23:44:06Z</time>
      </trkpt>
      <trkpt lat="47.83173" lon="6.99835">
        <ele>1079</ele>
        <time>2016-06-18T23:44:20Z</time>
      </trkpt>
      <trkpt lat="47.83165" lon="6.99843">
        <ele>1083</ele>
        <time>2016-06-18T23:44:31Z</time>
      </trkpt>
      <trkpt lat="47.83159" lon="6.99854">
        <ele>1083</ele>
        <time>2016-06-18T23:44:41Z</time>
      </trkpt>
      <trkpt lat="47.83154" lon="6.99866">
        <ele>1083</ele>
        <time>2016-06-18T23:44:51Z</time>
      </trkpt>
      <trkpt lat="47.8315" lon="6.99872">
        <ele>1083</ele>
        <time>2016-06-18T23:45:01Z</time>
      </trkpt>
      <trkpt lat="47.83143" lon="6.99882">
        <ele>1083</ele>
        <time>2016-06-18T23:45:10Z</time>
      </trkpt>
      <trkpt lat="47.83134" lon="6.99899">
        <ele>1084</ele>
        <time>2016-06-18T23:45:21Z</time>
      </trkpt>
      <trkpt lat="47.83128" lon="6.9992">
        <ele>1091</ele>
        <time>2016-06-18T23:45:33Z</time>
      </trkpt>
      <trkpt lat="47.83124" lon="6.99925">
        <ele>1092</ele>
        <time>2016-06-18T23:45:37Z</time>
      </trkpt>
      <trkpt lat="47.83119" lon="6.99938">
        <ele>1092</ele>
        <time>2016-06-18T23:45:48Z</time>
      </trkpt>
      <trkpt lat="47.83112" lon="6.99957">
        <ele>1094</ele>
        <time>2016-06-18T23:46:04Z</time>
      </trkpt>
      <trkpt lat="47.83108" lon="6.99971">
        <ele>1096</ele>
        <time>2016-06-18T23:46:17Z</time>
      </trkpt>
      <trkpt lat="47.83107" lon="6.99978">
        <ele>1097</ele>
        <time>2016-06-18T23:46:32Z</time>
      </trkpt>
      <trkpt lat="47.83107" lon="6.99999">
        <ele>1099</ele>
        <time>2016-06-18T23:46:47Z</time>
      </trkpt>
      <trkpt lat="47.83107" lon="7.00013">
        <ele>1104</ele>
        <time>2016-06-18T23:47:02Z</time>
      </trkpt>
      <trkpt lat="47.83109" lon="7.00026">
        <ele>1104</ele>
        <time>2016-06-18T23:47:13Z</time>
      </trkpt>
      <trkpt lat="47.83106" lon="7.00032">
        <ele>1105</ele>
        <time>2016-06-18T23:47:18Z</time>
      </trkpt>
      <trkpt lat="47.83107" lon="7.00046">
        <ele>1106</ele>
        <time>2016-06-18T23:47:32Z</time>
      </trkpt>
      <trkpt lat="47.83104" lon="7.0006">
        <ele>1109</ele>
        <time>2016-06-18T23:47:42Z</time>
      </trkpt>
      <trkpt lat="47.831" lon="7.00074">
        <ele>1113</ele>
        <time>2016-06-18T23:47:52Z</time>
      </trkpt>
      <trkpt lat="47.83102" lon="7.00088">
        <ele>1118</ele>
        <time>2016-06-18T23:48:02Z</time>
      </trkpt>
      <trkpt lat="47.831" lon="7.00102">
        <ele>1118</ele>
        <time>2016-06-18T23:48:12Z</time>
      </trkpt>
      <trkpt lat="47.83092" lon="7.00123">
        <ele>1119</ele>
        <time>2016-06-18T23:48:25Z</time>
      </trkpt>
      <trkpt lat="47.83084" lon="7.00141">
        <ele>1123</ele>
        <time>2016-06-18T23:48:37Z</time>
      </trkpt>
      <trkpt lat="47.83084" lon="7.00155">
        <ele>1130</ele>
        <time>2016-06-18T23:48:47Z</time>
      </trkpt>
      <trkpt lat="47.83076" lon="7.00165">
        <ele>1139</ele>
        <time>2016-06-18T23:48:58Z</time>
      </trkpt>
      <trkpt lat="47.83073" lon="7.00172">
        <ele>1141</ele>
        <time>2016-06-18T23:49:03Z</time>
      </trkpt>
      <trkpt lat="47.8307" lon="7.00178">
        <ele>1141</ele>
        <time>2016-06-18T23:49:06Z</time>
      </trkpt>
      <trkpt lat="47.83065" lon="7.00176">
        <ele>1142</ele>
        <time>2016-06-18T23:49:28Z</time>
      </trkpt>
      <trkpt lat="47.83066" lon="7.00161">
        <ele>1138</ele>
        <time>2016-06-18T23:49:42Z</time>
      </trkpt>
      <trkpt lat="47.83065" lon="7.00155">
        <ele>1138</ele>
        <time>2016-06-18T23:49:48Z</time>
      </trkpt>
      <trkpt lat="47.83063" lon="7.0014">
        <ele>1137</ele>
        <time>2016-06-18T23:50:03Z</time>
      </trkpt>
      <trkpt lat="47.83062" lon="7.00134">
        <ele>1136</ele>
        <time>2016-06-18T23:50:13Z</time>
      </trkpt>
      <trkpt lat="47.83052" lon="7.0013">
        <ele>1136</ele>
        <time>2016-06-18T23:50:29Z</time>
      </trkpt>
      <trkpt lat="47.83048" lon="7.00134">
        <ele>1137</ele>
        <time>2016-06-18T23:50:34Z</time>
      </trkpt>
      <trkpt lat="47.83039" lon="7.00144">
        <ele>1138</ele>
        <time>2016-06-18T23:50:47Z</time>
      </trkpt>
      <trkpt lat="47.83034" lon="7.00157">
        <ele>1139</ele>
        <time>2016-06-18T23:50:57Z</time>
      </trkpt>
      <trkpt lat="47.83021" lon="7.00171">
        <ele>1145</ele>
        <time>2016-06-18T23:51:09Z</time>
      </trkpt>
      <trkpt lat="47.83014" lon="7.00191">
        <ele>1145</ele>
        <time>2016-06-18T23:51:22Z</time>
      </trkpt>
      <trkpt lat="47.83006" lon="7.00207">
        <ele>1146</ele>
        <time>2016-06-18T23:51:34Z</time>
      </trkpt>
      <trkpt lat="47.82996" lon="7.00225">
        <ele>1149</ele>
        <time>2016-06-18T23:51:46Z</time>
      </trkpt>
      <trkpt lat="47.82988" lon="7.00242">
        <ele>1150</ele>
        <time>2016-06-18T23:51:58Z</time>
      </trkpt>
      <trkpt lat="47.82982" lon="7.00253">
        <ele>1153</ele>
        <time>2016-06-18T23:52:08Z</time>
      </trkpt>
      <trkpt lat="47.82976" lon="7.00274">
        <ele>1153</ele>
        <time>2016-06-18T23:52:20Z</time>
      </trkpt>
      <trkpt lat="47.8297" lon="7.00295">
        <ele>1153</ele>
        <time>2016-06-18T23:52:33Z</time>
      </trkpt>
      <trkpt lat="47.82963" lon="7.00315">
        <ele>1154</ele>
        <time>2016-06-18T23:52:46Z</time>
      </trkpt>
      <trkpt lat="47.82957" lon="7.00337">
        <ele>1155</ele>
        <time>2016-06-18T23:52:59Z</time>
      </trkpt>
      <trkpt lat="47.82952" lon="7.00357">
        <ele>1155</ele>
        <time>2016-06-18T23:53:12Z</time>
      </trkpt>
      <trkpt lat="47.82947" lon="7.00378">
        <ele>1156</ele>
        <time>2016-06-18T23:53:25Z</time>
      </trkpt>
      <trkpt lat="47.82943" lon="7.004">
        <ele>1157</ele>
        <time>2016-06-18T23:53:38Z</time>
      </trkpt>
      <trkpt lat="47.82938" lon="7.00422">
        <ele>1159</ele>
        <time>2016-06-18T23:53:51Z</time>
      </trkpt>
      <trkpt lat="47.82934" lon="7.00443">
        <ele>1158</ele>
        <time>2016-06-18T23:54:04Z</time>
      </trkpt>
      <trkpt lat="47.8293" lon="7.00464">
        <ele>1158</ele>
        <time>2016-06-18T23:54:17Z</time>
      </trkpt>
      <trkpt lat="47.82919" lon="7.0048">
        <ele>1160</ele>
        <time>2016-06-18T23:54:30Z</time>
      </trkpt>
      <trkpt lat="47.82907" lon="7.00496">
        <ele>1166</ele>
        <time>2016-06-18T23:54:44Z</time>
      </trkpt>
      <trkpt lat="47.82894" lon="7.00506">
        <ele>1163</ele>
        <time>2016-06-18T23:54:57Z</time>
      </trkpt>
      <trkpt lat="47.82878" lon="7.00511">
        <ele>1163</ele>
        <time>2016-06-18T23:55:09Z</time>
      </trkpt>
      <trkpt lat="47.82864" lon="7.00516">
        <ele>1164</ele>
        <time>2016-06-18T23:55:20Z</time>
      </trkpt>
      <trkpt lat="47.82849" lon="7.00521">
        <ele>1164</ele>
        <time>2016-06-18T23:55:32Z</time>
      </trkpt>
      <trkpt lat="47.82833" lon="7.00525">
        <ele>1166</ele>
        <time>2016-06-18T23:55:45Z</time>
      </trkpt>
      <trkpt lat="47.82817" lon="7.00531">
        <ele>1165</ele>
        <time>2016-06-18T23:55:57Z</time>
      </trkpt>
      <trkpt lat="47.82804" lon="7.0054">
        <ele>1165</ele>
        <time>2016-06-18T23:56:09Z</time>
      </trkpt>
      <trkpt lat="47.8279" lon="7.00549">
        <ele>1164</ele>
        <time>2016-06-18T23:56:20Z</time>
      </trkpt>
      <trkpt lat="47.82775" lon="7.00559">
        <ele>1164</ele>
        <time>2016-06-18T23:56:32Z</time>
      </trkpt>
      <trkpt lat="47.82764" lon="7.00574">
        <ele>1165</ele>
        <time>2016-06-18T23:56:45Z</time>
      </trkpt>
      <trkpt lat="47.82751" lon="7.00587">
        <ele>1163</ele>
        <time>2016-06-18T23:56:58Z</time>
      </trkpt>
      <trkpt lat="47.82737" lon="7.00598">
        <ele>1161</ele>
        <time>2016-06-18T23:57:10Z</time>
      </trkpt>
      <trkpt lat="47.82723" lon="7.00608">
        <ele>1160</ele>
        <time>2016-06-18T23:57:22Z</time>
      </trkpt>
      <trkpt lat="47.82708" lon="7.00616">
        <ele>1159</ele>
        <time>2016-06-18T23:57:34Z</time>
      </trkpt>
      <trkpt lat="47.82694" lon="7.00621">
        <ele>1159</ele>
        <time>2016-06-18T23:57:46Z</time>
      </trkpt>
      <trkpt lat="47.82678" lon="7.00625">
        <ele>1158</ele>
        <time>2016-06-18T23:58:02Z</time>
      </trkpt>
      <trkpt lat="47.82667" lon="7.00638">
        <ele>1157</ele>
        <time>2016-06-18T23:58:13Z</time>
      </trkpt>
      <trkpt lat="47.82655" lon="7.00651">
        <ele>1157</ele>
        <time>2016-06-18T23:58:25Z</time>
      </trkpt>
      <trkpt lat="47.82643" lon="7.00667">
        <ele>1154</ele>
        <time>2016-06-18T23:58:38Z</time>
      </trkpt>
      <trkpt lat="47.82632" lon="7.00683">
        <ele>1154</ele>
        <time>2016-06-18T23:58:50Z</time>
      </trkpt>
      <trkpt lat="47.8262" lon="7.00699">
        <ele>1154</ele>
        <time>2016-06-18T23:59:03Z</time>
      </trkpt>
      <trkpt lat="47.82608" lon="7.0071">
        <ele>1154</ele>
        <time>2016-06-18T23:59:16Z</time>
      </trkpt>
      <trkpt lat="47.82597" lon="7.00725">
        <ele>1153</ele>
        <time>2016-06-18T23:59:27Z</time>
      </trkpt>
      <trkpt lat="47.82584" lon="7.00739">
        <ele>1153</ele>
        <time>2016-06-18T23:59:39Z</time>
      </trkpt>
      <trkpt lat="47.82574" lon="7.00755">
        <ele>1152</ele>
        <time>2016-06-18T23:59:50Z</time>
      </trkpt>
      <trkpt lat="47.82566" lon="7.00773">
        <ele>1151</ele>
        <time>2016-06-19T00:00:02Z</time>
      </trkpt>
      <trkpt lat="47.82556" lon="7.00792">
        <ele>1149</ele>
        <time>2016-06-19T00:00:14Z</time>
      </trkpt>
      <trkpt lat="47.82546" lon="7.00806">
        <ele>1149</ele>
        <time>2016-06-19T00:00:25Z</time>
      </trkpt>
      <trkpt lat="47.82534" lon="7.00819">
        <ele>1148</ele>
        <time>2016-06-19T00:00:37Z</time>
      </trkpt>
      <trkpt lat="47.8252" lon="7.00835">
        <ele>1143</ele>
        <time>2016-06-19T00:00:51Z</time>
      </trkpt>
      <trkpt lat="47.82507" lon="7.00847">
        <ele>1144</ele>
        <time>2016-06-19T00:01:03Z</time>
      </trkpt>
      <trkpt lat="47.82495" lon="7.0086">
        <ele>1144</ele>
        <time>2016-06-19T00:01:14Z</time>
      </trkpt>
      <trkpt lat="47.82484" lon="7.00874">
        <ele>1143</ele>
        <time>2016-06-19T00:01:26Z</time>
      </trkpt>
      <trkpt lat="47.82473" lon="7.0089">
        <ele>1143</ele>
        <time>2016-06-19T00:01:38Z</time>
      </trkpt>
      <trkpt lat="47.82461" lon="7.00906">
        <ele>1143</ele>
        <time>2016-06-19T00:01:50Z</time>
      </trkpt>
      <trkpt lat="47.82451" lon="7.00922">
        <ele>1139</ele>
        <time>2016-06-19T00:02:02Z</time>
      </trkpt>
      <trkpt lat="47.8244" lon="7.00936">
        <ele>1139</ele>
        <time>2016-06-19T00:02:14Z</time>
      </trkpt>
      <trkpt lat="47.82427" lon="7.00951">
        <ele>1139</ele>
        <time>2016-06-19T00:02:26Z</time>
      </trkpt>
      <trkpt lat="47.82416" lon="7.00968">
        <ele>1142</ele>
        <time>2016-06-19T00:02:38Z</time>
      </trkpt>
      <trkpt lat="47.82405" lon="7.00985">
        <ele>1141</ele>
        <time>2016-06-19T00:02:50Z</time>
      </trkpt>
      <trkpt lat="47.82398" lon="7.01004">
        <ele>1138</ele>
        <time>2016-06-19T00:03:02Z</time>
      </trkpt>
      <trkpt lat="47.8239" lon="7.01024">
        <ele>1138</ele>
        <time>2016-06-19T00:03:16Z</time>
      </trkpt>
      <trkpt lat="47.82387" lon="7.01038">
        <ele>1138</ele>
        <time>2016-06-19T00:03:27Z</time>
      </trkpt>
      <trkpt lat="47.82385" lon="7.01052">
        <ele>1137</ele>
        <time>2016-06-19T00:03:37Z</time>
      </trkpt>
      <trkpt lat="47.82376" lon="7.01069">
        <ele>1138</ele>
        <time>2016-06-19T00:03:47Z</time>
      </trkpt>
      <trkpt lat="47.82367" lon="7.01087">
        <ele>1134</ele>
        <time>2016-06-19T00:03:58Z</time>
      </trkpt>
      <trkpt lat="47.82359" lon="7.0111">
        <ele>1133</ele>
        <time>2016-06-19T00:04:11Z</time>
      </trkpt>
      <trkpt lat="47.82356" lon="7.01118">
        <ele>1133</ele>
        <time>2016-06-19T00:04:14Z</time>
      </trkpt>
      <trkpt lat="47.82349" lon="7.01128">
        <ele>1133</ele>
        <time>2016-06-19T00:04:22Z</time>
      </trkpt>
      <trkpt lat="47.82341" lon="7.01147">
        <ele>1133</ele>
        <time>2016-06-19T00:04:33Z</time>
      </trkpt>
      <trkpt lat="47.82332" lon="7.01168">
        <ele>1134</ele>
        <time>2016-06-19T00:04:43Z</time>
      </trkpt>
      <trkpt lat="47.82325" lon="7.01186">
        <ele>1136</ele>
        <time>2016-06-19T00:04:54Z</time>
      </trkpt>
      <trkpt lat="47.82317" lon="7.01206">
        <ele>1135</ele>
        <time>2016-06-19T00:05:07Z</time>
      </trkpt>
      <trkpt lat="47.82317" lon="7.01221">
        <ele>1134</ele>
        <time>2016-06-19T00:05:17Z</time>
      </trkpt>
      <trkpt lat="47.82315" lon="7.01228">
        <ele>1134</ele>
        <time>2016-06-19T00:05:20Z</time>
      </trkpt>
      <trkpt lat="47.82306" lon="7.01248">
        <ele>1133</ele>
        <time>2016-06-19T00:05:31Z</time>
      </trkpt>
      <trkpt lat="47.82305" lon="7.01255">
        <ele>1127</ele>
        <time>2016-06-19T00:05:36Z</time>
      </trkpt>
      <trkpt lat="47.82301" lon="7.01277">
        <ele>1127</ele>
        <time>2016-06-19T00:05:48Z</time>
      </trkpt>
      <trkpt lat="47.82298" lon="7.013">
        <ele>1126</ele>
        <time>2016-06-19T00:06:00Z</time>
      </trkpt>
      <trkpt lat="47.82292" lon="7.0132">
        <ele>1126</ele>
        <time>2016-06-19T00:06:12Z</time>
      </trkpt>
      <trkpt lat="47.82288" lon="7.01343">
        <ele>1119</ele>
        <time>2016-06-19T00:06:25Z</time>
      </trkpt>
      <trkpt lat="47.82286" lon="7.01365">
        <ele>1118</ele>
        <time>2016-06-19T00:06:37Z</time>
      </trkpt>
      <trkpt lat="47.82279" lon="7.01385">
        <ele>1117</ele>
        <time>2016-06-19T00:06:51Z</time>
      </trkpt>
      <trkpt lat="47.82268" lon="7.01402">
        <ele>1117</ele>
        <time>2016-06-19T00:07:05Z</time>
      </trkpt>
      <trkpt lat="47.82259" lon="7.01421">
        <ele>1114</ele>
        <time>2016-06-19T00:07:18Z</time>
      </trkpt>
      <trkpt lat="47.8225" lon="7.01442">
        <ele>1110</ele>
        <time>2016-06-19T00:07:30Z</time>
      </trkpt>
      <trkpt lat="47.82246" lon="7.01463">
        <ele>1109</ele>
        <time>2016-06-19T00:07:43Z</time>
      </trkpt>
      <trkpt lat="47.82243" lon="7.01477">
        <ele>1108</ele>
        <time>2016-06-19T00:07:53Z</time>
      </trkpt>
      <trkpt lat="47.82244" lon="7.01498">
        <ele>1106</ele>
        <time>2016-06-19T00:08:05Z</time>
      </trkpt>
      <trkpt lat="47.82245" lon="7.01521">
        <ele>1103</ele>
        <time>2016-06-19T00:08:17Z</time>
      </trkpt>
      <trkpt lat="47.82247" lon="7.01543">
        <ele>1102</ele>
        <time>2016-06-19T00:08:29Z</time>
      </trkpt>
      <trkpt lat="47.82245" lon="7.01557">
        <ele>1102</ele>
        <time>2016-06-19T00:08:39Z</time>
      </trkpt>
      <trkpt lat="47.82243" lon="7.0158">
        <ele>1102</ele>
        <time>2016-06-19T00:08:51Z</time>
      </trkpt>
      <trkpt lat="47.82241" lon="7.01602">
        <ele>1101</ele>
        <time>2016-06-19T00:09:05Z</time>
      </trkpt>
      <trkpt lat="47.82241" lon="7.01617">
        <ele>1101</ele>
        <time>2016-06-19T00:09:16Z</time>
      </trkpt>
      <trkpt lat="47.8224" lon="7.01632">
        <ele>1102</ele>
        <time>2016-06-19T00:09:31Z</time>
      </trkpt>
      <trkpt lat="47.8224" lon="7.01646">
        <ele>1102</ele>
        <time>2016-06-19T00:09:45Z</time>
      </trkpt>
      <trkpt lat="47.82242" lon="7.01662">
        <ele>1103</ele>
        <time>2016-06-19T00:09:56Z</time>
      </trkpt>
      <trkpt lat="47.82243" lon="7.01669">
        <ele>1103</ele>
        <time>2016-06-19T00:10:07Z</time>
      </trkpt>
      <trkpt lat="47.82242" lon="7.01684">
        <ele>1102</ele>
        <time>2016-06-19T00:10:19Z</time>
      </trkpt>
      <trkpt lat="47.82239" lon="7.01706">
        <ele>1101</ele>
        <time>2016-06-19T00:10:33Z</time>
      </trkpt>
      <trkpt lat="47.82242" lon="7.01721">
        <ele>1101</ele>
        <time>2016-06-19T00:10:43Z</time>
      </trkpt>
      <trkpt lat="47.82246" lon="7.01743">
        <ele>1102</ele>
        <time>2016-06-19T00:10:57Z</time>
      </trkpt>
      <trkpt lat="47.8225" lon="7.01759">
        <ele>1101</ele>
        <time>2016-06-19T00:11:07Z</time>
      </trkpt>
      <trkpt lat="47.82256" lon="7.01779">
        <ele>1098</ele>
        <time>2016-06-19T00:11:19Z</time>
      </trkpt>
      <trkpt lat="47.82259" lon="7.01801">
        <ele>1098</ele>
        <time>2016-06-19T00:11:31Z</time>
      </trkpt>
      <trkpt lat="47.82262" lon="7.01823">
        <ele>1099</ele>
        <time>2016-06-19T00:11:43Z</time>
      </trkpt>
      <trkpt lat="47.82266" lon="7.01843">
        <ele>1099</ele>
        <time>2016-06-19T00:11:54Z</time>
      </trkpt>
      <trkpt lat="47.82267" lon="7.01865">
        <ele>1098</ele>
        <time>2016-06-19T00:12:06Z</time>
      </trkpt>
      <trkpt lat="47.82268" lon="7.01888">
        <ele>1098</ele>
        <time>2016-06-19T00:12:18Z</time>
      </trkpt>
      <trkpt lat="47.82272" lon="7.0191">
        <ele>1098</ele>
        <time>2016-06-19T00:12:30Z</time>
      </trkpt>
      <trkpt lat="47.82276" lon="7.01932">
        <ele>1097</ele>
        <time>2016-06-19T00:12:43Z</time>
      </trkpt>
      <trkpt lat="47.8228" lon="7.01954">
        <ele>1097</ele>
        <time>2016-06-19T00:12:56Z</time>
      </trkpt>
      <trkpt lat="47.82284" lon="7.01975">
        <ele>1097</ele>
        <time>2016-06-19T00:13:08Z</time>
      </trkpt>
      <trkpt lat="47.82284" lon="7.01989">
        <ele>1097</ele>
        <time>2016-06-19T00:13:26Z</time>
      </trkpt>
      <trkpt lat="47.82271" lon="7.02">
        <ele>1097</ele>
        <time>2016-06-19T00:13:39Z</time>
      </trkpt>
      <trkpt lat="47.82258" lon="7.02008">
        <ele>1097</ele>
        <time>2016-06-19T00:13:50Z</time>
      </trkpt>
      <trkpt lat="47.82245" lon="7.02018">
        <ele>1094</ele>
        <time>2016-06-19T00:14:04Z</time>
      </trkpt>
      <trkpt lat="47.82237" lon="7.02026">
        <ele>1094</ele>
        <time>2016-06-19T00:14:15Z</time>
      </trkpt>
      <trkpt lat="47.82226" lon="7.02042">
        <ele>1093</ele>
        <time>2016-06-19T00:14:27Z</time>
      </trkpt>
      <trkpt lat="47.82218" lon="7.0206">
        <ele>1092</ele>
        <time>2016-06-19T00:14:39Z</time>
      </trkpt>
      <trkpt lat="47.8221" lon="7.02078">
        <ele>1092</ele>
        <time>2016-06-19T00:14:51Z</time>
      </trkpt>
      <trkpt lat="47.82202" lon="7.02098">
        <ele>1091</ele>
        <time>2016-06-19T00:15:04Z</time>
      </trkpt>
      <trkpt lat="47.82194" lon="7.02116">
        <ele>1091</ele>
        <time>2016-06-19T00:15:16Z</time>
      </trkpt>
      <trkpt lat="47.82186" lon="7.02134">
        <ele>1090</ele>
        <time>2016-06-19T00:15:28Z</time>
      </trkpt>
      <trkpt lat="47.8218" lon="7.02155">
        <ele>1088</ele>
        <time>2016-06-19T00:15:41Z</time>
      </trkpt>
      <trkpt lat="47.82172" lon="7.02171">
        <ele>1087</ele>
        <time>2016-06-19T00:15:53Z</time>
      </trkpt>
      <trkpt lat="47.82164" lon="7.02189">
        <ele>1080</ele>
        <time>2016-06-19T00:16:06Z</time>
      </trkpt>
      <trkpt lat="47.82156" lon="7.02211">
        <ele>1080</ele>
        <time>2016-06-19T00:16:19Z</time>
      </trkpt>
      <trkpt lat="47.82147" lon="7.02229">
        <ele>1080</ele>
        <time>2016-06-19T00:16:31Z</time>
      </trkpt>
      <trkpt lat="47.82135" lon="7.02245">
        <ele>1079</ele>
        <time>2016-06-19T00:16:43Z</time>
      </trkpt>
      <trkpt lat="47.82126" lon="7.02262">
        <ele>1082</ele>
        <time>2016-06-19T00:16:56Z</time>
      </trkpt>
      <trkpt lat="47.82118" lon="7.02281">
        <ele>1082</ele>
        <time>2016-06-19T00:17:09Z</time>
      </trkpt>
      <trkpt lat="47.82107" lon="7.02295">
        <ele>1082</ele>
        <time>2016-06-19T00:17:22Z</time>
      </trkpt>
      <trkpt lat="47.82096" lon="7.0231">
        <ele>1081</ele>
        <time>2016-06-19T00:17:34Z</time>
      </trkpt>
      <trkpt lat="47.82085" lon="7.02327">
        <ele>1080</ele>
        <time>2016-06-19T00:17:47Z</time>
      </trkpt>
      <trkpt lat="47.82074" lon="7.02341">
        <ele>1077</ele>
        <time>2016-06-19T00:17:58Z</time>
      </trkpt>
      <trkpt lat="47.82063" lon="7.02357">
        <ele>1075</ele>
        <time>2016-06-19T00:18:10Z</time>
      </trkpt>
      <trkpt lat="47.82052" lon="7.02373">
        <ele>1075</ele>
        <time>2016-06-19T00:18:22Z</time>
      </trkpt>
      <trkpt lat="47.8204" lon="7.0239">
        <ele>1074</ele>
        <time>2016-06-19T00:18:34Z</time>
      </trkpt>
      <trkpt lat="47.8203" lon="7.02406">
        <ele>1073</ele>
        <time>2016-06-19T00:18:46Z</time>
      </trkpt>
      <trkpt lat="47.82016" lon="7.02417">
        <ele>1077</ele>
        <time>2016-06-19T00:18:58Z</time>
      </trkpt>
      <trkpt lat="47.82" lon="7.02423">
        <ele>1072</ele>
        <time>2016-06-19T00:19:10Z</time>
      </trkpt>
      <trkpt lat="47.81985" lon="7.02431">
        <ele>1071</ele>
        <time>2016-06-19T00:19:23Z</time>
      </trkpt>
      <trkpt lat="47.8197" lon="7.02439">
        <ele>1072</ele>
        <time>2016-06-19T00:19:35Z</time>
      </trkpt>
      <trkpt lat="47.81956" lon="7.02449">
        <ele>1073</ele>
        <time>2016-06-19T00:19:48Z</time>
      </trkpt>
      <trkpt lat="47.81943" lon="7.0246">
        <ele>1073</ele>
        <time>2016-06-19T00:20:03Z</time>
      </trkpt>
      <trkpt lat="47.81927" lon="7.02467">
        <ele>1073</ele>
        <time>2016-06-19T00:20:18Z</time>
      </trkpt>
      <trkpt lat="47.81913" lon="7.02473">
        <ele>1070</ele>
        <time>2016-06-19T00:20:39Z</time>
      </trkpt>
      <trkpt lat="47.81898" lon="7.02469">
        <ele>1069</ele>
        <time>2016-06-19T00:20:51Z</time>
      </trkpt>
      <trkpt lat="47.81888" lon="7.02469">
        <ele>1069</ele>
        <time>2016-06-19T00:21:01Z</time>
      </trkpt>
      <trkpt lat="47.81874" lon="7.02466">
        <ele>1068</ele>
        <time>2016-06-19T00:21:13Z</time>
      </trkpt>
      <trkpt lat="47.81868" lon="7.02466">
        <ele>1068</ele>
        <time>2016-06-19T00:21:19Z</time>
      </trkpt>
      <trkpt lat="47.81854" lon="7.02457">
        <ele>1066</ele>
        <time>2016-06-19T00:21:28Z</time>
      </trkpt>
      <trkpt lat="47.8184" lon="7.02452">
        <ele>1065</ele>
        <time>2016-06-19T00:21:39Z</time>
      </trkpt>
      <trkpt lat="47.81827" lon="7.0245">
        <ele>1058</ele>
        <time>2016-06-19T00:21:50Z</time>
      </trkpt>
      <trkpt lat="47.81817" lon="7.02448">
        <ele>1058</ele>
        <time>2016-06-19T00:22:00Z</time>
      </trkpt>
      <trkpt lat="47.81802" lon="7.02439">
        <ele>1056</ele>
        <time>2016-06-19T00:22:13Z</time>
      </trkpt>
      <trkpt lat="47.81792" lon="7.02437">
        <ele>1055</ele>
        <time>2016-06-19T00:22:26Z</time>
      </trkpt>
      <trkpt lat="47.81782" lon="7.02435">
        <ele>1053</ele>
        <time>2016-06-19T00:22:36Z</time>
      </trkpt>
      <trkpt lat="47.81765" lon="7.02441">
        <ele>1052</ele>
        <time>2016-06-19T00:22:46Z</time>
      </trkpt>
      <trkpt lat="47.8176" lon="7.02443">
        <ele>1051</ele>
        <time>2016-06-19T00:22:51Z</time>
      </trkpt>
      <trkpt lat="47.81751" lon="7.02444">
        <ele>1051</ele>
        <time>2016-06-19T00:23:01Z</time>
      </trkpt>
      <trkpt lat="47.8174" lon="7.02446">
        <ele>1042</ele>
        <time>2016-06-19T00:23:14Z</time>
      </trkpt>
      <trkpt lat="47.81724" lon="7.02439">
        <ele>1040</ele>
        <time>2016-06-19T00:23:26Z</time>
      </trkpt>
      <trkpt lat="47.81715" lon="7.02444">
        <ele>1040</ele>
        <time>2016-06-19T00:23:39Z</time>
      </trkpt>
      <trkpt lat="47.817" lon="7.0245">
        <ele>1039</ele>
        <time>2016-06-19T00:23:54Z</time>
      </trkpt>
      <trkpt lat="47.81685" lon="7.02452">
        <ele>1038</ele>
        <time>2016-06-19T00:24:04Z</time>
      </trkpt>
      <trkpt lat="47.81664" lon="7.02453">
        <ele>1023</ele>
        <time>2016-06-19T00:24:15Z</time>
      </trkpt>
      <trkpt lat="47.81659" lon="7.02454">
        <ele>1023</ele>
        <time>2016-06-19T00:24:18Z</time>
      </trkpt>
      <trkpt lat="47.81651" lon="7.0246">
        <ele>1023</ele>
        <time>2016-06-19T00:24:31Z</time>
      </trkpt>
      <trkpt lat="47.81641" lon="7.0246">
        <ele>1021</ele>
        <time>2016-06-19T00:24:43Z</time>
      </trkpt>
      <trkpt lat="47.81628" lon="7.02471">
        <ele>1021</ele>
        <time>2016-06-19T00:24:54Z</time>
      </trkpt>
      <trkpt lat="47.81625" lon="7.02476">
        <ele>1021</ele>
        <time>2016-06-19T00:24:58Z</time>
      </trkpt>
      <trkpt lat="47.81612" lon="7.02484">
        <ele>1019</ele>
        <time>2016-06-19T00:25:08Z</time>
      </trkpt>
      <trkpt lat="47.81599" lon="7.02491">
        <ele>1017</ele>
        <time>2016-06-19T00:25:20Z</time>
      </trkpt>
      <trkpt lat="47.81591" lon="7.0251">
        <ele>1022</ele>
        <time>2016-06-19T00:25:32Z</time>
      </trkpt>
      <trkpt lat="47.81585" lon="7.02523">
        <ele>1025</ele>
        <time>2016-06-19T00:25:42Z</time>
      </trkpt>
      <trkpt lat="47.81582" lon="7.02528">
        <ele>1008</ele>
        <time>2016-06-19T00:25:45Z</time>
      </trkpt>
      <trkpt lat="47.81578" lon="7.02529">
        <ele>1007</ele>
        <time>2016-06-19T00:25:47Z</time>
      </trkpt>
      <trkpt lat="47.81572" lon="7.0253">
        <ele>1007</ele>
        <time>2016-06-19T00:25:50Z</time>
      </trkpt>
      <trkpt lat="47.8156" lon="7.0254">
        <ele>1005</ele>
        <time>2016-06-19T00:26:03Z</time>
      </trkpt>
      <trkpt lat="47.81551" lon="7.0255">
        <ele>1004</ele>
        <time>2016-06-19T00:26:12Z</time>
      </trkpt>
      <trkpt lat="47.81547" lon="7.02554">
        <ele>1003</ele>
        <time>2016-06-19T00:26:17Z</time>
      </trkpt>
      <trkpt lat="47.81537" lon="7.0257">
        <ele>1002</ele>
        <time>2016-06-19T00:26:30Z</time>
      </trkpt>
      <trkpt lat="47.81532" lon="7.02572">
        <ele>1001</ele>
        <time>2016-06-19T00:26:35Z</time>
      </trkpt>
      <trkpt lat="47.81523" lon="7.02575">
        <ele>998</ele>
        <time>2016-06-19T00:26:41Z</time>
      </trkpt>
      <trkpt lat="47.81515" lon="7.02587">
        <ele>998</ele>
        <time>2016-06-19T00:26:53Z</time>
      </trkpt>
      <trkpt lat="47.81511" lon="7.026">
        <ele>999</ele>
        <time>2016-06-19T00:27:06Z</time>
      </trkpt>
      <trkpt lat="47.81508" lon="7.02607">
        <ele>1000</ele>
        <time>2016-06-19T00:27:19Z</time>
      </trkpt>
      <trkpt lat="47.81506" lon="7.02614">
        <ele>1001</ele>
        <time>2016-06-19T00:27:23Z</time>
      </trkpt>
      <trkpt lat="47.81501" lon="7.02625">
        <ele>1001</ele>
        <time>2016-06-19T00:27:35Z</time>
      </trkpt>
      <trkpt lat="47.81499" lon="7.02638">
        <ele>977</ele>
        <time>2016-06-19T00:27:50Z</time>
      </trkpt>
      <trkpt lat="47.81497" lon="7.02645">
        <ele>979</ele>
        <time>2016-06-19T00:27:54Z</time>
      </trkpt>
      <trkpt lat="47.81506" lon="7.0266">
        <ele>997</ele>
        <time>2016-06-19T00:28:06Z</time>
      </trkpt>
      <trkpt lat="47.81507" lon="7.02668">
        <ele>994</ele>
        <time>2016-06-19T00:28:10Z</time>
      </trkpt>
      <trkpt lat="47.81503" lon="7.02682">
        <ele>994</ele>
        <time>2016-06-19T00:28:22Z</time>
      </trkpt>
      <trkpt lat="47.81508" lon="7.02694">
        <ele>994</ele>
        <time>2016-06-19T00:28:33Z</time>
      </trkpt>
      <trkpt lat="47.81522" lon="7.02703">
        <ele>995</ele>
        <time>2016-06-19T00:28:43Z</time>
      </trkpt>
      <trkpt lat="47.81527" lon="7.02706">
        <ele>995</ele>
        <time>2016-06-19T00:28:47Z</time>
      </trkpt>
      <trkpt lat="47.81529" lon="7.0272">
        <ele>993</ele>
        <time>2016-06-19T00:28:59Z</time>
      </trkpt>
      <trkpt lat="47.81528" lon="7.02728">
        <ele>992</ele>
        <time>2016-06-19T00:29:05Z</time>
      </trkpt>
      <trkpt lat="47.81533" lon="7.0273">
        <ele>993</ele>
        <time>2016-06-19T00:29:10Z</time>
      </trkpt>
      <trkpt lat="47.8154" lon="7.0274">
        <ele>994</ele>
        <time>2016-06-19T00:29:20Z</time>
      </trkpt>
      <trkpt lat="47.81543" lon="7.02745">
        <ele>994</ele>
        <time>2016-06-19T00:29:25Z</time>
      </trkpt>
      <trkpt lat="47.81547" lon="7.02758">
        <ele>980</ele>
        <time>2016-06-19T00:29:35Z</time>
      </trkpt>
      <trkpt lat="47.81553" lon="7.02769">
        <ele>980</ele>
        <time>2016-06-19T00:29:44Z</time>
      </trkpt>
      <trkpt lat="47.81556" lon="7.02773">
        <ele>980</ele>
        <time>2016-06-19T00:29:46Z</time>
      </trkpt>
      <trkpt lat="47.81565" lon="7.02779">
        <ele>981</ele>
        <time>2016-06-19T00:29:56Z</time>
      </trkpt>
      <trkpt lat="47.81573" lon="7.02789">
        <ele>979</ele>
        <time>2016-06-19T00:30:07Z</time>
      </trkpt>
      <trkpt lat="47.81588" lon="7.02796">
        <ele>998</ele>
        <time>2016-06-19T00:30:20Z</time>
      </trkpt>
      <trkpt lat="47.81591" lon="7.02803">
        <ele>996</ele>
        <time>2016-06-19T00:30:32Z</time>
      </trkpt>
      <trkpt lat="47.81608" lon="7.02807">
        <ele>998</ele>
        <time>2016-06-19T00:30:45Z</time>
      </trkpt>
      <trkpt lat="47.81615" lon="7.02815">
        <ele>999</ele>
        <time>2016-06-19T00:31:01Z</time>
      </trkpt>
      <trkpt lat="47.81619" lon="7.0283">
        <ele>998</ele>
        <time>2016-06-19T00:31:12Z</time>
      </trkpt>
      <trkpt lat="47.81622" lon="7.02846">
        <ele>982</ele>
        <time>2016-06-19T00:31:22Z</time>
      </trkpt>
      <trkpt lat="47.81626" lon="7.02859">
        <ele>982</ele>
        <time>2016-06-19T00:31:33Z</time>
      </trkpt>
      <trkpt lat="47.8163" lon="7.0287">
        <ele>981</ele>
        <time>2016-06-19T00:31:43Z</time>
      </trkpt>
      <trkpt lat="47.81629" lon="7.02885">
        <ele>979</ele>
        <time>2016-06-19T00:31:54Z</time>
      </trkpt>
      <trkpt lat="47.81626" lon="7.02893">
        <ele>978</ele>
        <time>2016-06-19T00:31:58Z</time>
      </trkpt>
      <trkpt lat="47.81626" lon="7.02915">
        <ele>976</ele>
        <time>2016-06-19T00:32:11Z</time>
      </trkpt>
      <trkpt lat="47.81625" lon="7.02922">
        <ele>963</ele>
        <time>2016-06-19T00:32:14Z</time>
      </trkpt>
      <trkpt lat="47.81623" lon="7.0293">
        <ele>962</ele>
        <time>2016-06-19T00:32:16Z</time>
      </trkpt>
      <trkpt lat="47.81619" lon="7.02945">
        <ele>960</ele>
        <time>2016-06-19T00:32:23Z</time>
      </trkpt>
      <trkpt lat="47.81618" lon="7.02953">
        <ele>959</ele>
        <time>2016-06-19T00:32:28Z</time>
      </trkpt>
      <trkpt lat="47.81613" lon="7.02967">
        <ele>956</ele>
        <time>2016-06-19T00:32:34Z</time>
      </trkpt>
      <trkpt lat="47.81611" lon="7.02982">
        <ele>953</ele>
        <time>2016-06-19T00:32:44Z</time>
      </trkpt>
      <trkpt lat="47.81599" lon="7.02998">
        <ele>943</ele>
        <time>2016-06-19T00:32:54Z</time>
      </trkpt>
      <trkpt lat="47.81597" lon="7.03022">
        <ele>943</ele>
        <time>2016-06-19T00:33:07Z</time>
      </trkpt>
      <trkpt lat="47.81592" lon="7.03034">
        <ele>944</ele>
        <time>2016-06-19T00:33:20Z</time>
      </trkpt>
      <trkpt lat="47.8159" lon="7.03041">
        <ele>944</ele>
        <time>2016-06-19T00:33:30Z</time>
      </trkpt>
      <trkpt lat="47.81588" lon="7.03061">
        <ele>942</ele>
        <time>2016-06-19T00:33:41Z</time>
      </trkpt>
      <trkpt lat="47.81586" lon="7.03076">
        <ele>936</ele>
        <time>2016-06-19T00:33:53Z</time>
      </trkpt>
      <trkpt lat="47.81577" lon="7.03093">
        <ele>924</ele>
        <time>2016-06-19T00:34:04Z</time>
      </trkpt>
      <trkpt lat="47.81569" lon="7.03106">
        <ele>921</ele>
        <time>2016-06-19T00:34:18Z</time>
      </trkpt>
      <trkpt lat="47.8156" lon="7.0313">
        <ele>919</ele>
        <time>2016-06-19T00:34:31Z</time>
      </trkpt>
      <trkpt lat="47.81557" lon="7.03137">
        <ele>919</ele>
        <time>2016-06-19T00:34:35Z</time>
      </trkpt>
      <trkpt lat="47.8155" lon="7.03153">
        <ele>919</ele>
        <time>2016-06-19T00:34:46Z</time>
      </trkpt>
      <trkpt lat="47.81543" lon="7.03164">
        <ele>917</ele>
        <time>2016-06-19T00:34:56Z</time>
      </trkpt>
      <trkpt lat="47.81535" lon="7.03171">
        <ele>921</ele>
        <time>2016-06-19T00:35:04Z</time>
      </trkpt>
      <trkpt lat="47.81524" lon="7.03189">
        <ele>919</ele>
        <time>2016-06-19T00:35:17Z</time>
      </trkpt>
      <trkpt lat="47.81515" lon="7.03197">
        <ele>919</ele>
        <time>2016-06-19T00:35:29Z</time>
      </trkpt>
      <trkpt lat="47.8151" lon="7.03199">
        <ele>919</ele>
        <time>2016-06-19T00:35:33Z</time>
      </trkpt>
      <trkpt lat="47.81497" lon="7.03213">
        <ele>906</ele>
        <time>2016-06-19T00:35:43Z</time>
      </trkpt>
      <trkpt lat="47.81487" lon="7.03214">
        <ele>905</ele>
        <time>2016-06-19T00:35:54Z</time>
      </trkpt>
      <trkpt lat="47.8147" lon="7.03218">
        <ele>904</ele>
        <time>2016-06-19T00:36:04Z</time>
      </trkpt>
      <trkpt lat="47.81465" lon="7.03219">
        <ele>903</ele>
        <time>2016-06-19T00:36:14Z</time>
      </trkpt>
      <trkpt lat="47.81449" lon="7.03226">
        <ele>902</ele>
        <time>2016-06-19T00:36:25Z</time>
      </trkpt>
      <trkpt lat="47.81444" lon="7.0323">
        <ele>902</ele>
        <time>2016-06-19T00:36:28Z</time>
      </trkpt>
      <trkpt lat="47.81434" lon="7.03231">
        <ele>901</ele>
        <time>2016-06-19T00:36:38Z</time>
      </trkpt>
      <trkpt lat="47.81417" lon="7.03231">
        <ele>900</ele>
        <time>2016-06-19T00:36:49Z</time>
      </trkpt>
      <trkpt lat="47.81412" lon="7.03233">
        <ele>892</ele>
        <time>2016-06-19T00:36:54Z</time>
      </trkpt>
      <trkpt lat="47.81396" lon="7.03234">
        <ele>889</ele>
        <time>2016-06-19T00:37:07Z</time>
      </trkpt>
      <trkpt lat="47.81386" lon="7.03231">
        <ele>887</ele>
        <time>2016-06-19T00:37:17Z</time>
      </trkpt>
      <trkpt lat="47.81381" lon="7.03231">
        <ele>886</ele>
        <time>2016-06-19T00:37:20Z</time>
      </trkpt>
      <trkpt lat="47.81367" lon="7.03236">
        <ele>885</ele>
        <time>2016-06-19T00:37:33Z</time>
      </trkpt>
      <trkpt lat="47.81361" lon="7.03238">
        <ele>885</ele>
        <time>2016-06-19T00:37:43Z</time>
      </trkpt>
      <trkpt lat="47.81345" lon="7.03233">
        <ele>884</ele>
        <time>2016-06-19T00:37:56Z</time>
      </trkpt>
      <trkpt lat="47.81341" lon="7.03235">
        <ele>885</ele>
        <time>2016-06-19T00:38:01Z</time>
      </trkpt>
      <trkpt lat="47.81325" lon="7.03235">
        <ele>878</ele>
        <time>2016-06-19T00:38:15Z</time>
      </trkpt>
      <trkpt lat="47.81309" lon="7.03239">
        <ele>876</ele>
        <time>2016-06-19T00:38:26Z</time>
      </trkpt>
      <trkpt lat="47.81299" lon="7.03237">
        <ele>874</ele>
        <time>2016-06-19T00:38:37Z</time>
      </trkpt>
      <trkpt lat="47.81284" lon="7.03239">
        <ele>872</ele>
        <time>2016-06-19T00:38:47Z</time>
      </trkpt>
      <trkpt lat="47.81269" lon="7.03242">
        <ele>872</ele>
        <time>2016-06-19T00:38:57Z</time>
      </trkpt>
      <trkpt lat="47.81265" lon="7.0324">
        <ele>872</ele>
        <time>2016-06-19T00:38:59Z</time>
      </trkpt>
      <trkpt lat="47.8126" lon="7.03239">
        <ele>873</ele>
        <time>2016-06-19T00:39:03Z</time>
      </trkpt>
      <trkpt lat="47.81245" lon="7.03236">
        <ele>868</ele>
        <time>2016-06-19T00:39:13Z</time>
      </trkpt>
      <trkpt lat="47.81234" lon="7.0324">
        <ele>867</ele>
        <time>2016-06-19T00:39:23Z</time>
      </trkpt>
      <trkpt lat="47.81226" lon="7.03248">
        <ele>865</ele>
        <time>2016-06-19T00:39:30Z</time>
      </trkpt>
      <trkpt lat="47.81211" lon="7.0325">
        <ele>863</ele>
        <time>2016-06-19T00:39:42Z</time>
      </trkpt>
      <trkpt lat="47.81201" lon="7.03246">
        <ele>861</ele>
        <time>2016-06-19T00:39:48Z</time>
      </trkpt>
      <trkpt lat="47.81197" lon="7.03249">
        <ele>861</ele>
        <time>2016-06-19T00:39:59Z</time>
      </trkpt>
      <trkpt lat="47.81186" lon="7.03266">
        <ele>867</ele>
        <time>2016-06-19T00:40:10Z</time>
      </trkpt>
      <trkpt lat="47.81181" lon="7.0328">
        <ele>868</ele>
        <time>2016-06-19T00:40:20Z</time>
      </trkpt>
      <trkpt lat="47.81169" lon="7.03292">
        <ele>868</ele>
        <time>2016-06-19T00:40:33Z</time>
      </trkpt>
      <trkpt lat="47.81168" lon="7.03301">
        <ele>868</ele>
        <time>2016-06-19T00:40:39Z</time>
      </trkpt>
      <trkpt lat="47.81165" lon="7.03316">
        <ele>860</ele>
        <time>2016-06-19T00:40:48Z</time>
      </trkpt>
      <trkpt lat="47.81155" lon="7.03342">
        <ele>861</ele>
        <time>2016-06-19T00:41:06Z</time>
      </trkpt>
      <trkpt lat="47.81159" lon="7.03346">
        <ele>861</ele>
        <time>2016-06-19T00:45:52Z</time>
      </trkpt>
      <trkpt lat="47.81168" lon="7.03354">
        <ele>867</ele>
        <time>2016-06-19T00:46:02Z</time>
      </trkpt>
      <trkpt lat="47.81172" lon="7.03375">
        <ele>867</ele>
        <time>2016-06-19T00:46:15Z</time>
      </trkpt>
      <trkpt lat="47.81177" lon="7.03388">
        <ele>867</ele>
        <time>2016-06-19T00:46:25Z</time>
      </trkpt>
      <trkpt lat="47.81174" lon="7.03402">
        <ele>866</ele>
        <time>2016-06-19T00:46:35Z</time>
      </trkpt>
      <trkpt lat="47.81172" lon="7.03424">
        <ele>862</ele>
        <time>2016-06-19T00:46:47Z</time>
      </trkpt>
      <trkpt lat="47.81172" lon="7.03439">
        <ele>860</ele>
        <time>2016-06-19T00:46:59Z</time>
      </trkpt>
      <trkpt lat="47.81168" lon="7.03452">
        <ele>859</ele>
        <time>2016-06-19T00:47:10Z</time>
      </trkpt>
      <trkpt lat="47.81167" lon="7.03459">
        <ele>858</ele>
        <time>2016-06-19T00:47:13Z</time>
      </trkpt>
      <trkpt lat="47.81161" lon="7.03479">
        <ele>856</ele>
        <time>2016-06-19T00:47:27Z</time>
      </trkpt>
      <trkpt lat="47.8116" lon="7.03492">
        <ele>855</ele>
        <time>2016-06-19T00:47:34Z</time>
      </trkpt>
      <trkpt lat="47.81153" lon="7.03512">
        <ele>852</ele>
        <time>2016-06-19T00:47:44Z</time>
      </trkpt>
      <trkpt lat="47.81152" lon="7.0353">
        <ele>850</ele>
        <time>2016-06-19T00:47:57Z</time>
      </trkpt>
      <trkpt lat="47.81145" lon="7.03554">
        <ele>848</ele>
        <time>2016-06-19T00:48:08Z</time>
      </trkpt>
      <trkpt lat="47.81141" lon="7.03575">
        <ele>847</ele>
        <time>2016-06-19T00:48:19Z</time>
      </trkpt>
      <trkpt lat="47.81136" lon="7.03581">
        <ele>847</ele>
        <time>2016-06-19T00:48:24Z</time>
      </trkpt>
      <trkpt lat="47.81126" lon="7.03584">
        <ele>840</ele>
        <time>2016-06-19T00:48:35Z</time>
      </trkpt>
      <trkpt lat="47.81115" lon="7.03588">
        <ele>841</ele>
        <time>2016-06-19T00:48:47Z</time>
      </trkpt>
      <trkpt lat="47.81101" lon="7.036">
        <ele>843</ele>
        <time>2016-06-19T00:48:59Z</time>
      </trkpt>
      <trkpt lat="47.81099" lon="7.03606">
        <ele>842</ele>
        <time>2016-06-19T00:49:05Z</time>
      </trkpt>
      <trkpt lat="47.81088" lon="7.03621">
        <ele>840</ele>
        <time>2016-06-19T00:49:16Z</time>
      </trkpt>
      <trkpt lat="47.81084" lon="7.03636">
        <ele>839</ele>
        <time>2016-06-19T00:49:26Z</time>
      </trkpt>
      <trkpt lat="47.8108" lon="7.03643">
        <ele>845</ele>
        <time>2016-06-19T00:49:29Z</time>
      </trkpt>
      <trkpt lat="47.81074" lon="7.03664">
        <ele>842</ele>
        <time>2016-06-19T00:49:39Z</time>
      </trkpt>
      <trkpt lat="47.81069" lon="7.03687">
        <ele>837</ele>
        <time>2016-06-19T00:49:51Z</time>
      </trkpt>
      <trkpt lat="47.81069" lon="7.03694">
        <ele>836</ele>
        <time>2016-06-19T00:49:55Z</time>
      </trkpt>
      <trkpt lat="47.81062" lon="7.03706">
        <ele>835</ele>
        <time>2016-06-19T00:50:03Z</time>
      </trkpt>
      <trkpt lat="47.81056" lon="7.03727">
        <ele>832</ele>
        <time>2016-06-19T00:50:18Z</time>
      </trkpt>
      <trkpt lat="47.81045" lon="7.0374">
        <ele>833</ele>
        <time>2016-06-19T00:50:29Z</time>
      </trkpt>
      <trkpt lat="47.81036" lon="7.03748">
        <ele>833</ele>
        <time>2016-06-19T00:50:41Z</time>
      </trkpt>
      <trkpt lat="47.81025" lon="7.03755">
        <ele>823</ele>
        <time>2016-06-19T00:50:52Z</time>
      </trkpt>
      <trkpt lat="47.8102" lon="7.03759">
        <ele>824</ele>
        <time>2016-06-19T00:50:55Z</time>
      </trkpt>
      <trkpt lat="47.81011" lon="7.03762">
        <ele>826</ele>
        <time>2016-06-19T00:51:05Z</time>
      </trkpt>
      <trkpt lat="47.81005" lon="7.03761">
        <ele>828</ele>
        <time>2016-06-19T00:51:10Z</time>
      </trkpt>
      <trkpt lat="47.8099" lon="7.03758">
        <ele>830</ele>
        <time>2016-06-19T00:51:25Z</time>
      </trkpt>
      <trkpt lat="47.80973" lon="7.03759">
        <ele>826</ele>
        <time>2016-06-19T00:51:40Z</time>
      </trkpt>
      <trkpt lat="47.80958" lon="7.03757">
        <ele>825</ele>
        <time>2016-06-19T00:52:01Z</time>
      </trkpt>
      <trkpt lat="47.80943" lon="7.0376">
        <ele>824</ele>
        <time>2016-06-19T00:52:11Z</time>
      </trkpt>
      <trkpt lat="47.80933" lon="7.03768">
        <ele>823</ele>
        <time>2016-06-19T00:52:22Z</time>
      </trkpt>
      <trkpt lat="47.80927" lon="7.03772">
        <ele>823</ele>
        <time>2016-06-19T00:52:24Z</time>
      </trkpt>
      <trkpt lat="47.80911" lon="7.03776">
        <ele>821</ele>
        <time>2016-06-19T00:52:34Z</time>
      </trkpt>
      <trkpt lat="47.80901" lon="7.03789">
        <ele>820</ele>
        <time>2016-06-19T00:52:45Z</time>
      </trkpt>
      <trkpt lat="47.80898" lon="7.03803">
        <ele>818</ele>
        <time>2016-06-19T00:52:59Z</time>
      </trkpt>
      <trkpt lat="47.80893" lon="7.03814">
        <ele>818</ele>
        <time>2016-06-19T00:53:09Z</time>
      </trkpt>
      <trkpt lat="47.80886" lon="7.03835">
        <ele>811</ele>
        <time>2016-06-19T00:53:19Z</time>
      </trkpt>
      <trkpt lat="47.80878" lon="7.03852">
        <ele>811</ele>
        <time>2016-06-19T00:53:30Z</time>
      </trkpt>
      <trkpt lat="47.80871" lon="7.0387">
        <ele>810</ele>
        <time>2016-06-19T00:53:42Z</time>
      </trkpt>
      <trkpt lat="47.80861" lon="7.03889">
        <ele>810</ele>
        <time>2016-06-19T00:53:52Z</time>
      </trkpt>
      <trkpt lat="47.80856" lon="7.03909">
        <ele>811</ele>
        <time>2016-06-19T00:54:04Z</time>
      </trkpt>
      <trkpt lat="47.80854" lon="7.0393">
        <ele>802</ele>
        <time>2016-06-19T00:54:14Z</time>
      </trkpt>
      <trkpt lat="47.80854" lon="7.03938">
        <ele>801</ele>
        <time>2016-06-19T00:54:18Z</time>
      </trkpt>
      <trkpt lat="47.80858" lon="7.03946">
        <ele>798</ele>
        <time>2016-06-19T00:54:23Z</time>
      </trkpt>
      <trkpt lat="47.80862" lon="7.03966">
        <ele>795</ele>
        <time>2016-06-19T00:54:36Z</time>
      </trkpt>
      <trkpt lat="47.80856" lon="7.03987">
        <ele>796</ele>
        <time>2016-06-19T00:54:48Z</time>
      </trkpt>
      <trkpt lat="47.80854" lon="7.03994">
        <ele>797</ele>
        <time>2016-06-19T00:54:51Z</time>
      </trkpt>
      <trkpt lat="47.8085" lon="7.04007">
        <ele>788</ele>
        <time>2016-06-19T00:55:01Z</time>
      </trkpt>
      <trkpt lat="47.80838" lon="7.04018">
        <ele>789</ele>
        <time>2016-06-19T00:55:12Z</time>
      </trkpt>
      <trkpt lat="47.80824" lon="7.0403">
        <ele>801</ele>
        <time>2016-06-19T00:55:24Z</time>
      </trkpt>
      <trkpt lat="47.80818" lon="7.04033">
        <ele>801</ele>
        <time>2016-06-19T00:55:30Z</time>
      </trkpt>
      <trkpt lat="47.80806" lon="7.04046">
        <ele>799</ele>
        <time>2016-06-19T00:55:52Z</time>
      </trkpt>
      <trkpt lat="47.80787" lon="7.0406">
        <ele>800</ele>
        <time>2016-06-19T00:56:02Z</time>
      </trkpt>
      <trkpt lat="47.80775" lon="7.04077">
        <ele>800</ele>
        <time>2016-06-19T00:56:13Z</time>
      </trkpt>
      <trkpt lat="47.80769" lon="7.04088">
        <ele>785</ele>
        <time>2016-06-19T00:56:20Z</time>
      </trkpt>
      <trkpt lat="47.80763" lon="7.041">
        <ele>784</ele>
        <time>2016-06-19T00:56:30Z</time>
      </trkpt>
      <trkpt lat="47.80756" lon="7.04111">
        <ele>781</ele>
        <time>2016-06-19T00:56:38Z</time>
      </trkpt>
      <trkpt lat="47.80747" lon="7.04131">
        <ele>782</ele>
        <time>2016-06-19T00:56:50Z</time>
      </trkpt>
      <trkpt lat="47.80743" lon="7.04136">
        <ele>781</ele>
        <time>2016-06-19T00:56:56Z</time>
      </trkpt>
      <trkpt lat="47.80734" lon="7.04152">
        <ele>778</ele>
        <time>2016-06-19T00:57:08Z</time>
      </trkpt>
      <trkpt lat="47.80727" lon="7.04163">
        <ele>777</ele>
        <time>2016-06-19T00:57:14Z</time>
      </trkpt>
      <trkpt lat="47.80717" lon="7.0418">
        <ele>763</ele>
        <time>2016-06-19T00:57:25Z</time>
      </trkpt>
      <trkpt lat="47.80713" lon="7.04186">
        <ele>762</ele>
        <time>2016-06-19T00:57:28Z</time>
      </trkpt>
      <trkpt lat="47.80708" lon="7.04199">
        <ele>761</ele>
        <time>2016-06-19T00:57:35Z</time>
      </trkpt>
      <trkpt lat="47.80698" lon="7.04213">
        <ele>759</ele>
        <time>2016-06-19T00:57:48Z</time>
      </trkpt>
      <trkpt lat="47.80694" lon="7.04217">
        <ele>759</ele>
        <time>2016-06-19T00:57:53Z</time>
      </trkpt>
      <trkpt lat="47.80686" lon="7.04224">
        <ele>758</ele>
        <time>2016-06-19T00:58:03Z</time>
      </trkpt>
      <trkpt lat="47.80676" lon="7.04231">
        <ele>757</ele>
        <time>2016-06-19T00:58:16Z</time>
      </trkpt>
      <trkpt lat="47.80662" lon="7.04244">
        <ele>752</ele>
        <time>2016-06-19T00:58:26Z</time>
      </trkpt>
      <trkpt lat="47.80658" lon="7.04251">
        <ele>751</ele>
        <time>2016-06-19T00:58:30Z</time>
      </trkpt>
      <trkpt lat="47.80657" lon="7.04264">
        <ele>750</ele>
        <time>2016-06-19T00:58:41Z</time>
      </trkpt>
      <trkpt lat="47.80663" lon="7.0427">
        <ele>750</ele>
        <time>2016-06-19T00:59:03Z</time>
      </trkpt>
      <trkpt lat="47.80661" lon="7.04275">
        <ele>750</ele>
        <time>2016-06-19T00:59:22Z</time>
      </trkpt>
      <trkpt lat="47.80665" lon="7.04295">
        <ele>750</ele>
        <time>2016-06-19T00:59:41Z</time>
      </trkpt>
      <trkpt lat="47.80672" lon="7.04304">
        <ele>748</ele>
        <time>2016-06-19T00:59:51Z</time>
      </trkpt>
      <trkpt lat="47.80674" lon="7.04319">
        <ele>749</ele>
        <time>2016-06-19T01:00:05Z</time>
      </trkpt>
      <trkpt lat="47.80683" lon="7.04337">
        <ele>751</ele>
        <time>2016-06-19T01:00:19Z</time>
      </trkpt>
      <trkpt lat="47.80687" lon="7.04342">
        <ele>751</ele>
        <time>2016-06-19T01:00:23Z</time>
      </trkpt>
      <trkpt lat="47.80688" lon="7.04349">
        <ele>751</ele>
        <time>2016-06-19T01:00:27Z</time>
      </trkpt>
      <trkpt lat="47.80687" lon="7.04356">
        <ele>751</ele>
        <time>2016-06-19T01:00:35Z</time>
      </trkpt>
      <trkpt lat="47.80688" lon="7.04371">
        <ele>752</ele>
        <time>2016-06-19T01:00:49Z</time>
      </trkpt>
      <trkpt lat="47.80701" lon="7.04388">
        <ele>752</ele>
        <time>2016-06-19T01:01:02Z</time>
      </trkpt>
      <trkpt lat="47.80709" lon="7.04397">
        <ele>751</ele>
        <time>2016-06-19T01:01:12Z</time>
      </trkpt>
      <trkpt lat="47.80716" lon="7.04417">
        <ele>760</ele>
        <time>2016-06-19T01:01:26Z</time>
      </trkpt>
      <trkpt lat="47.80725" lon="7.04435">
        <ele>759</ele>
        <time>2016-06-19T01:01:38Z</time>
      </trkpt>
      <trkpt lat="47.80726" lon="7.04442">
        <ele>760</ele>
        <time>2016-06-19T01:01:42Z</time>
      </trkpt>
      <trkpt lat="47.80732" lon="7.04453">
        <ele>760</ele>
        <time>2016-06-19T01:01:52Z</time>
      </trkpt>
      <trkpt lat="47.80739" lon="7.04464">
        <ele>760</ele>
        <time>2016-06-19T01:01:58Z</time>
      </trkpt>
      <trkpt lat="47.80744" lon="7.04484">
        <ele>759</ele>
        <time>2016-06-19T01:02:10Z</time>
      </trkpt>
      <trkpt lat="47.80748" lon="7.04489">
        <ele>757</ele>
        <time>2016-06-19T01:02:17Z</time>
      </trkpt>
      <trkpt lat="47.80754" lon="7.04508">
        <ele>749</ele>
        <time>2016-06-19T01:02:32Z</time>
      </trkpt>
      <trkpt lat="47.80761" lon="7.04528">
        <ele>747</ele>
        <time>2016-06-19T01:02:44Z</time>
      </trkpt>
      <trkpt lat="47.80758" lon="7.04535">
        <ele>747</ele>
        <time>2016-06-19T01:02:49Z</time>
      </trkpt>
      <trkpt lat="47.80761" lon="7.04541">
        <ele>748</ele>
        <time>2016-06-19T01:02:59Z</time>
      </trkpt>
      <trkpt lat="47.80768" lon="7.0456">
        <ele>751</ele>
        <time>2016-06-19T01:03:10Z</time>
      </trkpt>
      <trkpt lat="47.80769" lon="7.04568">
        <ele>753</ele>
        <time>2016-06-19T01:03:22Z</time>
      </trkpt>
      <trkpt lat="47.80772" lon="7.04573">
        <ele>753</ele>
        <time>2016-06-19T01:03:27Z</time>
      </trkpt>
      <trkpt lat="47.8078" lon="7.04587">
        <ele>766</ele>
        <time>2016-06-19T01:03:47Z</time>
      </trkpt>
      <trkpt lat="47.80786" lon="7.04606">
        <ele>766</ele>
        <time>2016-06-19T01:04:00Z</time>
      </trkpt>
      <trkpt lat="47.80799" lon="7.04618">
        <ele>765</ele>
        <time>2016-06-19T01:04:12Z</time>
      </trkpt>
      <trkpt lat="47.80808" lon="7.04626">
        <ele>765</ele>
        <time>2016-06-19T01:04:23Z</time>
      </trkpt>
      <trkpt lat="47.80822" lon="7.0462">
        <ele>761</ele>
        <time>2016-06-19T01:04:33Z</time>
      </trkpt>
      <trkpt lat="47.80827" lon="7.04618">
        <ele>759</ele>
        <time>2016-06-19T01:04:40Z</time>
      </trkpt>
      <trkpt lat="47.80837" lon="7.04618">
        <ele>738</ele>
        <time>2016-06-19T01:04:55Z</time>
      </trkpt>
      <trkpt lat="47.80841" lon="7.04622">
        <ele>738</ele>
        <time>2016-06-19T01:05:00Z</time>
      </trkpt>
      <trkpt lat="47.80847" lon="7.04633">
        <ele>741</ele>
        <time>2016-06-19T01:05:18Z</time>
      </trkpt>
      <trkpt lat="47.80864" lon="7.04654">
        <ele>742</ele>
        <time>2016-06-19T01:05:33Z</time>
      </trkpt>
      <trkpt lat="47.80871" lon="7.04665">
        <ele>741</ele>
        <time>2016-06-19T01:05:40Z</time>
      </trkpt>
      <trkpt lat="47.80882" lon="7.04676">
        <ele>755</ele>
        <time>2016-06-19T01:05:59Z</time>
      </trkpt>
      <trkpt lat="47.80893" lon="7.04692">
        <ele>754</ele>
        <time>2016-06-19T01:06:12Z</time>
      </trkpt>
      <trkpt lat="47.80906" lon="7.04709">
        <ele>755</ele>
        <time>2016-06-19T01:06:25Z</time>
      </trkpt>
      <trkpt lat="47.80909" lon="7.04722">
        <ele>756</ele>
        <time>2016-06-19T01:06:39Z</time>
      </trkpt>
      <trkpt lat="47.80912" lon="7.04729">
        <ele>755</ele>
        <time>2016-06-19T01:06:51Z</time>
      </trkpt>
      <trkpt lat="47.80919" lon="7.04747">
        <ele>744</ele>
        <time>2016-06-19T01:07:04Z</time>
      </trkpt>
      <trkpt lat="47.80924" lon="7.04758">
        <ele>744</ele>
        <time>2016-06-19T01:07:16Z</time>
      </trkpt>
      <trkpt lat="47.80924" lon="7.04765">
        <ele>743</ele>
        <time>2016-06-19T01:07:32Z</time>
      </trkpt>
      <trkpt lat="47.80925" lon="7.04779">
        <ele>742</ele>
        <time>2016-06-19T01:07:42Z</time>
      </trkpt>
      <trkpt lat="47.8093" lon="7.04794">
        <ele>743</ele>
        <time>2016-06-19T01:07:59Z</time>
      </trkpt>
      <trkpt lat="47.80937" lon="7.04816">
        <ele>746</ele>
        <time>2016-06-19T01:08:09Z</time>
      </trkpt>
      <trkpt lat="47.80938" lon="7.04823">
        <ele>747</ele>
        <time>2016-06-19T01:08:14Z</time>
      </trkpt>
      <trkpt lat="47.80945" lon="7.04845">
        <ele>760</ele>
        <time>2016-06-19T01:08:31Z</time>
      </trkpt>
      <trkpt lat="47.80949" lon="7.04857">
        <ele>760</ele>
        <time>2016-06-19T01:08:44Z</time>
      </trkpt>
      <trkpt lat="47.80961" lon="7.04862">
        <ele>758</ele>
        <time>2016-06-19T01:08:57Z</time>
      </trkpt>
      <trkpt lat="47.80973" lon="7.04874">
        <ele>758</ele>
        <time>2016-06-19T01:09:07Z</time>
      </trkpt>
      <trkpt lat="47.80984" lon="7.04878">
        <ele>757</ele>
        <time>2016-06-19T01:09:17Z</time>
      </trkpt>
      <trkpt lat="47.81004" lon="7.0489">
        <ele>741</ele>
        <time>2016-06-19T01:09:33Z</time>
      </trkpt>
      <trkpt lat="47.81024" lon="7.04906">
        <ele>741</ele>
        <time>2016-06-19T01:09:45Z</time>
      </trkpt>
      <trkpt lat="47.81029" lon="7.04911">
        <ele>739</ele>
        <time>2016-06-19T01:09:49Z</time>
      </trkpt>
      <trkpt lat="47.81046" lon="7.04921">
        <ele>755</ele>
        <time>2016-06-19T01:09:59Z</time>
      </trkpt>
      <trkpt lat="47.8106" lon="7.04931">
        <ele>752</ele>
        <time>2016-06-19T01:10:13Z</time>
      </trkpt>
      <trkpt lat="47.81075" lon="7.04949">
        <ele>754</ele>
        <time>2016-06-19T01:10:26Z</time>
      </trkpt>
      <trkpt lat="47.81092" lon="7.04963">
        <ele>733</ele>
        <time>2016-06-19T01:10:39Z</time>
      </trkpt>
      <trkpt lat="47.811" lon="7.04978">
        <ele>737</ele>
        <time>2016-06-19T01:10:51Z</time>
      </trkpt>
      <trkpt lat="47.81103" lon="7.04984">
        <ele>738</ele>
        <time>2016-06-19T01:10:56Z</time>
      </trkpt>
      <trkpt lat="47.81116" lon="7.04996">
        <ele>733</ele>
        <time>2016-06-19T01:11:06Z</time>
      </trkpt>
      <trkpt lat="47.81127" lon="7.05015">
        <ele>746</ele>
        <time>2016-06-19T01:11:16Z</time>
      </trkpt>
      <trkpt lat="47.8114" lon="7.05028">
        <ele>743</ele>
        <time>2016-06-19T01:11:29Z</time>
      </trkpt>
      <trkpt lat="47.81144" lon="7.05034">
        <ele>743</ele>
        <time>2016-06-19T01:11:34Z</time>
      </trkpt>
      <trkpt lat="47.81151" lon="7.05046">
        <ele>744</ele>
        <time>2016-06-19T01:11:42Z</time>
      </trkpt>
      <trkpt lat="47.81159" lon="7.05057">
        <ele>744</ele>
        <time>2016-06-19T01:11:52Z</time>
      </trkpt>
      <trkpt lat="47.81162" lon="7.0507">
        <ele>743</ele>
        <time>2016-06-19T01:12:02Z</time>
      </trkpt>
      <trkpt lat="47.81173" lon="7.05084">
        <ele>736</ele>
        <time>2016-06-19T01:12:13Z</time>
      </trkpt>
      <trkpt lat="47.81183" lon="7.05101">
        <ele>732</ele>
        <time>2016-06-19T01:12:25Z</time>
      </trkpt>
      <trkpt lat="47.81186" lon="7.05107">
        <ele>732</ele>
        <time>2016-06-19T01:12:29Z</time>
      </trkpt>
      <trkpt lat="47.81194" lon="7.05114">
        <ele>731</ele>
        <time>2016-06-19T01:12:44Z</time>
      </trkpt>
      <trkpt lat="47.81203" lon="7.05123">
        <ele>729</ele>
        <time>2016-06-19T01:12:54Z</time>
      </trkpt>
      <trkpt lat="47.81218" lon="7.05138">
        <ele>727</ele>
        <time>2016-06-19T01:13:04Z</time>
      </trkpt>
      <trkpt lat="47.81228" lon="7.05156">
        <ele>725</ele>
        <time>2016-06-19T01:13:19Z</time>
      </trkpt>
      <trkpt lat="47.81238" lon="7.05172">
        <ele>729</ele>
        <time>2016-06-19T01:13:29Z</time>
      </trkpt>
      <trkpt lat="47.81248" lon="7.05191">
        <ele>734</ele>
        <time>2016-06-19T01:13:43Z</time>
      </trkpt>
      <trkpt lat="47.81251" lon="7.05205">
        <ele>706</ele>
        <time>2016-06-19T01:13:54Z</time>
      </trkpt>
      <trkpt lat="47.81267" lon="7.05226">
        <ele>706</ele>
        <time>2016-06-19T01:14:06Z</time>
      </trkpt>
      <trkpt lat="47.81274" lon="7.05238">
        <ele>706</ele>
        <time>2016-06-19T01:14:17Z</time>
      </trkpt>
      <trkpt lat="47.81273" lon="7.05261">
        <ele>712</ele>
        <time>2016-06-19T01:14:31Z</time>
      </trkpt>
      <trkpt lat="47.81277" lon="7.0527">
        <ele>710</ele>
        <time>2016-06-19T01:14:35Z</time>
      </trkpt>
      <trkpt lat="47.81281" lon="7.05283">
        <ele>709</ele>
        <time>2016-06-19T01:14:47Z</time>
      </trkpt>
      <trkpt lat="47.81285" lon="7.05304">
        <ele>709</ele>
        <time>2016-06-19T01:15:01Z</time>
      </trkpt>
      <trkpt lat="47.81294" lon="7.05321">
        <ele>706</ele>
        <time>2016-06-19T01:15:13Z</time>
      </trkpt>
      <trkpt lat="47.81301" lon="7.05343">
        <ele>708</ele>
        <time>2016-06-19T01:15:25Z</time>
      </trkpt>
      <trkpt lat="47.81296" lon="7.05351">
        <ele>710</ele>
        <time>2016-06-19T01:15:28Z</time>
      </trkpt>
      <trkpt lat="47.813" lon="7.05364">
        <ele>710</ele>
        <time>2016-06-19T01:15:35Z</time>
      </trkpt>
      <trkpt lat="47.81304" lon="7.05377">
        <ele>709</ele>
        <time>2016-06-19T01:15:44Z</time>
      </trkpt>
      <trkpt lat="47.8131" lon="7.05397">
        <ele>707</ele>
        <time>2016-06-19T01:15:56Z</time>
      </trkpt>
      <trkpt lat="47.81319" lon="7.05413">
        <ele>702</ele>
        <time>2016-06-19T01:16:06Z</time>
      </trkpt>
      <trkpt lat="47.81322" lon="7.05425">
        <ele>703</ele>
        <time>2016-06-19T01:16:11Z</time>
      </trkpt>
      <trkpt lat="47.81327" lon="7.05438">
        <ele>706</ele>
        <time>2016-06-19T01:16:17Z</time>
      </trkpt>
      <trkpt lat="47.8134" lon="7.05454">
        <ele>685</ele>
        <time>2016-06-19T01:16:29Z</time>
      </trkpt>
      <trkpt lat="47.81347" lon="7.05466">
        <ele>685</ele>
        <time>2016-06-19T01:16:36Z</time>
      </trkpt>
      <trkpt lat="47.81356" lon="7.05484">
        <ele>685</ele>
        <time>2016-06-19T01:16:50Z</time>
      </trkpt>
      <trkpt lat="47.81361" lon="7.05496">
        <ele>685</ele>
        <time>2016-06-19T01:17:04Z</time>
      </trkpt>
      <trkpt lat="47.81364" lon="7.05516">
        <ele>686</ele>
        <time>2016-06-19T01:17:17Z</time>
      </trkpt>
      <trkpt lat="47.8137" lon="7.05536">
        <ele>684</ele>
        <time>2016-06-19T01:17:30Z</time>
      </trkpt>
      <trkpt lat="47.8137" lon="7.05552">
        <ele>684</ele>
        <time>2016-06-19T01:17:42Z</time>
      </trkpt>
      <trkpt lat="47.81371" lon="7.05575">
        <ele>683</ele>
        <time>2016-06-19T01:17:59Z</time>
      </trkpt>
      <trkpt lat="47.81368" lon="7.0559">
        <ele>679</ele>
        <time>2016-06-19T01:18:09Z</time>
      </trkpt>
      <trkpt lat="47.8136" lon="7.05618">
        <ele>678</ele>
        <time>2016-06-19T01:18:22Z</time>
      </trkpt>
      <trkpt lat="47.81357" lon="7.05631">
        <ele>678</ele>
        <time>2016-06-19T01:18:29Z</time>
      </trkpt>
      <trkpt lat="47.81355" lon="7.05638">
        <ele>678</ele>
        <time>2016-06-19T01:18:33Z</time>
      </trkpt>
      <trkpt lat="47.81352" lon="7.05655">
        <ele>678</ele>
        <time>2016-06-19T01:18:44Z</time>
      </trkpt>
      <trkpt lat="47.81343" lon="7.05675">
        <ele>673</ele>
        <time>2016-06-19T01:18:56Z</time>
      </trkpt>
      <trkpt lat="47.81341" lon="7.05681">
        <ele>672</ele>
        <time>2016-06-19T01:19:02Z</time>
      </trkpt>
      <trkpt lat="47.81331" lon="7.057">
        <ele>679</ele>
        <time>2016-06-19T01:19:14Z</time>
      </trkpt>
      <trkpt lat="47.81325" lon="7.05719">
        <ele>677</ele>
        <time>2016-06-19T01:19:24Z</time>
      </trkpt>
      <trkpt lat="47.81322" lon="7.05726">
        <ele>675</ele>
        <time>2016-06-19T01:19:30Z</time>
      </trkpt>
      <trkpt lat="47.81315" lon="7.05744">
        <ele>673</ele>
        <time>2016-06-19T01:19:41Z</time>
      </trkpt>
      <trkpt lat="47.8131" lon="7.05766">
        <ele>662</ele>
        <time>2016-06-19T01:19:53Z</time>
      </trkpt>
      <trkpt lat="47.81306" lon="7.05779">
        <ele>661</ele>
        <time>2016-06-19T01:20:04Z</time>
      </trkpt>
      <trkpt lat="47.81313" lon="7.05792">
        <ele>659</ele>
        <time>2016-06-19T01:20:16Z</time>
      </trkpt>
      <trkpt lat="47.81316" lon="7.05797">
        <ele>658</ele>
        <time>2016-06-19T01:20:21Z</time>
      </trkpt>
      <trkpt lat="47.81325" lon="7.05796">
        <ele>657</ele>
        <time>2016-06-19T01:20:34Z</time>
      </trkpt>
      <trkpt lat="47.81348" lon="7.05788">
        <ele>647</ele>
        <time>2016-06-19T01:20:48Z</time>
      </trkpt>
      <trkpt lat="47.81363" lon="7.05786">
        <ele>646</ele>
        <time>2016-06-19T01:20:58Z</time>
      </trkpt>
      <trkpt lat="47.81368" lon="7.05785">
        <ele>646</ele>
        <time>2016-06-19T01:21:04Z</time>
      </trkpt>
      <trkpt lat="47.81379" lon="7.05789">
        <ele>644</ele>
        <time>2016-06-19T01:21:18Z</time>
      </trkpt>
      <trkpt lat="47.81389" lon="7.05794">
        <ele>643</ele>
        <time>2016-06-19T01:21:31Z</time>
      </trkpt>
      <trkpt lat="47.81393" lon="7.05795">
        <ele>642</ele>
        <time>2016-06-19T01:21:40Z</time>
      </trkpt>
      <trkpt lat="47.814" lon="7.05798">
        <ele>641</ele>
        <time>2016-06-19T01:21:47Z</time>
      </trkpt>
      <trkpt lat="47.81413" lon="7.05814">
        <ele>637</ele>
        <time>2016-06-19T01:21:58Z</time>
      </trkpt>
      <trkpt lat="47.81416" lon="7.05819">
        <ele>635</ele>
        <time>2016-06-19T01:22:02Z</time>
      </trkpt>
      <trkpt lat="47.8142" lon="7.05839">
        <ele>627</ele>
        <time>2016-06-19T01:22:16Z</time>
      </trkpt>
      <trkpt lat="47.81425" lon="7.05841">
        <ele>627</ele>
        <time>2016-06-19T01:22:24Z</time>
      </trkpt>
      <trkpt lat="47.8143" lon="7.05838">
        <ele>626</ele>
        <time>2016-06-19T01:24:11Z</time>
      </trkpt>
      <trkpt lat="47.81439" lon="7.05838">
        <ele>626</ele>
        <time>2016-06-19T01:25:55Z</time>
      </trkpt>
      <trkpt lat="47.81444" lon="7.05842">
        <ele>625</ele>
        <time>2016-06-19T01:27:05Z</time>
      </trkpt>
      <trkpt lat="47.81449" lon="7.05854">
        <ele>625</ele>
        <time>2016-06-19T01:27:17Z</time>
      </trkpt>
      <trkpt lat="47.81444" lon="7.05868">
        <ele>625</ele>
        <time>2016-06-19T01:27:30Z</time>
      </trkpt>
      <trkpt lat="47.81433" lon="7.05887">
        <ele>624</ele>
        <time>2016-06-19T01:27:44Z</time>
      </trkpt>
      <trkpt lat="47.81433" lon="7.05901">
        <ele>623</ele>
        <time>2016-06-19T01:27:56Z</time>
      </trkpt>
      <trkpt lat="47.81431" lon="7.05915">
        <ele>622</ele>
        <time>2016-06-19T01:28:06Z</time>
      </trkpt>
      <trkpt lat="47.81436" lon="7.05917">
        <ele>621</ele>
        <time>2016-06-19T01:28:24Z</time>
      </trkpt>
      <trkpt lat="47.81442" lon="7.05938">
        <ele>621</ele>
        <time>2016-06-19T01:28:37Z</time>
      </trkpt>
      <trkpt lat="47.81448" lon="7.05961">
        <ele>621</ele>
        <time>2016-06-19T01:28:50Z</time>
      </trkpt>
      <trkpt lat="47.8145" lon="7.0597">
        <ele>621</ele>
        <time>2016-06-19T01:28:53Z</time>
      </trkpt>
      <trkpt lat="47.81454" lon="7.05985">
        <ele>621</ele>
        <time>2016-06-19T01:29:03Z</time>
      </trkpt>
      <trkpt lat="47.81454" lon="7.05993">
        <ele>621</ele>
        <time>2016-06-19T01:29:05Z</time>
      </trkpt>
      <trkpt lat="47.81456" lon="7.06007">
        <ele>618</ele>
        <time>2016-06-19T01:29:12Z</time>
      </trkpt>
      <trkpt lat="47.8146" lon="7.06019">
        <ele>619</ele>
        <time>2016-06-19T01:29:25Z</time>
      </trkpt>
      <trkpt lat="47.81461" lon="7.06042">
        <ele>618</ele>
        <time>2016-06-19T01:29:33Z</time>
      </trkpt>
      <trkpt lat="47.81468" lon="7.06062">
        <ele>618</ele>
        <time>2016-06-19T01:29:46Z</time>
      </trkpt>
      <trkpt lat="47.8147" lon="7.06083">
        <ele>619</ele>
        <time>2016-06-19T01:29:57Z</time>
      </trkpt>
      <trkpt lat="47.81475" lon="7.06096">
        <ele>616</ele>
        <time>2016-06-19T01:30:05Z</time>
      </trkpt>
      <trkpt lat="47.81475" lon="7.06119">
        <ele>615</ele>
        <time>2016-06-19T01:30:15Z</time>
      </trkpt>
      <trkpt lat="47.81478" lon="7.0614">
        <ele>615</ele>
        <time>2016-06-19T01:30:27Z</time>
      </trkpt>
      <trkpt lat="47.81478" lon="7.06148">
        <ele>615</ele>
        <time>2016-06-19T01:30:31Z</time>
      </trkpt>
      <trkpt lat="47.81482" lon="7.06171">
        <ele>613</ele>
        <time>2016-06-19T01:30:44Z</time>
      </trkpt>
      <trkpt lat="47.81489" lon="7.0619">
        <ele>611</ele>
        <time>2016-06-19T01:30:55Z</time>
      </trkpt>
      <trkpt lat="47.81491" lon="7.06199">
        <ele>610</ele>
        <time>2016-06-19T01:30:59Z</time>
      </trkpt>
      <trkpt lat="47.81496" lon="7.06212">
        <ele>610</ele>
        <time>2016-06-19T01:31:09Z</time>
      </trkpt>
      <trkpt lat="47.81501" lon="7.06224">
        <ele>625</ele>
        <time>2016-06-19T01:31:19Z</time>
      </trkpt>
      <trkpt lat="47.81503" lon="7.0624">
        <ele>620</ele>
        <time>2016-06-19T01:31:28Z</time>
      </trkpt>
      <trkpt lat="47.81509" lon="7.06253">
        <ele>617</ele>
        <time>2016-06-19T01:31:34Z</time>
      </trkpt>
      <trkpt lat="47.81514" lon="7.06274">
        <ele>620</ele>
        <time>2016-06-19T01:31:47Z</time>
      </trkpt>
      <trkpt lat="47.81519" lon="7.06295">
        <ele>620</ele>
        <time>2016-06-19T01:31:59Z</time>
      </trkpt>
      <trkpt lat="47.81523" lon="7.06316">
        <ele>618</ele>
        <time>2016-06-19T01:32:11Z</time>
      </trkpt>
      <trkpt lat="47.81528" lon="7.06328">
        <ele>619</ele>
        <time>2016-06-19T01:32:18Z</time>
      </trkpt>
      <trkpt lat="47.81532" lon="7.06343">
        <ele>615</ele>
        <time>2016-06-19T01:32:24Z</time>
      </trkpt>
      <trkpt lat="47.81535" lon="7.06358">
        <ele>615</ele>
        <time>2016-06-19T01:32:34Z</time>
      </trkpt>
      <trkpt lat="47.81543" lon="7.06389">
        <ele>615</ele>
        <time>2016-06-19T01:32:47Z</time>
      </trkpt>
      <trkpt lat="47.81548" lon="7.06409">
        <ele>616</ele>
        <time>2016-06-19T01:32:59Z</time>
      </trkpt>
      <trkpt lat="47.81551" lon="7.06434">
        <ele>613</ele>
        <time>2016-06-19T01:33:12Z</time>
      </trkpt>
      <trkpt lat="47.81553" lon="7.06442">
        <ele>613</ele>
        <time>2016-06-19T01:33:15Z</time>
      </trkpt>
      <trkpt lat="47.81561" lon="7.06459">
        <ele>614</ele>
        <time>2016-06-19T01:33:25Z</time>
      </trkpt>
      <trkpt lat="47.81563" lon="7.06475">
        <ele>614</ele>
        <time>2016-06-19T01:33:32Z</time>
      </trkpt>
      <trkpt lat="47.81561" lon="7.0649">
        <ele>615</ele>
        <time>2016-06-19T01:33:37Z</time>
      </trkpt>
      <trkpt lat="47.81562" lon="7.06498">
        <ele>615</ele>
        <time>2016-06-19T01:33:43Z</time>
      </trkpt>
      <trkpt lat="47.81562" lon="7.06512">
        <ele>615</ele>
        <time>2016-06-19T01:33:55Z</time>
      </trkpt>
      <trkpt lat="47.81563" lon="7.06526">
        <ele>614</ele>
        <time>2016-06-19T01:34:12Z</time>
      </trkpt>
      <trkpt lat="47.81564" lon="7.06549">
        <ele>614</ele>
        <time>2016-06-19T01:34:28Z</time>
      </trkpt>
      <trkpt lat="47.81561" lon="7.06574">
        <ele>615</ele>
        <time>2016-06-19T01:34:41Z</time>
      </trkpt>
      <trkpt lat="47.81558" lon="7.06581">
        <ele>615</ele>
        <time>2016-06-19T01:34:46Z</time>
      </trkpt>
      <trkpt lat="47.81558" lon="7.06588">
        <ele>617</ele>
        <time>2016-06-19T01:34:53Z</time>
      </trkpt>
      <trkpt lat="47.8155" lon="7.0661">
        <ele>616</ele>
        <time>2016-06-19T01:35:04Z</time>
      </trkpt>
      <trkpt lat="47.81543" lon="7.06629">
        <ele>616</ele>
        <time>2016-06-19T01:35:16Z</time>
      </trkpt>
      <trkpt lat="47.81526" lon="7.06657">
        <ele>615</ele>
        <time>2016-06-19T01:35:30Z</time>
      </trkpt>
      <trkpt lat="47.81516" lon="7.06662">
        <ele>615</ele>
        <time>2016-06-19T01:35:40Z</time>
      </trkpt>
      <trkpt lat="47.81502" lon="7.06676">
        <ele>617</ele>
        <time>2016-06-19T01:35:53Z</time>
      </trkpt>
      <trkpt lat="47.8149" lon="7.06688">
        <ele>615</ele>
        <time>2016-06-19T01:36:05Z</time>
      </trkpt>
      <trkpt lat="47.8148" lon="7.06688">
        <ele>615</ele>
        <time>2016-06-19T01:36:14Z</time>
      </trkpt>
      <trkpt lat="47.81466" lon="7.06696">
        <ele>614</ele>
        <time>2016-06-19T01:36:25Z</time>
      </trkpt>
      <trkpt lat="47.81452" lon="7.06701">
        <ele>614</ele>
        <time>2016-06-19T01:36:36Z</time>
      </trkpt>
      <trkpt lat="47.81436" lon="7.06695">
        <ele>612</ele>
        <time>2016-06-19T01:36:49Z</time>
      </trkpt>
      <trkpt lat="47.81422" lon="7.067">
        <ele>612</ele>
        <time>2016-06-19T01:37:01Z</time>
      </trkpt>
      <trkpt lat="47.81408" lon="7.06704">
        <ele>602</ele>
        <time>2016-06-19T01:37:12Z</time>
      </trkpt>
      <trkpt lat="47.81394" lon="7.06714">
        <ele>602</ele>
        <time>2016-06-19T01:37:22Z</time>
      </trkpt>
      <trkpt lat="47.81389" lon="7.06716">
        <ele>601</ele>
        <time>2016-06-19T01:37:27Z</time>
      </trkpt>
      <trkpt lat="47.81384" lon="7.06716">
        <ele>601</ele>
        <time>2016-06-19T01:37:30Z</time>
      </trkpt>
      <trkpt lat="47.81379" lon="7.06722">
        <ele>601</ele>
        <time>2016-06-19T01:37:33Z</time>
      </trkpt>
      <trkpt lat="47.81372" lon="7.0673">
        <ele>600</ele>
        <time>2016-06-19T01:37:39Z</time>
      </trkpt>
      <trkpt lat="47.81364" lon="7.0674">
        <ele>600</ele>
        <time>2016-06-19T01:37:49Z</time>
      </trkpt>
      <trkpt lat="47.8135" lon="7.06748">
        <ele>598</ele>
        <time>2016-06-19T01:38:02Z</time>
      </trkpt>
      <trkpt lat="47.81342" lon="7.06758">
        <ele>605</ele>
        <time>2016-06-19T01:38:14Z</time>
      </trkpt>
      <trkpt lat="47.8133" lon="7.06772">
        <ele>594</ele>
        <time>2016-06-19T01:38:24Z</time>
      </trkpt>
      <trkpt lat="47.81326" lon="7.06775">
        <ele>594</ele>
        <time>2016-06-19T01:38:28Z</time>
      </trkpt>
      <trkpt lat="47.81321" lon="7.06778">
        <ele>593</ele>
        <time>2016-06-19T01:38:32Z</time>
      </trkpt>
      <trkpt lat="47.81308" lon="7.06789">
        <ele>592</ele>
        <time>2016-06-19T01:38:42Z</time>
      </trkpt>
      <trkpt lat="47.81295" lon="7.06801">
        <ele>591</ele>
        <time>2016-06-19T01:38:52Z</time>
      </trkpt>
      <trkpt lat="47.81283" lon="7.06816">
        <ele>590</ele>
        <time>2016-06-19T01:39:04Z</time>
      </trkpt>
      <trkpt lat="47.81272" lon="7.06831">
        <ele>587</ele>
        <time>2016-06-19T01:39:18Z</time>
      </trkpt>
      <trkpt lat="47.81267" lon="7.06856">
        <ele>595</ele>
        <time>2016-06-19T01:39:30Z</time>
      </trkpt>
      <trkpt lat="47.81266" lon="7.06879">
        <ele>598</ele>
        <time>2016-06-19T01:39:41Z</time>
      </trkpt>
      <trkpt lat="47.81269" lon="7.069">
        <ele>598</ele>
        <time>2016-06-19T01:39:53Z</time>
      </trkpt>
      <trkpt lat="47.81265" lon="7.06924">
        <ele>600</ele>
        <time>2016-06-19T01:40:00Z</time>
      </trkpt>
      <trkpt lat="47.81263" lon="7.06939">
        <ele>604</ele>
        <time>2016-06-19T01:40:08Z</time>
      </trkpt>
      <trkpt lat="47.81261" lon="7.06945">
        <ele>605</ele>
        <time>2016-06-19T01:40:13Z</time>
      </trkpt>
      <trkpt lat="47.81249" lon="7.06959">
        <ele>586</ele>
        <time>2016-06-19T01:40:26Z</time>
      </trkpt>
      <trkpt lat="47.81239" lon="7.06967">
        <ele>586</ele>
        <time>2016-06-19T01:40:35Z</time>
      </trkpt>
      <trkpt lat="47.81227" lon="7.06983">
        <ele>587</ele>
        <time>2016-06-19T01:40:47Z</time>
      </trkpt>
      <trkpt lat="47.81215" lon="7.06991">
        <ele>585</ele>
        <time>2016-06-19T01:40:58Z</time>
      </trkpt>
      <trkpt lat="47.81213" lon="7.06998">
        <ele>585</ele>
        <time>2016-06-19T01:41:02Z</time>
      </trkpt>
      <trkpt lat="47.81198" lon="7.07005">
        <ele>592</ele>
        <time>2016-06-19T01:41:13Z</time>
      </trkpt>
      <trkpt lat="47.81183" lon="7.07014">
        <ele>589</ele>
        <time>2016-06-19T01:41:24Z</time>
      </trkpt>
      <trkpt lat="47.81172" lon="7.07017">
        <ele>587</ele>
        <time>2016-06-19T01:41:33Z</time>
      </trkpt>
      <trkpt lat="47.8116" lon="7.07027">
        <ele>574</ele>
        <time>2016-06-19T01:41:45Z</time>
      </trkpt>
      <trkpt lat="47.81148" lon="7.07041">
        <ele>574</ele>
        <time>2016-06-19T01:41:58Z</time>
      </trkpt>
      <trkpt lat="47.81135" lon="7.07053">
        <ele>573</ele>
        <time>2016-06-19T01:42:11Z</time>
      </trkpt>
      <trkpt lat="47.81131" lon="7.07061">
        <ele>573</ele>
        <time>2016-06-19T01:42:14Z</time>
      </trkpt>
      <trkpt lat="47.81128" lon="7.07068">
        <ele>572</ele>
        <time>2016-06-19T01:42:18Z</time>
      </trkpt>
      <trkpt lat="47.81124" lon="7.07082">
        <ele>572</ele>
        <time>2016-06-19T01:42:25Z</time>
      </trkpt>
      <trkpt lat="47.81121" lon="7.07089">
        <ele>576</ele>
        <time>2016-06-19T01:42:28Z</time>
      </trkpt>
      <trkpt lat="47.81117" lon="7.07111">
        <ele>576</ele>
        <time>2016-06-19T01:42:42Z</time>
      </trkpt>
      <trkpt lat="47.81115" lon="7.07133">
        <ele>576</ele>
        <time>2016-06-19T01:42:53Z</time>
      </trkpt>
      <trkpt lat="47.81112" lon="7.07157">
        <ele>575</ele>
        <time>2016-06-19T01:43:03Z</time>
      </trkpt>
      <trkpt lat="47.8111" lon="7.07171">
        <ele>575</ele>
        <time>2016-06-19T01:43:07Z</time>
      </trkpt>
      <trkpt lat="47.8111" lon="7.07179">
        <ele>576</ele>
        <time>2016-06-19T01:43:10Z</time>
      </trkpt>
      <trkpt lat="47.8111" lon="7.07188">
        <ele>576</ele>
        <time>2016-06-19T01:43:13Z</time>
      </trkpt>
      <trkpt lat="47.8111" lon="7.07209">
        <ele>577</ele>
        <time>2016-06-19T01:43:26Z</time>
      </trkpt>
      <trkpt lat="47.8111" lon="7.07219">
        <ele>577</ele>
        <time>2016-06-19T01:43:30Z</time>
      </trkpt>
      <trkpt lat="47.81109" lon="7.07227">
        <ele>576</ele>
        <time>2016-06-19T01:43:33Z</time>
      </trkpt>
      <trkpt lat="47.81109" lon="7.07249">
        <ele>575</ele>
        <time>2016-06-19T01:43:43Z</time>
      </trkpt>
      <trkpt lat="47.81108" lon="7.07279">
        <ele>573</ele>
        <time>2016-06-19T01:43:57Z</time>
      </trkpt>
      <trkpt lat="47.81109" lon="7.07288">
        <ele>573</ele>
        <time>2016-06-19T01:44:01Z</time>
      </trkpt>
      <trkpt lat="47.81111" lon="7.07296">
        <ele>572</ele>
        <time>2016-06-19T01:44:05Z</time>
      </trkpt>
      <trkpt lat="47.81114" lon="7.07318">
        <ele>571</ele>
        <time>2016-06-19T01:44:18Z</time>
      </trkpt>
      <trkpt lat="47.81119" lon="7.07334">
        <ele>565</ele>
        <time>2016-06-19T01:44:31Z</time>
      </trkpt>
      <trkpt lat="47.81126" lon="7.07356">
        <ele>566</ele>
        <time>2016-06-19T01:44:42Z</time>
      </trkpt>
      <trkpt lat="47.81128" lon="7.07364">
        <ele>566</ele>
        <time>2016-06-19T01:44:44Z</time>
      </trkpt>
      <trkpt lat="47.81132" lon="7.0738">
        <ele>565</ele>
        <time>2016-06-19T01:44:51Z</time>
      </trkpt>
      <trkpt lat="47.81142" lon="7.07394">
        <ele>566</ele>
        <time>2016-06-19T01:45:02Z</time>
      </trkpt>
      <trkpt lat="47.81146" lon="7.07414">
        <ele>567</ele>
        <time>2016-06-19T01:45:13Z</time>
      </trkpt>
      <trkpt lat="47.81152" lon="7.07434">
        <ele>560</ele>
        <time>2016-06-19T01:45:23Z</time>
      </trkpt>
      <trkpt lat="47.81157" lon="7.07445">
        <ele>558</ele>
        <time>2016-06-19T01:45:30Z</time>
      </trkpt>
      <trkpt lat="47.81162" lon="7.07466">
        <ele>555</ele>
        <time>2016-06-19T01:45:40Z</time>
      </trkpt>
      <trkpt lat="47.81168" lon="7.07487">
        <ele>566</ele>
        <time>2016-06-19T01:45:52Z</time>
      </trkpt>
      <trkpt lat="47.81173" lon="7.07512">
        <ele>561</ele>
        <time>2016-06-19T01:46:02Z</time>
      </trkpt>
      <trkpt lat="47.81174" lon="7.0752">
        <ele>562</ele>
        <time>2016-06-19T01:46:05Z</time>
      </trkpt>
      <trkpt lat="47.81172" lon="7.07534">
        <ele>563</ele>
        <time>2016-06-19T01:46:12Z</time>
      </trkpt>
      <trkpt lat="47.81168" lon="7.07549">
        <ele>563</ele>
        <time>2016-06-19T01:46:25Z</time>
      </trkpt>
      <trkpt lat="47.81162" lon="7.07559">
        <ele>555</ele>
        <time>2016-06-19T01:46:38Z</time>
      </trkpt>
      <trkpt lat="47.81153" lon="7.07566">
        <ele>555</ele>
        <time>2016-06-19T01:46:55Z</time>
      </trkpt>
      <trkpt lat="47.81139" lon="7.07569">
        <ele>555</ele>
        <time>2016-06-19T01:47:06Z</time>
      </trkpt>
      <trkpt lat="47.81134" lon="7.0757">
        <ele>554</ele>
        <time>2016-06-19T01:47:12Z</time>
      </trkpt>
      <trkpt lat="47.81119" lon="7.07569">
        <ele>554</ele>
        <time>2016-06-19T01:47:24Z</time>
      </trkpt>
      <trkpt lat="47.81105" lon="7.07574">
        <ele>554</ele>
        <time>2016-06-19T01:47:36Z</time>
      </trkpt>
      <trkpt lat="47.81085" lon="7.07569">
        <ele>555</ele>
        <time>2016-06-19T01:47:49Z</time>
      </trkpt>
      <trkpt lat="47.81071" lon="7.07563">
        <ele>551</ele>
        <time>2016-06-19T01:47:58Z</time>
      </trkpt>
      <trkpt lat="47.81056" lon="7.07561">
        <ele>549</ele>
        <time>2016-06-19T01:48:09Z</time>
      </trkpt>
      <trkpt lat="47.81046" lon="7.07557">
        <ele>549</ele>
        <time>2016-06-19T01:48:16Z</time>
      </trkpt>
      <trkpt lat="47.81031" lon="7.07552">
        <ele>548</ele>
        <time>2016-06-19T01:48:28Z</time>
      </trkpt>
      <trkpt lat="47.81026" lon="7.07548">
        <ele>548</ele>
        <time>2016-06-19T01:48:32Z</time>
      </trkpt>
      <trkpt lat="47.8101" lon="7.07549">
        <ele>548</ele>
        <time>2016-06-19T01:48:44Z</time>
      </trkpt>
      <trkpt lat="47.80999" lon="7.0755">
        <ele>546</ele>
        <time>2016-06-19T01:48:51Z</time>
      </trkpt>
      <trkpt lat="47.80993" lon="7.07548">
        <ele>545</ele>
        <time>2016-06-19T01:48:55Z</time>
      </trkpt>
      <trkpt lat="47.80987" lon="7.07549">
        <ele>545</ele>
        <time>2016-06-19T01:48:59Z</time>
      </trkpt>
      <trkpt lat="47.80972" lon="7.07544">
        <ele>543</ele>
        <time>2016-06-19T01:49:11Z</time>
      </trkpt>
      <trkpt lat="47.80958" lon="7.07544">
        <ele>542</ele>
        <time>2016-06-19T01:49:24Z</time>
      </trkpt>
      <trkpt lat="47.80943" lon="7.07548">
        <ele>542</ele>
        <time>2016-06-19T01:49:37Z</time>
      </trkpt>
      <trkpt lat="47.80933" lon="7.07564">
        <ele>543</ele>
        <time>2016-06-19T01:49:48Z</time>
      </trkpt>
      <trkpt lat="47.8093" lon="7.07585">
        <ele>548</ele>
        <time>2016-06-19T01:49:59Z</time>
      </trkpt>
      <trkpt lat="47.80934" lon="7.07607">
        <ele>550</ele>
        <time>2016-06-19T01:50:10Z</time>
      </trkpt>
      <trkpt lat="47.80938" lon="7.0762">
        <ele>550</ele>
        <time>2016-06-19T01:50:20Z</time>
      </trkpt>
      <trkpt lat="47.80944" lon="7.07643">
        <ele>550</ele>
        <time>2016-06-19T01:50:33Z</time>
      </trkpt>
      <trkpt lat="47.80947" lon="7.07651">
        <ele>550</ele>
        <time>2016-06-19T01:50:37Z</time>
      </trkpt>
      <trkpt lat="47.80953" lon="7.07669">
        <ele>549</ele>
        <time>2016-06-19T01:50:48Z</time>
      </trkpt>
      <trkpt lat="47.80957" lon="7.07684">
        <ele>550</ele>
        <time>2016-06-19T01:50:55Z</time>
      </trkpt>
      <trkpt lat="47.80965" lon="7.07703">
        <ele>551</ele>
        <time>2016-06-19T01:51:06Z</time>
      </trkpt>
      <trkpt lat="47.80966" lon="7.07711">
        <ele>551</ele>
        <time>2016-06-19T01:51:09Z</time>
      </trkpt>
      <trkpt lat="47.80972" lon="7.07736">
        <ele>552</ele>
        <time>2016-06-19T01:51:20Z</time>
      </trkpt>
      <trkpt lat="47.80977" lon="7.07759">
        <ele>547</ele>
        <time>2016-06-19T01:51:31Z</time>
      </trkpt>
      <trkpt lat="47.80978" lon="7.07768">
        <ele>546</ele>
        <time>2016-06-19T01:51:35Z</time>
      </trkpt>
      <trkpt lat="47.80985" lon="7.07779">
        <ele>545</ele>
        <time>2016-06-19T01:51:43Z</time>
      </trkpt>
      <trkpt lat="47.80989" lon="7.078">
        <ele>543</ele>
        <time>2016-06-19T01:51:53Z</time>
      </trkpt>
      <trkpt lat="47.8099" lon="7.07808">
        <ele>543</ele>
        <time>2016-06-19T01:51:57Z</time>
      </trkpt>
      <trkpt lat="47.80989" lon="7.07815">
        <ele>544</ele>
        <time>2016-06-19T01:52:00Z</time>
      </trkpt>
      <trkpt lat="47.80994" lon="7.07842">
        <ele>542</ele>
        <time>2016-06-19T01:52:13Z</time>
      </trkpt>
      <trkpt lat="47.80993" lon="7.07858">
        <ele>534</ele>
        <time>2016-06-19T01:52:19Z</time>
      </trkpt>
      <trkpt lat="47.80995" lon="7.07881">
        <ele>530</ele>
        <time>2016-06-19T01:52:31Z</time>
      </trkpt>
      <trkpt lat="47.80996" lon="7.07888">
        <ele>530</ele>
        <time>2016-06-19T01:52:35Z</time>
      </trkpt>
      <trkpt lat="47.80998" lon="7.07896">
        <ele>531</ele>
        <time>2016-06-19T01:52:40Z</time>
      </trkpt>
      <trkpt lat="47.81002" lon="7.07917">
        <ele>541</ele>
        <time>2016-06-19T01:52:51Z</time>
      </trkpt>
      <trkpt lat="47.81011" lon="7.07935">
        <ele>550</ele>
        <time>2016-06-19T01:53:04Z</time>
      </trkpt>
      <trkpt lat="47.81015" lon="7.07941">
        <ele>551</ele>
        <time>2016-06-19T01:53:07Z</time>
      </trkpt>
      <trkpt lat="47.81019" lon="7.0796">
        <ele>552</ele>
        <time>2016-06-19T01:53:17Z</time>
      </trkpt>
      <trkpt lat="47.81015" lon="7.07975">
        <ele>549</ele>
        <time>2016-06-19T01:53:22Z</time>
      </trkpt>
      <trkpt lat="47.81014" lon="7.07985">
        <ele>545</ele>
        <time>2016-06-19T01:53:25Z</time>
      </trkpt>
      <trkpt lat="47.81011" lon="7.08008">
        <ele>538</ele>
        <time>2016-06-19T01:53:36Z</time>
      </trkpt>
      <trkpt lat="47.81012" lon="7.0803">
        <ele>544</ele>
        <time>2016-06-19T01:53:48Z</time>
      </trkpt>
      <trkpt lat="47.81011" lon="7.08052">
        <ele>543</ele>
        <time>2016-06-19T01:53:59Z</time>
      </trkpt>
      <trkpt lat="47.81011" lon="7.08061">
        <ele>541</ele>
        <time>2016-06-19T01:54:02Z</time>
      </trkpt>
      <trkpt lat="47.81013" lon="7.08082">
        <ele>537</ele>
        <time>2016-06-19T01:54:17Z</time>
      </trkpt>
      <trkpt lat="47.81014" lon="7.081">
        <ele>540</ele>
        <time>2016-06-19T01:54:28Z</time>
      </trkpt>
      <trkpt lat="47.8101" lon="7.08115">
        <ele>542</ele>
        <time>2016-06-19T01:54:37Z</time>
      </trkpt>
      <trkpt lat="47.81005" lon="7.08138">
        <ele>541</ele>
        <time>2016-06-19T01:54:48Z</time>
      </trkpt>
      <trkpt lat="47.81005" lon="7.0816">
        <ele>534</ele>
        <time>2016-06-19T01:55:03Z</time>
      </trkpt>
      <trkpt lat="47.81002" lon="7.08182">
        <ele>537</ele>
        <time>2016-06-19T01:55:13Z</time>
      </trkpt>
      <trkpt lat="47.81" lon="7.08206">
        <ele>541</ele>
        <time>2016-06-19T01:55:24Z</time>
      </trkpt>
      <trkpt lat="47.80998" lon="7.08229">
        <ele>519</ele>
        <time>2016-06-19T01:55:36Z</time>
      </trkpt>
      <trkpt lat="47.80994" lon="7.08253">
        <ele>526</ele>
        <time>2016-06-19T01:55:47Z</time>
      </trkpt>
      <trkpt lat="47.80993" lon="7.0826">
        <ele>523</ele>
        <time>2016-06-19T01:55:51Z</time>
      </trkpt>
      <trkpt lat="47.80991" lon="7.08282">
        <ele>517</ele>
        <time>2016-06-19T01:56:01Z</time>
      </trkpt>
      <trkpt lat="47.80987" lon="7.08305">
        <ele>516</ele>
        <time>2016-06-19T01:56:13Z</time>
      </trkpt>
      <trkpt lat="47.80984" lon="7.08337">
        <ele>517</ele>
        <time>2016-06-19T01:56:26Z</time>
      </trkpt>
      <trkpt lat="47.80982" lon="7.08344">
        <ele>516</ele>
        <time>2016-06-19T01:56:29Z</time>
      </trkpt>
      <trkpt lat="47.80981" lon="7.08351">
        <ele>514</ele>
        <time>2016-06-19T01:56:37Z</time>
      </trkpt>
      <trkpt lat="47.80983" lon="7.08368">
        <ele>512</ele>
        <time>2016-06-19T01:56:54Z</time>
      </trkpt>
      <trkpt lat="47.80993" lon="7.08385">
        <ele>512</ele>
        <time>2016-06-19T01:57:10Z</time>
      </trkpt>
      <trkpt lat="47.81004" lon="7.0838">
        <ele>527</ele>
        <time>2016-06-19T01:57:21Z</time>
      </trkpt>
      <trkpt lat="47.81015" lon="7.08385">
        <ele>527</ele>
        <time>2016-06-19T01:57:26Z</time>
      </trkpt>
      <trkpt lat="47.81029" lon="7.0839">
        <ele>528</ele>
        <time>2016-06-19T01:57:36Z</time>
      </trkpt>
      <trkpt lat="47.81037" lon="7.08393">
        <ele>528</ele>
        <time>2016-06-19T01:57:48Z</time>
      </trkpt>
      <trkpt lat="47.81054" lon="7.08397">
        <ele>529</ele>
        <time>2016-06-19T01:58:00Z</time>
      </trkpt>
      <trkpt lat="47.81062" lon="7.08407">
        <ele>528</ele>
        <time>2016-06-19T01:58:08Z</time>
      </trkpt>
      <trkpt lat="47.81072" lon="7.08423">
        <ele>517</ele>
        <time>2016-06-19T01:58:18Z</time>
      </trkpt>
      <trkpt lat="47.81077" lon="7.08436">
        <ele>515</ele>
        <time>2016-06-19T01:58:26Z</time>
      </trkpt>
      <trkpt lat="47.81086" lon="7.08453">
        <ele>515</ele>
        <time>2016-06-19T01:58:38Z</time>
      </trkpt>
      <trkpt lat="47.81088" lon="7.08459">
        <ele>514</ele>
        <time>2016-06-19T01:58:43Z</time>
      </trkpt>
      <trkpt lat="47.81094" lon="7.0848">
        <ele>509</ele>
        <time>2016-06-19T01:58:57Z</time>
      </trkpt>
      <trkpt lat="47.81094" lon="7.08488">
        <ele>507</ele>
        <time>2016-06-19T01:59:01Z</time>
      </trkpt>
      <trkpt lat="47.81098" lon="7.08504">
        <ele>497</ele>
        <time>2016-06-19T01:59:11Z</time>
      </trkpt>
      <trkpt lat="47.81097" lon="7.08512">
        <ele>497</ele>
        <time>2016-06-19T01:59:14Z</time>
      </trkpt>
      <trkpt lat="47.81095" lon="7.08526">
        <ele>496</ele>
        <time>2016-06-19T01:59:25Z</time>
      </trkpt>
      <trkpt lat="47.81089" lon="7.08542">
        <ele>494</ele>
        <time>2016-06-19T01:59:35Z</time>
      </trkpt>
      <trkpt lat="47.81088" lon="7.08555">
        <ele>493</ele>
        <time>2016-06-19T01:59:46Z</time>
      </trkpt>
      <trkpt lat="47.81087" lon="7.08562">
        <ele>492</ele>
        <time>2016-06-19T01:59:50Z</time>
      </trkpt>
      <trkpt lat="47.81096" lon="7.0858">
        <ele>491</ele>
        <time>2016-06-19T02:00:02Z</time>
      </trkpt>
      <trkpt lat="47.81098" lon="7.08595">
        <ele>484</ele>
        <time>2016-06-19T02:00:12Z</time>
      </trkpt>
      <trkpt lat="47.81095" lon="7.08613">
        <ele>482</ele>
        <time>2016-06-19T02:00:18Z</time>
      </trkpt>
      <trkpt lat="47.81095" lon="7.08627">
        <ele>481</ele>
        <time>2016-06-19T02:00:25Z</time>
      </trkpt>
      <trkpt lat="47.81091" lon="7.08649">
        <ele>480</ele>
        <time>2016-06-19T02:00:35Z</time>
      </trkpt>
      <trkpt lat="47.81085" lon="7.0867">
        <ele>479</ele>
        <time>2016-06-19T02:00:48Z</time>
      </trkpt>
      <trkpt lat="47.81081" lon="7.08693">
        <ele>474</ele>
        <time>2016-06-19T02:00:59Z</time>
      </trkpt>
      <trkpt lat="47.81078" lon="7.08708">
        <ele>474</ele>
        <time>2016-06-19T02:01:09Z</time>
      </trkpt>
      <trkpt lat="47.81072" lon="7.08731">
        <ele>475</ele>
        <time>2016-06-19T02:01:23Z</time>
      </trkpt>
      <trkpt lat="47.81066" lon="7.08752">
        <ele>477</ele>
        <time>2016-06-19T02:01:34Z</time>
      </trkpt>
      <trkpt lat="47.81064" lon="7.08761">
        <ele>476</ele>
        <time>2016-06-19T02:01:37Z</time>
      </trkpt>
      <trkpt lat="47.81055" lon="7.08792">
        <ele>475</ele>
        <time>2016-06-19T02:01:50Z</time>
      </trkpt>
      <trkpt lat="47.8105" lon="7.08807">
        <ele>475</ele>
        <time>2016-06-19T02:01:57Z</time>
      </trkpt>
      <trkpt lat="47.81045" lon="7.0883">
        <ele>475</ele>
        <time>2016-06-19T02:02:08Z</time>
      </trkpt>
      <trkpt lat="47.81039" lon="7.0885">
        <ele>477</ele>
        <time>2016-06-19T02:02:19Z</time>
      </trkpt>
      <trkpt lat="47.81029" lon="7.08871">
        <ele>476</ele>
        <time>2016-06-19T02:02:31Z</time>
      </trkpt>
      <trkpt lat="47.81023" lon="7.08884">
        <ele>477</ele>
        <time>2016-06-19T02:02:40Z</time>
      </trkpt>
      <trkpt lat="47.8102" lon="7.08897">
        <ele>477</ele>
        <time>2016-06-19T02:02:53Z</time>
      </trkpt>
      <trkpt lat="47.81009" lon="7.08903">
        <ele>477</ele>
        <time>2016-06-19T02:03:06Z</time>
      </trkpt>
      <trkpt lat="47.81004" lon="7.08907">
        <ele>477</ele>
        <time>2016-06-19T02:03:10Z</time>
      </trkpt>
      <trkpt lat="47.81" lon="7.0891">
        <ele>475</ele>
        <time>2016-06-19T02:03:14Z</time>
      </trkpt>
      <trkpt lat="47.80988" lon="7.08923">
        <ele>476</ele>
        <time>2016-06-19T02:03:26Z</time>
      </trkpt>
      <trkpt lat="47.8098" lon="7.08933">
        <ele>475</ele>
        <time>2016-06-19T02:03:39Z</time>
      </trkpt>
      <trkpt lat="47.80965" lon="7.08936">
        <ele>474</ele>
        <time>2016-06-19T02:03:57Z</time>
      </trkpt>
      <trkpt lat="47.80957" lon="7.08927">
        <ele>473</ele>
        <time>2016-06-19T02:04:10Z</time>
      </trkpt>
      <trkpt lat="47.80947" lon="7.08929">
        <ele>472</ele>
        <time>2016-06-19T02:04:21Z</time>
      </trkpt>
      <trkpt lat="47.80933" lon="7.08932">
        <ele>471</ele>
        <time>2016-06-19T02:04:34Z</time>
      </trkpt>
      <trkpt lat="47.80918" lon="7.0894">
        <ele>471</ele>
        <time>2016-06-19T02:04:45Z</time>
      </trkpt>
      <trkpt lat="47.80908" lon="7.08943">
        <ele>460</ele>
        <time>2016-06-19T02:04:52Z</time>
      </trkpt>
      <trkpt lat="47.80898" lon="7.08948">
        <ele>459</ele>
        <time>2016-06-19T02:05:00Z</time>
      </trkpt>
      <trkpt lat="47.80888" lon="7.08956">
        <ele>458</ele>
        <time>2016-06-19T02:05:11Z</time>
      </trkpt>
      <trkpt lat="47.80879" lon="7.08966">
        <ele>457</ele>
        <time>2016-06-19T02:05:23Z</time>
      </trkpt>
      <trkpt lat="47.80873" lon="7.08978">
        <ele>456</ele>
        <time>2016-06-19T02:05:36Z</time>
      </trkpt>
      <trkpt lat="47.80868" lon="7.08991">
        <ele>455</ele>
        <time>2016-06-19T02:05:46Z</time>
      </trkpt>
      <trkpt lat="47.80857" lon="7.09006">
        <ele>459</ele>
        <time>2016-06-19T02:05:58Z</time>
      </trkpt>
      <trkpt lat="47.80843" lon="7.09019">
        <ele>457</ele>
        <time>2016-06-19T02:06:10Z</time>
      </trkpt>
      <trkpt lat="47.80834" lon="7.09025">
        <ele>458</ele>
        <time>2016-06-19T02:06:20Z</time>
      </trkpt>
      <trkpt lat="47.80823" lon="7.09041">
        <ele>437</ele>
        <time>2016-06-19T02:06:32Z</time>
      </trkpt>
      <trkpt lat="47.80811" lon="7.09059">
        <ele>437</ele>
        <time>2016-06-19T02:06:45Z</time>
      </trkpt>
      <trkpt lat="47.80799" lon="7.09085">
        <ele>444</ele>
        <time>2016-06-19T02:06:57Z</time>
      </trkpt>
      <trkpt lat="47.8079" lon="7.09101">
        <ele>441</ele>
        <time>2016-06-19T02:07:08Z</time>
      </trkpt>
      <trkpt lat="47.80779" lon="7.09114">
        <ele>439</ele>
        <time>2016-06-19T02:07:19Z</time>
      </trkpt>
      <trkpt lat="47.80771" lon="7.09123">
        <ele>439</ele>
        <time>2016-06-19T02:07:30Z</time>
      </trkpt>
      <trkpt lat="47.80765" lon="7.09144">
        <ele>439</ele>
        <time>2016-06-19T02:07:40Z</time>
      </trkpt>
      <trkpt lat="47.8076" lon="7.09165">
        <ele>435</ele>
        <time>2016-06-19T02:07:50Z</time>
      </trkpt>
      <trkpt lat="47.80749" lon="7.09181">
        <ele>424</ele>
        <time>2016-06-19T02:07:59Z</time>
      </trkpt>
      <trkpt lat="47.80745" lon="7.09186">
        <ele>422</ele>
        <time>2016-06-19T02:08:02Z</time>
      </trkpt>
      <trkpt lat="47.8074" lon="7.09207">
        <ele>420</ele>
        <time>2016-06-19T02:08:14Z</time>
      </trkpt>
      <trkpt lat="47.80737" lon="7.09211">
        <ele>420</ele>
        <time>2016-06-19T02:08:17Z</time>
      </trkpt>
      <trkpt lat="47.80735" lon="7.09218">
        <ele>421</ele>
        <time>2016-06-19T02:08:21Z</time>
      </trkpt>
      <trkpt lat="47.80728" lon="7.09245">
        <ele>424</ele>
        <time>2016-06-19T02:08:35Z</time>
      </trkpt>
      <trkpt lat="47.80725" lon="7.09251">
        <ele>428</ele>
        <time>2016-06-19T02:08:40Z</time>
      </trkpt>
      <trkpt lat="47.80722" lon="7.09259">
        <ele>426</ele>
        <time>2016-06-19T02:08:44Z</time>
      </trkpt>
      <trkpt lat="47.80718" lon="7.09281">
        <ele>425</ele>
        <time>2016-06-19T02:08:54Z</time>
      </trkpt>
      <trkpt lat="47.8071" lon="7.09302">
        <ele>424</ele>
        <time>2016-06-19T02:09:05Z</time>
      </trkpt>
      <trkpt lat="47.80704" lon="7.09323">
        <ele>422</ele>
        <time>2016-06-19T02:09:16Z</time>
      </trkpt>
      <trkpt lat="47.80703" lon="7.09331">
        <ele>422</ele>
        <time>2016-06-19T02:09:22Z</time>
      </trkpt>
      <trkpt lat="47.80699" lon="7.09352">
        <ele>425</ele>
        <time>2016-06-19T02:09:32Z</time>
      </trkpt>
      <trkpt lat="47.80696" lon="7.09357">
        <ele>425</ele>
        <time>2016-06-19T02:09:37Z</time>
      </trkpt>
      <trkpt lat="47.80692" lon="7.09371">
        <ele>424</ele>
        <time>2016-06-19T02:09:48Z</time>
      </trkpt>
      <trkpt lat="47.8069" lon="7.09392">
        <ele>424</ele>
        <time>2016-06-19T02:09:59Z</time>
      </trkpt>
      <trkpt lat="47.80685" lon="7.09421">
        <ele>421</ele>
        <time>2016-06-19T02:10:12Z</time>
      </trkpt>
      <trkpt lat="47.80678" lon="7.09444">
        <ele>424</ele>
        <time>2016-06-19T02:10:26Z</time>
      </trkpt>
      <trkpt lat="47.80674" lon="7.09457">
        <ele>424</ele>
        <time>2016-06-19T02:10:36Z</time>
      </trkpt>
      <trkpt lat="47.80668" lon="7.09478">
        <ele>422</ele>
        <time>2016-06-19T02:10:47Z</time>
      </trkpt>
      <trkpt lat="47.80666" lon="7.09485">
        <ele>402</ele>
        <time>2016-06-19T02:10:49Z</time>
      </trkpt>
      <trkpt lat="47.80665" lon="7.09492">
        <ele>405</ele>
        <time>2016-06-19T02:10:54Z</time>
      </trkpt>
      <trkpt lat="47.80663" lon="7.09515">
        <ele>401</ele>
        <time>2016-06-19T02:11:09Z</time>
      </trkpt>
      <trkpt lat="47.80663" lon="7.09539">
        <ele>395</ele>
        <time>2016-06-19T02:11:21Z</time>
      </trkpt>
      <trkpt lat="47.80666" lon="7.09553">
        <ele>395</ele>
        <time>2016-06-19T02:11:31Z</time>
      </trkpt>
      <trkpt lat="47.80668" lon="7.09567">
        <ele>416</ele>
        <time>2016-06-19T02:11:43Z</time>
      </trkpt>
      <trkpt lat="47.80673" lon="7.09581">
        <ele>411</ele>
        <time>2016-06-19T02:11:53Z</time>
      </trkpt>
      <trkpt lat="47.80673" lon="7.09589">
        <ele>409</ele>
        <time>2016-06-19T02:11:55Z</time>
      </trkpt>
      <trkpt lat="47.80676" lon="7.09611">
        <ele>412</ele>
        <time>2016-06-19T02:12:07Z</time>
      </trkpt>
      <trkpt lat="47.80678" lon="7.09618">
        <ele>412</ele>
        <time>2016-06-19T02:12:12Z</time>
      </trkpt>
      <trkpt lat="47.80682" lon="7.09643">
        <ele>409</ele>
        <time>2016-06-19T02:12:23Z</time>
      </trkpt>
      <trkpt lat="47.80684" lon="7.0965">
        <ele>407</ele>
        <time>2016-06-19T02:12:26Z</time>
      </trkpt>
      <trkpt lat="47.80688" lon="7.09672">
        <ele>399</ele>
        <time>2016-06-19T02:12:38Z</time>
      </trkpt>
      <trkpt lat="47.8069" lon="7.09693">
        <ele>400</ele>
        <time>2016-06-19T02:12:48Z</time>
      </trkpt>
      <trkpt lat="47.80692" lon="7.09718">
        <ele>398</ele>
        <time>2016-06-19T02:13:02Z</time>
      </trkpt>
      <trkpt lat="47.80694" lon="7.09732">
        <ele>396</ele>
        <time>2016-06-19T02:13:12Z</time>
      </trkpt>
      <trkpt lat="47.80697" lon="7.09755">
        <ele>385</ele>
        <time>2016-06-19T02:13:24Z</time>
      </trkpt>
      <trkpt lat="47.80706" lon="7.09775">
        <ele>387</ele>
        <time>2016-06-19T02:13:40Z</time>
      </trkpt>
      <trkpt lat="47.80714" lon="7.09794">
        <ele>387</ele>
        <time>2016-06-19T02:13:55Z</time>
      </trkpt>
      <trkpt lat="47.80722" lon="7.09813">
        <ele>387</ele>
        <time>2016-06-19T02:14:06Z</time>
      </trkpt>
      <trkpt lat="47.80727" lon="7.09825">
        <ele>387</ele>
        <time>2016-06-19T02:14:12Z</time>
      </trkpt>
      <trkpt lat="47.8073" lon="7.0984">
        <ele>379</ele>
        <time>2016-06-19T02:14:19Z</time>
      </trkpt>
      <trkpt lat="47.80741" lon="7.09854">
        <ele>379</ele>
        <time>2016-06-19T02:14:31Z</time>
      </trkpt>
      <trkpt lat="47.80742" lon="7.09862">
        <ele>376</ele>
        <time>2016-06-19T02:14:33Z</time>
      </trkpt>
      <trkpt lat="47.80757" lon="7.09871">
        <ele>388</ele>
        <time>2016-06-19T02:14:47Z</time>
      </trkpt>
      <trkpt lat="47.80768" lon="7.09885">
        <ele>386</ele>
        <time>2016-06-19T02:14:58Z</time>
      </trkpt>
      <trkpt lat="47.80782" lon="7.09904">
        <ele>385</ele>
        <time>2016-06-19T02:15:09Z</time>
      </trkpt>
      <trkpt lat="47.80793" lon="7.09906">
        <ele>386</ele>
        <time>2016-06-19T02:15:19Z</time>
      </trkpt>
      <trkpt lat="47.80805" lon="7.09917">
        <ele>372</ele>
        <time>2016-06-19T02:15:32Z</time>
      </trkpt>
      <trkpt lat="47.80819" lon="7.09929">
        <ele>374</ele>
        <time>2016-06-19T02:16:31Z</time>
      </trkpt>
      <trkpt lat="47.80828" lon="7.0994">
        <ele>372</ele>
        <time>2016-06-19T02:16:41Z</time>
      </trkpt>
      <trkpt lat="47.80843" lon="7.09943">
        <ele>375</ele>
        <time>2016-06-19T02:16:53Z</time>
      </trkpt>
      <trkpt lat="47.80847" lon="7.09952">
        <ele>373</ele>
        <time>2016-06-19T02:16:55Z</time>
      </trkpt>
      <trkpt lat="47.8085" lon="7.09959">
        <ele>371</ele>
        <time>2016-06-19T02:16:57Z</time>
      </trkpt>
      <trkpt lat="47.80855" lon="7.09962">
        <ele>371</ele>
        <time>2016-06-19T02:17:01Z</time>
      </trkpt>
      <trkpt lat="47.80864" lon="7.09969">
        <ele>370</ele>
        <time>2016-06-19T02:17:09Z</time>
      </trkpt>
      <trkpt lat="47.80868" lon="7.0997">
        <ele>370</ele>
        <time>2016-06-19T02:17:12Z</time>
      </trkpt>
      <trkpt lat="47.80879" lon="7.09971">
        <ele>370</ele>
        <time>2016-06-19T02:17:27Z</time>
      </trkpt>
      <trkpt lat="47.80888" lon="7.09976">
        <ele>369</ele>
        <time>2016-06-19T02:17:38Z</time>
      </trkpt>
      <trkpt lat="47.80894" lon="7.09988">
        <ele>368</ele>
        <time>2016-06-19T02:17:46Z</time>
      </trkpt>
      <trkpt lat="47.80904" lon="7.09994">
        <ele>366</ele>
        <time>2016-06-19T02:17:58Z</time>
      </trkpt>
      <trkpt lat="47.8091" lon="7.09995">
        <ele>364</ele>
        <time>2016-06-19T02:18:04Z</time>
      </trkpt>
      <trkpt lat="47.80924" lon="7.10002">
        <ele>359</ele>
        <time>2016-06-19T02:18:15Z</time>
      </trkpt>
      <trkpt lat="47.80932" lon="7.10012">
        <ele>358</ele>
        <time>2016-06-19T02:18:25Z</time>
      </trkpt>
      <trkpt lat="47.80941" lon="7.10023">
        <ele>356</ele>
        <time>2016-06-19T02:18:38Z</time>
      </trkpt>
      <trkpt lat="47.80947" lon="7.10037">
        <ele>355</ele>
        <time>2016-06-19T02:18:52Z</time>
      </trkpt>
      <trkpt lat="47.80951" lon="7.10042">
        <ele>354</ele>
        <time>2016-06-19T02:18:58Z</time>
      </trkpt>
      <trkpt lat="47.80955" lon="7.10046">
        <ele>354</ele>
        <time>2016-06-19T02:19:02Z</time>
      </trkpt>
      <trkpt lat="47.80962" lon="7.10057">
        <ele>353</ele>
        <time>2016-06-19T02:19:12Z</time>
      </trkpt>
      <trkpt lat="47.80966" lon="7.10073">
        <ele>352</ele>
        <time>2016-06-19T02:19:20Z</time>
      </trkpt>
      <trkpt lat="47.80959" lon="7.10094">
        <ele>345</ele>
        <time>2016-06-19T02:19:34Z</time>
      </trkpt>
      <trkpt lat="47.80954" lon="7.10108">
        <ele>345</ele>
        <time>2016-06-19T02:19:46Z</time>
      </trkpt>
      <trkpt lat="47.80952" lon="7.10122">
        <ele>344</ele>
        <time>2016-06-19T02:19:56Z</time>
      </trkpt>
      <trkpt lat="47.80955" lon="7.10136">
        <ele>344</ele>
        <time>2016-06-19T02:20:06Z</time>
      </trkpt>
      <trkpt lat="47.80964" lon="7.1014">
        <ele>344</ele>
        <time>2016-06-19T02:20:18Z</time>
      </trkpt>
      <trkpt lat="47.80966" lon="7.10161">
        <ele>343</ele>
        <time>2016-06-19T02:20:29Z</time>
      </trkpt>
      <trkpt lat="47.8096" lon="7.10183">
        <ele>341</ele>
        <time>2016-06-19T02:20:43Z</time>
      </trkpt>
      <trkpt lat="47.80957" lon="7.10197">
        <ele>341</ele>
        <time>2016-06-19T02:20:53Z</time>
      </trkpt>
      <trkpt lat="47.80968" lon="7.10192">
        <ele>341</ele>
        <time>2016-06-19T02:21:05Z</time>
      </trkpt>
      <trkpt lat="47.8098" lon="7.102">
        <ele>341</ele>
        <time>2016-06-19T02:21:18Z</time>
      </trkpt>
      <trkpt lat="47.80988" lon="7.10217">
        <ele>340</ele>
        <time>2016-06-19T02:21:32Z</time>
      </trkpt>
      <trkpt lat="47.81" lon="7.10232">
        <ele>339</ele>
        <time>2016-06-19T02:21:46Z</time>
      </trkpt>
      <trkpt lat="47.81013" lon="7.10243">
        <ele>339</ele>
        <time>2016-06-19T02:21:58Z</time>
      </trkpt>
      <trkpt lat="47.81026" lon="7.10259">
        <ele>338</ele>
        <time>2016-06-19T02:22:10Z</time>
      </trkpt>
      <trkpt lat="47.81036" lon="7.10276">
        <ele>337</ele>
        <time>2016-06-19T02:22:21Z</time>
      </trkpt>
      <trkpt lat="47.81051" lon="7.10284">
        <ele>337</ele>
        <time>2016-06-19T02:22:33Z</time>
      </trkpt>
      <trkpt lat="47.81052" lon="7.10291">
        <ele>337</ele>
        <time>2016-06-19T02:22:36Z</time>
      </trkpt>
      <trkpt lat="47.81064" lon="7.10302">
        <ele>337</ele>
        <time>2016-06-19T02:22:48Z</time>
      </trkpt>
      <trkpt lat="47.81075" lon="7.10318">
        <ele>337</ele>
        <time>2016-06-19T02:23:01Z</time>
      </trkpt>
      <trkpt lat="47.81079" lon="7.10323">
        <ele>337</ele>
        <time>2016-06-19T02:23:04Z</time>
      </trkpt>
      <trkpt lat="47.81083" lon="7.10327">
        <ele>337</ele>
        <time>2016-06-19T02:23:10Z</time>
      </trkpt>
      <trkpt lat="47.81095" lon="7.10339">
        <ele>337</ele>
        <time>2016-06-19T02:23:21Z</time>
      </trkpt>
      <trkpt lat="47.81109" lon="7.10346">
        <ele>336</ele>
        <time>2016-06-19T02:23:33Z</time>
      </trkpt>
      <trkpt lat="47.81118" lon="7.10355">
        <ele>336</ele>
        <time>2016-06-19T02:23:40Z</time>
      </trkpt>
      <trkpt lat="47.81125" lon="7.10372">
        <ele>336</ele>
        <time>2016-06-19T02:23:54Z</time>
      </trkpt>
      <trkpt lat="47.81126" lon="7.1038">
        <ele>336</ele>
        <time>2016-06-19T02:23:58Z</time>
      </trkpt>
      <trkpt lat="47.81127" lon="7.10406">
        <ele>335</ele>
        <time>2016-06-19T02:24:09Z</time>
      </trkpt>
      <trkpt lat="47.81126" lon="7.10414">
        <ele>335</ele>
        <time>2016-06-19T02:24:12Z</time>
      </trkpt>
      <trkpt lat="47.8113" lon="7.10435">
        <ele>334</ele>
        <time>2016-06-19T02:24:24Z</time>
      </trkpt>
      <trkpt lat="47.81133" lon="7.10448">
        <ele>334</ele>
        <time>2016-06-19T02:24:36Z</time>
      </trkpt>
      <trkpt lat="47.81137" lon="7.10452">
        <ele>334</ele>
        <time>2016-06-19T02:24:40Z</time>
      </trkpt>
      <trkpt lat="47.81142" lon="7.10447">
        <ele>334</ele>
        <time>2016-06-19T02:25:12Z</time>
      </trkpt>
      <trkpt lat="47.81145" lon="7.10441">
        <ele>334</ele>
        <time>2016-06-19T02:25:37Z</time>
      </trkpt>
      <trkpt lat="47.81151" lon="7.10442">
        <ele>334</ele>
        <time>2016-06-19T03:23:59Z</time>
      </trkpt>
      <trkpt lat="47.81147" lon="7.10447">
        <ele>334</ele>
        <time>2016-06-19T03:25:55Z</time>
      </trkpt>
      <trkpt lat="47.81152" lon="7.10449">
        <ele>334</ele>
        <time>2016-06-19T03:26:40Z</time>
      </trkpt>
      <trkpt lat="47.81164" lon="7.10455">
        <ele>334</ele>
        <time>2016-06-19T03:26:51Z</time>
      </trkpt>
      <trkpt lat="47.81173" lon="7.10455">
        <ele>335</ele>
        <time>2016-06-19T03:26:57Z</time>
      </trkpt>
      <trkpt lat="47.81188" lon="7.10461">
        <ele>335</ele>
        <time>2016-06-19T03:27:09Z</time>
      </trkpt>
      <trkpt lat="47.81194" lon="7.10464">
        <ele>335</ele>
        <time>2016-06-19T03:27:12Z</time>
      </trkpt>
      <trkpt lat="47.81204" lon="7.10466">
        <ele>335</ele>
        <time>2016-06-19T03:27:20Z</time>
      </trkpt>
      <trkpt lat="47.81213" lon="7.1047">
        <ele>335</ele>
        <time>2016-06-19T03:27:31Z</time>
      </trkpt>
      <trkpt lat="47.81223" lon="7.10472">
        <ele>336</ele>
        <time>2016-06-19T03:27:42Z</time>
      </trkpt>
      <trkpt lat="47.81237" lon="7.10479">
        <ele>336</ele>
        <time>2016-06-19T03:27:53Z</time>
      </trkpt>
      <trkpt lat="47.81249" lon="7.10484">
        <ele>336</ele>
        <time>2016-06-19T03:28:01Z</time>
      </trkpt>
      <trkpt lat="47.81253" lon="7.1049">
        <ele>338</ele>
        <time>2016-06-19T03:28:05Z</time>
      </trkpt>
      <trkpt lat="47.81263" lon="7.10496">
        <ele>338</ele>
        <time>2016-06-19T03:28:15Z</time>
      </trkpt>
      <trkpt lat="47.81273" lon="7.10497">
        <ele>339</ele>
        <time>2016-06-19T03:28:26Z</time>
      </trkpt>
      <trkpt lat="47.8129" lon="7.10494">
        <ele>340</ele>
        <time>2016-06-19T03:28:38Z</time>
      </trkpt>
      <trkpt lat="47.813" lon="7.10491">
        <ele>340</ele>
        <time>2016-06-19T03:28:49Z</time>
      </trkpt>
      <trkpt lat="47.81305" lon="7.10488">
        <ele>341</ele>
        <time>2016-06-19T03:28:52Z</time>
      </trkpt>
      <trkpt lat="47.81318" lon="7.10478">
        <ele>341</ele>
        <time>2016-06-19T03:29:04Z</time>
      </trkpt>
      <trkpt lat="47.81323" lon="7.10474">
        <ele>341</ele>
        <time>2016-06-19T03:29:08Z</time>
      </trkpt>
      <trkpt lat="47.81336" lon="7.10457">
        <ele>345</ele>
        <time>2016-06-19T03:29:21Z</time>
      </trkpt>
      <trkpt lat="47.81344" lon="7.10448">
        <ele>345</ele>
        <time>2016-06-19T03:29:30Z</time>
      </trkpt>
      <trkpt lat="47.81353" lon="7.10434">
        <ele>344</ele>
        <time>2016-06-19T03:29:42Z</time>
      </trkpt>
      <trkpt lat="47.81368" lon="7.10449">
        <ele>346</ele>
        <time>2016-06-19T03:29:54Z</time>
      </trkpt>
      <trkpt lat="47.81375" lon="7.10459">
        <ele>346</ele>
        <time>2016-06-19T03:30:04Z</time>
      </trkpt>
      <trkpt lat="47.81386" lon="7.10474">
        <ele>347</ele>
        <time>2016-06-19T03:30:17Z</time>
      </trkpt>
      <trkpt lat="47.81399" lon="7.10486">
        <ele>348</ele>
        <time>2016-06-19T03:30:30Z</time>
      </trkpt>
      <trkpt lat="47.81413" lon="7.10493">
        <ele>349</ele>
        <time>2016-06-19T03:30:43Z</time>
      </trkpt>
      <trkpt lat="47.81428" lon="7.10507">
        <ele>354</ele>
        <time>2016-06-19T03:30:55Z</time>
      </trkpt>
      <trkpt lat="47.81443" lon="7.10513">
        <ele>356</ele>
        <time>2016-06-19T03:31:09Z</time>
      </trkpt>
      <trkpt lat="47.81458" lon="7.10515">
        <ele>357</ele>
        <time>2016-06-19T03:31:20Z</time>
      </trkpt>
      <trkpt lat="47.81473" lon="7.10519">
        <ele>357</ele>
        <time>2016-06-19T03:31:30Z</time>
      </trkpt>
      <trkpt lat="47.81488" lon="7.10523">
        <ele>356</ele>
        <time>2016-06-19T03:31:43Z</time>
      </trkpt>
      <trkpt lat="47.81502" lon="7.10533">
        <ele>357</ele>
        <time>2016-06-19T03:31:54Z</time>
      </trkpt>
      <trkpt lat="47.81514" lon="7.10546">
        <ele>358</ele>
        <time>2016-06-19T03:32:08Z</time>
      </trkpt>
      <trkpt lat="47.81527" lon="7.10558">
        <ele>359</ele>
        <time>2016-06-19T03:32:21Z</time>
      </trkpt>
      <trkpt lat="47.81539" lon="7.10572">
        <ele>359</ele>
        <time>2016-06-19T03:32:35Z</time>
      </trkpt>
      <trkpt lat="47.81552" lon="7.10588">
        <ele>366</ele>
        <time>2016-06-19T03:32:48Z</time>
      </trkpt>
      <trkpt lat="47.81565" lon="7.106">
        <ele>365</ele>
        <time>2016-06-19T03:33:00Z</time>
      </trkpt>
      <trkpt lat="47.81571" lon="7.10611">
        <ele>366</ele>
        <time>2016-06-19T03:33:10Z</time>
      </trkpt>
      <trkpt lat="47.81581" lon="7.10632">
        <ele>367</ele>
        <time>2016-06-19T03:33:22Z</time>
      </trkpt>
      <trkpt lat="47.81589" lon="7.1064">
        <ele>366</ele>
        <time>2016-06-19T03:33:29Z</time>
      </trkpt>
      <trkpt lat="47.81596" lon="7.10652">
        <ele>366</ele>
        <time>2016-06-19T03:33:38Z</time>
      </trkpt>
      <trkpt lat="47.81603" lon="7.10666">
        <ele>366</ele>
        <time>2016-06-19T03:33:49Z</time>
      </trkpt>
      <trkpt lat="47.81614" lon="7.10681">
        <ele>371</ele>
        <time>2016-06-19T03:33:59Z</time>
      </trkpt>
      <trkpt lat="47.81627" lon="7.10696">
        <ele>372</ele>
        <time>2016-06-19T03:34:12Z</time>
      </trkpt>
      <trkpt lat="47.81638" lon="7.10711">
        <ele>372</ele>
        <time>2016-06-19T03:34:24Z</time>
      </trkpt>
      <trkpt lat="47.81641" lon="7.10715">
        <ele>372</ele>
        <time>2016-06-19T03:34:27Z</time>
      </trkpt>
      <trkpt lat="47.81654" lon="7.10732">
        <ele>370</ele>
        <time>2016-06-19T03:34:39Z</time>
      </trkpt>
      <trkpt lat="47.81658" lon="7.10738">
        <ele>369</ele>
        <time>2016-06-19T03:34:42Z</time>
      </trkpt>
      <trkpt lat="47.81669" lon="7.10754">
        <ele>367</ele>
        <time>2016-06-19T03:34:54Z</time>
      </trkpt>
      <trkpt lat="47.81678" lon="7.10764">
        <ele>371</ele>
        <time>2016-06-19T03:35:04Z</time>
      </trkpt>
      <trkpt lat="47.8169" lon="7.10777">
        <ele>373</ele>
        <time>2016-06-19T03:35:18Z</time>
      </trkpt>
      <trkpt lat="47.81702" lon="7.10788">
        <ele>374</ele>
        <time>2016-06-19T03:35:30Z</time>
      </trkpt>
      <trkpt lat="47.81716" lon="7.10788">
        <ele>374</ele>
        <time>2016-06-19T03:35:43Z</time>
      </trkpt>
      <trkpt lat="47.81721" lon="7.1079">
        <ele>374</ele>
        <time>2016-06-19T03:35:48Z</time>
      </trkpt>
      <trkpt lat="47.8173" lon="7.10795">
        <ele>374</ele>
        <time>2016-06-19T03:36:00Z</time>
      </trkpt>
      <trkpt lat="47.81741" lon="7.10798">
        <ele>374</ele>
        <time>2016-06-19T03:36:10Z</time>
      </trkpt>
      <trkpt lat="47.81754" lon="7.10793">
        <ele>381</ele>
        <time>2016-06-19T03:36:20Z</time>
      </trkpt>
      <trkpt lat="47.81759" lon="7.10795">
        <ele>381</ele>
        <time>2016-06-19T03:36:31Z</time>
      </trkpt>
      <trkpt lat="47.81762" lon="7.108">
        <ele>381</ele>
        <time>2016-06-19T03:36:51Z</time>
      </trkpt>
      <trkpt lat="47.81766" lon="7.10803">
        <ele>381</ele>
        <time>2016-06-19T03:37:05Z</time>
      </trkpt>
      <trkpt lat="47.81776" lon="7.10811">
        <ele>381</ele>
        <time>2016-06-19T03:37:17Z</time>
      </trkpt>
      <trkpt lat="47.81786" lon="7.10817">
        <ele>382</ele>
        <time>2016-06-19T03:37:35Z</time>
      </trkpt>
      <trkpt lat="47.8179" lon="7.1082">
        <ele>382</ele>
        <time>2016-06-19T03:37:49Z</time>
      </trkpt>
      <trkpt lat="47.81809" lon="7.10827">
        <ele>383</ele>
        <time>2016-06-19T03:37:59Z</time>
      </trkpt>
      <trkpt lat="47.81815" lon="7.1083">
        <ele>384</ele>
        <time>2016-06-19T03:38:03Z</time>
      </trkpt>
      <trkpt lat="47.81825" lon="7.10834">
        <ele>382</ele>
        <time>2016-06-19T03:38:12Z</time>
      </trkpt>
      <trkpt lat="47.81834" lon="7.10841">
        <ele>386</ele>
        <time>2016-06-19T03:38:22Z</time>
      </trkpt>
      <trkpt lat="47.81839" lon="7.10842">
        <ele>387</ele>
        <time>2016-06-19T03:38:31Z</time>
      </trkpt>
      <trkpt lat="47.81848" lon="7.10847">
        <ele>388</ele>
        <time>2016-06-19T03:38:41Z</time>
      </trkpt>
      <trkpt lat="47.81857" lon="7.10854">
        <ele>390</ele>
        <time>2016-06-19T03:38:51Z</time>
      </trkpt>
      <trkpt lat="47.81867" lon="7.10859">
        <ele>391</ele>
        <time>2016-06-19T03:39:01Z</time>
      </trkpt>
      <trkpt lat="47.81871" lon="7.10863">
        <ele>392</ele>
        <time>2016-06-19T03:39:05Z</time>
      </trkpt>
      <trkpt lat="47.8188" lon="7.10868">
        <ele>393</ele>
        <time>2016-06-19T03:39:16Z</time>
      </trkpt>
      <trkpt lat="47.81891" lon="7.10875">
        <ele>394</ele>
        <time>2016-06-19T03:39:27Z</time>
      </trkpt>
      <trkpt lat="47.81906" lon="7.1088">
        <ele>394</ele>
        <time>2016-06-19T03:39:40Z</time>
      </trkpt>
      <trkpt lat="47.81917" lon="7.10881">
        <ele>408</ele>
        <time>2016-06-19T03:39:51Z</time>
      </trkpt>
      <trkpt lat="47.81932" lon="7.10883">
        <ele>409</ele>
        <time>2016-06-19T03:40:05Z</time>
      </trkpt>
      <trkpt lat="47.81952" lon="7.10887">
        <ele>412</ele>
        <time>2016-06-19T03:40:19Z</time>
      </trkpt>
      <trkpt lat="47.81968" lon="7.10884">
        <ele>414</ele>
        <time>2016-06-19T03:40:31Z</time>
      </trkpt>
      <trkpt lat="47.81982" lon="7.10882">
        <ele>416</ele>
        <time>2016-06-19T03:40:44Z</time>
      </trkpt>
      <trkpt lat="47.81993" lon="7.10878">
        <ele>417</ele>
        <time>2016-06-19T03:40:59Z</time>
      </trkpt>
      <trkpt lat="47.82001" lon="7.1087">
        <ele>432</ele>
        <time>2016-06-19T03:41:11Z</time>
      </trkpt>
      <trkpt lat="47.82016" lon="7.1087">
        <ele>433</ele>
        <time>2016-06-19T03:41:26Z</time>
      </trkpt>
      <trkpt lat="47.82021" lon="7.1087">
        <ele>433</ele>
        <time>2016-06-19T03:41:36Z</time>
      </trkpt>
      <trkpt lat="47.8203" lon="7.10882">
        <ele>433</ele>
        <time>2016-06-19T03:41:49Z</time>
      </trkpt>
      <trkpt lat="47.82039" lon="7.1089">
        <ele>433</ele>
        <time>2016-06-19T03:42:04Z</time>
      </trkpt>
      <trkpt lat="47.82047" lon="7.10898">
        <ele>433</ele>
        <time>2016-06-19T03:42:16Z</time>
      </trkpt>
      <trkpt lat="47.82055" lon="7.10903">
        <ele>433</ele>
        <time>2016-06-19T03:42:29Z</time>
      </trkpt>
      <trkpt lat="47.82065" lon="7.10904">
        <ele>434</ele>
        <time>2016-06-19T03:42:41Z</time>
      </trkpt>
      <trkpt lat="47.8208" lon="7.10908">
        <ele>434</ele>
        <time>2016-06-19T03:42:53Z</time>
      </trkpt>
      <trkpt lat="47.8209" lon="7.10907">
        <ele>439</ele>
        <time>2016-06-19T03:43:04Z</time>
      </trkpt>
      <trkpt lat="47.82095" lon="7.10908">
        <ele>441</ele>
        <time>2016-06-19T03:43:08Z</time>
      </trkpt>
      <trkpt lat="47.82101" lon="7.10908">
        <ele>442</ele>
        <time>2016-06-19T03:43:14Z</time>
      </trkpt>
      <trkpt lat="47.8211" lon="7.10904">
        <ele>445</ele>
        <time>2016-06-19T03:43:28Z</time>
      </trkpt>
      <trkpt lat="47.82121" lon="7.10893">
        <ele>447</ele>
        <time>2016-06-19T03:43:43Z</time>
      </trkpt>
      <trkpt lat="47.82125" lon="7.10892">
        <ele>448</ele>
        <time>2016-06-19T03:43:53Z</time>
      </trkpt>
      <trkpt lat="47.8214" lon="7.10887">
        <ele>450</ele>
        <time>2016-06-19T03:44:04Z</time>
      </trkpt>
      <trkpt lat="47.82149" lon="7.10876">
        <ele>452</ele>
        <time>2016-06-19T03:44:20Z</time>
      </trkpt>
      <trkpt lat="47.82158" lon="7.10871">
        <ele>453</ele>
        <time>2016-06-19T03:44:29Z</time>
      </trkpt>
      <trkpt lat="47.82171" lon="7.10865">
        <ele>459</ele>
        <time>2016-06-19T03:44:40Z</time>
      </trkpt>
      <trkpt lat="47.82181" lon="7.10862">
        <ele>460</ele>
        <time>2016-06-19T03:44:51Z</time>
      </trkpt>
      <trkpt lat="47.82185" lon="7.10861">
        <ele>460</ele>
        <time>2016-06-19T03:44:58Z</time>
      </trkpt>
      <trkpt lat="47.82192" lon="7.10852">
        <ele>461</ele>
        <time>2016-06-19T03:45:08Z</time>
      </trkpt>
      <trkpt lat="47.82206" lon="7.10842">
        <ele>462</ele>
        <time>2016-06-19T03:45:25Z</time>
      </trkpt>
      <trkpt lat="47.82219" lon="7.10833">
        <ele>480</ele>
        <time>2016-06-19T03:45:39Z</time>
      </trkpt>
      <trkpt lat="47.82222" lon="7.10819">
        <ele>481</ele>
        <time>2016-06-19T03:45:49Z</time>
      </trkpt>
      <trkpt lat="47.82228" lon="7.10808">
        <ele>482</ele>
        <time>2016-06-19T03:45:57Z</time>
      </trkpt>
      <trkpt lat="47.82232" lon="7.10803">
        <ele>483</ele>
        <time>2016-06-19T03:46:09Z</time>
      </trkpt>
      <trkpt lat="47.82241" lon="7.10795">
        <ele>485</ele>
        <time>2016-06-19T03:46:21Z</time>
      </trkpt>
      <trkpt lat="47.8225" lon="7.10787">
        <ele>486</ele>
        <time>2016-06-19T03:46:34Z</time>
      </trkpt>
      <trkpt lat="47.82253" lon="7.10773">
        <ele>490</ele>
        <time>2016-06-19T03:46:46Z</time>
      </trkpt>
      <trkpt lat="47.82262" lon="7.10767">
        <ele>491</ele>
        <time>2016-06-19T03:46:59Z</time>
      </trkpt>
      <trkpt lat="47.82266" lon="7.10765">
        <ele>491</ele>
        <time>2016-06-19T03:47:09Z</time>
      </trkpt>
      <trkpt lat="47.82275" lon="7.10766">
        <ele>489</ele>
        <time>2016-06-19T03:47:22Z</time>
      </trkpt>
      <trkpt lat="47.82285" lon="7.10762">
        <ele>489</ele>
        <time>2016-06-19T03:47:34Z</time>
      </trkpt>
      <trkpt lat="47.82294" lon="7.10757">
        <ele>489</ele>
        <time>2016-06-19T03:47:47Z</time>
      </trkpt>
      <trkpt lat="47.82304" lon="7.10756">
        <ele>489</ele>
        <time>2016-06-19T03:47:59Z</time>
      </trkpt>
      <trkpt lat="47.82312" lon="7.10751">
        <ele>490</ele>
        <time>2016-06-19T03:48:15Z</time>
      </trkpt>
      <trkpt lat="47.82317" lon="7.10747">
        <ele>506</ele>
        <time>2016-06-19T03:48:26Z</time>
      </trkpt>
      <trkpt lat="47.82324" lon="7.10735">
        <ele>508</ele>
        <time>2016-06-19T03:49:20Z</time>
      </trkpt>
      <trkpt lat="47.82328" lon="7.10732">
        <ele>508</ele>
        <time>2016-06-19T03:50:29Z</time>
      </trkpt>
      <trkpt lat="47.82339" lon="7.10722">
        <ele>511</ele>
        <time>2016-06-19T03:50:40Z</time>
      </trkpt>
      <trkpt lat="47.82344" lon="7.10718">
        <ele>512</ele>
        <time>2016-06-19T03:50:47Z</time>
      </trkpt>
      <trkpt lat="47.82362" lon="7.1071">
        <ele>514</ele>
        <time>2016-06-19T03:50:58Z</time>
      </trkpt>
      <trkpt lat="47.82366" lon="7.10706">
        <ele>515</ele>
        <time>2016-06-19T03:51:12Z</time>
      </trkpt>
      <trkpt lat="47.82368" lon="7.107">
        <ele>516</ele>
        <time>2016-06-19T03:51:22Z</time>
      </trkpt>
      <trkpt lat="47.82376" lon="7.10686">
        <ele>519</ele>
        <time>2016-06-19T03:51:34Z</time>
      </trkpt>
      <trkpt lat="47.82381" lon="7.10674">
        <ele>520</ele>
        <time>2016-06-19T03:51:51Z</time>
      </trkpt>
      <trkpt lat="47.82385" lon="7.1067">
        <ele>520</ele>
        <time>2016-06-19T03:51:59Z</time>
      </trkpt>
      <trkpt lat="47.824" lon="7.10661">
        <ele>539</ele>
        <time>2016-06-19T03:52:12Z</time>
      </trkpt>
      <trkpt lat="47.82409" lon="7.10656">
        <ele>537</ele>
        <time>2016-06-19T03:52:29Z</time>
      </trkpt>
      <trkpt lat="47.82413" lon="7.10654">
        <ele>537</ele>
        <time>2016-06-19T03:52:40Z</time>
      </trkpt>
      <trkpt lat="47.82422" lon="7.10647">
        <ele>533</ele>
        <time>2016-06-19T03:52:53Z</time>
      </trkpt>
      <trkpt lat="47.8243" lon="7.10644">
        <ele>534</ele>
        <time>2016-06-19T03:53:12Z</time>
      </trkpt>
      <trkpt lat="47.8243" lon="7.10637">
        <ele>536</ele>
        <time>2016-06-19T03:53:32Z</time>
      </trkpt>
      <trkpt lat="47.82441" lon="7.10618">
        <ele>540</ele>
        <time>2016-06-19T03:53:50Z</time>
      </trkpt>
      <trkpt lat="47.8245" lon="7.10612">
        <ele>540</ele>
        <time>2016-06-19T03:54:05Z</time>
      </trkpt>
      <trkpt lat="47.82457" lon="7.10603">
        <ele>541</ele>
        <time>2016-06-19T03:54:19Z</time>
      </trkpt>
      <trkpt lat="47.82462" lon="7.10588">
        <ele>542</ele>
        <time>2016-06-19T03:54:29Z</time>
      </trkpt>
      <trkpt lat="47.82463" lon="7.10573">
        <ele>561</ele>
        <time>2016-06-19T03:54:40Z</time>
      </trkpt>
      <trkpt lat="47.82465" lon="7.1056">
        <ele>562</ele>
        <time>2016-06-19T03:54:50Z</time>
      </trkpt>
      <trkpt lat="47.82469" lon="7.10555">
        <ele>563</ele>
        <time>2016-06-19T03:54:57Z</time>
      </trkpt>
      <trkpt lat="47.82479" lon="7.10539">
        <ele>564</ele>
        <time>2016-06-19T03:55:13Z</time>
      </trkpt>
      <trkpt lat="47.82485" lon="7.10526">
        <ele>566</ele>
        <time>2016-06-19T03:55:23Z</time>
      </trkpt>
      <trkpt lat="47.82492" lon="7.10514">
        <ele>567</ele>
        <time>2016-06-19T03:55:34Z</time>
      </trkpt>
      <trkpt lat="47.82496" lon="7.10502">
        <ele>569</ele>
        <time>2016-06-19T03:55:44Z</time>
      </trkpt>
      <trkpt lat="47.82496" lon="7.10487">
        <ele>577</ele>
        <time>2016-06-19T03:55:59Z</time>
      </trkpt>
      <trkpt lat="47.82504" lon="7.1047">
        <ele>572</ele>
        <time>2016-06-19T03:56:15Z</time>
      </trkpt>
      <trkpt lat="47.82508" lon="7.10467">
        <ele>573</ele>
        <time>2016-06-19T03:56:22Z</time>
      </trkpt>
      <trkpt lat="47.82516" lon="7.10461">
        <ele>573</ele>
        <time>2016-06-19T03:56:36Z</time>
      </trkpt>
      <trkpt lat="47.82525" lon="7.10455">
        <ele>573</ele>
        <time>2016-06-19T03:56:46Z</time>
      </trkpt>
      <trkpt lat="47.82536" lon="7.10448">
        <ele>573</ele>
        <time>2016-06-19T03:57:02Z</time>
      </trkpt>
      <trkpt lat="47.82546" lon="7.10442">
        <ele>573</ele>
        <time>2016-06-19T03:57:18Z</time>
      </trkpt>
      <trkpt lat="47.82554" lon="7.10433">
        <ele>574</ele>
        <time>2016-06-19T03:57:30Z</time>
      </trkpt>
      <trkpt lat="47.82562" lon="7.10426">
        <ele>574</ele>
        <time>2016-06-19T03:57:38Z</time>
      </trkpt>
      <trkpt lat="47.82574" lon="7.10411">
        <ele>578</ele>
        <time>2016-06-19T03:57:52Z</time>
      </trkpt>
      <trkpt lat="47.82589" lon="7.10395">
        <ele>581</ele>
        <time>2016-06-19T03:58:03Z</time>
      </trkpt>
      <trkpt lat="47.82598" lon="7.10387">
        <ele>582</ele>
        <time>2016-06-19T03:58:13Z</time>
      </trkpt>
      <trkpt lat="47.82602" lon="7.10381">
        <ele>583</ele>
        <time>2016-06-19T03:58:20Z</time>
      </trkpt>
      <trkpt lat="47.8261" lon="7.10375">
        <ele>584</ele>
        <time>2016-06-19T03:58:31Z</time>
      </trkpt>
      <trkpt lat="47.82614" lon="7.1038">
        <ele>584</ele>
        <time>2016-06-19T03:58:39Z</time>
      </trkpt>
      <trkpt lat="47.82622" lon="7.10371">
        <ele>585</ele>
        <time>2016-06-19T03:58:49Z</time>
      </trkpt>
      <trkpt lat="47.82632" lon="7.10357">
        <ele>587</ele>
        <time>2016-06-19T03:59:00Z</time>
      </trkpt>
      <trkpt lat="47.82637" lon="7.10345">
        <ele>589</ele>
        <time>2016-06-19T03:59:14Z</time>
      </trkpt>
      <trkpt lat="47.82642" lon="7.10346">
        <ele>590</ele>
        <time>2016-06-19T03:59:25Z</time>
      </trkpt>
      <trkpt lat="47.82647" lon="7.10356">
        <ele>589</ele>
        <time>2016-06-19T03:59:42Z</time>
      </trkpt>
      <trkpt lat="47.82651" lon="7.10359">
        <ele>589</ele>
        <time>2016-06-19T03:59:50Z</time>
      </trkpt>
      <trkpt lat="47.82661" lon="7.10344">
        <ele>594</ele>
        <time>2016-06-19T04:00:07Z</time>
      </trkpt>
      <trkpt lat="47.82669" lon="7.10337">
        <ele>599</ele>
        <time>2016-06-19T04:00:18Z</time>
      </trkpt>
      <trkpt lat="47.82679" lon="7.10332">
        <ele>602</ele>
        <time>2016-06-19T04:00:41Z</time>
      </trkpt>
      <trkpt lat="47.82688" lon="7.10326">
        <ele>603</ele>
        <time>2016-06-19T04:00:52Z</time>
      </trkpt>
      <trkpt lat="47.82692" lon="7.10324">
        <ele>604</ele>
        <time>2016-06-19T04:00:56Z</time>
      </trkpt>
      <trkpt lat="47.82702" lon="7.10309">
        <ele>605</ele>
        <time>2016-06-19T04:01:09Z</time>
      </trkpt>
      <trkpt lat="47.82713" lon="7.10303">
        <ele>605</ele>
        <time>2016-06-19T04:01:25Z</time>
      </trkpt>
      <trkpt lat="47.82723" lon="7.10299">
        <ele>606</ele>
        <time>2016-06-19T04:01:39Z</time>
      </trkpt>
      <trkpt lat="47.82736" lon="7.10289">
        <ele>608</ele>
        <time>2016-06-19T04:01:51Z</time>
      </trkpt>
      <trkpt lat="47.82752" lon="7.1028">
        <ele>614</ele>
        <time>2016-06-19T04:02:06Z</time>
      </trkpt>
      <trkpt lat="47.82764" lon="7.10268">
        <ele>615</ele>
        <time>2016-06-19T04:02:20Z</time>
      </trkpt>
      <trkpt lat="47.82772" lon="7.10261">
        <ele>616</ele>
        <time>2016-06-19T04:02:34Z</time>
      </trkpt>
      <trkpt lat="47.82784" lon="7.1025">
        <ele>616</ele>
        <time>2016-06-19T04:02:45Z</time>
      </trkpt>
      <trkpt lat="47.82788" lon="7.10246">
        <ele>628</ele>
        <time>2016-06-19T04:02:48Z</time>
      </trkpt>
      <trkpt lat="47.82796" lon="7.10243">
        <ele>629</ele>
        <time>2016-06-19T04:02:59Z</time>
      </trkpt>
      <trkpt lat="47.82804" lon="7.10235">
        <ele>630</ele>
        <time>2016-06-19T04:03:19Z</time>
      </trkpt>
      <trkpt lat="47.82814" lon="7.10229">
        <ele>631</ele>
        <time>2016-06-19T04:03:32Z</time>
      </trkpt>
      <trkpt lat="47.82819" lon="7.10212">
        <ele>633</ele>
        <time>2016-06-19T04:03:47Z</time>
      </trkpt>
      <trkpt lat="47.82833" lon="7.10194">
        <ele>638</ele>
        <time>2016-06-19T04:03:59Z</time>
      </trkpt>
      <trkpt lat="47.82847" lon="7.10184">
        <ele>646</ele>
        <time>2016-06-19T04:04:15Z</time>
      </trkpt>
      <trkpt lat="47.82852" lon="7.10183">
        <ele>645</ele>
        <time>2016-06-19T04:04:23Z</time>
      </trkpt>
      <trkpt lat="47.82862" lon="7.10176">
        <ele>645</ele>
        <time>2016-06-19T04:04:36Z</time>
      </trkpt>
      <trkpt lat="47.82871" lon="7.10171">
        <ele>645</ele>
        <time>2016-06-19T04:04:46Z</time>
      </trkpt>
      <trkpt lat="47.82886" lon="7.10168">
        <ele>646</ele>
        <time>2016-06-19T04:05:01Z</time>
      </trkpt>
      <trkpt lat="47.82891" lon="7.10168">
        <ele>646</ele>
        <time>2016-06-19T04:05:08Z</time>
      </trkpt>
      <trkpt lat="47.82896" lon="7.10169">
        <ele>646</ele>
        <time>2016-06-19T04:05:14Z</time>
      </trkpt>
      <trkpt lat="47.82907" lon="7.10162">
        <ele>651</ele>
        <time>2016-06-19T04:05:26Z</time>
      </trkpt>
      <trkpt lat="47.82912" lon="7.1016">
        <ele>651</ele>
        <time>2016-06-19T04:05:29Z</time>
      </trkpt>
      <trkpt lat="47.82923" lon="7.10157">
        <ele>653</ele>
        <time>2016-06-19T04:05:41Z</time>
      </trkpt>
      <trkpt lat="47.82932" lon="7.1015">
        <ele>655</ele>
        <time>2016-06-19T04:05:54Z</time>
      </trkpt>
      <trkpt lat="47.82941" lon="7.10147">
        <ele>656</ele>
        <time>2016-06-19T04:06:06Z</time>
      </trkpt>
      <trkpt lat="47.82946" lon="7.10142">
        <ele>657</ele>
        <time>2016-06-19T04:06:12Z</time>
      </trkpt>
      <trkpt lat="47.82956" lon="7.10133">
        <ele>657</ele>
        <time>2016-06-19T04:06:24Z</time>
      </trkpt>
      <trkpt lat="47.82964" lon="7.10129">
        <ele>658</ele>
        <time>2016-06-19T04:06:29Z</time>
      </trkpt>
      <trkpt lat="47.82976" lon="7.10124">
        <ele>659</ele>
        <time>2016-06-19T04:06:38Z</time>
      </trkpt>
      <trkpt lat="47.82985" lon="7.1012">
        <ele>659</ele>
        <time>2016-06-19T04:06:48Z</time>
      </trkpt>
      <trkpt lat="47.82994" lon="7.10115">
        <ele>659</ele>
        <time>2016-06-19T04:06:58Z</time>
      </trkpt>
      <trkpt lat="47.8301" lon="7.10109">
        <ele>669</ele>
        <time>2016-06-19T04:07:15Z</time>
      </trkpt>
      <trkpt lat="47.83033" lon="7.10107">
        <ele>673</ele>
        <time>2016-06-19T04:07:27Z</time>
      </trkpt>
      <trkpt lat="47.83037" lon="7.10105">
        <ele>673</ele>
        <time>2016-06-19T04:07:32Z</time>
      </trkpt>
      <trkpt lat="47.83051" lon="7.10099">
        <ele>675</ele>
        <time>2016-06-19T04:07:47Z</time>
      </trkpt>
      <trkpt lat="47.8306" lon="7.10091">
        <ele>677</ele>
        <time>2016-06-19T04:07:58Z</time>
      </trkpt>
      <trkpt lat="47.83074" lon="7.1008">
        <ele>673</ele>
        <time>2016-06-19T04:08:10Z</time>
      </trkpt>
      <trkpt lat="47.83077" lon="7.10074">
        <ele>672</ele>
        <time>2016-06-19T04:08:14Z</time>
      </trkpt>
      <trkpt lat="47.83086" lon="7.1007">
        <ele>676</ele>
        <time>2016-06-19T04:08:24Z</time>
      </trkpt>
      <trkpt lat="47.83099" lon="7.10059">
        <ele>673</ele>
        <time>2016-06-19T04:08:39Z</time>
      </trkpt>
      <trkpt lat="47.83103" lon="7.10055">
        <ele>672</ele>
        <time>2016-06-19T04:08:49Z</time>
      </trkpt>
      <trkpt lat="47.83113" lon="7.1005">
        <ele>671</ele>
        <time>2016-06-19T04:08:59Z</time>
      </trkpt>
      <trkpt lat="47.83124" lon="7.10047">
        <ele>671</ele>
        <time>2016-06-19T04:09:10Z</time>
      </trkpt>
      <trkpt lat="47.83136" lon="7.10045">
        <ele>671</ele>
        <time>2016-06-19T04:09:20Z</time>
      </trkpt>
      <trkpt lat="47.83152" lon="7.10044">
        <ele>672</ele>
        <time>2016-06-19T04:09:32Z</time>
      </trkpt>
      <trkpt lat="47.83159" lon="7.10055">
        <ele>675</ele>
        <time>2016-06-19T04:09:49Z</time>
      </trkpt>
      <trkpt lat="47.8317" lon="7.1007">
        <ele>678</ele>
        <time>2016-06-19T04:10:01Z</time>
      </trkpt>
      <trkpt lat="47.83178" lon="7.1008">
        <ele>680</ele>
        <time>2016-06-19T04:10:13Z</time>
      </trkpt>
      <trkpt lat="47.83185" lon="7.10089">
        <ele>690</ele>
        <time>2016-06-19T04:10:23Z</time>
      </trkpt>
      <trkpt lat="47.83199" lon="7.101">
        <ele>692</ele>
        <time>2016-06-19T04:10:35Z</time>
      </trkpt>
      <trkpt lat="47.83201" lon="7.10115">
        <ele>693</ele>
        <time>2016-06-19T04:10:48Z</time>
      </trkpt>
      <trkpt lat="47.83206" lon="7.10117">
        <ele>694</ele>
        <time>2016-06-19T04:10:50Z</time>
      </trkpt>
      <trkpt lat="47.83213" lon="7.10129">
        <ele>695</ele>
        <time>2016-06-19T04:11:05Z</time>
      </trkpt>
      <trkpt lat="47.83218" lon="7.1014">
        <ele>697</ele>
        <time>2016-06-19T04:11:16Z</time>
      </trkpt>
      <trkpt lat="47.83229" lon="7.10144">
        <ele>698</ele>
        <time>2016-06-19T04:11:22Z</time>
      </trkpt>
      <trkpt lat="47.83233" lon="7.10149">
        <ele>699</ele>
        <time>2016-06-19T04:11:36Z</time>
      </trkpt>
      <trkpt lat="47.83253" lon="7.10146">
        <ele>702</ele>
        <time>2016-06-19T04:11:50Z</time>
      </trkpt>
      <trkpt lat="47.83257" lon="7.10146">
        <ele>702</ele>
        <time>2016-06-19T04:11:54Z</time>
      </trkpt>
      <trkpt lat="47.83263" lon="7.10147">
        <ele>702</ele>
        <time>2016-06-19T04:12:11Z</time>
      </trkpt>
      <trkpt lat="47.83269" lon="7.10148">
        <ele>702</ele>
        <time>2016-06-19T04:12:17Z</time>
      </trkpt>
      <trkpt lat="47.83289" lon="7.10155">
        <ele>704</ele>
        <time>2016-06-19T04:12:33Z</time>
      </trkpt>
      <trkpt lat="47.83294" lon="7.10156">
        <ele>704</ele>
        <time>2016-06-19T04:12:43Z</time>
      </trkpt>
      <trkpt lat="47.83305" lon="7.10156">
        <ele>706</ele>
        <time>2016-06-19T04:12:53Z</time>
      </trkpt>
      <trkpt lat="47.83315" lon="7.10157">
        <ele>709</ele>
        <time>2016-06-19T04:13:12Z</time>
      </trkpt>
      <trkpt lat="47.83334" lon="7.10147">
        <ele>721</ele>
        <time>2016-06-19T04:13:25Z</time>
      </trkpt>
      <trkpt lat="47.83353" lon="7.10138">
        <ele>721</ele>
        <time>2016-06-19T04:13:36Z</time>
      </trkpt>
      <trkpt lat="47.83364" lon="7.10134">
        <ele>722</ele>
        <time>2016-06-19T04:13:43Z</time>
      </trkpt>
      <trkpt lat="47.83367" lon="7.10129">
        <ele>722</ele>
        <time>2016-06-19T04:13:57Z</time>
      </trkpt>
      <trkpt lat="47.83377" lon="7.10125">
        <ele>723</ele>
        <time>2016-06-19T04:14:08Z</time>
      </trkpt>
      <trkpt lat="47.83391" lon="7.10116">
        <ele>723</ele>
        <time>2016-06-19T04:14:23Z</time>
      </trkpt>
      <trkpt lat="47.83395" lon="7.10111">
        <ele>723</ele>
        <time>2016-06-19T04:14:28Z</time>
      </trkpt>
      <trkpt lat="47.83402" lon="7.10101">
        <ele>722</ele>
        <time>2016-06-19T04:14:39Z</time>
      </trkpt>
      <trkpt lat="47.83411" lon="7.10094">
        <ele>722</ele>
        <time>2016-06-19T04:14:51Z</time>
      </trkpt>
      <trkpt lat="47.83419" lon="7.10086">
        <ele>725</ele>
        <time>2016-06-19T04:15:03Z</time>
      </trkpt>
      <trkpt lat="47.83431" lon="7.10075">
        <ele>718</ele>
        <time>2016-06-19T04:15:14Z</time>
      </trkpt>
      <trkpt lat="47.83437" lon="7.10073">
        <ele>718</ele>
        <time>2016-06-19T04:15:25Z</time>
      </trkpt>
      <trkpt lat="47.83445" lon="7.10068">
        <ele>717</ele>
        <time>2016-06-19T04:15:37Z</time>
      </trkpt>
      <trkpt lat="47.83454" lon="7.10067">
        <ele>718</ele>
        <time>2016-06-19T04:15:50Z</time>
      </trkpt>
      <trkpt lat="47.83465" lon="7.10067">
        <ele>719</ele>
        <time>2016-06-19T04:16:03Z</time>
      </trkpt>
      <trkpt lat="47.8348" lon="7.10077">
        <ele>723</ele>
        <time>2016-06-19T04:16:19Z</time>
      </trkpt>
      <trkpt lat="47.83487" lon="7.10088">
        <ele>736</ele>
        <time>2016-06-19T04:16:31Z</time>
      </trkpt>
      <trkpt lat="47.83491" lon="7.10099">
        <ele>737</ele>
        <time>2016-06-19T04:16:45Z</time>
      </trkpt>
      <trkpt lat="47.83498" lon="7.1011">
        <ele>739</ele>
        <time>2016-06-19T04:16:56Z</time>
      </trkpt>
      <trkpt lat="47.83501" lon="7.10117">
        <ele>737</ele>
        <time>2016-06-19T04:16:59Z</time>
      </trkpt>
      <trkpt lat="47.83505" lon="7.1013">
        <ele>740</ele>
        <time>2016-06-19T04:17:10Z</time>
      </trkpt>
      <trkpt lat="47.83511" lon="7.10145">
        <ele>743</ele>
        <time>2016-06-19T04:17:23Z</time>
      </trkpt>
      <trkpt lat="47.83517" lon="7.10155">
        <ele>745</ele>
        <time>2016-06-19T04:17:33Z</time>
      </trkpt>
      <trkpt lat="47.83523" lon="7.10164">
        <ele>744</ele>
        <time>2016-06-19T04:17:42Z</time>
      </trkpt>
      <trkpt lat="47.83528" lon="7.10177">
        <ele>754</ele>
        <time>2016-06-19T04:17:59Z</time>
      </trkpt>
      <trkpt lat="47.83537" lon="7.10195">
        <ele>754</ele>
        <time>2016-06-19T04:18:17Z</time>
      </trkpt>
      <trkpt lat="47.83546" lon="7.10213">
        <ele>755</ele>
        <time>2016-06-19T04:18:29Z</time>
      </trkpt>
      <trkpt lat="47.83547" lon="7.1022">
        <ele>755</ele>
        <time>2016-06-19T04:18:34Z</time>
      </trkpt>
      <trkpt lat="47.83556" lon="7.10238">
        <ele>755</ele>
        <time>2016-06-19T04:18:48Z</time>
      </trkpt>
      <trkpt lat="47.83557" lon="7.10244">
        <ele>755</ele>
        <time>2016-06-19T04:18:56Z</time>
      </trkpt>
      <trkpt lat="47.83554" lon="7.10259">
        <ele>763</ele>
        <time>2016-06-19T04:19:05Z</time>
      </trkpt>
      <trkpt lat="47.83555" lon="7.10273">
        <ele>764</ele>
        <time>2016-06-19T04:19:15Z</time>
      </trkpt>
      <trkpt lat="47.83553" lon="7.10288">
        <ele>765</ele>
        <time>2016-06-19T04:19:25Z</time>
      </trkpt>
      <trkpt lat="47.83553" lon="7.10313">
        <ele>765</ele>
        <time>2016-06-19T04:19:43Z</time>
      </trkpt>
      <trkpt lat="47.83552" lon="7.10327">
        <ele>766</ele>
        <time>2016-06-19T04:19:52Z</time>
      </trkpt>
      <trkpt lat="47.83556" lon="7.10349">
        <ele>765</ele>
        <time>2016-06-19T04:20:08Z</time>
      </trkpt>
      <trkpt lat="47.83564" lon="7.10367">
        <ele>765</ele>
        <time>2016-06-19T04:20:19Z</time>
      </trkpt>
      <trkpt lat="47.83574" lon="7.10374">
        <ele>765</ele>
        <time>2016-06-19T04:20:29Z</time>
      </trkpt>
      <trkpt lat="47.83586" lon="7.10387">
        <ele>759</ele>
        <time>2016-06-19T04:20:41Z</time>
      </trkpt>
      <trkpt lat="47.83588" lon="7.10394">
        <ele>760</ele>
        <time>2016-06-19T04:20:44Z</time>
      </trkpt>
      <trkpt lat="47.83593" lon="7.10405">
        <ele>761</ele>
        <time>2016-06-19T04:20:55Z</time>
      </trkpt>
      <trkpt lat="47.83606" lon="7.10414">
        <ele>760</ele>
        <time>2016-06-19T04:21:08Z</time>
      </trkpt>
      <trkpt lat="47.83621" lon="7.1042">
        <ele>768</ele>
        <time>2016-06-19T04:21:20Z</time>
      </trkpt>
      <trkpt lat="47.83626" lon="7.10421">
        <ele>768</ele>
        <time>2016-06-19T04:21:24Z</time>
      </trkpt>
      <trkpt lat="47.83632" lon="7.10423">
        <ele>767</ele>
        <time>2016-06-19T04:21:31Z</time>
      </trkpt>
      <trkpt lat="47.83647" lon="7.1043">
        <ele>767</ele>
        <time>2016-06-19T04:21:42Z</time>
      </trkpt>
      <trkpt lat="47.8366" lon="7.1044">
        <ele>768</ele>
        <time>2016-06-19T04:21:54Z</time>
      </trkpt>
      <trkpt lat="47.83667" lon="7.10446">
        <ele>762</ele>
        <time>2016-06-19T04:22:10Z</time>
      </trkpt>
      <trkpt lat="47.83682" lon="7.10456">
        <ele>763</ele>
        <time>2016-06-19T04:22:22Z</time>
      </trkpt>
      <trkpt lat="47.83693" lon="7.1047">
        <ele>763</ele>
        <time>2016-06-19T04:22:33Z</time>
      </trkpt>
      <trkpt lat="47.83706" lon="7.10485">
        <ele>762</ele>
        <time>2016-06-19T04:22:49Z</time>
      </trkpt>
      <trkpt lat="47.83718" lon="7.10501">
        <ele>769</ele>
        <time>2016-06-19T04:22:59Z</time>
      </trkpt>
      <trkpt lat="47.83728" lon="7.10518">
        <ele>767</ele>
        <time>2016-06-19T04:23:10Z</time>
      </trkpt>
      <trkpt lat="47.83727" lon="7.10536">
        <ele>770</ele>
        <time>2016-06-19T04:23:24Z</time>
      </trkpt>
      <trkpt lat="47.83727" lon="7.10544">
        <ele>770</ele>
        <time>2016-06-19T04:23:29Z</time>
      </trkpt>
      <trkpt lat="47.83734" lon="7.10562">
        <ele>770</ele>
        <time>2016-06-19T04:23:40Z</time>
      </trkpt>
      <trkpt lat="47.83734" lon="7.1057">
        <ele>769</ele>
        <time>2016-06-19T04:23:45Z</time>
      </trkpt>
      <trkpt lat="47.83737" lon="7.10588">
        <ele>770</ele>
        <time>2016-06-19T04:23:56Z</time>
      </trkpt>
      <trkpt lat="47.83735" lon="7.10597">
        <ele>772</ele>
        <time>2016-06-19T04:24:00Z</time>
      </trkpt>
      <trkpt lat="47.83733" lon="7.1062">
        <ele>775</ele>
        <time>2016-06-19T04:24:13Z</time>
      </trkpt>
      <trkpt lat="47.83733" lon="7.10627">
        <ele>775</ele>
        <time>2016-06-19T04:24:18Z</time>
      </trkpt>
      <trkpt lat="47.83736" lon="7.1064">
        <ele>775</ele>
        <time>2016-06-19T04:24:28Z</time>
      </trkpt>
      <trkpt lat="47.83736" lon="7.10653">
        <ele>775</ele>
        <time>2016-06-19T04:24:38Z</time>
      </trkpt>
      <trkpt lat="47.83734" lon="7.10667">
        <ele>775</ele>
        <time>2016-06-19T04:24:48Z</time>
      </trkpt>
      <trkpt lat="47.83734" lon="7.10674">
        <ele>776</ele>
        <time>2016-06-19T04:24:52Z</time>
      </trkpt>
      <trkpt lat="47.83732" lon="7.10689">
        <ele>777</ele>
        <time>2016-06-19T04:25:05Z</time>
      </trkpt>
      <trkpt lat="47.83737" lon="7.10708">
        <ele>778</ele>
        <time>2016-06-19T04:25:16Z</time>
      </trkpt>
      <trkpt lat="47.83735" lon="7.10731">
        <ele>779</ele>
        <time>2016-06-19T04:25:24Z</time>
      </trkpt>
      <trkpt lat="47.83734" lon="7.10753">
        <ele>778</ele>
        <time>2016-06-19T04:25:38Z</time>
      </trkpt>
      <trkpt lat="47.83732" lon="7.1076">
        <ele>778</ele>
        <time>2016-06-19T04:25:46Z</time>
      </trkpt>
      <trkpt lat="47.83732" lon="7.10773">
        <ele>777</ele>
        <time>2016-06-19T04:25:57Z</time>
      </trkpt>
      <trkpt lat="47.83739" lon="7.10794">
        <ele>778</ele>
        <time>2016-06-19T04:26:09Z</time>
      </trkpt>
      <trkpt lat="47.83748" lon="7.10815">
        <ele>780</ele>
        <time>2016-06-19T04:26:22Z</time>
      </trkpt>
      <trkpt lat="47.83758" lon="7.10828">
        <ele>779</ele>
        <time>2016-06-19T04:26:36Z</time>
      </trkpt>
      <trkpt lat="47.83764" lon="7.10848">
        <ele>784</ele>
        <time>2016-06-19T04:26:47Z</time>
      </trkpt>
      <trkpt lat="47.83768" lon="7.10854">
        <ele>784</ele>
        <time>2016-06-19T04:26:51Z</time>
      </trkpt>
      <trkpt lat="47.83773" lon="7.10855">
        <ele>784</ele>
        <time>2016-06-19T04:26:59Z</time>
      </trkpt>
      <trkpt lat="47.83786" lon="7.10864">
        <ele>784</ele>
        <time>2016-06-19T04:27:13Z</time>
      </trkpt>
      <trkpt lat="47.83799" lon="7.10876">
        <ele>785</ele>
        <time>2016-06-19T04:27:26Z</time>
      </trkpt>
      <trkpt lat="47.83806" lon="7.10887">
        <ele>786</ele>
        <time>2016-06-19T04:27:37Z</time>
      </trkpt>
      <trkpt lat="47.83815" lon="7.10904">
        <ele>790</ele>
        <time>2016-06-19T04:27:50Z</time>
      </trkpt>
      <trkpt lat="47.83819" lon="7.10908">
        <ele>791</ele>
        <time>2016-06-19T04:27:53Z</time>
      </trkpt>
      <trkpt lat="47.83827" lon="7.10918">
        <ele>799</ele>
        <time>2016-06-19T04:28:05Z</time>
      </trkpt>
      <trkpt lat="47.83834" lon="7.10929">
        <ele>800</ele>
        <time>2016-06-19T04:28:17Z</time>
      </trkpt>
      <trkpt lat="47.83841" lon="7.1094">
        <ele>802</ele>
        <time>2016-06-19T04:28:33Z</time>
      </trkpt>
      <trkpt lat="47.83853" lon="7.10953">
        <ele>803</ele>
        <time>2016-06-19T04:28:47Z</time>
      </trkpt>
      <trkpt lat="47.83861" lon="7.1096">
        <ele>804</ele>
        <time>2016-06-19T04:28:59Z</time>
      </trkpt>
      <trkpt lat="47.83864" lon="7.10973">
        <ele>806</ele>
        <time>2016-06-19T04:29:09Z</time>
      </trkpt>
      <trkpt lat="47.83876" lon="7.10988">
        <ele>806</ele>
        <time>2016-06-19T04:29:21Z</time>
      </trkpt>
      <trkpt lat="47.8388" lon="7.10992">
        <ele>807</ele>
        <time>2016-06-19T04:29:27Z</time>
      </trkpt>
      <trkpt lat="47.83891" lon="7.11006">
        <ele>822</ele>
        <time>2016-06-19T04:29:42Z</time>
      </trkpt>
      <trkpt lat="47.83906" lon="7.11016">
        <ele>821</ele>
        <time>2016-06-19T04:29:53Z</time>
      </trkpt>
      <trkpt lat="47.83915" lon="7.11024">
        <ele>822</ele>
        <time>2016-06-19T04:30:03Z</time>
      </trkpt>
      <trkpt lat="47.8392" lon="7.11036">
        <ele>811</ele>
        <time>2016-06-19T04:30:14Z</time>
      </trkpt>
      <trkpt lat="47.83925" lon="7.1105">
        <ele>813</ele>
        <time>2016-06-19T04:30:26Z</time>
      </trkpt>
      <trkpt lat="47.83931" lon="7.1107">
        <ele>820</ele>
        <time>2016-06-19T04:30:39Z</time>
      </trkpt>
      <trkpt lat="47.8394" lon="7.11089">
        <ele>828</ele>
        <time>2016-06-19T04:30:52Z</time>
      </trkpt>
      <trkpt lat="47.83946" lon="7.11107">
        <ele>826</ele>
        <time>2016-06-19T04:31:04Z</time>
      </trkpt>
      <trkpt lat="47.83958" lon="7.11123">
        <ele>824</ele>
        <time>2016-06-19T04:31:16Z</time>
      </trkpt>
      <trkpt lat="47.83959" lon="7.11141">
        <ele>825</ele>
        <time>2016-06-19T04:31:26Z</time>
      </trkpt>
      <trkpt lat="47.83962" lon="7.11147">
        <ele>825</ele>
        <time>2016-06-19T04:31:29Z</time>
      </trkpt>
      <trkpt lat="47.83974" lon="7.11162">
        <ele>821</ele>
        <time>2016-06-19T04:31:42Z</time>
      </trkpt>
      <trkpt lat="47.83975" lon="7.11169">
        <ele>833</ele>
        <time>2016-06-19T04:31:47Z</time>
      </trkpt>
      <trkpt lat="47.83985" lon="7.11187">
        <ele>832</ele>
        <time>2016-06-19T04:32:03Z</time>
      </trkpt>
      <trkpt lat="47.83981" lon="7.11192">
        <ele>835</ele>
        <time>2016-06-19T04:32:06Z</time>
      </trkpt>
      <trkpt lat="47.8398" lon="7.11199">
        <ele>837</ele>
        <time>2016-06-19T04:32:10Z</time>
      </trkpt>
      <trkpt lat="47.83982" lon="7.11213">
        <ele>840</ele>
        <time>2016-06-19T04:32:20Z</time>
      </trkpt>
      <trkpt lat="47.83988" lon="7.11224">
        <ele>839</ele>
        <time>2016-06-19T04:32:27Z</time>
      </trkpt>
      <trkpt lat="47.83989" lon="7.11231">
        <ele>839</ele>
        <time>2016-06-19T04:32:31Z</time>
      </trkpt>
      <trkpt lat="47.8399" lon="7.11251">
        <ele>844</ele>
        <time>2016-06-19T04:32:44Z</time>
      </trkpt>
      <trkpt lat="47.83992" lon="7.11256">
        <ele>844</ele>
        <time>2016-06-19T04:32:47Z</time>
      </trkpt>
      <trkpt lat="47.83995" lon="7.11263">
        <ele>847</ele>
        <time>2016-06-19T04:32:51Z</time>
      </trkpt>
      <trkpt lat="47.83999" lon="7.11267">
        <ele>849</ele>
        <time>2016-06-19T04:32:55Z</time>
      </trkpt>
      <trkpt lat="47.8401" lon="7.1128">
        <ele>831</ele>
        <time>2016-06-19T04:33:06Z</time>
      </trkpt>
      <trkpt lat="47.84018" lon="7.113">
        <ele>834</ele>
        <time>2016-06-19T04:33:19Z</time>
      </trkpt>
      <trkpt lat="47.84026" lon="7.11321">
        <ele>837</ele>
        <time>2016-06-19T04:33:33Z</time>
      </trkpt>
      <trkpt lat="47.84025" lon="7.11343">
        <ele>853</ele>
        <time>2016-06-19T04:33:47Z</time>
      </trkpt>
      <trkpt lat="47.8403" lon="7.11364">
        <ele>854</ele>
        <time>2016-06-19T04:33:58Z</time>
      </trkpt>
      <trkpt lat="47.84035" lon="7.11375">
        <ele>854</ele>
        <time>2016-06-19T04:34:10Z</time>
      </trkpt>
      <trkpt lat="47.84044" lon="7.11391">
        <ele>855</ele>
        <time>2016-06-19T04:34:23Z</time>
      </trkpt>
      <trkpt lat="47.84049" lon="7.11396">
        <ele>854</ele>
        <time>2016-06-19T04:34:29Z</time>
      </trkpt>
      <trkpt lat="47.84064" lon="7.11407">
        <ele>852</ele>
        <time>2016-06-19T04:34:41Z</time>
      </trkpt>
      <trkpt lat="47.84076" lon="7.11423">
        <ele>854</ele>
        <time>2016-06-19T04:34:52Z</time>
      </trkpt>
      <trkpt lat="47.8408" lon="7.11428">
        <ele>854</ele>
        <time>2016-06-19T04:34:59Z</time>
      </trkpt>
      <trkpt lat="47.84087" lon="7.11437">
        <ele>853</ele>
        <time>2016-06-19T04:35:10Z</time>
      </trkpt>
      <trkpt lat="47.84096" lon="7.11443">
        <ele>854</ele>
        <time>2016-06-19T04:35:20Z</time>
      </trkpt>
      <trkpt lat="47.84105" lon="7.11448">
        <ele>854</ele>
        <time>2016-06-19T04:35:29Z</time>
      </trkpt>
      <trkpt lat="47.84119" lon="7.11448">
        <ele>856</ele>
        <time>2016-06-19T04:35:47Z</time>
      </trkpt>
      <trkpt lat="47.84135" lon="7.11448">
        <ele>857</ele>
        <time>2016-06-19T04:36:00Z</time>
      </trkpt>
      <trkpt lat="47.84144" lon="7.11455">
        <ele>858</ele>
        <time>2016-06-19T04:36:10Z</time>
      </trkpt>
      <trkpt lat="47.84157" lon="7.11466">
        <ele>858</ele>
        <time>2016-06-19T04:36:22Z</time>
      </trkpt>
      <trkpt lat="47.84171" lon="7.11477">
        <ele>871</ele>
        <time>2016-06-19T04:36:36Z</time>
      </trkpt>
      <trkpt lat="47.84178" lon="7.11489">
        <ele>870</ele>
        <time>2016-06-19T04:36:48Z</time>
      </trkpt>
      <trkpt lat="47.8419" lon="7.11504">
        <ele>867</ele>
        <time>2016-06-19T04:36:59Z</time>
      </trkpt>
      <trkpt lat="47.84203" lon="7.11516">
        <ele>868</ele>
        <time>2016-06-19T04:37:11Z</time>
      </trkpt>
      <trkpt lat="47.84212" lon="7.11534">
        <ele>868</ele>
        <time>2016-06-19T04:37:20Z</time>
      </trkpt>
      <trkpt lat="47.84217" lon="7.11537">
        <ele>869</ele>
        <time>2016-06-19T04:37:24Z</time>
      </trkpt>
      <trkpt lat="47.84226" lon="7.11544">
        <ele>869</ele>
        <time>2016-06-19T04:37:32Z</time>
      </trkpt>
      <trkpt lat="47.84233" lon="7.11551">
        <ele>869</ele>
        <time>2016-06-19T04:37:43Z</time>
      </trkpt>
      <trkpt lat="47.84246" lon="7.11563">
        <ele>869</ele>
        <time>2016-06-19T04:37:56Z</time>
      </trkpt>
      <trkpt lat="47.8425" lon="7.11568">
        <ele>881</ele>
        <time>2016-06-19T04:38:02Z</time>
      </trkpt>
      <trkpt lat="47.84263" lon="7.11576">
        <ele>880</ele>
        <time>2016-06-19T04:38:13Z</time>
      </trkpt>
      <trkpt lat="47.84273" lon="7.1158">
        <ele>884</ele>
        <time>2016-06-19T04:38:21Z</time>
      </trkpt>
      <trkpt lat="47.84283" lon="7.11585">
        <ele>875</ele>
        <time>2016-06-19T04:38:29Z</time>
      </trkpt>
      <trkpt lat="47.84286" lon="7.1159">
        <ele>876</ele>
        <time>2016-06-19T04:38:33Z</time>
      </trkpt>
      <trkpt lat="47.843" lon="7.11604">
        <ele>878</ele>
        <time>2016-06-19T04:38:47Z</time>
      </trkpt>
      <trkpt lat="47.84308" lon="7.1161">
        <ele>879</ele>
        <time>2016-06-19T04:38:58Z</time>
      </trkpt>
      <trkpt lat="47.84316" lon="7.11619">
        <ele>878</ele>
        <time>2016-06-19T04:39:08Z</time>
      </trkpt>
      <trkpt lat="47.84325" lon="7.11627">
        <ele>878</ele>
        <time>2016-06-19T04:39:17Z</time>
      </trkpt>
      <trkpt lat="47.84339" lon="7.11636">
        <ele>889</ele>
        <time>2016-06-19T04:39:30Z</time>
      </trkpt>
      <trkpt lat="47.84342" lon="7.1164">
        <ele>888</ele>
        <time>2016-06-19T04:39:34Z</time>
      </trkpt>
      <trkpt lat="47.84346" lon="7.11644">
        <ele>887</ele>
        <time>2016-06-19T04:39:38Z</time>
      </trkpt>
      <trkpt lat="47.84356" lon="7.11652">
        <ele>888</ele>
        <time>2016-06-19T04:39:50Z</time>
      </trkpt>
      <trkpt lat="47.84366" lon="7.11669">
        <ele>875</ele>
        <time>2016-06-19T04:40:01Z</time>
      </trkpt>
      <trkpt lat="47.84377" lon="7.11684">
        <ele>875</ele>
        <time>2016-06-19T04:40:11Z</time>
      </trkpt>
      <trkpt lat="47.84386" lon="7.11687">
        <ele>876</ele>
        <time>2016-06-19T04:40:29Z</time>
      </trkpt>
      <trkpt lat="47.84392" lon="7.11688">
        <ele>877</ele>
        <time>2016-06-19T04:41:11Z</time>
      </trkpt>
      <trkpt lat="47.84401" lon="7.11683">
        <ele>880</ele>
        <time>2016-06-19T04:41:27Z</time>
      </trkpt>
      <trkpt lat="47.84406" lon="7.11682">
        <ele>882</ele>
        <time>2016-06-19T04:41:33Z</time>
      </trkpt>
      <trkpt lat="47.8442" lon="7.1168">
        <ele>888</ele>
        <time>2016-06-19T04:41:45Z</time>
      </trkpt>
      <trkpt lat="47.84436" lon="7.1168">
        <ele>885</ele>
        <time>2016-06-19T04:41:58Z</time>
      </trkpt>
      <trkpt lat="47.84445" lon="7.11683">
        <ele>884</ele>
        <time>2016-06-19T04:42:08Z</time>
      </trkpt>
      <trkpt lat="47.84456" lon="7.11687">
        <ele>882</ele>
        <time>2016-06-19T04:42:17Z</time>
      </trkpt>
      <trkpt lat="47.84472" lon="7.1169">
        <ele>882</ele>
        <time>2016-06-19T04:42:29Z</time>
      </trkpt>
      <trkpt lat="47.84481" lon="7.11687">
        <ele>882</ele>
        <time>2016-06-19T04:42:41Z</time>
      </trkpt>
      <trkpt lat="47.84496" lon="7.11692">
        <ele>882</ele>
        <time>2016-06-19T04:42:52Z</time>
      </trkpt>
      <trkpt lat="47.8451" lon="7.11692">
        <ele>882</ele>
        <time>2016-06-19T04:43:05Z</time>
      </trkpt>
      <trkpt lat="47.84526" lon="7.1169">
        <ele>881</ele>
        <time>2016-06-19T04:43:21Z</time>
      </trkpt>
      <trkpt lat="47.84534" lon="7.11691">
        <ele>881</ele>
        <time>2016-06-19T04:43:25Z</time>
      </trkpt>
      <trkpt lat="47.84538" lon="7.11693">
        <ele>881</ele>
        <time>2016-06-19T04:43:28Z</time>
      </trkpt>
      <trkpt lat="47.84553" lon="7.11699">
        <ele>881</ele>
        <time>2016-06-19T04:43:38Z</time>
      </trkpt>
      <trkpt lat="47.84569" lon="7.11701">
        <ele>881</ele>
        <time>2016-06-19T04:43:49Z</time>
      </trkpt>
      <trkpt lat="47.84579" lon="7.11696">
        <ele>881</ele>
        <time>2016-06-19T04:43:59Z</time>
      </trkpt>
      <trkpt lat="47.84588" lon="7.11692">
        <ele>885</ele>
        <time>2016-06-19T04:44:13Z</time>
      </trkpt>
      <trkpt lat="47.84603" lon="7.11688">
        <ele>885</ele>
        <time>2016-06-19T04:44:24Z</time>
      </trkpt>
      <trkpt lat="47.84619" lon="7.11689">
        <ele>886</ele>
        <time>2016-06-19T04:44:34Z</time>
      </trkpt>
      <trkpt lat="47.84631" lon="7.11687">
        <ele>887</ele>
        <time>2016-06-19T04:44:47Z</time>
      </trkpt>
      <trkpt lat="47.84641" lon="7.11688">
        <ele>887</ele>
        <time>2016-06-19T04:44:54Z</time>
      </trkpt>
      <trkpt lat="47.84656" lon="7.11693">
        <ele>888</ele>
        <time>2016-06-19T04:45:05Z</time>
      </trkpt>
      <trkpt lat="47.8467" lon="7.11695">
        <ele>896</ele>
        <time>2016-06-19T04:45:19Z</time>
      </trkpt>
      <trkpt lat="47.84675" lon="7.11693">
        <ele>896</ele>
        <time>2016-06-19T04:45:31Z</time>
      </trkpt>
      <trkpt lat="47.8468" lon="7.11694">
        <ele>896</ele>
        <time>2016-06-19T04:45:38Z</time>
      </trkpt>
      <trkpt lat="47.84691" lon="7.11697">
        <ele>897</ele>
        <time>2016-06-19T04:45:48Z</time>
      </trkpt>
      <trkpt lat="47.84706" lon="7.11702">
        <ele>898</ele>
        <time>2016-06-19T04:45:59Z</time>
      </trkpt>
      <trkpt lat="47.84719" lon="7.11712">
        <ele>899</ele>
        <time>2016-06-19T04:46:13Z</time>
      </trkpt>
      <trkpt lat="47.84723" lon="7.11716">
        <ele>899</ele>
        <time>2016-06-19T04:46:16Z</time>
      </trkpt>
      <trkpt lat="47.84736" lon="7.11729">
        <ele>901</ele>
        <time>2016-06-19T04:46:29Z</time>
      </trkpt>
      <trkpt lat="47.84749" lon="7.11738">
        <ele>902</ele>
        <time>2016-06-19T04:46:42Z</time>
      </trkpt>
      <trkpt lat="47.84762" lon="7.11746">
        <ele>907</ele>
        <time>2016-06-19T04:46:53Z</time>
      </trkpt>
      <trkpt lat="47.84773" lon="7.1175">
        <ele>904</ele>
        <time>2016-06-19T04:47:03Z</time>
      </trkpt>
      <trkpt lat="47.84776" lon="7.11756">
        <ele>904</ele>
        <time>2016-06-19T04:47:06Z</time>
      </trkpt>
      <trkpt lat="47.84792" lon="7.11761">
        <ele>905</ele>
        <time>2016-06-19T04:47:18Z</time>
      </trkpt>
      <trkpt lat="47.848" lon="7.11768">
        <ele>906</ele>
        <time>2016-06-19T04:47:25Z</time>
      </trkpt>
      <trkpt lat="47.84815" lon="7.11776">
        <ele>907</ele>
        <time>2016-06-19T04:47:39Z</time>
      </trkpt>
      <trkpt lat="47.84827" lon="7.11788">
        <ele>907</ele>
        <time>2016-06-19T04:47:51Z</time>
      </trkpt>
      <trkpt lat="47.84836" lon="7.11792">
        <ele>911</ele>
        <time>2016-06-19T04:48:02Z</time>
      </trkpt>
      <trkpt lat="47.84844" lon="7.11787">
        <ele>911</ele>
        <time>2016-06-19T04:48:14Z</time>
      </trkpt>
      <trkpt lat="47.84854" lon="7.11785">
        <ele>911</ele>
        <time>2016-06-19T04:48:27Z</time>
      </trkpt>
      <trkpt lat="47.84869" lon="7.1178">
        <ele>911</ele>
        <time>2016-06-19T04:48:36Z</time>
      </trkpt>
      <trkpt lat="47.84878" lon="7.11778">
        <ele>910</ele>
        <time>2016-06-19T04:48:46Z</time>
      </trkpt>
      <trkpt lat="47.84883" lon="7.1178">
        <ele>910</ele>
        <time>2016-06-19T04:48:50Z</time>
      </trkpt>
      <trkpt lat="47.84893" lon="7.11781">
        <ele>910</ele>
        <time>2016-06-19T04:49:00Z</time>
      </trkpt>
      <trkpt lat="47.84906" lon="7.1179">
        <ele>910</ele>
        <time>2016-06-19T04:49:12Z</time>
      </trkpt>
      <trkpt lat="47.84909" lon="7.11798">
        <ele>911</ele>
        <time>2016-06-19T04:49:19Z</time>
      </trkpt>
      <trkpt lat="47.84913" lon="7.11812">
        <ele>913</ele>
        <time>2016-06-19T04:49:33Z</time>
      </trkpt>
      <trkpt lat="47.84922" lon="7.11831">
        <ele>913</ele>
        <time>2016-06-19T04:49:47Z</time>
      </trkpt>
      <trkpt lat="47.8493" lon="7.11841">
        <ele>916</ele>
        <time>2016-06-19T04:49:57Z</time>
      </trkpt>
      <trkpt lat="47.84944" lon="7.11853">
        <ele>916</ele>
        <time>2016-06-19T04:50:10Z</time>
      </trkpt>
      <trkpt lat="47.84949" lon="7.11864">
        <ele>916</ele>
        <time>2016-06-19T04:50:20Z</time>
      </trkpt>
      <trkpt lat="47.84959" lon="7.1188">
        <ele>917</ele>
        <time>2016-06-19T04:50:33Z</time>
      </trkpt>
      <trkpt lat="47.84973" lon="7.11892">
        <ele>919</ele>
        <time>2016-06-19T04:50:46Z</time>
      </trkpt>
      <trkpt lat="47.84987" lon="7.11897">
        <ele>920</ele>
        <time>2016-06-19T04:50:56Z</time>
      </trkpt>
      <trkpt lat="47.84993" lon="7.11898">
        <ele>920</ele>
        <time>2016-06-19T04:51:00Z</time>
      </trkpt>
      <trkpt lat="47.85012" lon="7.11898">
        <ele>916</ele>
        <time>2016-06-19T04:51:11Z</time>
      </trkpt>
      <trkpt lat="47.85021" lon="7.11896">
        <ele>914</ele>
        <time>2016-06-19T04:51:20Z</time>
      </trkpt>
      <trkpt lat="47.85032" lon="7.1189">
        <ele>912</ele>
        <time>2016-06-19T04:51:32Z</time>
      </trkpt>
      <trkpt lat="47.8504" lon="7.11886">
        <ele>911</ele>
        <time>2016-06-19T04:51:45Z</time>
      </trkpt>
      <trkpt lat="47.85046" lon="7.11889">
        <ele>911</ele>
        <time>2016-06-19T04:51:56Z</time>
      </trkpt>
      <trkpt lat="47.85056" lon="7.11897">
        <ele>913</ele>
        <time>2016-06-19T04:52:07Z</time>
      </trkpt>
      <trkpt lat="47.85065" lon="7.11903">
        <ele>914</ele>
        <time>2016-06-19T04:52:18Z</time>
      </trkpt>
      <trkpt lat="47.85076" lon="7.11908">
        <ele>917</ele>
        <time>2016-06-19T04:52:30Z</time>
      </trkpt>
      <trkpt lat="47.85091" lon="7.11914">
        <ele>916</ele>
        <time>2016-06-19T04:52:40Z</time>
      </trkpt>
      <trkpt lat="47.85101" lon="7.11912">
        <ele>911</ele>
        <time>2016-06-19T04:52:49Z</time>
      </trkpt>
      <trkpt lat="47.85111" lon="7.11918">
        <ele>927</ele>
        <time>2016-06-19T04:53:01Z</time>
      </trkpt>
      <trkpt lat="47.85129" lon="7.1193">
        <ele>927</ele>
        <time>2016-06-19T04:53:12Z</time>
      </trkpt>
      <trkpt lat="47.85141" lon="7.11936">
        <ele>926</ele>
        <time>2016-06-19T04:53:26Z</time>
      </trkpt>
      <trkpt lat="47.85146" lon="7.11939">
        <ele>926</ele>
        <time>2016-06-19T04:53:29Z</time>
      </trkpt>
      <trkpt lat="47.85155" lon="7.11944">
        <ele>926</ele>
        <time>2016-06-19T04:53:44Z</time>
      </trkpt>
      <trkpt lat="47.85176" lon="7.11949">
        <ele>919</ele>
        <time>2016-06-19T04:53:55Z</time>
      </trkpt>
      <trkpt lat="47.85192" lon="7.11955">
        <ele>920</ele>
        <time>2016-06-19T04:54:11Z</time>
      </trkpt>
      <trkpt lat="47.85207" lon="7.11957">
        <ele>920</ele>
        <time>2016-06-19T04:54:26Z</time>
      </trkpt>
      <trkpt lat="47.85226" lon="7.11968">
        <ele>921</ele>
        <time>2016-06-19T04:54:38Z</time>
      </trkpt>
      <trkpt lat="47.85232" lon="7.11971">
        <ele>921</ele>
        <time>2016-06-19T04:54:42Z</time>
      </trkpt>
      <trkpt lat="47.85238" lon="7.11973">
        <ele>921</ele>
        <time>2016-06-19T04:54:45Z</time>
      </trkpt>
      <trkpt lat="47.85256" lon="7.11986">
        <ele>917</ele>
        <time>2016-06-19T04:54:58Z</time>
      </trkpt>
      <trkpt lat="47.8526" lon="7.11992">
        <ele>918</ele>
        <time>2016-06-19T04:55:02Z</time>
      </trkpt>
      <trkpt lat="47.85272" lon="7.12006">
        <ele>925</ele>
        <time>2016-06-19T04:55:16Z</time>
      </trkpt>
      <trkpt lat="47.85284" lon="7.12021">
        <ele>924</ele>
        <time>2016-06-19T04:55:28Z</time>
      </trkpt>
      <trkpt lat="47.85294" lon="7.12038">
        <ele>924</ele>
        <time>2016-06-19T04:55:38Z</time>
      </trkpt>
      <trkpt lat="47.85297" lon="7.12051">
        <ele>925</ele>
        <time>2016-06-19T04:55:46Z</time>
      </trkpt>
      <trkpt lat="47.85304" lon="7.1207">
        <ele>925</ele>
        <time>2016-06-19T04:56:03Z</time>
      </trkpt>
      <trkpt lat="47.85311" lon="7.1209">
        <ele>935</ele>
        <time>2016-06-19T04:56:14Z</time>
      </trkpt>
      <trkpt lat="47.85316" lon="7.12095">
        <ele>934</ele>
        <time>2016-06-19T04:56:17Z</time>
      </trkpt>
      <trkpt lat="47.85324" lon="7.12111">
        <ele>936</ele>
        <time>2016-06-19T04:56:28Z</time>
      </trkpt>
      <trkpt lat="47.85335" lon="7.12127">
        <ele>919</ele>
        <time>2016-06-19T04:56:41Z</time>
      </trkpt>
      <trkpt lat="47.85342" lon="7.12139">
        <ele>921</ele>
        <time>2016-06-19T04:56:48Z</time>
      </trkpt>
      <trkpt lat="47.85346" lon="7.12144">
        <ele>922</ele>
        <time>2016-06-19T04:56:53Z</time>
      </trkpt>
      <trkpt lat="47.85358" lon="7.12157">
        <ele>921</ele>
        <time>2016-06-19T04:57:06Z</time>
      </trkpt>
      <trkpt lat="47.85364" lon="7.1217">
        <ele>933</ele>
        <time>2016-06-19T04:57:16Z</time>
      </trkpt>
      <trkpt lat="47.85369" lon="7.12176">
        <ele>932</ele>
        <time>2016-06-19T04:57:21Z</time>
      </trkpt>
      <trkpt lat="47.8538" lon="7.1219">
        <ele>931</ele>
        <time>2016-06-19T04:57:31Z</time>
      </trkpt>
      <trkpt lat="47.85388" lon="7.12199">
        <ele>930</ele>
        <time>2016-06-19T04:57:42Z</time>
      </trkpt>
      <trkpt lat="47.85393" lon="7.12205">
        <ele>930</ele>
        <time>2016-06-19T04:57:47Z</time>
      </trkpt>
      <trkpt lat="47.85407" lon="7.1222">
        <ele>931</ele>
        <time>2016-06-19T04:57:58Z</time>
      </trkpt>
      <trkpt lat="47.85412" lon="7.12233">
        <ele>931</ele>
        <time>2016-06-19T04:58:09Z</time>
      </trkpt>
      <trkpt lat="47.85424" lon="7.12247">
        <ele>923</ele>
        <time>2016-06-19T04:58:21Z</time>
      </trkpt>
      <trkpt lat="47.85426" lon="7.12253">
        <ele>929</ele>
        <time>2016-06-19T04:58:28Z</time>
      </trkpt>
      <trkpt lat="47.85431" lon="7.12257">
        <ele>930</ele>
        <time>2016-06-19T04:58:33Z</time>
      </trkpt>
      <trkpt lat="47.85439" lon="7.12265">
        <ele>930</ele>
        <time>2016-06-19T04:58:38Z</time>
      </trkpt>
      <trkpt lat="47.85453" lon="7.12275">
        <ele>929</ele>
        <time>2016-06-19T04:58:48Z</time>
      </trkpt>
      <trkpt lat="47.85469" lon="7.12284">
        <ele>928</ele>
        <time>2016-06-19T04:58:59Z</time>
      </trkpt>
      <trkpt lat="47.85478" lon="7.12292">
        <ele>928</ele>
        <time>2016-06-19T04:59:09Z</time>
      </trkpt>
      <trkpt lat="47.8549" lon="7.12305">
        <ele>929</ele>
        <time>2016-06-19T04:59:21Z</time>
      </trkpt>
      <trkpt lat="47.85503" lon="7.12319">
        <ele>919</ele>
        <time>2016-06-19T04:59:31Z</time>
      </trkpt>
      <trkpt lat="47.85512" lon="7.1233">
        <ele>921</ele>
        <time>2016-06-19T04:59:42Z</time>
      </trkpt>
      <trkpt lat="47.85517" lon="7.12343">
        <ele>929</ele>
        <time>2016-06-19T04:59:53Z</time>
      </trkpt>
      <trkpt lat="47.85531" lon="7.12355">
        <ele>928</ele>
        <time>2016-06-19T05:00:03Z</time>
      </trkpt>
      <trkpt lat="47.85543" lon="7.12371">
        <ele>927</ele>
        <time>2016-06-19T05:00:14Z</time>
      </trkpt>
      <trkpt lat="47.85551" lon="7.12391">
        <ele>928</ele>
        <time>2016-06-19T05:00:27Z</time>
      </trkpt>
      <trkpt lat="47.85559" lon="7.12401">
        <ele>927</ele>
        <time>2016-06-19T05:00:38Z</time>
      </trkpt>
      <trkpt lat="47.85573" lon="7.12415">
        <ele>925</ele>
        <time>2016-06-19T05:00:50Z</time>
      </trkpt>
      <trkpt lat="47.85578" lon="7.12418">
        <ele>929</ele>
        <time>2016-06-19T05:00:53Z</time>
      </trkpt>
      <trkpt lat="47.85582" lon="7.12424">
        <ele>931</ele>
        <time>2016-06-19T05:00:59Z</time>
      </trkpt>
      <trkpt lat="47.85593" lon="7.12438">
        <ele>925</ele>
        <time>2016-06-19T05:01:18Z</time>
      </trkpt>
      <trkpt lat="47.85608" lon="7.12458">
        <ele>928</ele>
        <time>2016-06-19T05:01:31Z</time>
      </trkpt>
      <trkpt lat="47.8562" lon="7.12472">
        <ele>929</ele>
        <time>2016-06-19T05:01:44Z</time>
      </trkpt>
      <trkpt lat="47.85625" lon="7.12475">
        <ele>928</ele>
        <time>2016-06-19T05:01:48Z</time>
      </trkpt>
      <trkpt lat="47.85634" lon="7.12482">
        <ele>928</ele>
        <time>2016-06-19T05:01:58Z</time>
      </trkpt>
      <trkpt lat="47.85639" lon="7.12487">
        <ele>928</ele>
        <time>2016-06-19T05:02:09Z</time>
      </trkpt>
      <trkpt lat="47.85654" lon="7.12499">
        <ele>928</ele>
        <time>2016-06-19T05:02:19Z</time>
      </trkpt>
      <trkpt lat="47.85668" lon="7.12509">
        <ele>931</ele>
        <time>2016-06-19T05:02:29Z</time>
      </trkpt>
      <trkpt lat="47.85683" lon="7.12521">
        <ele>933</ele>
        <time>2016-06-19T05:02:41Z</time>
      </trkpt>
      <trkpt lat="47.85699" lon="7.12528">
        <ele>934</ele>
        <time>2016-06-19T05:02:52Z</time>
      </trkpt>
      <trkpt lat="47.85709" lon="7.12528">
        <ele>933</ele>
        <time>2016-06-19T05:02:59Z</time>
      </trkpt>
      <trkpt lat="47.85716" lon="7.12529">
        <ele>932</ele>
        <time>2016-06-19T05:03:02Z</time>
      </trkpt>
      <trkpt lat="47.8572" lon="7.12532">
        <ele>932</ele>
        <time>2016-06-19T05:03:04Z</time>
      </trkpt>
      <trkpt lat="47.8573" lon="7.12531">
        <ele>931</ele>
        <time>2016-06-19T05:03:14Z</time>
      </trkpt>
      <trkpt lat="47.85735" lon="7.1253">
        <ele>930</ele>
        <time>2016-06-19T05:03:21Z</time>
      </trkpt>
      <trkpt lat="47.85752" lon="7.12538">
        <ele>926</ele>
        <time>2016-06-19T05:03:33Z</time>
      </trkpt>
      <trkpt lat="47.85767" lon="7.12544">
        <ele>927</ele>
        <time>2016-06-19T05:03:44Z</time>
      </trkpt>
      <trkpt lat="47.85781" lon="7.12553">
        <ele>928</ele>
        <time>2016-06-19T05:03:59Z</time>
      </trkpt>
      <trkpt lat="47.85791" lon="7.12556">
        <ele>928</ele>
        <time>2016-06-19T05:04:12Z</time>
      </trkpt>
      <trkpt lat="47.858" lon="7.12557">
        <ele>929</ele>
        <time>2016-06-19T05:04:26Z</time>
      </trkpt>
      <trkpt lat="47.85809" lon="7.12559">
        <ele>929</ele>
        <time>2016-06-19T05:04:41Z</time>
      </trkpt>
      <trkpt lat="47.85817" lon="7.12549">
        <ele>928</ele>
        <time>2016-06-19T05:04:52Z</time>
      </trkpt>
      <trkpt lat="47.85825" lon="7.12538">
        <ele>926</ele>
        <time>2016-06-19T05:05:03Z</time>
      </trkpt>
      <trkpt lat="47.85836" lon="7.12524">
        <ele>933</ele>
        <time>2016-06-19T05:05:14Z</time>
      </trkpt>
      <trkpt lat="47.85846" lon="7.12505">
        <ele>928</ele>
        <time>2016-06-19T05:05:24Z</time>
      </trkpt>
      <trkpt lat="47.85851" lon="7.12484">
        <ele>925</ele>
        <time>2016-06-19T05:05:34Z</time>
      </trkpt>
      <trkpt lat="47.85862" lon="7.12468">
        <ele>928</ele>
        <time>2016-06-19T05:05:45Z</time>
      </trkpt>
      <trkpt lat="47.85872" lon="7.12455">
        <ele>929</ele>
        <time>2016-06-19T05:05:55Z</time>
      </trkpt>
      <trkpt lat="47.85879" lon="7.12434">
        <ele>929</ele>
        <time>2016-06-19T05:06:07Z</time>
      </trkpt>
      <trkpt lat="47.8589" lon="7.12421">
        <ele>932</ele>
        <time>2016-06-19T05:06:15Z</time>
      </trkpt>
      <trkpt lat="47.85899" lon="7.12411">
        <ele>929</ele>
        <time>2016-06-19T05:06:24Z</time>
      </trkpt>
      <trkpt lat="47.85902" lon="7.12404">
        <ele>929</ele>
        <time>2016-06-19T05:06:28Z</time>
      </trkpt>
      <trkpt lat="47.85908" lon="7.12391">
        <ele>928</ele>
        <time>2016-06-19T05:06:37Z</time>
      </trkpt>
      <trkpt lat="47.85911" lon="7.12367">
        <ele>926</ele>
        <time>2016-06-19T05:06:50Z</time>
      </trkpt>
      <trkpt lat="47.85912" lon="7.12347">
        <ele>928</ele>
        <time>2016-06-19T05:07:01Z</time>
      </trkpt>
      <trkpt lat="47.85916" lon="7.12333">
        <ele>934</ele>
        <time>2016-06-19T05:07:12Z</time>
      </trkpt>
      <trkpt lat="47.85919" lon="7.12327">
        <ele>939</ele>
        <time>2016-06-19T05:07:15Z</time>
      </trkpt>
      <trkpt lat="47.85924" lon="7.12307">
        <ele>945</ele>
        <time>2016-06-19T05:07:25Z</time>
      </trkpt>
      <trkpt lat="47.85927" lon="7.123">
        <ele>946</ele>
        <time>2016-06-19T05:07:30Z</time>
      </trkpt>
      <trkpt lat="47.8593" lon="7.12281">
        <ele>945</ele>
        <time>2016-06-19T05:07:42Z</time>
      </trkpt>
      <trkpt lat="47.85936" lon="7.12265">
        <ele>943</ele>
        <time>2016-06-19T05:07:52Z</time>
      </trkpt>
      <trkpt lat="47.85936" lon="7.12255">
        <ele>942</ele>
        <time>2016-06-19T05:07:56Z</time>
      </trkpt>
      <trkpt lat="47.85943" lon="7.12229">
        <ele>939</ele>
        <time>2016-06-19T05:08:06Z</time>
      </trkpt>
      <trkpt lat="47.85944" lon="7.12222">
        <ele>939</ele>
        <time>2016-06-19T05:08:08Z</time>
      </trkpt>
      <trkpt lat="47.85946" lon="7.12215">
        <ele>940</ele>
        <time>2016-06-19T05:08:11Z</time>
      </trkpt>
      <trkpt lat="47.85947" lon="7.12207">
        <ele>939</ele>
        <time>2016-06-19T05:08:14Z</time>
      </trkpt>
      <trkpt lat="47.85948" lon="7.12199">
        <ele>939</ele>
        <time>2016-06-19T05:08:16Z</time>
      </trkpt>
      <trkpt lat="47.85956" lon="7.12169">
        <ele>939</ele>
        <time>2016-06-19T05:08:27Z</time>
      </trkpt>
      <trkpt lat="47.85957" lon="7.1216">
        <ele>930</ele>
        <time>2016-06-19T05:08:30Z</time>
      </trkpt>
      <trkpt lat="47.85959" lon="7.12153">
        <ele>930</ele>
        <time>2016-06-19T05:08:33Z</time>
      </trkpt>
      <trkpt lat="47.85965" lon="7.12135">
        <ele>930</ele>
        <time>2016-06-19T05:08:46Z</time>
      </trkpt>
      <trkpt lat="47.8597" lon="7.12113">
        <ele>929</ele>
        <time>2016-06-19T05:08:57Z</time>
      </trkpt>
      <trkpt lat="47.85978" lon="7.12103">
        <ele>930</ele>
        <time>2016-06-19T05:09:04Z</time>
      </trkpt>
      <trkpt lat="47.85986" lon="7.12084">
        <ele>933</ele>
        <time>2016-06-19T05:09:14Z</time>
      </trkpt>
      <trkpt lat="47.85988" lon="7.12076">
        <ele>926</ele>
        <time>2016-06-19T05:09:17Z</time>
      </trkpt>
      <trkpt lat="47.85991" lon="7.1207">
        <ele>925</ele>
        <time>2016-06-19T05:09:21Z</time>
      </trkpt>
      <trkpt lat="47.86" lon="7.12053">
        <ele>933</ele>
        <time>2016-06-19T05:09:34Z</time>
      </trkpt>
      <trkpt lat="47.86008" lon="7.12044">
        <ele>932</ele>
        <time>2016-06-19T05:09:44Z</time>
      </trkpt>
      <trkpt lat="47.8602" lon="7.12032">
        <ele>930</ele>
        <time>2016-06-19T05:09:56Z</time>
      </trkpt>
      <trkpt lat="47.86025" lon="7.12009">
        <ele>929</ele>
        <time>2016-06-19T05:10:08Z</time>
      </trkpt>
      <trkpt lat="47.86033" lon="7.11993">
        <ele>921</ele>
        <time>2016-06-19T05:10:18Z</time>
      </trkpt>
      <trkpt lat="47.86039" lon="7.11983">
        <ele>921</ele>
        <time>2016-06-19T05:10:31Z</time>
      </trkpt>
      <trkpt lat="47.86043" lon="7.11986">
        <ele>921</ele>
        <time>2016-06-19T05:10:34Z</time>
      </trkpt>
      <trkpt lat="47.86058" lon="7.11996">
        <ele>923</ele>
        <time>2016-06-19T05:10:45Z</time>
      </trkpt>
      <trkpt lat="47.86061" lon="7.12001">
        <ele>930</ele>
        <time>2016-06-19T05:10:49Z</time>
      </trkpt>
      <trkpt lat="47.86072" lon="7.12021">
        <ele>931</ele>
        <time>2016-06-19T05:11:03Z</time>
      </trkpt>
      <trkpt lat="47.86074" lon="7.12035">
        <ele>932</ele>
        <time>2016-06-19T05:11:13Z</time>
      </trkpt>
      <trkpt lat="47.86079" lon="7.1205">
        <ele>933</ele>
        <time>2016-06-19T05:11:23Z</time>
      </trkpt>
      <trkpt lat="47.86086" lon="7.12071">
        <ele>930</ele>
        <time>2016-06-19T05:11:35Z</time>
      </trkpt>
      <trkpt lat="47.86087" lon="7.12077">
        <ele>933</ele>
        <time>2016-06-19T05:11:40Z</time>
      </trkpt>
      <trkpt lat="47.86096" lon="7.12097">
        <ele>936</ele>
        <time>2016-06-19T05:11:56Z</time>
      </trkpt>
      <trkpt lat="47.86106" lon="7.12116">
        <ele>937</ele>
        <time>2016-06-19T05:12:07Z</time>
      </trkpt>
      <trkpt lat="47.86121" lon="7.12136">
        <ele>937</ele>
        <time>2016-06-19T05:12:18Z</time>
      </trkpt>
      <trkpt lat="47.86131" lon="7.12155">
        <ele>937</ele>
        <time>2016-06-19T05:12:29Z</time>
      </trkpt>
      <trkpt lat="47.86142" lon="7.12172">
        <ele>947</ele>
        <time>2016-06-19T05:12:39Z</time>
      </trkpt>
      <trkpt lat="47.86146" lon="7.12178">
        <ele>946</ele>
        <time>2016-06-19T05:12:44Z</time>
      </trkpt>
      <trkpt lat="47.86157" lon="7.12191">
        <ele>947</ele>
        <time>2016-06-19T05:12:57Z</time>
      </trkpt>
      <trkpt lat="47.86165" lon="7.12208">
        <ele>950</ele>
        <time>2016-06-19T05:13:10Z</time>
      </trkpt>
      <trkpt lat="47.86177" lon="7.12223">
        <ele>934</ele>
        <time>2016-06-19T05:13:21Z</time>
      </trkpt>
      <trkpt lat="47.86182" lon="7.12227">
        <ele>934</ele>
        <time>2016-06-19T05:13:26Z</time>
      </trkpt>
      <trkpt lat="47.86193" lon="7.12241">
        <ele>933</ele>
        <time>2016-06-19T05:13:37Z</time>
      </trkpt>
      <trkpt lat="47.86202" lon="7.12248">
        <ele>930</ele>
        <time>2016-06-19T05:13:45Z</time>
      </trkpt>
      <trkpt lat="47.86206" lon="7.12253">
        <ele>942</ele>
        <time>2016-06-19T05:13:49Z</time>
      </trkpt>
      <trkpt lat="47.86211" lon="7.12257">
        <ele>940</ele>
        <time>2016-06-19T05:13:55Z</time>
      </trkpt>
      <trkpt lat="47.86224" lon="7.12271">
        <ele>938</ele>
        <time>2016-06-19T05:14:06Z</time>
      </trkpt>
      <trkpt lat="47.86234" lon="7.12279">
        <ele>938</ele>
        <time>2016-06-19T05:14:17Z</time>
      </trkpt>
      <trkpt lat="47.86242" lon="7.12284">
        <ele>937</ele>
        <time>2016-06-19T05:14:27Z</time>
      </trkpt>
      <trkpt lat="47.86251" lon="7.12291">
        <ele>918</ele>
        <time>2016-06-19T05:14:41Z</time>
      </trkpt>
      <trkpt lat="47.86255" lon="7.12295">
        <ele>919</ele>
        <time>2016-06-19T05:14:48Z</time>
      </trkpt>
      <trkpt lat="47.86261" lon="7.12298">
        <ele>919</ele>
        <time>2016-06-19T05:14:54Z</time>
      </trkpt>
      <trkpt lat="47.86277" lon="7.12299">
        <ele>917</ele>
        <time>2016-06-19T05:15:04Z</time>
      </trkpt>
      <trkpt lat="47.86282" lon="7.12299">
        <ele>916</ele>
        <time>2016-06-19T05:15:07Z</time>
      </trkpt>
      <trkpt lat="47.86297" lon="7.123">
        <ele>913</ele>
        <time>2016-06-19T05:15:20Z</time>
      </trkpt>
      <trkpt lat="47.86303" lon="7.12301">
        <ele>912</ele>
        <time>2016-06-19T05:15:25Z</time>
      </trkpt>
      <trkpt lat="47.86318" lon="7.12309">
        <ele>911</ele>
        <time>2016-06-19T05:15:36Z</time>
      </trkpt>
      <trkpt lat="47.86332" lon="7.12319">
        <ele>910</ele>
        <time>2016-06-19T05:15:47Z</time>
      </trkpt>
      <trkpt lat="47.86347" lon="7.12323">
        <ele>897</ele>
        <time>2016-06-19T05:15:59Z</time>
      </trkpt>
      <trkpt lat="47.86362" lon="7.12321">
        <ele>892</ele>
        <time>2016-06-19T05:16:12Z</time>
      </trkpt>
      <trkpt lat="47.86379" lon="7.12328">
        <ele>889</ele>
        <time>2016-06-19T05:16:24Z</time>
      </trkpt>
      <trkpt lat="47.8639" lon="7.1234">
        <ele>899</ele>
        <time>2016-06-19T05:16:36Z</time>
      </trkpt>
      <trkpt lat="47.86399" lon="7.12359">
        <ele>900</ele>
        <time>2016-06-19T05:16:47Z</time>
      </trkpt>
      <trkpt lat="47.86407" lon="7.12378">
        <ele>902</ele>
        <time>2016-06-19T05:16:58Z</time>
      </trkpt>
      <trkpt lat="47.8642" lon="7.12385">
        <ele>890</ele>
        <time>2016-06-19T05:17:09Z</time>
      </trkpt>
      <trkpt lat="47.86435" lon="7.12396">
        <ele>891</ele>
        <time>2016-06-19T05:17:21Z</time>
      </trkpt>
      <trkpt lat="47.86448" lon="7.1241">
        <ele>890</ele>
        <time>2016-06-19T05:17:34Z</time>
      </trkpt>
      <trkpt lat="47.86461" lon="7.12416">
        <ele>888</ele>
        <time>2016-06-19T05:17:46Z</time>
      </trkpt>
      <trkpt lat="47.86477" lon="7.12418">
        <ele>897</ele>
        <time>2016-06-19T05:17:58Z</time>
      </trkpt>
      <trkpt lat="47.86487" lon="7.12418">
        <ele>893</ele>
        <time>2016-06-19T05:18:09Z</time>
      </trkpt>
      <trkpt lat="47.86502" lon="7.12418">
        <ele>886</ele>
        <time>2016-06-19T05:18:22Z</time>
      </trkpt>
      <trkpt lat="47.86518" lon="7.12419">
        <ele>888</ele>
        <time>2016-06-19T05:18:34Z</time>
      </trkpt>
      <trkpt lat="47.86534" lon="7.12419">
        <ele>889</ele>
        <time>2016-06-19T05:18:46Z</time>
      </trkpt>
      <trkpt lat="47.86548" lon="7.1242">
        <ele>888</ele>
        <time>2016-06-19T05:18:57Z</time>
      </trkpt>
      <trkpt lat="47.86565" lon="7.12421">
        <ele>886</ele>
        <time>2016-06-19T05:19:10Z</time>
      </trkpt>
      <trkpt lat="47.86583" lon="7.1242">
        <ele>882</ele>
        <time>2016-06-19T05:19:23Z</time>
      </trkpt>
      <trkpt lat="47.86599" lon="7.12419">
        <ele>881</ele>
        <time>2016-06-19T05:19:35Z</time>
      </trkpt>
      <trkpt lat="47.86614" lon="7.12416">
        <ele>874</ele>
        <time>2016-06-19T05:19:46Z</time>
      </trkpt>
      <trkpt lat="47.86623" lon="7.12411">
        <ele>873</ele>
        <time>2016-06-19T05:19:54Z</time>
      </trkpt>
      <trkpt lat="47.86638" lon="7.1241">
        <ele>873</ele>
        <time>2016-06-19T05:20:06Z</time>
      </trkpt>
      <trkpt lat="47.86652" lon="7.12403">
        <ele>873</ele>
        <time>2016-06-19T05:20:19Z</time>
      </trkpt>
      <trkpt lat="47.86669" lon="7.12397">
        <ele>871</ele>
        <time>2016-06-19T05:20:30Z</time>
      </trkpt>
      <trkpt lat="47.86685" lon="7.12391">
        <ele>869</ele>
        <time>2016-06-19T05:20:42Z</time>
      </trkpt>
      <trkpt lat="47.86699" lon="7.12385">
        <ele>868</ele>
        <time>2016-06-19T05:20:54Z</time>
      </trkpt>
      <trkpt lat="47.86713" lon="7.12373">
        <ele>867</ele>
        <time>2016-06-19T05:21:06Z</time>
      </trkpt>
      <trkpt lat="47.86716" lon="7.12368">
        <ele>867</ele>
        <time>2016-06-19T05:21:11Z</time>
      </trkpt>
      <trkpt lat="47.86727" lon="7.12365">
        <ele>866</ele>
        <time>2016-06-19T05:21:26Z</time>
      </trkpt>
      <trkpt lat="47.86742" lon="7.12355">
        <ele>866</ele>
        <time>2016-06-19T05:21:39Z</time>
      </trkpt>
      <trkpt lat="47.86757" lon="7.12348">
        <ele>863</ele>
        <time>2016-06-19T05:21:52Z</time>
      </trkpt>
      <trkpt lat="47.86763" lon="7.12344">
        <ele>863</ele>
        <time>2016-06-19T05:21:59Z</time>
      </trkpt>
      <trkpt lat="47.86772" lon="7.12338">
        <ele>863</ele>
        <time>2016-06-19T05:22:10Z</time>
      </trkpt>
      <trkpt lat="47.86782" lon="7.12334">
        <ele>863</ele>
        <time>2016-06-19T05:22:23Z</time>
      </trkpt>
      <trkpt lat="47.86792" lon="7.12333">
        <ele>862</ele>
        <time>2016-06-19T05:22:33Z</time>
      </trkpt>
      <trkpt lat="47.86806" lon="7.12333">
        <ele>862</ele>
        <time>2016-06-19T05:22:52Z</time>
      </trkpt>
      <trkpt lat="47.86809" lon="7.12338">
        <ele>862</ele>
        <time>2016-06-19T05:22:56Z</time>
      </trkpt>
      <trkpt lat="47.86814" lon="7.12341">
        <ele>862</ele>
        <time>2016-06-19T05:23:14Z</time>
      </trkpt>
      <trkpt lat="47.86812" lon="7.12327">
        <ele>861</ele>
        <time>2016-06-19T05:23:26Z</time>
      </trkpt>
      <trkpt lat="47.8681" lon="7.12305">
        <ele>861</ele>
        <time>2016-06-19T05:23:39Z</time>
      </trkpt>
      <trkpt lat="47.86808" lon="7.12289">
        <ele>860</ele>
        <time>2016-06-19T05:23:50Z</time>
      </trkpt>
      <trkpt lat="47.86809" lon="7.12274">
        <ele>859</ele>
        <time>2016-06-19T05:23:58Z</time>
      </trkpt>
      <trkpt lat="47.86819" lon="7.12278">
        <ele>859</ele>
        <time>2016-06-19T05:24:10Z</time>
      </trkpt>
      <trkpt lat="47.8683" lon="7.12281">
        <ele>859</ele>
        <time>2016-06-19T05:24:20Z</time>
      </trkpt>
      <trkpt lat="47.86844" lon="7.12285">
        <ele>864</ele>
        <time>2016-06-19T05:24:33Z</time>
      </trkpt>
      <trkpt lat="47.86854" lon="7.12282">
        <ele>864</ele>
        <time>2016-06-19T05:24:44Z</time>
      </trkpt>
      <trkpt lat="47.86863" lon="7.12275">
        <ele>865</ele>
        <time>2016-06-19T05:24:54Z</time>
      </trkpt>
      <trkpt lat="47.86869" lon="7.12274">
        <ele>865</ele>
        <time>2016-06-19T05:24:58Z</time>
      </trkpt>
      <trkpt lat="47.86884" lon="7.12269">
        <ele>867</ele>
        <time>2016-06-19T05:25:11Z</time>
      </trkpt>
      <trkpt lat="47.86889" lon="7.12268">
        <ele>867</ele>
        <time>2016-06-19T05:25:22Z</time>
      </trkpt>
      <trkpt lat="47.869" lon="7.12269">
        <ele>868</ele>
        <time>2016-06-19T05:25:34Z</time>
      </trkpt>
      <trkpt lat="47.8691" lon="7.12271">
        <ele>868</ele>
        <time>2016-06-19T05:25:48Z</time>
      </trkpt>
      <trkpt lat="47.86919" lon="7.12277">
        <ele>874</ele>
        <time>2016-06-19T05:26:02Z</time>
      </trkpt>
      <trkpt lat="47.86932" lon="7.12288">
        <ele>876</ele>
        <time>2016-06-19T05:26:15Z</time>
      </trkpt>
      <trkpt lat="47.86941" lon="7.12294">
        <ele>876</ele>
        <time>2016-06-19T05:26:26Z</time>
      </trkpt>
      <trkpt lat="47.86948" lon="7.12302">
        <ele>877</ele>
        <time>2016-06-19T05:26:39Z</time>
      </trkpt>
      <trkpt lat="47.86962" lon="7.12314">
        <ele>878</ele>
        <time>2016-06-19T05:26:50Z</time>
      </trkpt>
      <trkpt lat="47.8697" lon="7.12323">
        <ele>879</ele>
        <time>2016-06-19T05:27:02Z</time>
      </trkpt>
      <trkpt lat="47.86977" lon="7.12332">
        <ele>881</ele>
        <time>2016-06-19T05:27:23Z</time>
      </trkpt>
      <trkpt lat="47.86986" lon="7.1234">
        <ele>887</ele>
        <time>2016-06-19T05:27:33Z</time>
      </trkpt>
      <trkpt lat="47.86992" lon="7.1235">
        <ele>888</ele>
        <time>2016-06-19T05:27:44Z</time>
      </trkpt>
      <trkpt lat="47.87004" lon="7.12365">
        <ele>884</ele>
        <time>2016-06-19T05:27:55Z</time>
      </trkpt>
      <trkpt lat="47.87016" lon="7.12378">
        <ele>884</ele>
        <time>2016-06-19T05:28:05Z</time>
      </trkpt>
      <trkpt lat="47.8702" lon="7.12382">
        <ele>884</ele>
        <time>2016-06-19T05:28:17Z</time>
      </trkpt>
      <trkpt lat="47.87024" lon="7.12399">
        <ele>886</ele>
        <time>2016-06-19T05:28:39Z</time>
      </trkpt>
      <trkpt lat="47.87025" lon="7.12406">
        <ele>886</ele>
        <time>2016-06-19T05:28:44Z</time>
      </trkpt>
      <trkpt lat="47.87031" lon="7.1243">
        <ele>891</ele>
        <time>2016-06-19T05:28:59Z</time>
      </trkpt>
      <trkpt lat="47.87035" lon="7.12444">
        <ele>891</ele>
        <time>2016-06-19T05:29:12Z</time>
      </trkpt>
      <trkpt lat="47.87037" lon="7.12458">
        <ele>891</ele>
        <time>2016-06-19T05:29:38Z</time>
      </trkpt>
      <trkpt lat="47.87057" lon="7.12477">
        <ele>889</ele>
        <time>2016-06-19T05:29:51Z</time>
      </trkpt>
      <trkpt lat="47.87063" lon="7.1249">
        <ele>888</ele>
        <time>2016-06-19T05:30:03Z</time>
      </trkpt>
      <trkpt lat="47.87068" lon="7.12502">
        <ele>888</ele>
        <time>2016-06-19T05:30:13Z</time>
      </trkpt>
      <trkpt lat="47.87072" lon="7.1251">
        <ele>888</ele>
        <time>2016-06-19T05:30:19Z</time>
      </trkpt>
      <trkpt lat="47.87083" lon="7.12527">
        <ele>888</ele>
        <time>2016-06-19T05:30:29Z</time>
      </trkpt>
      <trkpt lat="47.87091" lon="7.12538">
        <ele>874</ele>
        <time>2016-06-19T05:30:36Z</time>
      </trkpt>
      <trkpt lat="47.87095" lon="7.12541">
        <ele>874</ele>
        <time>2016-06-19T05:30:46Z</time>
      </trkpt>
      <trkpt lat="47.87105" lon="7.12549">
        <ele>873</ele>
        <time>2016-06-19T05:30:56Z</time>
      </trkpt>
      <trkpt lat="47.87107" lon="7.12556">
        <ele>873</ele>
        <time>2016-06-19T05:30:59Z</time>
      </trkpt>
      <trkpt lat="47.87115" lon="7.12573">
        <ele>872</ele>
        <time>2016-06-19T05:31:09Z</time>
      </trkpt>
      <trkpt lat="47.87126" lon="7.12586">
        <ele>871</ele>
        <time>2016-06-19T05:31:20Z</time>
      </trkpt>
      <trkpt lat="47.87135" lon="7.12603">
        <ele>869</ele>
        <time>2016-06-19T05:31:37Z</time>
      </trkpt>
      <trkpt lat="47.87149" lon="7.12622">
        <ele>869</ele>
        <time>2016-06-19T05:31:49Z</time>
      </trkpt>
      <trkpt lat="47.87151" lon="7.12636">
        <ele>869</ele>
        <time>2016-06-19T05:31:59Z</time>
      </trkpt>
      <trkpt lat="47.87155" lon="7.12643">
        <ele>869</ele>
        <time>2016-06-19T05:32:03Z</time>
      </trkpt>
      <trkpt lat="47.87161" lon="7.12656">
        <ele>868</ele>
        <time>2016-06-19T05:32:13Z</time>
      </trkpt>
      <trkpt lat="47.87166" lon="7.12668">
        <ele>866</ele>
        <time>2016-06-19T05:32:23Z</time>
      </trkpt>
      <trkpt lat="47.87176" lon="7.12688">
        <ele>863</ele>
        <time>2016-06-19T05:32:35Z</time>
      </trkpt>
      <trkpt lat="47.87187" lon="7.12704">
        <ele>862</ele>
        <time>2016-06-19T05:32:45Z</time>
      </trkpt>
      <trkpt lat="47.872" lon="7.12716">
        <ele>862</ele>
        <time>2016-06-19T05:32:56Z</time>
      </trkpt>
      <trkpt lat="47.87203" lon="7.12722">
        <ele>862</ele>
        <time>2016-06-19T05:33:04Z</time>
      </trkpt>
      <trkpt lat="47.87223" lon="7.1273">
        <ele>861</ele>
        <time>2016-06-19T05:33:14Z</time>
      </trkpt>
      <trkpt lat="47.87231" lon="7.12742">
        <ele>861</ele>
        <time>2016-06-19T05:33:26Z</time>
      </trkpt>
      <trkpt lat="47.87235" lon="7.12744">
        <ele>861</ele>
        <time>2016-06-19T05:33:36Z</time>
      </trkpt>
      <trkpt lat="47.87255" lon="7.12744">
        <ele>859</ele>
        <time>2016-06-19T05:33:51Z</time>
      </trkpt>
      <trkpt lat="47.87275" lon="7.1275">
        <ele>860</ele>
        <time>2016-06-19T05:34:03Z</time>
      </trkpt>
      <trkpt lat="47.87294" lon="7.12767">
        <ele>859</ele>
        <time>2016-06-19T05:34:15Z</time>
      </trkpt>
      <trkpt lat="47.87298" lon="7.12771">
        <ele>859</ele>
        <time>2016-06-19T05:34:19Z</time>
      </trkpt>
      <trkpt lat="47.87313" lon="7.1278">
        <ele>859</ele>
        <time>2016-06-19T05:34:31Z</time>
      </trkpt>
      <trkpt lat="47.87318" lon="7.12765">
        <ele>858</ele>
        <time>2016-06-19T05:34:45Z</time>
      </trkpt>
      <trkpt lat="47.87314" lon="7.12741">
        <ele>854</ele>
        <time>2016-06-19T05:34:58Z</time>
      </trkpt>
      <trkpt lat="47.87315" lon="7.12717">
        <ele>852</ele>
        <time>2016-06-19T05:35:10Z</time>
      </trkpt>
      <trkpt lat="47.87315" lon="7.12709">
        <ele>852</ele>
        <time>2016-06-19T05:35:15Z</time>
      </trkpt>
      <trkpt lat="47.87317" lon="7.12688">
        <ele>849</ele>
        <time>2016-06-19T05:35:28Z</time>
      </trkpt>
      <trkpt lat="47.87322" lon="7.12667">
        <ele>841</ele>
        <time>2016-06-19T05:35:38Z</time>
      </trkpt>
      <trkpt lat="47.87332" lon="7.1265">
        <ele>840</ele>
        <time>2016-06-19T05:35:51Z</time>
      </trkpt>
      <trkpt lat="47.87342" lon="7.12643">
        <ele>836</ele>
        <time>2016-06-19T05:36:01Z</time>
      </trkpt>
      <trkpt lat="47.87347" lon="7.1264">
        <ele>836</ele>
        <time>2016-06-19T05:36:05Z</time>
      </trkpt>
      <trkpt lat="47.87358" lon="7.12646">
        <ele>836</ele>
        <time>2016-06-19T05:36:13Z</time>
      </trkpt>
      <trkpt lat="47.87368" lon="7.12648">
        <ele>835</ele>
        <time>2016-06-19T05:36:18Z</time>
      </trkpt>
      <trkpt lat="47.87389" lon="7.12656">
        <ele>835</ele>
        <time>2016-06-19T05:36:30Z</time>
      </trkpt>
      <trkpt lat="47.87395" lon="7.12659">
        <ele>835</ele>
        <time>2016-06-19T05:36:33Z</time>
      </trkpt>
      <trkpt lat="47.87404" lon="7.1267">
        <ele>841</ele>
        <time>2016-06-19T05:36:45Z</time>
      </trkpt>
      <trkpt lat="47.87423" lon="7.12679">
        <ele>836</ele>
        <time>2016-06-19T05:37:01Z</time>
      </trkpt>
      <trkpt lat="47.87432" lon="7.1268">
        <ele>835</ele>
        <time>2016-06-19T05:37:12Z</time>
      </trkpt>
      <trkpt lat="47.87447" lon="7.12685">
        <ele>834</ele>
        <time>2016-06-19T05:37:25Z</time>
      </trkpt>
      <trkpt lat="47.87462" lon="7.12692">
        <ele>832</ele>
        <time>2016-06-19T05:37:39Z</time>
      </trkpt>
      <trkpt lat="47.87483" lon="7.12702">
        <ele>831</ele>
        <time>2016-06-19T05:37:49Z</time>
      </trkpt>
      <trkpt lat="47.87498" lon="7.1271">
        <ele>831</ele>
        <time>2016-06-19T05:38:00Z</time>
      </trkpt>
      <trkpt lat="47.87506" lon="7.12719">
        <ele>827</ele>
        <time>2016-06-19T05:38:16Z</time>
      </trkpt>
      <trkpt lat="47.8751" lon="7.12721">
        <ele>827</ele>
        <time>2016-06-19T05:39:10Z</time>
      </trkpt>
      <trkpt lat="47.87529" lon="7.12726">
        <ele>827</ele>
        <time>2016-06-19T05:39:21Z</time>
      </trkpt>
      <trkpt lat="47.87541" lon="7.12738">
        <ele>827</ele>
        <time>2016-06-19T05:39:33Z</time>
      </trkpt>
      <trkpt lat="47.87545" lon="7.12743">
        <ele>827</ele>
        <time>2016-06-19T05:39:37Z</time>
      </trkpt>
      <trkpt lat="47.87549" lon="7.12745">
        <ele>827</ele>
        <time>2016-06-19T05:39:41Z</time>
      </trkpt>
      <trkpt lat="47.87557" lon="7.12751">
        <ele>825</ele>
        <time>2016-06-19T05:40:38Z</time>
      </trkpt>
      <trkpt lat="47.87561" lon="7.12748">
        <ele>827</ele>
        <time>2016-06-19T05:41:00Z</time>
      </trkpt>
      <trkpt lat="47.87557" lon="7.12753">
        <ele>825</ele>
        <time>2016-06-19T06:00:01Z</time>
      </trkpt>
      <trkpt lat="47.87544" lon="7.12762">
        <ele>825</ele>
        <time>2016-06-19T06:00:21Z</time>
      </trkpt>
      <trkpt lat="47.87547" lon="7.12757">
        <ele>825</ele>
        <time>2016-06-19T06:04:26Z</time>
      </trkpt>
      <trkpt lat="47.87557" lon="7.12741">
        <ele>827</ele>
        <time>2016-06-19T06:04:39Z</time>
      </trkpt>
      <trkpt lat="47.87564" lon="7.12722">
        <ele>827</ele>
        <time>2016-06-19T06:04:52Z</time>
      </trkpt>
      <trkpt lat="47.87577" lon="7.12712">
        <ele>827</ele>
        <time>2016-06-19T06:05:08Z</time>
      </trkpt>
      <trkpt lat="47.87591" lon="7.12709">
        <ele>832</ele>
        <time>2016-06-19T06:05:23Z</time>
      </trkpt>
      <trkpt lat="47.87605" lon="7.12704">
        <ele>833</ele>
        <time>2016-06-19T06:05:36Z</time>
      </trkpt>
      <trkpt lat="47.87609" lon="7.12707">
        <ele>834</ele>
        <time>2016-06-19T06:05:42Z</time>
      </trkpt>
      <trkpt lat="47.87617" lon="7.12712">
        <ele>834</ele>
        <time>2016-06-19T06:05:52Z</time>
      </trkpt>
      <trkpt lat="47.87618" lon="7.12719">
        <ele>834</ele>
        <time>2016-06-19T06:05:55Z</time>
      </trkpt>
      <trkpt lat="47.87626" lon="7.1273">
        <ele>835</ele>
        <time>2016-06-19T06:06:08Z</time>
      </trkpt>
      <trkpt lat="47.87635" lon="7.12738">
        <ele>836</ele>
        <time>2016-06-19T06:06:17Z</time>
      </trkpt>
      <trkpt lat="47.87643" lon="7.12743">
        <ele>838</ele>
        <time>2016-06-19T06:06:29Z</time>
      </trkpt>
      <trkpt lat="47.87652" lon="7.12746">
        <ele>839</ele>
        <time>2016-06-19T06:06:41Z</time>
      </trkpt>
      <trkpt lat="47.87662" lon="7.12752">
        <ele>840</ele>
        <time>2016-06-19T06:06:55Z</time>
      </trkpt>
      <trkpt lat="47.87667" lon="7.12752">
        <ele>842</ele>
        <time>2016-06-19T06:07:04Z</time>
      </trkpt>
      <trkpt lat="47.87676" lon="7.12751">
        <ele>842</ele>
        <time>2016-06-19T06:07:17Z</time>
      </trkpt>
      <trkpt lat="47.87691" lon="7.12747">
        <ele>845</ele>
        <time>2016-06-19T06:07:30Z</time>
      </trkpt>
      <trkpt lat="47.87707" lon="7.12734">
        <ele>845</ele>
        <time>2016-06-19T06:07:42Z</time>
      </trkpt>
      <trkpt lat="47.87714" lon="7.12734">
        <ele>846</ele>
        <time>2016-06-19T06:07:45Z</time>
      </trkpt>
      <trkpt lat="47.87724" lon="7.1273">
        <ele>846</ele>
        <time>2016-06-19T06:07:53Z</time>
      </trkpt>
      <trkpt lat="47.87733" lon="7.12728">
        <ele>847</ele>
        <time>2016-06-19T06:08:06Z</time>
      </trkpt>
      <trkpt lat="47.87749" lon="7.1273">
        <ele>847</ele>
        <time>2016-06-19T06:08:23Z</time>
      </trkpt>
      <trkpt lat="47.87762" lon="7.12737">
        <ele>853</ele>
        <time>2016-06-19T06:08:41Z</time>
      </trkpt>
      <trkpt lat="47.87773" lon="7.1274">
        <ele>855</ele>
        <time>2016-06-19T06:08:52Z</time>
      </trkpt>
      <trkpt lat="47.87787" lon="7.12748">
        <ele>857</ele>
        <time>2016-06-19T06:09:04Z</time>
      </trkpt>
      <trkpt lat="47.87796" lon="7.12754">
        <ele>856</ele>
        <time>2016-06-19T06:09:16Z</time>
      </trkpt>
      <trkpt lat="47.8781" lon="7.12758">
        <ele>858</ele>
        <time>2016-06-19T06:09:31Z</time>
      </trkpt>
      <trkpt lat="47.87825" lon="7.12766">
        <ele>861</ele>
        <time>2016-06-19T06:09:41Z</time>
      </trkpt>
      <trkpt lat="47.87834" lon="7.12769">
        <ele>870</ele>
        <time>2016-06-19T06:09:53Z</time>
      </trkpt>
      <trkpt lat="47.87839" lon="7.12773">
        <ele>870</ele>
        <time>2016-06-19T06:10:00Z</time>
      </trkpt>
      <trkpt lat="47.87854" lon="7.12779">
        <ele>871</ele>
        <time>2016-06-19T06:10:11Z</time>
      </trkpt>
      <trkpt lat="47.87867" lon="7.12787">
        <ele>871</ele>
        <time>2016-06-19T06:10:24Z</time>
      </trkpt>
      <trkpt lat="47.87872" lon="7.12789">
        <ele>872</ele>
        <time>2016-06-19T06:10:30Z</time>
      </trkpt>
      <trkpt lat="47.87886" lon="7.12792">
        <ele>873</ele>
        <time>2016-06-19T06:10:44Z</time>
      </trkpt>
      <trkpt lat="47.87897" lon="7.12795">
        <ele>874</ele>
        <time>2016-06-19T06:10:54Z</time>
      </trkpt>
      <trkpt lat="47.87901" lon="7.128">
        <ele>875</ele>
        <time>2016-06-19T06:11:03Z</time>
      </trkpt>
      <trkpt lat="47.87906" lon="7.12803">
        <ele>875</ele>
        <time>2016-06-19T06:11:10Z</time>
      </trkpt>
      <trkpt lat="47.87915" lon="7.12811">
        <ele>876</ele>
        <time>2016-06-19T06:11:24Z</time>
      </trkpt>
      <trkpt lat="47.87928" lon="7.12822">
        <ele>884</ele>
        <time>2016-06-19T06:11:37Z</time>
      </trkpt>
      <trkpt lat="47.87937" lon="7.12832">
        <ele>884</ele>
        <time>2016-06-19T06:11:49Z</time>
      </trkpt>
      <trkpt lat="47.87944" lon="7.12839">
        <ele>884</ele>
        <time>2016-06-19T06:12:01Z</time>
      </trkpt>
      <trkpt lat="47.87952" lon="7.12851">
        <ele>885</ele>
        <time>2016-06-19T06:12:11Z</time>
      </trkpt>
      <trkpt lat="47.87965" lon="7.1286">
        <ele>887</ele>
        <time>2016-06-19T06:12:23Z</time>
      </trkpt>
      <trkpt lat="47.87969" lon="7.12865">
        <ele>887</ele>
        <time>2016-06-19T06:12:30Z</time>
      </trkpt>
      <trkpt lat="47.87974" lon="7.12866">
        <ele>887</ele>
        <time>2016-06-19T06:12:40Z</time>
      </trkpt>
      <trkpt lat="47.87986" lon="7.12872">
        <ele>888</ele>
        <time>2016-06-19T06:12:54Z</time>
      </trkpt>
      <trkpt lat="47.88006" lon="7.12889">
        <ele>899</ele>
        <time>2016-06-19T06:13:10Z</time>
      </trkpt>
      <trkpt lat="47.8802" lon="7.12899">
        <ele>899</ele>
        <time>2016-06-19T06:13:25Z</time>
      </trkpt>
      <trkpt lat="47.88033" lon="7.12905">
        <ele>900</ele>
        <time>2016-06-19T06:13:38Z</time>
      </trkpt>
      <trkpt lat="47.8805" lon="7.12908">
        <ele>901</ele>
        <time>2016-06-19T06:13:49Z</time>
      </trkpt>
      <trkpt lat="47.8806" lon="7.12909">
        <ele>902</ele>
        <time>2016-06-19T06:14:05Z</time>
      </trkpt>
      <trkpt lat="47.88076" lon="7.12905">
        <ele>904</ele>
        <time>2016-06-19T06:14:16Z</time>
      </trkpt>
      <trkpt lat="47.88085" lon="7.12901">
        <ele>907</ele>
        <time>2016-06-19T06:14:24Z</time>
      </trkpt>
      <trkpt lat="47.88102" lon="7.12885">
        <ele>908</ele>
        <time>2016-06-19T06:14:40Z</time>
      </trkpt>
      <trkpt lat="47.88115" lon="7.12871">
        <ele>907</ele>
        <time>2016-06-19T06:14:53Z</time>
      </trkpt>
      <trkpt lat="47.88119" lon="7.12867">
        <ele>907</ele>
        <time>2016-06-19T06:14:58Z</time>
      </trkpt>
      <trkpt lat="47.88131" lon="7.12853">
        <ele>907</ele>
        <time>2016-06-19T06:15:12Z</time>
      </trkpt>
      <trkpt lat="47.88135" lon="7.12847">
        <ele>907</ele>
        <time>2016-06-19T06:15:16Z</time>
      </trkpt>
      <trkpt lat="47.88144" lon="7.12848">
        <ele>908</ele>
        <time>2016-06-19T06:15:35Z</time>
      </trkpt>
      <trkpt lat="47.88158" lon="7.12853">
        <ele>908</ele>
        <time>2016-06-19T06:15:49Z</time>
      </trkpt>
      <trkpt lat="47.88167" lon="7.12859">
        <ele>913</ele>
        <time>2016-06-19T06:16:06Z</time>
      </trkpt>
      <trkpt lat="47.88183" lon="7.12865">
        <ele>914</ele>
        <time>2016-06-19T06:16:15Z</time>
      </trkpt>
      <trkpt lat="47.88194" lon="7.1287">
        <ele>915</ele>
        <time>2016-06-19T06:16:31Z</time>
      </trkpt>
      <trkpt lat="47.88209" lon="7.12877">
        <ele>916</ele>
        <time>2016-06-19T06:16:44Z</time>
      </trkpt>
      <trkpt lat="47.88219" lon="7.12879">
        <ele>917</ele>
        <time>2016-06-19T06:16:55Z</time>
      </trkpt>
      <trkpt lat="47.88234" lon="7.12891">
        <ele>920</ele>
        <time>2016-06-19T06:17:09Z</time>
      </trkpt>
      <trkpt lat="47.88248" lon="7.12901">
        <ele>924</ele>
        <time>2016-06-19T06:17:20Z</time>
      </trkpt>
      <trkpt lat="47.88254" lon="7.12904">
        <ele>927</ele>
        <time>2016-06-19T06:17:23Z</time>
      </trkpt>
      <trkpt lat="47.88258" lon="7.12905">
        <ele>927</ele>
        <time>2016-06-19T06:17:27Z</time>
      </trkpt>
      <trkpt lat="47.88268" lon="7.12907">
        <ele>926</ele>
        <time>2016-06-19T06:17:44Z</time>
      </trkpt>
      <trkpt lat="47.8828" lon="7.12911">
        <ele>926</ele>
        <time>2016-06-19T06:17:55Z</time>
      </trkpt>
      <trkpt lat="47.88284" lon="7.1291">
        <ele>926</ele>
        <time>2016-06-19T06:17:58Z</time>
      </trkpt>
      <trkpt lat="47.88299" lon="7.12923">
        <ele>938</ele>
        <time>2016-06-19T06:18:08Z</time>
      </trkpt>
      <trkpt lat="47.88303" lon="7.12926">
        <ele>938</ele>
        <time>2016-06-19T06:18:13Z</time>
      </trkpt>
      <trkpt lat="47.88312" lon="7.12933">
        <ele>939</ele>
        <time>2016-06-19T06:18:36Z</time>
      </trkpt>
      <trkpt lat="47.88325" lon="7.12944">
        <ele>940</ele>
        <time>2016-06-19T06:18:48Z</time>
      </trkpt>
      <trkpt lat="47.88345" lon="7.1295">
        <ele>946</ele>
        <time>2016-06-19T06:19:01Z</time>
      </trkpt>
      <trkpt lat="47.88355" lon="7.12953">
        <ele>947</ele>
        <time>2016-06-19T06:19:12Z</time>
      </trkpt>
      <trkpt lat="47.8836" lon="7.12953">
        <ele>947</ele>
        <time>2016-06-19T06:19:15Z</time>
      </trkpt>
      <trkpt lat="47.8837" lon="7.12954">
        <ele>948</ele>
        <time>2016-06-19T06:19:26Z</time>
      </trkpt>
      <trkpt lat="47.88387" lon="7.12956">
        <ele>949</ele>
        <time>2016-06-19T06:19:39Z</time>
      </trkpt>
      <trkpt lat="47.884" lon="7.12961">
        <ele>951</ele>
        <time>2016-06-19T06:19:53Z</time>
      </trkpt>
      <trkpt lat="47.88406" lon="7.12961">
        <ele>951</ele>
        <time>2016-06-19T06:20:00Z</time>
      </trkpt>
      <trkpt lat="47.88427" lon="7.12952">
        <ele>960</ele>
        <time>2016-06-19T06:20:15Z</time>
      </trkpt>
      <trkpt lat="47.88436" lon="7.12945">
        <ele>959</ele>
        <time>2016-06-19T06:20:25Z</time>
      </trkpt>
      <trkpt lat="47.88446" lon="7.12937">
        <ele>960</ele>
        <time>2016-06-19T06:20:35Z</time>
      </trkpt>
      <trkpt lat="47.88457" lon="7.12932">
        <ele>962</ele>
        <time>2016-06-19T06:20:47Z</time>
      </trkpt>
      <trkpt lat="47.8847" lon="7.1292">
        <ele>963</ele>
        <time>2016-06-19T06:20:58Z</time>
      </trkpt>
      <trkpt lat="47.88487" lon="7.12904">
        <ele>955</ele>
        <time>2016-06-19T06:21:11Z</time>
      </trkpt>
      <trkpt lat="47.88498" lon="7.12893">
        <ele>953</ele>
        <time>2016-06-19T06:21:21Z</time>
      </trkpt>
      <trkpt lat="47.88508" lon="7.12889">
        <ele>962</ele>
        <time>2016-06-19T06:21:33Z</time>
      </trkpt>
      <trkpt lat="47.88517" lon="7.12885">
        <ele>962</ele>
        <time>2016-06-19T06:21:43Z</time>
      </trkpt>
      <trkpt lat="47.88528" lon="7.1288">
        <ele>961</ele>
        <time>2016-06-19T06:21:56Z</time>
      </trkpt>
      <trkpt lat="47.88544" lon="7.12875">
        <ele>962</ele>
        <time>2016-06-19T06:22:07Z</time>
      </trkpt>
      <trkpt lat="47.88555" lon="7.12868">
        <ele>961</ele>
        <time>2016-06-19T06:22:17Z</time>
      </trkpt>
      <trkpt lat="47.88564" lon="7.12863">
        <ele>961</ele>
        <time>2016-06-19T06:22:24Z</time>
      </trkpt>
      <trkpt lat="47.88574" lon="7.12859">
        <ele>960</ele>
        <time>2016-06-19T06:22:38Z</time>
      </trkpt>
      <trkpt lat="47.88588" lon="7.12855">
        <ele>961</ele>
        <time>2016-06-19T06:22:48Z</time>
      </trkpt>
      <trkpt lat="47.88594" lon="7.12854">
        <ele>961</ele>
        <time>2016-06-19T06:22:50Z</time>
      </trkpt>
      <trkpt lat="47.88609" lon="7.1285">
        <ele>961</ele>
        <time>2016-06-19T06:23:02Z</time>
      </trkpt>
      <trkpt lat="47.88626" lon="7.12845">
        <ele>961</ele>
        <time>2016-06-19T06:23:12Z</time>
      </trkpt>
      <trkpt lat="47.88631" lon="7.12842">
        <ele>961</ele>
        <time>2016-06-19T06:23:15Z</time>
      </trkpt>
      <trkpt lat="47.88635" lon="7.1284">
        <ele>961</ele>
        <time>2016-06-19T06:23:18Z</time>
      </trkpt>
      <trkpt lat="47.88649" lon="7.12827">
        <ele>953</ele>
        <time>2016-06-19T06:23:30Z</time>
      </trkpt>
      <trkpt lat="47.88663" lon="7.12819">
        <ele>953</ele>
        <time>2016-06-19T06:23:42Z</time>
      </trkpt>
      <trkpt lat="47.88675" lon="7.1281">
        <ele>954</ele>
        <time>2016-06-19T06:23:58Z</time>
      </trkpt>
      <trkpt lat="47.88677" lon="7.12804">
        <ele>953</ele>
        <time>2016-06-19T06:24:12Z</time>
      </trkpt>
      <trkpt lat="47.88672" lon="7.12791">
        <ele>953</ele>
        <time>2016-06-19T06:24:27Z</time>
      </trkpt>
      <trkpt lat="47.88671" lon="7.12788">
        <ele>952</ele>
        <time>2016-06-19T06:24:57Z</time>
      </trkpt>
      <trkpt lat="47.88676" lon="7.128">
        <ele>953</ele>
        <time>2016-06-19T06:25:07Z</time>
      </trkpt>
      <trkpt lat="47.88682" lon="7.12799">
        <ele>953</ele>
        <time>2016-06-19T06:25:20Z</time>
      </trkpt>
      <trkpt lat="47.88689" lon="7.12779">
        <ele>952</ele>
        <time>2016-06-19T06:25:33Z</time>
      </trkpt>
      <trkpt lat="47.88695" lon="7.12765">
        <ele>952</ele>
        <time>2016-06-19T06:25:42Z</time>
      </trkpt>
      <trkpt lat="47.88703" lon="7.12749">
        <ele>956</ele>
        <time>2016-06-19T06:25:55Z</time>
      </trkpt>
      <trkpt lat="47.88708" lon="7.12744">
        <ele>956</ele>
        <time>2016-06-19T06:25:59Z</time>
      </trkpt>
      <trkpt lat="47.88716" lon="7.12732">
        <ele>957</ele>
        <time>2016-06-19T06:26:10Z</time>
      </trkpt>
      <trkpt lat="47.88716" lon="7.12719">
        <ele>958</ele>
        <time>2016-06-19T06:26:21Z</time>
      </trkpt>
      <trkpt lat="47.88722" lon="7.12708">
        <ele>959</ele>
        <time>2016-06-19T06:26:31Z</time>
      </trkpt>
      <trkpt lat="47.8873" lon="7.12699">
        <ele>961</ele>
        <time>2016-06-19T06:26:41Z</time>
      </trkpt>
      <trkpt lat="47.88733" lon="7.12691">
        <ele>962</ele>
        <time>2016-06-19T06:26:47Z</time>
      </trkpt>
      <trkpt lat="47.8874" lon="7.12673">
        <ele>966</ele>
        <time>2016-06-19T06:26:57Z</time>
      </trkpt>
      <trkpt lat="47.88748" lon="7.12662">
        <ele>971</ele>
        <time>2016-06-19T06:27:07Z</time>
      </trkpt>
      <trkpt lat="47.88755" lon="7.12653">
        <ele>973</ele>
        <time>2016-06-19T06:27:19Z</time>
      </trkpt>
      <trkpt lat="47.88764" lon="7.12644">
        <ele>973</ele>
        <time>2016-06-19T06:27:38Z</time>
      </trkpt>
      <trkpt lat="47.88778" lon="7.12632">
        <ele>974</ele>
        <time>2016-06-19T06:27:55Z</time>
      </trkpt>
      <trkpt lat="47.88782" lon="7.1263">
        <ele>974</ele>
        <time>2016-06-19T06:27:58Z</time>
      </trkpt>
      <trkpt lat="47.88796" lon="7.12623">
        <ele>974</ele>
        <time>2016-06-19T06:28:09Z</time>
      </trkpt>
      <trkpt lat="47.8881" lon="7.12612">
        <ele>975</ele>
        <time>2016-06-19T06:28:21Z</time>
      </trkpt>
      <trkpt lat="47.88814" lon="7.12608">
        <ele>976</ele>
        <time>2016-06-19T06:28:25Z</time>
      </trkpt>
      <trkpt lat="47.88822" lon="7.12588">
        <ele>978</ele>
        <time>2016-06-19T06:28:36Z</time>
      </trkpt>
      <trkpt lat="47.8883" lon="7.12577">
        <ele>984</ele>
        <time>2016-06-19T06:28:47Z</time>
      </trkpt>
      <trkpt lat="47.88833" lon="7.12572">
        <ele>985</ele>
        <time>2016-06-19T06:28:52Z</time>
      </trkpt>
      <trkpt lat="47.88826" lon="7.12565">
        <ele>987</ele>
        <time>2016-06-19T06:29:14Z</time>
      </trkpt>
      <trkpt lat="47.88804" lon="7.12567">
        <ele>989</ele>
        <time>2016-06-19T06:29:28Z</time>
      </trkpt>
      <trkpt lat="47.88794" lon="7.12561">
        <ele>990</ele>
        <time>2016-06-19T06:29:39Z</time>
      </trkpt>
      <trkpt lat="47.88785" lon="7.12555">
        <ele>991</ele>
        <time>2016-06-19T06:29:50Z</time>
      </trkpt>
      <trkpt lat="47.88777" lon="7.12547">
        <ele>992</ele>
        <time>2016-06-19T06:30:03Z</time>
      </trkpt>
      <trkpt lat="47.88775" lon="7.12532">
        <ele>994</ele>
        <time>2016-06-19T06:30:23Z</time>
      </trkpt>
      <trkpt lat="47.8876" lon="7.12513">
        <ele>997</ele>
        <time>2016-06-19T06:30:36Z</time>
      </trkpt>
      <trkpt lat="47.88753" lon="7.12498">
        <ele>1003</ele>
        <time>2016-06-19T06:30:47Z</time>
      </trkpt>
      <trkpt lat="47.8875" lon="7.12493">
        <ele>1003</ele>
        <time>2016-06-19T06:30:54Z</time>
      </trkpt>
      <trkpt lat="47.88753" lon="7.12488">
        <ele>1004</ele>
        <time>2016-06-19T06:31:11Z</time>
      </trkpt>
      <trkpt lat="47.88767" lon="7.12477">
        <ele>1006</ele>
        <time>2016-06-19T06:31:21Z</time>
      </trkpt>
      <trkpt lat="47.88776" lon="7.12474">
        <ele>1006</ele>
        <time>2016-06-19T06:31:32Z</time>
      </trkpt>
      <trkpt lat="47.88788" lon="7.12456">
        <ele>1007</ele>
        <time>2016-06-19T06:31:42Z</time>
      </trkpt>
      <trkpt lat="47.88792" lon="7.12452">
        <ele>1008</ele>
        <time>2016-06-19T06:31:46Z</time>
      </trkpt>
      <trkpt lat="47.88798" lon="7.12439">
        <ele>1008</ele>
        <time>2016-06-19T06:31:56Z</time>
      </trkpt>
      <trkpt lat="47.88804" lon="7.12429">
        <ele>1009</ele>
        <time>2016-06-19T06:32:09Z</time>
      </trkpt>
      <trkpt lat="47.8881" lon="7.12414">
        <ele>1016</ele>
        <time>2016-06-19T06:32:20Z</time>
      </trkpt>
      <trkpt lat="47.8881" lon="7.12406">
        <ele>1017</ele>
        <time>2016-06-19T06:32:24Z</time>
      </trkpt>
      <trkpt lat="47.88814" lon="7.12401">
        <ele>1017</ele>
        <time>2016-06-19T06:32:34Z</time>
      </trkpt>
      <trkpt lat="47.88814" lon="7.12388">
        <ele>1018</ele>
        <time>2016-06-19T06:32:45Z</time>
      </trkpt>
      <trkpt lat="47.88816" lon="7.12372">
        <ele>1020</ele>
        <time>2016-06-19T06:32:55Z</time>
      </trkpt>
      <trkpt lat="47.88817" lon="7.12355">
        <ele>1021</ele>
        <time>2016-06-19T06:33:07Z</time>
      </trkpt>
      <trkpt lat="47.88828" lon="7.12333">
        <ele>1022</ele>
        <time>2016-06-19T06:33:17Z</time>
      </trkpt>
      <trkpt lat="47.88832" lon="7.1232">
        <ele>1027</ele>
        <time>2016-06-19T06:33:23Z</time>
      </trkpt>
      <trkpt lat="47.88832" lon="7.12313">
        <ele>1028</ele>
        <time>2016-06-19T06:33:27Z</time>
      </trkpt>
      <trkpt lat="47.88835" lon="7.12297">
        <ele>1018</ele>
        <time>2016-06-19T06:33:43Z</time>
      </trkpt>
      <trkpt lat="47.88835" lon="7.12283">
        <ele>1019</ele>
        <time>2016-06-19T06:33:53Z</time>
      </trkpt>
      <trkpt lat="47.88838" lon="7.12276">
        <ele>1020</ele>
        <time>2016-06-19T06:33:55Z</time>
      </trkpt>
      <trkpt lat="47.88842" lon="7.12255">
        <ele>1026</ele>
        <time>2016-06-19T06:34:07Z</time>
      </trkpt>
      <trkpt lat="47.88843" lon="7.1224">
        <ele>1032</ele>
        <time>2016-06-19T06:34:18Z</time>
      </trkpt>
      <trkpt lat="47.88847" lon="7.1222">
        <ele>1032</ele>
        <time>2016-06-19T06:34:29Z</time>
      </trkpt>
      <trkpt lat="47.88853" lon="7.12199">
        <ele>1034</ele>
        <time>2016-06-19T06:34:40Z</time>
      </trkpt>
      <trkpt lat="47.88866" lon="7.12181">
        <ele>1035</ele>
        <time>2016-06-19T06:34:52Z</time>
      </trkpt>
      <trkpt lat="47.88868" lon="7.12175">
        <ele>1035</ele>
        <time>2016-06-19T06:34:56Z</time>
      </trkpt>
      <trkpt lat="47.88874" lon="7.12163">
        <ele>1047</ele>
        <time>2016-06-19T06:35:11Z</time>
      </trkpt>
      <trkpt lat="47.88883" lon="7.12152">
        <ele>1046</ele>
        <time>2016-06-19T06:35:23Z</time>
      </trkpt>
      <trkpt lat="47.88892" lon="7.12133">
        <ele>1047</ele>
        <time>2016-06-19T06:35:34Z</time>
      </trkpt>
      <trkpt lat="47.889" lon="7.12124">
        <ele>1048</ele>
        <time>2016-06-19T06:35:45Z</time>
      </trkpt>
      <trkpt lat="47.88907" lon="7.12114">
        <ele>1050</ele>
        <time>2016-06-19T06:35:58Z</time>
      </trkpt>
      <trkpt lat="47.88911" lon="7.12109">
        <ele>1050</ele>
        <time>2016-06-19T06:36:06Z</time>
      </trkpt>
      <trkpt lat="47.8892" lon="7.12102">
        <ele>1045</ele>
        <time>2016-06-19T06:36:16Z</time>
      </trkpt>
      <trkpt lat="47.88934" lon="7.12092">
        <ele>1045</ele>
        <time>2016-06-19T06:36:28Z</time>
      </trkpt>
      <trkpt lat="47.88942" lon="7.12083">
        <ele>1044</ele>
        <time>2016-06-19T06:36:38Z</time>
      </trkpt>
      <trkpt lat="47.88949" lon="7.12074">
        <ele>1056</ele>
        <time>2016-06-19T06:36:48Z</time>
      </trkpt>
      <trkpt lat="47.88959" lon="7.12059">
        <ele>1056</ele>
        <time>2016-06-19T06:36:59Z</time>
      </trkpt>
      <trkpt lat="47.88973" lon="7.12048">
        <ele>1056</ele>
        <time>2016-06-19T06:37:14Z</time>
      </trkpt>
      <trkpt lat="47.8898" lon="7.12039">
        <ele>1057</ele>
        <time>2016-06-19T06:37:24Z</time>
      </trkpt>
      <trkpt lat="47.88989" lon="7.12027">
        <ele>1058</ele>
        <time>2016-06-19T06:37:35Z</time>
      </trkpt>
      <trkpt lat="47.88994" lon="7.12025">
        <ele>1058</ele>
        <time>2016-06-19T06:37:38Z</time>
      </trkpt>
      <trkpt lat="47.88999" lon="7.12011">
        <ele>1060</ele>
        <time>2016-06-19T06:37:48Z</time>
      </trkpt>
      <trkpt lat="47.88999" lon="7.12003">
        <ele>1061</ele>
        <time>2016-06-19T06:37:59Z</time>
      </trkpt>
      <trkpt lat="47.8901" lon="7.11988">
        <ele>1064</ele>
        <time>2016-06-19T06:38:13Z</time>
      </trkpt>
      <trkpt lat="47.89019" lon="7.1198">
        <ele>1066</ele>
        <time>2016-06-19T06:38:23Z</time>
      </trkpt>
      <trkpt lat="47.89028" lon="7.11973">
        <ele>1066</ele>
        <time>2016-06-19T06:38:34Z</time>
      </trkpt>
      <trkpt lat="47.89038" lon="7.11965">
        <ele>1067</ele>
        <time>2016-06-19T06:38:49Z</time>
      </trkpt>
      <trkpt lat="47.89049" lon="7.11951">
        <ele>1067</ele>
        <time>2016-06-19T06:39:01Z</time>
      </trkpt>
      <trkpt lat="47.89058" lon="7.11945">
        <ele>1068</ele>
        <time>2016-06-19T06:39:12Z</time>
      </trkpt>
      <trkpt lat="47.89071" lon="7.11933">
        <ele>1068</ele>
        <time>2016-06-19T06:39:25Z</time>
      </trkpt>
      <trkpt lat="47.89071" lon="7.11925">
        <ele>1069</ele>
        <time>2016-06-19T06:39:33Z</time>
      </trkpt>
      <trkpt lat="47.89078" lon="7.11913">
        <ele>1073</ele>
        <time>2016-06-19T06:39:43Z</time>
      </trkpt>
      <trkpt lat="47.89083" lon="7.11901">
        <ele>1073</ele>
        <time>2016-06-19T06:39:54Z</time>
      </trkpt>
      <trkpt lat="47.89095" lon="7.11887">
        <ele>1075</ele>
        <time>2016-06-19T06:40:06Z</time>
      </trkpt>
      <trkpt lat="47.89104" lon="7.11872">
        <ele>1076</ele>
        <time>2016-06-19T06:40:20Z</time>
      </trkpt>
      <trkpt lat="47.89116" lon="7.11856">
        <ele>1077</ele>
        <time>2016-06-19T06:40:33Z</time>
      </trkpt>
      <trkpt lat="47.89127" lon="7.11842">
        <ele>1077</ele>
        <time>2016-06-19T06:40:46Z</time>
      </trkpt>
      <trkpt lat="47.89139" lon="7.11828">
        <ele>1083</ele>
        <time>2016-06-19T06:41:00Z</time>
      </trkpt>
      <trkpt lat="47.89145" lon="7.11809">
        <ele>1084</ele>
        <time>2016-06-19T06:41:12Z</time>
      </trkpt>
      <trkpt lat="47.89148" lon="7.11786">
        <ele>1086</ele>
        <time>2016-06-19T06:41:26Z</time>
      </trkpt>
      <trkpt lat="47.89151" lon="7.11773">
        <ele>1087</ele>
        <time>2016-06-19T06:41:37Z</time>
      </trkpt>
      <trkpt lat="47.89158" lon="7.1176">
        <ele>1088</ele>
        <time>2016-06-19T06:41:47Z</time>
      </trkpt>
      <trkpt lat="47.89162" lon="7.11746">
        <ele>1092</ele>
        <time>2016-06-19T06:41:57Z</time>
      </trkpt>
      <trkpt lat="47.89171" lon="7.11728">
        <ele>1094</ele>
        <time>2016-06-19T06:42:11Z</time>
      </trkpt>
      <trkpt lat="47.89177" lon="7.11713">
        <ele>1096</ele>
        <time>2016-06-19T06:42:25Z</time>
      </trkpt>
      <trkpt lat="47.89182" lon="7.11703">
        <ele>1097</ele>
        <time>2016-06-19T06:42:39Z</time>
      </trkpt>
      <trkpt lat="47.89189" lon="7.11693">
        <ele>1098</ele>
        <time>2016-06-19T06:42:50Z</time>
      </trkpt>
      <trkpt lat="47.89195" lon="7.11679">
        <ele>1099</ele>
        <time>2016-06-19T06:43:01Z</time>
      </trkpt>
      <trkpt lat="47.89197" lon="7.11664">
        <ele>1106</ele>
        <time>2016-06-19T06:43:11Z</time>
      </trkpt>
      <trkpt lat="47.89199" lon="7.1165">
        <ele>1106</ele>
        <time>2016-06-19T06:43:22Z</time>
      </trkpt>
      <trkpt lat="47.89203" lon="7.11645">
        <ele>1107</ele>
        <time>2016-06-19T06:43:32Z</time>
      </trkpt>
      <trkpt lat="47.89211" lon="7.11637">
        <ele>1107</ele>
        <time>2016-06-19T06:43:46Z</time>
      </trkpt>
      <trkpt lat="47.89219" lon="7.11626">
        <ele>1108</ele>
        <time>2016-06-19T06:43:57Z</time>
      </trkpt>
      <trkpt lat="47.89228" lon="7.11622">
        <ele>1108</ele>
        <time>2016-06-19T06:44:07Z</time>
      </trkpt>
      <trkpt lat="47.89236" lon="7.1161">
        <ele>1109</ele>
        <time>2016-06-19T06:44:19Z</time>
      </trkpt>
      <trkpt lat="47.89243" lon="7.116">
        <ele>1110</ele>
        <time>2016-06-19T06:44:31Z</time>
      </trkpt>
      <trkpt lat="47.8925" lon="7.11588">
        <ele>1112</ele>
        <time>2016-06-19T06:44:42Z</time>
      </trkpt>
      <trkpt lat="47.89258" lon="7.1158">
        <ele>1116</ele>
        <time>2016-06-19T06:44:52Z</time>
      </trkpt>
      <trkpt lat="47.89267" lon="7.11573">
        <ele>1119</ele>
        <time>2016-06-19T06:45:03Z</time>
      </trkpt>
      <trkpt lat="47.89276" lon="7.11568">
        <ele>1121</ele>
        <time>2016-06-19T06:45:14Z</time>
      </trkpt>
      <trkpt lat="47.89281" lon="7.11565">
        <ele>1121</ele>
        <time>2016-06-19T06:45:23Z</time>
      </trkpt>
      <trkpt lat="47.89291" lon="7.1155">
        <ele>1123</ele>
        <time>2016-06-19T06:45:36Z</time>
      </trkpt>
      <trkpt lat="47.89299" lon="7.11539">
        <ele>1125</ele>
        <time>2016-06-19T06:45:47Z</time>
      </trkpt>
      <trkpt lat="47.89302" lon="7.11534">
        <ele>1125</ele>
        <time>2016-06-19T06:45:54Z</time>
      </trkpt>
      <trkpt lat="47.89309" lon="7.11525">
        <ele>1127</ele>
        <time>2016-06-19T06:46:07Z</time>
      </trkpt>
      <trkpt lat="47.89317" lon="7.11515">
        <ele>1129</ele>
        <time>2016-06-19T06:46:17Z</time>
      </trkpt>
      <trkpt lat="47.89323" lon="7.11504">
        <ele>1132</ele>
        <time>2016-06-19T06:46:29Z</time>
      </trkpt>
      <trkpt lat="47.89327" lon="7.11492">
        <ele>1137</ele>
        <time>2016-06-19T06:46:44Z</time>
      </trkpt>
      <trkpt lat="47.89331" lon="7.11479">
        <ele>1139</ele>
        <time>2016-06-19T06:46:58Z</time>
      </trkpt>
      <trkpt lat="47.89338" lon="7.1147">
        <ele>1141</ele>
        <time>2016-06-19T06:47:11Z</time>
      </trkpt>
      <trkpt lat="47.89344" lon="7.1146">
        <ele>1142</ele>
        <time>2016-06-19T06:47:23Z</time>
      </trkpt>
      <trkpt lat="47.89349" lon="7.11448">
        <ele>1143</ele>
        <time>2016-06-19T06:47:37Z</time>
      </trkpt>
      <trkpt lat="47.89356" lon="7.11437">
        <ele>1144</ele>
        <time>2016-06-19T06:47:49Z</time>
      </trkpt>
      <trkpt lat="47.89362" lon="7.11426">
        <ele>1144</ele>
        <time>2016-06-19T06:48:00Z</time>
      </trkpt>
      <trkpt lat="47.89369" lon="7.11416">
        <ele>1153</ele>
        <time>2016-06-19T06:48:10Z</time>
      </trkpt>
      <trkpt lat="47.89377" lon="7.11407">
        <ele>1153</ele>
        <time>2016-06-19T06:48:20Z</time>
      </trkpt>
      <trkpt lat="47.89385" lon="7.11397">
        <ele>1154</ele>
        <time>2016-06-19T06:48:31Z</time>
      </trkpt>
      <trkpt lat="47.89392" lon="7.11388">
        <ele>1154</ele>
        <time>2016-06-19T06:48:41Z</time>
      </trkpt>
      <trkpt lat="47.89404" lon="7.11377">
        <ele>1155</ele>
        <time>2016-06-19T06:48:55Z</time>
      </trkpt>
      <trkpt lat="47.89416" lon="7.11364">
        <ele>1157</ele>
        <time>2016-06-19T06:49:08Z</time>
      </trkpt>
      <trkpt lat="47.89424" lon="7.11354">
        <ele>1154</ele>
        <time>2016-06-19T06:49:18Z</time>
      </trkpt>
      <trkpt lat="47.89434" lon="7.11339">
        <ele>1155</ele>
        <time>2016-06-19T06:49:31Z</time>
      </trkpt>
      <trkpt lat="47.89445" lon="7.11323">
        <ele>1162</ele>
        <time>2016-06-19T06:49:45Z</time>
      </trkpt>
      <trkpt lat="47.89452" lon="7.11304">
        <ele>1162</ele>
        <time>2016-06-19T06:49:59Z</time>
      </trkpt>
      <trkpt lat="47.89461" lon="7.11286">
        <ele>1163</ele>
        <time>2016-06-19T06:50:14Z</time>
      </trkpt>
      <trkpt lat="47.89468" lon="7.11266">
        <ele>1164</ele>
        <time>2016-06-19T06:50:27Z</time>
      </trkpt>
      <trkpt lat="47.89473" lon="7.11253">
        <ele>1164</ele>
        <time>2016-06-19T06:50:37Z</time>
      </trkpt>
      <trkpt lat="47.89477" lon="7.11241">
        <ele>1171</ele>
        <time>2016-06-19T06:50:47Z</time>
      </trkpt>
      <trkpt lat="47.89481" lon="7.11235">
        <ele>1171</ele>
        <time>2016-06-19T06:50:51Z</time>
      </trkpt>
      <trkpt lat="47.89487" lon="7.11216">
        <ele>1174</ele>
        <time>2016-06-19T06:51:03Z</time>
      </trkpt>
      <trkpt lat="47.89494" lon="7.11197">
        <ele>1175</ele>
        <time>2016-06-19T06:51:15Z</time>
      </trkpt>
      <trkpt lat="47.89498" lon="7.11183">
        <ele>1176</ele>
        <time>2016-06-19T06:51:25Z</time>
      </trkpt>
      <trkpt lat="47.89508" lon="7.11166">
        <ele>1175</ele>
        <time>2016-06-19T06:51:38Z</time>
      </trkpt>
      <trkpt lat="47.89515" lon="7.11155">
        <ele>1175</ele>
        <time>2016-06-19T06:51:48Z</time>
      </trkpt>
      <trkpt lat="47.89522" lon="7.11145">
        <ele>1176</ele>
        <time>2016-06-19T06:51:58Z</time>
      </trkpt>
      <trkpt lat="47.89532" lon="7.11129">
        <ele>1177</ele>
        <time>2016-06-19T06:52:13Z</time>
      </trkpt>
      <trkpt lat="47.89536" lon="7.11123">
        <ele>1177</ele>
        <time>2016-06-19T06:52:19Z</time>
      </trkpt>
      <trkpt lat="47.89543" lon="7.11111">
        <ele>1178</ele>
        <time>2016-06-19T06:52:32Z</time>
      </trkpt>
      <trkpt lat="47.89547" lon="7.11105">
        <ele>1178</ele>
        <time>2016-06-19T06:52:36Z</time>
      </trkpt>
      <trkpt lat="47.89554" lon="7.11088">
        <ele>1179</ele>
        <time>2016-06-19T06:52:48Z</time>
      </trkpt>
      <trkpt lat="47.89561" lon="7.11078">
        <ele>1188</ele>
        <time>2016-06-19T06:52:58Z</time>
      </trkpt>
      <trkpt lat="47.89567" lon="7.11062">
        <ele>1189</ele>
        <time>2016-06-19T06:53:06Z</time>
      </trkpt>
      <trkpt lat="47.89571" lon="7.11047">
        <ele>1191</ele>
        <time>2016-06-19T06:53:18Z</time>
      </trkpt>
      <trkpt lat="47.89581" lon="7.11028">
        <ele>1193</ele>
        <time>2016-06-19T06:53:32Z</time>
      </trkpt>
      <trkpt lat="47.89589" lon="7.11017">
        <ele>1187</ele>
        <time>2016-06-19T06:53:42Z</time>
      </trkpt>
      <trkpt lat="47.89591" lon="7.11011">
        <ele>1188</ele>
        <time>2016-06-19T06:53:45Z</time>
      </trkpt>
      <trkpt lat="47.89594" lon="7.11005">
        <ele>1189</ele>
        <time>2016-06-19T06:53:53Z</time>
      </trkpt>
      <trkpt lat="47.89606" lon="7.10984">
        <ele>1195</ele>
        <time>2016-06-19T06:54:06Z</time>
      </trkpt>
      <trkpt lat="47.89608" lon="7.10977">
        <ele>1195</ele>
        <time>2016-06-19T06:54:11Z</time>
      </trkpt>
      <trkpt lat="47.89615" lon="7.10967">
        <ele>1195</ele>
        <time>2016-06-19T06:54:22Z</time>
      </trkpt>
      <trkpt lat="47.89622" lon="7.10957">
        <ele>1196</ele>
        <time>2016-06-19T06:54:32Z</time>
      </trkpt>
      <trkpt lat="47.89632" lon="7.10943">
        <ele>1196</ele>
        <time>2016-06-19T06:54:45Z</time>
      </trkpt>
      <trkpt lat="47.89639" lon="7.10933">
        <ele>1197</ele>
        <time>2016-06-19T06:54:55Z</time>
      </trkpt>
      <trkpt lat="47.89651" lon="7.10919">
        <ele>1198</ele>
        <time>2016-06-19T06:55:10Z</time>
      </trkpt>
      <trkpt lat="47.89659" lon="7.1091">
        <ele>1203</ele>
        <time>2016-06-19T06:55:20Z</time>
      </trkpt>
      <trkpt lat="47.8967" lon="7.10896">
        <ele>1205</ele>
        <time>2016-06-19T06:55:37Z</time>
      </trkpt>
      <trkpt lat="47.89678" lon="7.10888">
        <ele>1207</ele>
        <time>2016-06-19T06:55:52Z</time>
      </trkpt>
      <trkpt lat="47.89685" lon="7.10878">
        <ele>1208</ele>
        <time>2016-06-19T06:56:07Z</time>
      </trkpt>
      <trkpt lat="47.89693" lon="7.10861">
        <ele>1210</ele>
        <time>2016-06-19T06:56:18Z</time>
      </trkpt>
      <trkpt lat="47.89704" lon="7.10845">
        <ele>1211</ele>
        <time>2016-06-19T06:56:31Z</time>
      </trkpt>
      <trkpt lat="47.89711" lon="7.10833">
        <ele>1222</ele>
        <time>2016-06-19T06:56:41Z</time>
      </trkpt>
      <trkpt lat="47.89714" lon="7.10819">
        <ele>1223</ele>
        <time>2016-06-19T06:56:52Z</time>
      </trkpt>
      <trkpt lat="47.8972" lon="7.10809">
        <ele>1223</ele>
        <time>2016-06-19T06:57:03Z</time>
      </trkpt>
      <trkpt lat="47.89734" lon="7.10801">
        <ele>1224</ele>
        <time>2016-06-19T06:57:16Z</time>
      </trkpt>
      <trkpt lat="47.89747" lon="7.10791">
        <ele>1225</ele>
        <time>2016-06-19T06:57:30Z</time>
      </trkpt>
      <trkpt lat="47.89754" lon="7.10782">
        <ele>1225</ele>
        <time>2016-06-19T06:57:45Z</time>
      </trkpt>
      <trkpt lat="47.89761" lon="7.10772">
        <ele>1227</ele>
        <time>2016-06-19T06:57:55Z</time>
      </trkpt>
      <trkpt lat="47.89768" lon="7.10762">
        <ele>1228</ele>
        <time>2016-06-19T06:58:05Z</time>
      </trkpt>
      <trkpt lat="47.89775" lon="7.10752">
        <ele>1228</ele>
        <time>2016-06-19T06:58:16Z</time>
      </trkpt>
      <trkpt lat="47.89782" lon="7.10744">
        <ele>1236</ele>
        <time>2016-06-19T06:58:26Z</time>
      </trkpt>
      <trkpt lat="47.89788" lon="7.10734">
        <ele>1237</ele>
        <time>2016-06-19T06:59:13Z</time>
      </trkpt>
      <trkpt lat="47.89802" lon="7.10719">
        <ele>1238</ele>
        <time>2016-06-19T06:59:28Z</time>
      </trkpt>
      <trkpt lat="47.89806" lon="7.10706">
        <ele>1239</ele>
        <time>2016-06-19T06:59:43Z</time>
      </trkpt>
      <trkpt lat="47.89808" lon="7.10699">
        <ele>1240</ele>
        <time>2016-06-19T07:00:09Z</time>
      </trkpt>
      <trkpt lat="47.89819" lon="7.10685">
        <ele>1241</ele>
        <time>2016-06-19T07:00:21Z</time>
      </trkpt>
      <trkpt lat="47.89832" lon="7.10673">
        <ele>1243</ele>
        <time>2016-06-19T07:00:31Z</time>
      </trkpt>
      <trkpt lat="47.8984" lon="7.10664">
        <ele>1246</ele>
        <time>2016-06-19T07:00:43Z</time>
      </trkpt>
      <trkpt lat="47.89841" lon="7.10649">
        <ele>1249</ele>
        <time>2016-06-19T07:00:55Z</time>
      </trkpt>
      <trkpt lat="47.89847" lon="7.10644">
        <ele>1250</ele>
        <time>2016-06-19T07:01:01Z</time>
      </trkpt>
      <trkpt lat="47.89858" lon="7.10633">
        <ele>1252</ele>
        <time>2016-06-19T07:01:13Z</time>
      </trkpt>
      <trkpt lat="47.8986" lon="7.10626">
        <ele>1252</ele>
        <time>2016-06-19T07:01:23Z</time>
      </trkpt>
      <trkpt lat="47.89858" lon="7.10619">
        <ele>1253</ele>
        <time>2016-06-19T07:01:28Z</time>
      </trkpt>
      <trkpt lat="47.89859" lon="7.10611">
        <ele>1254</ele>
        <time>2016-06-19T07:01:35Z</time>
      </trkpt>
      <trkpt lat="47.89865" lon="7.10603">
        <ele>1254</ele>
        <time>2016-06-19T07:01:47Z</time>
      </trkpt>
      <trkpt lat="47.89864" lon="7.10592">
        <ele>1255</ele>
        <time>2016-06-19T07:01:51Z</time>
      </trkpt>
      <trkpt lat="47.89857" lon="7.10571">
        <ele>1264</ele>
        <time>2016-06-19T07:02:02Z</time>
      </trkpt>
      <trkpt lat="47.8986" lon="7.10557">
        <ele>1265</ele>
        <time>2016-06-19T07:02:15Z</time>
      </trkpt>
      <trkpt lat="47.89861" lon="7.10543">
        <ele>1266</ele>
        <time>2016-06-19T07:02:25Z</time>
      </trkpt>
      <trkpt lat="47.89872" lon="7.1052">
        <ele>1268</ele>
        <time>2016-06-19T07:02:48Z</time>
      </trkpt>
      <trkpt lat="47.89874" lon="7.10506">
        <ele>1269</ele>
        <time>2016-06-19T07:03:00Z</time>
      </trkpt>
      <trkpt lat="47.89874" lon="7.1049">
        <ele>1277</ele>
        <time>2016-06-19T07:03:12Z</time>
      </trkpt>
      <trkpt lat="47.89881" lon="7.1048">
        <ele>1277</ele>
        <time>2016-06-19T07:03:25Z</time>
      </trkpt>
      <trkpt lat="47.89884" lon="7.10463">
        <ele>1278</ele>
        <time>2016-06-19T07:03:35Z</time>
      </trkpt>
      <trkpt lat="47.89888" lon="7.10443">
        <ele>1280</ele>
        <time>2016-06-19T07:03:48Z</time>
      </trkpt>
      <trkpt lat="47.89893" lon="7.10431">
        <ele>1281</ele>
        <time>2016-06-19T07:04:00Z</time>
      </trkpt>
      <trkpt lat="47.89901" lon="7.1042">
        <ele>1282</ele>
        <time>2016-06-19T07:04:10Z</time>
      </trkpt>
      <trkpt lat="47.89907" lon="7.10409">
        <ele>1288</ele>
        <time>2016-06-19T07:04:21Z</time>
      </trkpt>
      <trkpt lat="47.89915" lon="7.104">
        <ele>1288</ele>
        <time>2016-06-19T07:04:35Z</time>
      </trkpt>
      <trkpt lat="47.89925" lon="7.10399">
        <ele>1291</ele>
        <time>2016-06-19T07:04:46Z</time>
      </trkpt>
      <trkpt lat="47.89935" lon="7.10402">
        <ele>1292</ele>
        <time>2016-06-19T07:04:57Z</time>
      </trkpt>
      <trkpt lat="47.89949" lon="7.10401">
        <ele>1294</ele>
        <time>2016-06-19T07:05:09Z</time>
      </trkpt>
      <trkpt lat="47.89961" lon="7.10397">
        <ele>1295</ele>
        <time>2016-06-19T07:05:17Z</time>
      </trkpt>
      <trkpt lat="47.8997" lon="7.10391">
        <ele>1296</ele>
        <time>2016-06-19T07:05:27Z</time>
      </trkpt>
      <trkpt lat="47.89978" lon="7.10381">
        <ele>1297</ele>
        <time>2016-06-19T07:05:39Z</time>
      </trkpt>
      <trkpt lat="47.89995" lon="7.10372">
        <ele>1298</ele>
        <time>2016-06-19T07:05:52Z</time>
      </trkpt>
      <trkpt lat="47.90008" lon="7.10359">
        <ele>1304</ele>
        <time>2016-06-19T07:06:16Z</time>
      </trkpt>
      <trkpt lat="47.90017" lon="7.10354">
        <ele>1305</ele>
        <time>2016-06-19T07:06:26Z</time>
      </trkpt>
      <trkpt lat="47.90033" lon="7.10342">
        <ele>1306</ele>
        <time>2016-06-19T07:06:42Z</time>
      </trkpt>
      <trkpt lat="47.90041" lon="7.10335">
        <ele>1306</ele>
        <time>2016-06-19T07:06:53Z</time>
      </trkpt>
      <trkpt lat="47.90048" lon="7.10322">
        <ele>1317</ele>
        <time>2016-06-19T07:07:22Z</time>
      </trkpt>
      <trkpt lat="47.90048" lon="7.10315">
        <ele>1317</ele>
        <time>2016-06-19T07:07:36Z</time>
      </trkpt>
      <trkpt lat="47.90058" lon="7.10312">
        <ele>1318</ele>
        <time>2016-06-19T07:07:46Z</time>
      </trkpt>
      <trkpt lat="47.90067" lon="7.10318">
        <ele>1317</ele>
        <time>2016-06-19T07:07:57Z</time>
      </trkpt>
      <trkpt lat="47.90071" lon="7.10321">
        <ele>1316</ele>
        <time>2016-06-19T07:08:01Z</time>
      </trkpt>
      <trkpt lat="47.90081" lon="7.10326">
        <ele>1315</ele>
        <time>2016-06-19T07:08:12Z</time>
      </trkpt>
      <trkpt lat="47.90091" lon="7.10327">
        <ele>1317</ele>
        <time>2016-06-19T07:08:22Z</time>
      </trkpt>
      <trkpt lat="47.90105" lon="7.10334">
        <ele>1312</ele>
        <time>2016-06-19T07:08:36Z</time>
      </trkpt>
      <trkpt lat="47.90108" lon="7.10339">
        <ele>1312</ele>
        <time>2016-06-19T07:08:39Z</time>
      </trkpt>
      <trkpt lat="47.90122" lon="7.10337">
        <ele>1313</ele>
        <time>2016-06-19T07:08:52Z</time>
      </trkpt>
      <trkpt lat="47.90133" lon="7.10338">
        <ele>1314</ele>
        <time>2016-06-19T07:09:03Z</time>
      </trkpt>
      <trkpt lat="47.90143" lon="7.10338">
        <ele>1315</ele>
        <time>2016-06-19T07:09:14Z</time>
      </trkpt>
      <trkpt lat="47.90159" lon="7.10336">
        <ele>1319</ele>
        <time>2016-06-19T07:09:25Z</time>
      </trkpt>
      <trkpt lat="47.90169" lon="7.10334">
        <ele>1322</ele>
        <time>2016-06-19T07:09:37Z</time>
      </trkpt>
      <trkpt lat="47.90174" lon="7.10334">
        <ele>1321</ele>
        <time>2016-06-19T07:09:40Z</time>
      </trkpt>
      <trkpt lat="47.90184" lon="7.10334">
        <ele>1321</ele>
        <time>2016-06-19T07:09:50Z</time>
      </trkpt>
      <trkpt lat="47.90199" lon="7.10335">
        <ele>1321</ele>
        <time>2016-06-19T07:10:03Z</time>
      </trkpt>
      <trkpt lat="47.90215" lon="7.10334">
        <ele>1322</ele>
        <time>2016-06-19T07:10:18Z</time>
      </trkpt>
      <trkpt lat="47.90223" lon="7.10338">
        <ele>1323</ele>
        <time>2016-06-19T07:10:31Z</time>
      </trkpt>
      <trkpt lat="47.90234" lon="7.10338">
        <ele>1325</ele>
        <time>2016-06-19T07:10:39Z</time>
      </trkpt>
      <trkpt lat="47.9025" lon="7.10339">
        <ele>1328</ele>
        <time>2016-06-19T07:10:53Z</time>
      </trkpt>
      <trkpt lat="47.90254" lon="7.10337">
        <ele>1329</ele>
        <time>2016-06-19T07:10:57Z</time>
      </trkpt>
      <trkpt lat="47.90268" lon="7.10334">
        <ele>1328</ele>
        <time>2016-06-19T07:11:09Z</time>
      </trkpt>
      <trkpt lat="47.90284" lon="7.10332">
        <ele>1338</ele>
        <time>2016-06-19T07:11:21Z</time>
      </trkpt>
      <trkpt lat="47.90298" lon="7.10328">
        <ele>1339</ele>
        <time>2016-06-19T07:11:33Z</time>
      </trkpt>
      <trkpt lat="47.90313" lon="7.1033">
        <ele>1339</ele>
        <time>2016-06-19T07:11:47Z</time>
      </trkpt>
      <trkpt lat="47.90323" lon="7.1033">
        <ele>1339</ele>
        <time>2016-06-19T07:11:59Z</time>
      </trkpt>
      <trkpt lat="47.90339" lon="7.10327">
        <ele>1339</ele>
        <time>2016-06-19T07:12:12Z</time>
      </trkpt>
      <trkpt lat="47.90348" lon="7.10327">
        <ele>1340</ele>
        <time>2016-06-19T07:12:24Z</time>
      </trkpt>
      <trkpt lat="47.90363" lon="7.1033">
        <ele>1341</ele>
        <time>2016-06-19T07:12:39Z</time>
      </trkpt>
      <trkpt lat="47.9038" lon="7.1033">
        <ele>1341</ele>
        <time>2016-06-19T07:12:51Z</time>
      </trkpt>
      <trkpt lat="47.90385" lon="7.10328">
        <ele>1341</ele>
        <time>2016-06-19T07:12:55Z</time>
      </trkpt>
      <trkpt lat="47.9039" lon="7.10327">
        <ele>1340</ele>
        <time>2016-06-19T07:12:59Z</time>
      </trkpt>
      <trkpt lat="47.90401" lon="7.10325">
        <ele>1340</ele>
        <time>2016-06-19T07:13:11Z</time>
      </trkpt>
      <trkpt lat="47.9041" lon="7.10321">
        <ele>1339</ele>
        <time>2016-06-19T07:13:21Z</time>
      </trkpt>
      <trkpt lat="47.9041" lon="7.10313">
        <ele>1340</ele>
        <time>2016-06-19T07:13:35Z</time>
      </trkpt>
      <trkpt lat="47.90411" lon="7.10306">
        <ele>1341</ele>
        <time>2016-06-19T07:13:50Z</time>
      </trkpt>
      <trkpt lat="47.90407" lon="7.10311">
        <ele>1341</ele>
        <time>2016-06-19T07:33:35Z</time>
      </trkpt>
      <trkpt lat="47.90397" lon="7.10307">
        <ele>1342</ele>
        <time>2016-06-19T07:33:47Z</time>
      </trkpt>
      <trkpt lat="47.90402" lon="7.10296">
        <ele>1343</ele>
        <time>2016-06-19T07:33:59Z</time>
      </trkpt>
      <trkpt lat="47.90406" lon="7.10292">
        <ele>1343</ele>
        <time>2016-06-19T07:34:09Z</time>
      </trkpt>
      <trkpt lat="47.9042" lon="7.10286">
        <ele>1339</ele>
        <time>2016-06-19T07:34:19Z</time>
      </trkpt>
      <trkpt lat="47.90425" lon="7.10282">
        <ele>1340</ele>
        <time>2016-06-19T07:34:25Z</time>
      </trkpt>
      <trkpt lat="47.90434" lon="7.10275">
        <ele>1340</ele>
        <time>2016-06-19T07:34:35Z</time>
      </trkpt>
      <trkpt lat="47.9044" lon="7.10262">
        <ele>1340</ele>
        <time>2016-06-19T07:34:46Z</time>
      </trkpt>
      <trkpt lat="47.90443" lon="7.10248">
        <ele>1343</ele>
        <time>2016-06-19T07:34:56Z</time>
      </trkpt>
      <trkpt lat="47.90444" lon="7.10231">
        <ele>1343</ele>
        <time>2016-06-19T07:35:07Z</time>
      </trkpt>
      <trkpt lat="47.90443" lon="7.10217">
        <ele>1343</ele>
        <time>2016-06-19T07:35:18Z</time>
      </trkpt>
      <trkpt lat="47.90445" lon="7.10203">
        <ele>1343</ele>
        <time>2016-06-19T07:35:29Z</time>
      </trkpt>
      <trkpt lat="47.90449" lon="7.10189">
        <ele>1344</ele>
        <time>2016-06-19T07:35:41Z</time>
      </trkpt>
      <trkpt lat="47.90458" lon="7.10179">
        <ele>1342</ele>
        <time>2016-06-19T07:35:51Z</time>
      </trkpt>
      <trkpt lat="47.90462" lon="7.10175">
        <ele>1341</ele>
        <time>2016-06-19T07:35:56Z</time>
      </trkpt>
      <trkpt lat="47.90471" lon="7.10178">
        <ele>1339</ele>
        <time>2016-06-19T07:36:14Z</time>
      </trkpt>
      <trkpt lat="47.90477" lon="7.10193">
        <ele>1339</ele>
        <time>2016-06-19T07:36:24Z</time>
      </trkpt>
      <trkpt lat="47.90483" lon="7.10208">
        <ele>1339</ele>
        <time>2016-06-19T07:36:34Z</time>
      </trkpt>
      <trkpt lat="47.90493" lon="7.10198">
        <ele>1337</ele>
        <time>2016-06-19T07:36:49Z</time>
      </trkpt>
      <trkpt lat="47.90498" lon="7.10182">
        <ele>1335</ele>
        <time>2016-06-19T07:37:01Z</time>
      </trkpt>
      <trkpt lat="47.90498" lon="7.10174">
        <ele>1333</ele>
        <time>2016-06-19T07:37:05Z</time>
      </trkpt>
      <trkpt lat="47.90499" lon="7.10154">
        <ele>1335</ele>
        <time>2016-06-19T07:37:17Z</time>
      </trkpt>
      <trkpt lat="47.90503" lon="7.10129">
        <ele>1320</ele>
        <time>2016-06-19T07:37:29Z</time>
      </trkpt>
      <trkpt lat="47.90506" lon="7.10121">
        <ele>1320</ele>
        <time>2016-06-19T07:37:34Z</time>
      </trkpt>
      <trkpt lat="47.90507" lon="7.10107">
        <ele>1321</ele>
        <time>2016-06-19T07:37:44Z</time>
      </trkpt>
      <trkpt lat="47.90509" lon="7.10084">
        <ele>1323</ele>
        <time>2016-06-19T07:37:55Z</time>
      </trkpt>
      <trkpt lat="47.90509" lon="7.10075">
        <ele>1321</ele>
        <time>2016-06-19T07:37:59Z</time>
      </trkpt>
      <trkpt lat="47.9051" lon="7.10052">
        <ele>1316</ele>
        <time>2016-06-19T07:38:10Z</time>
      </trkpt>
      <trkpt lat="47.90512" lon="7.10028">
        <ele>1316</ele>
        <time>2016-06-19T07:38:21Z</time>
      </trkpt>
      <trkpt lat="47.90513" lon="7.10012">
        <ele>1317</ele>
        <time>2016-06-19T07:38:33Z</time>
      </trkpt>
      <trkpt lat="47.90515" lon="7.09995">
        <ele>1316</ele>
        <time>2016-06-19T07:38:45Z</time>
      </trkpt>
      <trkpt lat="47.90516" lon="7.09987">
        <ele>1315</ele>
        <time>2016-06-19T07:38:48Z</time>
      </trkpt>
      <trkpt lat="47.90517" lon="7.09963">
        <ele>1312</ele>
        <time>2016-06-19T07:39:00Z</time>
      </trkpt>
      <trkpt lat="47.90519" lon="7.0995">
        <ele>1312</ele>
        <time>2016-06-19T07:39:11Z</time>
      </trkpt>
      <trkpt lat="47.90524" lon="7.0993">
        <ele>1312</ele>
        <time>2016-06-19T07:39:22Z</time>
      </trkpt>
      <trkpt lat="47.90525" lon="7.09923">
        <ele>1312</ele>
        <time>2016-06-19T07:39:26Z</time>
      </trkpt>
      <trkpt lat="47.90528" lon="7.09899">
        <ele>1307</ele>
        <time>2016-06-19T07:39:38Z</time>
      </trkpt>
      <trkpt lat="47.90531" lon="7.09884">
        <ele>1306</ele>
        <time>2016-06-19T07:39:47Z</time>
      </trkpt>
      <trkpt lat="47.90534" lon="7.09859">
        <ele>1304</ele>
        <time>2016-06-19T07:40:01Z</time>
      </trkpt>
      <trkpt lat="47.90532" lon="7.09836">
        <ele>1305</ele>
        <time>2016-06-19T07:40:17Z</time>
      </trkpt>
      <trkpt lat="47.90532" lon="7.0982">
        <ele>1300</ele>
        <time>2016-06-19T07:40:27Z</time>
      </trkpt>
      <trkpt lat="47.90534" lon="7.09806">
        <ele>1298</ele>
        <time>2016-06-19T07:40:37Z</time>
      </trkpt>
      <trkpt lat="47.90534" lon="7.09784">
        <ele>1297</ele>
        <time>2016-06-19T07:40:48Z</time>
      </trkpt>
      <trkpt lat="47.90531" lon="7.09763">
        <ele>1297</ele>
        <time>2016-06-19T07:40:59Z</time>
      </trkpt>
      <trkpt lat="47.90529" lon="7.09755">
        <ele>1298</ele>
        <time>2016-06-19T07:41:03Z</time>
      </trkpt>
      <trkpt lat="47.90528" lon="7.09749">
        <ele>1293</ele>
        <time>2016-06-19T07:41:09Z</time>
      </trkpt>
      <trkpt lat="47.90524" lon="7.09728">
        <ele>1293</ele>
        <time>2016-06-19T07:41:22Z</time>
      </trkpt>
      <trkpt lat="47.90521" lon="7.09719">
        <ele>1292</ele>
        <time>2016-06-19T07:41:26Z</time>
      </trkpt>
      <trkpt lat="47.90517" lon="7.09695">
        <ele>1291</ele>
        <time>2016-06-19T07:41:38Z</time>
      </trkpt>
      <trkpt lat="47.90516" lon="7.09672">
        <ele>1292</ele>
        <time>2016-06-19T07:41:50Z</time>
      </trkpt>
      <trkpt lat="47.90517" lon="7.09664">
        <ele>1289</ele>
        <time>2016-06-19T07:41:55Z</time>
      </trkpt>
      <trkpt lat="47.90517" lon="7.09657">
        <ele>1288</ele>
        <time>2016-06-19T07:41:58Z</time>
      </trkpt>
      <trkpt lat="47.90524" lon="7.09636">
        <ele>1284</ele>
        <time>2016-06-19T07:42:12Z</time>
      </trkpt>
      <trkpt lat="47.90528" lon="7.09613">
        <ele>1282</ele>
        <time>2016-06-19T07:42:23Z</time>
      </trkpt>
      <trkpt lat="47.90527" lon="7.09606">
        <ele>1282</ele>
        <time>2016-06-19T07:42:27Z</time>
      </trkpt>
      <trkpt lat="47.90526" lon="7.09599">
        <ele>1282</ele>
        <time>2016-06-19T07:42:31Z</time>
      </trkpt>
      <trkpt lat="47.90528" lon="7.09569">
        <ele>1277</ele>
        <time>2016-06-19T07:42:44Z</time>
      </trkpt>
      <trkpt lat="47.90527" lon="7.09547">
        <ele>1275</ele>
        <time>2016-06-19T07:42:55Z</time>
      </trkpt>
      <trkpt lat="47.90526" lon="7.09523">
        <ele>1274</ele>
        <time>2016-06-19T07:43:06Z</time>
      </trkpt>
      <trkpt lat="47.90519" lon="7.09504">
        <ele>1274</ele>
        <time>2016-06-19T07:43:18Z</time>
      </trkpt>
      <trkpt lat="47.90513" lon="7.0949">
        <ele>1270</ele>
        <time>2016-06-19T07:43:28Z</time>
      </trkpt>
      <trkpt lat="47.90511" lon="7.09484">
        <ele>1269</ele>
        <time>2016-06-19T07:43:31Z</time>
      </trkpt>
      <trkpt lat="47.90506" lon="7.09471">
        <ele>1267</ele>
        <time>2016-06-19T07:43:38Z</time>
      </trkpt>
      <trkpt lat="47.90501" lon="7.09451">
        <ele>1265</ele>
        <time>2016-06-19T07:43:50Z</time>
      </trkpt>
      <trkpt lat="47.90499" lon="7.09444">
        <ele>1273</ele>
        <time>2016-06-19T07:43:53Z</time>
      </trkpt>
      <trkpt lat="47.90492" lon="7.09422">
        <ele>1268</ele>
        <time>2016-06-19T07:44:05Z</time>
      </trkpt>
      <trkpt lat="47.90486" lon="7.09401">
        <ele>1264</ele>
        <time>2016-06-19T07:44:16Z</time>
      </trkpt>
      <trkpt lat="47.90483" lon="7.09378">
        <ele>1263</ele>
        <time>2016-06-19T07:44:27Z</time>
      </trkpt>
      <trkpt lat="47.9048" lon="7.09358">
        <ele>1261</ele>
        <time>2016-06-19T07:44:38Z</time>
      </trkpt>
      <trkpt lat="47.90476" lon="7.09338">
        <ele>1260</ele>
        <time>2016-06-19T07:44:48Z</time>
      </trkpt>
      <trkpt lat="47.90472" lon="7.09322">
        <ele>1252</ele>
        <time>2016-06-19T07:44:58Z</time>
      </trkpt>
      <trkpt lat="47.90466" lon="7.09298">
        <ele>1251</ele>
        <time>2016-06-19T07:45:10Z</time>
      </trkpt>
      <trkpt lat="47.90464" lon="7.09274">
        <ele>1250</ele>
        <time>2016-06-19T07:45:21Z</time>
      </trkpt>
      <trkpt lat="47.9046" lon="7.09261">
        <ele>1249</ele>
        <time>2016-06-19T07:45:31Z</time>
      </trkpt>
      <trkpt lat="47.90458" lon="7.09245">
        <ele>1242</ele>
        <time>2016-06-19T07:45:41Z</time>
      </trkpt>
      <trkpt lat="47.90457" lon="7.09221">
        <ele>1242</ele>
        <time>2016-06-19T07:45:52Z</time>
      </trkpt>
      <trkpt lat="47.90455" lon="7.09197">
        <ele>1241</ele>
        <time>2016-06-19T07:46:02Z</time>
      </trkpt>
      <trkpt lat="47.90455" lon="7.09191">
        <ele>1241</ele>
        <time>2016-06-19T07:46:04Z</time>
      </trkpt>
      <trkpt lat="47.90454" lon="7.09175">
        <ele>1240</ele>
        <time>2016-06-19T07:46:17Z</time>
      </trkpt>
      <trkpt lat="47.90452" lon="7.09169">
        <ele>1240</ele>
        <time>2016-06-19T07:46:32Z</time>
      </trkpt>
      <trkpt lat="47.90453" lon="7.09147">
        <ele>1235</ele>
        <time>2016-06-19T07:46:43Z</time>
      </trkpt>
      <trkpt lat="47.90455" lon="7.09122">
        <ele>1233</ele>
        <time>2016-06-19T07:46:56Z</time>
      </trkpt>
      <trkpt lat="47.90456" lon="7.09113">
        <ele>1233</ele>
        <time>2016-06-19T07:47:00Z</time>
      </trkpt>
      <trkpt lat="47.90461" lon="7.0909">
        <ele>1232</ele>
        <time>2016-06-19T07:47:11Z</time>
      </trkpt>
      <trkpt lat="47.90465" lon="7.09085">
        <ele>1232</ele>
        <time>2016-06-19T07:47:16Z</time>
      </trkpt>
      <trkpt lat="47.90471" lon="7.09074">
        <ele>1227</ele>
        <time>2016-06-19T07:47:27Z</time>
      </trkpt>
      <trkpt lat="47.90484" lon="7.09059">
        <ele>1227</ele>
        <time>2016-06-19T07:47:40Z</time>
      </trkpt>
      <trkpt lat="47.90496" lon="7.09043">
        <ele>1226</ele>
        <time>2016-06-19T07:47:52Z</time>
      </trkpt>
      <trkpt lat="47.90506" lon="7.09028">
        <ele>1224</ele>
        <time>2016-06-19T07:48:05Z</time>
      </trkpt>
      <trkpt lat="47.90504" lon="7.09022">
        <ele>1224</ele>
        <time>2016-06-19T07:48:08Z</time>
      </trkpt>
      <trkpt lat="47.90493" lon="7.09005">
        <ele>1226</ele>
        <time>2016-06-19T07:48:21Z</time>
      </trkpt>
      <trkpt lat="47.90483" lon="7.08986">
        <ele>1223</ele>
        <time>2016-06-19T07:48:33Z</time>
      </trkpt>
      <trkpt lat="47.90472" lon="7.08969">
        <ele>1222</ele>
        <time>2016-06-19T07:48:44Z</time>
      </trkpt>
      <trkpt lat="47.90461" lon="7.0895">
        <ele>1221</ele>
        <time>2016-06-19T07:48:57Z</time>
      </trkpt>
      <trkpt lat="47.90452" lon="7.08931">
        <ele>1220</ele>
        <time>2016-06-19T07:49:10Z</time>
      </trkpt>
      <trkpt lat="47.90443" lon="7.0891">
        <ele>1217</ele>
        <time>2016-06-19T07:49:22Z</time>
      </trkpt>
      <trkpt lat="47.90438" lon="7.08888">
        <ele>1217</ele>
        <time>2016-06-19T07:49:35Z</time>
      </trkpt>
      <trkpt lat="47.90431" lon="7.08866">
        <ele>1217</ele>
        <time>2016-06-19T07:49:47Z</time>
      </trkpt>
      <trkpt lat="47.90428" lon="7.08844">
        <ele>1213</ele>
        <time>2016-06-19T07:49:58Z</time>
      </trkpt>
      <trkpt lat="47.9042" lon="7.08824">
        <ele>1213</ele>
        <time>2016-06-19T07:50:14Z</time>
      </trkpt>
      <trkpt lat="47.90414" lon="7.08803">
        <ele>1200</ele>
        <time>2016-06-19T07:50:25Z</time>
      </trkpt>
      <trkpt lat="47.90406" lon="7.08784">
        <ele>1200</ele>
        <time>2016-06-19T07:50:37Z</time>
      </trkpt>
      <trkpt lat="47.90396" lon="7.08766">
        <ele>1201</ele>
        <time>2016-06-19T07:50:50Z</time>
      </trkpt>
      <trkpt lat="47.90386" lon="7.08751">
        <ele>1199</ele>
        <time>2016-06-19T07:51:01Z</time>
      </trkpt>
      <trkpt lat="47.90372" lon="7.08739">
        <ele>1204</ele>
        <time>2016-06-19T07:51:13Z</time>
      </trkpt>
      <trkpt lat="47.90358" lon="7.08726">
        <ele>1202</ele>
        <time>2016-06-19T07:51:25Z</time>
      </trkpt>
      <trkpt lat="47.90352" lon="7.08714">
        <ele>1204</ele>
        <time>2016-06-19T07:51:39Z</time>
      </trkpt>
      <trkpt lat="47.90338" lon="7.08702">
        <ele>1204</ele>
        <time>2016-06-19T07:51:50Z</time>
      </trkpt>
      <trkpt lat="47.90333" lon="7.08698">
        <ele>1188</ele>
        <time>2016-06-19T07:51:53Z</time>
      </trkpt>
      <trkpt lat="47.90314" lon="7.08688">
        <ele>1188</ele>
        <time>2016-06-19T07:52:06Z</time>
      </trkpt>
      <trkpt lat="47.90306" lon="7.08681">
        <ele>1187</ele>
        <time>2016-06-19T07:52:29Z</time>
      </trkpt>
      <trkpt lat="47.90292" lon="7.08665">
        <ele>1199</ele>
        <time>2016-06-19T07:52:40Z</time>
      </trkpt>
      <trkpt lat="47.90288" lon="7.08662">
        <ele>1197</ele>
        <time>2016-06-19T07:52:44Z</time>
      </trkpt>
      <trkpt lat="47.9028" lon="7.08651">
        <ele>1196</ele>
        <time>2016-06-19T07:52:57Z</time>
      </trkpt>
      <trkpt lat="47.90276" lon="7.0865">
        <ele>1195</ele>
        <time>2016-06-19T07:53:00Z</time>
      </trkpt>
      <trkpt lat="47.90268" lon="7.0864">
        <ele>1195</ele>
        <time>2016-06-19T07:53:11Z</time>
      </trkpt>
      <trkpt lat="47.90255" lon="7.08629">
        <ele>1196</ele>
        <time>2016-06-19T07:53:21Z</time>
      </trkpt>
      <trkpt lat="47.90236" lon="7.08611">
        <ele>1179</ele>
        <time>2016-06-19T07:53:34Z</time>
      </trkpt>
      <trkpt lat="47.90222" lon="7.08597">
        <ele>1179</ele>
        <time>2016-06-19T07:53:44Z</time>
      </trkpt>
      <trkpt lat="47.90207" lon="7.08582">
        <ele>1190</ele>
        <time>2016-06-19T07:53:55Z</time>
      </trkpt>
      <trkpt lat="47.90192" lon="7.08573">
        <ele>1187</ele>
        <time>2016-06-19T07:54:02Z</time>
      </trkpt>
      <trkpt lat="47.90182" lon="7.08567">
        <ele>1185</ele>
        <time>2016-06-19T07:54:12Z</time>
      </trkpt>
      <trkpt lat="47.90172" lon="7.0856">
        <ele>1185</ele>
        <time>2016-06-19T07:54:18Z</time>
      </trkpt>
      <trkpt lat="47.90162" lon="7.08558">
        <ele>1170</ele>
        <time>2016-06-19T07:54:28Z</time>
      </trkpt>
      <trkpt lat="47.90147" lon="7.08539">
        <ele>1171</ele>
        <time>2016-06-19T07:54:40Z</time>
      </trkpt>
      <trkpt lat="47.90141" lon="7.08538">
        <ele>1171</ele>
        <time>2016-06-19T07:54:45Z</time>
      </trkpt>
      <trkpt lat="47.90128" lon="7.08527">
        <ele>1170</ele>
        <time>2016-06-19T07:54:56Z</time>
      </trkpt>
      <trkpt lat="47.90114" lon="7.08518">
        <ele>1168</ele>
        <time>2016-06-19T07:55:07Z</time>
      </trkpt>
      <trkpt lat="47.90108" lon="7.08516">
        <ele>1167</ele>
        <time>2016-06-19T07:55:10Z</time>
      </trkpt>
      <trkpt lat="47.90092" lon="7.08508">
        <ele>1165</ele>
        <time>2016-06-19T07:55:17Z</time>
      </trkpt>
      <trkpt lat="47.90079" lon="7.08494">
        <ele>1164</ele>
        <time>2016-06-19T07:55:30Z</time>
      </trkpt>
      <trkpt lat="47.90073" lon="7.08477">
        <ele>1164</ele>
        <time>2016-06-19T07:55:43Z</time>
      </trkpt>
      <trkpt lat="47.90062" lon="7.0846">
        <ele>1164</ele>
        <time>2016-06-19T07:55:55Z</time>
      </trkpt>
      <trkpt lat="47.90045" lon="7.08441">
        <ele>1164</ele>
        <time>2016-06-19T07:56:08Z</time>
      </trkpt>
      <trkpt lat="47.9004" lon="7.08439">
        <ele>1163</ele>
        <time>2016-06-19T07:56:11Z</time>
      </trkpt>
      <trkpt lat="47.90031" lon="7.08422">
        <ele>1163</ele>
        <time>2016-06-19T07:56:25Z</time>
      </trkpt>
      <trkpt lat="47.9002" lon="7.08412">
        <ele>1170</ele>
        <time>2016-06-19T07:56:37Z</time>
      </trkpt>
      <trkpt lat="47.90012" lon="7.084">
        <ele>1170</ele>
        <time>2016-06-19T07:56:51Z</time>
      </trkpt>
      <trkpt lat="47.90009" lon="7.08389">
        <ele>1172</ele>
        <time>2016-06-19T07:57:01Z</time>
      </trkpt>
      <trkpt lat="47.90004" lon="7.08378">
        <ele>1174</ele>
        <time>2016-06-19T07:57:11Z</time>
      </trkpt>
      <trkpt lat="47.89995" lon="7.0836">
        <ele>1156</ele>
        <time>2016-06-19T07:57:27Z</time>
      </trkpt>
      <trkpt lat="47.89991" lon="7.08353">
        <ele>1157</ele>
        <time>2016-06-19T07:57:41Z</time>
      </trkpt>
      <trkpt lat="47.89981" lon="7.08336">
        <ele>1158</ele>
        <time>2016-06-19T07:58:00Z</time>
      </trkpt>
      <trkpt lat="47.89978" lon="7.08306">
        <ele>1162</ele>
        <time>2016-06-19T07:58:11Z</time>
      </trkpt>
      <trkpt lat="47.89959" lon="7.08278">
        <ele>1160</ele>
        <time>2016-06-19T07:58:22Z</time>
      </trkpt>
      <trkpt lat="47.89954" lon="7.08274">
        <ele>1159</ele>
        <time>2016-06-19T07:58:24Z</time>
      </trkpt>
      <trkpt lat="47.89944" lon="7.0825">
        <ele>1156</ele>
        <time>2016-06-19T07:58:32Z</time>
      </trkpt>
      <trkpt lat="47.89941" lon="7.08236">
        <ele>1163</ele>
        <time>2016-06-19T07:58:36Z</time>
      </trkpt>
      <trkpt lat="47.89932" lon="7.08211">
        <ele>1164</ele>
        <time>2016-06-19T07:58:46Z</time>
      </trkpt>
      <trkpt lat="47.89929" lon="7.08197">
        <ele>1164</ele>
        <time>2016-06-19T07:58:52Z</time>
      </trkpt>
      <trkpt lat="47.89917" lon="7.08175">
        <ele>1158</ele>
        <time>2016-06-19T07:59:04Z</time>
      </trkpt>
      <trkpt lat="47.89912" lon="7.08155">
        <ele>1148</ele>
        <time>2016-06-19T07:59:16Z</time>
      </trkpt>
      <trkpt lat="47.8991" lon="7.08142">
        <ele>1146</ele>
        <time>2016-06-19T07:59:32Z</time>
      </trkpt>
      <trkpt lat="47.89895" lon="7.08117">
        <ele>1144</ele>
        <time>2016-06-19T07:59:44Z</time>
      </trkpt>
      <trkpt lat="47.89892" lon="7.08109">
        <ele>1145</ele>
        <time>2016-06-19T07:59:48Z</time>
      </trkpt>
      <trkpt lat="47.89889" lon="7.08101">
        <ele>1145</ele>
        <time>2016-06-19T07:59:54Z</time>
      </trkpt>
      <trkpt lat="47.89881" lon="7.08083">
        <ele>1150</ele>
        <time>2016-06-19T08:00:05Z</time>
      </trkpt>
      <trkpt lat="47.89878" lon="7.08055">
        <ele>1149</ele>
        <time>2016-06-19T08:00:18Z</time>
      </trkpt>
      <trkpt lat="47.89875" lon="7.08028">
        <ele>1150</ele>
        <time>2016-06-19T08:00:28Z</time>
      </trkpt>
      <trkpt lat="47.89873" lon="7.08014">
        <ele>1150</ele>
        <time>2016-06-19T08:00:33Z</time>
      </trkpt>
      <trkpt lat="47.8987" lon="7.08009">
        <ele>1148</ele>
        <time>2016-06-19T08:00:36Z</time>
      </trkpt>
      <trkpt lat="47.8986" lon="7.07987">
        <ele>1152</ele>
        <time>2016-06-19T08:00:48Z</time>
      </trkpt>
      <trkpt lat="47.89849" lon="7.07962">
        <ele>1153</ele>
        <time>2016-06-19T08:01:00Z</time>
      </trkpt>
      <trkpt lat="47.89841" lon="7.07952">
        <ele>1153</ele>
        <time>2016-06-19T08:01:04Z</time>
      </trkpt>
      <trkpt lat="47.8984" lon="7.07944">
        <ele>1153</ele>
        <time>2016-06-19T08:01:08Z</time>
      </trkpt>
      <trkpt lat="47.89828" lon="7.07926">
        <ele>1135</ele>
        <time>2016-06-19T08:01:23Z</time>
      </trkpt>
      <trkpt lat="47.8982" lon="7.07907">
        <ele>1142</ele>
        <time>2016-06-19T08:01:33Z</time>
      </trkpt>
      <trkpt lat="47.8981" lon="7.0789">
        <ele>1141</ele>
        <time>2016-06-19T08:01:43Z</time>
      </trkpt>
      <trkpt lat="47.89802" lon="7.07871">
        <ele>1142</ele>
        <time>2016-06-19T08:01:55Z</time>
      </trkpt>
      <trkpt lat="47.89793" lon="7.07854">
        <ele>1143</ele>
        <time>2016-06-19T08:02:07Z</time>
      </trkpt>
      <trkpt lat="47.89789" lon="7.0785">
        <ele>1142</ele>
        <time>2016-06-19T08:02:13Z</time>
      </trkpt>
      <trkpt lat="47.8978" lon="7.0784">
        <ele>1141</ele>
        <time>2016-06-19T08:02:24Z</time>
      </trkpt>
      <trkpt lat="47.8977" lon="7.07835">
        <ele>1140</ele>
        <time>2016-06-19T08:02:32Z</time>
      </trkpt>
      <trkpt lat="47.89762" lon="7.07825">
        <ele>1150</ele>
        <time>2016-06-19T08:02:44Z</time>
      </trkpt>
      <trkpt lat="47.89751" lon="7.07821">
        <ele>1148</ele>
        <time>2016-06-19T08:02:51Z</time>
      </trkpt>
      <trkpt lat="47.89738" lon="7.07808">
        <ele>1137</ele>
        <time>2016-06-19T08:03:04Z</time>
      </trkpt>
      <trkpt lat="47.89725" lon="7.07791">
        <ele>1138</ele>
        <time>2016-06-19T08:03:16Z</time>
      </trkpt>
      <trkpt lat="47.89714" lon="7.07786">
        <ele>1136</ele>
        <time>2016-06-19T08:03:27Z</time>
      </trkpt>
      <trkpt lat="47.89702" lon="7.07775">
        <ele>1135</ele>
        <time>2016-06-19T08:03:37Z</time>
      </trkpt>
      <trkpt lat="47.89699" lon="7.07756">
        <ele>1135</ele>
        <time>2016-06-19T08:03:51Z</time>
      </trkpt>
      <trkpt lat="47.89693" lon="7.07747">
        <ele>1143</ele>
        <time>2016-06-19T08:04:00Z</time>
      </trkpt>
      <trkpt lat="47.89684" lon="7.07737">
        <ele>1142</ele>
        <time>2016-06-19T08:04:10Z</time>
      </trkpt>
      <trkpt lat="47.89678" lon="7.07727">
        <ele>1143</ele>
        <time>2016-06-19T08:04:24Z</time>
      </trkpt>
      <trkpt lat="47.89673" lon="7.0772">
        <ele>1144</ele>
        <time>2016-06-19T08:04:29Z</time>
      </trkpt>
      <trkpt lat="47.89669" lon="7.077">
        <ele>1147</ele>
        <time>2016-06-19T08:04:43Z</time>
      </trkpt>
      <trkpt lat="47.89655" lon="7.07689">
        <ele>1126</ele>
        <time>2016-06-19T08:04:55Z</time>
      </trkpt>
      <trkpt lat="47.89645" lon="7.07664">
        <ele>1134</ele>
        <time>2016-06-19T08:05:07Z</time>
      </trkpt>
      <trkpt lat="47.89628" lon="7.07642">
        <ele>1128</ele>
        <time>2016-06-19T08:05:18Z</time>
      </trkpt>
      <trkpt lat="47.89615" lon="7.07624">
        <ele>1126</ele>
        <time>2016-06-19T08:05:28Z</time>
      </trkpt>
      <trkpt lat="47.89606" lon="7.07615">
        <ele>1124</ele>
        <time>2016-06-19T08:05:35Z</time>
      </trkpt>
      <trkpt lat="47.89596" lon="7.07599">
        <ele>1121</ele>
        <time>2016-06-19T08:05:49Z</time>
      </trkpt>
      <trkpt lat="47.89585" lon="7.07584">
        <ele>1115</ele>
        <time>2016-06-19T08:06:03Z</time>
      </trkpt>
      <trkpt lat="47.89578" lon="7.07564">
        <ele>1105</ele>
        <time>2016-06-19T08:06:17Z</time>
      </trkpt>
      <trkpt lat="47.89572" lon="7.07552">
        <ele>1102</ele>
        <time>2016-06-19T08:06:28Z</time>
      </trkpt>
      <trkpt lat="47.89564" lon="7.07534">
        <ele>1101</ele>
        <time>2016-06-19T08:06:38Z</time>
      </trkpt>
      <trkpt lat="47.8956" lon="7.07522">
        <ele>1101</ele>
        <time>2016-06-19T08:06:44Z</time>
      </trkpt>
      <trkpt lat="47.89557" lon="7.07497">
        <ele>1098</ele>
        <time>2016-06-19T08:06:55Z</time>
      </trkpt>
      <trkpt lat="47.89556" lon="7.07476">
        <ele>1095</ele>
        <time>2016-06-19T08:07:08Z</time>
      </trkpt>
      <trkpt lat="47.89553" lon="7.07445">
        <ele>1093</ele>
        <time>2016-06-19T08:07:18Z</time>
      </trkpt>
      <trkpt lat="47.89554" lon="7.07438">
        <ele>1093</ele>
        <time>2016-06-19T08:07:21Z</time>
      </trkpt>
      <trkpt lat="47.89556" lon="7.07424">
        <ele>1094</ele>
        <time>2016-06-19T08:07:31Z</time>
      </trkpt>
      <trkpt lat="47.8956" lon="7.07389">
        <ele>1083</ele>
        <time>2016-06-19T08:07:44Z</time>
      </trkpt>
      <trkpt lat="47.89567" lon="7.07371">
        <ele>1081</ele>
        <time>2016-06-19T08:07:54Z</time>
      </trkpt>
      <trkpt lat="47.89571" lon="7.07358">
        <ele>1082</ele>
        <time>2016-06-19T08:08:04Z</time>
      </trkpt>
      <trkpt lat="47.89576" lon="7.07342">
        <ele>1085</ele>
        <time>2016-06-19T08:08:15Z</time>
      </trkpt>
      <trkpt lat="47.89582" lon="7.0732">
        <ele>1077</ele>
        <time>2016-06-19T08:08:27Z</time>
      </trkpt>
      <trkpt lat="47.89587" lon="7.073">
        <ele>1095</ele>
        <time>2016-06-19T08:08:38Z</time>
      </trkpt>
      <trkpt lat="47.8959" lon="7.07276">
        <ele>1090</ele>
        <time>2016-06-19T08:08:49Z</time>
      </trkpt>
      <trkpt lat="47.89596" lon="7.07261">
        <ele>1086</ele>
        <time>2016-06-19T08:09:01Z</time>
      </trkpt>
      <trkpt lat="47.89599" lon="7.07254">
        <ele>1085</ele>
        <time>2016-06-19T08:09:11Z</time>
      </trkpt>
      <trkpt lat="47.89606" lon="7.07232">
        <ele>1080</ele>
        <time>2016-06-19T08:09:21Z</time>
      </trkpt>
      <trkpt lat="47.89609" lon="7.07201">
        <ele>1079</ele>
        <time>2016-06-19T08:09:34Z</time>
      </trkpt>
      <trkpt lat="47.89622" lon="7.07181">
        <ele>1080</ele>
        <time>2016-06-19T08:09:46Z</time>
      </trkpt>
      <trkpt lat="47.89627" lon="7.07161">
        <ele>1071</ele>
        <time>2016-06-19T08:09:57Z</time>
      </trkpt>
      <trkpt lat="47.8963" lon="7.07153">
        <ele>1071</ele>
        <time>2016-06-19T08:10:03Z</time>
      </trkpt>
      <trkpt lat="47.89634" lon="7.07134">
        <ele>1070</ele>
        <time>2016-06-19T08:10:18Z</time>
      </trkpt>
      <trkpt lat="47.8964" lon="7.07105">
        <ele>1070</ele>
        <time>2016-06-19T08:10:28Z</time>
      </trkpt>
      <trkpt lat="47.89647" lon="7.07084">
        <ele>1072</ele>
        <time>2016-06-19T08:10:41Z</time>
      </trkpt>
      <trkpt lat="47.89645" lon="7.07061">
        <ele>1059</ele>
        <time>2016-06-19T08:10:53Z</time>
      </trkpt>
      <trkpt lat="47.89648" lon="7.07037">
        <ele>1055</ele>
        <time>2016-06-19T08:11:12Z</time>
      </trkpt>
      <trkpt lat="47.89649" lon="7.07012">
        <ele>1054</ele>
        <time>2016-06-19T08:11:23Z</time>
      </trkpt>
      <trkpt lat="47.8965" lon="7.06992">
        <ele>1047</ele>
        <time>2016-06-19T08:11:36Z</time>
      </trkpt>
      <trkpt lat="47.89649" lon="7.06968">
        <ele>1043</ele>
        <time>2016-06-19T08:11:46Z</time>
      </trkpt>
      <trkpt lat="47.89649" lon="7.06945">
        <ele>1040</ele>
        <time>2016-06-19T08:11:57Z</time>
      </trkpt>
      <trkpt lat="47.89652" lon="7.06937">
        <ele>1040</ele>
        <time>2016-06-19T08:12:00Z</time>
      </trkpt>
      <trkpt lat="47.89651" lon="7.06931">
        <ele>1040</ele>
        <time>2016-06-19T08:12:03Z</time>
      </trkpt>
      <trkpt lat="47.89643" lon="7.06911">
        <ele>1035</ele>
        <time>2016-06-19T08:12:16Z</time>
      </trkpt>
      <trkpt lat="47.8964" lon="7.06898">
        <ele>1034</ele>
        <time>2016-06-19T08:12:27Z</time>
      </trkpt>
      <trkpt lat="47.89632" lon="7.06878">
        <ele>1033</ele>
        <time>2016-06-19T08:12:41Z</time>
      </trkpt>
      <trkpt lat="47.8963" lon="7.0687">
        <ele>1032</ele>
        <time>2016-06-19T08:12:47Z</time>
      </trkpt>
      <trkpt lat="47.89627" lon="7.06855">
        <ele>1032</ele>
        <time>2016-06-19T08:12:57Z</time>
      </trkpt>
      <trkpt lat="47.89623" lon="7.0684">
        <ele>1032</ele>
        <time>2016-06-19T08:13:07Z</time>
      </trkpt>
      <trkpt lat="47.89628" lon="7.06838">
        <ele>1032</ele>
        <time>2016-06-19T08:13:12Z</time>
      </trkpt>
      <trkpt lat="47.89632" lon="7.06833">
        <ele>1031</ele>
        <time>2016-06-19T08:13:35Z</time>
      </trkpt>
      <trkpt lat="47.89635" lon="7.06809">
        <ele>1031</ele>
        <time>2016-06-19T08:13:49Z</time>
      </trkpt>
      <trkpt lat="47.89635" lon="7.06801">
        <ele>1031</ele>
        <time>2016-06-19T08:13:53Z</time>
      </trkpt>
      <trkpt lat="47.89631" lon="7.06776">
        <ele>1030</ele>
        <time>2016-06-19T08:14:04Z</time>
      </trkpt>
      <trkpt lat="47.89629" lon="7.06769">
        <ele>1030</ele>
        <time>2016-06-19T08:14:07Z</time>
      </trkpt>
      <trkpt lat="47.89627" lon="7.06755">
        <ele>1030</ele>
        <time>2016-06-19T08:14:17Z</time>
      </trkpt>
      <trkpt lat="47.89628" lon="7.06747">
        <ele>1027</ele>
        <time>2016-06-19T08:14:20Z</time>
      </trkpt>
      <trkpt lat="47.89628" lon="7.06738">
        <ele>1027</ele>
        <time>2016-06-19T08:14:25Z</time>
      </trkpt>
      <trkpt lat="47.89628" lon="7.06716">
        <ele>1026</ele>
        <time>2016-06-19T08:14:37Z</time>
      </trkpt>
      <trkpt lat="47.89624" lon="7.06691">
        <ele>1025</ele>
        <time>2016-06-19T08:14:49Z</time>
      </trkpt>
      <trkpt lat="47.89622" lon="7.06659">
        <ele>1016</ele>
        <time>2016-06-19T08:15:01Z</time>
      </trkpt>
      <trkpt lat="47.89622" lon="7.06651">
        <ele>1015</ele>
        <time>2016-06-19T08:15:03Z</time>
      </trkpt>
      <trkpt lat="47.8962" lon="7.06644">
        <ele>1015</ele>
        <time>2016-06-19T08:15:06Z</time>
      </trkpt>
      <trkpt lat="47.89612" lon="7.06616">
        <ele>1014</ele>
        <time>2016-06-19T08:15:19Z</time>
      </trkpt>
      <trkpt lat="47.89609" lon="7.06602">
        <ele>1014</ele>
        <time>2016-06-19T08:15:32Z</time>
      </trkpt>
      <trkpt lat="47.89601" lon="7.0657">
        <ele>1004</ele>
        <time>2016-06-19T08:15:44Z</time>
      </trkpt>
      <trkpt lat="47.89591" lon="7.06543">
        <ele>998</ele>
        <time>2016-06-19T08:15:55Z</time>
      </trkpt>
      <trkpt lat="47.89592" lon="7.06535">
        <ele>997</ele>
        <time>2016-06-19T08:15:59Z</time>
      </trkpt>
      <trkpt lat="47.89591" lon="7.06526">
        <ele>996</ele>
        <time>2016-06-19T08:16:02Z</time>
      </trkpt>
      <trkpt lat="47.89584" lon="7.06513">
        <ele>998</ele>
        <time>2016-06-19T08:16:12Z</time>
      </trkpt>
      <trkpt lat="47.89579" lon="7.06499">
        <ele>1003</ele>
        <time>2016-06-19T08:16:23Z</time>
      </trkpt>
      <trkpt lat="47.8957" lon="7.06475">
        <ele>1002</ele>
        <time>2016-06-19T08:16:33Z</time>
      </trkpt>
      <trkpt lat="47.89567" lon="7.0647">
        <ele>1002</ele>
        <time>2016-06-19T08:16:40Z</time>
      </trkpt>
      <trkpt lat="47.89555" lon="7.06441">
        <ele>998</ele>
        <time>2016-06-19T08:16:53Z</time>
      </trkpt>
      <trkpt lat="47.89552" lon="7.06435">
        <ele>998</ele>
        <time>2016-06-19T08:16:56Z</time>
      </trkpt>
      <trkpt lat="47.89544" lon="7.06421">
        <ele>999</ele>
        <time>2016-06-19T08:17:10Z</time>
      </trkpt>
      <trkpt lat="47.89542" lon="7.06416">
        <ele>983</ele>
        <time>2016-06-19T08:17:14Z</time>
      </trkpt>
      <trkpt lat="47.89534" lon="7.06394">
        <ele>983</ele>
        <time>2016-06-19T08:17:27Z</time>
      </trkpt>
      <trkpt lat="47.89522" lon="7.0637">
        <ele>982</ele>
        <time>2016-06-19T08:17:37Z</time>
      </trkpt>
      <trkpt lat="47.89519" lon="7.06355">
        <ele>981</ele>
        <time>2016-06-19T08:17:47Z</time>
      </trkpt>
      <trkpt lat="47.89517" lon="7.06348">
        <ele>981</ele>
        <time>2016-06-19T08:17:51Z</time>
      </trkpt>
      <trkpt lat="47.89513" lon="7.06333">
        <ele>975</ele>
        <time>2016-06-19T08:17:59Z</time>
      </trkpt>
      <trkpt lat="47.89507" lon="7.06312">
        <ele>969</ele>
        <time>2016-06-19T08:18:09Z</time>
      </trkpt>
      <trkpt lat="47.89498" lon="7.0629">
        <ele>984</ele>
        <time>2016-06-19T08:18:21Z</time>
      </trkpt>
      <trkpt lat="47.89494" lon="7.06275">
        <ele>981</ele>
        <time>2016-06-19T08:18:25Z</time>
      </trkpt>
      <trkpt lat="47.89491" lon="7.06269">
        <ele>979</ele>
        <time>2016-06-19T08:18:28Z</time>
      </trkpt>
      <trkpt lat="47.89489" lon="7.06261">
        <ele>977</ele>
        <time>2016-06-19T08:18:31Z</time>
      </trkpt>
      <trkpt lat="47.89486" lon="7.06255">
        <ele>976</ele>
        <time>2016-06-19T08:18:41Z</time>
      </trkpt>
      <trkpt lat="47.89481" lon="7.0624">
        <ele>970</ele>
        <time>2016-06-19T08:18:53Z</time>
      </trkpt>
      <trkpt lat="47.8948" lon="7.06226">
        <ele>970</ele>
        <time>2016-06-19T08:19:05Z</time>
      </trkpt>
      <trkpt lat="47.89478" lon="7.06219">
        <ele>970</ele>
        <time>2016-06-19T08:19:09Z</time>
      </trkpt>
      <trkpt lat="47.89472" lon="7.06199">
        <ele>969</ele>
        <time>2016-06-19T08:19:22Z</time>
      </trkpt>
      <trkpt lat="47.89469" lon="7.06177">
        <ele>967</ele>
        <time>2016-06-19T08:19:33Z</time>
      </trkpt>
      <trkpt lat="47.89467" lon="7.0617">
        <ele>967</ele>
        <time>2016-06-19T08:19:37Z</time>
      </trkpt>
      <trkpt lat="47.89461" lon="7.0614">
        <ele>959</ele>
        <time>2016-06-19T08:19:49Z</time>
      </trkpt>
      <trkpt lat="47.89455" lon="7.06118">
        <ele>959</ele>
        <time>2016-06-19T08:19:59Z</time>
      </trkpt>
      <trkpt lat="47.89457" lon="7.0609">
        <ele>958</ele>
        <time>2016-06-19T08:20:10Z</time>
      </trkpt>
      <trkpt lat="47.89458" lon="7.06056">
        <ele>950</ele>
        <time>2016-06-19T08:20:20Z</time>
      </trkpt>
      <trkpt lat="47.89462" lon="7.06049">
        <ele>949</ele>
        <time>2016-06-19T08:20:22Z</time>
      </trkpt>
      <trkpt lat="47.89458" lon="7.06043">
        <ele>949</ele>
        <time>2016-06-19T08:20:24Z</time>
      </trkpt>
      <trkpt lat="47.89456" lon="7.06035">
        <ele>949</ele>
        <time>2016-06-19T08:20:28Z</time>
      </trkpt>
      <trkpt lat="47.8946" lon="7.06013">
        <ele>947</ele>
        <time>2016-06-19T08:20:40Z</time>
      </trkpt>
      <trkpt lat="47.8946" lon="7.06006">
        <ele>947</ele>
        <time>2016-06-19T08:20:44Z</time>
      </trkpt>
      <trkpt lat="47.89459" lon="7.05994">
        <ele>943</ele>
        <time>2016-06-19T08:20:54Z</time>
      </trkpt>
      <trkpt lat="47.89466" lon="7.05973">
        <ele>942</ele>
        <time>2016-06-19T08:21:06Z</time>
      </trkpt>
      <trkpt lat="47.89469" lon="7.05953">
        <ele>941</ele>
        <time>2016-06-19T08:21:17Z</time>
      </trkpt>
      <trkpt lat="47.89468" lon="7.05938">
        <ele>940</ele>
        <time>2016-06-19T08:21:25Z</time>
      </trkpt>
      <trkpt lat="47.89474" lon="7.05918">
        <ele>938</ele>
        <time>2016-06-19T08:21:36Z</time>
      </trkpt>
      <trkpt lat="47.89476" lon="7.05895">
        <ele>936</ele>
        <time>2016-06-19T08:21:48Z</time>
      </trkpt>
      <trkpt lat="47.89476" lon="7.05872">
        <ele>936</ele>
        <time>2016-06-19T08:22:01Z</time>
      </trkpt>
      <trkpt lat="47.89478" lon="7.05863">
        <ele>935</ele>
        <time>2016-06-19T08:22:04Z</time>
      </trkpt>
      <trkpt lat="47.89482" lon="7.0584">
        <ele>931</ele>
        <time>2016-06-19T08:22:14Z</time>
      </trkpt>
      <trkpt lat="47.89479" lon="7.05809">
        <ele>927</ele>
        <time>2016-06-19T08:22:27Z</time>
      </trkpt>
      <trkpt lat="47.89481" lon="7.05801">
        <ele>926</ele>
        <time>2016-06-19T08:22:32Z</time>
      </trkpt>
      <trkpt lat="47.89481" lon="7.05779">
        <ele>923</ele>
        <time>2016-06-19T08:22:42Z</time>
      </trkpt>
      <trkpt lat="47.89475" lon="7.05759">
        <ele>922</ele>
        <time>2016-06-19T08:22:53Z</time>
      </trkpt>
      <trkpt lat="47.8947" lon="7.05726">
        <ele>913</ele>
        <time>2016-06-19T08:23:05Z</time>
      </trkpt>
      <trkpt lat="47.8946" lon="7.05703">
        <ele>912</ele>
        <time>2016-06-19T08:23:16Z</time>
      </trkpt>
      <trkpt lat="47.89458" lon="7.05697">
        <ele>912</ele>
        <time>2016-06-19T08:23:17Z</time>
      </trkpt>
      <trkpt lat="47.89457" lon="7.05691">
        <ele>912</ele>
        <time>2016-06-19T08:23:18Z</time>
      </trkpt>
      <trkpt lat="47.89453" lon="7.05674">
        <ele>911</ele>
        <time>2016-06-19T08:23:22Z</time>
      </trkpt>
      <trkpt lat="47.8945" lon="7.05668">
        <ele>912</ele>
        <time>2016-06-19T08:23:24Z</time>
      </trkpt>
      <trkpt lat="47.89447" lon="7.05659">
        <ele>900</ele>
        <time>2016-06-19T08:23:27Z</time>
      </trkpt>
      <trkpt lat="47.89442" lon="7.05645">
        <ele>899</ele>
        <time>2016-06-19T08:23:32Z</time>
      </trkpt>
      <trkpt lat="47.89433" lon="7.05632">
        <ele>898</ele>
        <time>2016-06-19T08:23:40Z</time>
      </trkpt>
      <trkpt lat="47.89429" lon="7.05624">
        <ele>897</ele>
        <time>2016-06-19T08:23:44Z</time>
      </trkpt>
      <trkpt lat="47.89424" lon="7.05619">
        <ele>896</ele>
        <time>2016-06-19T08:23:47Z</time>
      </trkpt>
      <trkpt lat="47.8942" lon="7.05614">
        <ele>896</ele>
        <time>2016-06-19T08:23:50Z</time>
      </trkpt>
      <trkpt lat="47.89407" lon="7.05598">
        <ele>901</ele>
        <time>2016-06-19T08:24:01Z</time>
      </trkpt>
      <trkpt lat="47.89394" lon="7.05585">
        <ele>901</ele>
        <time>2016-06-19T08:24:11Z</time>
      </trkpt>
      <trkpt lat="47.8939" lon="7.05582">
        <ele>890</ele>
        <time>2016-06-19T08:24:14Z</time>
      </trkpt>
      <trkpt lat="47.89385" lon="7.05578">
        <ele>890</ele>
        <time>2016-06-19T08:24:18Z</time>
      </trkpt>
      <trkpt lat="47.89374" lon="7.05568">
        <ele>889</ele>
        <time>2016-06-19T08:24:29Z</time>
      </trkpt>
      <trkpt lat="47.8936" lon="7.05556">
        <ele>889</ele>
        <time>2016-06-19T08:24:42Z</time>
      </trkpt>
      <trkpt lat="47.89345" lon="7.05544">
        <ele>888</ele>
        <time>2016-06-19T08:24:54Z</time>
      </trkpt>
      <trkpt lat="47.89335" lon="7.05534">
        <ele>887</ele>
        <time>2016-06-19T08:25:05Z</time>
      </trkpt>
      <trkpt lat="47.8932" lon="7.05525">
        <ele>888</ele>
        <time>2016-06-19T08:25:18Z</time>
      </trkpt>
      <trkpt lat="47.89312" lon="7.05514">
        <ele>887</ele>
        <time>2016-06-19T08:25:25Z</time>
      </trkpt>
      <trkpt lat="47.8931" lon="7.05508">
        <ele>887</ele>
        <time>2016-06-19T08:25:27Z</time>
      </trkpt>
      <trkpt lat="47.89306" lon="7.05503">
        <ele>887</ele>
        <time>2016-06-19T08:25:31Z</time>
      </trkpt>
      <trkpt lat="47.89304" lon="7.05497">
        <ele>882</ele>
        <time>2016-06-19T08:25:36Z</time>
      </trkpt>
      <trkpt lat="47.8929" lon="7.05486">
        <ele>882</ele>
        <time>2016-06-19T08:25:50Z</time>
      </trkpt>
      <trkpt lat="47.89271" lon="7.05472">
        <ele>882</ele>
        <time>2016-06-19T08:26:04Z</time>
      </trkpt>
      <trkpt lat="47.89257" lon="7.05461">
        <ele>881</ele>
        <time>2016-06-19T08:26:14Z</time>
      </trkpt>
      <trkpt lat="47.89253" lon="7.05458">
        <ele>881</ele>
        <time>2016-06-19T08:26:18Z</time>
      </trkpt>
      <trkpt lat="47.8924" lon="7.05444">
        <ele>878</ele>
        <time>2016-06-19T08:26:25Z</time>
      </trkpt>
      <trkpt lat="47.89236" lon="7.05437">
        <ele>878</ele>
        <time>2016-06-19T08:26:28Z</time>
      </trkpt>
      <trkpt lat="47.89231" lon="7.05432">
        <ele>878</ele>
        <time>2016-06-19T08:26:31Z</time>
      </trkpt>
      <trkpt lat="47.89228" lon="7.05425">
        <ele>878</ele>
        <time>2016-06-19T08:26:35Z</time>
      </trkpt>
      <trkpt lat="47.89219" lon="7.05404">
        <ele>876</ele>
        <time>2016-06-19T08:26:48Z</time>
      </trkpt>
      <trkpt lat="47.8921" lon="7.05387">
        <ele>875</ele>
        <time>2016-06-19T08:26:59Z</time>
      </trkpt>
      <trkpt lat="47.89204" lon="7.05373">
        <ele>875</ele>
        <time>2016-06-19T08:27:09Z</time>
      </trkpt>
      <trkpt lat="47.89201" lon="7.05353">
        <ele>875</ele>
        <time>2016-06-19T08:27:21Z</time>
      </trkpt>
      <trkpt lat="47.89199" lon="7.05329">
        <ele>873</ele>
        <time>2016-06-19T08:27:32Z</time>
      </trkpt>
      <trkpt lat="47.89198" lon="7.05321">
        <ele>873</ele>
        <time>2016-06-19T08:27:36Z</time>
      </trkpt>
      <trkpt lat="47.89198" lon="7.05304">
        <ele>873</ele>
        <time>2016-06-19T08:27:46Z</time>
      </trkpt>
      <trkpt lat="47.89197" lon="7.05272">
        <ele>872</ele>
        <time>2016-06-19T08:28:00Z</time>
      </trkpt>
      <trkpt lat="47.89197" lon="7.05247">
        <ele>867</ele>
        <time>2016-06-19T08:28:12Z</time>
      </trkpt>
      <trkpt lat="47.89189" lon="7.0523">
        <ele>867</ele>
        <time>2016-06-19T08:28:22Z</time>
      </trkpt>
      <trkpt lat="47.89186" lon="7.05224">
        <ele>867</ele>
        <time>2016-06-19T08:28:28Z</time>
      </trkpt>
      <trkpt lat="47.89184" lon="7.05217">
        <ele>866</ele>
        <time>2016-06-19T08:28:39Z</time>
      </trkpt>
      <trkpt lat="47.89165" lon="7.05184">
        <ele>864</ele>
        <time>2016-06-19T08:28:49Z</time>
      </trkpt>
      <trkpt lat="47.89155" lon="7.05167">
        <ele>864</ele>
        <time>2016-06-19T08:29:01Z</time>
      </trkpt>
      <trkpt lat="47.89136" lon="7.05153">
        <ele>854</ele>
        <time>2016-06-19T08:29:11Z</time>
      </trkpt>
      <trkpt lat="47.89127" lon="7.05142">
        <ele>853</ele>
        <time>2016-06-19T08:29:15Z</time>
      </trkpt>
      <trkpt lat="47.89113" lon="7.05138">
        <ele>852</ele>
        <time>2016-06-19T08:29:26Z</time>
      </trkpt>
      <trkpt lat="47.89104" lon="7.05138">
        <ele>852</ele>
        <time>2016-06-19T08:29:37Z</time>
      </trkpt>
      <trkpt lat="47.89085" lon="7.05143">
        <ele>853</ele>
        <time>2016-06-19T08:29:48Z</time>
      </trkpt>
      <trkpt lat="47.89075" lon="7.05145">
        <ele>851</ele>
        <time>2016-06-19T08:29:52Z</time>
      </trkpt>
      <trkpt lat="47.89066" lon="7.05147">
        <ele>851</ele>
        <time>2016-06-19T08:30:04Z</time>
      </trkpt>
      <trkpt lat="47.89055" lon="7.05149">
        <ele>850</ele>
        <time>2016-06-19T08:30:15Z</time>
      </trkpt>
      <trkpt lat="47.8903" lon="7.05149">
        <ele>850</ele>
        <time>2016-06-19T08:30:27Z</time>
      </trkpt>
      <trkpt lat="47.89024" lon="7.0515">
        <ele>850</ele>
        <time>2016-06-19T08:30:29Z</time>
      </trkpt>
      <trkpt lat="47.89013" lon="7.05149">
        <ele>851</ele>
        <time>2016-06-19T08:30:34Z</time>
      </trkpt>
      <trkpt lat="47.89003" lon="7.05144">
        <ele>850</ele>
        <time>2016-06-19T08:30:44Z</time>
      </trkpt>
      <trkpt lat="47.88998" lon="7.0514">
        <ele>847</ele>
        <time>2016-06-19T08:30:46Z</time>
      </trkpt>
      <trkpt lat="47.88987" lon="7.05136">
        <ele>846</ele>
        <time>2016-06-19T08:30:51Z</time>
      </trkpt>
      <trkpt lat="47.88973" lon="7.05133">
        <ele>845</ele>
        <time>2016-06-19T08:31:01Z</time>
      </trkpt>
      <trkpt lat="47.88964" lon="7.05128">
        <ele>844</ele>
        <time>2016-06-19T08:31:09Z</time>
      </trkpt>
      <trkpt lat="47.88945" lon="7.0512">
        <ele>842</ele>
        <time>2016-06-19T08:31:21Z</time>
      </trkpt>
      <trkpt lat="47.88941" lon="7.05121">
        <ele>842</ele>
        <time>2016-06-19T08:31:23Z</time>
      </trkpt>
      <trkpt lat="47.88919" lon="7.05116">
        <ele>840</ele>
        <time>2016-06-19T08:31:35Z</time>
      </trkpt>
      <trkpt lat="47.88915" lon="7.05115">
        <ele>838</ele>
        <time>2016-06-19T08:31:39Z</time>
      </trkpt>
      <trkpt lat="47.88903" lon="7.05108">
        <ele>837</ele>
        <time>2016-06-19T08:31:49Z</time>
      </trkpt>
      <trkpt lat="47.88885" lon="7.05104">
        <ele>837</ele>
        <time>2016-06-19T08:32:03Z</time>
      </trkpt>
      <trkpt lat="47.88881" lon="7.051">
        <ele>837</ele>
        <time>2016-06-19T08:32:06Z</time>
      </trkpt>
      <trkpt lat="47.8887" lon="7.05086">
        <ele>836</ele>
        <time>2016-06-19T08:32:18Z</time>
      </trkpt>
      <trkpt lat="47.88862" lon="7.05076">
        <ele>822</ele>
        <time>2016-06-19T08:32:25Z</time>
      </trkpt>
      <trkpt lat="47.88851" lon="7.05062">
        <ele>821</ele>
        <time>2016-06-19T08:32:37Z</time>
      </trkpt>
      <trkpt lat="47.88845" lon="7.05058">
        <ele>821</ele>
        <time>2016-06-19T08:32:54Z</time>
      </trkpt>
      <trkpt lat="47.88841" lon="7.05055">
        <ele>820</ele>
        <time>2016-06-19T08:32:57Z</time>
      </trkpt>
      <trkpt lat="47.88827" lon="7.05049">
        <ele>816</ele>
        <time>2016-06-19T08:33:07Z</time>
      </trkpt>
      <trkpt lat="47.88812" lon="7.05045">
        <ele>814</ele>
        <time>2016-06-19T08:33:18Z</time>
      </trkpt>
      <trkpt lat="47.88797" lon="7.05042">
        <ele>813</ele>
        <time>2016-06-19T08:33:29Z</time>
      </trkpt>
      <trkpt lat="47.88779" lon="7.05044">
        <ele>812</ele>
        <time>2016-06-19T08:33:39Z</time>
      </trkpt>
      <trkpt lat="47.88766" lon="7.05039">
        <ele>810</ele>
        <time>2016-06-19T08:33:42Z</time>
      </trkpt>
      <trkpt lat="47.88761" lon="7.05037">
        <ele>810</ele>
        <time>2016-06-19T08:33:44Z</time>
      </trkpt>
      <trkpt lat="47.88746" lon="7.05038">
        <ele>801</ele>
        <time>2016-06-19T08:33:54Z</time>
      </trkpt>
      <trkpt lat="47.88736" lon="7.05043">
        <ele>802</ele>
        <time>2016-06-19T08:34:00Z</time>
      </trkpt>
      <trkpt lat="47.8872" lon="7.05041">
        <ele>800</ele>
        <time>2016-06-19T08:34:10Z</time>
      </trkpt>
      <trkpt lat="47.88703" lon="7.05034">
        <ele>798</ele>
        <time>2016-06-19T08:34:21Z</time>
      </trkpt>
      <trkpt lat="47.88693" lon="7.05036">
        <ele>797</ele>
        <time>2016-06-19T08:34:31Z</time>
      </trkpt>
      <trkpt lat="47.88675" lon="7.05035">
        <ele>795</ele>
        <time>2016-06-19T08:34:42Z</time>
      </trkpt>
      <trkpt lat="47.8867" lon="7.05035">
        <ele>795</ele>
        <time>2016-06-19T08:34:46Z</time>
      </trkpt>
      <trkpt lat="47.88661" lon="7.05033">
        <ele>787</ele>
        <time>2016-06-19T08:34:58Z</time>
      </trkpt>
      <trkpt lat="47.88639" lon="7.05037">
        <ele>787</ele>
        <time>2016-06-19T08:35:13Z</time>
      </trkpt>
      <trkpt lat="47.88625" lon="7.05039">
        <ele>787</ele>
        <time>2016-06-19T08:35:25Z</time>
      </trkpt>
      <trkpt lat="47.8861" lon="7.0504">
        <ele>786</ele>
        <time>2016-06-19T08:35:35Z</time>
      </trkpt>
      <trkpt lat="47.88595" lon="7.0504">
        <ele>785</ele>
        <time>2016-06-19T08:35:47Z</time>
      </trkpt>
      <trkpt lat="47.88589" lon="7.05039">
        <ele>785</ele>
        <time>2016-06-19T08:35:50Z</time>
      </trkpt>
      <trkpt lat="47.88569" lon="7.05039">
        <ele>779</ele>
        <time>2016-06-19T08:36:01Z</time>
      </trkpt>
      <trkpt lat="47.88553" lon="7.05033">
        <ele>778</ele>
        <time>2016-06-19T08:36:10Z</time>
      </trkpt>
      <trkpt lat="47.88544" lon="7.0503">
        <ele>777</ele>
        <time>2016-06-19T08:36:18Z</time>
      </trkpt>
      <trkpt lat="47.8853" lon="7.05028">
        <ele>776</ele>
        <time>2016-06-19T08:36:29Z</time>
      </trkpt>
      <trkpt lat="47.88518" lon="7.05024">
        <ele>775</ele>
        <time>2016-06-19T08:36:34Z</time>
      </trkpt>
      <trkpt lat="47.88499" lon="7.05009">
        <ele>769</ele>
        <time>2016-06-19T08:36:43Z</time>
      </trkpt>
      <trkpt lat="47.88479" lon="7.04997">
        <ele>763</ele>
        <time>2016-06-19T08:36:53Z</time>
      </trkpt>
      <trkpt lat="47.88463" lon="7.04994">
        <ele>762</ele>
        <time>2016-06-19T08:37:05Z</time>
      </trkpt>
      <trkpt lat="47.88448" lon="7.04988">
        <ele>761</ele>
        <time>2016-06-19T08:37:17Z</time>
      </trkpt>
      <trkpt lat="47.88433" lon="7.04979">
        <ele>761</ele>
        <time>2016-06-19T08:37:27Z</time>
      </trkpt>
      <trkpt lat="47.88416" lon="7.04965">
        <ele>761</ele>
        <time>2016-06-19T08:37:39Z</time>
      </trkpt>
      <trkpt lat="47.88408" lon="7.04953">
        <ele>760</ele>
        <time>2016-06-19T08:37:46Z</time>
      </trkpt>
      <trkpt lat="47.88402" lon="7.04932">
        <ele>759</ele>
        <time>2016-06-19T08:37:57Z</time>
      </trkpt>
      <trkpt lat="47.88399" lon="7.04927">
        <ele>759</ele>
        <time>2016-06-19T08:38:00Z</time>
      </trkpt>
      <trkpt lat="47.88388" lon="7.04908">
        <ele>752</ele>
        <time>2016-06-19T08:38:13Z</time>
      </trkpt>
      <trkpt lat="47.88377" lon="7.0489">
        <ele>752</ele>
        <time>2016-06-19T08:38:25Z</time>
      </trkpt>
      <trkpt lat="47.88365" lon="7.04874">
        <ele>751</ele>
        <time>2016-06-19T08:38:37Z</time>
      </trkpt>
      <trkpt lat="47.88355" lon="7.04856">
        <ele>751</ele>
        <time>2016-06-19T08:38:48Z</time>
      </trkpt>
      <trkpt lat="47.88347" lon="7.04847">
        <ele>751</ele>
        <time>2016-06-19T08:38:59Z</time>
      </trkpt>
      <trkpt lat="47.88337" lon="7.04816">
        <ele>743</ele>
        <time>2016-06-19T08:39:12Z</time>
      </trkpt>
      <trkpt lat="47.8833" lon="7.04797">
        <ele>750</ele>
        <time>2016-06-19T08:39:22Z</time>
      </trkpt>
      <trkpt lat="47.88322" lon="7.04778">
        <ele>747</ele>
        <time>2016-06-19T08:39:32Z</time>
      </trkpt>
      <trkpt lat="47.88312" lon="7.04762">
        <ele>746</ele>
        <time>2016-06-19T08:39:45Z</time>
      </trkpt>
      <trkpt lat="47.88303" lon="7.0474">
        <ele>742</ele>
        <time>2016-06-19T08:39:57Z</time>
      </trkpt>
      <trkpt lat="47.88297" lon="7.04719">
        <ele>742</ele>
        <time>2016-06-19T08:40:07Z</time>
      </trkpt>
      <trkpt lat="47.88296" lon="7.04711">
        <ele>742</ele>
        <time>2016-06-19T08:40:10Z</time>
      </trkpt>
      <trkpt lat="47.88294" lon="7.04689">
        <ele>741</ele>
        <time>2016-06-19T08:40:20Z</time>
      </trkpt>
      <trkpt lat="47.88293" lon="7.04656">
        <ele>733</ele>
        <time>2016-06-19T08:40:33Z</time>
      </trkpt>
      <trkpt lat="47.88292" lon="7.04648">
        <ele>733</ele>
        <time>2016-06-19T08:40:37Z</time>
      </trkpt>
      <trkpt lat="47.88291" lon="7.04618">
        <ele>731</ele>
        <time>2016-06-19T08:40:50Z</time>
      </trkpt>
      <trkpt lat="47.88285" lon="7.04595">
        <ele>731</ele>
        <time>2016-06-19T08:41:01Z</time>
      </trkpt>
      <trkpt lat="47.88274" lon="7.04576">
        <ele>724</ele>
        <time>2016-06-19T08:41:12Z</time>
      </trkpt>
      <trkpt lat="47.88271" lon="7.04569">
        <ele>724</ele>
        <time>2016-06-19T08:41:15Z</time>
      </trkpt>
      <trkpt lat="47.88255" lon="7.04544">
        <ele>720</ele>
        <time>2016-06-19T08:41:27Z</time>
      </trkpt>
      <trkpt lat="47.88246" lon="7.04527">
        <ele>734</ele>
        <time>2016-06-19T08:41:38Z</time>
      </trkpt>
      <trkpt lat="47.88235" lon="7.04509">
        <ele>730</ele>
        <time>2016-06-19T08:41:47Z</time>
      </trkpt>
      <trkpt lat="47.88224" lon="7.04491">
        <ele>722</ele>
        <time>2016-06-19T08:42:00Z</time>
      </trkpt>
      <trkpt lat="47.88216" lon="7.04463">
        <ele>721</ele>
        <time>2016-06-19T08:42:13Z</time>
      </trkpt>
      <trkpt lat="47.88207" lon="7.04444">
        <ele>720</ele>
        <time>2016-06-19T08:42:23Z</time>
      </trkpt>
      <trkpt lat="47.882" lon="7.04426">
        <ele>720</ele>
        <time>2016-06-19T08:42:34Z</time>
      </trkpt>
      <trkpt lat="47.8819" lon="7.04406">
        <ele>710</ele>
        <time>2016-06-19T08:42:47Z</time>
      </trkpt>
      <trkpt lat="47.88183" lon="7.04394">
        <ele>709</ele>
        <time>2016-06-19T08:42:55Z</time>
      </trkpt>
      <trkpt lat="47.88171" lon="7.04378">
        <ele>707</ele>
        <time>2016-06-19T08:43:07Z</time>
      </trkpt>
      <trkpt lat="47.88167" lon="7.04374">
        <ele>706</ele>
        <time>2016-06-19T08:43:10Z</time>
      </trkpt>
      <trkpt lat="47.88155" lon="7.04354">
        <ele>717</ele>
        <time>2016-06-19T08:43:20Z</time>
      </trkpt>
      <trkpt lat="47.88146" lon="7.04344">
        <ele>717</ele>
        <time>2016-06-19T08:43:26Z</time>
      </trkpt>
      <trkpt lat="47.8813" lon="7.04326">
        <ele>705</ele>
        <time>2016-06-19T08:43:40Z</time>
      </trkpt>
      <trkpt lat="47.88113" lon="7.04303">
        <ele>705</ele>
        <time>2016-06-19T08:43:51Z</time>
      </trkpt>
      <trkpt lat="47.88091" lon="7.04285">
        <ele>704</ele>
        <time>2016-06-19T08:44:04Z</time>
      </trkpt>
      <trkpt lat="47.88077" lon="7.0427">
        <ele>703</ele>
        <time>2016-06-19T08:44:16Z</time>
      </trkpt>
      <trkpt lat="47.8806" lon="7.04262">
        <ele>702</ele>
        <time>2016-06-19T08:44:26Z</time>
      </trkpt>
      <trkpt lat="47.88042" lon="7.04253">
        <ele>701</ele>
        <time>2016-06-19T08:44:36Z</time>
      </trkpt>
      <trkpt lat="47.88026" lon="7.04254">
        <ele>699</ele>
        <time>2016-06-19T08:44:48Z</time>
      </trkpt>
      <trkpt lat="47.88007" lon="7.04256">
        <ele>693</ele>
        <time>2016-06-19T08:44:59Z</time>
      </trkpt>
      <trkpt lat="47.87995" lon="7.04266">
        <ele>687</ele>
        <time>2016-06-19T08:45:12Z</time>
      </trkpt>
      <trkpt lat="47.87978" lon="7.04277">
        <ele>686</ele>
        <time>2016-06-19T08:45:24Z</time>
      </trkpt>
      <trkpt lat="47.8796" lon="7.04288">
        <ele>685</ele>
        <time>2016-06-19T08:45:35Z</time>
      </trkpt>
      <trkpt lat="47.87956" lon="7.04293">
        <ele>685</ele>
        <time>2016-06-19T08:45:38Z</time>
      </trkpt>
      <trkpt lat="47.87949" lon="7.04303">
        <ele>686</ele>
        <time>2016-06-19T08:45:44Z</time>
      </trkpt>
      <trkpt lat="47.87937" lon="7.04319">
        <ele>686</ele>
        <time>2016-06-19T08:45:54Z</time>
      </trkpt>
      <trkpt lat="47.87933" lon="7.04323">
        <ele>686</ele>
        <time>2016-06-19T08:45:57Z</time>
      </trkpt>
      <trkpt lat="47.87922" lon="7.04338">
        <ele>692</ele>
        <time>2016-06-19T08:46:07Z</time>
      </trkpt>
      <trkpt lat="47.87906" lon="7.0434">
        <ele>687</ele>
        <time>2016-06-19T08:46:16Z</time>
      </trkpt>
      <trkpt lat="47.87899" lon="7.0434">
        <ele>687</ele>
        <time>2016-06-19T08:46:19Z</time>
      </trkpt>
      <trkpt lat="47.87889" lon="7.04337">
        <ele>686</ele>
        <time>2016-06-19T08:46:25Z</time>
      </trkpt>
      <trkpt lat="47.87884" lon="7.04336">
        <ele>685</ele>
        <time>2016-06-19T08:46:29Z</time>
      </trkpt>
      <trkpt lat="47.87873" lon="7.04349">
        <ele>684</ele>
        <time>2016-06-19T08:46:40Z</time>
      </trkpt>
      <trkpt lat="47.87859" lon="7.04361">
        <ele>684</ele>
        <time>2016-06-19T08:46:50Z</time>
      </trkpt>
      <trkpt lat="47.87853" lon="7.04361">
        <ele>683</ele>
        <time>2016-06-19T08:46:52Z</time>
      </trkpt>
      <trkpt lat="47.87838" lon="7.04362">
        <ele>681</ele>
        <time>2016-06-19T08:47:03Z</time>
      </trkpt>
      <trkpt lat="47.87829" lon="7.04365">
        <ele>669</ele>
        <time>2016-06-19T08:47:16Z</time>
      </trkpt>
      <trkpt lat="47.87806" lon="7.04368">
        <ele>668</ele>
        <time>2016-06-19T08:47:26Z</time>
      </trkpt>
      <trkpt lat="47.87785" lon="7.04378">
        <ele>667</ele>
        <time>2016-06-19T08:47:36Z</time>
      </trkpt>
      <trkpt lat="47.87775" lon="7.04375">
        <ele>666</ele>
        <time>2016-06-19T08:47:41Z</time>
      </trkpt>
      <trkpt lat="47.87753" lon="7.04374">
        <ele>663</ele>
        <time>2016-06-19T08:47:54Z</time>
      </trkpt>
      <trkpt lat="47.87748" lon="7.04379">
        <ele>653</ele>
        <time>2016-06-19T08:47:59Z</time>
      </trkpt>
      <trkpt lat="47.87734" lon="7.0438">
        <ele>653</ele>
        <time>2016-06-19T08:48:11Z</time>
      </trkpt>
      <trkpt lat="47.87718" lon="7.04388">
        <ele>653</ele>
        <time>2016-06-19T08:48:21Z</time>
      </trkpt>
      <trkpt lat="47.87699" lon="7.04389">
        <ele>651</ele>
        <time>2016-06-19T08:48:33Z</time>
      </trkpt>
      <trkpt lat="47.8768" lon="7.04392">
        <ele>651</ele>
        <time>2016-06-19T08:48:47Z</time>
      </trkpt>
      <trkpt lat="47.8767" lon="7.04409">
        <ele>654</ele>
        <time>2016-06-19T08:48:58Z</time>
      </trkpt>
      <trkpt lat="47.8766" lon="7.04419">
        <ele>660</ele>
        <time>2016-06-19T08:49:08Z</time>
      </trkpt>
      <trkpt lat="47.8765" lon="7.04419">
        <ele>664</ele>
        <time>2016-06-19T08:49:17Z</time>
      </trkpt>
      <trkpt lat="47.87626" lon="7.04403">
        <ele>649</ele>
        <time>2016-06-19T08:49:30Z</time>
      </trkpt>
      <trkpt lat="47.87622" lon="7.04399">
        <ele>649</ele>
        <time>2016-06-19T08:49:33Z</time>
      </trkpt>
      <trkpt lat="47.87621" lon="7.04391">
        <ele>648</ele>
        <time>2016-06-19T08:49:38Z</time>
      </trkpt>
      <trkpt lat="47.87614" lon="7.04381">
        <ele>646</ele>
        <time>2016-06-19T08:49:50Z</time>
      </trkpt>
      <trkpt lat="47.87609" lon="7.04361">
        <ele>643</ele>
        <time>2016-06-19T08:50:03Z</time>
      </trkpt>
      <trkpt lat="47.876" lon="7.04352">
        <ele>641</ele>
        <time>2016-06-19T08:50:16Z</time>
      </trkpt>
      <trkpt lat="47.87585" lon="7.04339">
        <ele>637</ele>
        <time>2016-06-19T08:50:28Z</time>
      </trkpt>
      <trkpt lat="47.87579" lon="7.04327">
        <ele>634</ele>
        <time>2016-06-19T08:50:33Z</time>
      </trkpt>
      <trkpt lat="47.87567" lon="7.04311">
        <ele>632</ele>
        <time>2016-06-19T08:50:45Z</time>
      </trkpt>
      <trkpt lat="47.87562" lon="7.04307">
        <ele>632</ele>
        <time>2016-06-19T08:50:49Z</time>
      </trkpt>
      <trkpt lat="47.87558" lon="7.04302">
        <ele>631</ele>
        <time>2016-06-19T08:50:52Z</time>
      </trkpt>
      <trkpt lat="47.87555" lon="7.04297">
        <ele>631</ele>
        <time>2016-06-19T08:50:54Z</time>
      </trkpt>
      <trkpt lat="47.87548" lon="7.04288">
        <ele>630</ele>
        <time>2016-06-19T08:51:00Z</time>
      </trkpt>
      <trkpt lat="47.87535" lon="7.0426">
        <ele>628</ele>
        <time>2016-06-19T08:51:11Z</time>
      </trkpt>
      <trkpt lat="47.87531" lon="7.04254">
        <ele>628</ele>
        <time>2016-06-19T08:51:15Z</time>
      </trkpt>
      <trkpt lat="47.87518" lon="7.0423">
        <ele>615</ele>
        <time>2016-06-19T08:51:27Z</time>
      </trkpt>
      <trkpt lat="47.87507" lon="7.04214">
        <ele>612</ele>
        <time>2016-06-19T08:51:40Z</time>
      </trkpt>
      <trkpt lat="47.87503" lon="7.04202">
        <ele>610</ele>
        <time>2016-06-19T08:51:50Z</time>
      </trkpt>
      <trkpt lat="47.875" lon="7.04194">
        <ele>609</ele>
        <time>2016-06-19T08:51:58Z</time>
      </trkpt>
      <trkpt lat="47.87485" lon="7.04182">
        <ele>615</ele>
        <time>2016-06-19T08:52:10Z</time>
      </trkpt>
      <trkpt lat="47.87469" lon="7.04161">
        <ele>604</ele>
        <time>2016-06-19T08:52:22Z</time>
      </trkpt>
      <trkpt lat="47.87458" lon="7.04144">
        <ele>604</ele>
        <time>2016-06-19T08:52:32Z</time>
      </trkpt>
      <trkpt lat="47.87443" lon="7.04134">
        <ele>603</ele>
        <time>2016-06-19T08:52:42Z</time>
      </trkpt>
      <trkpt lat="47.8742" lon="7.04117">
        <ele>602</ele>
        <time>2016-06-19T08:52:54Z</time>
      </trkpt>
      <trkpt lat="47.87409" lon="7.04118">
        <ele>604</ele>
        <time>2016-06-19T08:53:03Z</time>
      </trkpt>
      <trkpt lat="47.87399" lon="7.04113">
        <ele>604</ele>
        <time>2016-06-19T08:53:12Z</time>
      </trkpt>
      <trkpt lat="47.87379" lon="7.04107">
        <ele>604</ele>
        <time>2016-06-19T08:53:22Z</time>
      </trkpt>
      <trkpt lat="47.8737" lon="7.04098">
        <ele>603</ele>
        <time>2016-06-19T08:53:28Z</time>
      </trkpt>
      <trkpt lat="47.87354" lon="7.04091">
        <ele>602</ele>
        <time>2016-06-19T08:53:40Z</time>
      </trkpt>
      <trkpt lat="47.87347" lon="7.04081">
        <ele>594</ele>
        <time>2016-06-19T08:53:50Z</time>
      </trkpt>
      <trkpt lat="47.87335" lon="7.04067">
        <ele>593</ele>
        <time>2016-06-19T08:54:00Z</time>
      </trkpt>
      <trkpt lat="47.87333" lon="7.04061">
        <ele>595</ele>
        <time>2016-06-19T08:54:03Z</time>
      </trkpt>
      <trkpt lat="47.87342" lon="7.04055">
        <ele>590</ele>
        <time>2016-06-19T08:54:21Z</time>
      </trkpt>
      <trkpt lat="47.87351" lon="7.04056">
        <ele>590</ele>
        <time>2016-06-19T08:54:31Z</time>
      </trkpt>
      <trkpt lat="47.87356" lon="7.04056">
        <ele>590</ele>
        <time>2016-06-19T08:54:36Z</time>
      </trkpt>
      <trkpt lat="47.8737" lon="7.04057">
        <ele>590</ele>
        <time>2016-06-19T08:54:46Z</time>
      </trkpt>
      <trkpt lat="47.87381" lon="7.04053">
        <ele>589</ele>
        <time>2016-06-19T08:54:51Z</time>
      </trkpt>
      <trkpt lat="47.87392" lon="7.04041">
        <ele>587</ele>
        <time>2016-06-19T08:55:02Z</time>
      </trkpt>
      <trkpt lat="47.87386" lon="7.04039">
        <ele>587</ele>
        <time>2016-06-19T08:55:08Z</time>
      </trkpt>
      <trkpt lat="47.87368" lon="7.04028">
        <ele>586</ele>
        <time>2016-06-19T08:55:20Z</time>
      </trkpt>
      <trkpt lat="47.87356" lon="7.04007">
        <ele>584</ele>
        <time>2016-06-19T08:55:33Z</time>
      </trkpt>
      <trkpt lat="47.87352" lon="7.04004">
        <ele>584</ele>
        <time>2016-06-19T08:55:37Z</time>
      </trkpt>
      <trkpt lat="47.87339" lon="7.03993">
        <ele>576</ele>
        <time>2016-06-19T08:55:48Z</time>
      </trkpt>
      <trkpt lat="47.87332" lon="7.03983">
        <ele>575</ele>
        <time>2016-06-19T08:55:59Z</time>
      </trkpt>
      <trkpt lat="47.87318" lon="7.03969">
        <ele>572</ele>
        <time>2016-06-19T08:56:09Z</time>
      </trkpt>
      <trkpt lat="47.87304" lon="7.03954">
        <ele>570</ele>
        <time>2016-06-19T08:56:19Z</time>
      </trkpt>
      <trkpt lat="47.87299" lon="7.03935">
        <ele>567</ele>
        <time>2016-06-19T08:56:34Z</time>
      </trkpt>
      <trkpt lat="47.87298" lon="7.03928">
        <ele>567</ele>
        <time>2016-06-19T08:56:37Z</time>
      </trkpt>
      <trkpt lat="47.87295" lon="7.03923">
        <ele>566</ele>
        <time>2016-06-19T08:56:40Z</time>
      </trkpt>
      <trkpt lat="47.87289" lon="7.0391">
        <ele>548</ele>
        <time>2016-06-19T08:56:53Z</time>
      </trkpt>
      <trkpt lat="47.87273" lon="7.03909">
        <ele>549</ele>
        <time>2016-06-19T08:57:06Z</time>
      </trkpt>
      <trkpt lat="47.87268" lon="7.03909">
        <ele>550</ele>
        <time>2016-06-19T08:57:09Z</time>
      </trkpt>
      <trkpt lat="47.87264" lon="7.03907">
        <ele>551</ele>
        <time>2016-06-19T08:57:16Z</time>
      </trkpt>
      <trkpt lat="47.87254" lon="7.03906">
        <ele>553</ele>
        <time>2016-06-19T08:57:26Z</time>
      </trkpt>
      <trkpt lat="47.87249" lon="7.039">
        <ele>542</ele>
        <time>2016-06-19T08:57:49Z</time>
      </trkpt>
      <trkpt lat="47.87258" lon="7.03892">
        <ele>547</ele>
        <time>2016-06-19T08:57:59Z</time>
      </trkpt>
      <trkpt lat="47.87271" lon="7.03883">
        <ele>544</ele>
        <time>2016-06-19T08:58:11Z</time>
      </trkpt>
      <trkpt lat="47.87286" lon="7.03872">
        <ele>542</ele>
        <time>2016-06-19T08:58:21Z</time>
      </trkpt>
      <trkpt lat="47.87294" lon="7.03861">
        <ele>540</ele>
        <time>2016-06-19T08:58:31Z</time>
      </trkpt>
      <trkpt lat="47.87308" lon="7.0384">
        <ele>537</ele>
        <time>2016-06-19T08:58:45Z</time>
      </trkpt>
      <trkpt lat="47.87308" lon="7.03834">
        <ele>537</ele>
        <time>2016-06-19T08:58:49Z</time>
      </trkpt>
      <trkpt lat="47.87303" lon="7.03813">
        <ele>517</ele>
        <time>2016-06-19T08:59:00Z</time>
      </trkpt>
      <trkpt lat="47.8731" lon="7.03805">
        <ele>516</ele>
        <time>2016-06-19T08:59:10Z</time>
      </trkpt>
      <trkpt lat="47.87321" lon="7.03807">
        <ele>518</ele>
        <time>2016-06-19T08:59:44Z</time>
      </trkpt>
      <trkpt lat="47.87345" lon="7.03798">
        <ele>523</ele>
        <time>2016-06-19T08:59:55Z</time>
      </trkpt>
      <trkpt lat="47.8735" lon="7.03796">
        <ele>523</ele>
        <time>2016-06-19T08:59:57Z</time>
      </trkpt>
      <trkpt lat="47.87357" lon="7.03779">
        <ele>520</ele>
        <time>2016-06-19T09:00:18Z</time>
      </trkpt>
      <trkpt lat="47.87351" lon="7.03781">
        <ele>519</ele>
        <time>2016-06-19T09:00:27Z</time>
      </trkpt>
      <trkpt lat="47.87334" lon="7.03762">
        <ele>512</ele>
        <time>2016-06-19T09:00:40Z</time>
      </trkpt>
      <trkpt lat="47.8733" lon="7.03756">
        <ele>507</ele>
        <time>2016-06-19T09:00:45Z</time>
      </trkpt>
      <trkpt lat="47.87322" lon="7.03748">
        <ele>497</ele>
        <time>2016-06-19T09:00:58Z</time>
      </trkpt>
      <trkpt lat="47.87305" lon="7.03745">
        <ele>491</ele>
        <time>2016-06-19T09:01:11Z</time>
      </trkpt>
      <trkpt lat="47.873" lon="7.03742">
        <ele>490</ele>
        <time>2016-06-19T09:01:17Z</time>
      </trkpt>
      <trkpt lat="47.87279" lon="7.03738">
        <ele>487</ele>
        <time>2016-06-19T09:01:30Z</time>
      </trkpt>
      <trkpt lat="47.87267" lon="7.03748">
        <ele>488</ele>
        <time>2016-06-19T09:01:40Z</time>
      </trkpt>
      <trkpt lat="47.87258" lon="7.03754">
        <ele>496</ele>
        <time>2016-06-19T09:01:46Z</time>
      </trkpt>
      <trkpt lat="47.87244" lon="7.03753">
        <ele>490</ele>
        <time>2016-06-19T09:01:58Z</time>
      </trkpt>
      <trkpt lat="47.8724" lon="7.03741">
        <ele>479</ele>
        <time>2016-06-19T09:02:11Z</time>
      </trkpt>
      <trkpt lat="47.87246" lon="7.03718">
        <ele>470</ele>
        <time>2016-06-19T09:02:23Z</time>
      </trkpt>
      <trkpt lat="47.87258" lon="7.03701">
        <ele>479</ele>
        <time>2016-06-19T09:02:35Z</time>
      </trkpt>
      <trkpt lat="47.87263" lon="7.03698">
        <ele>479</ele>
        <time>2016-06-19T09:02:40Z</time>
      </trkpt>
      <trkpt lat="47.87274" lon="7.03681">
        <ele>477</ele>
        <time>2016-06-19T09:02:52Z</time>
      </trkpt>
      <trkpt lat="47.8728" lon="7.03661">
        <ele>461</ele>
        <time>2016-06-19T09:03:04Z</time>
      </trkpt>
      <trkpt lat="47.87285" lon="7.03653">
        <ele>461</ele>
        <time>2016-06-19T09:03:09Z</time>
      </trkpt>
      <trkpt lat="47.87288" lon="7.03648">
        <ele>461</ele>
        <time>2016-06-19T09:03:13Z</time>
      </trkpt>
      <trkpt lat="47.87293" lon="7.03648">
        <ele>461</ele>
        <time>2016-06-19T09:03:20Z</time>
      </trkpt>
      <trkpt lat="47.87299" lon="7.03645">
        <ele>462</ele>
        <time>2016-06-19T09:03:40Z</time>
      </trkpt>
      <trkpt lat="47.87325" lon="7.03632">
        <ele>462</ele>
        <time>2016-06-19T09:03:52Z</time>
      </trkpt>
      <trkpt lat="47.87331" lon="7.03628">
        <ele>461</ele>
        <time>2016-06-19T09:03:54Z</time>
      </trkpt>
      <trkpt lat="47.87346" lon="7.03621">
        <ele>468</ele>
        <time>2016-06-19T09:04:05Z</time>
      </trkpt>
      <trkpt lat="47.87357" lon="7.03625">
        <ele>469</ele>
        <time>2016-06-19T09:04:15Z</time>
      </trkpt>
      <trkpt lat="47.87361" lon="7.03622">
        <ele>469</ele>
        <time>2016-06-19T09:04:23Z</time>
      </trkpt>
      <trkpt lat="47.87367" lon="7.03607">
        <ele>467</ele>
        <time>2016-06-19T09:04:38Z</time>
      </trkpt>
      <trkpt lat="47.87357" lon="7.03604">
        <ele>465</ele>
        <time>2016-06-19T09:04:49Z</time>
      </trkpt>
      <trkpt lat="47.87357" lon="7.03591">
        <ele>463</ele>
        <time>2016-06-19T09:05:02Z</time>
      </trkpt>
      <trkpt lat="47.87365" lon="7.03584">
        <ele>463</ele>
        <time>2016-06-19T09:05:12Z</time>
      </trkpt>
      <trkpt lat="47.87376" lon="7.03565">
        <ele>448</ele>
        <time>2016-06-19T09:05:24Z</time>
      </trkpt>
      <trkpt lat="47.87385" lon="7.0354">
        <ele>446</ele>
        <time>2016-06-19T09:05:34Z</time>
      </trkpt>
      <trkpt lat="47.87404" lon="7.03522">
        <ele>444</ele>
        <time>2016-06-19T09:05:45Z</time>
      </trkpt>
      <trkpt lat="47.87408" lon="7.03521">
        <ele>444</ele>
        <time>2016-06-19T09:05:48Z</time>
      </trkpt>
      <trkpt lat="47.87418" lon="7.03514">
        <ele>447</ele>
        <time>2016-06-19T09:06:01Z</time>
      </trkpt>
      <trkpt lat="47.8743" lon="7.03495">
        <ele>439</ele>
        <time>2016-06-19T09:06:14Z</time>
      </trkpt>
      <trkpt lat="47.87434" lon="7.03489">
        <ele>439</ele>
        <time>2016-06-19T09:06:17Z</time>
      </trkpt>
      <trkpt lat="47.87444" lon="7.03471">
        <ele>438</ele>
        <time>2016-06-19T09:06:29Z</time>
      </trkpt>
      <trkpt lat="47.8745" lon="7.03455">
        <ele>437</ele>
        <time>2016-06-19T09:06:34Z</time>
      </trkpt>
      <trkpt lat="47.87452" lon="7.03448">
        <ele>437</ele>
        <time>2016-06-19T09:06:35Z</time>
      </trkpt>
      <trkpt lat="47.87459" lon="7.03429">
        <ele>436</ele>
        <time>2016-06-19T09:06:45Z</time>
      </trkpt>
      <trkpt lat="47.87464" lon="7.03415">
        <ele>428</ele>
        <time>2016-06-19T09:06:55Z</time>
      </trkpt>
      <trkpt lat="47.87473" lon="7.03398">
        <ele>428</ele>
        <time>2016-06-19T09:07:07Z</time>
      </trkpt>
      <trkpt lat="47.87483" lon="7.03381">
        <ele>427</ele>
        <time>2016-06-19T09:07:17Z</time>
      </trkpt>
      <trkpt lat="47.87487" lon="7.03376">
        <ele>427</ele>
        <time>2016-06-19T09:07:22Z</time>
      </trkpt>
      <trkpt lat="47.8749" lon="7.03367">
        <ele>427</ele>
        <time>2016-06-19T09:07:26Z</time>
      </trkpt>
      <trkpt lat="47.87495" lon="7.03363">
        <ele>426</ele>
        <time>2016-06-19T09:07:30Z</time>
      </trkpt>
      <trkpt lat="47.8751" lon="7.03344">
        <ele>430</ele>
        <time>2016-06-19T09:07:42Z</time>
      </trkpt>
      <trkpt lat="47.87518" lon="7.03325">
        <ele>425</ele>
        <time>2016-06-19T09:07:53Z</time>
      </trkpt>
      <trkpt lat="47.87524" lon="7.03312">
        <ele>425</ele>
        <time>2016-06-19T09:08:07Z</time>
      </trkpt>
      <trkpt lat="47.8753" lon="7.03298">
        <ele>425</ele>
        <time>2016-06-19T09:08:18Z</time>
      </trkpt>
      <trkpt lat="47.87533" lon="7.03293">
        <ele>425</ele>
        <time>2016-06-19T09:08:21Z</time>
      </trkpt>
      <trkpt lat="47.87536" lon="7.03288">
        <ele>424</ele>
        <time>2016-06-19T09:08:25Z</time>
      </trkpt>
      <trkpt lat="47.87535" lon="7.03281">
        <ele>424</ele>
        <time>2016-06-19T09:08:35Z</time>
      </trkpt>
      <trkpt lat="47.87523" lon="7.03263">
        <ele>422</ele>
        <time>2016-06-19T09:08:56Z</time>
      </trkpt>
      <trkpt lat="47.875" lon="7.03241">
        <ele>418</ele>
        <time>2016-06-19T09:09:07Z</time>
      </trkpt>
      <trkpt lat="47.87485" lon="7.03233">
        <ele>417</ele>
        <time>2016-06-19T09:09:17Z</time>
      </trkpt>
      <trkpt lat="47.87483" lon="7.03227">
        <ele>417</ele>
        <time>2016-06-19T09:09:23Z</time>
      </trkpt>
      <trkpt lat="47.8748" lon="7.03219">
        <ele>417</ele>
        <time>2016-06-19T09:09:30Z</time>
      </trkpt>
      <trkpt lat="47.87465" lon="7.0321">
        <ele>417</ele>
        <time>2016-06-19T09:09:42Z</time>
      </trkpt>
      <trkpt lat="47.87461" lon="7.03204">
        <ele>417</ele>
        <time>2016-06-19T09:09:45Z</time>
      </trkpt>
      <trkpt lat="47.87459" lon="7.03198">
        <ele>417</ele>
        <time>2016-06-19T09:09:47Z</time>
      </trkpt>
      <trkpt lat="47.87444" lon="7.03184">
        <ele>417</ele>
        <time>2016-06-19T09:09:58Z</time>
      </trkpt>
      <trkpt lat="47.8744" lon="7.03178">
        <ele>416</ele>
        <time>2016-06-19T09:10:04Z</time>
      </trkpt>
      <trkpt lat="47.87431" lon="7.0316">
        <ele>416</ele>
        <time>2016-06-19T09:10:15Z</time>
      </trkpt>
      <trkpt lat="47.87425" lon="7.03161">
        <ele>416</ele>
        <time>2016-06-19T09:10:18Z</time>
      </trkpt>
      <trkpt lat="47.87409" lon="7.03162">
        <ele>415</ele>
        <time>2016-06-19T09:10:29Z</time>
      </trkpt>
      <trkpt lat="47.87399" lon="7.03163">
        <ele>415</ele>
        <time>2016-06-19T09:10:41Z</time>
      </trkpt>
      <trkpt lat="47.87389" lon="7.03165">
        <ele>414</ele>
        <time>2016-06-19T09:10:54Z</time>
      </trkpt>
      <trkpt lat="47.87376" lon="7.03175">
        <ele>413</ele>
        <time>2016-06-19T09:11:04Z</time>
      </trkpt>
      <trkpt lat="47.87359" lon="7.03192">
        <ele>413</ele>
        <time>2016-06-19T09:11:17Z</time>
      </trkpt>
      <trkpt lat="47.87351" lon="7.03198">
        <ele>413</ele>
        <time>2016-06-19T09:11:27Z</time>
      </trkpt>
      <trkpt lat="47.87335" lon="7.03216">
        <ele>412</ele>
        <time>2016-06-19T09:11:38Z</time>
      </trkpt>
      <trkpt lat="47.8732" lon="7.03206">
        <ele>409</ele>
        <time>2016-06-19T09:11:48Z</time>
      </trkpt>
      <trkpt lat="47.87315" lon="7.03204">
        <ele>409</ele>
        <time>2016-06-19T09:11:51Z</time>
      </trkpt>
      <trkpt lat="47.87311" lon="7.032">
        <ele>409</ele>
        <time>2016-06-19T09:11:53Z</time>
      </trkpt>
      <trkpt lat="47.87305" lon="7.03201">
        <ele>408</ele>
        <time>2016-06-19T09:11:57Z</time>
      </trkpt>
      <trkpt lat="47.87296" lon="7.03206">
        <ele>408</ele>
        <time>2016-06-19T09:12:07Z</time>
      </trkpt>
      <trkpt lat="47.87291" lon="7.03208">
        <ele>408</ele>
        <time>2016-06-19T09:12:14Z</time>
      </trkpt>
      <trkpt lat="47.87287" lon="7.03213">
        <ele>408</ele>
        <time>2016-06-19T09:12:20Z</time>
      </trkpt>
      <trkpt lat="47.87273" lon="7.03215">
        <ele>408</ele>
        <time>2016-06-19T09:12:36Z</time>
      </trkpt>
      <trkpt lat="47.87274" lon="7.03222">
        <ele>408</ele>
        <time>2016-06-19T09:12:48Z</time>
      </trkpt>
      <trkpt lat="47.87265" lon="7.03204">
        <ele>407</ele>
        <time>2016-06-19T09:13:01Z</time>
      </trkpt>
      <trkpt lat="47.87262" lon="7.03209">
        <ele>407</ele>
        <time>2016-06-19T09:13:03Z</time>
      </trkpt>
      <trkpt lat="47.87222" lon="7.03224">
        <ele>406</ele>
        <time>2016-06-19T09:13:13Z</time>
      </trkpt>
      <trkpt lat="47.8723" lon="7.03231">
        <ele>406</ele>
        <time>2016-06-19T09:13:24Z</time>
      </trkpt>
      <trkpt lat="47.87249" lon="7.03209">
        <ele>405</ele>
        <time>2016-06-19T09:13:35Z</time>
      </trkpt>
      <trkpt lat="47.87255" lon="7.03209">
        <ele>407</ele>
        <time>2016-06-19T09:13:36Z</time>
      </trkpt>
      <trkpt lat="47.87264" lon="7.03207">
        <ele>407</ele>
        <time>2016-06-19T09:13:38Z</time>
      </trkpt>
      <trkpt lat="47.87259" lon="7.03209">
        <ele>407</ele>
        <time>2016-06-19T09:13:39Z</time>
      </trkpt>
      <trkpt lat="47.87264" lon="7.03199">
        <ele>407</ele>
        <time>2016-06-19T09:13:49Z</time>
      </trkpt>
      <trkpt lat="47.87218" lon="7.03213">
        <ele>405</ele>
        <time>2016-06-19T09:14:00Z</time>
      </trkpt>
    </trkseg>
  </trk>
</gpx>